<?xml version='1.0' encoding='UTF-8'?><gpx version="1.1" creator="JPX - https://github.com/jenetics/jpx" xmlns="http://www.topografix.com/GPX/1/1"><trk><trkseg><trkpt lat="40.6237447" lon="14.3749957"><ele>68.0</ele><time>2026-04-06T06:58:12Z</time></trkpt><trkpt lat="40.6237129" lon="14.3749123"><ele>68.0</ele><time>2026-04-06T06:58:17Z</time></trkpt><trkpt lat="40.6236634" lon="14.3748558"><ele>68.0</ele><time>2026-04-06T07:00:25.15Z</time></trkpt><trkpt lat="40.6236037" lon="14.3747009"><ele>68.0</ele><time>2026-04-06T07:00:27Z</time></trkpt><trkpt lat="40.6235775" lon="14.3745946"><ele>68.0</ele><time>2026-04-06T07:00:28Z</time></trkpt><trkpt lat="40.6235565" lon="14.3744893"><ele>68.0</ele><time>2026-04-06T07:00:29Z</time></trkpt><trkpt lat="40.6235342" lon="14.3743821"><ele>68.0</ele><time>2026-04-06T07:00:30Z</time></trkpt><trkpt lat="40.6235168" lon="14.3742726"><ele>68.0</ele><time>2026-04-06T07:00:31Z</time></trkpt><trkpt lat="40.623499" lon="14.3741659"><ele>68.0</ele><time>2026-04-06T07:00:32Z</time></trkpt><trkpt lat="40.6234834" lon="14.3740635"><ele>68.0</ele><time>2026-04-06T07:00:33Z</time></trkpt><trkpt lat="40.6234699" lon="14.3739675"><ele>68.0</ele><time>2026-04-06T07:00:34Z</time></trkpt><trkpt lat="40.623452" lon="14.3738763"><ele>68.0</ele><time>2026-04-06T07:00:35Z</time></trkpt><trkpt lat="40.6234329" lon="14.3737847"><ele>68.0</ele><time>2026-04-06T07:00:36Z</time></trkpt><trkpt lat="40.6234124" lon="14.3736905"><ele>68.0</ele><time>2026-04-06T07:00:37Z</time></trkpt><trkpt lat="40.623395" lon="14.3735934"><ele>68.0</ele><time>2026-04-06T07:00:37.999Z</time></trkpt><trkpt lat="40.6233847" lon="14.3734924"><ele>68.0</ele><time>2026-04-06T07:00:39Z</time></trkpt><trkpt lat="40.6233851" lon="14.3733876"><ele>68.0</ele><time>2026-04-06T07:00:40Z</time></trkpt><trkpt lat="40.6234093" lon="14.3732743"><ele>68.0</ele><time>2026-04-06T07:00:41Z</time></trkpt><trkpt lat="40.6234605" lon="14.3731769"><ele>68.0</ele><time>2026-04-06T07:00:42Z</time></trkpt><trkpt lat="40.62353" lon="14.3730952"><ele>68.0</ele><time>2026-04-06T07:00:43Z</time></trkpt><trkpt lat="40.6236245" lon="14.3730259"><ele>68.0</ele><time>2026-04-06T07:00:44Z</time></trkpt><trkpt lat="40.6237377" lon="14.3729685"><ele>68.0</ele><time>2026-04-06T07:00:44.999Z</time></trkpt><trkpt lat="40.6238441" lon="14.372903"><ele>68.0</ele><time>2026-04-06T07:00:46Z</time></trkpt><trkpt lat="40.623928" lon="14.3728302"><ele>67.16666666666667</ele><time>2026-04-06T07:00:47Z</time></trkpt><trkpt lat="40.6239816" lon="14.3727313"><ele>66.33333333333334</ele><time>2026-04-06T07:00:48Z</time></trkpt><trkpt lat="40.6240205" lon="14.372636"><ele>65.5</ele><time>2026-04-06T07:00:48.999Z</time></trkpt><trkpt lat="40.6240389" lon="14.3725289"><ele>64.66666666666667</ele><time>2026-04-06T07:00:50Z</time></trkpt><trkpt lat="40.6240343" lon="14.372419"><ele>63.833333333333336</ele><time>2026-04-06T07:00:51Z</time></trkpt><trkpt lat="40.6240246" lon="14.3723124"><ele>63.0</ele><time>2026-04-06T07:00:52Z</time></trkpt><trkpt lat="40.624006" lon="14.3722099"><ele>62.666666666666664</ele><time>2026-04-06T07:00:53Z</time></trkpt><trkpt lat="40.6239844" lon="14.372104"><ele>62.33333333333333</ele><time>2026-04-06T07:00:54Z</time></trkpt><trkpt lat="40.6239658" lon="14.3719958"><ele>62.0</ele><time>2026-04-06T07:00:55Z</time></trkpt><trkpt lat="40.6239457" lon="14.3718865"><ele>61.666666666666664</ele><time>2026-04-06T07:00:56Z</time></trkpt><trkpt lat="40.6239253" lon="14.3717735"><ele>61.33333333333333</ele><time>2026-04-06T07:00:57Z</time></trkpt><trkpt lat="40.6239064" lon="14.371661"><ele>61.0</ele><time>2026-04-06T07:00:58Z</time></trkpt><trkpt lat="40.6238811" lon="14.3715517"><ele>61.0</ele><time>2026-04-06T07:00:59Z</time></trkpt><trkpt lat="40.623856" lon="14.3714368"><ele>60.99999999999999</ele><time>2026-04-06T07:01:00Z</time></trkpt><trkpt lat="40.6238335" lon="14.3713183"><ele>60.99999999999999</ele><time>2026-04-06T07:01:01Z</time></trkpt><trkpt lat="40.6238083" lon="14.3711999"><ele>61.0</ele><time>2026-04-06T07:01:02Z</time></trkpt><trkpt lat="40.6237774" lon="14.3710893"><ele>61.0</ele><time>2026-04-06T07:01:03Z</time></trkpt><trkpt lat="40.6237398" lon="14.3709766"><ele>61.0</ele><time>2026-04-06T07:01:04Z</time></trkpt><trkpt lat="40.6237036" lon="14.3708654"><ele>60.99999999999999</ele><time>2026-04-06T07:01:05Z</time></trkpt><trkpt lat="40.6236654" lon="14.370749"><ele>60.99999999999999</ele><time>2026-04-06T07:01:06Z</time></trkpt><trkpt lat="40.6236409" lon="14.3706319"><ele>61.0</ele><time>2026-04-06T07:01:07Z</time></trkpt><trkpt lat="40.6236366" lon="14.3705034"><ele>61.0</ele><time>2026-04-06T07:01:08Z</time></trkpt><trkpt lat="40.6236531" lon="14.3703864"><ele>60.8</ele><time>2026-04-06T07:01:09Z</time></trkpt><trkpt lat="40.6236909" lon="14.3702812"><ele>60.599999999999994</ele><time>2026-04-06T07:01:10Z</time></trkpt><trkpt lat="40.6237339" lon="14.3701841"><ele>60.4</ele><time>2026-04-06T07:01:11Z</time></trkpt><trkpt lat="40.6237902" lon="14.3700794"><ele>60.2</ele><time>2026-04-06T07:01:12Z</time></trkpt><trkpt lat="40.6238607" lon="14.3699841"><ele>60.0</ele><time>2026-04-06T07:01:13Z</time></trkpt><trkpt lat="40.6239265" lon="14.3698849"><ele>60.0</ele><time>2026-04-06T07:01:14Z</time></trkpt><trkpt lat="40.6239876" lon="14.3698015"><ele>60.0</ele><time>2026-04-06T07:01:14.999Z</time></trkpt><trkpt lat="40.6240451" lon="14.3696988"><ele>60.0</ele><time>2026-04-06T07:01:16Z</time></trkpt><trkpt lat="40.6240773" lon="14.3696087"><ele>60.0</ele><time>2026-04-06T07:01:17Z</time></trkpt><trkpt lat="40.6241164" lon="14.3695237"><ele>60.0</ele><time>2026-04-06T07:01:18Z</time></trkpt><trkpt lat="40.6241576" lon="14.3694396"><ele>60.0</ele><time>2026-04-06T07:01:19Z</time></trkpt><trkpt lat="40.6242042" lon="14.369363"><ele>60.166666666666664</ele><time>2026-04-06T07:01:20Z</time></trkpt><trkpt lat="40.624236" lon="14.369277"><ele>60.33333333333333</ele><time>2026-04-06T07:01:21Z</time></trkpt><trkpt lat="40.6242675" lon="14.3691995"><ele>60.5</ele><time>2026-04-06T07:01:22Z</time></trkpt><trkpt lat="40.6243071" lon="14.3690615"><ele>60.666666666666664</ele><time>2026-04-06T07:01:24Z</time></trkpt><trkpt lat="40.6243496" lon="14.3689602"><ele>60.83333333333333</ele><time>2026-04-06T07:01:26Z</time></trkpt><trkpt lat="40.6243838" lon="14.3688722"><ele>61.0</ele><time>2026-04-06T07:01:29Z</time></trkpt><trkpt lat="40.6244346" lon="14.3687733"><ele>61.4</ele><time>2026-04-06T07:01:35Z</time></trkpt><trkpt lat="40.6243989" lon="14.3685636"><ele>61.8</ele><time>2026-04-06T07:01:38Z</time></trkpt><trkpt lat="40.6243705" lon="14.3684608"><ele>62.199999999999996</ele><time>2026-04-06T07:01:39Z</time></trkpt><trkpt lat="40.6243406" lon="14.3683593"><ele>62.599999999999994</ele><time>2026-04-06T07:01:40Z</time></trkpt><trkpt lat="40.6243113" lon="14.3682515"><ele>63.0</ele><time>2026-04-06T07:01:41Z</time></trkpt><trkpt lat="40.6242928" lon="14.3681499"><ele>63.0</ele><time>2026-04-06T07:01:42Z</time></trkpt><trkpt lat="40.6242687" lon="14.3680493"><ele>63.0</ele><time>2026-04-06T07:01:43Z</time></trkpt><trkpt lat="40.6242408" lon="14.3679461"><ele>63.0</ele><time>2026-04-06T07:01:44Z</time></trkpt><trkpt lat="40.6242141" lon="14.3678553"><ele>63.0</ele><time>2026-04-06T07:01:45Z</time></trkpt><trkpt lat="40.6241848" lon="14.3677637"><ele>63.0</ele><time>2026-04-06T07:01:46Z</time></trkpt><trkpt lat="40.6241402" lon="14.3676704"><ele>63.0</ele><time>2026-04-06T07:01:47Z</time></trkpt><trkpt lat="40.6240621" lon="14.3675834"><ele>61.25</ele><time>2026-04-06T07:01:48Z</time></trkpt><trkpt lat="40.6239796" lon="14.3674901"><ele>59.5</ele><time>2026-04-06T07:01:49Z</time></trkpt><trkpt lat="40.6239241" lon="14.3673264"><ele>57.75</ele><time>2026-04-06T07:01:50Z</time></trkpt><trkpt lat="40.6238587" lon="14.3671715"><ele>56.0</ele><time>2026-04-06T07:01:51Z</time></trkpt><trkpt lat="40.623832" lon="14.3669918"><ele>60.25</ele><time>2026-04-06T07:01:52Z</time></trkpt><trkpt lat="40.6238503" lon="14.3668481"><ele>64.5</ele><time>2026-04-06T07:01:52.999Z</time></trkpt><trkpt lat="40.623889" lon="14.3667161"><ele>68.75</ele><time>2026-04-06T07:01:54Z</time></trkpt><trkpt lat="40.6240134" lon="14.3665854"><ele>73.0</ele><time>2026-04-06T07:01:55Z</time></trkpt><trkpt lat="40.6240994" lon="14.3664699"><ele>73.0</ele><time>2026-04-06T07:01:56Z</time></trkpt><trkpt lat="40.6241675" lon="14.3663655"><ele>73.0</ele><time>2026-04-06T07:01:57Z</time></trkpt><trkpt lat="40.6242327" lon="14.3662749"><ele>73.0</ele><time>2026-04-06T07:01:58Z</time></trkpt><trkpt lat="40.6242883" lon="14.3661925"><ele>73.0</ele><time>2026-04-06T07:01:59Z</time></trkpt><trkpt lat="40.6243513" lon="14.3661084"><ele>73.0</ele><time>2026-04-06T07:02:00Z</time></trkpt><trkpt lat="40.6244238" lon="14.366021"><ele>71.2</ele><time>2026-04-06T07:02:00.999Z</time></trkpt><trkpt lat="40.6244983" lon="14.3659438"><ele>69.4</ele><time>2026-04-06T07:02:02Z</time></trkpt><trkpt lat="40.6245806" lon="14.3658717"><ele>67.60000000000001</ele><time>2026-04-06T07:02:02.999Z</time></trkpt><trkpt lat="40.6246688" lon="14.365797"><ele>65.8</ele><time>2026-04-06T07:02:03.999Z</time></trkpt><trkpt lat="40.6247578" lon="14.3657536"><ele>64.0</ele><time>2026-04-06T07:02:05Z</time></trkpt><trkpt lat="40.6248464" lon="14.3657125"><ele>63.99999999999999</ele><time>2026-04-06T07:02:06Z</time></trkpt><trkpt lat="40.6249319" lon="14.3656852"><ele>64.0</ele><time>2026-04-06T07:02:07Z</time></trkpt><trkpt lat="40.6250054" lon="14.365675"><ele>64.0</ele><time>2026-04-06T07:02:08Z</time></trkpt><trkpt lat="40.6250799" lon="14.3656578"><ele>64.0</ele><time>2026-04-06T07:02:09Z</time></trkpt><trkpt lat="40.625155" lon="14.3656445"><ele>63.99999999999999</ele><time>2026-04-06T07:02:09.999Z</time></trkpt><trkpt lat="40.6252284" lon="14.3656129"><ele>64.0</ele><time>2026-04-06T07:02:11Z</time></trkpt><trkpt lat="40.6253082" lon="14.3655868"><ele>61.49999999999999</ele><time>2026-04-06T07:02:12Z</time></trkpt><trkpt lat="40.6253802" lon="14.3655455"><ele>59.0</ele><time>2026-04-06T07:02:13Z</time></trkpt><trkpt lat="40.6254597" lon="14.3655007"><ele>56.5</ele><time>2026-04-06T07:02:14Z</time></trkpt><trkpt lat="40.6255437" lon="14.3654475"><ele>54.0</ele><time>2026-04-06T07:02:15Z</time></trkpt><trkpt lat="40.6256118" lon="14.3653929"><ele>51.49999999999999</ele><time>2026-04-06T07:02:16Z</time></trkpt><trkpt lat="40.62568" lon="14.3653362"><ele>49.0</ele><time>2026-04-06T07:02:17Z</time></trkpt><trkpt lat="40.6257314" lon="14.3652878"><ele>55.0</ele><time>2026-04-06T07:02:18Z</time></trkpt><trkpt lat="40.625795" lon="14.3652252"><ele>61.0</ele><time>2026-04-06T07:02:20Z</time></trkpt><trkpt lat="40.6258487" lon="14.365173"><ele>67.0</ele><time>2026-04-06T07:02:23Z</time></trkpt><trkpt lat="40.6259705" lon="14.365091"><ele>73.0</ele><time>2026-04-06T07:02:26Z</time></trkpt><trkpt lat="40.6260621" lon="14.3650177"><ele>79.0</ele><time>2026-04-06T07:02:28Z</time></trkpt><trkpt lat="40.6261415" lon="14.3649297"><ele>83.0</ele><time>2026-04-06T07:02:29Z</time></trkpt><trkpt lat="40.626261" lon="14.364811"><ele>87.0</ele><time>2026-04-06T07:02:30Z</time></trkpt><trkpt lat="40.6263741" lon="14.3647513"><ele>91.0</ele><time>2026-04-06T07:02:31Z</time></trkpt><trkpt lat="40.6264751" lon="14.3646903"><ele>95.0</ele><time>2026-04-06T07:02:32Z</time></trkpt><trkpt lat="40.6265636" lon="14.3646476"><ele>95.0</ele><time>2026-04-06T07:02:33Z</time></trkpt><trkpt lat="40.6266295" lon="14.3646127"><ele>95.0</ele><time>2026-04-06T07:02:34Z</time></trkpt><trkpt lat="40.6267076" lon="14.364578"><ele>95.0</ele><time>2026-04-06T07:02:35Z</time></trkpt><trkpt lat="40.6267682" lon="14.3645497"><ele>95.0</ele><time>2026-04-06T07:02:36Z</time></trkpt><trkpt lat="40.626859" lon="14.3644857"><ele>95.0</ele><time>2026-04-06T07:02:37Z</time></trkpt><trkpt lat="40.6269335" lon="14.3644366"><ele>95.0</ele><time>2026-04-06T07:02:38Z</time></trkpt><trkpt lat="40.6270118" lon="14.3643865"><ele>87.16666666666667</ele><time>2026-04-06T07:02:39Z</time></trkpt><trkpt lat="40.6270812" lon="14.3643216"><ele>79.33333333333334</ele><time>2026-04-06T07:02:40Z</time></trkpt><trkpt lat="40.6271497" lon="14.3642478"><ele>71.5</ele><time>2026-04-06T07:02:40.999Z</time></trkpt><trkpt lat="40.6272045" lon="14.3641588"><ele>63.66666666666667</ele><time>2026-04-06T07:02:42Z</time></trkpt><trkpt lat="40.6272536" lon="14.3640591"><ele>55.833333333333336</ele><time>2026-04-06T07:02:43Z</time></trkpt><trkpt lat="40.6272971" lon="14.3639642"><ele>48.0</ele><time>2026-04-06T07:02:44Z</time></trkpt><trkpt lat="40.6273462" lon="14.3638689"><ele>54.4</ele><time>2026-04-06T07:02:45Z</time></trkpt><trkpt lat="40.6273929" lon="14.3637661"><ele>60.8</ele><time>2026-04-06T07:02:45.999Z</time></trkpt><trkpt lat="40.6274445" lon="14.3636511"><ele>67.2</ele><time>2026-04-06T07:02:46.999Z</time></trkpt><trkpt lat="40.6275028" lon="14.3635413"><ele>73.6</ele><time>2026-04-06T07:02:48Z</time></trkpt><trkpt lat="40.6275593" lon="14.3634378"><ele>80.0</ele><time>2026-04-06T07:02:49Z</time></trkpt><trkpt lat="40.6276149" lon="14.3633293"><ele>80.0</ele><time>2026-04-06T07:02:50Z</time></trkpt><trkpt lat="40.6276684" lon="14.3632139"><ele>80.0</ele><time>2026-04-06T07:02:51Z</time></trkpt><trkpt lat="40.627721" lon="14.3630973"><ele>80.0</ele><time>2026-04-06T07:02:51.999Z</time></trkpt><trkpt lat="40.6277723" lon="14.3629811"><ele>80.0</ele><time>2026-04-06T07:02:52.999Z</time></trkpt><trkpt lat="40.6278247" lon="14.3628695"><ele>80.0</ele><time>2026-04-06T07:02:54Z</time></trkpt><trkpt lat="40.6278878" lon="14.3627742"><ele>76.0</ele><time>2026-04-06T07:02:55Z</time></trkpt><trkpt lat="40.627954" lon="14.3626844"><ele>72.0</ele><time>2026-04-06T07:02:56Z</time></trkpt><trkpt lat="40.6280308" lon="14.3625979"><ele>68.0</ele><time>2026-04-06T07:02:57Z</time></trkpt><trkpt lat="40.6281022" lon="14.3625199"><ele>64.0</ele><time>2026-04-06T07:02:58Z</time></trkpt><trkpt lat="40.6281755" lon="14.3624363"><ele>60.0</ele><time>2026-04-06T07:02:59Z</time></trkpt><trkpt lat="40.6282394" lon="14.3623569"><ele>60.0</ele><time>2026-04-06T07:03:00Z</time></trkpt><trkpt lat="40.6283011" lon="14.3622707"><ele>60.0</ele><time>2026-04-06T07:03:01Z</time></trkpt><trkpt lat="40.628347" lon="14.3621782"><ele>60.0</ele><time>2026-04-06T07:03:02Z</time></trkpt><trkpt lat="40.6283944" lon="14.3620861"><ele>60.0</ele><time>2026-04-06T07:03:03Z</time></trkpt><trkpt lat="40.6284227" lon="14.3619881"><ele>60.0</ele><time>2026-04-06T07:03:04Z</time></trkpt><trkpt lat="40.6284407" lon="14.3618806"><ele>60.0</ele><time>2026-04-06T07:03:05Z</time></trkpt><trkpt lat="40.6284402" lon="14.3617819"><ele>60.8</ele><time>2026-04-06T07:03:06Z</time></trkpt><trkpt lat="40.6283705" lon="14.3616247"><ele>61.6</ele><time>2026-04-06T07:03:08Z</time></trkpt><trkpt lat="40.6282857" lon="14.3615671"><ele>62.400000000000006</ele><time>2026-04-06T07:03:09Z</time></trkpt><trkpt lat="40.6282033" lon="14.3615114"><ele>63.2</ele><time>2026-04-06T07:03:10Z</time></trkpt><trkpt lat="40.6281024" lon="14.3614293"><ele>64.0</ele><time>2026-04-06T07:03:11Z</time></trkpt><trkpt lat="40.6279707" lon="14.3612927"><ele>64.0</ele><time>2026-04-06T07:03:12Z</time></trkpt><trkpt lat="40.6278617" lon="14.3611928"><ele>64.0</ele><time>2026-04-06T07:03:13Z</time></trkpt><trkpt lat="40.6277458" lon="14.3610971"><ele>64.0</ele><time>2026-04-06T07:03:14Z</time></trkpt><trkpt lat="40.6276675" lon="14.3610255"><ele>64.0</ele><time>2026-04-06T07:03:15Z</time></trkpt><trkpt lat="40.6275739" lon="14.3610447"><ele>68.0</ele><time>2026-04-06T07:03:16Z</time></trkpt><trkpt lat="40.6273849" lon="14.3609682"><ele>72.0</ele><time>2026-04-06T07:03:17.999Z</time></trkpt><trkpt lat="40.6273049" lon="14.3609018"><ele>76.0</ele><time>2026-04-06T07:03:19Z</time></trkpt><trkpt lat="40.6272197" lon="14.3608175"><ele>80.0</ele><time>2026-04-06T07:03:20Z</time></trkpt><trkpt lat="40.6271468" lon="14.3606947"><ele>80.0</ele><time>2026-04-06T07:03:21Z</time></trkpt><trkpt lat="40.6270513" lon="14.3605898"><ele>80.0</ele><time>2026-04-06T07:03:22Z</time></trkpt><trkpt lat="40.6269594" lon="14.3605074"><ele>80.0</ele><time>2026-04-06T07:03:23Z</time></trkpt><trkpt lat="40.6268512" lon="14.3604341"><ele>80.0</ele><time>2026-04-06T07:03:24Z</time></trkpt><trkpt lat="40.6267372" lon="14.3603712"><ele>81.5</ele><time>2026-04-06T07:03:25Z</time></trkpt><trkpt lat="40.6266027" lon="14.3603739"><ele>83.0</ele><time>2026-04-06T07:03:25.999Z</time></trkpt><trkpt lat="40.6264657" lon="14.360326"><ele>84.5</ele><time>2026-04-06T07:03:27Z</time></trkpt><trkpt lat="40.6263792" lon="14.3602843"><ele>86.0</ele><time>2026-04-06T07:03:28Z</time></trkpt><trkpt lat="40.6263051" lon="14.3602385"><ele>86.0</ele><time>2026-04-06T07:03:29Z</time></trkpt><trkpt lat="40.6262575" lon="14.3601721"><ele>86.0</ele><time>2026-04-06T07:03:30Z</time></trkpt><trkpt lat="40.6262041" lon="14.3600386"><ele>86.0</ele><time>2026-04-06T07:03:32Z</time></trkpt><trkpt lat="40.6261513" lon="14.3599917"><ele>86.0</ele><time>2026-04-06T07:03:33Z</time></trkpt><trkpt lat="40.626096" lon="14.3599314"><ele>86.0</ele><time>2026-04-06T07:03:33.999Z</time></trkpt><trkpt lat="40.6260694" lon="14.3598413"><ele>86.0</ele><time>2026-04-06T07:03:35Z</time></trkpt><trkpt lat="40.6260793" lon="14.3597307"><ele>88.0</ele><time>2026-04-06T07:03:36Z</time></trkpt><trkpt lat="40.6261083" lon="14.3596205"><ele>90.0</ele><time>2026-04-06T07:03:37Z</time></trkpt><trkpt lat="40.6261478" lon="14.3595187"><ele>92.0</ele><time>2026-04-06T07:03:38Z</time></trkpt><trkpt lat="40.6262583" lon="14.3594517"><ele>94.0</ele><time>2026-04-06T07:03:39Z</time></trkpt><trkpt lat="40.6263586" lon="14.3593612"><ele>96.0</ele><time>2026-04-06T07:03:40Z</time></trkpt><trkpt lat="40.626481" lon="14.3592659"><ele>96.0</ele><time>2026-04-06T07:03:41Z</time></trkpt><trkpt lat="40.6266192" lon="14.3591635"><ele>96.0</ele><time>2026-04-06T07:03:42Z</time></trkpt><trkpt lat="40.6267659" lon="14.359048"><ele>96.0</ele><time>2026-04-06T07:03:43Z</time></trkpt><trkpt lat="40.6269004" lon="14.358943"><ele>96.0</ele><time>2026-04-06T07:03:44Z</time></trkpt><trkpt lat="40.6270336" lon="14.3588321"><ele>96.0</ele><time>2026-04-06T07:03:45Z</time></trkpt><trkpt lat="40.6271646" lon="14.3587256"><ele>96.0</ele><time>2026-04-06T07:03:46Z</time></trkpt><trkpt lat="40.6272267" lon="14.3586707"><ele>96.0</ele><time>2026-04-06T07:03:47Z</time></trkpt><trkpt lat="40.6272875" lon="14.3585698"><ele>96.0</ele><time>2026-04-06T07:03:48Z</time></trkpt><trkpt lat="40.6273573" lon="14.3584802"><ele>96.0</ele><time>2026-04-06T07:03:49Z</time></trkpt><trkpt lat="40.6274145" lon="14.3583658"><ele>96.0</ele><time>2026-04-06T07:03:50Z</time></trkpt><trkpt lat="40.6273559" lon="14.3582753"><ele>96.0</ele><time>2026-04-06T07:03:51Z</time></trkpt><trkpt lat="40.6273212" lon="14.3581857"><ele>96.0</ele><time>2026-04-06T07:03:52Z</time></trkpt><trkpt lat="40.62727" lon="14.3580768"><ele>95.66666666666667</ele><time>2026-04-06T07:03:52.999Z</time></trkpt><trkpt lat="40.6271615" lon="14.3580213"><ele>95.33333333333334</ele><time>2026-04-06T07:03:54Z</time></trkpt><trkpt lat="40.6270163" lon="14.3580312"><ele>95.0</ele><time>2026-04-06T07:03:54.999Z</time></trkpt><trkpt lat="40.6268307" lon="14.3582837"><ele>98.66666666666667</ele><time>2026-04-06T07:03:56Z</time></trkpt><trkpt lat="40.6267004" lon="14.3583569"><ele>102.33333333333334</ele><time>2026-04-06T07:03:57Z</time></trkpt><trkpt lat="40.6265511" lon="14.3584776"><ele>106.0</ele><time>2026-04-06T07:03:58Z</time></trkpt><trkpt lat="40.62638" lon="14.358608"><ele>106.0</ele><time>2026-04-06T07:03:59Z</time></trkpt><trkpt lat="40.6262084" lon="14.3587422"><ele>106.0</ele><time>2026-04-06T07:04:00Z</time></trkpt><trkpt lat="40.6260679" lon="14.3588502"><ele>106.0</ele><time>2026-04-06T07:04:01Z</time></trkpt><trkpt lat="40.6259372" lon="14.3589835"><ele>106.0</ele><time>2026-04-06T07:04:02Z</time></trkpt><trkpt lat="40.6257934" lon="14.3590602"><ele>106.0</ele><time>2026-04-06T07:04:03Z</time></trkpt><trkpt lat="40.6256533" lon="14.3591522"><ele>106.0</ele><time>2026-04-06T07:04:04Z</time></trkpt><trkpt lat="40.625522" lon="14.3592465"><ele>106.0</ele><time>2026-04-06T07:04:05Z</time></trkpt><trkpt lat="40.62539" lon="14.3593223"><ele>106.0</ele><time>2026-04-06T07:04:06Z</time></trkpt><trkpt lat="40.6252558" lon="14.3594026"><ele>106.0</ele><time>2026-04-06T07:04:06.999Z</time></trkpt><trkpt lat="40.6251366" lon="14.3594747"><ele>106.0</ele><time>2026-04-06T07:04:08Z</time></trkpt><trkpt lat="40.6250202" lon="14.3595371"><ele>109.75</ele><time>2026-04-06T07:04:09Z</time></trkpt><trkpt lat="40.6248901" lon="14.359445"><ele>113.5</ele><time>2026-04-06T07:04:10Z</time></trkpt><trkpt lat="40.6247744" lon="14.3594385"><ele>117.25</ele><time>2026-04-06T07:04:11Z</time></trkpt><trkpt lat="40.6246378" lon="14.359371"><ele>121.0</ele><time>2026-04-06T07:04:11.999Z</time></trkpt><trkpt lat="40.6245097" lon="14.359298"><ele>122.0</ele><time>2026-04-06T07:04:13Z</time></trkpt><trkpt lat="40.6243912" lon="14.359223"><ele>123.0</ele><time>2026-04-06T07:04:14Z</time></trkpt><trkpt lat="40.6242892" lon="14.3591109"><ele>124.0</ele><time>2026-04-06T07:04:15Z</time></trkpt><trkpt lat="40.6241756" lon="14.3590101"><ele>125.0</ele><time>2026-04-06T07:04:16Z</time></trkpt><trkpt lat="40.6240961" lon="14.3590273"><ele>125.0</ele><time>2026-04-06T07:04:16.999Z</time></trkpt><trkpt lat="40.6239935" lon="14.3590062"><ele>125.0</ele><time>2026-04-06T07:04:18Z</time></trkpt><trkpt lat="40.6239001" lon="14.3591245"><ele>125.0</ele><time>2026-04-06T07:04:18.999Z</time></trkpt><trkpt lat="40.6237955" lon="14.3592799"><ele>125.0</ele><time>2026-04-06T07:04:20Z</time></trkpt><trkpt lat="40.6237096" lon="14.3594141"><ele>125.0</ele><time>2026-04-06T07:04:21Z</time></trkpt><trkpt lat="40.6236614" lon="14.3595534"><ele>125.0</ele><time>2026-04-06T07:04:22Z</time></trkpt><trkpt lat="40.6236107" lon="14.359698"><ele>125.0</ele><time>2026-04-06T07:04:23Z</time></trkpt><trkpt lat="40.6236693" lon="14.3598335"><ele>125.0</ele><time>2026-04-06T07:04:24Z</time></trkpt><trkpt lat="40.6237328" lon="14.3599489"><ele>124.0</ele><time>2026-04-06T07:04:25Z</time></trkpt><trkpt lat="40.6238003" lon="14.3600543"><ele>123.0</ele><time>2026-04-06T07:04:25.999Z</time></trkpt><trkpt lat="40.6239375" lon="14.3601141"><ele>122.0</ele><time>2026-04-06T07:04:27Z</time></trkpt><trkpt lat="40.6240862" lon="14.3602257"><ele>121.0</ele><time>2026-04-06T07:04:28Z</time></trkpt><trkpt lat="40.6242666" lon="14.3603314"><ele>121.0</ele><time>2026-04-06T07:04:29Z</time></trkpt><trkpt lat="40.6244354" lon="14.3604237"><ele>121.0</ele><time>2026-04-06T07:04:30Z</time></trkpt><trkpt lat="40.6245933" lon="14.36054"><ele>121.0</ele><time>2026-04-06T07:04:31Z</time></trkpt><trkpt lat="40.6247372" lon="14.3606334"><ele>122.66666666666667</ele><time>2026-04-06T07:04:32Z</time></trkpt><trkpt lat="40.624883" lon="14.360732"><ele>124.33333333333334</ele><time>2026-04-06T07:04:33Z</time></trkpt><trkpt lat="40.6249837" lon="14.3608975"><ele>126.0</ele><time>2026-04-06T07:04:34Z</time></trkpt><trkpt lat="40.6250943" lon="14.3610623"><ele>126.0</ele><time>2026-04-06T07:04:35Z</time></trkpt><trkpt lat="40.6251942" lon="14.3612522"><ele>126.0</ele><time>2026-04-06T07:04:36Z</time></trkpt><trkpt lat="40.6252879" lon="14.3614497"><ele>126.0</ele><time>2026-04-06T07:04:37Z</time></trkpt><trkpt lat="40.6253885" lon="14.3616433"><ele>124.66666666666666</ele><time>2026-04-06T07:04:38Z</time></trkpt><trkpt lat="40.6255232" lon="14.3618136"><ele>123.33333333333333</ele><time>2026-04-06T07:04:39Z</time></trkpt><trkpt lat="40.6256877" lon="14.3619775"><ele>122.0</ele><time>2026-04-06T07:04:40Z</time></trkpt><trkpt lat="40.6258568" lon="14.362149"><ele>121.33333333333333</ele><time>2026-04-06T07:04:41Z</time></trkpt><trkpt lat="40.6259942" lon="14.3623213"><ele>120.66666666666666</ele><time>2026-04-06T07:04:42Z</time></trkpt><trkpt lat="40.6261397" lon="14.3624854"><ele>120.0</ele><time>2026-04-06T07:04:43Z</time></trkpt><trkpt lat="40.6262315" lon="14.3626446"><ele>120.0</ele><time>2026-04-06T07:04:44Z</time></trkpt><trkpt lat="40.6262778" lon="14.3627938"><ele>120.0</ele><time>2026-04-06T07:04:45Z</time></trkpt><trkpt lat="40.6263286" lon="14.3629482"><ele>120.0</ele><time>2026-04-06T07:04:45.999Z</time></trkpt><trkpt lat="40.6263115" lon="14.3630744"><ele>120.0</ele><time>2026-04-06T07:04:47Z</time></trkpt><trkpt lat="40.6262791" lon="14.3631843"><ele>120.0</ele><time>2026-04-06T07:04:48Z</time></trkpt><trkpt lat="40.6262441" lon="14.3632799"><ele>119.6</ele><time>2026-04-06T07:04:49Z</time></trkpt><trkpt lat="40.6261575" lon="14.3632989"><ele>119.2</ele><time>2026-04-06T07:04:50Z</time></trkpt><trkpt lat="40.6260873" lon="14.3632638"><ele>118.80000000000001</ele><time>2026-04-06T07:04:51Z</time></trkpt><trkpt lat="40.6260188" lon="14.3630553"><ele>118.4</ele><time>2026-04-06T07:04:52Z</time></trkpt><trkpt lat="40.6259513" lon="14.3629543"><ele>118.0</ele><time>2026-04-06T07:04:52.999Z</time></trkpt><trkpt lat="40.6258633" lon="14.3628115"><ele>123.66666666666667</ele><time>2026-04-06T07:04:53.999Z</time></trkpt><trkpt lat="40.6257074" lon="14.3626665"><ele>129.33333333333334</ele><time>2026-04-06T07:04:55Z</time></trkpt><trkpt lat="40.6255838" lon="14.3625548"><ele>135.0</ele><time>2026-04-06T07:04:56Z</time></trkpt><trkpt lat="40.625452" lon="14.3624595"><ele>138.33333333333334</ele><time>2026-04-06T07:04:57Z</time></trkpt><trkpt lat="40.6253091" lon="14.3623866"><ele>141.66666666666669</ele><time>2026-04-06T07:04:58Z</time></trkpt><trkpt lat="40.6251351" lon="14.3624142"><ele>145.0</ele><time>2026-04-06T07:04:59Z</time></trkpt><trkpt lat="40.6249693" lon="14.3623833"><ele>145.0</ele><time>2026-04-06T07:05:00Z</time></trkpt><trkpt lat="40.624807" lon="14.3623218"><ele>145.0</ele><time>2026-04-06T07:05:01Z</time></trkpt><trkpt lat="40.6247284" lon="14.3621622"><ele>145.0</ele><time>2026-04-06T07:05:02Z</time></trkpt><trkpt lat="40.6246467" lon="14.3619761"><ele>151.5</ele><time>2026-04-06T07:05:03Z</time></trkpt><trkpt lat="40.6244645" lon="14.3617526"><ele>158.0</ele><time>2026-04-06T07:05:04Z</time></trkpt><trkpt lat="40.624321" lon="14.3615496"><ele>153.0</ele><time>2026-04-06T07:05:05Z</time></trkpt><trkpt lat="40.6241697" lon="14.3613456"><ele>148.0</ele><time>2026-04-06T07:05:06Z</time></trkpt><trkpt lat="40.6240425" lon="14.3611976"><ele>143.0</ele><time>2026-04-06T07:05:07Z</time></trkpt><trkpt lat="40.6239075" lon="14.3610633"><ele>143.0</ele><time>2026-04-06T07:05:08Z</time></trkpt><trkpt lat="40.6238014" lon="14.3609409"><ele>143.0</ele><time>2026-04-06T07:05:09Z</time></trkpt><trkpt lat="40.6236942" lon="14.3609148"><ele>143.0</ele><time>2026-04-06T07:05:10Z</time></trkpt><trkpt lat="40.6235923" lon="14.360907"><ele>143.0</ele><time>2026-04-06T07:05:11Z</time></trkpt><trkpt lat="40.6234865" lon="14.3609193"><ele>146.66666666666666</ele><time>2026-04-06T07:05:12Z</time></trkpt><trkpt lat="40.6233657" lon="14.3609706"><ele>150.33333333333334</ele><time>2026-04-06T07:05:13.104Z</time></trkpt><trkpt lat="40.6231404" lon="14.361263"><ele>154.0</ele><time>2026-04-06T07:05:15Z</time></trkpt><trkpt lat="40.6230181" lon="14.3613953"><ele>157.0</ele><time>2026-04-06T07:05:16Z</time></trkpt><trkpt lat="40.6229058" lon="14.3614782"><ele>160.0</ele><time>2026-04-06T07:05:17Z</time></trkpt><trkpt lat="40.6227829" lon="14.361589"><ele>163.0</ele><time>2026-04-06T07:05:18Z</time></trkpt><trkpt lat="40.6227029" lon="14.3616926"><ele>166.0</ele><time>2026-04-06T07:05:19Z</time></trkpt><trkpt lat="40.6226487" lon="14.36177"><ele>166.0</ele><time>2026-04-06T07:05:20Z</time></trkpt><trkpt lat="40.6226236" lon="14.3618639"><ele>166.0</ele><time>2026-04-06T07:05:21Z</time></trkpt><trkpt lat="40.6227009" lon="14.3619832"><ele>166.0</ele><time>2026-04-06T07:05:21.999Z</time></trkpt><trkpt lat="40.6227733" lon="14.3620736"><ele>166.0</ele><time>2026-04-06T07:05:24Z</time></trkpt><trkpt lat="40.6230439" lon="14.3619699"><ele>166.5</ele><time>2026-04-06T07:05:25Z</time></trkpt><trkpt lat="40.623179" lon="14.3618393"><ele>167.0</ele><time>2026-04-06T07:05:25.999Z</time></trkpt><trkpt lat="40.6233115" lon="14.3618064"><ele>167.5</ele><time>2026-04-06T07:05:27Z</time></trkpt><trkpt lat="40.6234493" lon="14.3617504"><ele>168.0</ele><time>2026-04-06T07:05:28Z</time></trkpt><trkpt lat="40.6235861" lon="14.361774"><ele>166.0</ele><time>2026-04-06T07:05:29Z</time></trkpt><trkpt lat="40.623707" lon="14.3617679"><ele>164.0</ele><time>2026-04-06T07:05:30Z</time></trkpt><trkpt lat="40.6237457" lon="14.3618719"><ele>162.0</ele><time>2026-04-06T07:05:31Z</time></trkpt><trkpt lat="40.6238123" lon="14.3619631"><ele>160.0</ele><time>2026-04-06T07:05:32Z</time></trkpt><trkpt lat="40.6238372" lon="14.3620545"><ele>158.0</ele><time>2026-04-06T07:05:33Z</time></trkpt><trkpt lat="40.6238571" lon="14.3621619"><ele>158.5</ele><time>2026-04-06T07:05:34Z</time></trkpt><trkpt lat="40.6237204" lon="14.362281"><ele>159.0</ele><time>2026-04-06T07:05:35Z</time></trkpt><trkpt lat="40.6236559" lon="14.3623797"><ele>159.5</ele><time>2026-04-06T07:05:36Z</time></trkpt><trkpt lat="40.623573" lon="14.3624622"><ele>160.0</ele><time>2026-04-06T07:05:37Z</time></trkpt><trkpt lat="40.6234251" lon="14.3625409"><ele>164.66666666666669</ele><time>2026-04-06T07:05:37.999Z</time></trkpt><trkpt lat="40.6232071" lon="14.3627418"><ele>169.33333333333334</ele><time>2026-04-06T07:05:39Z</time></trkpt><trkpt lat="40.6230762" lon="14.3628899"><ele>174.0</ele><time>2026-04-06T07:05:40Z</time></trkpt><trkpt lat="40.6229832" lon="14.3630607"><ele>174.0</ele><time>2026-04-06T07:05:41Z</time></trkpt><trkpt lat="40.6229146" lon="14.3632413"><ele>174.0</ele><time>2026-04-06T07:05:42Z</time></trkpt><trkpt lat="40.6228554" lon="14.363428"><ele>174.0</ele><time>2026-04-06T07:05:43Z</time></trkpt><trkpt lat="40.6227956" lon="14.3635912"><ele>174.0</ele><time>2026-04-06T07:05:44Z</time></trkpt><trkpt lat="40.6226669" lon="14.3637063"><ele>178.33333333333334</ele><time>2026-04-06T07:05:45Z</time></trkpt><trkpt lat="40.6225642" lon="14.3637968"><ele>182.66666666666669</ele><time>2026-04-06T07:05:45.999Z</time></trkpt><trkpt lat="40.6224351" lon="14.3638765"><ele>187.0</ele><time>2026-04-06T07:05:47Z</time></trkpt><trkpt lat="40.6222451" lon="14.3638898"><ele>189.5</ele><time>2026-04-06T07:05:48Z</time></trkpt><trkpt lat="40.6220845" lon="14.363897"><ele>192.0</ele><time>2026-04-06T07:05:49Z</time></trkpt><trkpt lat="40.6219681" lon="14.3639371"><ele>194.5</ele><time>2026-04-06T07:05:50Z</time></trkpt><trkpt lat="40.6218622" lon="14.3639781"><ele>197.0</ele><time>2026-04-06T07:05:51Z</time></trkpt><trkpt lat="40.6217649" lon="14.3640204"><ele>197.39999999999998</ele><time>2026-04-06T07:05:52Z</time></trkpt><trkpt lat="40.6216748" lon="14.3640684"><ele>197.79999999999998</ele><time>2026-04-06T07:05:53Z</time></trkpt><trkpt lat="40.6215861" lon="14.364124"><ele>198.2</ele><time>2026-04-06T07:05:54Z</time></trkpt><trkpt lat="40.6214944" lon="14.3641855"><ele>198.6</ele><time>2026-04-06T07:05:55Z</time></trkpt><trkpt lat="40.6213873" lon="14.3642148"><ele>199.0</ele><time>2026-04-06T07:05:55.999Z</time></trkpt><trkpt lat="40.6212731" lon="14.3642399"><ele>200.25</ele><time>2026-04-06T07:05:57Z</time></trkpt><trkpt lat="40.6211371" lon="14.3642399"><ele>201.5</ele><time>2026-04-06T07:05:58Z</time></trkpt><trkpt lat="40.6210141" lon="14.3642455"><ele>202.75</ele><time>2026-04-06T07:05:59Z</time></trkpt><trkpt lat="40.6208722" lon="14.3642955"><ele>204.0</ele><time>2026-04-06T07:06:00Z</time></trkpt><trkpt lat="40.6207213" lon="14.3643594"><ele>204.0</ele><time>2026-04-06T07:06:01Z</time></trkpt><trkpt lat="40.6205821" lon="14.3644411"><ele>204.0</ele><time>2026-04-06T07:06:02Z</time></trkpt><trkpt lat="40.6204377" lon="14.3645273"><ele>204.0</ele><time>2026-04-06T07:06:03Z</time></trkpt><trkpt lat="40.6202997" lon="14.3646121"><ele>206.75</ele><time>2026-04-06T07:06:04Z</time></trkpt><trkpt lat="40.6202198" lon="14.3647736"><ele>209.5</ele><time>2026-04-06T07:06:05Z</time></trkpt><trkpt lat="40.6201349" lon="14.3649345"><ele>212.25</ele><time>2026-04-06T07:06:06Z</time></trkpt><trkpt lat="40.6200677" lon="14.3650984"><ele>215.0</ele><time>2026-04-06T07:06:07Z</time></trkpt><trkpt lat="40.6200552" lon="14.3652723"><ele>215.00000000000003</ele><time>2026-04-06T07:06:08Z</time></trkpt><trkpt lat="40.6199981" lon="14.3653972"><ele>215.0</ele><time>2026-04-06T07:06:08.999Z</time></trkpt><trkpt lat="40.6199343" lon="14.3654629"><ele>215.0</ele><time>2026-04-06T07:06:10Z</time></trkpt><trkpt lat="40.619881" lon="14.3655322"><ele>215.0</ele><time>2026-04-06T07:06:11Z</time></trkpt><trkpt lat="40.6198092" lon="14.3655149"><ele>215.00000000000003</ele><time>2026-04-06T07:06:12Z</time></trkpt><trkpt lat="40.6197795" lon="14.365407"><ele>215.0</ele><time>2026-04-06T07:06:13Z</time></trkpt><trkpt lat="40.6198359" lon="14.3652324"><ele>215.0</ele><time>2026-04-06T07:06:14Z</time></trkpt><trkpt lat="40.6198442" lon="14.3650593"><ele>215.0</ele><time>2026-04-06T07:06:15Z</time></trkpt><trkpt lat="40.6198559" lon="14.3648717"><ele>215.0</ele><time>2026-04-06T07:06:16Z</time></trkpt><trkpt lat="40.6198706" lon="14.3646351"><ele>215.33333333333334</ele><time>2026-04-06T07:06:17Z</time></trkpt><trkpt lat="40.6198015" lon="14.364368"><ele>215.66666666666669</ele><time>2026-04-06T07:06:18Z</time></trkpt><trkpt lat="40.6197787" lon="14.3641142"><ele>216.0</ele><time>2026-04-06T07:06:19Z</time></trkpt><trkpt lat="40.6197468" lon="14.3638604"><ele>216.33333333333331</ele><time>2026-04-06T07:06:20Z</time></trkpt><trkpt lat="40.6197046" lon="14.3635877"><ele>216.66666666666666</ele><time>2026-04-06T07:06:21Z</time></trkpt><trkpt lat="40.6196508" lon="14.3633004"><ele>217.0</ele><time>2026-04-06T07:06:22Z</time></trkpt><trkpt lat="40.6195958" lon="14.3630086"><ele>217.0</ele><time>2026-04-06T07:06:23Z</time></trkpt><trkpt lat="40.6195438" lon="14.3627147"><ele>217.0</ele><time>2026-04-06T07:06:24Z</time></trkpt><trkpt lat="40.6194945" lon="14.3624844"><ele>217.0</ele><time>2026-04-06T07:06:25Z</time></trkpt><trkpt lat="40.6194418" lon="14.3622291"><ele>220.5</ele><time>2026-04-06T07:06:26Z</time></trkpt><trkpt lat="40.6194075" lon="14.3620504"><ele>224.0</ele><time>2026-04-06T07:06:27Z</time></trkpt><trkpt lat="40.6193546" lon="14.3618495"><ele>227.5</ele><time>2026-04-06T07:06:28Z</time></trkpt><trkpt lat="40.6193269" lon="14.3616719"><ele>231.0</ele><time>2026-04-06T07:06:29Z</time></trkpt><trkpt lat="40.6193417" lon="14.3614827"><ele>234.33333333333331</ele><time>2026-04-06T07:06:30Z</time></trkpt><trkpt lat="40.6194733" lon="14.3613046"><ele>237.66666666666666</ele><time>2026-04-06T07:06:31Z</time></trkpt><trkpt lat="40.6195634" lon="14.3611021"><ele>241.0</ele><time>2026-04-06T07:06:32Z</time></trkpt><trkpt lat="40.6196525" lon="14.3609098"><ele>235.66666666666666</ele><time>2026-04-06T07:06:33Z</time></trkpt><trkpt lat="40.6197301" lon="14.3607341"><ele>230.33333333333331</ele><time>2026-04-06T07:06:33.999Z</time></trkpt><trkpt lat="40.6198087" lon="14.3605386"><ele>225.0</ele><time>2026-04-06T07:06:34.999Z</time></trkpt><trkpt lat="40.6198699" lon="14.3603595"><ele>225.0</ele><time>2026-04-06T07:06:36Z</time></trkpt><trkpt lat="40.619901" lon="14.3601681"><ele>225.0</ele><time>2026-04-06T07:06:36.999Z</time></trkpt><trkpt lat="40.6197945" lon="14.3599284"><ele>225.0</ele><time>2026-04-06T07:06:38Z</time></trkpt><trkpt lat="40.6197487" lon="14.359723"><ele>223.33333333333331</ele><time>2026-04-06T07:06:39Z</time></trkpt><trkpt lat="40.6197052" lon="14.3594995"><ele>221.66666666666666</ele><time>2026-04-06T07:06:40Z</time></trkpt><trkpt lat="40.6196706" lon="14.3592768"><ele>220.0</ele><time>2026-04-06T07:06:41Z</time></trkpt><trkpt lat="40.61954" lon="14.3590692"><ele>226.0</ele><time>2026-04-06T07:06:42Z</time></trkpt><trkpt lat="40.6194157" lon="14.35886"><ele>232.0</ele><time>2026-04-06T07:06:43Z</time></trkpt><trkpt lat="40.6192996" lon="14.3586761"><ele>238.0</ele><time>2026-04-06T07:06:44Z</time></trkpt><trkpt lat="40.619204" lon="14.3585001"><ele>238.0</ele><time>2026-04-06T07:06:45Z</time></trkpt><trkpt lat="40.6191385" lon="14.3583008"><ele>238.0</ele><time>2026-04-06T07:06:46Z</time></trkpt><trkpt lat="40.6190851" lon="14.3581177"><ele>238.0</ele><time>2026-04-06T07:06:47Z</time></trkpt><trkpt lat="40.6190384" lon="14.357922"><ele>237.33333333333331</ele><time>2026-04-06T07:06:47.999Z</time></trkpt><trkpt lat="40.6191295" lon="14.3576948"><ele>236.66666666666669</ele><time>2026-04-06T07:06:49Z</time></trkpt><trkpt lat="40.6191483" lon="14.3575054"><ele>236.0</ele><time>2026-04-06T07:06:50Z</time></trkpt><trkpt lat="40.6191485" lon="14.3573271"><ele>236.25</ele><time>2026-04-06T07:06:51Z</time></trkpt><trkpt lat="40.6191587" lon="14.3571452"><ele>236.5</ele><time>2026-04-06T07:06:52Z</time></trkpt><trkpt lat="40.6191489" lon="14.3569692"><ele>236.75</ele><time>2026-04-06T07:06:53Z</time></trkpt><trkpt lat="40.6190517" lon="14.3567971"><ele>237.0</ele><time>2026-04-06T07:06:54Z</time></trkpt><trkpt lat="40.6189424" lon="14.3565829"><ele>235.5</ele><time>2026-04-06T07:06:55Z</time></trkpt><trkpt lat="40.618783" lon="14.3563224"><ele>234.0</ele><time>2026-04-06T07:06:56Z</time></trkpt><trkpt lat="40.6186173" lon="14.3561194"><ele>239.33333333333331</ele><time>2026-04-06T07:06:57Z</time></trkpt><trkpt lat="40.6184799" lon="14.3559259"><ele>244.66666666666666</ele><time>2026-04-06T07:06:58Z</time></trkpt><trkpt lat="40.6183788" lon="14.3557441"><ele>250.0</ele><time>2026-04-06T07:06:59Z</time></trkpt><trkpt lat="40.6183703" lon="14.3555696"><ele>249.0</ele><time>2026-04-06T07:07:00Z</time></trkpt><trkpt lat="40.6183512" lon="14.3553912"><ele>248.0</ele><time>2026-04-06T07:07:01Z</time></trkpt><trkpt lat="40.6183324" lon="14.3552322"><ele>247.0</ele><time>2026-04-06T07:07:02Z</time></trkpt><trkpt lat="40.618276" lon="14.3551169"><ele>246.0</ele><time>2026-04-06T07:07:03Z</time></trkpt><trkpt lat="40.6182084" lon="14.3550422"><ele>246.0</ele><time>2026-04-06T07:07:04Z</time></trkpt><trkpt lat="40.6181307" lon="14.3549845"><ele>246.0</ele><time>2026-04-06T07:07:05Z</time></trkpt><trkpt lat="40.618056" lon="14.3549698"><ele>246.0</ele><time>2026-04-06T07:07:06Z</time></trkpt><trkpt lat="40.6179984" lon="14.3552246"><ele>246.0</ele><time>2026-04-06T07:07:08Z</time></trkpt><trkpt lat="40.6179901" lon="14.355443"><ele>247.33333333333331</ele><time>2026-04-06T07:07:09Z</time></trkpt><trkpt lat="40.6179967" lon="14.355654"><ele>248.66666666666666</ele><time>2026-04-06T07:07:10Z</time></trkpt><trkpt lat="40.618022" lon="14.3558978"><ele>250.0</ele><time>2026-04-06T07:07:11Z</time></trkpt><trkpt lat="40.6180656" lon="14.3561556"><ele>251.66666666666666</ele><time>2026-04-06T07:07:12Z</time></trkpt><trkpt lat="40.6181232" lon="14.3564037"><ele>253.33333333333331</ele><time>2026-04-06T07:07:13Z</time></trkpt><trkpt lat="40.618174" lon="14.3566141"><ele>255.0</ele><time>2026-04-06T07:07:14Z</time></trkpt><trkpt lat="40.6182065" lon="14.3568307"><ele>255.0</ele><time>2026-04-06T07:07:15Z</time></trkpt><trkpt lat="40.6182116" lon="14.3570611"><ele>255.0</ele><time>2026-04-06T07:07:16Z</time></trkpt><trkpt lat="40.6181939" lon="14.3573069"><ele>255.0</ele><time>2026-04-06T07:07:17Z</time></trkpt><trkpt lat="40.6181761" lon="14.3575608"><ele>257.0</ele><time>2026-04-06T07:07:18Z</time></trkpt><trkpt lat="40.6181524" lon="14.3578207"><ele>259.0</ele><time>2026-04-06T07:07:19Z</time></trkpt><trkpt lat="40.6181284" lon="14.3580744"><ele>261.0</ele><time>2026-04-06T07:07:19.999Z</time></trkpt><trkpt lat="40.6181181" lon="14.3582928"><ele>261.75</ele><time>2026-04-06T07:07:21Z</time></trkpt><trkpt lat="40.6181207" lon="14.358501"><ele>262.5</ele><time>2026-04-06T07:07:22Z</time></trkpt><trkpt lat="40.6181259" lon="14.358691"><ele>263.25</ele><time>2026-04-06T07:07:23Z</time></trkpt><trkpt lat="40.6181079" lon="14.358857"><ele>264.0</ele><time>2026-04-06T07:07:24Z</time></trkpt><trkpt lat="40.6180954" lon="14.3590024"><ele>264.0</ele><time>2026-04-06T07:07:25Z</time></trkpt><trkpt lat="40.6180847" lon="14.3591477"><ele>264.0</ele><time>2026-04-06T07:07:25.999Z</time></trkpt><trkpt lat="40.6180598" lon="14.3592307"><ele>264.0</ele><time>2026-04-06T07:07:27Z</time></trkpt><trkpt lat="40.6180425" lon="14.3593358"><ele>264.0</ele><time>2026-04-06T07:07:28Z</time></trkpt><trkpt lat="40.6179716" lon="14.3593733"><ele>264.0</ele><time>2026-04-06T07:07:29Z</time></trkpt><trkpt lat="40.6179222" lon="14.3594466"><ele>264.0</ele><time>2026-04-06T07:07:30Z</time></trkpt><trkpt lat="40.6178306" lon="14.3595134"><ele>266.75</ele><time>2026-04-06T07:07:30.999Z</time></trkpt><trkpt lat="40.6177414" lon="14.359578"><ele>269.5</ele><time>2026-04-06T07:07:32Z</time></trkpt><trkpt lat="40.6176403" lon="14.3596479"><ele>272.25</ele><time>2026-04-06T07:07:33Z</time></trkpt><trkpt lat="40.6175295" lon="14.3597178"><ele>275.0</ele><time>2026-04-06T07:07:34Z</time></trkpt><trkpt lat="40.6174221" lon="14.3598016"><ele>275.0</ele><time>2026-04-06T07:07:35Z</time></trkpt><trkpt lat="40.6172807" lon="14.3598795"><ele>275.0</ele><time>2026-04-06T07:07:36Z</time></trkpt><trkpt lat="40.6172185" lon="14.3600002"><ele>275.0</ele><time>2026-04-06T07:07:37Z</time></trkpt><trkpt lat="40.6171425" lon="14.3601156"><ele>275.0</ele><time>2026-04-06T07:07:38Z</time></trkpt><trkpt lat="40.6171388" lon="14.3602532"><ele>275.0</ele><time>2026-04-06T07:07:38.999Z</time></trkpt><trkpt lat="40.617145" lon="14.360396"><ele>275.0</ele><time>2026-04-06T07:07:40Z</time></trkpt><trkpt lat="40.6171828" lon="14.3605419"><ele>275.0</ele><time>2026-04-06T07:07:41Z</time></trkpt><trkpt lat="40.617255" lon="14.360681"><ele>275.0</ele><time>2026-04-06T07:07:42Z</time></trkpt><trkpt lat="40.6173276" lon="14.360821"><ele>275.0</ele><time>2026-04-06T07:07:43Z</time></trkpt><trkpt lat="40.6173965" lon="14.3609463"><ele>275.0</ele><time>2026-04-06T07:07:43.999Z</time></trkpt><trkpt lat="40.6174347" lon="14.3610752"><ele>275.0</ele><time>2026-04-06T07:07:45Z</time></trkpt><trkpt lat="40.6174571" lon="14.3612215"><ele>275.0</ele><time>2026-04-06T07:07:46Z</time></trkpt><trkpt lat="40.6174597" lon="14.3613734"><ele>276.75</ele><time>2026-04-06T07:07:47Z</time></trkpt><trkpt lat="40.6174438" lon="14.361518"><ele>278.5</ele><time>2026-04-06T07:07:48Z</time></trkpt><trkpt lat="40.6174173" lon="14.3616635"><ele>280.25</ele><time>2026-04-06T07:07:49Z</time></trkpt><trkpt lat="40.6173881" lon="14.3618134"><ele>282.0</ele><time>2026-04-06T07:07:50Z</time></trkpt><trkpt lat="40.6173649" lon="14.3619667"><ele>282.0</ele><time>2026-04-06T07:07:51Z</time></trkpt><trkpt lat="40.6173443" lon="14.3621229"><ele>282.0</ele><time>2026-04-06T07:07:51.999Z</time></trkpt><trkpt lat="40.6173201" lon="14.3622862"><ele>282.0</ele><time>2026-04-06T07:07:53Z</time></trkpt><trkpt lat="40.6172909" lon="14.3624555"><ele>282.0</ele><time>2026-04-06T07:07:54Z</time></trkpt><trkpt lat="40.617268" lon="14.3626332"><ele>281.75</ele><time>2026-04-06T07:07:55Z</time></trkpt><trkpt lat="40.6172367" lon="14.3628425"><ele>281.5</ele><time>2026-04-06T07:07:56Z</time></trkpt><trkpt lat="40.6172182" lon="14.3630066"><ele>281.25</ele><time>2026-04-06T07:07:57Z</time></trkpt><trkpt lat="40.6172069" lon="14.3631831"><ele>281.0</ele><time>2026-04-06T07:07:58Z</time></trkpt><trkpt lat="40.6171863" lon="14.3633505"><ele>281.25</ele><time>2026-04-06T07:07:59Z</time></trkpt><trkpt lat="40.6172082" lon="14.36353"><ele>281.5</ele><time>2026-04-06T07:08:00Z</time></trkpt><trkpt lat="40.617233" lon="14.3636871"><ele>281.75</ele><time>2026-04-06T07:08:01Z</time></trkpt><trkpt lat="40.617257" lon="14.3638399"><ele>282.0</ele><time>2026-04-06T07:08:02Z</time></trkpt><trkpt lat="40.6172923" lon="14.3639817"><ele>282.0</ele><time>2026-04-06T07:08:03Z</time></trkpt><trkpt lat="40.6172972" lon="14.3641527"><ele>282.0</ele><time>2026-04-06T07:08:04Z</time></trkpt><trkpt lat="40.6172684" lon="14.3642805"><ele>282.0</ele><time>2026-04-06T07:08:05Z</time></trkpt><trkpt lat="40.6172132" lon="14.3643351"><ele>282.0</ele><time>2026-04-06T07:08:06Z</time></trkpt><trkpt lat="40.617146" lon="14.3643811"><ele>282.0</ele><time>2026-04-06T07:08:07Z</time></trkpt><trkpt lat="40.6170784" lon="14.3644255"><ele>282.0</ele><time>2026-04-06T07:08:08Z</time></trkpt><trkpt lat="40.6170162" lon="14.3644017"><ele>282.0</ele><time>2026-04-06T07:08:09Z</time></trkpt><trkpt lat="40.6169537" lon="14.3643892"><ele>282.0</ele><time>2026-04-06T07:08:10Z</time></trkpt><trkpt lat="40.616881" lon="14.3643697"><ele>282.0</ele><time>2026-04-06T07:08:12Z</time></trkpt><trkpt lat="40.6166948" lon="14.3643295"><ele>282.0</ele><time>2026-04-06T07:08:14Z</time></trkpt><trkpt lat="40.6166194" lon="14.3644057"><ele>283.8</ele><time>2026-04-06T07:08:15Z</time></trkpt><trkpt lat="40.6165517" lon="14.3644915"><ele>285.6</ele><time>2026-04-06T07:08:16Z</time></trkpt><trkpt lat="40.6165369" lon="14.3646724"><ele>287.40000000000003</ele><time>2026-04-06T07:08:17Z</time></trkpt><trkpt lat="40.6165036" lon="14.3647964"><ele>289.2</ele><time>2026-04-06T07:08:18Z</time></trkpt><trkpt lat="40.6164521" lon="14.3649065"><ele>291.0</ele><time>2026-04-06T07:08:19Z</time></trkpt><trkpt lat="40.6163842" lon="14.364973"><ele>291.0</ele><time>2026-04-06T07:08:20Z</time></trkpt><trkpt lat="40.6163085" lon="14.3650221"><ele>291.0</ele><time>2026-04-06T07:08:21Z</time></trkpt><trkpt lat="40.616221" lon="14.3650695"><ele>291.0</ele><time>2026-04-06T07:08:22Z</time></trkpt><trkpt lat="40.6161329" lon="14.3651227"><ele>291.0</ele><time>2026-04-06T07:08:23Z</time></trkpt><trkpt lat="40.6160412" lon="14.3651796"><ele>291.0</ele><time>2026-04-06T07:08:23.999Z</time></trkpt><trkpt lat="40.6159575" lon="14.3652701"><ele>293.8</ele><time>2026-04-06T07:08:25Z</time></trkpt><trkpt lat="40.6158842" lon="14.3653656"><ele>296.6</ele><time>2026-04-06T07:08:26Z</time></trkpt><trkpt lat="40.6158135" lon="14.3654695"><ele>299.4</ele><time>2026-04-06T07:08:27Z</time></trkpt><trkpt lat="40.6157467" lon="14.365563"><ele>302.2</ele><time>2026-04-06T07:08:27.999Z</time></trkpt><trkpt lat="40.6156812" lon="14.3656497"><ele>305.0</ele><time>2026-04-06T07:08:29Z</time></trkpt><trkpt lat="40.6156252" lon="14.3657403"><ele>305.0</ele><time>2026-04-06T07:08:30Z</time></trkpt><trkpt lat="40.6155767" lon="14.3658259"><ele>305.0</ele><time>2026-04-06T07:08:31Z</time></trkpt><trkpt lat="40.6155483" lon="14.3659122"><ele>305.0</ele><time>2026-04-06T07:08:32Z</time></trkpt><trkpt lat="40.6155462" lon="14.3659992"><ele>305.0</ele><time>2026-04-06T07:08:33Z</time></trkpt><trkpt lat="40.6155752" lon="14.366089"><ele>305.0</ele><time>2026-04-06T07:08:34Z</time></trkpt><trkpt lat="40.6156345" lon="14.3661639"><ele>305.0</ele><time>2026-04-06T07:08:35Z</time></trkpt><trkpt lat="40.6157296" lon="14.3662305"><ele>305.0</ele><time>2026-04-06T07:08:36Z</time></trkpt><trkpt lat="40.615845" lon="14.3663112"><ele>305.0</ele><time>2026-04-06T07:08:37Z</time></trkpt><trkpt lat="40.615946" lon="14.3664131"><ele>305.0</ele><time>2026-04-06T07:08:38Z</time></trkpt><trkpt lat="40.6160238" lon="14.3665288"><ele>305.0</ele><time>2026-04-06T07:08:39Z</time></trkpt><trkpt lat="40.6160811" lon="14.3666533"><ele>306.25</ele><time>2026-04-06T07:08:40Z</time></trkpt><trkpt lat="40.6161068" lon="14.3667954"><ele>307.5</ele><time>2026-04-06T07:08:41Z</time></trkpt><trkpt lat="40.6160762" lon="14.3669673"><ele>308.75</ele><time>2026-04-06T07:08:42Z</time></trkpt><trkpt lat="40.6160559" lon="14.3671537"><ele>310.0</ele><time>2026-04-06T07:08:43Z</time></trkpt><trkpt lat="40.6160324" lon="14.367354"><ele>311.66666666666663</ele><time>2026-04-06T07:08:44Z</time></trkpt><trkpt lat="40.6160022" lon="14.3675649"><ele>313.3333333333333</ele><time>2026-04-06T07:08:45Z</time></trkpt><trkpt lat="40.6159723" lon="14.3677606"><ele>315.0</ele><time>2026-04-06T07:08:46Z</time></trkpt><trkpt lat="40.6159655" lon="14.3679444"><ele>314.6666666666667</ele><time>2026-04-06T07:08:47Z</time></trkpt><trkpt lat="40.6159875" lon="14.3681446"><ele>314.33333333333337</ele><time>2026-04-06T07:08:48Z</time></trkpt><trkpt lat="40.6160341" lon="14.3683547"><ele>314.0</ele><time>2026-04-06T07:08:49Z</time></trkpt><trkpt lat="40.6160898" lon="14.368539"><ele>314.0</ele><time>2026-04-06T07:08:50Z</time></trkpt><trkpt lat="40.6161372" lon="14.3687159"><ele>314.0</ele><time>2026-04-06T07:08:51Z</time></trkpt><trkpt lat="40.6161902" lon="14.368887"><ele>314.0</ele><time>2026-04-06T07:08:52Z</time></trkpt><trkpt lat="40.616246" lon="14.3690638"><ele>314.0</ele><time>2026-04-06T07:08:53Z</time></trkpt><trkpt lat="40.6162996" lon="14.3692394"><ele>311.5</ele><time>2026-04-06T07:08:53.999Z</time></trkpt><trkpt lat="40.6163446" lon="14.3694133"><ele>309.0</ele><time>2026-04-06T07:08:55Z</time></trkpt><trkpt lat="40.6163727" lon="14.3695579"><ele>306.5</ele><time>2026-04-06T07:08:56Z</time></trkpt><trkpt lat="40.6164067" lon="14.3697109"><ele>304.0</ele><time>2026-04-06T07:08:56.999Z</time></trkpt><trkpt lat="40.616399" lon="14.3698757"><ele>304.0</ele><time>2026-04-06T07:08:58Z</time></trkpt><trkpt lat="40.6163958" lon="14.3700399"><ele>304.0</ele><time>2026-04-06T07:08:59Z</time></trkpt><trkpt lat="40.6163251" lon="14.3702355"><ele>304.0</ele><time>2026-04-06T07:08:59.999Z</time></trkpt><trkpt lat="40.6163075" lon="14.3704023"><ele>304.0</ele><time>2026-04-06T07:09:01Z</time></trkpt><trkpt lat="40.616314" lon="14.3705751"><ele>304.75</ele><time>2026-04-06T07:09:02Z</time></trkpt><trkpt lat="40.6163351" lon="14.3707646"><ele>305.5</ele><time>2026-04-06T07:09:03Z</time></trkpt><trkpt lat="40.6163546" lon="14.3709425"><ele>306.25</ele><time>2026-04-06T07:09:04Z</time></trkpt><trkpt lat="40.6163611" lon="14.3711066"><ele>307.0</ele><time>2026-04-06T07:09:05Z</time></trkpt><trkpt lat="40.616375" lon="14.3712438"><ele>307.0</ele><time>2026-04-06T07:09:06Z</time></trkpt><trkpt lat="40.6163763" lon="14.3713424"><ele>307.0</ele><time>2026-04-06T07:09:07Z</time></trkpt><trkpt lat="40.6163714" lon="14.3714589"><ele>307.0</ele><time>2026-04-06T07:09:08Z</time></trkpt><trkpt lat="40.6163258" lon="14.3715654"><ele>307.0</ele><time>2026-04-06T07:09:08.999Z</time></trkpt><trkpt lat="40.6161745" lon="14.3714239"><ele>307.0</ele><time>2026-04-06T07:09:11Z</time></trkpt><trkpt lat="40.6161363" lon="14.3713254"><ele>312.75</ele><time>2026-04-06T07:09:12Z</time></trkpt><trkpt lat="40.616124" lon="14.3711933"><ele>318.5</ele><time>2026-04-06T07:09:13Z</time></trkpt><trkpt lat="40.6161264" lon="14.3710337"><ele>324.25</ele><time>2026-04-06T07:09:14Z</time></trkpt><trkpt lat="40.6161174" lon="14.3708542"><ele>330.0</ele><time>2026-04-06T07:09:15Z</time></trkpt><trkpt lat="40.6161108" lon="14.3706763"><ele>329.6666666666667</ele><time>2026-04-06T07:09:16Z</time></trkpt><trkpt lat="40.6160507" lon="14.3705166"><ele>329.33333333333337</ele><time>2026-04-06T07:09:17Z</time></trkpt><trkpt lat="40.6159878" lon="14.3703682"><ele>329.0</ele><time>2026-04-06T07:09:18Z</time></trkpt><trkpt lat="40.6157885" lon="14.3701914"><ele>329.0</ele><time>2026-04-06T07:09:18.999Z</time></trkpt><trkpt lat="40.615669" lon="14.3699918"><ele>329.0</ele><time>2026-04-06T07:09:20Z</time></trkpt><trkpt lat="40.6155372" lon="14.3698026"><ele>329.0</ele><time>2026-04-06T07:09:21Z</time></trkpt><trkpt lat="40.6154405" lon="14.3695213"><ele>327.0</ele><time>2026-04-06T07:09:22Z</time></trkpt><trkpt lat="40.6153309" lon="14.3692866"><ele>325.0</ele><time>2026-04-06T07:09:23Z</time></trkpt><trkpt lat="40.6152182" lon="14.3690732"><ele>323.0</ele><time>2026-04-06T07:09:24Z</time></trkpt><trkpt lat="40.6151227" lon="14.3689108"><ele>327.0</ele><time>2026-04-06T07:09:25Z</time></trkpt><trkpt lat="40.6150246" lon="14.3687476"><ele>331.0</ele><time>2026-04-06T07:09:26Z</time></trkpt><trkpt lat="40.6149243" lon="14.3685981"><ele>335.0</ele><time>2026-04-06T07:09:27Z</time></trkpt><trkpt lat="40.6148211" lon="14.3684531"><ele>335.0</ele><time>2026-04-06T07:09:28Z</time></trkpt><trkpt lat="40.6147335" lon="14.3683437"><ele>335.0</ele><time>2026-04-06T07:09:29Z</time></trkpt><trkpt lat="40.6146477" lon="14.3682305"><ele>335.0</ele><time>2026-04-06T07:09:30Z</time></trkpt><trkpt lat="40.6145527" lon="14.3682658"><ele>335.0</ele><time>2026-04-06T07:09:31Z</time></trkpt><trkpt lat="40.6144729" lon="14.3683609"><ele>335.0</ele><time>2026-04-06T07:09:32Z</time></trkpt><trkpt lat="40.6144275" lon="14.3684578"><ele>335.0</ele><time>2026-04-06T07:09:33Z</time></trkpt><trkpt lat="40.6144283" lon="14.3685665"><ele>335.0</ele><time>2026-04-06T07:09:34Z</time></trkpt><trkpt lat="40.6144427" lon="14.3686621"><ele>335.0</ele><time>2026-04-06T07:09:35Z</time></trkpt><trkpt lat="40.6144915" lon="14.3687463"><ele>335.0</ele><time>2026-04-06T07:09:36Z</time></trkpt><trkpt lat="40.6146946" lon="14.3687966"><ele>335.0</ele><time>2026-04-06T07:09:37Z</time></trkpt><trkpt lat="40.6148116" lon="14.3688582"><ele>336.75</ele><time>2026-04-06T07:09:38Z</time></trkpt><trkpt lat="40.6149223" lon="14.3689574"><ele>338.5</ele><time>2026-04-06T07:09:39Z</time></trkpt><trkpt lat="40.6149517" lon="14.3691226"><ele>340.25</ele><time>2026-04-06T07:09:40Z</time></trkpt><trkpt lat="40.6150089" lon="14.3692977"><ele>342.0</ele><time>2026-04-06T07:09:40.999Z</time></trkpt><trkpt lat="40.6150626" lon="14.369485"><ele>345.0</ele><time>2026-04-06T07:09:42Z</time></trkpt><trkpt lat="40.6151012" lon="14.3696983"><ele>348.0</ele><time>2026-04-06T07:09:43Z</time></trkpt><trkpt lat="40.6151404" lon="14.3698903"><ele>351.0</ele><time>2026-04-06T07:09:44Z</time></trkpt><trkpt lat="40.6151729" lon="14.3700708"><ele>351.0</ele><time>2026-04-06T07:09:45Z</time></trkpt><trkpt lat="40.6152026" lon="14.3702304"><ele>351.0</ele><time>2026-04-06T07:09:46Z</time></trkpt><trkpt lat="40.6152103" lon="14.370387"><ele>351.0</ele><time>2026-04-06T07:09:47Z</time></trkpt><trkpt lat="40.6151871" lon="14.3705403"><ele>351.0</ele><time>2026-04-06T07:09:48Z</time></trkpt><trkpt lat="40.6151329" lon="14.3706769"><ele>351.5</ele><time>2026-04-06T07:09:49Z</time></trkpt><trkpt lat="40.6150558" lon="14.3707961"><ele>352.0</ele><time>2026-04-06T07:09:50Z</time></trkpt><trkpt lat="40.6149515" lon="14.3709194"><ele>352.5</ele><time>2026-04-06T07:09:51Z</time></trkpt><trkpt lat="40.614827" lon="14.3710542"><ele>353.0</ele><time>2026-04-06T07:09:52Z</time></trkpt><trkpt lat="40.6146869" lon="14.3712043"><ele>355.6666666666667</ele><time>2026-04-06T07:09:52.999Z</time></trkpt><trkpt lat="40.6145396" lon="14.3713589"><ele>358.3333333333333</ele><time>2026-04-06T07:09:54Z</time></trkpt><trkpt lat="40.6143846" lon="14.3715216"><ele>361.0</ele><time>2026-04-06T07:09:55Z</time></trkpt><trkpt lat="40.614257" lon="14.3716897"><ele>361.0</ele><time>2026-04-06T07:09:56Z</time></trkpt><trkpt lat="40.6141096" lon="14.3718286"><ele>361.0</ele><time>2026-04-06T07:09:56.999Z</time></trkpt><trkpt lat="40.613946" lon="14.3719417"><ele>361.0</ele><time>2026-04-06T07:09:58Z</time></trkpt><trkpt lat="40.6137901" lon="14.3720244"><ele>365.0</ele><time>2026-04-06T07:09:59Z</time></trkpt><trkpt lat="40.6136363" lon="14.3721435"><ele>369.0</ele><time>2026-04-06T07:10:00Z</time></trkpt><trkpt lat="40.6134959" lon="14.3722283"><ele>373.0</ele><time>2026-04-06T07:10:01Z</time></trkpt><trkpt lat="40.6133733" lon="14.3723875"><ele>373.0</ele><time>2026-04-06T07:10:02Z</time></trkpt><trkpt lat="40.6132464" lon="14.3725459"><ele>373.0</ele><time>2026-04-06T07:10:03Z</time></trkpt><trkpt lat="40.6131297" lon="14.3727925"><ele>373.0</ele><time>2026-04-06T07:10:04Z</time></trkpt><trkpt lat="40.6130202" lon="14.3730178"><ele>368.0</ele><time>2026-04-06T07:10:05Z</time></trkpt><trkpt lat="40.6129325" lon="14.3732557"><ele>363.0</ele><time>2026-04-06T07:10:06Z</time></trkpt><trkpt lat="40.6128745" lon="14.3734763"><ele>358.0</ele><time>2026-04-06T07:10:07Z</time></trkpt><trkpt lat="40.6128211" lon="14.3737185"><ele>360.75</ele><time>2026-04-06T07:10:08Z</time></trkpt><trkpt lat="40.6127854" lon="14.3738924"><ele>363.5</ele><time>2026-04-06T07:10:09Z</time></trkpt><trkpt lat="40.6127423" lon="14.3740596"><ele>366.25</ele><time>2026-04-06T07:10:10Z</time></trkpt><trkpt lat="40.6126403" lon="14.3741091"><ele>369.0</ele><time>2026-04-06T07:10:11Z</time></trkpt><trkpt lat="40.6125231" lon="14.3741429"><ele>369.0</ele><time>2026-04-06T07:10:12Z</time></trkpt><trkpt lat="40.6124011" lon="14.3741725"><ele>369.0</ele><time>2026-04-06T07:10:13Z</time></trkpt><trkpt lat="40.6122585" lon="14.3741698"><ele>369.0</ele><time>2026-04-06T07:10:14Z</time></trkpt><trkpt lat="40.612035" lon="14.3741499"><ele>372.6666666666667</ele><time>2026-04-06T07:10:15Z</time></trkpt><trkpt lat="40.6118617" lon="14.3742173"><ele>376.33333333333337</ele><time>2026-04-06T07:10:16Z</time></trkpt><trkpt lat="40.6116815" lon="14.3742729"><ele>380.0</ele><time>2026-04-06T07:10:17Z</time></trkpt><trkpt lat="40.6115028" lon="14.3743836"><ele>380.0</ele><time>2026-04-06T07:10:18Z</time></trkpt><trkpt lat="40.6113299" lon="14.3744843"><ele>380.0</ele><time>2026-04-06T07:10:19Z</time></trkpt><trkpt lat="40.611168" lon="14.3745812"><ele>380.0</ele><time>2026-04-06T07:10:20Z</time></trkpt><trkpt lat="40.6110138" lon="14.374676"><ele>377.0</ele><time>2026-04-06T07:10:21Z</time></trkpt><trkpt lat="40.6108571" lon="14.3747478"><ele>374.0</ele><time>2026-04-06T07:10:22Z</time></trkpt><trkpt lat="40.610699" lon="14.3748398"><ele>371.0</ele><time>2026-04-06T07:10:23Z</time></trkpt><trkpt lat="40.6105843" lon="14.3748442"><ele>371.0</ele><time>2026-04-06T07:10:24Z</time></trkpt><trkpt lat="40.6104592" lon="14.374873"><ele>371.0</ele><time>2026-04-06T07:10:25Z</time></trkpt><trkpt lat="40.6103574" lon="14.3747918"><ele>371.0</ele><time>2026-04-06T07:10:26Z</time></trkpt><trkpt lat="40.6102472" lon="14.374725"><ele>371.0</ele><time>2026-04-06T07:10:27Z</time></trkpt><trkpt lat="40.6101395" lon="14.3745837"><ele>375.5</ele><time>2026-04-06T07:10:28Z</time></trkpt><trkpt lat="40.6100497" lon="14.3744554"><ele>380.0</ele><time>2026-04-06T07:10:29Z</time></trkpt><trkpt lat="40.6099386" lon="14.3744042"><ele>384.5</ele><time>2026-04-06T07:10:30Z</time></trkpt><trkpt lat="40.6098284" lon="14.3743513"><ele>389.0</ele><time>2026-04-06T07:10:31Z</time></trkpt><trkpt lat="40.6097275" lon="14.3744392"><ele>389.0</ele><time>2026-04-06T07:10:32Z</time></trkpt><trkpt lat="40.6096384" lon="14.3745432"><ele>389.0</ele><time>2026-04-06T07:10:32.999Z</time></trkpt><trkpt lat="40.6095594" lon="14.3746848"><ele>389.0</ele><time>2026-04-06T07:10:33.999Z</time></trkpt><trkpt lat="40.609471" lon="14.3748477"><ele>389.0</ele><time>2026-04-06T07:10:35Z</time></trkpt><trkpt lat="40.6093828" lon="14.3750037"><ele>387.5</ele><time>2026-04-06T07:10:36Z</time></trkpt><trkpt lat="40.6093026" lon="14.3751553"><ele>386.0</ele><time>2026-04-06T07:10:37Z</time></trkpt><trkpt lat="40.6092445" lon="14.3753035"><ele>384.5</ele><time>2026-04-06T07:10:38Z</time></trkpt><trkpt lat="40.6092103" lon="14.3754572"><ele>383.0</ele><time>2026-04-06T07:10:39Z</time></trkpt><trkpt lat="40.6092043" lon="14.3756197"><ele>381.75</ele><time>2026-04-06T07:10:40Z</time></trkpt><trkpt lat="40.6091994" lon="14.3757856"><ele>380.5</ele><time>2026-04-06T07:10:41Z</time></trkpt><trkpt lat="40.6091863" lon="14.3759467"><ele>379.25</ele><time>2026-04-06T07:10:42Z</time></trkpt><trkpt lat="40.6091795" lon="14.3761062"><ele>378.0</ele><time>2026-04-06T07:10:42.999Z</time></trkpt><trkpt lat="40.609187" lon="14.3762652"><ele>377.75</ele><time>2026-04-06T07:10:44Z</time></trkpt><trkpt lat="40.6092098" lon="14.376421"><ele>377.5</ele><time>2026-04-06T07:10:45Z</time></trkpt><trkpt lat="40.6092293" lon="14.3765798"><ele>377.25</ele><time>2026-04-06T07:10:46Z</time></trkpt><trkpt lat="40.6092696" lon="14.3767257"><ele>377.0</ele><time>2026-04-06T07:10:47Z</time></trkpt><trkpt lat="40.6092935" lon="14.3768808"><ele>377.0</ele><time>2026-04-06T07:10:48Z</time></trkpt><trkpt lat="40.6093207" lon="14.3770274"><ele>377.0</ele><time>2026-04-06T07:10:49Z</time></trkpt><trkpt lat="40.6093793" lon="14.3771808"><ele>377.0</ele><time>2026-04-06T07:10:50Z</time></trkpt><trkpt lat="40.6094313" lon="14.3773327"><ele>377.0</ele><time>2026-04-06T07:10:51Z</time></trkpt><trkpt lat="40.6094836" lon="14.3774691"><ele>377.0</ele><time>2026-04-06T07:10:52Z</time></trkpt><trkpt lat="40.6094756" lon="14.3775758"><ele>377.0</ele><time>2026-04-06T07:10:53Z</time></trkpt><trkpt lat="40.6094604" lon="14.3776666"><ele>377.0</ele><time>2026-04-06T07:10:54Z</time></trkpt><trkpt lat="40.6094107" lon="14.3777285"><ele>377.0</ele><time>2026-04-06T07:10:54.999Z</time></trkpt><trkpt lat="40.6093378" lon="14.3777593"><ele>377.0</ele><time>2026-04-06T07:10:56Z</time></trkpt><trkpt lat="40.6092392" lon="14.3777651"><ele>377.0</ele><time>2026-04-06T07:10:56.999Z</time></trkpt><trkpt lat="40.6091072" lon="14.3777765"><ele>377.0</ele><time>2026-04-06T07:10:58Z</time></trkpt><trkpt lat="40.6089866" lon="14.3777868"><ele>377.0</ele><time>2026-04-06T07:10:59Z</time></trkpt><trkpt lat="40.6088512" lon="14.377877"><ele>377.0</ele><time>2026-04-06T07:11:00Z</time></trkpt><trkpt lat="40.6087283" lon="14.3779672"><ele>377.0</ele><time>2026-04-06T07:11:01Z</time></trkpt><trkpt lat="40.6086056" lon="14.3780801"><ele>379.25</ele><time>2026-04-06T07:11:01.999Z</time></trkpt><trkpt lat="40.6084956" lon="14.3782028"><ele>381.5</ele><time>2026-04-06T07:11:03Z</time></trkpt><trkpt lat="40.6084249" lon="14.3783083"><ele>383.75</ele><time>2026-04-06T07:11:04Z</time></trkpt><trkpt lat="40.608362" lon="14.3784179"><ele>386.0</ele><time>2026-04-06T07:11:05Z</time></trkpt><trkpt lat="40.6083707" lon="14.3785621"><ele>386.0</ele><time>2026-04-06T07:11:06Z</time></trkpt><trkpt lat="40.6084136" lon="14.3786981"><ele>386.0</ele><time>2026-04-06T07:11:07Z</time></trkpt><trkpt lat="40.6084822" lon="14.3788209"><ele>386.0</ele><time>2026-04-06T07:11:08Z</time></trkpt><trkpt lat="40.6085762" lon="14.3789346"><ele>386.0</ele><time>2026-04-06T07:11:09Z</time></trkpt><trkpt lat="40.6086884" lon="14.3790657"><ele>384.0</ele><time>2026-04-06T07:11:10Z</time></trkpt><trkpt lat="40.6087721" lon="14.3792024"><ele>382.0</ele><time>2026-04-06T07:11:11Z</time></trkpt><trkpt lat="40.6088667" lon="14.3793245"><ele>380.0</ele><time>2026-04-06T07:11:12Z</time></trkpt><trkpt lat="40.6089036" lon="14.3794687"><ele>378.0</ele><time>2026-04-06T07:11:13Z</time></trkpt><trkpt lat="40.6089426" lon="14.3795939"><ele>379.59999999999997</ele><time>2026-04-06T07:11:13.999Z</time></trkpt><trkpt lat="40.6089529" lon="14.3797358"><ele>381.2</ele><time>2026-04-06T07:11:15Z</time></trkpt><trkpt lat="40.6089437" lon="14.379874"><ele>382.8</ele><time>2026-04-06T07:11:16Z</time></trkpt><trkpt lat="40.608913" lon="14.3800042"><ele>384.4</ele><time>2026-04-06T07:11:17Z</time></trkpt><trkpt lat="40.608856" lon="14.3801235"><ele>386.0</ele><time>2026-04-06T07:11:18Z</time></trkpt><trkpt lat="40.6087881" lon="14.3802156"><ele>386.0</ele><time>2026-04-06T07:11:19Z</time></trkpt><trkpt lat="40.6087074" lon="14.3802759"><ele>386.0</ele><time>2026-04-06T07:11:20Z</time></trkpt><trkpt lat="40.6086405" lon="14.3803446"><ele>386.0</ele><time>2026-04-06T07:11:21Z</time></trkpt><trkpt lat="40.6085769" lon="14.3804418"><ele>386.0</ele><time>2026-04-06T07:11:21.999Z</time></trkpt><trkpt lat="40.6085363" lon="14.3805547"><ele>386.0</ele><time>2026-04-06T07:11:23Z</time></trkpt><trkpt lat="40.6085286" lon="14.3806821"><ele>385.25</ele><time>2026-04-06T07:11:24Z</time></trkpt><trkpt lat="40.6085485" lon="14.3808213"><ele>384.5</ele><time>2026-04-06T07:11:25Z</time></trkpt><trkpt lat="40.6085855" lon="14.3809815"><ele>383.75</ele><time>2026-04-06T07:11:26Z</time></trkpt><trkpt lat="40.6086305" lon="14.3811521"><ele>383.0</ele><time>2026-04-06T07:11:27Z</time></trkpt><trkpt lat="40.6086758" lon="14.3813315"><ele>385.25</ele><time>2026-04-06T07:11:28Z</time></trkpt><trkpt lat="40.6087277" lon="14.3815107"><ele>387.5</ele><time>2026-04-06T07:11:29Z</time></trkpt><trkpt lat="40.608783" lon="14.3816671"><ele>389.75</ele><time>2026-04-06T07:11:29.999Z</time></trkpt><trkpt lat="40.6088627" lon="14.3818102"><ele>392.0</ele><time>2026-04-06T07:11:31Z</time></trkpt><trkpt lat="40.6089565" lon="14.3819265"><ele>392.0</ele><time>2026-04-06T07:11:32Z</time></trkpt><trkpt lat="40.609049" lon="14.3820283"><ele>392.0</ele><time>2026-04-06T07:11:33Z</time></trkpt><trkpt lat="40.6091409" lon="14.3821161"><ele>392.0</ele><time>2026-04-06T07:11:34Z</time></trkpt><trkpt lat="40.6092232" lon="14.3822049"><ele>392.0</ele><time>2026-04-06T07:11:35Z</time></trkpt><trkpt lat="40.6092925" lon="14.3823015"><ele>392.0</ele><time>2026-04-06T07:11:36Z</time></trkpt><trkpt lat="40.6093332" lon="14.3824131"><ele>396.40000000000003</ele><time>2026-04-06T07:11:37Z</time></trkpt><trkpt lat="40.6093354" lon="14.3825368"><ele>400.8</ele><time>2026-04-06T07:11:38Z</time></trkpt><trkpt lat="40.6093092" lon="14.3826641"><ele>405.2</ele><time>2026-04-06T07:11:39Z</time></trkpt><trkpt lat="40.6092525" lon="14.3828026"><ele>409.6</ele><time>2026-04-06T07:11:40Z</time></trkpt><trkpt lat="40.6091784" lon="14.3829434"><ele>414.0</ele><time>2026-04-06T07:11:41Z</time></trkpt><trkpt lat="40.6091082" lon="14.3830696"><ele>414.79999999999995</ele><time>2026-04-06T07:11:42Z</time></trkpt><trkpt lat="40.6090491" lon="14.3831837"><ele>415.59999999999997</ele><time>2026-04-06T07:11:43Z</time></trkpt><trkpt lat="40.6090095" lon="14.3833074"><ele>416.4</ele><time>2026-04-06T07:11:44Z</time></trkpt><trkpt lat="40.609025" lon="14.3834571"><ele>417.2</ele><time>2026-04-06T07:11:45Z</time></trkpt><trkpt lat="40.6090581" lon="14.3836101"><ele>418.0</ele><time>2026-04-06T07:11:46Z</time></trkpt><trkpt lat="40.609133" lon="14.3837598"><ele>420.79999999999995</ele><time>2026-04-06T07:11:47Z</time></trkpt><trkpt lat="40.6092062" lon="14.3838997"><ele>423.6</ele><time>2026-04-06T07:11:48Z</time></trkpt><trkpt lat="40.6092731" lon="14.384018"><ele>426.40000000000003</ele><time>2026-04-06T07:11:49Z</time></trkpt><trkpt lat="40.6093308" lon="14.3841116"><ele>429.20000000000005</ele><time>2026-04-06T07:11:50Z</time></trkpt><trkpt lat="40.6093727" lon="14.3841992"><ele>432.0</ele><time>2026-04-06T07:11:51Z</time></trkpt><trkpt lat="40.6094287" lon="14.3843243"><ele>432.0</ele><time>2026-04-06T07:11:53Z</time></trkpt><trkpt lat="40.6094702" lon="14.3844018"><ele>432.0</ele><time>2026-04-06T07:11:56Z</time></trkpt><trkpt lat="40.6095246" lon="14.3845269"><ele>432.0</ele><time>2026-04-06T07:12:28Z</time></trkpt><trkpt lat="40.609557" lon="14.3846127"><ele>432.0</ele><time>2026-04-06T07:12:29Z</time></trkpt><trkpt lat="40.609583" lon="14.3847088"><ele>432.0</ele><time>2026-04-06T07:12:30Z</time></trkpt><trkpt lat="40.6095976" lon="14.3848159"><ele>432.0</ele><time>2026-04-06T07:12:30.999Z</time></trkpt><trkpt lat="40.6095916" lon="14.384926"><ele>434.0</ele><time>2026-04-06T07:12:32Z</time></trkpt><trkpt lat="40.609568" lon="14.385035"><ele>436.0</ele><time>2026-04-06T07:12:33Z</time></trkpt><trkpt lat="40.6095368" lon="14.3851527"><ele>438.0</ele><time>2026-04-06T07:12:34Z</time></trkpt><trkpt lat="40.6094905" lon="14.3853071"><ele>440.0</ele><time>2026-04-06T07:12:35Z</time></trkpt><trkpt lat="40.609442" lon="14.3854977"><ele>439.3333333333333</ele><time>2026-04-06T07:12:36Z</time></trkpt><trkpt lat="40.6094077" lon="14.3856899"><ele>438.66666666666663</ele><time>2026-04-06T07:12:36.999Z</time></trkpt><trkpt lat="40.6094003" lon="14.385889"><ele>438.0</ele><time>2026-04-06T07:12:38Z</time></trkpt><trkpt lat="40.6093953" lon="14.3860882"><ele>438.0</ele><time>2026-04-06T07:12:39Z</time></trkpt><trkpt lat="40.6093873" lon="14.386291"><ele>438.0</ele><time>2026-04-06T07:12:40Z</time></trkpt><trkpt lat="40.6093837" lon="14.3864853"><ele>438.0</ele><time>2026-04-06T07:12:41Z</time></trkpt><trkpt lat="40.6093865" lon="14.3866664"><ele>438.0</ele><time>2026-04-06T07:12:42Z</time></trkpt><trkpt lat="40.6094131" lon="14.3868465"><ele>439.0</ele><time>2026-04-06T07:12:43Z</time></trkpt><trkpt lat="40.6094611" lon="14.3870187"><ele>440.0</ele><time>2026-04-06T07:12:44Z</time></trkpt><trkpt lat="40.6095303" lon="14.3871849"><ele>441.0</ele><time>2026-04-06T07:12:45Z</time></trkpt><trkpt lat="40.6096266" lon="14.3873503"><ele>442.0</ele><time>2026-04-06T07:12:46Z</time></trkpt><trkpt lat="40.6097242" lon="14.3875086"><ele>439.75</ele><time>2026-04-06T07:12:47Z</time></trkpt><trkpt lat="40.609829" lon="14.387648"><ele>437.5</ele><time>2026-04-06T07:12:48Z</time></trkpt><trkpt lat="40.6099485" lon="14.3877578"><ele>435.25</ele><time>2026-04-06T07:12:48.999Z</time></trkpt><trkpt lat="40.6100803" lon="14.3878295"><ele>433.0</ele><time>2026-04-06T07:12:49.999Z</time></trkpt><trkpt lat="40.6102229" lon="14.3878478"><ele>435.33333333333337</ele><time>2026-04-06T07:12:50.999Z</time></trkpt><trkpt lat="40.610372" lon="14.3878135"><ele>437.66666666666663</ele><time>2026-04-06T07:12:52Z</time></trkpt><trkpt lat="40.6105312" lon="14.3877453"><ele>440.0</ele><time>2026-04-06T07:12:53Z</time></trkpt><trkpt lat="40.6107154" lon="14.3876561"><ele>440.0</ele><time>2026-04-06T07:12:54Z</time></trkpt><trkpt lat="40.6109178" lon="14.3875635"><ele>440.0</ele><time>2026-04-06T07:12:55Z</time></trkpt><trkpt lat="40.6111187" lon="14.3874655"><ele>440.0</ele><time>2026-04-06T07:12:56Z</time></trkpt><trkpt lat="40.6112802" lon="14.3873593"><ele>438.66666666666663</ele><time>2026-04-06T07:12:57Z</time></trkpt><trkpt lat="40.6114152" lon="14.3872251"><ele>437.33333333333337</ele><time>2026-04-06T07:12:58Z</time></trkpt><trkpt lat="40.6115171" lon="14.3870753"><ele>436.0</ele><time>2026-04-06T07:12:59Z</time></trkpt><trkpt lat="40.6115995" lon="14.3869361"><ele>436.0</ele><time>2026-04-06T07:13:00Z</time></trkpt><trkpt lat="40.6116824" lon="14.3868428"><ele>436.0</ele><time>2026-04-06T07:13:01Z</time></trkpt><trkpt lat="40.6117634" lon="14.3868098"><ele>436.0</ele><time>2026-04-06T07:13:02Z</time></trkpt><trkpt lat="40.6118459" lon="14.3868379"><ele>436.0</ele><time>2026-04-06T07:13:03Z</time></trkpt><trkpt lat="40.6119024" lon="14.3869463"><ele>436.0</ele><time>2026-04-06T07:13:03.999Z</time></trkpt><trkpt lat="40.6119221" lon="14.3870816"><ele>438.5</ele><time>2026-04-06T07:13:05Z</time></trkpt><trkpt lat="40.6119044" lon="14.3872483"><ele>441.0</ele><time>2026-04-06T07:13:06Z</time></trkpt><trkpt lat="40.6118532" lon="14.387422"><ele>443.5</ele><time>2026-04-06T07:13:07Z</time></trkpt><trkpt lat="40.6117797" lon="14.3875935"><ele>446.0</ele><time>2026-04-06T07:13:08Z</time></trkpt><trkpt lat="40.6116838" lon="14.3877676"><ele>446.0</ele><time>2026-04-06T07:13:09Z</time></trkpt><trkpt lat="40.6115733" lon="14.3879478"><ele>446.0</ele><time>2026-04-06T07:13:10Z</time></trkpt><trkpt lat="40.6114519" lon="14.3881417"><ele>446.0</ele><time>2026-04-06T07:13:11Z</time></trkpt><trkpt lat="40.6113284" lon="14.3883438"><ele>446.0</ele><time>2026-04-06T07:13:12Z</time></trkpt><trkpt lat="40.6112067" lon="14.3885449"><ele>446.0</ele><time>2026-04-06T07:13:13Z</time></trkpt><trkpt lat="40.6110884" lon="14.3887344"><ele>446.0</ele><time>2026-04-06T07:13:14Z</time></trkpt><trkpt lat="40.6109697" lon="14.3889035"><ele>450.66666666666663</ele><time>2026-04-06T07:13:14.999Z</time></trkpt><trkpt lat="40.6108556" lon="14.3890579"><ele>455.33333333333337</ele><time>2026-04-06T07:13:16Z</time></trkpt><trkpt lat="40.6107568" lon="14.389217"><ele>460.0</ele><time>2026-04-06T07:13:17Z</time></trkpt><trkpt lat="40.6106917" lon="14.3893948"><ele>460.0</ele><time>2026-04-06T07:13:18Z</time></trkpt><trkpt lat="40.6106635" lon="14.3895908"><ele>460.0</ele><time>2026-04-06T07:13:19Z</time></trkpt><trkpt lat="40.6106717" lon="14.3897868"><ele>460.0</ele><time>2026-04-06T07:13:20Z</time></trkpt><trkpt lat="40.6106888" lon="14.3899723"><ele>460.0</ele><time>2026-04-06T07:13:21Z</time></trkpt><trkpt lat="40.6106859" lon="14.3901269"><ele>460.5</ele><time>2026-04-06T07:13:21.999Z</time></trkpt><trkpt lat="40.6106511" lon="14.3902586"><ele>461.0</ele><time>2026-04-06T07:13:23Z</time></trkpt><trkpt lat="40.6105778" lon="14.3903446"><ele>461.5</ele><time>2026-04-06T07:13:24Z</time></trkpt><trkpt lat="40.6104604" lon="14.3904019"><ele>462.0</ele><time>2026-04-06T07:13:25Z</time></trkpt><trkpt lat="40.610319" lon="14.3904499"><ele>466.25</ele><time>2026-04-06T07:13:26Z</time></trkpt><trkpt lat="40.6102082" lon="14.3905167"><ele>470.5</ele><time>2026-04-06T07:13:27Z</time></trkpt><trkpt lat="40.6101322" lon="14.3906166"><ele>474.75</ele><time>2026-04-06T07:13:28Z</time></trkpt><trkpt lat="40.6100938" lon="14.3907607"><ele>479.0</ele><time>2026-04-06T07:13:29Z</time></trkpt><trkpt lat="40.6101052" lon="14.3909205"><ele>479.0</ele><time>2026-04-06T07:13:29.999Z</time></trkpt><trkpt lat="40.6101593" lon="14.3910924"><ele>479.0</ele><time>2026-04-06T07:13:31Z</time></trkpt><trkpt lat="40.6102256" lon="14.3912737"><ele>479.0</ele><time>2026-04-06T07:13:32Z</time></trkpt><trkpt lat="40.6102818" lon="14.3914656"><ele>479.25</ele><time>2026-04-06T07:13:33Z</time></trkpt><trkpt lat="40.6103078" lon="14.3916594"><ele>479.5</ele><time>2026-04-06T07:13:34Z</time></trkpt><trkpt lat="40.6102959" lon="14.3918527"><ele>479.75</ele><time>2026-04-06T07:13:35Z</time></trkpt><trkpt lat="40.6102463" lon="14.3920277"><ele>480.0</ele><time>2026-04-06T07:13:36Z</time></trkpt><trkpt lat="40.6101587" lon="14.3921589"><ele>478.75</ele><time>2026-04-06T07:13:36.999Z</time></trkpt><trkpt lat="40.6100529" lon="14.3922553"><ele>477.5</ele><time>2026-04-06T07:13:38Z</time></trkpt><trkpt lat="40.6099604" lon="14.3923361"><ele>476.25</ele><time>2026-04-06T07:13:39Z</time></trkpt><trkpt lat="40.6099021" lon="14.3924332"><ele>475.0</ele><time>2026-04-06T07:13:40Z</time></trkpt><trkpt lat="40.6099288" lon="14.392668"><ele>475.0</ele><time>2026-04-06T07:13:41.999Z</time></trkpt><trkpt lat="40.6101339" lon="14.3928747"><ele>475.0</ele><time>2026-04-06T07:13:44Z</time></trkpt><trkpt lat="40.6102009" lon="14.3929943"><ele>475.0</ele><time>2026-04-06T07:13:45Z</time></trkpt><trkpt lat="40.6102124" lon="14.3931272"><ele>473.75</ele><time>2026-04-06T07:13:46Z</time></trkpt><trkpt lat="40.6101689" lon="14.3932542"><ele>472.5</ele><time>2026-04-06T07:13:47Z</time></trkpt><trkpt lat="40.6100685" lon="14.3934093"><ele>471.25</ele><time>2026-04-06T07:13:48Z</time></trkpt><trkpt lat="40.6099627" lon="14.393588"><ele>470.0</ele><time>2026-04-06T07:13:49Z</time></trkpt><trkpt lat="40.6098505" lon="14.3938103"><ele>466.3333333333333</ele><time>2026-04-06T07:13:50Z</time></trkpt><trkpt lat="40.6097548" lon="14.3940734"><ele>462.66666666666663</ele><time>2026-04-06T07:13:51Z</time></trkpt><trkpt lat="40.6096583" lon="14.394315"><ele>459.0</ele><time>2026-04-06T07:13:52Z</time></trkpt><trkpt lat="40.6095516" lon="14.3945229"><ele>466.33333333333337</ele><time>2026-04-06T07:13:53Z</time></trkpt><trkpt lat="40.6094437" lon="14.3946901"><ele>473.6666666666667</ele><time>2026-04-06T07:13:54Z</time></trkpt><trkpt lat="40.6093172" lon="14.3948117"><ele>481.0</ele><time>2026-04-06T07:13:55Z</time></trkpt><trkpt lat="40.6092658" lon="14.3949719"><ele>481.0</ele><time>2026-04-06T07:13:55.999Z</time></trkpt><trkpt lat="40.609268" lon="14.3951399"><ele>481.0</ele><time>2026-04-06T07:13:57.165Z</time></trkpt><trkpt lat="40.6093368" lon="14.3955703"><ele>481.33333333333337</ele><time>2026-04-06T07:13:59Z</time></trkpt><trkpt lat="40.6093363" lon="14.3958086"><ele>481.66666666666663</ele><time>2026-04-06T07:14:00Z</time></trkpt><trkpt lat="40.6093468" lon="14.3960306"><ele>482.0</ele><time>2026-04-06T07:14:01Z</time></trkpt><trkpt lat="40.6093947" lon="14.3962204"><ele>482.25</ele><time>2026-04-06T07:14:02Z</time></trkpt><trkpt lat="40.6094519" lon="14.3963956"><ele>482.5</ele><time>2026-04-06T07:14:03Z</time></trkpt><trkpt lat="40.6094767" lon="14.3965827"><ele>482.75</ele><time>2026-04-06T07:14:04Z</time></trkpt><trkpt lat="40.6094642" lon="14.3967866"><ele>483.0</ele><time>2026-04-06T07:14:05Z</time></trkpt><trkpt lat="40.6094228" lon="14.3969848"><ele>483.0</ele><time>2026-04-06T07:14:06Z</time></trkpt><trkpt lat="40.609373" lon="14.3971644"><ele>483.0</ele><time>2026-04-06T07:14:07Z</time></trkpt><trkpt lat="40.6093453" lon="14.3973502"><ele>483.0</ele><time>2026-04-06T07:14:08Z</time></trkpt><trkpt lat="40.6093575" lon="14.3975295"><ele>483.0</ele><time>2026-04-06T07:14:09Z</time></trkpt><trkpt lat="40.6094022" lon="14.3976962"><ele>481.75</ele><time>2026-04-06T07:14:10Z</time></trkpt><trkpt lat="40.6094795" lon="14.3978333"><ele>480.5</ele><time>2026-04-06T07:14:11Z</time></trkpt><trkpt lat="40.6095868" lon="14.3979292"><ele>479.25</ele><time>2026-04-06T07:14:12Z</time></trkpt><trkpt lat="40.609714" lon="14.397995"><ele>478.0</ele><time>2026-04-06T07:14:13Z</time></trkpt><trkpt lat="40.6098721" lon="14.3980208"><ele>475.25</ele><time>2026-04-06T07:14:13.999Z</time></trkpt><trkpt lat="40.6100012" lon="14.3980828"><ele>472.5</ele><time>2026-04-06T07:14:15Z</time></trkpt><trkpt lat="40.6100922" lon="14.3981961"><ele>469.75</ele><time>2026-04-06T07:14:16Z</time></trkpt><trkpt lat="40.610153" lon="14.3983443"><ele>467.0</ele><time>2026-04-06T07:14:16.999Z</time></trkpt><trkpt lat="40.610169" lon="14.3985107"><ele>467.0</ele><time>2026-04-06T07:14:18Z</time></trkpt><trkpt lat="40.6101755" lon="14.398684"><ele>467.0</ele><time>2026-04-06T07:14:19Z</time></trkpt><trkpt lat="40.610218" lon="14.3988582"><ele>467.0</ele><time>2026-04-06T07:14:20Z</time></trkpt><trkpt lat="40.6102704" lon="14.3990437"><ele>467.0</ele><time>2026-04-06T07:14:21Z</time></trkpt><trkpt lat="40.6103358" lon="14.3992107"><ele>465.0</ele><time>2026-04-06T07:14:22Z</time></trkpt><trkpt lat="40.6104162" lon="14.3993484"><ele>463.0</ele><time>2026-04-06T07:14:23Z</time></trkpt><trkpt lat="40.6105262" lon="14.3994618"><ele>461.0</ele><time>2026-04-06T07:14:23.999Z</time></trkpt><trkpt lat="40.6106297" lon="14.3995808"><ele>459.0</ele><time>2026-04-06T07:14:25Z</time></trkpt><trkpt lat="40.6108114" lon="14.3996326"><ele>459.75</ele><time>2026-04-06T07:14:26Z</time></trkpt><trkpt lat="40.6109221" lon="14.3997603"><ele>460.5</ele><time>2026-04-06T07:14:27Z</time></trkpt><trkpt lat="40.6110365" lon="14.3998805"><ele>461.25</ele><time>2026-04-06T07:14:28Z</time></trkpt><trkpt lat="40.6111775" lon="14.3999641"><ele>462.0</ele><time>2026-04-06T07:14:29Z</time></trkpt><trkpt lat="40.6113328" lon="14.4000039"><ele>462.0</ele><time>2026-04-06T07:14:30Z</time></trkpt><trkpt lat="40.6115057" lon="14.400049"><ele>462.0</ele><time>2026-04-06T07:14:31Z</time></trkpt><trkpt lat="40.6116481" lon="14.4001185"><ele>462.0</ele><time>2026-04-06T07:14:32Z</time></trkpt><trkpt lat="40.6117979" lon="14.4002009"><ele>462.0</ele><time>2026-04-06T07:14:33Z</time></trkpt><trkpt lat="40.6119402" lon="14.4002712"><ele>462.0</ele><time>2026-04-06T07:14:34Z</time></trkpt><trkpt lat="40.6120776" lon="14.4003204"><ele>462.0</ele><time>2026-04-06T07:14:35Z</time></trkpt><trkpt lat="40.6122238" lon="14.4003437"><ele>462.0</ele><time>2026-04-06T07:14:36Z</time></trkpt><trkpt lat="40.6123612" lon="14.4003545"><ele>460.75</ele><time>2026-04-06T07:14:37Z</time></trkpt><trkpt lat="40.6124914" lon="14.400363"><ele>459.5</ele><time>2026-04-06T07:14:38Z</time></trkpt><trkpt lat="40.6126171" lon="14.4003861"><ele>458.25</ele><time>2026-04-06T07:14:39Z</time></trkpt><trkpt lat="40.6127209" lon="14.4004419"><ele>457.0</ele><time>2026-04-06T07:14:40Z</time></trkpt><trkpt lat="40.6128022" lon="14.4005204"><ele>457.0</ele><time>2026-04-06T07:14:41Z</time></trkpt><trkpt lat="40.6128721" lon="14.4006187"><ele>457.0</ele><time>2026-04-06T07:14:42Z</time></trkpt><trkpt lat="40.6128303" lon="14.4007515"><ele>457.0</ele><time>2026-04-06T07:14:43Z</time></trkpt><trkpt lat="40.6127867" lon="14.4008912"><ele>457.0</ele><time>2026-04-06T07:14:44Z</time></trkpt><trkpt lat="40.6127173" lon="14.4010423"><ele>457.0</ele><time>2026-04-06T07:14:45Z</time></trkpt><trkpt lat="40.6126384" lon="14.4011968"><ele>457.0</ele><time>2026-04-06T07:14:46Z</time></trkpt><trkpt lat="40.6125446" lon="14.4013657"><ele>457.0</ele><time>2026-04-06T07:14:47Z</time></trkpt><trkpt lat="40.6124481" lon="14.4015435"><ele>452.6666666666667</ele><time>2026-04-06T07:14:48Z</time></trkpt><trkpt lat="40.6123588" lon="14.4017419"><ele>448.33333333333337</ele><time>2026-04-06T07:14:49Z</time></trkpt><trkpt lat="40.6122946" lon="14.4019624"><ele>444.0</ele><time>2026-04-06T07:14:50Z</time></trkpt><trkpt lat="40.6122464" lon="14.4021937"><ele>440.33333333333337</ele><time>2026-04-06T07:14:50.999Z</time></trkpt><trkpt lat="40.612217" lon="14.4024205"><ele>436.6666666666667</ele><time>2026-04-06T07:14:52Z</time></trkpt><trkpt lat="40.6121968" lon="14.4026401"><ele>433.0</ele><time>2026-04-06T07:14:53Z</time></trkpt><trkpt lat="40.6121922" lon="14.4028451"><ele>434.0</ele><time>2026-04-06T07:14:54Z</time></trkpt><trkpt lat="40.6121901" lon="14.4030423"><ele>435.0</ele><time>2026-04-06T07:14:55Z</time></trkpt><trkpt lat="40.612141" lon="14.4032206"><ele>436.0</ele><time>2026-04-06T07:14:56Z</time></trkpt><trkpt lat="40.6120604" lon="14.4033877"><ele>437.0</ele><time>2026-04-06T07:14:57Z</time></trkpt><trkpt lat="40.6119708" lon="14.4035231"><ele>437.0</ele><time>2026-04-06T07:14:58Z</time></trkpt><trkpt lat="40.6118843" lon="14.4036645"><ele>437.0</ele><time>2026-04-06T07:14:59Z</time></trkpt><trkpt lat="40.6118067" lon="14.4037502"><ele>437.0</ele><time>2026-04-06T07:15:00Z</time></trkpt><trkpt lat="40.6116383" lon="14.4036413"><ele>437.0</ele><time>2026-04-06T07:15:01Z</time></trkpt><trkpt lat="40.6115156" lon="14.4036361"><ele>437.0</ele><time>2026-04-06T07:15:02Z</time></trkpt><trkpt lat="40.6114074" lon="14.4036595"><ele>437.0</ele><time>2026-04-06T07:15:03Z</time></trkpt><trkpt lat="40.6113189" lon="14.4037332"><ele>437.0</ele><time>2026-04-06T07:15:04Z</time></trkpt><trkpt lat="40.6112587" lon="14.4038531"><ele>437.0</ele><time>2026-04-06T07:15:05Z</time></trkpt><trkpt lat="40.6112271" lon="14.4040163"><ele>431.75</ele><time>2026-04-06T07:15:06Z</time></trkpt><trkpt lat="40.6112451" lon="14.4041886"><ele>426.5</ele><time>2026-04-06T07:15:07Z</time></trkpt><trkpt lat="40.6112555" lon="14.4043448"><ele>421.25</ele><time>2026-04-06T07:15:08Z</time></trkpt><trkpt lat="40.6112578" lon="14.4044956"><ele>416.0</ele><time>2026-04-06T07:15:09Z</time></trkpt><trkpt lat="40.6111773" lon="14.4046037"><ele>415.5</ele><time>2026-04-06T07:15:10Z</time></trkpt><trkpt lat="40.611061" lon="14.4047151"><ele>415.0</ele><time>2026-04-06T07:15:11Z</time></trkpt><trkpt lat="40.6109483" lon="14.4048135"><ele>414.5</ele><time>2026-04-06T07:15:12Z</time></trkpt><trkpt lat="40.6108193" lon="14.4048723"><ele>414.0</ele><time>2026-04-06T07:15:13Z</time></trkpt><trkpt lat="40.610694" lon="14.4049092"><ele>414.0</ele><time>2026-04-06T07:15:14Z</time></trkpt><trkpt lat="40.6105866" lon="14.4049507"><ele>414.0</ele><time>2026-04-06T07:15:15Z</time></trkpt><trkpt lat="40.6105047" lon="14.4050294"><ele>414.0</ele><time>2026-04-06T07:15:16Z</time></trkpt><trkpt lat="40.6104568" lon="14.405148"><ele>414.0</ele><time>2026-04-06T07:15:17Z</time></trkpt><trkpt lat="40.6104172" lon="14.4053029"><ele>414.0</ele><time>2026-04-06T07:15:18Z</time></trkpt><trkpt lat="40.610376" lon="14.4054832"><ele>415.2</ele><time>2026-04-06T07:15:19Z</time></trkpt><trkpt lat="40.6103329" lon="14.4056383"><ele>416.4</ele><time>2026-04-06T07:15:20Z</time></trkpt><trkpt lat="40.6102766" lon="14.4057802"><ele>417.6</ele><time>2026-04-06T07:15:21Z</time></trkpt><trkpt lat="40.6102053" lon="14.4058857"><ele>418.8</ele><time>2026-04-06T07:15:22Z</time></trkpt><trkpt lat="40.6101257" lon="14.4059453"><ele>420.0</ele><time>2026-04-06T07:15:23Z</time></trkpt><trkpt lat="40.6100484" lon="14.4060009"><ele>420.0</ele><time>2026-04-06T07:15:24Z</time></trkpt><trkpt lat="40.6099523" lon="14.4060312"><ele>420.0</ele><time>2026-04-06T07:15:25Z</time></trkpt><trkpt lat="40.6098638" lon="14.4060673"><ele>420.0</ele><time>2026-04-06T07:15:26Z</time></trkpt><trkpt lat="40.6098266" lon="14.4061385"><ele>420.0</ele><time>2026-04-06T07:15:27Z</time></trkpt><trkpt lat="40.6098629" lon="14.4062767"><ele>420.0</ele><time>2026-04-06T07:15:29Z</time></trkpt><trkpt lat="40.6099259" lon="14.406286"><ele>420.0</ele><time>2026-04-06T07:15:30Z</time></trkpt><trkpt lat="40.6099996" lon="14.4062627"><ele>420.0</ele><time>2026-04-06T07:15:31Z</time></trkpt><trkpt lat="40.6100832" lon="14.406211"><ele>420.0</ele><time>2026-04-06T07:15:31.999Z</time></trkpt><trkpt lat="40.6101957" lon="14.4061665"><ele>420.0</ele><time>2026-04-06T07:15:33Z</time></trkpt><trkpt lat="40.610302" lon="14.4061203"><ele>420.0</ele><time>2026-04-06T07:15:34Z</time></trkpt><trkpt lat="40.6104037" lon="14.4060321"><ele>420.0</ele><time>2026-04-06T07:15:34.999Z</time></trkpt><trkpt lat="40.61048" lon="14.4059124"><ele>415.6666666666667</ele><time>2026-04-06T07:15:36Z</time></trkpt><trkpt lat="40.6105359" lon="14.4057933"><ele>411.33333333333337</ele><time>2026-04-06T07:15:37Z</time></trkpt><trkpt lat="40.6105753" lon="14.4056858"><ele>407.0</ele><time>2026-04-06T07:15:38Z</time></trkpt><trkpt lat="40.6106271" lon="14.4056093"><ele>402.6666666666667</ele><time>2026-04-06T07:15:38.999Z</time></trkpt><trkpt lat="40.6106961" lon="14.4055858"><ele>398.33333333333337</ele><time>2026-04-06T07:15:40Z</time></trkpt><trkpt lat="40.6107727" lon="14.4056229"><ele>394.0</ele><time>2026-04-06T07:15:41Z</time></trkpt><trkpt lat="40.6108423" lon="14.4057175"><ele>394.0</ele><time>2026-04-06T07:15:42Z</time></trkpt><trkpt lat="40.6109104" lon="14.4058504"><ele>394.0</ele><time>2026-04-06T07:15:43.148Z</time></trkpt><trkpt lat="40.6110358" lon="14.406092"><ele>394.0</ele><time>2026-04-06T07:15:45Z</time></trkpt><trkpt lat="40.6110968" lon="14.4061856"><ele>394.0</ele><time>2026-04-06T07:15:46Z</time></trkpt><trkpt lat="40.6111579" lon="14.406243"><ele>391.0</ele><time>2026-04-06T07:15:47Z</time></trkpt><trkpt lat="40.6112778" lon="14.4062097"><ele>388.0</ele><time>2026-04-06T07:15:49Z</time></trkpt><trkpt lat="40.6113331" lon="14.4061048"><ele>385.0</ele><time>2026-04-06T07:15:50Z</time></trkpt><trkpt lat="40.611401" lon="14.4059644"><ele>382.0</ele><time>2026-04-06T07:15:50.999Z</time></trkpt><trkpt lat="40.6114775" lon="14.4058398"><ele>382.0</ele><time>2026-04-06T07:15:52Z</time></trkpt><trkpt lat="40.6115566" lon="14.4057231"><ele>382.0</ele><time>2026-04-06T07:15:53Z</time></trkpt><trkpt lat="40.6116371" lon="14.4056474"><ele>382.0</ele><time>2026-04-06T07:15:54Z</time></trkpt><trkpt lat="40.61172" lon="14.4056145"><ele>382.0</ele><time>2026-04-06T07:15:55Z</time></trkpt><trkpt lat="40.6117836" lon="14.4056354"><ele>382.0</ele><time>2026-04-06T07:15:56Z</time></trkpt><trkpt lat="40.6118032" lon="14.4057794"><ele>382.0</ele><time>2026-04-06T07:15:58Z</time></trkpt><trkpt lat="40.6117803" lon="14.4058914"><ele>382.0</ele><time>2026-04-06T07:15:59Z</time></trkpt><trkpt lat="40.611784" lon="14.4060413"><ele>382.0</ele><time>2026-04-06T07:16:00Z</time></trkpt><trkpt lat="40.6118195" lon="14.4061861"><ele>382.0</ele><time>2026-04-06T07:16:01Z</time></trkpt><trkpt lat="40.6118827" lon="14.406304"><ele>382.0</ele><time>2026-04-06T07:16:02Z</time></trkpt><trkpt lat="40.6119526" lon="14.406407"><ele>378.42857142857144</ele><time>2026-04-06T07:16:03Z</time></trkpt><trkpt lat="40.6120187" lon="14.4064931"><ele>374.85714285714283</ele><time>2026-04-06T07:16:04Z</time></trkpt><trkpt lat="40.6120762" lon="14.4065676"><ele>371.2857142857143</ele><time>2026-04-06T07:16:05Z</time></trkpt><trkpt lat="40.6121293" lon="14.4066351"><ele>367.7142857142857</ele><time>2026-04-06T07:16:06Z</time></trkpt><trkpt lat="40.6121719" lon="14.4067057"><ele>364.1428571428571</ele><time>2026-04-06T07:16:07Z</time></trkpt><trkpt lat="40.6121971" lon="14.4067889"><ele>360.57142857142856</ele><time>2026-04-06T07:16:08Z</time></trkpt><trkpt lat="40.6122013" lon="14.4068734"><ele>357.0</ele><time>2026-04-06T07:16:09Z</time></trkpt><trkpt lat="40.6121866" lon="14.4069588"><ele>357.0</ele><time>2026-04-06T07:16:10Z</time></trkpt><trkpt lat="40.6121512" lon="14.407039"><ele>357.0</ele><time>2026-04-06T07:16:11Z</time></trkpt><trkpt lat="40.6121093" lon="14.4071178"><ele>357.0</ele><time>2026-04-06T07:16:11.999Z</time></trkpt><trkpt lat="40.6120626" lon="14.4071906"><ele>357.0</ele><time>2026-04-06T07:16:13Z</time></trkpt><trkpt lat="40.6120065" lon="14.407258"><ele>357.0</ele><time>2026-04-06T07:16:14Z</time></trkpt><trkpt lat="40.6119422" lon="14.4073208"><ele>357.0</ele><time>2026-04-06T07:16:15Z</time></trkpt><trkpt lat="40.6118748" lon="14.4073784"><ele>358.5</ele><time>2026-04-06T07:16:16Z</time></trkpt><trkpt lat="40.6118022" lon="14.4074345"><ele>360.0</ele><time>2026-04-06T07:16:17Z</time></trkpt><trkpt lat="40.6117208" lon="14.4074767"><ele>361.5</ele><time>2026-04-06T07:16:18Z</time></trkpt><trkpt lat="40.6116401" lon="14.4075059"><ele>363.0</ele><time>2026-04-06T07:16:19Z</time></trkpt><trkpt lat="40.6115571" lon="14.4075284"><ele>364.5</ele><time>2026-04-06T07:16:20Z</time></trkpt><trkpt lat="40.611483" lon="14.4075363"><ele>366.0</ele><time>2026-04-06T07:16:21Z</time></trkpt><trkpt lat="40.6114083" lon="14.4075405"><ele>366.0</ele><time>2026-04-06T07:16:22Z</time></trkpt><trkpt lat="40.6113358" lon="14.4075462"><ele>366.0</ele><time>2026-04-06T07:16:23Z</time></trkpt><trkpt lat="40.6112697" lon="14.4075613"><ele>366.0</ele><time>2026-04-06T07:16:24Z</time></trkpt><trkpt lat="40.6111977" lon="14.4076769"><ele>366.0</ele><time>2026-04-06T07:16:26Z</time></trkpt><trkpt lat="40.6112825" lon="14.4077874"><ele>366.0</ele><time>2026-04-06T07:16:28Z</time></trkpt><trkpt lat="40.6113697" lon="14.4077959"><ele>366.0</ele><time>2026-04-06T07:16:29Z</time></trkpt><trkpt lat="40.6114801" lon="14.4077862"><ele>366.0</ele><time>2026-04-06T07:16:30Z</time></trkpt><trkpt lat="40.6115918" lon="14.4077768"><ele>366.0</ele><time>2026-04-06T07:16:31Z</time></trkpt><trkpt lat="40.6117024" lon="14.4077748"><ele>366.0</ele><time>2026-04-06T07:16:32Z</time></trkpt><trkpt lat="40.6118174" lon="14.4077912"><ele>366.0</ele><time>2026-04-06T07:16:33Z</time></trkpt><trkpt lat="40.6119319" lon="14.4078253"><ele>364.4</ele><time>2026-04-06T07:16:34Z</time></trkpt><trkpt lat="40.6120385" lon="14.4078663"><ele>362.8</ele><time>2026-04-06T07:16:35Z</time></trkpt><trkpt lat="40.6121429" lon="14.4079061"><ele>361.2</ele><time>2026-04-06T07:16:36Z</time></trkpt><trkpt lat="40.6122491" lon="14.4079349"><ele>359.59999999999997</ele><time>2026-04-06T07:16:37Z</time></trkpt><trkpt lat="40.6123531" lon="14.4079565"><ele>358.0</ele><time>2026-04-06T07:16:38Z</time></trkpt><trkpt lat="40.6124493" lon="14.4079691"><ele>358.0</ele><time>2026-04-06T07:16:39Z</time></trkpt><trkpt lat="40.6125368" lon="14.407976"><ele>358.0</ele><time>2026-04-06T07:16:40Z</time></trkpt><trkpt lat="40.6126218" lon="14.4079888"><ele>358.0</ele><time>2026-04-06T07:16:41Z</time></trkpt><trkpt lat="40.6127075" lon="14.4079895"><ele>358.0</ele><time>2026-04-06T07:16:42Z</time></trkpt><trkpt lat="40.6128051" lon="14.4079803"><ele>358.0</ele><time>2026-04-06T07:16:43Z</time></trkpt><trkpt lat="40.6129131" lon="14.4079693"><ele>355.79999999999995</ele><time>2026-04-06T07:16:44Z</time></trkpt><trkpt lat="40.6130188" lon="14.4079615"><ele>353.6</ele><time>2026-04-06T07:16:45Z</time></trkpt><trkpt lat="40.6131238" lon="14.4079496"><ele>351.4</ele><time>2026-04-06T07:16:46Z</time></trkpt><trkpt lat="40.6132353" lon="14.4079511"><ele>349.20000000000005</ele><time>2026-04-06T07:16:47Z</time></trkpt><trkpt lat="40.6133521" lon="14.4079655"><ele>347.0</ele><time>2026-04-06T07:16:47.999Z</time></trkpt><trkpt lat="40.6134601" lon="14.4079942"><ele>347.0</ele><time>2026-04-06T07:16:49Z</time></trkpt><trkpt lat="40.6135671" lon="14.4080353"><ele>347.0</ele><time>2026-04-06T07:16:50Z</time></trkpt><trkpt lat="40.6136702" lon="14.4080799"><ele>347.0</ele><time>2026-04-06T07:16:51Z</time></trkpt><trkpt lat="40.6137734" lon="14.4081341"><ele>347.0</ele><time>2026-04-06T07:16:52Z</time></trkpt><trkpt lat="40.6138688" lon="14.4081863"><ele>347.0</ele><time>2026-04-06T07:16:53Z</time></trkpt><trkpt lat="40.6139577" lon="14.4082373"><ele>347.0</ele><time>2026-04-06T07:16:53.999Z</time></trkpt><trkpt lat="40.6140417" lon="14.4082997"><ele>347.0</ele><time>2026-04-06T07:16:55Z</time></trkpt><trkpt lat="40.6141044" lon="14.4083938"><ele>347.0</ele><time>2026-04-06T07:16:56Z</time></trkpt><trkpt lat="40.6141551" lon="14.4085134"><ele>347.0</ele><time>2026-04-06T07:16:57Z</time></trkpt><trkpt lat="40.6142102" lon="14.4086578"><ele>347.0</ele><time>2026-04-06T07:16:58Z</time></trkpt><trkpt lat="40.6143039" lon="14.4088734"><ele>347.0</ele><time>2026-04-06T07:16:59Z</time></trkpt><trkpt lat="40.6143896" lon="14.409128"><ele>347.0</ele><time>2026-04-06T07:17:00Z</time></trkpt><trkpt lat="40.6144757" lon="14.4094005"><ele>347.0</ele><time>2026-04-06T07:17:01Z</time></trkpt><trkpt lat="40.6145723" lon="14.4096458"><ele>341.6666666666667</ele><time>2026-04-06T07:17:02Z</time></trkpt><trkpt lat="40.6146737" lon="14.4098738"><ele>336.3333333333333</ele><time>2026-04-06T07:17:03Z</time></trkpt><trkpt lat="40.6147513" lon="14.4100872"><ele>331.0</ele><time>2026-04-06T07:17:04Z</time></trkpt><trkpt lat="40.6147917" lon="14.4103156"><ele>332.3333333333333</ele><time>2026-04-06T07:17:05Z</time></trkpt><trkpt lat="40.6148201" lon="14.4105346"><ele>333.6666666666667</ele><time>2026-04-06T07:17:06Z</time></trkpt><trkpt lat="40.614846" lon="14.4107363"><ele>335.0</ele><time>2026-04-06T07:17:07Z</time></trkpt><trkpt lat="40.6148614" lon="14.4109319"><ele>335.0</ele><time>2026-04-06T07:17:07.999Z</time></trkpt><trkpt lat="40.6148668" lon="14.411119"><ele>335.0</ele><time>2026-04-06T07:17:09Z</time></trkpt><trkpt lat="40.6148059" lon="14.4113053"><ele>335.0</ele><time>2026-04-06T07:17:10Z</time></trkpt><trkpt lat="40.6147694" lon="14.4114672"><ele>335.0</ele><time>2026-04-06T07:17:11Z</time></trkpt><trkpt lat="40.6146962" lon="14.4116603"><ele>333.33333333333337</ele><time>2026-04-06T07:17:12Z</time></trkpt><trkpt lat="40.6146609" lon="14.4118811"><ele>331.6666666666667</ele><time>2026-04-06T07:17:13Z</time></trkpt><trkpt lat="40.6146505" lon="14.4121199"><ele>330.0</ele><time>2026-04-06T07:17:14Z</time></trkpt><trkpt lat="40.6146455" lon="14.4123557"><ele>329.6666666666667</ele><time>2026-04-06T07:17:15Z</time></trkpt><trkpt lat="40.6147121" lon="14.4125755"><ele>329.33333333333337</ele><time>2026-04-06T07:17:16Z</time></trkpt><trkpt lat="40.6147771" lon="14.4127791"><ele>329.0</ele><time>2026-04-06T07:17:17Z</time></trkpt><trkpt lat="40.6148483" lon="14.4129675"><ele>329.6666666666667</ele><time>2026-04-06T07:17:18Z</time></trkpt><trkpt lat="40.6149317" lon="14.4131491"><ele>330.3333333333333</ele><time>2026-04-06T07:17:18.999Z</time></trkpt><trkpt lat="40.6150198" lon="14.4133352"><ele>331.0</ele><time>2026-04-06T07:17:20Z</time></trkpt><trkpt lat="40.615102" lon="14.4135227"><ele>331.0</ele><time>2026-04-06T07:17:21Z</time></trkpt><trkpt lat="40.615187" lon="14.4137081"><ele>331.0</ele><time>2026-04-06T07:17:22Z</time></trkpt><trkpt lat="40.6152621" lon="14.4138931"><ele>331.0</ele><time>2026-04-06T07:17:23Z</time></trkpt><trkpt lat="40.6153362" lon="14.4140757"><ele>331.75</ele><time>2026-04-06T07:17:24Z</time></trkpt><trkpt lat="40.6153966" lon="14.4142583"><ele>332.5</ele><time>2026-04-06T07:17:25Z</time></trkpt><trkpt lat="40.6154539" lon="14.4144314"><ele>333.25</ele><time>2026-04-06T07:17:26Z</time></trkpt><trkpt lat="40.6155062" lon="14.4145961"><ele>334.0</ele><time>2026-04-06T07:17:27Z</time></trkpt><trkpt lat="40.6155591" lon="14.414757"><ele>334.0</ele><time>2026-04-06T07:17:28Z</time></trkpt><trkpt lat="40.615613" lon="14.4149127"><ele>334.0</ele><time>2026-04-06T07:17:29Z</time></trkpt><trkpt lat="40.6156661" lon="14.4150617"><ele>334.0</ele><time>2026-04-06T07:17:30Z</time></trkpt><trkpt lat="40.6157216" lon="14.4151956"><ele>334.0</ele><time>2026-04-06T07:17:31Z</time></trkpt><trkpt lat="40.615775" lon="14.4153259"><ele>334.0</ele><time>2026-04-06T07:17:32Z</time></trkpt><trkpt lat="40.615824" lon="14.4154465"><ele>334.0</ele><time>2026-04-06T07:17:33Z</time></trkpt><trkpt lat="40.6158682" lon="14.4155599"><ele>334.0</ele><time>2026-04-06T07:17:34Z</time></trkpt><trkpt lat="40.6159147" lon="14.4156669"><ele>334.0</ele><time>2026-04-06T07:17:35Z</time></trkpt><trkpt lat="40.6159486" lon="14.4157812"><ele>334.0</ele><time>2026-04-06T07:17:36Z</time></trkpt><trkpt lat="40.6159664" lon="14.415903"><ele>332.0</ele><time>2026-04-06T07:17:37.162Z</time></trkpt><trkpt lat="40.6159731" lon="14.4161593"><ele>330.0</ele><time>2026-04-06T07:17:39Z</time></trkpt><trkpt lat="40.6159771" lon="14.4162955"><ele>328.0</ele><time>2026-04-06T07:17:39.999Z</time></trkpt><trkpt lat="40.6160013" lon="14.4164519"><ele>326.0</ele><time>2026-04-06T07:17:41Z</time></trkpt><trkpt lat="40.6160441" lon="14.4166581"><ele>324.6666666666667</ele><time>2026-04-06T07:17:42Z</time></trkpt><trkpt lat="40.6161052" lon="14.4168847"><ele>323.3333333333333</ele><time>2026-04-06T07:17:43Z</time></trkpt><trkpt lat="40.6161726" lon="14.4170813"><ele>322.0</ele><time>2026-04-06T07:17:44Z</time></trkpt><trkpt lat="40.6162127" lon="14.4172621"><ele>322.3333333333333</ele><time>2026-04-06T07:17:45Z</time></trkpt><trkpt lat="40.6161974" lon="14.4174537"><ele>322.6666666666667</ele><time>2026-04-06T07:17:46Z</time></trkpt><trkpt lat="40.6161474" lon="14.4176616"><ele>323.0</ele><time>2026-04-06T07:17:47Z</time></trkpt><trkpt lat="40.616072" lon="14.4178955"><ele>329.0</ele><time>2026-04-06T07:17:48Z</time></trkpt><trkpt lat="40.6148483" lon="14.4129675"><ele>329.6666666666667</ele><time>2026-04-06T07:17:18Z</time></trkpt><trkpt lat="40.6149317" lon="14.4131491"><ele>330.3333333333333</ele><time>2026-04-06T07:17:18.999Z</time></trkpt><trkpt lat="40.6150198" lon="14.4133352"><ele>331.0</ele><time>2026-04-06T07:17:20Z</time></trkpt><trkpt lat="40.615102" lon="14.4135227"><ele>331.0</ele><time>2026-04-06T07:17:21Z</time></trkpt><trkpt lat="40.615187" lon="14.4137081"><ele>331.0</ele><time>2026-04-06T07:17:22Z</time></trkpt><trkpt lat="40.6152621" lon="14.4138931"><ele>331.0</ele><time>2026-04-06T07:17:23Z</time></trkpt><trkpt lat="40.6153362" lon="14.4140757"><ele>331.75</ele><time>2026-04-06T07:17:24Z</time></trkpt><trkpt lat="40.6153966" lon="14.4142583"><ele>332.5</ele><time>2026-04-06T07:17:25Z</time></trkpt><trkpt lat="40.6154539" lon="14.4144314"><ele>333.25</ele><time>2026-04-06T07:17:26Z</time></trkpt><trkpt lat="40.6155062" lon="14.4145961"><ele>334.0</ele><time>2026-04-06T07:17:27Z</time></trkpt><trkpt lat="40.6155591" lon="14.414757"><ele>334.0</ele><time>2026-04-06T07:17:28Z</time></trkpt><trkpt lat="40.615613" lon="14.4149127"><ele>334.0</ele><time>2026-04-06T07:17:29Z</time></trkpt><trkpt lat="40.6156661" lon="14.4150617"><ele>334.0</ele><time>2026-04-06T07:17:30Z</time></trkpt><trkpt lat="40.6157216" lon="14.4151956"><ele>334.0</ele><time>2026-04-06T07:17:31Z</time></trkpt><trkpt lat="40.615775" lon="14.4153259"><ele>334.0</ele><time>2026-04-06T07:17:32Z</time></trkpt><trkpt lat="40.615824" lon="14.4154465"><ele>334.0</ele><time>2026-04-06T07:17:33Z</time></trkpt><trkpt lat="40.6158682" lon="14.4155599"><ele>334.0</ele><time>2026-04-06T07:17:34Z</time></trkpt><trkpt lat="40.6159147" lon="14.4156669"><ele>334.0</ele><time>2026-04-06T07:17:35Z</time></trkpt><trkpt lat="40.6159486" lon="14.4157812"><ele>334.0</ele><time>2026-04-06T07:17:36Z</time></trkpt><trkpt lat="40.6159664" lon="14.415903"><ele>332.0</ele><time>2026-04-06T07:17:37.162Z</time></trkpt><trkpt lat="40.6159731" lon="14.4161593"><ele>330.0</ele><time>2026-04-06T07:17:39Z</time></trkpt><trkpt lat="40.6159771" lon="14.4162955"><ele>328.0</ele><time>2026-04-06T07:17:39.999Z</time></trkpt><trkpt lat="40.6160013" lon="14.4164519"><ele>326.0</ele><time>2026-04-06T07:17:41Z</time></trkpt><trkpt lat="40.6160441" lon="14.4166581"><ele>324.6666666666667</ele><time>2026-04-06T07:17:42Z</time></trkpt><trkpt lat="40.6161052" lon="14.4168847"><ele>323.3333333333333</ele><time>2026-04-06T07:17:43Z</time></trkpt><trkpt lat="40.6161726" lon="14.4170813"><ele>322.0</ele><time>2026-04-06T07:17:44Z</time></trkpt><trkpt lat="40.6162127" lon="14.4172621"><ele>322.3333333333333</ele><time>2026-04-06T07:17:45Z</time></trkpt><trkpt lat="40.6161974" lon="14.4174537"><ele>322.6666666666667</ele><time>2026-04-06T07:17:46Z</time></trkpt><trkpt lat="40.6161474" lon="14.4176616"><ele>323.0</ele><time>2026-04-06T07:17:47Z</time></trkpt><trkpt lat="40.616072" lon="14.4178955"><ele>326.33333333333337</ele><time>2026-04-06T07:17:48Z</time></trkpt><trkpt lat="40.6159796" lon="14.4181378"><ele>329.6666666666667</ele><time>2026-04-06T07:17:49Z</time></trkpt><trkpt lat="40.6158757" lon="14.4183658"><ele>333.0</ele><time>2026-04-06T07:17:50Z</time></trkpt><trkpt lat="40.6157722" lon="14.4185687"><ele>333.0</ele><time>2026-04-06T07:17:51Z</time></trkpt><trkpt lat="40.615677" lon="14.418753"><ele>333.0</ele><time>2026-04-06T07:17:52Z</time></trkpt><trkpt lat="40.6155931" lon="14.4189176"><ele>333.0</ele><time>2026-04-06T07:17:53Z</time></trkpt><trkpt lat="40.6155211" lon="14.4190634"><ele>334.3333333333333</ele><time>2026-04-06T07:17:54Z</time></trkpt><trkpt lat="40.6154618" lon="14.4191866"><ele>335.6666666666667</ele><time>2026-04-06T07:17:55Z</time></trkpt><trkpt lat="40.6154222" lon="14.4192953"><ele>337.0</ele><time>2026-04-06T07:17:56Z</time></trkpt><trkpt lat="40.6154128" lon="14.4193963"><ele>338.33333333333337</ele><time>2026-04-06T07:17:57Z</time></trkpt><trkpt lat="40.6154223" lon="14.4194893"><ele>339.6666666666667</ele><time>2026-04-06T07:17:58Z</time></trkpt><trkpt lat="40.6154563" lon="14.4195717"><ele>341.0</ele><time>2026-04-06T07:17:59Z</time></trkpt><trkpt lat="40.6155178" lon="14.4196292"><ele>337.6666666666667</ele><time>2026-04-06T07:18:00Z</time></trkpt><trkpt lat="40.6156268" lon="14.4196827"><ele>334.3333333333333</ele><time>2026-04-06T07:18:01Z</time></trkpt><trkpt lat="40.6157758" lon="14.41976"><ele>331.0</ele><time>2026-04-06T07:18:02Z</time></trkpt><trkpt lat="40.6159445" lon="14.4198576"><ele>331.0</ele><time>2026-04-06T07:18:03Z</time></trkpt><trkpt lat="40.61613" lon="14.4199831"><ele>331.0</ele><time>2026-04-06T07:18:04Z</time></trkpt><trkpt lat="40.6162919" lon="14.4201283"><ele>331.0</ele><time>2026-04-06T07:18:05Z</time></trkpt><trkpt lat="40.6164426" lon="14.4202698"><ele>329.0</ele><time>2026-04-06T07:18:06Z</time></trkpt><trkpt lat="40.6165753" lon="14.4203894"><ele>327.0</ele><time>2026-04-06T07:18:06.999Z</time></trkpt><trkpt lat="40.6166955" lon="14.4204727"><ele>325.0</ele><time>2026-04-06T07:18:08Z</time></trkpt><trkpt lat="40.6168175" lon="14.4205072"><ele>323.0</ele><time>2026-04-06T07:18:09Z</time></trkpt><trkpt lat="40.6169483" lon="14.4205062"><ele>323.75</ele><time>2026-04-06T07:18:10Z</time></trkpt><trkpt lat="40.617082" lon="14.4205071"><ele>324.5</ele><time>2026-04-06T07:18:11Z</time></trkpt><trkpt lat="40.6172278" lon="14.4205029"><ele>325.25</ele><time>2026-04-06T07:18:12Z</time></trkpt><trkpt lat="40.6173778" lon="14.420496"><ele>326.0</ele><time>2026-04-06T07:18:13Z</time></trkpt><trkpt lat="40.6175667" lon="14.4204982"><ele>326.0</ele><time>2026-04-06T07:18:14Z</time></trkpt><trkpt lat="40.6177267" lon="14.4204957"><ele>326.0</ele><time>2026-04-06T07:18:15Z</time></trkpt><trkpt lat="40.617876" lon="14.4204879"><ele>326.0</ele><time>2026-04-06T07:18:16Z</time></trkpt><trkpt lat="40.6180182" lon="14.4204874"><ele>327.5</ele><time>2026-04-06T07:18:17Z</time></trkpt><trkpt lat="40.6181476" lon="14.4205188"><ele>329.0</ele><time>2026-04-06T07:18:18Z</time></trkpt><trkpt lat="40.6182557" lon="14.420589"><ele>330.5</ele><time>2026-04-06T07:18:19Z</time></trkpt><trkpt lat="40.6183348" lon="14.4206933"><ele>332.0</ele><time>2026-04-06T07:18:20Z</time></trkpt><trkpt lat="40.6183753" lon="14.4208172"><ele>332.0</ele><time>2026-04-06T07:18:21Z</time></trkpt><trkpt lat="40.6183902" lon="14.4209767"><ele>332.0</ele><time>2026-04-06T07:18:22Z</time></trkpt><trkpt lat="40.618385" lon="14.421153"><ele>332.0</ele><time>2026-04-06T07:18:23Z</time></trkpt><trkpt lat="40.6183739" lon="14.4213534"><ele>332.0</ele><time>2026-04-06T07:18:24Z</time></trkpt><trkpt lat="40.6183577" lon="14.4215574"><ele>330.33333333333337</ele><time>2026-04-06T07:18:25Z</time></trkpt><trkpt lat="40.6183385" lon="14.4217588"><ele>328.6666666666667</ele><time>2026-04-06T07:18:26Z</time></trkpt><trkpt lat="40.6182802" lon="14.4219593"><ele>327.0</ele><time>2026-04-06T07:18:27Z</time></trkpt><trkpt lat="40.6181912" lon="14.4221569"><ele>325.0</ele><time>2026-04-06T07:18:28Z</time></trkpt><trkpt lat="40.6180897" lon="14.4223563"><ele>323.0</ele><time>2026-04-06T07:18:29Z</time></trkpt><trkpt lat="40.6179806" lon="14.4225638"><ele>321.0</ele><time>2026-04-06T07:18:29.999Z</time></trkpt><trkpt lat="40.6178724" lon="14.4227705"><ele>323.3333333333333</ele><time>2026-04-06T07:18:31Z</time></trkpt><trkpt lat="40.6177677" lon="14.4229875"><ele>325.66666666666663</ele><time>2026-04-06T07:18:32Z</time></trkpt><trkpt lat="40.6176703" lon="14.4232215"><ele>328.0</ele><time>2026-04-06T07:18:33Z</time></trkpt><trkpt lat="40.6175838" lon="14.4234688"><ele>328.0</ele><time>2026-04-06T07:18:34Z</time></trkpt><trkpt lat="40.6175148" lon="14.4237305"><ele>328.0</ele><time>2026-04-06T07:18:34.999Z</time></trkpt><trkpt lat="40.6174661" lon="14.4240018"><ele>328.0</ele><time>2026-04-06T07:18:36Z</time></trkpt><trkpt lat="40.6174285" lon="14.4242803"><ele>328.3333333333333</ele><time>2026-04-06T07:18:37Z</time></trkpt><trkpt lat="40.617404" lon="14.424557"><ele>328.6666666666667</ele><time>2026-04-06T07:18:38Z</time></trkpt><trkpt lat="40.6173862" lon="14.4248246"><ele>329.0</ele><time>2026-04-06T07:18:39Z</time></trkpt><trkpt lat="40.6173698" lon="14.425078"><ele>326.5</ele><time>2026-04-06T07:18:40Z</time></trkpt><trkpt lat="40.617357" lon="14.425325"><ele>324.0</ele><time>2026-04-06T07:18:41Z</time></trkpt><trkpt lat="40.6173461" lon="14.4258159"><ele>321.0</ele><time>2026-04-06T07:18:42.999Z</time></trkpt><trkpt lat="40.6173634" lon="14.4260639"><ele>318.0</ele><time>2026-04-06T07:18:44Z</time></trkpt><trkpt lat="40.6173822" lon="14.426294"><ele>315.0</ele><time>2026-04-06T07:18:45Z</time></trkpt><trkpt lat="40.6173976" lon="14.4265206"><ele>314.3333333333333</ele><time>2026-04-06T07:18:46Z</time></trkpt><trkpt lat="40.6174044" lon="14.4267327"><ele>313.66666666666663</ele><time>2026-04-06T07:18:47Z</time></trkpt><trkpt lat="40.6174066" lon="14.4269274"><ele>313.0</ele><time>2026-04-06T07:18:48Z</time></trkpt><trkpt lat="40.6174102" lon="14.4271148"><ele>312.75</ele><time>2026-04-06T07:18:49Z</time></trkpt><trkpt lat="40.6174154" lon="14.4272916"><ele>312.5</ele><time>2026-04-06T07:18:50Z</time></trkpt><trkpt lat="40.6174228" lon="14.4274595"><ele>312.25</ele><time>2026-04-06T07:18:51Z</time></trkpt><trkpt lat="40.6174353" lon="14.4275919"><ele>312.0</ele><time>2026-04-06T07:18:52Z</time></trkpt><trkpt lat="40.6174557" lon="14.4277075"><ele>312.0</ele><time>2026-04-06T07:18:53Z</time></trkpt><trkpt lat="40.6174749" lon="14.4278122"><ele>312.0</ele><time>2026-04-06T07:18:54Z</time></trkpt><trkpt lat="40.6174725" lon="14.4279266"><ele>312.0</ele><time>2026-04-06T07:18:55Z</time></trkpt><trkpt lat="40.6174463" lon="14.4280686"><ele>312.0</ele><time>2026-04-06T07:18:56Z</time></trkpt><trkpt lat="40.6173813" lon="14.4282379"><ele>312.0</ele><time>2026-04-06T07:18:57Z</time></trkpt><trkpt lat="40.6173236" lon="14.4284245"><ele>312.3333333333333</ele><time>2026-04-06T07:18:58Z</time></trkpt><trkpt lat="40.6172597" lon="14.4286449"><ele>312.66666666666663</ele><time>2026-04-06T07:18:59Z</time></trkpt><trkpt lat="40.6171877" lon="14.428832"><ele>313.0</ele><time>2026-04-06T07:19:00Z</time></trkpt><trkpt lat="40.6170953" lon="14.4289933"><ele>308.0</ele><time>2026-04-06T07:19:01Z</time></trkpt><trkpt lat="40.6169835" lon="14.4291282"><ele>303.0</ele><time>2026-04-06T07:19:02Z</time></trkpt><trkpt lat="40.6168625" lon="14.4292512"><ele>298.0</ele><time>2026-04-06T07:19:03Z</time></trkpt><trkpt lat="40.6167445" lon="14.429364"><ele>298.0</ele><time>2026-04-06T07:19:03.999Z</time></trkpt><trkpt lat="40.6166273" lon="14.4294709"><ele>298.0</ele><time>2026-04-06T07:19:05Z</time></trkpt><trkpt lat="40.6165101" lon="14.4295743"><ele>298.0</ele><time>2026-04-06T07:19:06Z</time></trkpt><trkpt lat="40.616394" lon="14.4296758"><ele>298.0</ele><time>2026-04-06T07:19:07Z</time></trkpt><trkpt lat="40.6162845" lon="14.429778"><ele>296.25</ele><time>2026-04-06T07:19:08Z</time></trkpt><trkpt lat="40.6161829" lon="14.429877"><ele>294.5</ele><time>2026-04-06T07:19:09Z</time></trkpt><trkpt lat="40.6161009" lon="14.4299887"><ele>292.75</ele><time>2026-04-06T07:19:10Z</time></trkpt><trkpt lat="40.6160388" lon="14.4301113"><ele>291.0</ele><time>2026-04-06T07:19:11Z</time></trkpt><trkpt lat="40.6159824" lon="14.430272"><ele>291.0</ele><time>2026-04-06T07:19:12Z</time></trkpt><trkpt lat="40.6159408" lon="14.4304605"><ele>291.0</ele><time>2026-04-06T07:19:13Z</time></trkpt><trkpt lat="40.6159324" lon="14.4306608"><ele>291.0</ele><time>2026-04-06T07:19:14Z</time></trkpt><trkpt lat="40.6159586" lon="14.4308695"><ele>291.0</ele><time>2026-04-06T07:19:15Z</time></trkpt><trkpt lat="40.6160174" lon="14.4310573"><ele>291.0</ele><time>2026-04-06T07:19:16Z</time></trkpt><trkpt lat="40.616097" lon="14.4312238"><ele>291.0</ele><time>2026-04-06T07:19:17Z</time></trkpt><trkpt lat="40.616186" lon="14.431375"><ele>291.0</ele><time>2026-04-06T07:19:18Z</time></trkpt><trkpt lat="40.6162667" lon="14.4315232"><ele>293.0</ele><time>2026-04-06T07:19:19Z</time></trkpt><trkpt lat="40.6163039" lon="14.4316656"><ele>295.0</ele><time>2026-04-06T07:19:20Z</time></trkpt><trkpt lat="40.6162999" lon="14.431809"><ele>297.0</ele><time>2026-04-06T07:19:21Z</time></trkpt><trkpt lat="40.6162464" lon="14.4319474"><ele>299.0</ele><time>2026-04-06T07:19:22Z</time></trkpt><trkpt lat="40.6161591" lon="14.4320778"><ele>294.5</ele><time>2026-04-06T07:19:23Z</time></trkpt><trkpt lat="40.6160924" lon="14.432207"><ele>290.0</ele><time>2026-04-06T07:19:24Z</time></trkpt><trkpt lat="40.6160622" lon="14.4323538"><ele>285.5</ele><time>2026-04-06T07:19:25Z</time></trkpt><trkpt lat="40.6160714" lon="14.4325062"><ele>281.0</ele><time>2026-04-06T07:19:26Z</time></trkpt><trkpt lat="40.6161277" lon="14.4326622"><ele>282.0</ele><time>2026-04-06T07:19:27Z</time></trkpt><trkpt lat="40.6162274" lon="14.4328242"><ele>283.0</ele><time>2026-04-06T07:19:28Z</time></trkpt><trkpt lat="40.6163626" lon="14.4329927"><ele>284.0</ele><time>2026-04-06T07:19:29Z</time></trkpt><trkpt lat="40.6165013" lon="14.4331498"><ele>284.0</ele><time>2026-04-06T07:19:30Z</time></trkpt><trkpt lat="40.6166341" lon="14.4333019"><ele>284.0</ele><time>2026-04-06T07:19:31Z</time></trkpt><trkpt lat="40.6167501" lon="14.4334673"><ele>284.0</ele><time>2026-04-06T07:19:32Z</time></trkpt><trkpt lat="40.6168289" lon="14.4336446"><ele>280.6666666666667</ele><time>2026-04-06T07:19:33Z</time></trkpt><trkpt lat="40.6168741" lon="14.4338458"><ele>277.3333333333333</ele><time>2026-04-06T07:19:34Z</time></trkpt><trkpt lat="40.6168875" lon="14.4340711"><ele>274.0</ele><time>2026-04-06T07:19:35Z</time></trkpt><trkpt lat="40.6168858" lon="14.4343034"><ele>274.0</ele><time>2026-04-06T07:19:36Z</time></trkpt><trkpt lat="40.6168825" lon="14.4345233"><ele>274.0</ele><time>2026-04-06T07:19:37Z</time></trkpt><trkpt lat="40.6168841" lon="14.4347269"><ele>274.0</ele><time>2026-04-06T07:19:38Z</time></trkpt><trkpt lat="40.6168924" lon="14.4348984"><ele>274.8333333333333</ele><time>2026-04-06T07:19:39Z</time></trkpt><trkpt lat="40.6168981" lon="14.4350373"><ele>275.66666666666663</ele><time>2026-04-06T07:19:40Z</time></trkpt><trkpt lat="40.6169005" lon="14.4351653"><ele>276.5</ele><time>2026-04-06T07:19:40.999Z</time></trkpt><trkpt lat="40.6168201" lon="14.435221"><ele>277.3333333333333</ele><time>2026-04-06T07:19:42Z</time></trkpt><trkpt lat="40.6167514" lon="14.4352358"><ele>278.1666666666667</ele><time>2026-04-06T07:19:42.999Z</time></trkpt><trkpt lat="40.616693" lon="14.4351817"><ele>279.0</ele><time>2026-04-06T07:19:44.181Z</time></trkpt><trkpt lat="40.616666" lon="14.4349406"><ele>279.0</ele><time>2026-04-06T07:19:46Z</time></trkpt><trkpt lat="40.6166693" lon="14.4347585"><ele>279.0</ele><time>2026-04-06T07:19:47Z</time></trkpt><trkpt lat="40.616677" lon="14.4345531"><ele>279.0</ele><time>2026-04-06T07:19:48Z</time></trkpt><trkpt lat="40.6166863" lon="14.4343676"><ele>279.0</ele><time>2026-04-06T07:19:49Z</time></trkpt><trkpt lat="40.6166846" lon="14.4341935"><ele>277.75</ele><time>2026-04-06T07:19:50Z</time></trkpt><trkpt lat="40.6166294" lon="14.4340667"><ele>276.5</ele><time>2026-04-06T07:19:51Z</time></trkpt><trkpt lat="40.6165577" lon="14.4339596"><ele>275.25</ele><time>2026-04-06T07:19:52Z</time></trkpt><trkpt lat="40.6164443" lon="14.4338888"><ele>274.0</ele><time>2026-04-06T07:19:53Z</time></trkpt><trkpt lat="40.6163166" lon="14.4338406"><ele>273.4</ele><time>2026-04-06T07:19:54Z</time></trkpt><trkpt lat="40.616196" lon="14.4338018"><ele>272.79999999999995</ele><time>2026-04-06T07:19:55Z</time></trkpt><trkpt lat="40.6160833" lon="14.4337809"><ele>272.20000000000005</ele><time>2026-04-06T07:19:55.999Z</time></trkpt><trkpt lat="40.615985" lon="14.4337543"><ele>271.6</ele><time>2026-04-06T07:19:56.999Z</time></trkpt><trkpt lat="40.6159032" lon="14.4337153"><ele>271.0</ele><time>2026-04-06T07:19:58Z</time></trkpt><trkpt lat="40.6158266" lon="14.4336539"><ele>271.0</ele><time>2026-04-06T07:19:59Z</time></trkpt><trkpt lat="40.6157186" lon="14.4335396"><ele>271.0</ele><time>2026-04-06T07:20:00Z</time></trkpt><trkpt lat="40.6156001" lon="14.4333956"><ele>271.0</ele><time>2026-04-06T07:20:01Z</time></trkpt><trkpt lat="40.6154664" lon="14.4332277"><ele>271.0</ele><time>2026-04-06T07:20:02Z</time></trkpt><trkpt lat="40.6153403" lon="14.4330875"><ele>271.0</ele><time>2026-04-06T07:20:03Z</time></trkpt><trkpt lat="40.6152148" lon="14.4329544"><ele>271.0</ele><time>2026-04-06T07:20:04Z</time></trkpt><trkpt lat="40.6151261" lon="14.4328869"><ele>271.0</ele><time>2026-04-06T07:20:05Z</time></trkpt><trkpt lat="40.6150362" lon="14.4328459"><ele>268.66666666666663</ele><time>2026-04-06T07:20:06Z</time></trkpt><trkpt lat="40.6149608" lon="14.4328594"><ele>266.3333333333333</ele><time>2026-04-06T07:20:07Z</time></trkpt><trkpt lat="40.6149008" lon="14.4329307"><ele>264.0</ele><time>2026-04-06T07:20:07.999Z</time></trkpt><trkpt lat="40.6148816" lon="14.4330405"><ele>261.6666666666667</ele><time>2026-04-06T07:20:09Z</time></trkpt><trkpt lat="40.614918" lon="14.4331392"><ele>259.33333333333337</ele><time>2026-04-06T07:20:10Z</time></trkpt><trkpt lat="40.6149866" lon="14.4332128"><ele>257.0</ele><time>2026-04-06T07:20:11Z</time></trkpt><trkpt lat="40.6150725" lon="14.4332639"><ele>256.6</ele><time>2026-04-06T07:20:12Z</time></trkpt><trkpt lat="40.6151581" lon="14.4333152"><ele>256.2</ele><time>2026-04-06T07:20:13Z</time></trkpt><trkpt lat="40.6152423" lon="14.4333692"><ele>255.8</ele><time>2026-04-06T07:20:14Z</time></trkpt><trkpt lat="40.6153293" lon="14.433428"><ele>255.4</ele><time>2026-04-06T07:20:15Z</time></trkpt><trkpt lat="40.6154149" lon="14.4334986"><ele>255.0</ele><time>2026-04-06T07:20:16Z</time></trkpt><trkpt lat="40.6154896" lon="14.4335872"><ele>255.4</ele><time>2026-04-06T07:20:17Z</time></trkpt><trkpt lat="40.6155513" lon="14.4336936"><ele>255.8</ele><time>2026-04-06T07:20:18Z</time></trkpt><trkpt lat="40.6156135" lon="14.4338013"><ele>256.2</ele><time>2026-04-06T07:20:19Z</time></trkpt><trkpt lat="40.6156788" lon="14.4338975"><ele>256.6</ele><time>2026-04-06T07:20:20Z</time></trkpt><trkpt lat="40.6157437" lon="14.4339768"><ele>257.0</ele><time>2026-04-06T07:20:21Z</time></trkpt><trkpt lat="40.6158107" lon="14.4340377"><ele>257.0</ele><time>2026-04-06T07:20:22Z</time></trkpt><trkpt lat="40.6158842" lon="14.4340796"><ele>257.0</ele><time>2026-04-06T07:20:23Z</time></trkpt><trkpt lat="40.6159568" lon="14.434127"><ele>257.0</ele><time>2026-04-06T07:20:24Z</time></trkpt><trkpt lat="40.6160245" lon="14.4341827"><ele>257.0</ele><time>2026-04-06T07:20:25Z</time></trkpt><trkpt lat="40.6160838" lon="14.434251"><ele>257.0</ele><time>2026-04-06T07:20:26Z</time></trkpt><trkpt lat="40.6161295" lon="14.4343294"><ele>257.0</ele><time>2026-04-06T07:20:27Z</time></trkpt><trkpt lat="40.6161598" lon="14.4344147"><ele>255.0</ele><time>2026-04-06T07:20:28Z</time></trkpt><trkpt lat="40.6161757" lon="14.4345009"><ele>253.0</ele><time>2026-04-06T07:20:29Z</time></trkpt><trkpt lat="40.6161833" lon="14.4345993"><ele>251.0</ele><time>2026-04-06T07:20:30Z</time></trkpt><trkpt lat="40.6161583" lon="14.4347763"><ele>249.0</ele><time>2026-04-06T07:20:31Z</time></trkpt><trkpt lat="40.6161233" lon="14.4349378"><ele>247.0</ele><time>2026-04-06T07:20:32Z</time></trkpt><trkpt lat="40.6160915" lon="14.4351192"><ele>247.0</ele><time>2026-04-06T07:20:33Z</time></trkpt><trkpt lat="40.6160581" lon="14.4353064"><ele>247.0</ele><time>2026-04-06T07:20:34Z</time></trkpt><trkpt lat="40.6160146" lon="14.435474"><ele>247.0</ele><time>2026-04-06T07:20:35Z</time></trkpt><trkpt lat="40.6159583" lon="14.4356245"><ele>247.0</ele><time>2026-04-06T07:20:36Z</time></trkpt><trkpt lat="40.615881" lon="14.435746"><ele>247.39999999999998</ele><time>2026-04-06T07:20:37Z</time></trkpt><trkpt lat="40.6157975" lon="14.4358432"><ele>247.79999999999998</ele><time>2026-04-06T07:20:38Z</time></trkpt><trkpt lat="40.6157077" lon="14.4359184"><ele>248.2</ele><time>2026-04-06T07:20:39Z</time></trkpt><trkpt lat="40.6156231" lon="14.4359815"><ele>248.6</ele><time>2026-04-06T07:20:40Z</time></trkpt><trkpt lat="40.6155457" lon="14.4360444"><ele>249.0</ele><time>2026-04-06T07:20:41Z</time></trkpt><trkpt lat="40.6154793" lon="14.4361036"><ele>249.0</ele><time>2026-04-06T07:20:42Z</time></trkpt><trkpt lat="40.6154226" lon="14.436151"><ele>249.0</ele><time>2026-04-06T07:20:43Z</time></trkpt><trkpt lat="40.6153699" lon="14.4362023"><ele>249.0</ele><time>2026-04-06T07:20:44Z</time></trkpt><trkpt lat="40.6153129" lon="14.4363415"><ele>249.0</ele><time>2026-04-06T07:20:45.999Z</time></trkpt><trkpt lat="40.6153611" lon="14.4364859"><ele>249.0</ele><time>2026-04-06T07:20:48Z</time></trkpt><trkpt lat="40.6154226" lon="14.4365255"><ele>249.0</ele><time>2026-04-06T07:20:49Z</time></trkpt><trkpt lat="40.6155097" lon="14.4365156"><ele>246.25</ele><time>2026-04-06T07:20:50Z</time></trkpt><trkpt lat="40.6156284" lon="14.4364643"><ele>243.5</ele><time>2026-04-06T07:20:51Z</time></trkpt><trkpt lat="40.6157945" lon="14.4364155"><ele>240.75</ele><time>2026-04-06T07:20:52Z</time></trkpt><trkpt lat="40.615937" lon="14.4364089"><ele>238.0</ele><time>2026-04-06T07:20:53Z</time></trkpt><trkpt lat="40.6160855" lon="14.4363973"><ele>246.25</ele><time>2026-04-06T07:20:54Z</time></trkpt><trkpt lat="40.6162124" lon="14.4364125"><ele>254.5</ele><time>2026-04-06T07:20:55Z</time></trkpt><trkpt lat="40.6163301" lon="14.4364477"><ele>262.75</ele><time>2026-04-06T07:20:55.999Z</time></trkpt><trkpt lat="40.6164413" lon="14.4364989"><ele>271.0</ele><time>2026-04-06T07:20:57Z</time></trkpt><trkpt lat="40.6165355" lon="14.4365733"><ele>271.0</ele><time>2026-04-06T07:20:58Z</time></trkpt><trkpt lat="40.6166156" lon="14.4366604"><ele>271.0</ele><time>2026-04-06T07:20:59Z</time></trkpt><trkpt lat="40.6166798" lon="14.4367667"><ele>271.0</ele><time>2026-04-06T07:21:00Z</time></trkpt><trkpt lat="40.6167121" lon="14.4368804"><ele>271.0</ele><time>2026-04-06T07:21:01Z</time></trkpt><trkpt lat="40.6167147" lon="14.4370026"><ele>271.0</ele><time>2026-04-06T07:21:02Z</time></trkpt><trkpt lat="40.6167022" lon="14.4371259"><ele>266.0</ele><time>2026-04-06T07:21:03Z</time></trkpt><trkpt lat="40.6166868" lon="14.4372533"><ele>261.0</ele><time>2026-04-06T07:21:04Z</time></trkpt><trkpt lat="40.6166843" lon="14.4373808"><ele>256.0</ele><time>2026-04-06T07:21:05Z</time></trkpt><trkpt lat="40.6166909" lon="14.4375001"><ele>251.0</ele><time>2026-04-06T07:21:06Z</time></trkpt><trkpt lat="40.6166957" lon="14.4376086"><ele>245.99999999999997</ele><time>2026-04-06T07:21:07Z</time></trkpt><trkpt lat="40.6166918" lon="14.4377105"><ele>241.0</ele><time>2026-04-06T07:21:08Z</time></trkpt><trkpt lat="40.6166762" lon="14.4378036"><ele>241.0</ele><time>2026-04-06T07:21:09Z</time></trkpt><trkpt lat="40.6166497" lon="14.4378973"><ele>241.00000000000003</ele><time>2026-04-06T07:21:10Z</time></trkpt><trkpt lat="40.6166247" lon="14.4379857"><ele>241.0</ele><time>2026-04-06T07:21:11Z</time></trkpt><trkpt lat="40.6166018" lon="14.4380759"><ele>241.0</ele><time>2026-04-06T07:21:12Z</time></trkpt><trkpt lat="40.6165855" lon="14.4381653"><ele>241.00000000000003</ele><time>2026-04-06T07:21:13Z</time></trkpt><trkpt lat="40.6165994" lon="14.4382619"><ele>241.0</ele><time>2026-04-06T07:21:14Z</time></trkpt><trkpt lat="40.6166296" lon="14.4383538"><ele>241.0</ele><time>2026-04-06T07:21:15Z</time></trkpt><trkpt lat="40.6166651" lon="14.4384412"><ele>245.60000000000002</ele><time>2026-04-06T07:21:16Z</time></trkpt><trkpt lat="40.6167004" lon="14.4385303"><ele>250.20000000000002</ele><time>2026-04-06T07:21:17Z</time></trkpt><trkpt lat="40.6167385" lon="14.4386166"><ele>254.79999999999998</ele><time>2026-04-06T07:21:18Z</time></trkpt><trkpt lat="40.6167981" lon="14.4386937"><ele>259.4</ele><time>2026-04-06T07:21:19Z</time></trkpt><trkpt lat="40.6169097" lon="14.4387823"><ele>264.0</ele><time>2026-04-06T07:21:20Z</time></trkpt><trkpt lat="40.6170261" lon="14.4388638"><ele>264.0</ele><time>2026-04-06T07:21:21Z</time></trkpt><trkpt lat="40.6171171" lon="14.438936"><ele>264.0</ele><time>2026-04-06T07:21:22Z</time></trkpt><trkpt lat="40.6171934" lon="14.4390184"><ele>264.0</ele><time>2026-04-06T07:21:23Z</time></trkpt><trkpt lat="40.6172393" lon="14.4391074"><ele>264.0</ele><time>2026-04-06T07:21:24Z</time></trkpt><trkpt lat="40.6172656" lon="14.4392085"><ele>264.0</ele><time>2026-04-06T07:21:25Z</time></trkpt><trkpt lat="40.617289" lon="14.4393146"><ele>264.0</ele><time>2026-04-06T07:21:26Z</time></trkpt><trkpt lat="40.6173162" lon="14.439447"><ele>264.0</ele><time>2026-04-06T07:21:27Z</time></trkpt><trkpt lat="40.6173289" lon="14.4396328"><ele>264.0</ele><time>2026-04-06T07:21:28Z</time></trkpt><trkpt lat="40.6173019" lon="14.439815"><ele>264.0</ele><time>2026-04-06T07:21:29Z</time></trkpt><trkpt lat="40.6172747" lon="14.4399887"><ele>256.8</ele><time>2026-04-06T07:21:30Z</time></trkpt><trkpt lat="40.617266" lon="14.4401204"><ele>249.59999999999997</ele><time>2026-04-06T07:21:31Z</time></trkpt><trkpt lat="40.6172845" lon="14.4402426"><ele>242.4</ele><time>2026-04-06T07:21:32Z</time></trkpt><trkpt lat="40.6173425" lon="14.4403283"><ele>235.2</ele><time>2026-04-06T07:21:33Z</time></trkpt><trkpt lat="40.6174511" lon="14.4403903"><ele>228.0</ele><time>2026-04-06T07:21:34Z</time></trkpt><trkpt lat="40.6175882" lon="14.4404632"><ele>225.60000000000002</ele><time>2026-04-06T07:21:35Z</time></trkpt><trkpt lat="40.6177157" lon="14.4405406"><ele>223.20000000000002</ele><time>2026-04-06T07:21:36Z</time></trkpt><trkpt lat="40.6178119" lon="14.4405937"><ele>220.8</ele><time>2026-04-06T07:21:37Z</time></trkpt><trkpt lat="40.6178796" lon="14.4406734"><ele>218.4</ele><time>2026-04-06T07:21:38Z</time></trkpt><trkpt lat="40.6178994" lon="14.4407734"><ele>216.0</ele><time>2026-04-06T07:21:39Z</time></trkpt><trkpt lat="40.6178755" lon="14.4408749"><ele>216.0</ele><time>2026-04-06T07:21:40Z</time></trkpt><trkpt lat="40.6178291" lon="14.4409962"><ele>216.0</ele><time>2026-04-06T07:21:41Z</time></trkpt><trkpt lat="40.6177952" lon="14.4411259"><ele>216.0</ele><time>2026-04-06T07:21:42Z</time></trkpt><trkpt lat="40.617814" lon="14.4412615"><ele>216.0</ele><time>2026-04-06T07:21:43Z</time></trkpt><trkpt lat="40.6179271" lon="14.4413693"><ele>219.8</ele><time>2026-04-06T07:21:44Z</time></trkpt><trkpt lat="40.6179872" lon="14.4414882"><ele>223.60000000000002</ele><time>2026-04-06T07:21:45Z</time></trkpt><trkpt lat="40.618004" lon="14.4416141"><ele>227.4</ele><time>2026-04-06T07:21:46Z</time></trkpt><trkpt lat="40.6179754" lon="14.4417529"><ele>231.2</ele><time>2026-04-06T07:21:47Z</time></trkpt><trkpt lat="40.6178935" lon="14.4418917"><ele>235.0</ele><time>2026-04-06T07:21:48Z</time></trkpt><trkpt lat="40.6178177" lon="14.4420189"><ele>220.4</ele><time>2026-04-06T07:21:49Z</time></trkpt><trkpt lat="40.617767" lon="14.4421465"><ele>205.8</ele><time>2026-04-06T07:21:50Z</time></trkpt><trkpt lat="40.6177565" lon="14.4422718"><ele>191.2</ele><time>2026-04-06T07:21:51Z</time></trkpt><trkpt lat="40.61778" lon="14.4424025"><ele>176.6</ele><time>2026-04-06T07:21:52Z</time></trkpt><trkpt lat="40.6177968" lon="14.4425607"><ele>162.0</ele><time>2026-04-06T07:21:53Z</time></trkpt><trkpt lat="40.6177811" lon="14.442725"><ele>162.0</ele><time>2026-04-06T07:21:54Z</time></trkpt><trkpt lat="40.6177605" lon="14.4428703"><ele>162.0</ele><time>2026-04-06T07:21:55Z</time></trkpt><trkpt lat="40.6177627" lon="14.4430052"><ele>162.0</ele><time>2026-04-06T07:21:56Z</time></trkpt><trkpt lat="40.6177655" lon="14.4431367"><ele>162.0</ele><time>2026-04-06T07:21:57Z</time></trkpt><trkpt lat="40.6178905" lon="14.4432345"><ele>175.75</ele><time>2026-04-06T07:21:58Z</time></trkpt><trkpt lat="40.6180062" lon="14.4433533"><ele>189.5</ele><time>2026-04-06T07:21:59Z</time></trkpt><trkpt lat="40.6181191" lon="14.4434672"><ele>203.25</ele><time>2026-04-06T07:22:00Z</time></trkpt><trkpt lat="40.6182191" lon="14.4435954"><ele>217.0</ele><time>2026-04-06T07:22:01Z</time></trkpt><trkpt lat="40.618283" lon="14.443746"><ele>208.75</ele><time>2026-04-06T07:22:02Z</time></trkpt><trkpt lat="40.618299" lon="14.4439051"><ele>200.5</ele><time>2026-04-06T07:22:02.999Z</time></trkpt><trkpt lat="40.6182793" lon="14.4440724"><ele>192.25</ele><time>2026-04-06T07:22:04Z</time></trkpt><trkpt lat="40.6182702" lon="14.4442587"><ele>184.0</ele><time>2026-04-06T07:22:04.999Z</time></trkpt><trkpt lat="40.6182842" lon="14.4444552"><ele>174.33333333333334</ele><time>2026-04-06T07:22:06Z</time></trkpt><trkpt lat="40.6183191" lon="14.4446559"><ele>164.66666666666666</ele><time>2026-04-06T07:22:07Z</time></trkpt><trkpt lat="40.61838" lon="14.444844"><ele>155.0</ele><time>2026-04-06T07:22:08Z</time></trkpt><trkpt lat="40.6184704" lon="14.4450221"><ele>155.0</ele><time>2026-04-06T07:22:09Z</time></trkpt><trkpt lat="40.6185797" lon="14.4451905"><ele>155.0</ele><time>2026-04-06T07:22:10Z</time></trkpt><trkpt lat="40.6186889" lon="14.4453531"><ele>155.0</ele><time>2026-04-06T07:22:11Z</time></trkpt><trkpt lat="40.6187916" lon="14.445515"><ele>155.0</ele><time>2026-04-06T07:22:12Z</time></trkpt><trkpt lat="40.6188577" lon="14.4456925"><ele>155.0</ele><time>2026-04-06T07:22:13Z</time></trkpt><trkpt lat="40.6188854" lon="14.4458794"><ele>155.0</ele><time>2026-04-06T07:22:14Z</time></trkpt><trkpt lat="40.6188903" lon="14.4460666"><ele>155.0</ele><time>2026-04-06T07:22:15Z</time></trkpt><trkpt lat="40.6188998" lon="14.4462576"><ele>155.0</ele><time>2026-04-06T07:22:16Z</time></trkpt><trkpt lat="40.6189018" lon="14.4464576"><ele>155.0</ele><time>2026-04-06T07:22:17Z</time></trkpt><trkpt lat="40.618893" lon="14.4466574"><ele>155.0</ele><time>2026-04-06T07:22:18Z</time></trkpt><trkpt lat="40.6188745" lon="14.4468506"><ele>173.75</ele><time>2026-04-06T07:22:19Z</time></trkpt><trkpt lat="40.6188525" lon="14.4470353"><ele>192.5</ele><time>2026-04-06T07:22:20Z</time></trkpt><trkpt lat="40.6188428" lon="14.4471942"><ele>211.25</ele><time>2026-04-06T07:22:21Z</time></trkpt><trkpt lat="40.6188651" lon="14.447333"><ele>230.0</ele><time>2026-04-06T07:22:22Z</time></trkpt><trkpt lat="40.6189312" lon="14.4474383"><ele>230.0</ele><time>2026-04-06T07:22:23Z</time></trkpt><trkpt lat="40.6190396" lon="14.4475335"><ele>230.0</ele><time>2026-04-06T07:22:24Z</time></trkpt><trkpt lat="40.6191246" lon="14.4476188"><ele>230.0</ele><time>2026-04-06T07:22:25Z</time></trkpt><trkpt lat="40.6191764" lon="14.4477381"><ele>230.0</ele><time>2026-04-06T07:22:26Z</time></trkpt><trkpt lat="40.6191927" lon="14.4478829"><ele>214.5</ele><time>2026-04-06T07:22:27Z</time></trkpt><trkpt lat="40.619192" lon="14.4480541"><ele>199.0</ele><time>2026-04-06T07:22:28Z</time></trkpt><trkpt lat="40.6192181" lon="14.4482206"><ele>183.5</ele><time>2026-04-06T07:22:29Z</time></trkpt><trkpt lat="40.6192759" lon="14.4483474"><ele>168.0</ele><time>2026-04-06T07:22:30Z</time></trkpt><trkpt lat="40.6193628" lon="14.4484581"><ele>168.0</ele><time>2026-04-06T07:22:31Z</time></trkpt><trkpt lat="40.6194619" lon="14.4485704"><ele>168.0</ele><time>2026-04-06T07:22:32Z</time></trkpt><trkpt lat="40.6195645" lon="14.4486838"><ele>168.0</ele><time>2026-04-06T07:22:33Z</time></trkpt><trkpt lat="40.6196263" lon="14.4488262"><ele>168.0</ele><time>2026-04-06T07:22:34Z</time></trkpt><trkpt lat="40.6196509" lon="14.4489936"><ele>169.5</ele><time>2026-04-06T07:22:35Z</time></trkpt><trkpt lat="40.6196375" lon="14.4491756"><ele>171.0</ele><time>2026-04-06T07:22:36Z</time></trkpt><trkpt lat="40.6196105" lon="14.4493536"><ele>172.5</ele><time>2026-04-06T07:22:37Z</time></trkpt><trkpt lat="40.6196028" lon="14.4495142"><ele>174.0</ele><time>2026-04-06T07:22:38Z</time></trkpt><trkpt lat="40.6196322" lon="14.449661"><ele>174.0</ele><time>2026-04-06T07:22:39Z</time></trkpt><trkpt lat="40.6196964" lon="14.4498022"><ele>174.0</ele><time>2026-04-06T07:22:40Z</time></trkpt><trkpt lat="40.6198033" lon="14.4499082"><ele>174.0</ele><time>2026-04-06T07:22:41Z</time></trkpt><trkpt lat="40.6199321" lon="14.4499907"><ele>174.0</ele><time>2026-04-06T07:22:41.999Z</time></trkpt><trkpt lat="40.6200568" lon="14.4500667"><ele>174.0</ele><time>2026-04-06T07:22:43Z</time></trkpt><trkpt lat="40.6201587" lon="14.4501594"><ele>174.0</ele><time>2026-04-06T07:22:44Z</time></trkpt><trkpt lat="40.620233" lon="14.450282"><ele>174.0</ele><time>2026-04-06T07:22:45Z</time></trkpt><trkpt lat="40.6202565" lon="14.45044"><ele>174.0</ele><time>2026-04-06T07:22:46Z</time></trkpt><trkpt lat="40.6202578" lon="14.4506111"><ele>180.75</ele><time>2026-04-06T07:22:47Z</time></trkpt><trkpt lat="40.6202654" lon="14.4507771"><ele>187.5</ele><time>2026-04-06T07:22:48Z</time></trkpt><trkpt lat="40.6202858" lon="14.4509382"><ele>194.25</ele><time>2026-04-06T07:22:49Z</time></trkpt><trkpt lat="40.6203459" lon="14.4510727"><ele>201.0</ele><time>2026-04-06T07:22:50Z</time></trkpt><trkpt lat="40.6204542" lon="14.4511707"><ele>193.33333333333334</ele><time>2026-04-06T07:22:51.148Z</time></trkpt><trkpt lat="40.6207146" lon="14.4513289"><ele>185.66666666666669</ele><time>2026-04-06T07:22:53Z</time></trkpt><trkpt lat="40.6208199" lon="14.4514205"><ele>178.0</ele><time>2026-04-06T07:22:54Z</time></trkpt><trkpt lat="40.6208798" lon="14.4515495"><ele>178.0</ele><time>2026-04-06T07:22:55Z</time></trkpt><trkpt lat="40.6209148" lon="14.4517135"><ele>178.0</ele><time>2026-04-06T07:22:56Z</time></trkpt><trkpt lat="40.6209725" lon="14.451891"><ele>178.0</ele><time>2026-04-06T07:22:57Z</time></trkpt><trkpt lat="40.6210549" lon="14.4520555"><ele>178.0</ele><time>2026-04-06T07:22:58Z</time></trkpt><trkpt lat="40.6211239" lon="14.4522133"><ele>180.5</ele><time>2026-04-06T07:22:59Z</time></trkpt><trkpt lat="40.621161" lon="14.4524031"><ele>183.0</ele><time>2026-04-06T07:23:00Z</time></trkpt><trkpt lat="40.6211686" lon="14.4525806"><ele>185.5</ele><time>2026-04-06T07:23:01Z</time></trkpt><trkpt lat="40.6211935" lon="14.4527472"><ele>188.0</ele><time>2026-04-06T07:23:02Z</time></trkpt><trkpt lat="40.6212375" lon="14.4528561"><ele>188.0</ele><time>2026-04-06T07:23:03Z</time></trkpt><trkpt lat="40.621319" lon="14.4529204"><ele>188.0</ele><time>2026-04-06T07:23:03.999Z</time></trkpt><trkpt lat="40.6214234" lon="14.4529381"><ele>188.0</ele><time>2026-04-06T07:23:05Z</time></trkpt><trkpt lat="40.621548" lon="14.4529057"><ele>188.0</ele><time>2026-04-06T07:23:06Z</time></trkpt><trkpt lat="40.6216681" lon="14.4528585"><ele>188.0</ele><time>2026-04-06T07:23:07Z</time></trkpt><trkpt lat="40.6217721" lon="14.452811"><ele>188.0</ele><time>2026-04-06T07:23:08Z</time></trkpt><trkpt lat="40.6218619" lon="14.4527605"><ele>188.0</ele><time>2026-04-06T07:23:09Z</time></trkpt><trkpt lat="40.621939" lon="14.452721"><ele>188.0</ele><time>2026-04-06T07:23:10Z</time></trkpt><trkpt lat="40.6220033" lon="14.4528098"><ele>188.0</ele><time>2026-04-06T07:23:11Z</time></trkpt><trkpt lat="40.6219711" lon="14.4529445"><ele>182.8</ele><time>2026-04-06T07:23:13Z</time></trkpt><trkpt lat="40.621924" lon="14.4530334"><ele>177.60000000000002</ele><time>2026-04-06T07:23:14Z</time></trkpt><trkpt lat="40.621846" lon="14.4531257"><ele>172.39999999999998</ele><time>2026-04-06T07:23:15Z</time></trkpt><trkpt lat="40.6217797" lon="14.4532292"><ele>167.2</ele><time>2026-04-06T07:23:15.999Z</time></trkpt><trkpt lat="40.621724" lon="14.4533647"><ele>162.0</ele><time>2026-04-06T07:23:17Z</time></trkpt><trkpt lat="40.621681" lon="14.4535391"><ele>162.0</ele><time>2026-04-06T07:23:18Z</time></trkpt><trkpt lat="40.6216566" lon="14.4537572"><ele>162.0</ele><time>2026-04-06T07:23:19Z</time></trkpt><trkpt lat="40.6216235" lon="14.4540105"><ele>162.0</ele><time>2026-04-06T07:23:20Z</time></trkpt><trkpt lat="40.6215796" lon="14.454243"><ele>160.33333333333334</ele><time>2026-04-06T07:23:21Z</time></trkpt><trkpt lat="40.6215199" lon="14.454452"><ele>158.66666666666669</ele><time>2026-04-06T07:23:22Z</time></trkpt><trkpt lat="40.6214416" lon="14.4546483"><ele>157.0</ele><time>2026-04-06T07:23:23Z</time></trkpt><trkpt lat="40.6213606" lon="14.4548218"><ele>163.0</ele><time>2026-04-06T07:23:24Z</time></trkpt><trkpt lat="40.6212816" lon="14.4549677"><ele>169.0</ele><time>2026-04-06T07:23:25Z</time></trkpt><trkpt lat="40.6211944" lon="14.4550961"><ele>175.0</ele><time>2026-04-06T07:23:26Z</time></trkpt><trkpt lat="40.6211109" lon="14.45522"><ele>181.0</ele><time>2026-04-06T07:23:27Z</time></trkpt><trkpt lat="40.621042" lon="14.4553758"><ele>181.0</ele><time>2026-04-06T07:23:28Z</time></trkpt><trkpt lat="40.6209904" lon="14.4555441"><ele>181.0</ele><time>2026-04-06T07:23:28.999Z</time></trkpt><trkpt lat="40.6209482" lon="14.4557094"><ele>181.0</ele><time>2026-04-06T07:23:30Z</time></trkpt><trkpt lat="40.6209208" lon="14.4558624"><ele>181.0</ele><time>2026-04-06T07:23:31Z</time></trkpt><trkpt lat="40.6208864" lon="14.4560122"><ele>176.0</ele><time>2026-04-06T07:23:32Z</time></trkpt><trkpt lat="40.6208543" lon="14.456153"><ele>171.0</ele><time>2026-04-06T07:23:33Z</time></trkpt><trkpt lat="40.6208229" lon="14.456283"><ele>166.0</ele><time>2026-04-06T07:23:34Z</time></trkpt><trkpt lat="40.6208032" lon="14.4564133"><ele>161.0</ele><time>2026-04-06T07:23:35Z</time></trkpt><trkpt lat="40.6207944" lon="14.4565604"><ele>156.0</ele><time>2026-04-06T07:23:36Z</time></trkpt><trkpt lat="40.6207971" lon="14.4567013"><ele>156.0</ele><time>2026-04-06T07:23:37Z</time></trkpt><trkpt lat="40.6208079" lon="14.4568493"><ele>156.0</ele><time>2026-04-06T07:23:38Z</time></trkpt><trkpt lat="40.6208171" lon="14.4569956"><ele>156.0</ele><time>2026-04-06T07:23:38.999Z</time></trkpt><trkpt lat="40.6208394" lon="14.4571315"><ele>156.0</ele><time>2026-04-06T07:23:40Z</time></trkpt><trkpt lat="40.6208821" lon="14.4572479"><ele>156.0</ele><time>2026-04-06T07:23:41Z</time></trkpt><trkpt lat="40.6209433" lon="14.4573461"><ele>158.0</ele><time>2026-04-06T07:23:42Z</time></trkpt><trkpt lat="40.6210272" lon="14.4574176"><ele>160.0</ele><time>2026-04-06T07:23:43Z</time></trkpt><trkpt lat="40.6211218" lon="14.4574615"><ele>162.0</ele><time>2026-04-06T07:23:44Z</time></trkpt><trkpt lat="40.6212064" lon="14.4575006"><ele>164.0</ele><time>2026-04-06T07:23:45Z</time></trkpt><trkpt lat="40.6212987" lon="14.457486"><ele>166.0</ele><time>2026-04-06T07:23:46Z</time></trkpt><trkpt lat="40.6213843" lon="14.4574904"><ele>166.0</ele><time>2026-04-06T07:23:47Z</time></trkpt><trkpt lat="40.6214558" lon="14.4575174"><ele>166.0</ele><time>2026-04-06T07:23:47.999Z</time></trkpt><trkpt lat="40.621481" lon="14.4576112"><ele>166.0</ele><time>2026-04-06T07:23:49Z</time></trkpt><trkpt lat="40.6214836" lon="14.4577206"><ele>166.0</ele><time>2026-04-06T07:23:50Z</time></trkpt><trkpt lat="40.6214547" lon="14.4578363"><ele>166.0</ele><time>2026-04-06T07:23:51Z</time></trkpt><trkpt lat="40.6213992" lon="14.4579374"><ele>166.0</ele><time>2026-04-06T07:23:52Z</time></trkpt><trkpt lat="40.6213181" lon="14.4580116"><ele>170.0</ele><time>2026-04-06T07:23:53Z</time></trkpt><trkpt lat="40.6212262" lon="14.4580704"><ele>174.0</ele><time>2026-04-06T07:23:54Z</time></trkpt><trkpt lat="40.6211392" lon="14.4581424"><ele>178.0</ele><time>2026-04-06T07:23:55Z</time></trkpt><trkpt lat="40.6210632" lon="14.4582318"><ele>182.0</ele><time>2026-04-06T07:23:56Z</time></trkpt><trkpt lat="40.6209901" lon="14.4583503"><ele>186.0</ele><time>2026-04-06T07:23:57Z</time></trkpt><trkpt lat="40.6209025" lon="14.4585099"><ele>177.0</ele><time>2026-04-06T07:23:58Z</time></trkpt><trkpt lat="40.6207923" lon="14.4586807"><ele>168.0</ele><time>2026-04-06T07:23:59Z</time></trkpt><trkpt lat="40.6206671" lon="14.4588654"><ele>159.0</ele><time>2026-04-06T07:24:00Z</time></trkpt><trkpt lat="40.6205418" lon="14.4590563"><ele>159.0</ele><time>2026-04-06T07:24:01Z</time></trkpt><trkpt lat="40.6204204" lon="14.4592279"><ele>159.0</ele><time>2026-04-06T07:24:02Z</time></trkpt><trkpt lat="40.6203097" lon="14.4593916"><ele>159.0</ele><time>2026-04-06T07:24:03Z</time></trkpt><trkpt lat="40.6202048" lon="14.4595281"><ele>156.25</ele><time>2026-04-06T07:24:03.999Z</time></trkpt><trkpt lat="40.6200911" lon="14.4596163"><ele>153.5</ele><time>2026-04-06T07:24:05Z</time></trkpt><trkpt lat="40.6199628" lon="14.4596665"><ele>150.75</ele><time>2026-04-06T07:24:06Z</time></trkpt><trkpt lat="40.6198388" lon="14.4597212"><ele>148.0</ele><time>2026-04-06T07:24:07Z</time></trkpt><trkpt lat="40.6197251" lon="14.4598076"><ele>148.0</ele><time>2026-04-06T07:24:08Z</time></trkpt><trkpt lat="40.6196318" lon="14.4599414"><ele>148.0</ele><time>2026-04-06T07:24:09Z</time></trkpt><trkpt lat="40.6195534" lon="14.4601217"><ele>148.0</ele><time>2026-04-06T07:24:10Z</time></trkpt><trkpt lat="40.6194749" lon="14.4603119"><ele>168.0</ele><time>2026-04-06T07:24:11Z</time></trkpt><trkpt lat="40.6193753" lon="14.4604611"><ele>188.0</ele><time>2026-04-06T07:24:12Z</time></trkpt><trkpt lat="40.6217721" lon="14.452811"><ele>188.0</ele><time>2026-04-06T07:23:08Z</time></trkpt><trkpt lat="40.6218619" lon="14.4527605"><ele>188.0</ele><time>2026-04-06T07:23:09Z</time></trkpt><trkpt lat="40.621939" lon="14.452721"><ele>188.0</ele><time>2026-04-06T07:23:10Z</time></trkpt><trkpt lat="40.6220033" lon="14.4528098"><ele>188.0</ele><time>2026-04-06T07:23:11Z</time></trkpt><trkpt lat="40.6219711" lon="14.4529445"><ele>188.0</ele><time>2026-04-06T07:23:13Z</time></trkpt><trkpt lat="40.621924" lon="14.4530334"><ele>181.5</ele><time>2026-04-06T07:23:14Z</time></trkpt><trkpt lat="40.621846" lon="14.4531257"><ele>175.0</ele><time>2026-04-06T07:23:15Z</time></trkpt><trkpt lat="40.6217797" lon="14.4532292"><ele>168.5</ele><time>2026-04-06T07:23:15.999Z</time></trkpt><trkpt lat="40.621724" lon="14.4533647"><ele>162.0</ele><time>2026-04-06T07:23:17Z</time></trkpt><trkpt lat="40.621681" lon="14.4535391"><ele>162.0</ele><time>2026-04-06T07:23:18Z</time></trkpt><trkpt lat="40.6216566" lon="14.4537572"><ele>162.0</ele><time>2026-04-06T07:23:19Z</time></trkpt><trkpt lat="40.6216235" lon="14.4540105"><ele>162.0</ele><time>2026-04-06T07:23:20Z</time></trkpt><trkpt lat="40.6215796" lon="14.454243"><ele>160.33333333333334</ele><time>2026-04-06T07:23:21Z</time></trkpt><trkpt lat="40.6215199" lon="14.454452"><ele>158.66666666666669</ele><time>2026-04-06T07:23:22Z</time></trkpt><trkpt lat="40.6214416" lon="14.4546483"><ele>157.0</ele><time>2026-04-06T07:23:23Z</time></trkpt><trkpt lat="40.6213606" lon="14.4548218"><ele>163.0</ele><time>2026-04-06T07:23:24Z</time></trkpt><trkpt lat="40.6212816" lon="14.4549677"><ele>169.0</ele><time>2026-04-06T07:23:25Z</time></trkpt><trkpt lat="40.6211944" lon="14.4550961"><ele>175.0</ele><time>2026-04-06T07:23:26Z</time></trkpt><trkpt lat="40.6211109" lon="14.45522"><ele>181.0</ele><time>2026-04-06T07:23:27Z</time></trkpt><trkpt lat="40.621042" lon="14.4553758"><ele>181.0</ele><time>2026-04-06T07:23:28Z</time></trkpt><trkpt lat="40.6209904" lon="14.4555441"><ele>181.0</ele><time>2026-04-06T07:23:28.999Z</time></trkpt><trkpt lat="40.6209482" lon="14.4557094"><ele>181.0</ele><time>2026-04-06T07:23:30Z</time></trkpt><trkpt lat="40.6209208" lon="14.4558624"><ele>181.0</ele><time>2026-04-06T07:23:31Z</time></trkpt><trkpt lat="40.6208864" lon="14.4560122"><ele>176.0</ele><time>2026-04-06T07:23:32Z</time></trkpt><trkpt lat="40.6208543" lon="14.456153"><ele>171.0</ele><time>2026-04-06T07:23:33Z</time></trkpt><trkpt lat="40.6208229" lon="14.456283"><ele>166.0</ele><time>2026-04-06T07:23:34Z</time></trkpt><trkpt lat="40.6208032" lon="14.4564133"><ele>161.0</ele><time>2026-04-06T07:23:35Z</time></trkpt><trkpt lat="40.6207944" lon="14.4565604"><ele>156.0</ele><time>2026-04-06T07:23:36Z</time></trkpt><trkpt lat="40.6207971" lon="14.4567013"><ele>156.0</ele><time>2026-04-06T07:23:37Z</time></trkpt><trkpt lat="40.6208079" lon="14.4568493"><ele>156.0</ele><time>2026-04-06T07:23:38Z</time></trkpt><trkpt lat="40.6208171" lon="14.4569956"><ele>156.0</ele><time>2026-04-06T07:23:38.999Z</time></trkpt><trkpt lat="40.6208394" lon="14.4571315"><ele>156.0</ele><time>2026-04-06T07:23:40Z</time></trkpt><trkpt lat="40.6208821" lon="14.4572479"><ele>156.0</ele><time>2026-04-06T07:23:41Z</time></trkpt><trkpt lat="40.6209433" lon="14.4573461"><ele>158.0</ele><time>2026-04-06T07:23:42Z</time></trkpt><trkpt lat="40.6210272" lon="14.4574176"><ele>160.0</ele><time>2026-04-06T07:23:43Z</time></trkpt><trkpt lat="40.6211218" lon="14.4574615"><ele>162.0</ele><time>2026-04-06T07:23:44Z</time></trkpt><trkpt lat="40.6212064" lon="14.4575006"><ele>164.0</ele><time>2026-04-06T07:23:45Z</time></trkpt><trkpt lat="40.6212987" lon="14.457486"><ele>166.0</ele><time>2026-04-06T07:23:46Z</time></trkpt><trkpt lat="40.6213843" lon="14.4574904"><ele>166.0</ele><time>2026-04-06T07:23:47Z</time></trkpt><trkpt lat="40.6214558" lon="14.4575174"><ele>166.0</ele><time>2026-04-06T07:23:47.999Z</time></trkpt><trkpt lat="40.621481" lon="14.4576112"><ele>166.0</ele><time>2026-04-06T07:23:49Z</time></trkpt><trkpt lat="40.6214836" lon="14.4577206"><ele>166.0</ele><time>2026-04-06T07:23:50Z</time></trkpt><trkpt lat="40.6214547" lon="14.4578363"><ele>166.0</ele><time>2026-04-06T07:23:51Z</time></trkpt><trkpt lat="40.6213992" lon="14.4579374"><ele>166.0</ele><time>2026-04-06T07:23:52Z</time></trkpt><trkpt lat="40.6213181" lon="14.4580116"><ele>170.0</ele><time>2026-04-06T07:23:53Z</time></trkpt><trkpt lat="40.6212262" lon="14.4580704"><ele>174.0</ele><time>2026-04-06T07:23:54Z</time></trkpt><trkpt lat="40.6211392" lon="14.4581424"><ele>178.0</ele><time>2026-04-06T07:23:55Z</time></trkpt><trkpt lat="40.6210632" lon="14.4582318"><ele>182.0</ele><time>2026-04-06T07:23:56Z</time></trkpt><trkpt lat="40.6209901" lon="14.4583503"><ele>186.0</ele><time>2026-04-06T07:23:57Z</time></trkpt><trkpt lat="40.6209025" lon="14.4585099"><ele>177.0</ele><time>2026-04-06T07:23:58Z</time></trkpt><trkpt lat="40.6207923" lon="14.4586807"><ele>168.0</ele><time>2026-04-06T07:23:59Z</time></trkpt><trkpt lat="40.6206671" lon="14.4588654"><ele>159.0</ele><time>2026-04-06T07:24:00Z</time></trkpt><trkpt lat="40.6205418" lon="14.4590563"><ele>159.0</ele><time>2026-04-06T07:24:01Z</time></trkpt><trkpt lat="40.6204204" lon="14.4592279"><ele>159.0</ele><time>2026-04-06T07:24:02Z</time></trkpt><trkpt lat="40.6203097" lon="14.4593916"><ele>159.0</ele><time>2026-04-06T07:24:03Z</time></trkpt><trkpt lat="40.6202048" lon="14.4595281"><ele>156.25</ele><time>2026-04-06T07:24:03.999Z</time></trkpt><trkpt lat="40.6200911" lon="14.4596163"><ele>153.5</ele><time>2026-04-06T07:24:05Z</time></trkpt><trkpt lat="40.6199628" lon="14.4596665"><ele>150.75</ele><time>2026-04-06T07:24:06Z</time></trkpt><trkpt lat="40.6198388" lon="14.4597212"><ele>148.0</ele><time>2026-04-06T07:24:07Z</time></trkpt><trkpt lat="40.6197251" lon="14.4598076"><ele>148.0</ele><time>2026-04-06T07:24:08Z</time></trkpt><trkpt lat="40.6196318" lon="14.4599414"><ele>148.0</ele><time>2026-04-06T07:24:09Z</time></trkpt><trkpt lat="40.6195534" lon="14.4601217"><ele>148.0</ele><time>2026-04-06T07:24:10Z</time></trkpt><trkpt lat="40.6194749" lon="14.4603119"><ele>148.0</ele><time>2026-04-06T07:24:11Z</time></trkpt><trkpt lat="40.6193753" lon="14.4604611"><ele>148.0</ele><time>2026-04-06T07:24:12Z</time></trkpt><trkpt lat="40.619246" lon="14.4605661"><ele>148.0</ele><time>2026-04-06T07:24:13Z</time></trkpt><trkpt lat="40.6191227" lon="14.4606701"><ele>148.0</ele><time>2026-04-06T07:24:14Z</time></trkpt><trkpt lat="40.6190046" lon="14.460731"><ele>148.0</ele><time>2026-04-06T07:24:15Z</time></trkpt><trkpt lat="40.6189213" lon="14.4608457"><ele>148.0</ele><time>2026-04-06T07:24:16Z</time></trkpt><trkpt lat="40.6188672" lon="14.460998"><ele>148.0</ele><time>2026-04-06T07:24:17Z</time></trkpt><trkpt lat="40.618846" lon="14.4612045"><ele>148.0</ele><time>2026-04-06T07:24:18Z</time></trkpt><trkpt lat="40.6188306" lon="14.4614486"><ele>148.0</ele><time>2026-04-06T07:24:19Z</time></trkpt><trkpt lat="40.618816" lon="14.4617029"><ele>148.0</ele><time>2026-04-06T07:24:20Z</time></trkpt><trkpt lat="40.61879" lon="14.4619324"><ele>148.0</ele><time>2026-04-06T07:24:21Z</time></trkpt><trkpt lat="40.6187433" lon="14.4621404"><ele>148.0</ele><time>2026-04-06T07:24:22Z</time></trkpt><trkpt lat="40.6186667" lon="14.4623322"><ele>148.0</ele><time>2026-04-06T07:24:22.999Z</time></trkpt><trkpt lat="40.6185743" lon="14.4624973"><ele>148.0</ele><time>2026-04-06T07:24:24Z</time></trkpt><trkpt lat="40.6184819" lon="14.4626245"><ele>148.0</ele><time>2026-04-06T07:24:25Z</time></trkpt><trkpt lat="40.6184082" lon="14.4627399"><ele>148.0</ele><time>2026-04-06T07:24:26Z</time></trkpt><trkpt lat="40.6183662" lon="14.4628617"><ele>148.0</ele><time>2026-04-06T07:24:27Z</time></trkpt><trkpt lat="40.6183774" lon="14.4629894"><ele>148.0</ele><time>2026-04-06T07:24:28Z</time></trkpt><trkpt lat="40.6184452" lon="14.4631016"><ele>148.0</ele><time>2026-04-06T07:24:29Z</time></trkpt><trkpt lat="40.6185603" lon="14.4631913"><ele>148.0</ele><time>2026-04-06T07:24:30Z</time></trkpt><trkpt lat="40.6186948" lon="14.4632847"><ele>148.0</ele><time>2026-04-06T07:24:31Z</time></trkpt><trkpt lat="40.6188649" lon="14.463326"><ele>148.0</ele><time>2026-04-06T07:24:32Z</time></trkpt><trkpt lat="40.619016" lon="14.4633899"><ele>142.0</ele><time>2026-04-06T07:24:33Z</time></trkpt><trkpt lat="40.6191521" lon="14.4634788"><ele>136.0</ele><time>2026-04-06T07:24:34Z</time></trkpt><trkpt lat="40.6192542" lon="14.4636162"><ele>130.0</ele><time>2026-04-06T07:24:35Z</time></trkpt><trkpt lat="40.6193393" lon="14.4637919"><ele>130.0</ele><time>2026-04-06T07:24:36Z</time></trkpt><trkpt lat="40.6194384" lon="14.4639486"><ele>130.0</ele><time>2026-04-06T07:24:37Z</time></trkpt><trkpt lat="40.6195422" lon="14.4640691"><ele>130.0</ele><time>2026-04-06T07:24:38Z</time></trkpt><trkpt lat="40.6196236" lon="14.4641894"><ele>130.0</ele><time>2026-04-06T07:24:39Z</time></trkpt><trkpt lat="40.6196581" lon="14.4643436"><ele>142.0</ele><time>2026-04-06T07:24:40Z</time></trkpt><trkpt lat="40.6196413" lon="14.4645212"><ele>154.0</ele><time>2026-04-06T07:24:41Z</time></trkpt><trkpt lat="40.6195913" lon="14.4647107"><ele>166.0</ele><time>2026-04-06T07:24:42Z</time></trkpt><trkpt lat="40.6195386" lon="14.4648828"><ele>178.0</ele><time>2026-04-06T07:24:43Z</time></trkpt><trkpt lat="40.61949" lon="14.4650478"><ele>180.0</ele><time>2026-04-06T07:24:44Z</time></trkpt><trkpt lat="40.6194699" lon="14.4652151"><ele>182.0</ele><time>2026-04-06T07:24:45Z</time></trkpt><trkpt lat="40.6194826" lon="14.4653957"><ele>184.0</ele><time>2026-04-06T07:24:46Z</time></trkpt><trkpt lat="40.6195014" lon="14.465568"><ele>186.0</ele><time>2026-04-06T07:24:47Z</time></trkpt><trkpt lat="40.6195229" lon="14.465745"><ele>186.0</ele><time>2026-04-06T07:24:48Z</time></trkpt><trkpt lat="40.6195539" lon="14.4659232"><ele>186.0</ele><time>2026-04-06T07:24:49Z</time></trkpt><trkpt lat="40.6195981" lon="14.4660869"><ele>186.0</ele><time>2026-04-06T07:24:50Z</time></trkpt><trkpt lat="40.6196663" lon="14.4662354"><ele>186.0</ele><time>2026-04-06T07:24:50.999Z</time></trkpt><trkpt lat="40.6197618" lon="14.4663598"><ele>173.5</ele><time>2026-04-06T07:24:52Z</time></trkpt><trkpt lat="40.6198777" lon="14.4664719"><ele>161.0</ele><time>2026-04-06T07:24:53Z</time></trkpt><trkpt lat="40.6200029" lon="14.4665746"><ele>148.5</ele><time>2026-04-06T07:24:53.999Z</time></trkpt><trkpt lat="40.6201111" lon="14.4666588"><ele>136.0</ele><time>2026-04-06T07:24:55.148Z</time></trkpt><trkpt lat="40.6203109" lon="14.466716"><ele>136.0</ele><time>2026-04-06T07:24:57Z</time></trkpt><trkpt lat="40.6203966" lon="14.4666503"><ele>136.0</ele><time>2026-04-06T07:24:58Z</time></trkpt><trkpt lat="40.6204821" lon="14.4665365"><ele>136.0</ele><time>2026-04-06T07:24:59Z</time></trkpt><trkpt lat="40.6205712" lon="14.4663818"><ele>136.0</ele><time>2026-04-06T07:25:00Z</time></trkpt><trkpt lat="40.6206947" lon="14.4662082"><ele>136.0</ele><time>2026-04-06T07:25:01Z</time></trkpt><trkpt lat="40.6208104" lon="14.4660432"><ele>136.0</ele><time>2026-04-06T07:25:02Z</time></trkpt><trkpt lat="40.6209422" lon="14.4658977"><ele>136.0</ele><time>2026-04-06T07:25:03Z</time></trkpt><trkpt lat="40.6210777" lon="14.4657591"><ele>136.25</ele><time>2026-04-06T07:25:04Z</time></trkpt><trkpt lat="40.6212408" lon="14.4657169"><ele>136.5</ele><time>2026-04-06T07:25:05Z</time></trkpt><trkpt lat="40.6213788" lon="14.4656584"><ele>136.75</ele><time>2026-04-06T07:25:05.999Z</time></trkpt><trkpt lat="40.6214985" lon="14.4656101"><ele>137.0</ele><time>2026-04-06T07:25:07Z</time></trkpt><trkpt lat="40.6216112" lon="14.4656009"><ele>137.0</ele><time>2026-04-06T07:25:08Z</time></trkpt><trkpt lat="40.6217121" lon="14.4656535"><ele>137.0</ele><time>2026-04-06T07:25:09Z</time></trkpt><trkpt lat="40.6218007" lon="14.465762"><ele>137.0</ele><time>2026-04-06T07:25:10Z</time></trkpt><trkpt lat="40.6218689" lon="14.4658717"><ele>137.0</ele><time>2026-04-06T07:25:11Z</time></trkpt><trkpt lat="40.6218952" lon="14.4659845"><ele>137.0</ele><time>2026-04-06T07:25:12Z</time></trkpt><trkpt lat="40.6218688" lon="14.4661032"><ele>137.0</ele><time>2026-04-06T07:25:13Z</time></trkpt><trkpt lat="40.6218156" lon="14.4662502"><ele>137.0</ele><time>2026-04-06T07:25:14Z</time></trkpt><trkpt lat="40.621772" lon="14.4664594"><ele>137.0</ele><time>2026-04-06T07:25:14.999Z</time></trkpt><trkpt lat="40.6217203" lon="14.4666811"><ele>140.5</ele><time>2026-04-06T07:25:16Z</time></trkpt><trkpt lat="40.6216939" lon="14.4668862"><ele>144.0</ele><time>2026-04-06T07:25:17Z</time></trkpt><trkpt lat="40.6217047" lon="14.4670649"><ele>147.5</ele><time>2026-04-06T07:25:18Z</time></trkpt><trkpt lat="40.6217589" lon="14.4672468"><ele>151.0</ele><time>2026-04-06T07:25:19Z</time></trkpt><trkpt lat="40.6218265" lon="14.4674172"><ele>151.0</ele><time>2026-04-06T07:25:20Z</time></trkpt><trkpt lat="40.6218826" lon="14.4675723"><ele>151.0</ele><time>2026-04-06T07:25:21Z</time></trkpt><trkpt lat="40.6219323" lon="14.4677145"><ele>151.0</ele><time>2026-04-06T07:25:22Z</time></trkpt><trkpt lat="40.6219556" lon="14.4678498"><ele>151.0</ele><time>2026-04-06T07:25:23Z</time></trkpt><trkpt lat="40.6219334" lon="14.4679885"><ele>151.0</ele><time>2026-04-06T07:25:24Z</time></trkpt><trkpt lat="40.6218844" lon="14.4681301"><ele>151.0</ele><time>2026-04-06T07:25:25Z</time></trkpt><trkpt lat="40.6218183" lon="14.4682795"><ele>151.0</ele><time>2026-04-06T07:25:26Z</time></trkpt><trkpt lat="40.6217637" lon="14.4684186"><ele>151.0</ele><time>2026-04-06T07:25:26.999Z</time></trkpt><trkpt lat="40.6217393" lon="14.4685586"><ele>151.0</ele><time>2026-04-06T07:25:28Z</time></trkpt><trkpt lat="40.6217587" lon="14.4686915"><ele>151.0</ele><time>2026-04-06T07:25:29Z</time></trkpt><trkpt lat="40.6218134" lon="14.4688255"><ele>151.0</ele><time>2026-04-06T07:25:30Z</time></trkpt><trkpt lat="40.621859" lon="14.468978"><ele>151.0</ele><time>2026-04-06T07:25:30.999Z</time></trkpt><trkpt lat="40.6218701" lon="14.4691419"><ele>139.0</ele><time>2026-04-06T07:25:32Z</time></trkpt><trkpt lat="40.6218623" lon="14.4692968"><ele>127.0</ele><time>2026-04-06T07:25:33Z</time></trkpt><trkpt lat="40.6218386" lon="14.4694408"><ele>115.0</ele><time>2026-04-06T07:25:34Z</time></trkpt><trkpt lat="40.6218181" lon="14.4695831"><ele>103.0</ele><time>2026-04-06T07:25:35Z</time></trkpt><trkpt lat="40.6218345" lon="14.4696771"><ele>91.0</ele><time>2026-04-06T07:25:36Z</time></trkpt><trkpt lat="40.6218536" lon="14.4697714"><ele>91.0</ele><time>2026-04-06T07:25:37Z</time></trkpt><trkpt lat="40.6218982" lon="14.4698392"><ele>91.0</ele><time>2026-04-06T07:25:38Z</time></trkpt><trkpt lat="40.6220113" lon="14.4699022"><ele>91.0</ele><time>2026-04-06T07:25:40Z</time></trkpt><trkpt lat="40.6220747" lon="14.4698934"><ele>91.0</ele><time>2026-04-06T07:25:41Z</time></trkpt><trkpt lat="40.6222075" lon="14.4698677"><ele>91.0</ele><time>2026-04-06T07:25:43Z</time></trkpt><trkpt lat="40.6222715" lon="14.4699143"><ele>101.5</ele><time>2026-04-06T07:25:44Z</time></trkpt><trkpt lat="40.622314" lon="14.4699783"><ele>112.0</ele><time>2026-04-06T07:25:45Z</time></trkpt><trkpt lat="40.6223412" lon="14.4700619"><ele>122.5</ele><time>2026-04-06T07:25:46Z</time></trkpt><trkpt lat="40.6223655" lon="14.4701573"><ele>133.0</ele><time>2026-04-06T07:25:47Z</time></trkpt><trkpt lat="40.6223848" lon="14.4702548"><ele>143.5</ele><time>2026-04-06T07:25:48Z</time></trkpt><trkpt lat="40.6223966" lon="14.4703589"><ele>154.0</ele><time>2026-04-06T07:25:49Z</time></trkpt><trkpt lat="40.6224113" lon="14.4704729"><ele>154.0</ele><time>2026-04-06T07:25:50Z</time></trkpt><trkpt lat="40.6224323" lon="14.4705864"><ele>154.0</ele><time>2026-04-06T07:25:51Z</time></trkpt><trkpt lat="40.6224604" lon="14.4706955"><ele>154.0</ele><time>2026-04-06T07:25:52Z</time></trkpt><trkpt lat="40.6224968" lon="14.4708116"><ele>154.0</ele><time>2026-04-06T07:25:53Z</time></trkpt><trkpt lat="40.6225508" lon="14.47092"><ele>154.0</ele><time>2026-04-06T07:25:54Z</time></trkpt><trkpt lat="40.6226209" lon="14.4710128"><ele>154.0</ele><time>2026-04-06T07:25:54.999Z</time></trkpt><trkpt lat="40.6227164" lon="14.4710901"><ele>154.0</ele><time>2026-04-06T07:25:56Z</time></trkpt><trkpt lat="40.6228307" lon="14.4711416"><ele>154.0</ele><time>2026-04-06T07:25:57Z</time></trkpt><trkpt lat="40.6229781" lon="14.4712027"><ele>154.0</ele><time>2026-04-06T07:25:58Z</time></trkpt><trkpt lat="40.6231408" lon="14.4712748"><ele>143.0</ele><time>2026-04-06T07:25:59Z</time></trkpt><trkpt lat="40.6232916" lon="14.471282"><ele>132.0</ele><time>2026-04-06T07:26:00Z</time></trkpt><trkpt lat="40.6233934" lon="14.4713502"><ele>121.0</ele><time>2026-04-06T07:26:01Z</time></trkpt><trkpt lat="40.6234639" lon="14.4714328"><ele>110.0</ele><time>2026-04-06T07:26:02Z</time></trkpt><trkpt lat="40.6235365" lon="14.4715021"><ele>99.0</ele><time>2026-04-06T07:26:03Z</time></trkpt><trkpt lat="40.6236272" lon="14.4715106"><ele>129.0</ele><time>2026-04-06T07:26:04Z</time></trkpt><trkpt lat="40.623717" lon="14.4714523"><ele>159.0</ele><time>2026-04-06T07:26:05Z</time></trkpt><trkpt lat="40.6238082" lon="14.4713336"><ele>189.0</ele><time>2026-04-06T07:26:05.999Z</time></trkpt><trkpt lat="40.6238995" lon="14.4712064"><ele>219.0</ele><time>2026-04-06T07:26:07Z</time></trkpt><trkpt lat="40.6239907" lon="14.471106"><ele>219.0</ele><time>2026-04-06T07:26:08Z</time></trkpt><trkpt lat="40.6240825" lon="14.4710499"><ele>218.99999999999997</ele><time>2026-04-06T07:26:09Z</time></trkpt><trkpt lat="40.6241718" lon="14.4710694"><ele>218.99999999999997</ele><time>2026-04-06T07:26:10Z</time></trkpt><trkpt lat="40.6242573" lon="14.4711528"><ele>219.0</ele><time>2026-04-06T07:26:11Z</time></trkpt><trkpt lat="40.6243339" lon="14.471306"><ele>219.0</ele><time>2026-04-06T07:26:12Z</time></trkpt><trkpt lat="40.6244026" lon="14.471476"><ele>219.0</ele><time>2026-04-06T07:26:13Z</time></trkpt><trkpt lat="40.6244253" lon="14.4716313"><ele>218.99999999999997</ele><time>2026-04-06T07:26:14Z</time></trkpt><trkpt lat="40.6244317" lon="14.4717776"><ele>218.99999999999997</ele><time>2026-04-06T07:26:15Z</time></trkpt><trkpt lat="40.6244572" lon="14.4719072"><ele>219.0</ele><time>2026-04-06T07:26:16Z</time></trkpt><trkpt lat="40.6245164" lon="14.4719865"><ele>219.0</ele><time>2026-04-06T07:26:17Z</time></trkpt><trkpt lat="40.6246241" lon="14.4720302"><ele>217.2</ele><time>2026-04-06T07:26:18Z</time></trkpt><trkpt lat="40.6247238" lon="14.4720772"><ele>215.39999999999998</ele><time>2026-04-06T07:26:19Z</time></trkpt><trkpt lat="40.6248028" lon="14.4721614"><ele>213.6</ele><time>2026-04-06T07:26:20Z</time></trkpt><trkpt lat="40.6248866" lon="14.4722394"><ele>211.8</ele><time>2026-04-06T07:26:21Z</time></trkpt><trkpt lat="40.6249367" lon="14.4723598"><ele>210.0</ele><time>2026-04-06T07:26:22Z</time></trkpt><trkpt lat="40.6249386" lon="14.4724837"><ele>210.0</ele><time>2026-04-06T07:26:23Z</time></trkpt><trkpt lat="40.6247776" lon="14.4726528"><ele>210.0</ele><time>2026-04-06T07:26:24Z</time></trkpt><trkpt lat="40.6247736" lon="14.4727748"><ele>210.0</ele><time>2026-04-06T07:26:25Z</time></trkpt><trkpt lat="40.6247995" lon="14.4729257"><ele>210.0</ele><time>2026-04-06T07:26:26Z</time></trkpt><trkpt lat="40.624858" lon="14.4730784"><ele>203.25</ele><time>2026-04-06T07:26:27Z</time></trkpt><trkpt lat="40.6249235" lon="14.4732529"><ele>196.5</ele><time>2026-04-06T07:26:28Z</time></trkpt><trkpt lat="40.6249896" lon="14.4733948"><ele>189.75</ele><time>2026-04-06T07:26:29Z</time></trkpt><trkpt lat="40.6250686" lon="14.4734812"><ele>183.0</ele><time>2026-04-06T07:26:30Z</time></trkpt><trkpt lat="40.6251606" lon="14.4735135"><ele>183.0</ele><time>2026-04-06T07:26:31Z</time></trkpt><trkpt lat="40.6252488" lon="14.4735414"><ele>183.0</ele><time>2026-04-06T07:26:32Z</time></trkpt><trkpt lat="40.6253292" lon="14.4735746"><ele>183.0</ele><time>2026-04-06T07:26:33Z</time></trkpt><trkpt lat="40.6254134" lon="14.4736255"><ele>183.0</ele><time>2026-04-06T07:26:34Z</time></trkpt><trkpt lat="40.6254396" lon="14.473837"><ele>183.0</ele><time>2026-04-06T07:26:35Z</time></trkpt><trkpt lat="40.625496" lon="14.4740254"><ele>205.5</ele><time>2026-04-06T07:26:36Z</time></trkpt><trkpt lat="40.6255436" lon="14.4742073"><ele>228.0</ele><time>2026-04-06T07:26:36.999Z</time></trkpt><trkpt lat="40.6255647" lon="14.4743576"><ele>250.5</ele><time>2026-04-06T07:26:38Z</time></trkpt><trkpt lat="40.6255395" lon="14.4744905"><ele>273.0</ele><time>2026-04-06T07:26:39Z</time></trkpt><trkpt lat="40.6254517" lon="14.474604"><ele>273.0</ele><time>2026-04-06T07:26:40Z</time></trkpt><trkpt lat="40.6253371" lon="14.4747295"><ele>273.0</ele><time>2026-04-06T07:26:41Z</time></trkpt><trkpt lat="40.62523" lon="14.4748716"><ele>273.0</ele><time>2026-04-06T07:26:42Z</time></trkpt><trkpt lat="40.6251567" lon="14.4750012"><ele>273.0</ele><time>2026-04-06T07:26:43Z</time></trkpt><trkpt lat="40.625112" lon="14.4751457"><ele>273.0</ele><time>2026-04-06T07:26:44Z</time></trkpt><trkpt lat="40.6251097" lon="14.4753117"><ele>273.0</ele><time>2026-04-06T07:26:44.999Z</time></trkpt><trkpt lat="40.6251325" lon="14.475488"><ele>273.0</ele><time>2026-04-06T07:26:46Z</time></trkpt><trkpt lat="40.6251692" lon="14.4756599"><ele>273.0</ele><time>2026-04-06T07:26:47Z</time></trkpt><trkpt lat="40.6252129" lon="14.4758327"><ele>273.0</ele><time>2026-04-06T07:26:48Z</time></trkpt><trkpt lat="40.6252544" lon="14.4759984"><ele>273.0</ele><time>2026-04-06T07:26:49Z</time></trkpt><trkpt lat="40.6252993" lon="14.4761594"><ele>273.0</ele><time>2026-04-06T07:26:50Z</time></trkpt><trkpt lat="40.6253445" lon="14.4763134"><ele>273.0</ele><time>2026-04-06T07:26:51Z</time></trkpt><trkpt lat="40.6253844" lon="14.4764686"><ele>273.0</ele><time>2026-04-06T07:26:52Z</time></trkpt><trkpt lat="40.6254126" lon="14.4766193"><ele>273.0</ele><time>2026-04-06T07:26:53Z</time></trkpt><trkpt lat="40.625449" lon="14.4767637"><ele>273.0</ele><time>2026-04-06T07:26:53.999Z</time></trkpt><trkpt lat="40.6254964" lon="14.4769161"><ele>273.0</ele><time>2026-04-06T07:26:55Z</time></trkpt><trkpt lat="40.6255834" lon="14.4770231"><ele>258.6</ele><time>2026-04-06T07:26:56Z</time></trkpt><trkpt lat="40.6256586" lon="14.4771282"><ele>244.20000000000002</ele><time>2026-04-06T07:26:57Z</time></trkpt><trkpt lat="40.625724" lon="14.4772404"><ele>229.8</ele><time>2026-04-06T07:26:58Z</time></trkpt><trkpt lat="40.6257714" lon="14.4773625"><ele>215.4</ele><time>2026-04-06T07:26:59Z</time></trkpt><trkpt lat="40.6258142" lon="14.4774807"><ele>201.0</ele><time>2026-04-06T07:27:00Z</time></trkpt><trkpt lat="40.625859" lon="14.4775981"><ele>201.0</ele><time>2026-04-06T07:27:01Z</time></trkpt><trkpt lat="40.6259119" lon="14.4777102"><ele>201.0</ele><time>2026-04-06T07:27:02Z</time></trkpt><trkpt lat="40.6259781" lon="14.4778161"><ele>201.0</ele><time>2026-04-06T07:27:03Z</time></trkpt><trkpt lat="40.6260528" lon="14.4779168"><ele>201.0</ele><time>2026-04-06T07:27:04Z</time></trkpt><trkpt lat="40.6261319" lon="14.4780204"><ele>201.0</ele><time>2026-04-06T07:27:05Z</time></trkpt><trkpt lat="40.6262104" lon="14.4781248"><ele>203.5</ele><time>2026-04-06T07:27:06Z</time></trkpt><trkpt lat="40.6262971" lon="14.4782198"><ele>206.0</ele><time>2026-04-06T07:27:07Z</time></trkpt><trkpt lat="40.6264036" lon="14.4782987"><ele>208.5</ele><time>2026-04-06T07:27:08Z</time></trkpt><trkpt lat="40.6265061" lon="14.4783791"><ele>211.0</ele><time>2026-04-06T07:27:09Z</time></trkpt><trkpt lat="40.6265931" lon="14.4784778"><ele>210.99999999999997</ele><time>2026-04-06T07:27:10Z</time></trkpt><trkpt lat="40.6266678" lon="14.4785737"><ele>211.0</ele><time>2026-04-06T07:27:11Z</time></trkpt><trkpt lat="40.6267313" lon="14.4786633"><ele>211.0</ele><time>2026-04-06T07:27:12Z</time></trkpt><trkpt lat="40.6267797" lon="14.4787455"><ele>211.0</ele><time>2026-04-06T07:27:13Z</time></trkpt><trkpt lat="40.6268384" lon="14.4788116"><ele>210.99999999999997</ele><time>2026-04-06T07:27:14Z</time></trkpt><trkpt lat="40.6269141" lon="14.4788522"><ele>211.0</ele><time>2026-04-06T07:27:15Z</time></trkpt><trkpt lat="40.6269972" lon="14.4788811"><ele>208.83333333333331</ele><time>2026-04-06T07:27:16Z</time></trkpt><trkpt lat="40.6270792" lon="14.4789137"><ele>206.66666666666666</ele><time>2026-04-06T07:27:17Z</time></trkpt><trkpt lat="40.6271618" lon="14.4789539"><ele>204.5</ele><time>2026-04-06T07:27:17.999Z</time></trkpt><trkpt lat="40.6272357" lon="14.4789977"><ele>202.33333333333331</ele><time>2026-04-06T07:27:19Z</time></trkpt><trkpt lat="40.627309" lon="14.4790471"><ele>200.16666666666666</ele><time>2026-04-06T07:27:20Z</time></trkpt><trkpt lat="40.6273851" lon="14.4790865"><ele>198.0</ele><time>2026-04-06T07:27:21Z</time></trkpt><trkpt lat="40.6274646" lon="14.4791137"><ele>198.0</ele><time>2026-04-06T07:27:21.999Z</time></trkpt><trkpt lat="40.6275496" lon="14.4791304"><ele>198.0</ele><time>2026-04-06T07:27:23Z</time></trkpt><trkpt lat="40.6276364" lon="14.4791397"><ele>198.0</ele><time>2026-04-06T07:27:23.999Z</time></trkpt><trkpt lat="40.6277195" lon="14.4791546"><ele>198.0</ele><time>2026-04-06T07:27:25Z</time></trkpt><trkpt lat="40.6278097" lon="14.4791545"><ele>198.0</ele><time>2026-04-06T07:27:26Z</time></trkpt><trkpt lat="40.6278964" lon="14.4791416"><ele>198.0</ele><time>2026-04-06T07:27:27Z</time></trkpt><trkpt lat="40.627973" lon="14.4791001"><ele>201.0</ele><time>2026-04-06T07:27:27.999Z</time></trkpt><trkpt lat="40.6280493" lon="14.479022"><ele>204.0</ele><time>2026-04-06T07:27:29Z</time></trkpt><trkpt lat="40.628146" lon="14.4789116"><ele>207.0</ele><time>2026-04-06T07:27:30Z</time></trkpt><trkpt lat="40.6282624" lon="14.47882"><ele>210.0</ele><time>2026-04-06T07:27:31Z</time></trkpt><trkpt lat="40.6283832" lon="14.4787455"><ele>210.0</ele><time>2026-04-06T07:27:31.999Z</time></trkpt><trkpt lat="40.6284925" lon="14.4786649"><ele>210.0</ele><time>2026-04-06T07:27:33Z</time></trkpt><trkpt lat="40.628592" lon="14.4785685"><ele>210.0</ele><time>2026-04-06T07:27:34Z</time></trkpt><trkpt lat="40.6286746" lon="14.4784988"><ele>210.0</ele><time>2026-04-06T07:27:35Z</time></trkpt><trkpt lat="40.6287464" lon="14.4783978"><ele>200.5</ele><time>2026-04-06T07:27:36Z</time></trkpt><trkpt lat="40.6288145" lon="14.4782521"><ele>191.0</ele><time>2026-04-06T07:27:37Z</time></trkpt><trkpt lat="40.6288928" lon="14.4780897"><ele>181.5</ele><time>2026-04-06T07:27:38Z</time></trkpt><trkpt lat="40.62899" lon="14.4779045"><ele>172.0</ele><time>2026-04-06T07:27:39Z</time></trkpt><trkpt lat="40.6290953" lon="14.4777305"><ele>172.0</ele><time>2026-04-06T07:27:40Z</time></trkpt><trkpt lat="40.6292427" lon="14.4776378"><ele>172.0</ele><time>2026-04-06T07:27:41Z</time></trkpt><trkpt lat="40.6293697" lon="14.4775213"><ele>172.0</ele><time>2026-04-06T07:27:42Z</time></trkpt><trkpt lat="40.6294878" lon="14.4774224"><ele>178.0</ele><time>2026-04-06T07:27:43Z</time></trkpt><trkpt lat="40.6296091" lon="14.4773543"><ele>184.0</ele><time>2026-04-06T07:27:44Z</time></trkpt><trkpt lat="40.6297301" lon="14.4773258"><ele>190.0</ele><time>2026-04-06T07:27:45Z</time></trkpt><trkpt lat="40.6298451" lon="14.4773314"><ele>196.0</ele><time>2026-04-06T07:27:46Z</time></trkpt><trkpt lat="40.6299516" lon="14.4773479"><ele>195.99999999999997</ele><time>2026-04-06T07:27:47Z</time></trkpt><trkpt lat="40.6300422" lon="14.4773743"><ele>196.0</ele><time>2026-04-06T07:27:48Z</time></trkpt><trkpt lat="40.6301139" lon="14.4774333"><ele>196.0</ele><time>2026-04-06T07:27:49Z</time></trkpt><trkpt lat="40.6301447" lon="14.4775203"><ele>196.0</ele><time>2026-04-06T07:27:50Z</time></trkpt><trkpt lat="40.6301256" lon="14.4776205"><ele>195.99999999999997</ele><time>2026-04-06T07:27:51Z</time></trkpt><trkpt lat="40.6300682" lon="14.4777223"><ele>196.0</ele><time>2026-04-06T07:27:52Z</time></trkpt><trkpt lat="40.6300101" lon="14.477834"><ele>194.20000000000002</ele><time>2026-04-06T07:27:53Z</time></trkpt><trkpt lat="40.6299416" lon="14.4779438"><ele>192.4</ele><time>2026-04-06T07:27:54Z</time></trkpt><trkpt lat="40.6298878" lon="14.4780643"><ele>190.6</ele><time>2026-04-06T07:27:54.999Z</time></trkpt><trkpt lat="40.6298502" lon="14.4782019"><ele>188.8</ele><time>2026-04-06T07:27:55.999Z</time></trkpt><trkpt lat="40.629831" lon="14.4783339"><ele>187.0</ele><time>2026-04-06T07:27:57Z</time></trkpt><trkpt lat="40.6298321" lon="14.4784747"><ele>187.0</ele><time>2026-04-06T07:27:58Z</time></trkpt><trkpt lat="40.6298385" lon="14.4786221"><ele>187.0</ele><time>2026-04-06T07:27:59Z</time></trkpt><trkpt lat="40.6298397" lon="14.4787672"><ele>187.0</ele><time>2026-04-06T07:27:59.999Z</time></trkpt><trkpt lat="40.6298484" lon="14.4789034"><ele>187.0</ele><time>2026-04-06T07:28:01Z</time></trkpt><trkpt lat="40.6298586" lon="14.4790334"><ele>187.0</ele><time>2026-04-06T07:28:02Z</time></trkpt><trkpt lat="40.6298713" lon="14.4791548"><ele>187.33333333333334</ele><time>2026-04-06T07:28:03Z</time></trkpt><trkpt lat="40.6298842" lon="14.479256"><ele>187.66666666666669</ele><time>2026-04-06T07:28:04Z</time></trkpt><trkpt lat="40.6299042" lon="14.4794083"><ele>188.0</ele><time>2026-04-06T07:28:06Z</time></trkpt><trkpt lat="40.6299236" lon="14.4794904"><ele>188.33333333333334</ele><time>2026-04-06T07:28:08Z</time></trkpt><trkpt lat="40.6299412" lon="14.4795789"><ele>188.66666666666666</ele><time>2026-04-06T07:28:10Z</time></trkpt><trkpt lat="40.6299593" lon="14.4796949"><ele>189.0</ele><time>2026-04-06T07:28:12Z</time></trkpt><trkpt lat="40.6299813" lon="14.4798298"><ele>187.2</ele><time>2026-04-06T07:28:14Z</time></trkpt><trkpt lat="40.6299974" lon="14.4799637"><ele>185.39999999999998</ele><time>2026-04-06T07:28:16Z</time></trkpt><trkpt lat="40.6299871" lon="14.4800876"><ele>183.6</ele><time>2026-04-06T07:28:18Z</time></trkpt><trkpt lat="40.6299407" lon="14.4802104"><ele>181.8</ele><time>2026-04-06T07:28:20Z</time></trkpt><trkpt lat="40.6299139" lon="14.4802858"><ele>180.0</ele><time>2026-04-06T07:28:21Z</time></trkpt><trkpt lat="40.6298542" lon="14.4804298"><ele>181.0</ele><time>2026-04-06T07:28:23Z</time></trkpt><trkpt lat="40.6298031" lon="14.4805629"><ele>182.0</ele><time>2026-04-06T07:28:25Z</time></trkpt><trkpt lat="40.6297572" lon="14.4806684"><ele>183.0</ele><time>2026-04-06T07:28:27.151Z</time></trkpt><trkpt lat="40.6297063" lon="14.4807731"><ele>184.0</ele><time>2026-04-06T07:28:29Z</time></trkpt><trkpt lat="40.6296469" lon="14.4808664"><ele>185.0</ele><time>2026-04-06T07:28:31Z</time></trkpt><trkpt lat="40.6295981" lon="14.480964"><ele>185.0</ele><time>2026-04-06T07:28:33Z</time></trkpt><trkpt lat="40.6295754" lon="14.4810808"><ele>185.0</ele><time>2026-04-06T07:28:35Z</time></trkpt><trkpt lat="40.6295674" lon="14.4812042"><ele>185.0</ele><time>2026-04-06T07:28:37Z</time></trkpt><trkpt lat="40.6295589" lon="14.4813356"><ele>185.0</ele><time>2026-04-06T07:28:39Z</time></trkpt><trkpt lat="40.629549" lon="14.481457"><ele>185.0</ele><time>2026-04-06T07:28:41Z</time></trkpt><trkpt lat="40.6295181" lon="14.4815525"><ele>178.0</ele><time>2026-04-06T07:28:43Z</time></trkpt><trkpt lat="40.6294673" lon="14.481637"><ele>171.0</ele><time>2026-04-06T07:28:45Z</time></trkpt><trkpt lat="40.6294311" lon="14.4817165"><ele>164.0</ele><time>2026-04-06T07:28:47Z</time></trkpt><trkpt lat="40.6294071" lon="14.4818318"><ele>157.0</ele><time>2026-04-06T07:28:50Z</time></trkpt><trkpt lat="40.6293928" lon="14.4819187"><ele>150.0</ele><time>2026-04-06T07:28:52Z</time></trkpt><trkpt lat="40.6293696" lon="14.4819972"><ele>143.0</ele><time>2026-04-06T07:28:55Z</time></trkpt><trkpt lat="40.6293429" lon="14.4820939"><ele>143.4</ele><time>2026-04-06T07:29:01Z</time></trkpt><trkpt lat="40.6293319" lon="14.482204"><ele>143.8</ele><time>2026-04-06T07:29:06Z</time></trkpt><trkpt lat="40.6293667" lon="14.4822792"><ele>144.2</ele><time>2026-04-06T07:29:09Z</time></trkpt><trkpt lat="40.6294318" lon="14.4823326"><ele>144.6</ele><time>2026-04-06T07:29:13.999Z</time></trkpt><trkpt lat="40.6295518" lon="14.4823295"><ele>145.0</ele><time>2026-04-06T07:29:17Z</time></trkpt><trkpt lat="40.6296525" lon="14.4822461"><ele>144.0</ele><time>2026-04-06T07:29:19Z</time></trkpt><trkpt lat="40.629751" lon="14.4821597"><ele>143.0</ele><time>2026-04-06T07:29:21Z</time></trkpt><trkpt lat="40.6298505" lon="14.4820822"><ele>142.0</ele><time>2026-04-06T07:29:22.999Z</time></trkpt><trkpt lat="40.6299455" lon="14.4820278"><ele>141.0</ele><time>2026-04-06T07:29:25Z</time></trkpt><trkpt lat="40.6300413" lon="14.4819701"><ele>140.0</ele><time>2026-04-06T07:29:27Z</time></trkpt><trkpt lat="40.63014" lon="14.4818988"><ele>144.6</ele><time>2026-04-06T07:29:29Z</time></trkpt><trkpt lat="40.6302399" lon="14.4818416"><ele>149.2</ele><time>2026-04-06T07:29:31Z</time></trkpt><trkpt lat="40.630353" lon="14.4817886"><ele>153.8</ele><time>2026-04-06T07:29:33Z</time></trkpt><trkpt lat="40.6304434" lon="14.481782"><ele>158.4</ele><time>2026-04-06T07:29:35Z</time></trkpt><trkpt lat="40.6305167" lon="14.4818552"><ele>163.0</ele><time>2026-04-06T07:29:37Z</time></trkpt><trkpt lat="40.6305802" lon="14.481949"><ele>163.0</ele><time>2026-04-06T07:29:39Z</time></trkpt><trkpt lat="40.6306806" lon="14.4819097"><ele>163.0</ele><time>2026-04-06T07:29:41Z</time></trkpt><trkpt lat="40.6307306" lon="14.4818264"><ele>163.0</ele><time>2026-04-06T07:29:42Z</time></trkpt><trkpt lat="40.6308031" lon="14.4817121"><ele>163.0</ele><time>2026-04-06T07:29:43Z</time></trkpt><trkpt lat="40.6308945" lon="14.4816201"><ele>163.0</ele><time>2026-04-06T07:29:44Z</time></trkpt><trkpt lat="40.630987" lon="14.4815791"><ele>163.0</ele><time>2026-04-06T07:29:45Z</time></trkpt><trkpt lat="40.6310883" lon="14.4815965"><ele>163.0</ele><time>2026-04-06T07:29:46Z</time></trkpt><trkpt lat="40.6311977" lon="14.4816483"><ele>163.0</ele><time>2026-04-06T07:29:46.999Z</time></trkpt><trkpt lat="40.6312871" lon="14.4817248"><ele>163.0</ele><time>2026-04-06T07:29:48Z</time></trkpt><trkpt lat="40.6313503" lon="14.4818256"><ele>163.0</ele><time>2026-04-06T07:29:49Z</time></trkpt><trkpt lat="40.6313938" lon="14.4819395"><ele>165.4</ele><time>2026-04-06T07:29:50Z</time></trkpt><trkpt lat="40.6314472" lon="14.4820527"><ele>167.8</ele><time>2026-04-06T07:29:50.999Z</time></trkpt><trkpt lat="40.6315321" lon="14.4821457"><ele>170.2</ele><time>2026-04-06T07:29:52Z</time></trkpt><trkpt lat="40.6316244" lon="14.4822083"><ele>172.6</ele><time>2026-04-06T07:29:53Z</time></trkpt><trkpt lat="40.6317014" lon="14.4822782"><ele>175.0</ele><time>2026-04-06T07:29:54Z</time></trkpt><trkpt lat="40.6317414" lon="14.48238"><ele>169.6</ele><time>2026-04-06T07:29:55Z</time></trkpt><trkpt lat="40.6317363" lon="14.4824798"><ele>164.2</ele><time>2026-04-06T07:29:56Z</time></trkpt><trkpt lat="40.6316998" lon="14.4826129"><ele>158.8</ele><time>2026-04-06T07:29:57Z</time></trkpt><trkpt lat="40.6316427" lon="14.4827467"><ele>153.4</ele><time>2026-04-06T07:29:58Z</time></trkpt><trkpt lat="40.6315899" lon="14.4828769"><ele>148.0</ele><time>2026-04-06T07:29:59Z</time></trkpt><trkpt lat="40.6315577" lon="14.4829969"><ele>143.8</ele><time>2026-04-06T07:30:00Z</time></trkpt><trkpt lat="40.631551" lon="14.4831045"><ele>139.60000000000002</ele><time>2026-04-06T07:30:01Z</time></trkpt><trkpt lat="40.6315857" lon="14.4831814"><ele>135.39999999999998</ele><time>2026-04-06T07:30:02Z</time></trkpt><trkpt lat="40.6317476" lon="14.4831746"><ele>131.2</ele><time>2026-04-06T07:30:03.999Z</time></trkpt><trkpt lat="40.6318485" lon="14.4831233"><ele>127.0</ele><time>2026-04-06T07:30:05Z</time></trkpt><trkpt lat="40.6319791" lon="14.4830657"><ele>124.8</ele><time>2026-04-06T07:30:06Z</time></trkpt><trkpt lat="40.6320926" lon="14.4830444"><ele>122.6</ele><time>2026-04-06T07:30:07Z</time></trkpt><trkpt lat="40.6321919" lon="14.4830173"><ele>120.39999999999999</ele><time>2026-04-06T07:30:08Z</time></trkpt><trkpt lat="40.6322636" lon="14.4829371"><ele>118.19999999999999</ele><time>2026-04-06T07:30:09Z</time></trkpt><trkpt lat="40.632311" lon="14.4828581"><ele>116.0</ele><time>2026-04-06T07:30:10Z</time></trkpt><trkpt lat="40.6323768" lon="14.4828089"><ele>131.0</ele><time>2026-04-06T07:30:11Z</time></trkpt><trkpt lat="40.6324663" lon="14.4828149"><ele>146.0</ele><time>2026-04-06T07:30:12Z</time></trkpt><trkpt lat="40.6325777" lon="14.4828513"><ele>161.0</ele><time>2026-04-06T07:30:13Z</time></trkpt><trkpt lat="40.6327172" lon="14.4828814"><ele>176.0</ele><time>2026-04-06T07:30:14Z</time></trkpt><trkpt lat="40.6328382" lon="14.4829228"><ele>168.60000000000002</ele><time>2026-04-06T07:30:15Z</time></trkpt><trkpt lat="40.6329432" lon="14.4829972"><ele>161.20000000000002</ele><time>2026-04-06T07:30:16Z</time></trkpt><trkpt lat="40.6330193" lon="14.4830969"><ele>153.8</ele><time>2026-04-06T07:30:17Z</time></trkpt><trkpt lat="40.6330858" lon="14.483192"><ele>146.4</ele><time>2026-04-06T07:30:18Z</time></trkpt><trkpt lat="40.6331612" lon="14.4832615"><ele>139.0</ele><time>2026-04-06T07:30:18.999Z</time></trkpt><trkpt lat="40.633251" lon="14.4833036"><ele>139.0</ele><time>2026-04-06T07:30:20Z</time></trkpt><trkpt lat="40.6333477" lon="14.4833329"><ele>139.0</ele><time>2026-04-06T07:30:21Z</time></trkpt><trkpt lat="40.633446" lon="14.4833576"><ele>139.0</ele><time>2026-04-06T07:30:22Z</time></trkpt><trkpt lat="40.6335419" lon="14.4833748"><ele>139.0</ele><time>2026-04-06T07:30:23Z</time></trkpt><trkpt lat="40.6336335" lon="14.4833917"><ele>139.0</ele><time>2026-04-06T07:30:24Z</time></trkpt><trkpt lat="40.6337045" lon="14.4834535"><ele>141.8</ele><time>2026-04-06T07:30:25Z</time></trkpt><trkpt lat="40.6337575" lon="14.4835469"><ele>144.60000000000002</ele><time>2026-04-06T07:30:26Z</time></trkpt><trkpt lat="40.6337872" lon="14.4836618"><ele>147.4</ele><time>2026-04-06T07:30:27Z</time></trkpt><trkpt lat="40.6338188" lon="14.4837924"><ele>150.20000000000002</ele><time>2026-04-06T07:30:28Z</time></trkpt><trkpt lat="40.6338772" lon="14.4839421"><ele>153.0</ele><time>2026-04-06T07:30:28.999Z</time></trkpt><trkpt lat="40.6339443" lon="14.4841063"><ele>153.0</ele><time>2026-04-06T07:30:30Z</time></trkpt><trkpt lat="40.6340031" lon="14.4842605"><ele>153.0</ele><time>2026-04-06T07:30:31Z</time></trkpt><trkpt lat="40.6340608" lon="14.4844192"><ele>153.0</ele><time>2026-04-06T07:30:32Z</time></trkpt><trkpt lat="40.6341141" lon="14.4845719"><ele>153.0</ele><time>2026-04-06T07:30:33Z</time></trkpt><trkpt lat="40.6341677" lon="14.4847096"><ele>155.5</ele><time>2026-04-06T07:30:33.999Z</time></trkpt><trkpt lat="40.6342115" lon="14.4848252"><ele>158.0</ele><time>2026-04-06T07:30:35Z</time></trkpt><trkpt lat="40.6342455" lon="14.4849265"><ele>160.5</ele><time>2026-04-06T07:30:36Z</time></trkpt><trkpt lat="40.6342478" lon="14.4850247"><ele>163.0</ele><time>2026-04-06T07:30:36.999Z</time></trkpt><trkpt lat="40.6342208" lon="14.4851077"><ele>165.5</ele><time>2026-04-06T07:30:38Z</time></trkpt><trkpt lat="40.6341646" lon="14.4851524"><ele>168.0</ele><time>2026-04-06T07:30:39Z</time></trkpt><trkpt lat="40.6340958" lon="14.4851442"><ele>168.0</ele><time>2026-04-06T07:30:40Z</time></trkpt><trkpt lat="40.6340199" lon="14.4850185"><ele>168.0</ele><time>2026-04-06T07:30:42Z</time></trkpt><trkpt lat="40.6339563" lon="14.4849327"><ele>168.0</ele><time>2026-04-06T07:30:43Z</time></trkpt><trkpt lat="40.6337604" lon="14.4848165"><ele>168.0</ele><time>2026-04-06T07:30:44Z</time></trkpt><trkpt lat="40.6336257" lon="14.4847508"><ele>166.0</ele><time>2026-04-06T07:30:45Z</time></trkpt><trkpt lat="40.6335239" lon="14.4847142"><ele>164.0</ele><time>2026-04-06T07:30:46Z</time></trkpt><trkpt lat="40.6334362" lon="14.4847319"><ele>162.0</ele><time>2026-04-06T07:30:46.999Z</time></trkpt><trkpt lat="40.63336" lon="14.4847823"><ele>160.0</ele><time>2026-04-06T07:30:48Z</time></trkpt><trkpt lat="40.6332789" lon="14.4848468"><ele>158.0</ele><time>2026-04-06T07:30:49Z</time></trkpt><trkpt lat="40.6331854" lon="14.484881"><ele>158.0</ele><time>2026-04-06T07:30:50Z</time></trkpt><trkpt lat="40.6330811" lon="14.4848749"><ele>158.0</ele><time>2026-04-06T07:30:51Z</time></trkpt><trkpt lat="40.6329703" lon="14.4848707"><ele>158.0</ele><time>2026-04-06T07:30:52Z</time></trkpt><trkpt lat="40.6328575" lon="14.484893"><ele>158.0</ele><time>2026-04-06T07:30:53Z</time></trkpt><trkpt lat="40.6327357" lon="14.4849348"><ele>149.75</ele><time>2026-04-06T07:30:54Z</time></trkpt><trkpt lat="40.632619" lon="14.4849926"><ele>141.5</ele><time>2026-04-06T07:30:55Z</time></trkpt><trkpt lat="40.6324992" lon="14.4850274"><ele>133.25</ele><time>2026-04-06T07:30:56Z</time></trkpt><trkpt lat="40.6323856" lon="14.485025"><ele>125.0</ele><time>2026-04-06T07:30:57Z</time></trkpt><trkpt lat="40.632274" lon="14.4850318"><ele>124.99999999999999</ele><time>2026-04-06T07:30:58Z</time></trkpt><trkpt lat="40.6321674" lon="14.4850454"><ele>125.0</ele><time>2026-04-06T07:30:59Z</time></trkpt><trkpt lat="40.6320788" lon="14.4850666"><ele>125.0</ele><time>2026-04-06T07:31:00Z</time></trkpt><trkpt lat="40.6319971" lon="14.4850869"><ele>125.0</ele><time>2026-04-06T07:31:01Z</time></trkpt><trkpt lat="40.6319221" lon="14.4851137"><ele>124.99999999999999</ele><time>2026-04-06T07:31:02Z</time></trkpt><trkpt lat="40.631852" lon="14.4851573"><ele>125.0</ele><time>2026-04-06T07:31:03Z</time></trkpt><trkpt lat="40.6317857" lon="14.4851978"><ele>126.66666666666666</ele><time>2026-04-06T07:31:04Z</time></trkpt><trkpt lat="40.6317283" lon="14.4852427"><ele>128.33333333333331</ele><time>2026-04-06T07:31:05Z</time></trkpt><trkpt lat="40.6316551" lon="14.485306"><ele>130.0</ele><time>2026-04-06T07:31:07Z</time></trkpt><trkpt lat="40.6315907" lon="14.4853353"><ele>131.66666666666666</ele><time>2026-04-06T07:31:18Z</time></trkpt><trkpt lat="40.6315188" lon="14.4854678"><ele>133.33333333333334</ele><time>2026-04-06T07:41:37Z</time></trkpt><trkpt lat="40.631455" lon="14.4855412"><ele>135.0</ele><time>2026-04-06T07:41:38Z</time></trkpt><trkpt lat="40.6313799" lon="14.4856058"><ele>135.0</ele><time>2026-04-06T07:41:39Z</time></trkpt><trkpt lat="40.6312945" lon="14.4856603"><ele>135.0</ele><time>2026-04-06T07:41:40Z</time></trkpt><trkpt lat="40.6311844" lon="14.4857037"><ele>135.0</ele><time>2026-04-06T07:41:41Z</time></trkpt><trkpt lat="40.6310707" lon="14.485745"><ele>135.0</ele><time>2026-04-06T07:41:41.999Z</time></trkpt><trkpt lat="40.6309655" lon="14.4857851"><ele>135.0</ele><time>2026-04-06T07:41:43Z</time></trkpt><trkpt lat="40.6308802" lon="14.4858381"><ele>128.66666666666666</ele><time>2026-04-06T07:41:44Z</time></trkpt><trkpt lat="40.6308127" lon="14.4859076"><ele>122.33333333333334</ele><time>2026-04-06T07:41:44.999Z</time></trkpt><trkpt lat="40.6307587" lon="14.4859825"><ele>116.0</ele><time>2026-04-06T07:41:46Z</time></trkpt><trkpt lat="40.6307309" lon="14.4860838"><ele>109.66666666666667</ele><time>2026-04-06T07:41:47Z</time></trkpt><trkpt lat="40.6307408" lon="14.4861946"><ele>103.33333333333334</ele><time>2026-04-06T07:41:48Z</time></trkpt><trkpt lat="40.6307789" lon="14.4863123"><ele>97.0</ele><time>2026-04-06T07:41:48.999Z</time></trkpt><trkpt lat="40.6308196" lon="14.4864193"><ele>97.0</ele><time>2026-04-06T07:41:50Z</time></trkpt><trkpt lat="40.6308762" lon="14.4865023"><ele>97.0</ele><time>2026-04-06T07:41:51Z</time></trkpt><trkpt lat="40.6309512" lon="14.486554"><ele>97.0</ele><time>2026-04-06T07:41:52Z</time></trkpt><trkpt lat="40.6310382" lon="14.4865638"><ele>97.0</ele><time>2026-04-06T07:41:53Z</time></trkpt><trkpt lat="40.631151" lon="14.4865657"><ele>97.0</ele><time>2026-04-06T07:41:54Z</time></trkpt><trkpt lat="40.6312477" lon="14.486583"><ele>102.50000000000001</ele><time>2026-04-06T07:41:55Z</time></trkpt><trkpt lat="40.6313304" lon="14.4866357"><ele>108.0</ele><time>2026-04-06T07:41:56Z</time></trkpt><trkpt lat="40.6313988" lon="14.4866855"><ele>113.5</ele><time>2026-04-06T07:41:57Z</time></trkpt><trkpt lat="40.6314505" lon="14.4867532"><ele>119.0</ele><time>2026-04-06T07:41:58Z</time></trkpt><trkpt lat="40.6314842" lon="14.4868264"><ele>124.50000000000001</ele><time>2026-04-06T07:41:59Z</time></trkpt><trkpt lat="40.6314556" lon="14.4869405"><ele>130.0</ele><time>2026-04-06T07:42:01Z</time></trkpt><trkpt lat="40.6313232" lon="14.4869426"><ele>130.0</ele><time>2026-04-06T07:42:03Z</time></trkpt><trkpt lat="40.6312403" lon="14.486963"><ele>130.0</ele><time>2026-04-06T07:42:04Z</time></trkpt><trkpt lat="40.6311727" lon="14.4870729"><ele>130.0</ele><time>2026-04-06T07:42:05Z</time></trkpt><trkpt lat="40.6310789" lon="14.4871656"><ele>130.0</ele><time>2026-04-06T07:42:06Z</time></trkpt><trkpt lat="40.6309881" lon="14.4872445"><ele>130.0</ele><time>2026-04-06T07:42:07Z</time></trkpt><trkpt lat="40.6308908" lon="14.4873019"><ele>126.16666666666667</ele><time>2026-04-06T07:42:08Z</time></trkpt><trkpt lat="40.6307916" lon="14.4873264"><ele>122.33333333333334</ele><time>2026-04-06T07:42:09Z</time></trkpt><trkpt lat="40.6306973" lon="14.4873272"><ele>118.5</ele><time>2026-04-06T07:42:10Z</time></trkpt><trkpt lat="40.6306095" lon="14.487333"><ele>114.66666666666666</ele><time>2026-04-06T07:42:11Z</time></trkpt><trkpt lat="40.6305233" lon="14.4873475"><ele>110.83333333333333</ele><time>2026-04-06T07:42:12Z</time></trkpt><trkpt lat="40.63045" lon="14.4873762"><ele>107.0</ele><time>2026-04-06T07:42:13Z</time></trkpt><trkpt lat="40.6303566" lon="14.4874527"><ele>101.6</ele><time>2026-04-06T07:42:15Z</time></trkpt><trkpt lat="40.6302653" lon="14.4875473"><ele>96.19999999999999</ele><time>2026-04-06T07:42:17Z</time></trkpt><trkpt lat="40.630195" lon="14.4875878"><ele>90.8</ele><time>2026-04-06T07:42:18Z</time></trkpt><trkpt lat="40.6301015" lon="14.4875953"><ele>85.4</ele><time>2026-04-06T07:42:19Z</time></trkpt><trkpt lat="40.6300074" lon="14.487596"><ele>80.0</ele><time>2026-04-06T07:42:20Z</time></trkpt><trkpt lat="40.6299226" lon="14.4876118"><ele>80.0</ele><time>2026-04-06T07:42:21Z</time></trkpt><trkpt lat="40.6298417" lon="14.4876536"><ele>80.0</ele><time>2026-04-06T07:42:22Z</time></trkpt><trkpt lat="40.6297533" lon="14.4877452"><ele>80.0</ele><time>2026-04-06T07:42:23Z</time></trkpt><trkpt lat="40.6296465" lon="14.4878419"><ele>80.0</ele><time>2026-04-06T07:42:24Z</time></trkpt><trkpt lat="40.6295294" lon="14.4879174"><ele>81.75</ele><time>2026-04-06T07:42:25Z</time></trkpt><trkpt lat="40.6294215" lon="14.4879929"><ele>83.5</ele><time>2026-04-06T07:42:26Z</time></trkpt><trkpt lat="40.6293273" lon="14.4880808"><ele>85.25</ele><time>2026-04-06T07:42:27Z</time></trkpt><trkpt lat="40.6292404" lon="14.4881634"><ele>87.0</ele><time>2026-04-06T07:42:28Z</time></trkpt><trkpt lat="40.6291508" lon="14.4882443"><ele>87.0</ele><time>2026-04-06T07:42:29Z</time></trkpt><trkpt lat="40.6290608" lon="14.4883347"><ele>87.0</ele><time>2026-04-06T07:42:30Z</time></trkpt><trkpt lat="40.6289687" lon="14.4884607"><ele>87.0</ele><time>2026-04-06T07:42:31Z</time></trkpt><trkpt lat="40.6288866" lon="14.4886184"><ele>87.0</ele><time>2026-04-06T07:42:31.999Z</time></trkpt><trkpt lat="40.6287743" lon="14.4887754"><ele>83.5</ele><time>2026-04-06T07:42:32.999Z</time></trkpt><trkpt lat="40.6286741" lon="14.488931"><ele>80.0</ele><time>2026-04-06T07:42:34Z</time></trkpt><trkpt lat="40.628596" lon="14.489097"><ele>76.5</ele><time>2026-04-06T07:42:35Z</time></trkpt><trkpt lat="40.6285083" lon="14.4892418"><ele>73.0</ele><time>2026-04-06T07:42:36Z</time></trkpt><trkpt lat="40.6284114" lon="14.4893688"><ele>73.0</ele><time>2026-04-06T07:42:37Z</time></trkpt><trkpt lat="40.6283264" lon="14.4894989"><ele>73.0</ele><time>2026-04-06T07:42:37.999Z</time></trkpt><trkpt lat="40.6282518" lon="14.4896385"><ele>73.0</ele><time>2026-04-06T07:42:39Z</time></trkpt><trkpt lat="40.6281802" lon="14.4897831"><ele>73.0</ele><time>2026-04-06T07:42:40Z</time></trkpt><trkpt lat="40.6281307" lon="14.4899337"><ele>79.6</ele><time>2026-04-06T07:42:41Z</time></trkpt><trkpt lat="40.6280895" lon="14.4900826"><ele>86.19999999999999</ele><time>2026-04-06T07:42:41.999Z</time></trkpt><trkpt lat="40.6280398" lon="14.4902131"><ele>92.8</ele><time>2026-04-06T07:42:43Z</time></trkpt><trkpt lat="40.6279928" lon="14.4903174"><ele>99.39999999999999</ele><time>2026-04-06T07:42:44Z</time></trkpt><trkpt lat="40.6279276" lon="14.4903756"><ele>106.0</ele><time>2026-04-06T07:42:45Z</time></trkpt><trkpt lat="40.6278777" lon="14.4904888"><ele>91.50000000000001</ele><time>2026-04-06T07:42:46Z</time></trkpt><trkpt lat="40.6278281" lon="14.4905985"><ele>77.0</ele><time>2026-04-06T07:42:47Z</time></trkpt><trkpt lat="40.6277852" lon="14.4906918"><ele>62.5</ele><time>2026-04-06T07:42:48Z</time></trkpt><trkpt lat="40.6277426" lon="14.4907843"><ele>48.0</ele><time>2026-04-06T07:42:49Z</time></trkpt><trkpt lat="40.6276946" lon="14.4908656"><ele>33.5</ele><time>2026-04-06T07:42:50Z</time></trkpt><trkpt lat="40.6276404" lon="14.4909644"><ele>19.0</ele><time>2026-04-06T07:42:51Z</time></trkpt><trkpt lat="40.6276055" lon="14.4910941"><ele>19.0</ele><time>2026-04-06T07:42:52Z</time></trkpt><trkpt lat="40.6275879" lon="14.4912436"><ele>19.0</ele><time>2026-04-06T07:42:53Z</time></trkpt><trkpt lat="40.6275815" lon="14.4913804"><ele>19.0</ele><time>2026-04-06T07:42:54Z</time></trkpt><trkpt lat="40.6275875" lon="14.4914923"><ele>19.0</ele><time>2026-04-06T07:42:55Z</time></trkpt><trkpt lat="40.6276351" lon="14.4915775"><ele>19.0</ele><time>2026-04-06T07:42:56Z</time></trkpt><trkpt lat="40.6277133" lon="14.4916577"><ele>19.0</ele><time>2026-04-06T07:42:57Z</time></trkpt><trkpt lat="40.62782" lon="14.4917509"><ele>19.0</ele><time>2026-04-06T07:42:58Z</time></trkpt><trkpt lat="40.6279298" lon="14.4918446"><ele>19.0</ele><time>2026-04-06T07:42:59Z</time></trkpt><trkpt lat="40.6280419" lon="14.4919149"><ele>19.0</ele><time>2026-04-06T07:43:00Z</time></trkpt><trkpt lat="40.6281457" lon="14.4919652"><ele>19.0</ele><time>2026-04-06T07:43:01Z</time></trkpt><trkpt lat="40.628223" lon="14.4920397"><ele>19.0</ele><time>2026-04-06T07:43:01.999Z</time></trkpt><trkpt lat="40.6283015" lon="14.4921114"><ele>19.0</ele><time>2026-04-06T07:43:03Z</time></trkpt><trkpt lat="40.6282691" lon="14.4922723"><ele>19.0</ele><time>2026-04-06T07:43:04Z</time></trkpt><trkpt lat="40.6282541" lon="14.4924014"><ele>19.0</ele><time>2026-04-06T07:43:05Z</time></trkpt><trkpt lat="40.6281646" lon="14.4924947"><ele>35.0</ele><time>2026-04-06T07:43:06Z</time></trkpt><trkpt lat="40.6280715" lon="14.4926045"><ele>51.0</ele><time>2026-04-06T07:43:07Z</time></trkpt><trkpt lat="40.6279884" lon="14.492734"><ele>67.0</ele><time>2026-04-06T07:43:08Z</time></trkpt><trkpt lat="40.6279183" lon="14.4928943"><ele>83.0</ele><time>2026-04-06T07:43:08.999Z</time></trkpt><trkpt lat="40.6278496" lon="14.4930656"><ele>71.75</ele><time>2026-04-06T07:43:09.999Z</time></trkpt><trkpt lat="40.6277837" lon="14.4932259"><ele>60.5</ele><time>2026-04-06T07:43:11Z</time></trkpt><trkpt lat="40.6277356" lon="14.493384"><ele>49.25</ele><time>2026-04-06T07:43:12Z</time></trkpt><trkpt lat="40.627696" lon="14.4935463"><ele>38.0</ele><time>2026-04-06T07:43:13Z</time></trkpt><trkpt lat="40.6276873" lon="14.4937062"><ele>38.199999999999996</ele><time>2026-04-06T07:43:14Z</time></trkpt><trkpt lat="40.6276988" lon="14.4938565"><ele>38.4</ele><time>2026-04-06T07:43:15Z</time></trkpt><trkpt lat="40.6277332" lon="14.493995"><ele>38.599999999999994</ele><time>2026-04-06T07:43:16Z</time></trkpt><trkpt lat="40.6277859" lon="14.4940963"><ele>38.8</ele><time>2026-04-06T07:43:17Z</time></trkpt><trkpt lat="40.6278583" lon="14.4941564"><ele>39.0</ele><time>2026-04-06T07:43:18Z</time></trkpt><trkpt lat="40.6279513" lon="14.4942001"><ele>49.4</ele><time>2026-04-06T07:43:19Z</time></trkpt><trkpt lat="40.6280558" lon="14.4942439"><ele>59.8</ele><time>2026-04-06T07:43:20Z</time></trkpt><trkpt lat="40.6281504" lon="14.4942986"><ele>70.19999999999999</ele><time>2026-04-06T07:43:21Z</time></trkpt><trkpt lat="40.6282257" lon="14.4943749"><ele>80.6</ele><time>2026-04-06T07:43:21.999Z</time></trkpt><trkpt lat="40.6282724" lon="14.4944653"><ele>91.0</ele><time>2026-04-06T07:43:23Z</time></trkpt><trkpt lat="40.6282833" lon="14.4945663"><ele>92.83333333333333</ele><time>2026-04-06T07:43:24Z</time></trkpt><trkpt lat="40.6282636" lon="14.4946622"><ele>94.66666666666666</ele><time>2026-04-06T07:43:25Z</time></trkpt><trkpt lat="40.6282196" lon="14.4947418"><ele>96.5</ele><time>2026-04-06T07:43:26Z</time></trkpt><trkpt lat="40.6281434" lon="14.4948038"><ele>98.33333333333333</ele><time>2026-04-06T07:43:27Z</time></trkpt><trkpt lat="40.6280561" lon="14.49486"><ele>100.16666666666667</ele><time>2026-04-06T07:43:28Z</time></trkpt><trkpt lat="40.6279613" lon="14.4948984"><ele>102.0</ele><time>2026-04-06T07:43:29Z</time></trkpt><trkpt lat="40.627853" lon="14.4948786"><ele>89.19999999999999</ele><time>2026-04-06T07:43:30Z</time></trkpt><trkpt lat="40.6277575" lon="14.4948739"><ele>76.39999999999999</ele><time>2026-04-06T07:43:31Z</time></trkpt><trkpt lat="40.6276818" lon="14.4949058"><ele>63.599999999999994</ele><time>2026-04-06T07:43:32Z</time></trkpt><trkpt lat="40.6276229" lon="14.4949776"><ele>50.8</ele><time>2026-04-06T07:43:33Z</time></trkpt><trkpt lat="40.6275564" lon="14.495048"><ele>38.0</ele><time>2026-04-06T07:43:34Z</time></trkpt><trkpt lat="40.6275502" lon="14.4952267"><ele>38.0</ele><time>2026-04-06T07:43:34.999Z</time></trkpt><trkpt lat="40.6275163" lon="14.4953875"><ele>38.0</ele><time>2026-04-06T07:43:36Z</time></trkpt><trkpt lat="40.6275076" lon="14.4955713"><ele>38.0</ele><time>2026-04-06T07:43:37Z</time></trkpt><trkpt lat="40.6275091" lon="14.4957422"><ele>38.0</ele><time>2026-04-06T07:43:38Z</time></trkpt><trkpt lat="40.6275023" lon="14.495896"><ele>41.599999999999994</ele><time>2026-04-06T07:43:39Z</time></trkpt><trkpt lat="40.6275045" lon="14.4960293"><ele>45.199999999999996</ele><time>2026-04-06T07:43:40Z</time></trkpt><trkpt lat="40.6275108" lon="14.4961544"><ele>48.8</ele><time>2026-04-06T07:43:41Z</time></trkpt><trkpt lat="40.6275232" lon="14.4962637"><ele>52.4</ele><time>2026-04-06T07:43:42Z</time></trkpt><trkpt lat="40.6276477" lon="14.4963202"><ele>56.0</ele><time>2026-04-06T07:43:43Z</time></trkpt><trkpt lat="40.6277387" lon="14.4964"><ele>64.0</ele><time>2026-04-06T07:43:43.999Z</time></trkpt><trkpt lat="40.6278442" lon="14.4964779"><ele>72.0</ele><time>2026-04-06T07:43:45Z</time></trkpt><trkpt lat="40.6279551" lon="14.4965292"><ele>80.0</ele><time>2026-04-06T07:43:46Z</time></trkpt><trkpt lat="40.6280522" lon="14.496575"><ele>88.0</ele><time>2026-04-06T07:43:47Z</time></trkpt><trkpt lat="40.6281345" lon="14.4966493"><ele>96.0</ele><time>2026-04-06T07:43:47.999Z</time></trkpt><trkpt lat="40.628207" lon="14.4967549"><ele>96.0</ele><time>2026-04-06T07:43:49Z</time></trkpt><trkpt lat="40.628244" lon="14.496885"><ele>96.0</ele><time>2026-04-06T07:43:50Z</time></trkpt><trkpt lat="40.6282603" lon="14.4969991"><ele>96.0</ele><time>2026-04-06T07:43:51Z</time></trkpt><trkpt lat="40.6282064" lon="14.4971077"><ele>96.0</ele><time>2026-04-06T07:43:52Z</time></trkpt><trkpt lat="40.6281447" lon="14.497178"><ele>96.0</ele><time>2026-04-06T07:43:53Z</time></trkpt><trkpt lat="40.6280604" lon="14.497191"><ele>96.0</ele><time>2026-04-06T07:43:54Z</time></trkpt><trkpt lat="40.6279799" lon="14.4971425"><ele>96.0</ele><time>2026-04-06T07:43:55Z</time></trkpt><trkpt lat="40.6278787" lon="14.4970808"><ele>96.0</ele><time>2026-04-06T07:43:56Z</time></trkpt><trkpt lat="40.6277655" lon="14.4969918"><ele>96.0</ele><time>2026-04-06T07:43:57Z</time></trkpt><trkpt lat="40.6276323" lon="14.4969599"><ele>88.0</ele><time>2026-04-06T07:43:58Z</time></trkpt><trkpt lat="40.6274889" lon="14.4969302"><ele>80.0</ele><time>2026-04-06T07:43:59Z</time></trkpt><trkpt lat="40.6273258" lon="14.4969272"><ele>72.0</ele><time>2026-04-06T07:44:00Z</time></trkpt><trkpt lat="40.6271523" lon="14.4969824"><ele>72.0</ele><time>2026-04-06T07:44:01Z</time></trkpt><trkpt lat="40.6270034" lon="14.4970347"><ele>72.0</ele><time>2026-04-06T07:44:02Z</time></trkpt><trkpt lat="40.6268638" lon="14.4970807"><ele>72.0</ele><time>2026-04-06T07:44:03Z</time></trkpt><trkpt lat="40.6267441" lon="14.497141"><ele>72.0</ele><time>2026-04-06T07:44:04Z</time></trkpt><trkpt lat="40.6266431" lon="14.4972279"><ele>75.0</ele><time>2026-04-06T07:44:05Z</time></trkpt><trkpt lat="40.6265423" lon="14.4973252"><ele>78.0</ele><time>2026-04-06T07:44:06Z</time></trkpt><trkpt lat="40.6264461" lon="14.4974187"><ele>81.0</ele><time>2026-04-06T07:44:07Z</time></trkpt><trkpt lat="40.6263641" lon="14.497527"><ele>84.0</ele><time>2026-04-06T07:44:08Z</time></trkpt><trkpt lat="40.6263023" lon="14.497654"><ele>84.0</ele><time>2026-04-06T07:44:09Z</time></trkpt><trkpt lat="40.6262405" lon="14.4977984"><ele>84.0</ele><time>2026-04-06T07:44:09.999Z</time></trkpt><trkpt lat="40.6261838" lon="14.4979337"><ele>84.0</ele><time>2026-04-06T07:44:11Z</time></trkpt><trkpt lat="40.6261401" lon="14.4980658"><ele>84.0</ele><time>2026-04-06T07:44:12Z</time></trkpt><trkpt lat="40.6261262" lon="14.4982125"><ele>84.2</ele><time>2026-04-06T07:44:13Z</time></trkpt><trkpt lat="40.6261397" lon="14.4983698"><ele>84.4</ele><time>2026-04-06T07:44:14Z</time></trkpt><trkpt lat="40.6261628" lon="14.498523"><ele>84.6</ele><time>2026-04-06T07:44:15Z</time></trkpt><trkpt lat="40.6261566" lon="14.498663"><ele>84.8</ele><time>2026-04-06T07:44:15.999Z</time></trkpt><trkpt lat="40.6261182" lon="14.49879"><ele>85.0</ele><time>2026-04-06T07:44:17Z</time></trkpt><trkpt lat="40.6260443" lon="14.4988854"><ele>85.0</ele><time>2026-04-06T07:44:17.999Z</time></trkpt><trkpt lat="40.6259459" lon="14.498939"><ele>85.0</ele><time>2026-04-06T07:44:19Z</time></trkpt><trkpt lat="40.6258307" lon="14.4989849"><ele>85.0</ele><time>2026-04-06T07:44:20Z</time></trkpt><trkpt lat="40.6257098" lon="14.4990568"><ele>85.0</ele><time>2026-04-06T07:44:21Z</time></trkpt><trkpt lat="40.6255988" lon="14.4991637"><ele>85.0</ele><time>2026-04-06T07:44:22Z</time></trkpt><trkpt lat="40.6254989" lon="14.4993042"><ele>85.0</ele><time>2026-04-06T07:44:23Z</time></trkpt><trkpt lat="40.6254139" lon="14.4994777"><ele>85.0</ele><time>2026-04-06T07:44:24Z</time></trkpt><trkpt lat="40.6253263" lon="14.4996684"><ele>83.0</ele><time>2026-04-06T07:44:25Z</time></trkpt><trkpt lat="40.6252259" lon="14.4998518"><ele>81.0</ele><time>2026-04-06T07:44:26Z</time></trkpt><trkpt lat="40.6251221" lon="14.50002"><ele>79.0</ele><time>2026-04-06T07:44:27Z</time></trkpt><trkpt lat="40.6250259" lon="14.500181"><ele>79.0</ele><time>2026-04-06T07:44:28Z</time></trkpt><trkpt lat="40.6249476" lon="14.5003368"><ele>79.0</ele><time>2026-04-06T07:44:29Z</time></trkpt><trkpt lat="40.6248795" lon="14.5004853"><ele>79.0</ele><time>2026-04-06T07:44:30Z</time></trkpt><trkpt lat="40.6248202" lon="14.500626"><ele>79.0</ele><time>2026-04-06T07:44:31Z</time></trkpt><trkpt lat="40.6247711" lon="14.500757"><ele>83.66666666666666</ele><time>2026-04-06T07:44:32Z</time></trkpt><trkpt lat="40.6247285" lon="14.500873"><ele>88.33333333333333</ele><time>2026-04-06T07:44:33Z</time></trkpt><trkpt lat="40.624693" lon="14.5009784"><ele>93.0</ele><time>2026-04-06T07:44:34Z</time></trkpt><trkpt lat="40.6246541" lon="14.5010674"><ele>97.66666666666666</ele><time>2026-04-06T07:44:35Z</time></trkpt><trkpt lat="40.6246124" lon="14.5011492"><ele>102.33333333333333</ele><time>2026-04-06T07:44:35.999Z</time></trkpt><trkpt lat="40.6245633" lon="14.5012284"><ele>107.0</ele><time>2026-04-06T07:44:37Z</time></trkpt><trkpt lat="40.6245135" lon="14.5013065"><ele>101.66666666666666</ele><time>2026-04-06T07:44:38Z</time></trkpt><trkpt lat="40.6244527" lon="14.5013875"><ele>96.33333333333333</ele><time>2026-04-06T07:44:39Z</time></trkpt><trkpt lat="40.6243871" lon="14.5014604"><ele>91.0</ele><time>2026-04-06T07:44:40Z</time></trkpt><trkpt lat="40.6243293" lon="14.5015199"><ele>85.66666666666666</ele><time>2026-04-06T07:44:41Z</time></trkpt><trkpt lat="40.6242762" lon="14.501573"><ele>80.33333333333333</ele><time>2026-04-06T07:44:42Z</time></trkpt><trkpt lat="40.6241811" lon="14.5016785"><ele>75.0</ele><time>2026-04-06T07:44:44Z</time></trkpt><trkpt lat="40.6241348" lon="14.5017455"><ele>75.0</ele><time>2026-04-06T07:44:45Z</time></trkpt><trkpt lat="40.62409" lon="14.5018165"><ele>75.0</ele><time>2026-04-06T07:44:46Z</time></trkpt><trkpt lat="40.6240472" lon="14.5018903"><ele>75.0</ele><time>2026-04-06T07:44:47Z</time></trkpt><trkpt lat="40.6239828" lon="14.5019858"><ele>75.0</ele><time>2026-04-06T07:44:48.999Z</time></trkpt><trkpt lat="40.6239403" lon="14.5020858"><ele>75.0</ele><time>2026-04-06T07:44:52Z</time></trkpt><trkpt lat="40.6239503" lon="14.5021892"><ele>75.0</ele><time>2026-04-06T07:44:54Z</time></trkpt><trkpt lat="40.6240463" lon="14.5022953"><ele>77.0</ele><time>2026-04-06T07:44:56Z</time></trkpt><trkpt lat="40.6241118" lon="14.5023339"><ele>79.0</ele><time>2026-04-06T07:44:57Z</time></trkpt><trkpt lat="40.6241935" lon="14.5023789"><ele>81.0</ele><time>2026-04-06T07:44:58Z</time></trkpt><trkpt lat="40.6242711" lon="14.5024464"><ele>83.0</ele><time>2026-04-06T07:44:59Z</time></trkpt><trkpt lat="40.6243372" lon="14.502545"><ele>85.0</ele><time>2026-04-06T07:45:00Z</time></trkpt><trkpt lat="40.6243926" lon="14.5026797"><ele>85.0</ele><time>2026-04-06T07:45:01Z</time></trkpt><trkpt lat="40.6244504" lon="14.5028486"><ele>85.0</ele><time>2026-04-06T07:45:02Z</time></trkpt><trkpt lat="40.6245002" lon="14.5030157"><ele>85.0</ele><time>2026-04-06T07:45:03Z</time></trkpt><trkpt lat="40.6245485" lon="14.503172"><ele>85.0</ele><time>2026-04-06T07:45:04Z</time></trkpt><trkpt lat="40.6245911" lon="14.5033047"><ele>92.28571428571429</ele><time>2026-04-06T07:45:05Z</time></trkpt><trkpt lat="40.6246287" lon="14.5034115"><ele>99.57142857142856</ele><time>2026-04-06T07:45:06Z</time></trkpt><trkpt lat="40.6246562" lon="14.5034997"><ele>106.85714285714285</ele><time>2026-04-06T07:45:07Z</time></trkpt><trkpt lat="40.6246691" lon="14.5035857"><ele>114.14285714285714</ele><time>2026-04-06T07:45:08Z</time></trkpt><trkpt lat="40.6246578" lon="14.5036737"><ele>121.42857142857142</ele><time>2026-04-06T07:45:09Z</time></trkpt><trkpt lat="40.6246185" lon="14.5037534"><ele>128.7142857142857</ele><time>2026-04-06T07:45:10Z</time></trkpt><trkpt lat="40.6245723" lon="14.5038232"><ele>136.0</ele><time>2026-04-06T07:45:11Z</time></trkpt><trkpt lat="40.6244963" lon="14.5038523"><ele>129.5</ele><time>2026-04-06T07:45:12Z</time></trkpt><trkpt lat="40.624396" lon="14.5038551"><ele>123.0</ele><time>2026-04-06T07:45:13Z</time></trkpt><trkpt lat="40.6242796" lon="14.5038588"><ele>116.5</ele><time>2026-04-06T07:45:14Z</time></trkpt><trkpt lat="40.6241329" lon="14.5038433"><ele>110.0</ele><time>2026-04-06T07:45:15Z</time></trkpt><trkpt lat="40.6239878" lon="14.5038284"><ele>110.0</ele><time>2026-04-06T07:45:16Z</time></trkpt><trkpt lat="40.623852" lon="14.5038252"><ele>110.0</ele><time>2026-04-06T07:45:17Z</time></trkpt><trkpt lat="40.6237344" lon="14.5038256"><ele>110.0</ele><time>2026-04-06T07:45:18Z</time></trkpt><trkpt lat="40.6236355" lon="14.503849"><ele>110.0</ele><time>2026-04-06T07:45:19Z</time></trkpt><trkpt lat="40.6235629" lon="14.5039024"><ele>110.0</ele><time>2026-04-06T07:45:20Z</time></trkpt><trkpt lat="40.6235246" lon="14.5039866"><ele>101.0</ele><time>2026-04-06T07:45:20.999Z</time></trkpt><trkpt lat="40.6235209" lon="14.5040941"><ele>92.0</ele><time>2026-04-06T07:45:22Z</time></trkpt><trkpt lat="40.6235458" lon="14.5042267"><ele>83.0</ele><time>2026-04-06T07:45:23Z</time></trkpt><trkpt lat="40.6235862" lon="14.5043795"><ele>74.0</ele><time>2026-04-06T07:45:23.999Z</time></trkpt><trkpt lat="40.6236328" lon="14.5045569"><ele>88.0</ele><time>2026-04-06T07:45:25Z</time></trkpt><trkpt lat="40.6236806" lon="14.5047258"><ele>102.0</ele><time>2026-04-06T07:45:26Z</time></trkpt><trkpt lat="40.6237259" lon="14.5048826"><ele>116.0</ele><time>2026-04-06T07:45:27Z</time></trkpt><trkpt lat="40.6237503" lon="14.5050391"><ele>130.0</ele><time>2026-04-06T07:45:28Z</time></trkpt><trkpt lat="40.6237466" lon="14.5052016"><ele>130.0</ele><time>2026-04-06T07:45:29Z</time></trkpt><trkpt lat="40.6237244" lon="14.5053839"><ele>130.0</ele><time>2026-04-06T07:45:30Z</time></trkpt><trkpt lat="40.6237014" lon="14.5055755"><ele>130.0</ele><time>2026-04-06T07:45:31Z</time></trkpt><trkpt lat="40.623692" lon="14.5057517"><ele>130.0</ele><time>2026-04-06T07:45:32Z</time></trkpt><trkpt lat="40.6236969" lon="14.5059361"><ele>130.25</ele><time>2026-04-06T07:45:33Z</time></trkpt><trkpt lat="40.6237297" lon="14.5061179"><ele>130.5</ele><time>2026-04-06T07:45:33.999Z</time></trkpt><trkpt lat="40.6237696" lon="14.5063009"><ele>130.75</ele><time>2026-04-06T07:45:35Z</time></trkpt><trkpt lat="40.6238158" lon="14.5064816"><ele>131.0</ele><time>2026-04-06T07:45:36Z</time></trkpt><trkpt lat="40.623852" lon="14.506656"><ele>131.0</ele><time>2026-04-06T07:45:37Z</time></trkpt><trkpt lat="40.6238722" lon="14.5068206"><ele>131.0</ele><time>2026-04-06T07:45:38Z</time></trkpt><trkpt lat="40.6238779" lon="14.5069851"><ele>131.0</ele><time>2026-04-06T07:45:39Z</time></trkpt><trkpt lat="40.6238775" lon="14.5071565"><ele>131.0</ele><time>2026-04-06T07:45:39.999Z</time></trkpt><trkpt lat="40.6238793" lon="14.5073343"><ele>132.25</ele><time>2026-04-06T07:45:41Z</time></trkpt><trkpt lat="40.6238976" lon="14.507511"><ele>133.5</ele><time>2026-04-06T07:45:42Z</time></trkpt><trkpt lat="40.6239319" lon="14.5076724"><ele>134.75</ele><time>2026-04-06T07:45:43Z</time></trkpt><trkpt lat="40.623984" lon="14.5078054"><ele>136.0</ele><time>2026-04-06T07:45:43.999Z</time></trkpt><trkpt lat="40.6244963" lon="14.5038523"><ele>129.5</ele><time>2026-04-06T07:45:12Z</time></trkpt><trkpt lat="40.624396" lon="14.5038551"><ele>123.0</ele><time>2026-04-06T07:45:13Z</time></trkpt><trkpt lat="40.6242796" lon="14.5038588"><ele>116.5</ele><time>2026-04-06T07:45:14Z</time></trkpt><trkpt lat="40.6241329" lon="14.5038433"><ele>110.0</ele><time>2026-04-06T07:45:15Z</time></trkpt><trkpt lat="40.6239878" lon="14.5038284"><ele>110.0</ele><time>2026-04-06T07:45:16Z</time></trkpt><trkpt lat="40.623852" lon="14.5038252"><ele>110.0</ele><time>2026-04-06T07:45:17Z</time></trkpt><trkpt lat="40.6237344" lon="14.5038256"><ele>110.0</ele><time>2026-04-06T07:45:18Z</time></trkpt><trkpt lat="40.6236355" lon="14.503849"><ele>110.0</ele><time>2026-04-06T07:45:19Z</time></trkpt><trkpt lat="40.6235629" lon="14.5039024"><ele>110.0</ele><time>2026-04-06T07:45:20Z</time></trkpt><trkpt lat="40.6235246" lon="14.5039866"><ele>101.0</ele><time>2026-04-06T07:45:20.999Z</time></trkpt><trkpt lat="40.6235209" lon="14.5040941"><ele>92.0</ele><time>2026-04-06T07:45:22Z</time></trkpt><trkpt lat="40.6235458" lon="14.5042267"><ele>83.0</ele><time>2026-04-06T07:45:23Z</time></trkpt><trkpt lat="40.6235862" lon="14.5043795"><ele>74.0</ele><time>2026-04-06T07:45:23.999Z</time></trkpt><trkpt lat="40.6236328" lon="14.5045569"><ele>88.0</ele><time>2026-04-06T07:45:25Z</time></trkpt><trkpt lat="40.6236806" lon="14.5047258"><ele>102.0</ele><time>2026-04-06T07:45:26Z</time></trkpt><trkpt lat="40.6237259" lon="14.5048826"><ele>116.0</ele><time>2026-04-06T07:45:27Z</time></trkpt><trkpt lat="40.6237503" lon="14.5050391"><ele>130.0</ele><time>2026-04-06T07:45:28Z</time></trkpt><trkpt lat="40.6237466" lon="14.5052016"><ele>130.0</ele><time>2026-04-06T07:45:29Z</time></trkpt><trkpt lat="40.6237244" lon="14.5053839"><ele>130.0</ele><time>2026-04-06T07:45:30Z</time></trkpt><trkpt lat="40.6237014" lon="14.5055755"><ele>130.0</ele><time>2026-04-06T07:45:31Z</time></trkpt><trkpt lat="40.623692" lon="14.5057517"><ele>130.0</ele><time>2026-04-06T07:45:32Z</time></trkpt><trkpt lat="40.6236969" lon="14.5059361"><ele>130.25</ele><time>2026-04-06T07:45:33Z</time></trkpt><trkpt lat="40.6237297" lon="14.5061179"><ele>130.5</ele><time>2026-04-06T07:45:33.999Z</time></trkpt><trkpt lat="40.6237696" lon="14.5063009"><ele>130.75</ele><time>2026-04-06T07:45:35Z</time></trkpt><trkpt lat="40.6238158" lon="14.5064816"><ele>131.0</ele><time>2026-04-06T07:45:36Z</time></trkpt><trkpt lat="40.623852" lon="14.506656"><ele>131.0</ele><time>2026-04-06T07:45:37Z</time></trkpt><trkpt lat="40.6238722" lon="14.5068206"><ele>131.0</ele><time>2026-04-06T07:45:38Z</time></trkpt><trkpt lat="40.6238779" lon="14.5069851"><ele>131.0</ele><time>2026-04-06T07:45:39Z</time></trkpt><trkpt lat="40.6238775" lon="14.5071565"><ele>131.0</ele><time>2026-04-06T07:45:39.999Z</time></trkpt><trkpt lat="40.6238793" lon="14.5073343"><ele>129.0</ele><time>2026-04-06T07:45:41Z</time></trkpt><trkpt lat="40.6238976" lon="14.507511"><ele>127.0</ele><time>2026-04-06T07:45:42Z</time></trkpt><trkpt lat="40.6239319" lon="14.5076724"><ele>125.0</ele><time>2026-04-06T07:45:43Z</time></trkpt><trkpt lat="40.623984" lon="14.5078054"><ele>123.0</ele><time>2026-04-06T07:45:43.999Z</time></trkpt><trkpt lat="40.6240662" lon="14.5079089"><ele>120.25</ele><time>2026-04-06T07:45:45Z</time></trkpt><trkpt lat="40.6241734" lon="14.5079926"><ele>117.5</ele><time>2026-04-06T07:45:46Z</time></trkpt><trkpt lat="40.6242948" lon="14.5080635"><ele>114.75</ele><time>2026-04-06T07:45:47Z</time></trkpt><trkpt lat="40.624432" lon="14.5081109"><ele>112.0</ele><time>2026-04-06T07:45:48Z</time></trkpt><trkpt lat="40.6245829" lon="14.5081213"><ele>112.0</ele><time>2026-04-06T07:45:49Z</time></trkpt><trkpt lat="40.6247562" lon="14.5081332"><ele>112.0</ele><time>2026-04-06T07:45:50Z</time></trkpt><trkpt lat="40.6249258" lon="14.5081802"><ele>112.0</ele><time>2026-04-06T07:45:50.999Z</time></trkpt><trkpt lat="40.6250818" lon="14.5082316"><ele>112.0</ele><time>2026-04-06T07:45:52Z</time></trkpt><trkpt lat="40.6252331" lon="14.508264"><ele>112.0</ele><time>2026-04-06T07:45:53Z</time></trkpt><trkpt lat="40.6253631" lon="14.5082899"><ele>112.0</ele><time>2026-04-06T07:45:54Z</time></trkpt><trkpt lat="40.6254702" lon="14.5083207"><ele>112.0</ele><time>2026-04-06T07:45:55Z</time></trkpt><trkpt lat="40.6255544" lon="14.5083864"><ele>112.83333333333334</ele><time>2026-04-06T07:45:56Z</time></trkpt><trkpt lat="40.6256123" lon="14.5084779"><ele>113.66666666666667</ele><time>2026-04-06T07:45:57Z</time></trkpt><trkpt lat="40.6256394" lon="14.5085893"><ele>114.5</ele><time>2026-04-06T07:45:58Z</time></trkpt><trkpt lat="40.6256281" lon="14.5087084"><ele>115.33333333333334</ele><time>2026-04-06T07:45:59Z</time></trkpt><trkpt lat="40.6255907" lon="14.5088001"><ele>116.16666666666667</ele><time>2026-04-06T07:46:00Z</time></trkpt><trkpt lat="40.6255316" lon="14.508863"><ele>117.0</ele><time>2026-04-06T07:46:01Z</time></trkpt><trkpt lat="40.6254604" lon="14.5089107"><ele>116.5</ele><time>2026-04-06T07:46:02Z</time></trkpt><trkpt lat="40.6253805" lon="14.5089449"><ele>116.0</ele><time>2026-04-06T07:46:03Z</time></trkpt><trkpt lat="40.6252983" lon="14.5089729"><ele>115.5</ele><time>2026-04-06T07:46:04Z</time></trkpt><trkpt lat="40.6252269" lon="14.508994"><ele>115.0</ele><time>2026-04-06T07:46:05Z</time></trkpt><trkpt lat="40.6251641" lon="14.5090474"><ele>114.5</ele><time>2026-04-06T07:46:06Z</time></trkpt><trkpt lat="40.6251325" lon="14.50913"><ele>114.0</ele><time>2026-04-06T07:46:07Z</time></trkpt><trkpt lat="40.6251359" lon="14.5092145"><ele>114.0</ele><time>2026-04-06T07:46:08Z</time></trkpt><trkpt lat="40.6251772" lon="14.5092851"><ele>114.0</ele><time>2026-04-06T07:46:09Z</time></trkpt><trkpt lat="40.6252355" lon="14.5093345"><ele>114.0</ele><time>2026-04-06T07:46:09.999Z</time></trkpt><trkpt lat="40.6252967" lon="14.509378"><ele>114.0</ele><time>2026-04-06T07:46:11Z</time></trkpt><trkpt lat="40.6253824" lon="14.5094559"><ele>114.0</ele><time>2026-04-06T07:46:13Z</time></trkpt><trkpt lat="40.625406" lon="14.5095579"><ele>114.0</ele><time>2026-04-06T07:46:15Z</time></trkpt><trkpt lat="40.6253562" lon="14.5096873"><ele>123.2</ele><time>2026-04-06T07:46:17Z</time></trkpt><trkpt lat="40.6253038" lon="14.5097381"><ele>132.4</ele><time>2026-04-06T07:46:18Z</time></trkpt><trkpt lat="40.6252275" lon="14.5097574"><ele>141.6</ele><time>2026-04-06T07:46:19Z</time></trkpt><trkpt lat="40.6250734" lon="14.5097697"><ele>150.8</ele><time>2026-04-06T07:46:20Z</time></trkpt><trkpt lat="40.6249219" lon="14.5097663"><ele>160.0</ele><time>2026-04-06T07:46:21Z</time></trkpt><trkpt lat="40.6247769" lon="14.5097374"><ele>160.0</ele><time>2026-04-06T07:46:22Z</time></trkpt><trkpt lat="40.6246776" lon="14.5096707"><ele>160.0</ele><time>2026-04-06T07:46:23Z</time></trkpt><trkpt lat="40.6245847" lon="14.509597"><ele>160.0</ele><time>2026-04-06T07:46:24Z</time></trkpt><trkpt lat="40.6245053" lon="14.5095207"><ele>160.0</ele><time>2026-04-06T07:46:25Z</time></trkpt><trkpt lat="40.62443" lon="14.50944"><ele>160.0</ele><time>2026-04-06T07:46:26Z</time></trkpt><trkpt lat="40.6243486" lon="14.5093755"><ele>149.8</ele><time>2026-04-06T07:46:27Z</time></trkpt><trkpt lat="40.624258" lon="14.5093426"><ele>139.6</ele><time>2026-04-06T07:46:28Z</time></trkpt><trkpt lat="40.6241734" lon="14.5093346"><ele>129.4</ele><time>2026-04-06T07:46:29Z</time></trkpt><trkpt lat="40.6240792" lon="14.509357"><ele>119.2</ele><time>2026-04-06T07:46:30Z</time></trkpt><trkpt lat="40.6239871" lon="14.5093981"><ele>109.0</ele><time>2026-04-06T07:46:31Z</time></trkpt><trkpt lat="40.6239023" lon="14.509457"><ele>109.00000000000001</ele><time>2026-04-06T07:46:32Z</time></trkpt><trkpt lat="40.6238266" lon="14.5095153"><ele>109.0</ele><time>2026-04-06T07:46:33Z</time></trkpt><trkpt lat="40.6237556" lon="14.509576"><ele>109.0</ele><time>2026-04-06T07:46:34Z</time></trkpt><trkpt lat="40.6236984" lon="14.5096495"><ele>109.0</ele><time>2026-04-06T07:46:35Z</time></trkpt><trkpt lat="40.6236611" lon="14.5097394"><ele>109.00000000000001</ele><time>2026-04-06T07:46:36Z</time></trkpt><trkpt lat="40.6236526" lon="14.5098385"><ele>109.0</ele><time>2026-04-06T07:46:37Z</time></trkpt><trkpt lat="40.6236546" lon="14.5099329"><ele>115.00000000000001</ele><time>2026-04-06T07:46:37.999Z</time></trkpt><trkpt lat="40.6236752" lon="14.5100291"><ele>121.0</ele><time>2026-04-06T07:46:39Z</time></trkpt><trkpt lat="40.6236947" lon="14.5101156"><ele>127.0</ele><time>2026-04-06T07:46:40Z</time></trkpt><trkpt lat="40.6237142" lon="14.5102004"><ele>133.0</ele><time>2026-04-06T07:46:41Z</time></trkpt><trkpt lat="40.6237033" lon="14.5102931"><ele>139.0</ele><time>2026-04-06T07:46:42Z</time></trkpt><trkpt lat="40.6236665" lon="14.5103714"><ele>145.0</ele><time>2026-04-06T07:46:43Z</time></trkpt><trkpt lat="40.6235637" lon="14.5104824"><ele>141.5</ele><time>2026-04-06T07:46:45Z</time></trkpt><trkpt lat="40.623441" lon="14.510487"><ele>138.0</ele><time>2026-04-06T07:46:47Z</time></trkpt><trkpt lat="40.6233286" lon="14.5103997"><ele>134.5</ele><time>2026-04-06T07:46:49Z</time></trkpt><trkpt lat="40.6232632" lon="14.5103794"><ele>131.0</ele><time>2026-04-06T07:46:50Z</time></trkpt><trkpt lat="40.6231996" lon="14.5103668"><ele>127.50000000000001</ele><time>2026-04-06T07:46:51Z</time></trkpt><trkpt lat="40.6231353" lon="14.5103577"><ele>124.0</ele><time>2026-04-06T07:46:52Z</time></trkpt><trkpt lat="40.6230753" lon="14.5103234"><ele>124.00000000000001</ele><time>2026-04-06T07:46:53Z</time></trkpt><trkpt lat="40.622992" lon="14.5102094"><ele>124.0</ele><time>2026-04-06T07:46:55Z</time></trkpt><trkpt lat="40.6229539" lon="14.5101388"><ele>124.0</ele><time>2026-04-06T07:46:56Z</time></trkpt><trkpt lat="40.6228949" lon="14.5100632"><ele>124.0</ele><time>2026-04-06T07:46:57Z</time></trkpt><trkpt lat="40.6228208" lon="14.5100038"><ele>124.00000000000001</ele><time>2026-04-06T07:46:58Z</time></trkpt><trkpt lat="40.6227487" lon="14.509958"><ele>124.0</ele><time>2026-04-06T07:46:59Z</time></trkpt><trkpt lat="40.6226664" lon="14.5099198"><ele>125.66666666666667</ele><time>2026-04-06T07:47:00Z</time></trkpt><trkpt lat="40.6225842" lon="14.5098968"><ele>127.33333333333334</ele><time>2026-04-06T07:47:01Z</time></trkpt><trkpt lat="40.6225039" lon="14.5098788"><ele>129.0</ele><time>2026-04-06T07:47:01.999Z</time></trkpt><trkpt lat="40.6224254" lon="14.5098842"><ele>130.66666666666666</ele><time>2026-04-06T07:47:03Z</time></trkpt><trkpt lat="40.6223537" lon="14.5099144"><ele>132.33333333333331</ele><time>2026-04-06T07:47:04Z</time></trkpt><trkpt lat="40.6222864" lon="14.5099638"><ele>134.0</ele><time>2026-04-06T07:47:05Z</time></trkpt><trkpt lat="40.6222067" lon="14.5100312"><ele>134.0</ele><time>2026-04-06T07:47:06Z</time></trkpt><trkpt lat="40.6221037" lon="14.5101102"><ele>134.0</ele><time>2026-04-06T07:47:07Z</time></trkpt><trkpt lat="40.6219799" lon="14.5102009"><ele>134.0</ele><time>2026-04-06T07:47:08Z</time></trkpt><trkpt lat="40.6218503" lon="14.5103031"><ele>134.0</ele><time>2026-04-06T07:47:09Z</time></trkpt><trkpt lat="40.6217197" lon="14.5104024"><ele>139.0</ele><time>2026-04-06T07:47:10Z</time></trkpt><trkpt lat="40.6215991" lon="14.5105066"><ele>144.0</ele><time>2026-04-06T07:47:11Z</time></trkpt><trkpt lat="40.6214868" lon="14.5106086"><ele>149.0</ele><time>2026-04-06T07:47:12Z</time></trkpt><trkpt lat="40.6213727" lon="14.5107137"><ele>154.0</ele><time>2026-04-06T07:47:13Z</time></trkpt><trkpt lat="40.6212629" lon="14.5108318"><ele>154.0</ele><time>2026-04-06T07:47:14Z</time></trkpt><trkpt lat="40.6211571" lon="14.5109682"><ele>154.0</ele><time>2026-04-06T07:47:15Z</time></trkpt><trkpt lat="40.6210515" lon="14.5110976"><ele>154.0</ele><time>2026-04-06T07:47:16Z</time></trkpt><trkpt lat="40.6209475" lon="14.5112145"><ele>154.0</ele><time>2026-04-06T07:47:17Z</time></trkpt><trkpt lat="40.6208509" lon="14.5113423"><ele>153.5</ele><time>2026-04-06T07:47:18Z</time></trkpt><trkpt lat="40.6207653" lon="14.5114852"><ele>153.0</ele><time>2026-04-06T07:47:19Z</time></trkpt><trkpt lat="40.6207001" lon="14.5116446"><ele>152.5</ele><time>2026-04-06T07:47:20Z</time></trkpt><trkpt lat="40.6206422" lon="14.5117955"><ele>152.0</ele><time>2026-04-06T07:47:20.999Z</time></trkpt><trkpt lat="40.6205654" lon="14.5119173"><ele>152.0</ele><time>2026-04-06T07:47:22Z</time></trkpt><trkpt lat="40.620472" lon="14.5120199"><ele>152.0</ele><time>2026-04-06T07:47:23Z</time></trkpt><trkpt lat="40.6203765" lon="14.5121145"><ele>152.0</ele><time>2026-04-06T07:47:24Z</time></trkpt><trkpt lat="40.6202839" lon="14.5122173"><ele>152.0</ele><time>2026-04-06T07:47:25Z</time></trkpt><trkpt lat="40.6202111" lon="14.5123348"><ele>147.5</ele><time>2026-04-06T07:47:26Z</time></trkpt><trkpt lat="40.6201792" lon="14.5124805"><ele>143.0</ele><time>2026-04-06T07:47:27Z</time></trkpt><trkpt lat="40.6201707" lon="14.512631"><ele>138.5</ele><time>2026-04-06T07:47:28Z</time></trkpt><trkpt lat="40.6201592" lon="14.5127834"><ele>134.0</ele><time>2026-04-06T07:47:29Z</time></trkpt><trkpt lat="40.6201097" lon="14.5129272"><ele>146.0</ele><time>2026-04-06T07:47:29.999Z</time></trkpt><trkpt lat="40.6200227" lon="14.5130729"><ele>158.0</ele><time>2026-04-06T07:47:31Z</time></trkpt><trkpt lat="40.6199087" lon="14.5132252"><ele>170.0</ele><time>2026-04-06T07:47:32Z</time></trkpt><trkpt lat="40.6197757" lon="14.5134091"><ele>170.0</ele><time>2026-04-06T07:47:33Z</time></trkpt><trkpt lat="40.6196507" lon="14.5136011"><ele>170.0</ele><time>2026-04-06T07:47:34Z</time></trkpt><trkpt lat="40.6195417" lon="14.5137664"><ele>170.0</ele><time>2026-04-06T07:47:34.999Z</time></trkpt><trkpt lat="40.619439" lon="14.5139161"><ele>165.0</ele><time>2026-04-06T07:47:36Z</time></trkpt><trkpt lat="40.6193492" lon="14.5140434"><ele>160.0</ele><time>2026-04-06T07:47:36.999Z</time></trkpt><trkpt lat="40.6192847" lon="14.514148"><ele>155.0</ele><time>2026-04-06T07:47:37.999Z</time></trkpt><trkpt lat="40.6192507" lon="14.5142544"><ele>150.0</ele><time>2026-04-06T07:47:39Z</time></trkpt><trkpt lat="40.6192655" lon="14.5143426"><ele>145.0</ele><time>2026-04-06T07:47:40Z</time></trkpt><trkpt lat="40.619317" lon="14.5144387"><ele>145.0</ele><time>2026-04-06T07:47:40.999Z</time></trkpt><trkpt lat="40.6193981" lon="14.5145482"><ele>145.0</ele><time>2026-04-06T07:47:42Z</time></trkpt><trkpt lat="40.619479" lon="14.5146724"><ele>145.0</ele><time>2026-04-06T07:47:43Z</time></trkpt><trkpt lat="40.6195395" lon="14.514802"><ele>145.0</ele><time>2026-04-06T07:47:44Z</time></trkpt><trkpt lat="40.6195725" lon="14.5149296"><ele>146.8</ele><time>2026-04-06T07:47:45Z</time></trkpt><trkpt lat="40.6195624" lon="14.5150478"><ele>148.6</ele><time>2026-04-06T07:47:46Z</time></trkpt><trkpt lat="40.6195075" lon="14.5151516"><ele>150.4</ele><time>2026-04-06T07:47:46.999Z</time></trkpt><trkpt lat="40.6194136" lon="14.5152449"><ele>152.2</ele><time>2026-04-06T07:47:48Z</time></trkpt><trkpt lat="40.6192965" lon="14.5153353"><ele>154.0</ele><time>2026-04-06T07:47:49Z</time></trkpt><trkpt lat="40.6191659" lon="14.5154216"><ele>161.33333333333334</ele><time>2026-04-06T07:47:49.999Z</time></trkpt><trkpt lat="40.6190146" lon="14.5154859"><ele>168.66666666666666</ele><time>2026-04-06T07:47:51Z</time></trkpt><trkpt lat="40.6188635" lon="14.5155253"><ele>176.0</ele><time>2026-04-06T07:47:52Z</time></trkpt><trkpt lat="40.618718" lon="14.5155502"><ele>167.0</ele><time>2026-04-06T07:47:53Z</time></trkpt><trkpt lat="40.6185883" lon="14.5155564"><ele>158.0</ele><time>2026-04-06T07:47:54Z</time></trkpt><trkpt lat="40.6184849" lon="14.5155773"><ele>149.0</ele><time>2026-04-06T07:47:55Z</time></trkpt><trkpt lat="40.6184048" lon="14.5156314"><ele>140.0</ele><time>2026-04-06T07:47:56Z</time></trkpt><trkpt lat="40.6183736" lon="14.5157438"><ele>131.0</ele><time>2026-04-06T07:47:57Z</time></trkpt><trkpt lat="40.6183628" lon="14.5158638"><ele>131.0</ele><time>2026-04-06T07:47:58Z</time></trkpt><trkpt lat="40.6183899" lon="14.5159815"><ele>131.0</ele><time>2026-04-06T07:47:59Z</time></trkpt><trkpt lat="40.6184547" lon="14.5160885"><ele>131.0</ele><time>2026-04-06T07:48:00Z</time></trkpt><trkpt lat="40.6185371" lon="14.5161816"><ele>131.0</ele><time>2026-04-06T07:48:01Z</time></trkpt><trkpt lat="40.6186069" lon="14.5162846"><ele>131.0</ele><time>2026-04-06T07:48:02Z</time></trkpt><trkpt lat="40.6186451" lon="14.5163975"><ele>134.5</ele><time>2026-04-06T07:48:03Z</time></trkpt><trkpt lat="40.6186537" lon="14.5165023"><ele>138.0</ele><time>2026-04-06T07:48:04Z</time></trkpt><trkpt lat="40.6186104" lon="14.5165734"><ele>141.5</ele><time>2026-04-06T07:48:05Z</time></trkpt><trkpt lat="40.6185411" lon="14.5166154"><ele>145.0</ele><time>2026-04-06T07:48:06Z</time></trkpt><trkpt lat="40.6184459" lon="14.5166384"><ele>148.5</ele><time>2026-04-06T07:48:07Z</time></trkpt><trkpt lat="40.6183242" lon="14.5166669"><ele>152.0</ele><time>2026-04-06T07:48:08Z</time></trkpt><trkpt lat="40.6182107" lon="14.5166949"><ele>152.0</ele><time>2026-04-06T07:48:09Z</time></trkpt><trkpt lat="40.6181084" lon="14.5167228"><ele>152.0</ele><time>2026-04-06T07:48:10Z</time></trkpt><trkpt lat="40.6180249" lon="14.5167454"><ele>152.0</ele><time>2026-04-06T07:48:11Z</time></trkpt><trkpt lat="40.6179542" lon="14.5167881"><ele>152.0</ele><time>2026-04-06T07:48:12Z</time></trkpt><trkpt lat="40.6178985" lon="14.5168527"><ele>152.0</ele><time>2026-04-06T07:48:12.999Z</time></trkpt><trkpt lat="40.6178668" lon="14.5169336"><ele>152.0</ele><time>2026-04-06T07:48:14Z</time></trkpt><trkpt lat="40.6178618" lon="14.5170221"><ele>154.5</ele><time>2026-04-06T07:48:15Z</time></trkpt><trkpt lat="40.6178824" lon="14.5171091"><ele>157.0</ele><time>2026-04-06T07:48:16Z</time></trkpt><trkpt lat="40.6179423" lon="14.5172185"><ele>159.5</ele><time>2026-04-06T07:48:16.999Z</time></trkpt><trkpt lat="40.6180221" lon="14.5173706"><ele>162.0</ele><time>2026-04-06T07:48:18Z</time></trkpt><trkpt lat="40.6181013" lon="14.5175369"><ele>162.0</ele><time>2026-04-06T07:48:19Z</time></trkpt><trkpt lat="40.6181671" lon="14.5177073"><ele>162.0</ele><time>2026-04-06T07:48:20Z</time></trkpt><trkpt lat="40.6182049" lon="14.5179006"><ele>162.0</ele><time>2026-04-06T07:48:21Z</time></trkpt><trkpt lat="40.618223" lon="14.5180977"><ele>162.0</ele><time>2026-04-06T07:48:22Z</time></trkpt><trkpt lat="40.618242" lon="14.5182685"><ele>163.6</ele><time>2026-04-06T07:48:23Z</time></trkpt><trkpt lat="40.6182578" lon="14.5184077"><ele>165.2</ele><time>2026-04-06T07:48:24Z</time></trkpt><trkpt lat="40.6182461" lon="14.5185273"><ele>166.8</ele><time>2026-04-06T07:48:25Z</time></trkpt><trkpt lat="40.6181824" lon="14.5186164"><ele>168.4</ele><time>2026-04-06T07:48:26Z</time></trkpt><trkpt lat="40.6181045" lon="14.5186982"><ele>170.0</ele><time>2026-04-06T07:48:27Z</time></trkpt><trkpt lat="40.6180023" lon="14.5187907"><ele>171.5</ele><time>2026-04-06T07:48:28Z</time></trkpt><trkpt lat="40.6179373" lon="14.5189045"><ele>173.0</ele><time>2026-04-06T07:48:29Z</time></trkpt><trkpt lat="40.6179089" lon="14.5190104"><ele>174.5</ele><time>2026-04-06T07:48:30Z</time></trkpt><trkpt lat="40.6179304" lon="14.5190939"><ele>176.0</ele><time>2026-04-06T07:48:30.999Z</time></trkpt><trkpt lat="40.6179897" lon="14.5191435"><ele>177.5</ele><time>2026-04-06T07:48:32Z</time></trkpt><trkpt lat="40.6180845" lon="14.5191935"><ele>179.0</ele><time>2026-04-06T07:48:33Z</time></trkpt><trkpt lat="40.6182082" lon="14.5192199"><ele>179.0</ele><time>2026-04-06T07:48:34Z</time></trkpt><trkpt lat="40.6183204" lon="14.5192702"><ele>179.0</ele><time>2026-04-06T07:48:35Z</time></trkpt><trkpt lat="40.6184257" lon="14.5193636"><ele>179.0</ele><time>2026-04-06T07:48:36Z</time></trkpt><trkpt lat="40.618499" lon="14.5194778"><ele>179.0</ele><time>2026-04-06T07:48:37Z</time></trkpt><trkpt lat="40.6185573" lon="14.5196"><ele>185.33333333333331</ele><time>2026-04-06T07:48:37.999Z</time></trkpt><trkpt lat="40.6186041" lon="14.5197075"><ele>191.66666666666666</ele><time>2026-04-06T07:48:39Z</time></trkpt><trkpt lat="40.6186462" lon="14.5197992"><ele>198.0</ele><time>2026-04-06T07:48:40Z</time></trkpt><trkpt lat="40.6186709" lon="14.5198957"><ele>204.33333333333331</ele><time>2026-04-06T07:48:41Z</time></trkpt><trkpt lat="40.6186584" lon="14.5199852"><ele>210.66666666666666</ele><time>2026-04-06T07:48:42Z</time></trkpt><trkpt lat="40.6185828" lon="14.5201168"><ele>217.0</ele><time>2026-04-06T07:48:44Z</time></trkpt><trkpt lat="40.6185214" lon="14.5201609"><ele>216.99999999999997</ele><time>2026-04-06T07:48:45Z</time></trkpt><trkpt lat="40.6184527" lon="14.5201913"><ele>217.0</ele><time>2026-04-06T07:48:46Z</time></trkpt><trkpt lat="40.6183674" lon="14.5202316"><ele>217.0</ele><time>2026-04-06T07:48:47Z</time></trkpt><trkpt lat="40.6182853" lon="14.5202671"><ele>217.0</ele><time>2026-04-06T07:48:48Z</time></trkpt><trkpt lat="40.6181994" lon="14.5203059"><ele>216.99999999999997</ele><time>2026-04-06T07:48:49Z</time></trkpt><trkpt lat="40.6181239" lon="14.5203476"><ele>217.0</ele><time>2026-04-06T07:48:50Z</time></trkpt><trkpt lat="40.6180413" lon="14.5203898"><ele>212.49999999999997</ele><time>2026-04-06T07:48:51Z</time></trkpt><trkpt lat="40.6179642" lon="14.5204297"><ele>208.0</ele><time>2026-04-06T07:48:52Z</time></trkpt><trkpt lat="40.6178971" lon="14.520472"><ele>203.5</ele><time>2026-04-06T07:48:53Z</time></trkpt><trkpt lat="40.6177819" lon="14.5205043"><ele>199.0</ele><time>2026-04-06T07:48:55Z</time></trkpt><trkpt lat="40.6177126" lon="14.5205042"><ele>194.5</ele><time>2026-04-06T07:48:56Z</time></trkpt><trkpt lat="40.6176227" lon="14.5204947"><ele>190.0</ele><time>2026-04-06T07:48:57Z</time></trkpt><trkpt lat="40.6175148" lon="14.5204852"><ele>181.66666666666669</ele><time>2026-04-06T07:48:58Z</time></trkpt><trkpt lat="40.6173763" lon="14.5204671"><ele>173.33333333333334</ele><time>2026-04-06T07:48:59Z</time></trkpt><trkpt lat="40.6172197" lon="14.5204343"><ele>165.0</ele><time>2026-04-06T07:49:00Z</time></trkpt><trkpt lat="40.6170477" lon="14.5203746"><ele>157.25</ele><time>2026-04-06T07:49:01Z</time></trkpt><trkpt lat="40.6168908" lon="14.5203104"><ele>149.5</ele><time>2026-04-06T07:49:02Z</time></trkpt><trkpt lat="40.6167506" lon="14.5202397"><ele>141.75</ele><time>2026-04-06T07:49:03Z</time></trkpt><trkpt lat="40.6166293" lon="14.5201771"><ele>134.0</ele><time>2026-04-06T07:49:04Z</time></trkpt><trkpt lat="40.6165261" lon="14.5201368"><ele>134.0</ele><time>2026-04-06T07:49:05Z</time></trkpt><trkpt lat="40.6164388" lon="14.5201503"><ele>134.0</ele><time>2026-04-06T07:49:06Z</time></trkpt><trkpt lat="40.6163474" lon="14.5202163"><ele>134.0</ele><time>2026-04-06T07:49:06.999Z</time></trkpt><trkpt lat="40.6162699" lon="14.5203053"><ele>134.0</ele><time>2026-04-06T07:49:08Z</time></trkpt><trkpt lat="40.6162003" lon="14.5204059"><ele>134.0</ele><time>2026-04-06T07:49:09Z</time></trkpt><trkpt lat="40.6161313" lon="14.5205085"><ele>131.8</ele><time>2026-04-06T07:49:10Z</time></trkpt><trkpt lat="40.6160819" lon="14.5206435"><ele>129.60000000000002</ele><time>2026-04-06T07:49:11Z</time></trkpt><trkpt lat="40.6160576" lon="14.5207817"><ele>127.4</ele><time>2026-04-06T07:49:12Z</time></trkpt><trkpt lat="40.6160658" lon="14.5209265"><ele>125.2</ele><time>2026-04-06T07:49:13Z</time></trkpt><trkpt lat="40.6160981" lon="14.5210686"><ele>123.0</ele><time>2026-04-06T07:49:14Z</time></trkpt><trkpt lat="40.6161472" lon="14.5212118"><ele>134.25</ele><time>2026-04-06T07:49:15Z</time></trkpt><trkpt lat="40.6162043" lon="14.5213644"><ele>145.5</ele><time>2026-04-06T07:49:16Z</time></trkpt><trkpt lat="40.6162654" lon="14.521525"><ele>156.75</ele><time>2026-04-06T07:49:17Z</time></trkpt><trkpt lat="40.6163184" lon="14.521693"><ele>168.0</ele><time>2026-04-06T07:49:18Z</time></trkpt><trkpt lat="40.616358" lon="14.5218629"><ele>168.0</ele><time>2026-04-06T07:49:19Z</time></trkpt><trkpt lat="40.61639" lon="14.5220258"><ele>168.0</ele><time>2026-04-06T07:49:20Z</time></trkpt><trkpt lat="40.6164232" lon="14.5221852"><ele>168.0</ele><time>2026-04-06T07:49:21Z</time></trkpt><trkpt lat="40.616458" lon="14.5223404"><ele>168.0</ele><time>2026-04-06T07:49:22Z</time></trkpt><trkpt lat="40.6164891" lon="14.5224869"><ele>167.60000000000002</ele><time>2026-04-06T07:49:23Z</time></trkpt><trkpt lat="40.6165328" lon="14.5226328"><ele>167.20000000000002</ele><time>2026-04-06T07:49:24Z</time></trkpt><trkpt lat="40.6165652" lon="14.5227575"><ele>166.8</ele><time>2026-04-06T07:49:25Z</time></trkpt><trkpt lat="40.6165712" lon="14.5228683"><ele>166.4</ele><time>2026-04-06T07:49:26Z</time></trkpt><trkpt lat="40.6165475" lon="14.5229694"><ele>166.0</ele><time>2026-04-06T07:49:27Z</time></trkpt><trkpt lat="40.6164896" lon="14.5230254"><ele>163.4</ele><time>2026-04-06T07:49:28Z</time></trkpt><trkpt lat="40.6164154" lon="14.5230384"><ele>160.8</ele><time>2026-04-06T07:49:29Z</time></trkpt><trkpt lat="40.616322" lon="14.5230355"><ele>158.20000000000002</ele><time>2026-04-06T07:49:30Z</time></trkpt><trkpt lat="40.6162102" lon="14.5230455"><ele>155.60000000000002</ele><time>2026-04-06T07:49:31Z</time></trkpt><trkpt lat="40.6160814" lon="14.5230743"><ele>153.0</ele><time>2026-04-06T07:49:32Z</time></trkpt><trkpt lat="40.6159561" lon="14.5231122"><ele>153.0</ele><time>2026-04-06T07:49:33Z</time></trkpt><trkpt lat="40.615841" lon="14.523152"><ele>153.0</ele><time>2026-04-06T07:49:34Z</time></trkpt><trkpt lat="40.6157444" lon="14.5231948"><ele>153.0</ele><time>2026-04-06T07:49:35Z</time></trkpt><trkpt lat="40.6156635" lon="14.5232378"><ele>153.0</ele><time>2026-04-06T07:49:36Z</time></trkpt><trkpt lat="40.6155981" lon="14.5232724"><ele>153.0</ele><time>2026-04-06T07:49:37Z</time></trkpt><trkpt lat="40.6155359" lon="14.5232974"><ele>153.0</ele><time>2026-04-06T07:49:38Z</time></trkpt><trkpt lat="40.6154188" lon="14.5232592"><ele>153.0</ele><time>2026-04-06T07:49:40Z</time></trkpt><trkpt lat="40.6153674" lon="14.5231981"><ele>153.0</ele><time>2026-04-06T07:49:41Z</time></trkpt><trkpt lat="40.615322" lon="14.5231188"><ele>153.0</ele><time>2026-04-06T07:49:42Z</time></trkpt><trkpt lat="40.6152716" lon="14.5230251"><ele>153.0</ele><time>2026-04-06T07:49:43Z</time></trkpt><trkpt lat="40.6152047" lon="14.5229436"><ele>153.0</ele><time>2026-04-06T07:49:44Z</time></trkpt><trkpt lat="40.6151312" lon="14.5228678"><ele>153.0</ele><time>2026-04-06T07:49:45Z</time></trkpt><trkpt lat="40.615065" lon="14.5228022"><ele>148.66666666666666</ele><time>2026-04-06T07:49:46Z</time></trkpt><trkpt lat="40.615006" lon="14.5227288"><ele>144.33333333333334</ele><time>2026-04-06T07:49:47Z</time></trkpt><trkpt lat="40.614961" lon="14.5226406"><ele>140.0</ele><time>2026-04-06T07:49:48Z</time></trkpt><trkpt lat="40.6149202" lon="14.5225312"><ele>135.66666666666669</ele><time>2026-04-06T07:49:49Z</time></trkpt><trkpt lat="40.614884" lon="14.5224302"><ele>131.33333333333334</ele><time>2026-04-06T07:49:50Z</time></trkpt><trkpt lat="40.6148646" lon="14.5223288"><ele>127.0</ele><time>2026-04-06T07:49:51Z</time></trkpt><trkpt lat="40.6148252" lon="14.5222353"><ele>127.00000000000001</ele><time>2026-04-06T07:49:52Z</time></trkpt><trkpt lat="40.6147479" lon="14.5222342"><ele>127.0</ele><time>2026-04-06T07:49:52.999Z</time></trkpt><trkpt lat="40.6146742" lon="14.5222368"><ele>127.0</ele><time>2026-04-06T07:49:54Z</time></trkpt><trkpt lat="40.6145963" lon="14.5222502"><ele>127.0</ele><time>2026-04-06T07:49:55Z</time></trkpt><trkpt lat="40.6145149" lon="14.522276"><ele>127.00000000000001</ele><time>2026-04-06T07:49:56Z</time></trkpt><trkpt lat="40.6144205" lon="14.5223065"><ele>127.0</ele><time>2026-04-06T07:49:56.999Z</time></trkpt><trkpt lat="40.6143164" lon="14.5223419"><ele>127.6</ele><time>2026-04-06T07:49:57.999Z</time></trkpt><trkpt lat="40.6142164" lon="14.5223767"><ele>128.2</ele><time>2026-04-06T07:49:59Z</time></trkpt><trkpt lat="40.6141215" lon="14.5224064"><ele>128.8</ele><time>2026-04-06T07:50:00Z</time></trkpt><trkpt lat="40.6140297" lon="14.5224299"><ele>129.4</ele><time>2026-04-06T07:50:00.999Z</time></trkpt><trkpt lat="40.6139345" lon="14.5224455"><ele>130.0</ele><time>2026-04-06T07:50:02Z</time></trkpt><trkpt lat="40.613837" lon="14.5224319"><ele>130.0</ele><time>2026-04-06T07:50:03Z</time></trkpt><trkpt lat="40.6137597" lon="14.5224016"><ele>130.0</ele><time>2026-04-06T07:50:04Z</time></trkpt><trkpt lat="40.6136619" lon="14.5223928"><ele>130.0</ele><time>2026-04-06T07:50:05Z</time></trkpt><trkpt lat="40.6135524" lon="14.5224142"><ele>130.0</ele><time>2026-04-06T07:50:06Z</time></trkpt><trkpt lat="40.6134541" lon="14.5224465"><ele>130.0</ele><time>2026-04-06T07:50:07Z</time></trkpt><trkpt lat="40.6133595" lon="14.5224761"><ele>128.5</ele><time>2026-04-06T07:50:08Z</time></trkpt><trkpt lat="40.6132734" lon="14.5225078"><ele>127.0</ele><time>2026-04-06T07:50:09Z</time></trkpt><trkpt lat="40.6131872" lon="14.5225281"><ele>125.5</ele><time>2026-04-06T07:50:10Z</time></trkpt><trkpt lat="40.6131067" lon="14.5225466"><ele>124.0</ele><time>2026-04-06T07:50:11Z</time></trkpt><trkpt lat="40.6130356" lon="14.5225719"><ele>122.50000000000001</ele><time>2026-04-06T07:50:12Z</time></trkpt><trkpt lat="40.612968" lon="14.5225975"><ele>121.0</ele><time>2026-04-06T07:50:13Z</time></trkpt><trkpt lat="40.6129069" lon="14.5226232"><ele>117.25</ele><time>2026-04-06T07:50:14Z</time></trkpt><trkpt lat="40.6127902" lon="14.5226706"><ele>113.5</ele><time>2026-04-06T07:50:16Z</time></trkpt><trkpt lat="40.6126709" lon="14.5227242"><ele>109.75</ele><time>2026-04-06T07:50:18Z</time></trkpt><trkpt lat="40.6125611" lon="14.5227883"><ele>106.0</ele><time>2026-04-06T07:50:20Z</time></trkpt><trkpt lat="40.6124705" lon="14.5228497"><ele>109.33333333333334</ele><time>2026-04-06T07:50:22Z</time></trkpt><trkpt lat="40.6123784" lon="14.5229305"><ele>112.66666666666667</ele><time>2026-04-06T07:50:24Z</time></trkpt><trkpt lat="40.6123202" lon="14.5229882"><ele>116.0</ele><time>2026-04-06T07:50:25Z</time></trkpt><trkpt lat="40.6122587" lon="14.5230491"><ele>119.33333333333334</ele><time>2026-04-06T07:50:26Z</time></trkpt><trkpt lat="40.6122072" lon="14.5231145"><ele>122.66666666666667</ele><time>2026-04-06T07:50:27Z</time></trkpt><trkpt lat="40.6121573" lon="14.5231849"><ele>126.0</ele><time>2026-04-06T07:50:28Z</time></trkpt><trkpt lat="40.6120524" lon="14.5232639"><ele>122.33333333333333</ele><time>2026-04-06T07:50:30Z</time></trkpt><trkpt lat="40.6119498" lon="14.5233294"><ele>118.66666666666666</ele><time>2026-04-06T07:50:32Z</time></trkpt><trkpt lat="40.6118511" lon="14.5234051"><ele>115.0</ele><time>2026-04-06T07:50:34Z</time></trkpt><trkpt lat="40.6118049" lon="14.5234622"><ele>111.33333333333333</ele><time>2026-04-06T07:50:35Z</time></trkpt><trkpt lat="40.6117588" lon="14.5235194"><ele>107.66666666666666</ele><time>2026-04-06T07:50:36Z</time></trkpt><trkpt lat="40.6117037" lon="14.5235819"><ele>104.0</ele><time>2026-04-06T07:50:37Z</time></trkpt><trkpt lat="40.6116556" lon="14.5236481"><ele>104.0</ele><time>2026-04-06T07:50:38Z</time></trkpt><trkpt lat="40.611602" lon="14.5237105"><ele>104.0</ele><time>2026-04-06T07:50:39Z</time></trkpt><trkpt lat="40.6115604" lon="14.5237779"><ele>104.0</ele><time>2026-04-06T07:50:40Z</time></trkpt><trkpt lat="40.611493" lon="14.5239093"><ele>104.0</ele><time>2026-04-06T07:50:42Z</time></trkpt><trkpt lat="40.6114425" lon="14.5240178"><ele>104.0</ele><time>2026-04-06T07:50:44Z</time></trkpt><trkpt lat="40.6113544" lon="14.5241248"><ele>102.99999999999999</ele><time>2026-04-06T07:50:46Z</time></trkpt><trkpt lat="40.6112543" lon="14.5242302"><ele>102.0</ele><time>2026-04-06T07:50:47.999Z</time></trkpt><trkpt lat="40.6112019" lon="14.5242904"><ele>101.0</ele><time>2026-04-06T07:50:49Z</time></trkpt><trkpt lat="40.6111528" lon="14.524356"><ele>100.0</ele><time>2026-04-06T07:50:50Z</time></trkpt><trkpt lat="40.6111164" lon="14.5244248"><ele>98.99999999999999</ele><time>2026-04-06T07:50:51Z</time></trkpt><trkpt lat="40.6110656" lon="14.5244838"><ele>98.0</ele><time>2026-04-06T07:50:52Z</time></trkpt><trkpt lat="40.6110079" lon="14.5245298"><ele>102.2</ele><time>2026-04-06T07:50:53Z</time></trkpt><trkpt lat="40.6109495" lon="14.5245701"><ele>106.4</ele><time>2026-04-06T07:50:54Z</time></trkpt><trkpt lat="40.6108867" lon="14.5246033"><ele>110.60000000000001</ele><time>2026-04-06T07:50:55Z</time></trkpt><trkpt lat="40.6107818" lon="14.5246711"><ele>114.80000000000001</ele><time>2026-04-06T07:50:57Z</time></trkpt><trkpt lat="40.6106883" lon="14.5247689"><ele>119.0</ele><time>2026-04-06T07:50:59Z</time></trkpt><trkpt lat="40.6105818" lon="14.5248564"><ele>119.0</ele><time>2026-04-06T07:51:01Z</time></trkpt><trkpt lat="40.6104962" lon="14.5249128"><ele>119.0</ele><time>2026-04-06T07:51:03Z</time></trkpt><trkpt lat="40.6104132" lon="14.5249587"><ele>119.0</ele><time>2026-04-06T07:51:05Z</time></trkpt><trkpt lat="40.6103154" lon="14.5250179"><ele>119.0</ele><time>2026-04-06T07:51:07Z</time></trkpt><trkpt lat="40.6101968" lon="14.5250906"><ele>119.0</ele><time>2026-04-06T07:51:09Z</time></trkpt><trkpt lat="40.6101339" lon="14.5251413"><ele>118.83333333333333</ele><time>2026-04-06T07:51:10Z</time></trkpt><trkpt lat="40.6100776" lon="14.5252084"><ele>118.66666666666666</ele><time>2026-04-06T07:51:11Z</time></trkpt><trkpt lat="40.6100182" lon="14.525279"><ele>118.5</ele><time>2026-04-06T07:51:12Z</time></trkpt><trkpt lat="40.6099643" lon="14.5253395"><ele>118.33333333333334</ele><time>2026-04-06T07:51:13Z</time></trkpt><trkpt lat="40.6099111" lon="14.5253876"><ele>118.16666666666667</ele><time>2026-04-06T07:51:14Z</time></trkpt><trkpt lat="40.6097956" lon="14.5254288"><ele>118.0</ele><time>2026-04-06T07:51:16Z</time></trkpt><trkpt lat="40.6097309" lon="14.5254509"><ele>118.00000000000001</ele><time>2026-04-06T07:51:17Z</time></trkpt><trkpt lat="40.6096703" lon="14.5255012"><ele>118.0</ele><time>2026-04-06T07:51:18Z</time></trkpt><trkpt lat="40.6096116" lon="14.5255681"><ele>118.0</ele><time>2026-04-06T07:51:19Z</time></trkpt><trkpt lat="40.6095585" lon="14.5256407"><ele>118.0</ele><time>2026-04-06T07:51:20Z</time></trkpt><trkpt lat="40.6095026" lon="14.5257204"><ele>118.00000000000001</ele><time>2026-04-06T07:51:21Z</time></trkpt><trkpt lat="40.6094407" lon="14.5258057"><ele>118.0</ele><time>2026-04-06T07:51:22Z</time></trkpt><trkpt lat="40.6093705" lon="14.5258937"><ele>116.0</ele><time>2026-04-06T07:51:23Z</time></trkpt><trkpt lat="40.6092993" lon="14.525994"><ele>114.00000000000001</ele><time>2026-04-06T07:51:24Z</time></trkpt><trkpt lat="40.609228" lon="14.5260899"><ele>112.00000000000001</ele><time>2026-04-06T07:51:25Z</time></trkpt><trkpt lat="40.6091559" lon="14.5261837"><ele>110.0</ele><time>2026-04-06T07:51:26Z</time></trkpt><trkpt lat="40.6090945" lon="14.5262736"><ele>108.0</ele><time>2026-04-06T07:51:27Z</time></trkpt><trkpt lat="40.6090353" lon="14.5263603"><ele>108.0</ele><time>2026-04-06T07:51:28Z</time></trkpt><trkpt lat="40.6089731" lon="14.5264446"><ele>108.0</ele><time>2026-04-06T07:51:29Z</time></trkpt><trkpt lat="40.6089123" lon="14.5265284"><ele>108.0</ele><time>2026-04-06T07:51:30Z</time></trkpt><trkpt lat="40.6088489" lon="14.5266108"><ele>108.0</ele><time>2026-04-06T07:51:31Z</time></trkpt><trkpt lat="40.6087918" lon="14.5266941"><ele>108.0</ele><time>2026-04-06T07:51:31.999Z</time></trkpt><trkpt lat="40.608735" lon="14.5267683"><ele>108.0</ele><time>2026-04-06T07:51:33Z</time></trkpt><trkpt lat="40.6086835" lon="14.5268421"><ele>97.66666666666667</ele><time>2026-04-06T07:51:34Z</time></trkpt><trkpt lat="40.6086325" lon="14.5269118"><ele>87.33333333333333</ele><time>2026-04-06T07:51:35Z</time></trkpt><trkpt lat="40.6085793" lon="14.5269851"><ele>77.0</ele><time>2026-04-06T07:51:36Z</time></trkpt><trkpt lat="40.6085304" lon="14.5270612"><ele>66.66666666666667</ele><time>2026-04-06T07:51:37Z</time></trkpt><trkpt lat="40.6085129" lon="14.5271599"><ele>56.333333333333336</ele><time>2026-04-06T07:51:38Z</time></trkpt><trkpt lat="40.6085257" lon="14.5272577"><ele>46.0</ele><time>2026-04-06T07:51:39Z</time></trkpt><trkpt lat="40.6085661" lon="14.5273527"><ele>38.333333333333336</ele><time>2026-04-06T07:51:40Z</time></trkpt><trkpt lat="40.6086117" lon="14.5274391"><ele>30.666666666666668</ele><time>2026-04-06T07:51:41Z</time></trkpt><trkpt lat="40.6086524" lon="14.527529"><ele>23.0</ele><time>2026-04-06T07:51:42Z</time></trkpt><trkpt lat="40.6086858" lon="14.5276203"><ele>15.333333333333334</ele><time>2026-04-06T07:51:43Z</time></trkpt><trkpt lat="40.6087088" lon="14.5277137"><ele>7.666666666666667</ele><time>2026-04-06T07:51:43.999Z</time></trkpt><trkpt lat="40.6087182" lon="14.5278042"><ele>0.0</ele><time>2026-04-06T07:51:45Z</time></trkpt><trkpt lat="40.6087148" lon="14.527901"><ele>26.571428571428573</ele><time>2026-04-06T07:51:46Z</time></trkpt><trkpt lat="40.6086947" lon="14.52799"><ele>53.142857142857146</ele><time>2026-04-06T07:51:47Z</time></trkpt><trkpt lat="40.6086752" lon="14.5280816"><ele>79.71428571428572</ele><time>2026-04-06T07:51:48Z</time></trkpt><trkpt lat="40.6086503" lon="14.5281723"><ele>106.28571428571429</ele><time>2026-04-06T07:51:49Z</time></trkpt><trkpt lat="40.6086291" lon="14.5282597"><ele>132.85714285714286</ele><time>2026-04-06T07:51:50Z</time></trkpt><trkpt lat="40.6086006" lon="14.5283658"><ele>159.42857142857144</ele><time>2026-04-06T07:51:52Z</time></trkpt><trkpt lat="40.6085693" lon="14.5284439"><ele>186.0</ele><time>2026-04-06T07:51:54Z</time></trkpt><trkpt lat="40.6085305" lon="14.5285358"><ele>186.0</ele><time>2026-04-06T07:51:57Z</time></trkpt><trkpt lat="40.6084696" lon="14.5286095"><ele>186.0</ele><time>2026-04-06T07:51:59Z</time></trkpt><trkpt lat="40.6083799" lon="14.5287065"><ele>186.0</ele><time>2026-04-06T07:52:01Z</time></trkpt><trkpt lat="40.6083293" lon="14.5287574"><ele>186.0</ele><time>2026-04-06T07:52:01.999Z</time></trkpt><trkpt lat="40.6082861" lon="14.5288254"><ele>186.0</ele><time>2026-04-06T07:52:03Z</time></trkpt><trkpt lat="40.6082567" lon="14.5288989"><ele>186.0</ele><time>2026-04-06T07:52:04Z</time></trkpt><trkpt lat="40.6082284" lon="14.5289833"><ele>173.00000000000003</ele><time>2026-04-06T07:52:05Z</time></trkpt><trkpt lat="40.6082024" lon="14.5290602"><ele>160.0</ele><time>2026-04-06T07:52:06Z</time></trkpt><trkpt lat="40.6081773" lon="14.5291439"><ele>147.0</ele><time>2026-04-06T07:52:07Z</time></trkpt><trkpt lat="40.6081482" lon="14.5292364"><ele>134.0</ele><time>2026-04-06T07:52:08Z</time></trkpt><trkpt lat="40.6081207" lon="14.5293201"><ele>121.0</ele><time>2026-04-06T07:52:09Z</time></trkpt><trkpt lat="40.6080878" lon="14.5294056"><ele>108.0</ele><time>2026-04-06T07:52:10Z</time></trkpt><trkpt lat="40.6080687" lon="14.5294915"><ele>95.0</ele><time>2026-04-06T07:52:11Z</time></trkpt><trkpt lat="40.6080529" lon="14.5295873"><ele>95.0</ele><time>2026-04-06T07:52:12Z</time></trkpt><trkpt lat="40.6080476" lon="14.52968"><ele>95.0</ele><time>2026-04-06T07:52:13Z</time></trkpt><trkpt lat="40.6080984" lon="14.5298145"><ele>95.0</ele><time>2026-04-06T07:52:15Z</time></trkpt><trkpt lat="40.6081482" lon="14.5298698"><ele>95.0</ele><time>2026-04-06T07:52:16Z</time></trkpt><trkpt lat="40.6082053" lon="14.5299247"><ele>95.0</ele><time>2026-04-06T07:52:17Z</time></trkpt><trkpt lat="40.6082693" lon="14.5299708"><ele>95.0</ele><time>2026-04-06T07:52:18Z</time></trkpt><trkpt lat="40.6083388" lon="14.5300152"><ele>95.0</ele><time>2026-04-06T07:52:19Z</time></trkpt><trkpt lat="40.6084041" lon="14.530075"><ele>95.0</ele><time>2026-04-06T07:52:20Z</time></trkpt><trkpt lat="40.6084753" lon="14.5301536"><ele>95.0</ele><time>2026-04-06T07:52:21Z</time></trkpt><trkpt lat="40.6085347" lon="14.53025"><ele>95.0</ele><time>2026-04-06T07:52:22Z</time></trkpt><trkpt lat="40.6085944" lon="14.5303551"><ele>95.0</ele><time>2026-04-06T07:52:23Z</time></trkpt><trkpt lat="40.6086557" lon="14.5304568"><ele>95.33333333333334</ele><time>2026-04-06T07:52:23.999Z</time></trkpt><trkpt lat="40.6087086" lon="14.5305545"><ele>95.66666666666667</ele><time>2026-04-06T07:52:25Z</time></trkpt><trkpt lat="40.6087638" lon="14.5306501"><ele>96.0</ele><time>2026-04-06T07:52:26Z</time></trkpt><trkpt lat="40.6088138" lon="14.5307392"><ele>96.33333333333334</ele><time>2026-04-06T07:52:27Z</time></trkpt><trkpt lat="40.6088632" lon="14.530823"><ele>96.66666666666667</ele><time>2026-04-06T07:52:27.999Z</time></trkpt><trkpt lat="40.6089133" lon="14.5309048"><ele>97.0</ele><time>2026-04-06T07:52:29Z</time></trkpt><trkpt lat="40.6089704" lon="14.5309746"><ele>97.0</ele><time>2026-04-06T07:52:30Z</time></trkpt><trkpt lat="40.6090345" lon="14.5310376"><ele>97.0</ele><time>2026-04-06T07:52:31Z</time></trkpt><trkpt lat="40.6091016" lon="14.5310951"><ele>97.0</ele><time>2026-04-06T07:52:32Z</time></trkpt><trkpt lat="40.6091894" lon="14.531151"><ele>97.0</ele><time>2026-04-06T07:52:33Z</time></trkpt><trkpt lat="40.6092751" lon="14.531211"><ele>97.0</ele><time>2026-04-06T07:52:34Z</time></trkpt><trkpt lat="40.6093633" lon="14.5312646"><ele>97.19999999999999</ele><time>2026-04-06T07:52:35Z</time></trkpt><trkpt lat="40.6094516" lon="14.5313278"><ele>97.4</ele><time>2026-04-06T07:52:36Z</time></trkpt><trkpt lat="40.6095324" lon="14.531411"><ele>97.6</ele><time>2026-04-06T07:52:37Z</time></trkpt><trkpt lat="40.6096055" lon="14.5315165"><ele>97.80000000000001</ele><time>2026-04-06T07:52:38Z</time></trkpt><trkpt lat="40.6096748" lon="14.5316343"><ele>98.0</ele><time>2026-04-06T07:52:39Z</time></trkpt><trkpt lat="40.6097346" lon="14.5317538"><ele>97.99999999999999</ele><time>2026-04-06T07:52:40Z</time></trkpt><trkpt lat="40.6097896" lon="14.5318607"><ele>98.0</ele><time>2026-04-06T07:52:41Z</time></trkpt><trkpt lat="40.6098347" lon="14.5319726"><ele>98.0</ele><time>2026-04-06T07:52:42Z</time></trkpt><trkpt lat="40.6098782" lon="14.5320768"><ele>98.0</ele><time>2026-04-06T07:52:43Z</time></trkpt><trkpt lat="40.6099271" lon="14.5321627"><ele>97.99999999999999</ele><time>2026-04-06T07:52:44Z</time></trkpt><trkpt lat="40.6099897" lon="14.5322286"><ele>98.0</ele><time>2026-04-06T07:52:45Z</time></trkpt><trkpt lat="40.6100609" lon="14.5322909"><ele>93.99999999999999</ele><time>2026-04-06T07:52:46Z</time></trkpt><trkpt lat="40.6101336" lon="14.5323594"><ele>90.0</ele><time>2026-04-06T07:52:47Z</time></trkpt><trkpt lat="40.6101929" lon="14.5324298"><ele>86.0</ele><time>2026-04-06T07:52:48Z</time></trkpt><trkpt lat="40.6102415" lon="14.5325126"><ele>82.0</ele><time>2026-04-06T07:52:49Z</time></trkpt><trkpt lat="40.6102724" lon="14.5326034"><ele>78.0</ele><time>2026-04-06T07:52:50Z</time></trkpt><trkpt lat="40.6102788" lon="14.5326987"><ele>74.0</ele><time>2026-04-06T07:52:50.999Z</time></trkpt><trkpt lat="40.6102754" lon="14.5328072"><ele>70.83333333333334</ele><time>2026-04-06T07:52:51.999Z</time></trkpt><trkpt lat="40.6102672" lon="14.5329204"><ele>67.66666666666667</ele><time>2026-04-06T07:52:53Z</time></trkpt><trkpt lat="40.6102825" lon="14.5330343"><ele>64.5</ele><time>2026-04-06T07:52:54Z</time></trkpt><trkpt lat="40.6103104" lon="14.5331482"><ele>61.33333333333333</ele><time>2026-04-06T07:52:55Z</time></trkpt><trkpt lat="40.6103457" lon="14.5332509"><ele>58.166666666666664</ele><time>2026-04-06T07:52:56Z</time></trkpt><trkpt lat="40.6103823" lon="14.5333525"><ele>55.0</ele><time>2026-04-06T07:52:57Z</time></trkpt><trkpt lat="40.6104142" lon="14.533454"><ele>58.33333333333333</ele><time>2026-04-06T07:52:58Z</time></trkpt><trkpt lat="40.6104473" lon="14.5335487"><ele>61.666666666666664</ele><time>2026-04-06T07:52:59Z</time></trkpt><trkpt lat="40.610478" lon="14.5336458"><ele>65.0</ele><time>2026-04-06T07:53:00Z</time></trkpt><trkpt lat="40.6105023" lon="14.5337479"><ele>68.33333333333333</ele><time>2026-04-06T07:53:01Z</time></trkpt><trkpt lat="40.6105267" lon="14.5338415"><ele>71.66666666666667</ele><time>2026-04-06T07:53:02Z</time></trkpt><trkpt lat="40.610559" lon="14.5339261"><ele>75.0</ele><time>2026-04-06T07:53:03Z</time></trkpt><trkpt lat="40.6106034" lon="14.5340048"><ele>75.0</ele><time>2026-04-06T07:53:04Z</time></trkpt><trkpt lat="40.6106556" lon="14.5340845"><ele>75.0</ele><time>2026-04-06T07:53:05Z</time></trkpt><trkpt lat="40.6107086" lon="14.5341655"><ele>75.0</ele><time>2026-04-06T07:53:06Z</time></trkpt><trkpt lat="40.6107676" lon="14.5342412"><ele>75.0</ele><time>2026-04-06T07:53:07Z</time></trkpt><trkpt lat="40.6108327" lon="14.5343137"><ele>75.0</ele><time>2026-04-06T07:53:08Z</time></trkpt><trkpt lat="40.6108989" lon="14.5343806"><ele>75.0</ele><time>2026-04-06T07:53:09Z</time></trkpt><trkpt lat="40.6109674" lon="14.534441"><ele>74.99999999999999</ele><time>2026-04-06T07:53:10Z</time></trkpt><trkpt lat="40.6110319" lon="14.5344962"><ele>75.0</ele><time>2026-04-06T07:53:11Z</time></trkpt><trkpt lat="40.6110935" lon="14.5345493"><ele>75.0</ele><time>2026-04-06T07:53:12Z</time></trkpt><trkpt lat="40.6111511" lon="14.5346048"><ele>75.0</ele><time>2026-04-06T07:53:13Z</time></trkpt><trkpt lat="40.6111939" lon="14.5346775"><ele>75.0</ele><time>2026-04-06T07:53:14Z</time></trkpt><trkpt lat="40.6112223" lon="14.5347698"><ele>74.99999999999999</ele><time>2026-04-06T07:53:15Z</time></trkpt><trkpt lat="40.6112466" lon="14.5348689"><ele>75.0</ele><time>2026-04-06T07:53:16Z</time></trkpt><trkpt lat="40.6112706" lon="14.5349666"><ele>76.0</ele><time>2026-04-06T07:53:17Z</time></trkpt><trkpt lat="40.6112903" lon="14.5350621"><ele>77.0</ele><time>2026-04-06T07:53:18Z</time></trkpt><trkpt lat="40.6113079" lon="14.5351618"><ele>78.0</ele><time>2026-04-06T07:53:18.999Z</time></trkpt><trkpt lat="40.6113297" lon="14.5352615"><ele>79.0</ele><time>2026-04-06T07:53:20Z</time></trkpt><trkpt lat="40.6113535" lon="14.5353618"><ele>80.0</ele><time>2026-04-06T07:53:21Z</time></trkpt><trkpt lat="40.6113815" lon="14.5354629"><ele>81.0</ele><time>2026-04-06T07:53:22Z</time></trkpt><trkpt lat="40.6114096" lon="14.5355661"><ele>81.0</ele><time>2026-04-06T07:53:23Z</time></trkpt><trkpt lat="40.611434" lon="14.5356655"><ele>81.0</ele><time>2026-04-06T07:53:24Z</time></trkpt><trkpt lat="40.6114411" lon="14.5357558"><ele>81.0</ele><time>2026-04-06T07:53:25Z</time></trkpt><trkpt lat="40.6114406" lon="14.5358451"><ele>81.0</ele><time>2026-04-06T07:53:26Z</time></trkpt><trkpt lat="40.6114333" lon="14.5359407"><ele>81.0</ele><time>2026-04-06T07:53:27Z</time></trkpt><trkpt lat="40.6114344" lon="14.536038"><ele>81.0</ele><time>2026-04-06T07:53:27.999Z</time></trkpt><trkpt lat="40.6114482" lon="14.5361324"><ele>81.0</ele><time>2026-04-06T07:53:29Z</time></trkpt><trkpt lat="40.6114661" lon="14.5362181"><ele>77.83333333333333</ele><time>2026-04-06T07:53:30Z</time></trkpt><trkpt lat="40.6114888" lon="14.5363062"><ele>74.66666666666667</ele><time>2026-04-06T07:53:31Z</time></trkpt><trkpt lat="40.6115159" lon="14.5364073"><ele>71.5</ele><time>2026-04-06T07:53:32Z</time></trkpt><trkpt lat="40.6115446" lon="14.5365217"><ele>68.33333333333334</ele><time>2026-04-06T07:53:33Z</time></trkpt><trkpt lat="40.6115718" lon="14.5366383"><ele>65.16666666666667</ele><time>2026-04-06T07:53:34Z</time></trkpt><trkpt lat="40.6115971" lon="14.5367502"><ele>62.0</ele><time>2026-04-06T07:53:35Z</time></trkpt><trkpt lat="40.6116261" lon="14.536858"><ele>62.00000000000001</ele><time>2026-04-06T07:53:36Z</time></trkpt><trkpt lat="40.6116515" lon="14.5369584"><ele>62.0</ele><time>2026-04-06T07:53:37Z</time></trkpt><trkpt lat="40.6116727" lon="14.5370411"><ele>62.0</ele><time>2026-04-06T07:53:37.999Z</time></trkpt><trkpt lat="40.611708" lon="14.5371784"><ele>62.0</ele><time>2026-04-06T07:53:40Z</time></trkpt><trkpt lat="40.6117378" lon="14.5372962"><ele>62.00000000000001</ele><time>2026-04-06T07:53:41.999Z</time></trkpt><trkpt lat="40.6117865" lon="14.537403"><ele>62.0</ele><time>2026-04-06T07:53:44Z</time></trkpt><trkpt lat="40.6118803" lon="14.5374663"><ele>64.0</ele><time>2026-04-06T07:53:45.999Z</time></trkpt><trkpt lat="40.6119705" lon="14.5374961"><ele>66.0</ele><time>2026-04-06T07:53:47.999Z</time></trkpt><trkpt lat="40.612054" lon="14.5375259"><ele>68.0</ele><time>2026-04-06T07:53:51Z</time></trkpt><trkpt lat="40.612151" lon="14.5375577"><ele>70.0</ele><time>2026-04-06T07:53:53.999Z</time></trkpt><trkpt lat="40.6122508" lon="14.5376144"><ele>72.0</ele><time>2026-04-06T07:53:56Z</time></trkpt><trkpt lat="40.6123046" lon="14.5376699"><ele>72.0</ele><time>2026-04-06T07:53:56.999Z</time></trkpt><trkpt lat="40.6123588" lon="14.5377301"><ele>72.0</ele><time>2026-04-06T07:53:58Z</time></trkpt><trkpt lat="40.6124069" lon="14.5377884"><ele>72.0</ele><time>2026-04-06T07:53:59Z</time></trkpt><trkpt lat="40.6124597" lon="14.5378408"><ele>72.0</ele><time>2026-04-06T07:54:00Z</time></trkpt><trkpt lat="40.612564" lon="14.5379088"><ele>72.0</ele><time>2026-04-06T07:54:02Z</time></trkpt><trkpt lat="40.6126769" lon="14.5378824"><ele>72.0</ele><time>2026-04-06T07:54:04Z</time></trkpt><trkpt lat="40.6127369" lon="14.5378395"><ele>72.0</ele><time>2026-04-06T07:54:05Z</time></trkpt><trkpt lat="40.6127985" lon="14.5378062"><ele>72.0</ele><time>2026-04-06T07:54:06Z</time></trkpt><trkpt lat="40.6128677" lon="14.537795"><ele>72.0</ele><time>2026-04-06T07:54:06.999Z</time></trkpt><trkpt lat="40.612941" lon="14.5377992"><ele>72.0</ele><time>2026-04-06T07:54:08Z</time></trkpt><trkpt lat="40.6130368" lon="14.5378041"><ele>72.0</ele><time>2026-04-06T07:54:09Z</time></trkpt><trkpt lat="40.6131323" lon="14.5378318"><ele>72.0</ele><time>2026-04-06T07:54:10Z</time></trkpt><trkpt lat="40.6132218" lon="14.5378644"><ele>73.83333333333333</ele><time>2026-04-06T07:54:11Z</time></trkpt><trkpt lat="40.6133023" lon="14.5379004"><ele>75.66666666666667</ele><time>2026-04-06T07:54:12Z</time></trkpt><trkpt lat="40.6133748" lon="14.537937"><ele>77.5</ele><time>2026-04-06T07:54:13Z</time></trkpt><trkpt lat="40.6134395" lon="14.5379763"><ele>79.33333333333334</ele><time>2026-04-06T07:54:14Z</time></trkpt><trkpt lat="40.6135066" lon="14.5380118"><ele>81.16666666666667</ele><time>2026-04-06T07:54:15Z</time></trkpt><trkpt lat="40.6135838" lon="14.5380512"><ele>83.0</ele><time>2026-04-06T07:54:16Z</time></trkpt><trkpt lat="40.6136656" lon="14.5380956"><ele>83.0</ele><time>2026-04-06T07:54:17Z</time></trkpt><trkpt lat="40.6137415" lon="14.5381391"><ele>83.0</ele><time>2026-04-06T07:54:18Z</time></trkpt><trkpt lat="40.6138195" lon="14.5381814"><ele>83.0</ele><time>2026-04-06T07:54:19Z</time></trkpt><trkpt lat="40.6143154" lon="14.5384309"><ele>83.0</ele><time>2026-04-06T07:54:25Z</time></trkpt><trkpt lat="40.6144025" lon="14.5384729"><ele>83.0</ele><time>2026-04-06T07:54:25.999Z</time></trkpt><trkpt lat="40.6144767" lon="14.5385049"><ele>83.0</ele><time>2026-04-06T07:54:26.999Z</time></trkpt><trkpt lat="40.6145446" lon="14.5385083"><ele>83.0</ele><time>2026-04-06T07:54:28Z</time></trkpt><trkpt lat="40.6146372" lon="14.5384996"><ele>83.0</ele><time>2026-04-06T07:54:30Z</time></trkpt><trkpt lat="40.6147326" lon="14.5385062"><ele>83.0</ele><time>2026-04-06T07:54:32Z</time></trkpt><trkpt lat="40.614813" lon="14.5385925"><ele>85.4</ele><time>2026-04-06T07:54:34Z</time></trkpt><trkpt lat="40.6148974" lon="14.5387088"><ele>87.80000000000001</ele><time>2026-04-06T07:54:36Z</time></trkpt><trkpt lat="40.614947" lon="14.5387708"><ele>90.2</ele><time>2026-04-06T07:54:37Z</time></trkpt><trkpt lat="40.6149956" lon="14.538832"><ele>92.6</ele><time>2026-04-06T07:54:38Z</time></trkpt><trkpt lat="40.6150316" lon="14.5389717"><ele>95.0</ele><time>2026-04-06T07:54:40Z</time></trkpt><trkpt lat="40.6149779" lon="14.5390807"><ele>95.0</ele><time>2026-04-06T07:54:42Z</time></trkpt><trkpt lat="40.6148789" lon="14.5391325"><ele>95.0</ele><time>2026-04-06T07:54:44Z</time></trkpt><trkpt lat="40.6147955" lon="14.5392316"><ele>95.0</ele><time>2026-04-06T07:54:46Z</time></trkpt><trkpt lat="40.6147649" lon="14.5393616"><ele>95.0</ele><time>2026-04-06T07:54:48Z</time></trkpt><trkpt lat="40.6147128" lon="14.5394625"><ele>95.0</ele><time>2026-04-06T07:54:50Z</time></trkpt><trkpt lat="40.6145901" lon="14.5395254"><ele>89.6</ele><time>2026-04-06T07:54:51.999Z</time></trkpt><trkpt lat="40.614511" lon="14.5395538"><ele>84.2</ele><time>2026-04-06T07:54:53Z</time></trkpt><trkpt lat="40.6144277" lon="14.5395794"><ele>78.8</ele><time>2026-04-06T07:54:54Z</time></trkpt><trkpt lat="40.6143464" lon="14.5395983"><ele>73.4</ele><time>2026-04-06T07:54:55Z</time></trkpt><trkpt lat="40.6142232" lon="14.5396263"><ele>68.0</ele><time>2026-04-06T07:54:57Z</time></trkpt><trkpt lat="40.6141178" lon="14.5396114"><ele>68.0</ele><time>2026-04-06T07:54:59Z</time></trkpt><trkpt lat="40.6140494" lon="14.5395988"><ele>68.0</ele><time>2026-04-06T07:55:01Z</time></trkpt><trkpt lat="40.6140076" lon="14.539665"><ele>68.0</ele><time>2026-04-06T07:55:05Z</time></trkpt><trkpt lat="40.6141121" lon="14.5396204"><ele>68.0</ele><time>2026-04-06T07:57:40Z</time></trkpt><trkpt lat="40.6141702" lon="14.5395826"><ele>68.0</ele><time>2026-04-06T07:57:41Z</time></trkpt><trkpt lat="40.6142937" lon="14.539531"><ele>68.0</ele><time>2026-04-06T07:57:43Z</time></trkpt><trkpt lat="40.6143597" lon="14.5395082"><ele>67.83333333333334</ele><time>2026-04-06T07:57:44Z</time></trkpt><trkpt lat="40.6144318" lon="14.5394825"><ele>67.66666666666667</ele><time>2026-04-06T07:57:45Z</time></trkpt><trkpt lat="40.614492" lon="14.5394498"><ele>67.5</ele><time>2026-04-06T07:57:46Z</time></trkpt><trkpt lat="40.6145479" lon="14.5394062"><ele>67.33333333333333</ele><time>2026-04-06T07:57:47Z</time></trkpt><trkpt lat="40.6146011" lon="14.5393568"><ele>67.16666666666666</ele><time>2026-04-06T07:57:48Z</time></trkpt><trkpt lat="40.6146715" lon="14.5392275"><ele>67.0</ele><time>2026-04-06T07:57:50Z</time></trkpt><trkpt lat="40.6147452" lon="14.5390949"><ele>67.0</ele><time>2026-04-06T07:57:51.999Z</time></trkpt><trkpt lat="40.6148356" lon="14.5390174"><ele>67.0</ele><time>2026-04-06T07:57:53.999Z</time></trkpt><trkpt lat="40.6149028" lon="14.5389883"><ele>67.0</ele><time>2026-04-06T07:57:56Z</time></trkpt><trkpt lat="40.6148829" lon="14.5388753"><ele>67.0</ele><time>2026-04-06T07:57:59Z</time></trkpt><trkpt lat="40.6147822" lon="14.5389171"><ele>67.0</ele><time>2026-04-06T07:58:01Z</time></trkpt><trkpt lat="40.6147536" lon="14.5389986"><ele>67.0</ele><time>2026-04-06T07:58:02Z</time></trkpt><trkpt lat="40.6146648" lon="14.5391191"><ele>67.0</ele><time>2026-04-06T07:58:04Z</time></trkpt><trkpt lat="40.614618" lon="14.5391835"><ele>67.0</ele><time>2026-04-06T07:58:04.999Z</time></trkpt><trkpt lat="40.6145668" lon="14.5392478"><ele>67.0</ele><time>2026-04-06T07:58:06Z</time></trkpt><trkpt lat="40.614472" lon="14.5393374"><ele>67.0</ele><time>2026-04-06T07:58:08Z</time></trkpt><trkpt lat="40.6144109" lon="14.539361"><ele>67.0</ele><time>2026-04-06T07:58:09Z</time></trkpt><trkpt lat="40.6143482" lon="14.5393792"><ele>67.0</ele><time>2026-04-06T07:58:10Z</time></trkpt><trkpt lat="40.6142241" lon="14.5394191"><ele>67.0</ele><time>2026-04-06T07:58:11.999Z</time></trkpt><trkpt lat="40.6141042" lon="14.5394451"><ele>67.0</ele><time>2026-04-06T07:58:14Z</time></trkpt><trkpt lat="40.6139922" lon="14.5394764"><ele>67.0</ele><time>2026-04-06T07:58:16Z</time></trkpt><trkpt lat="40.6138798" lon="14.5394878"><ele>67.0</ele><time>2026-04-06T07:58:18Z</time></trkpt><trkpt lat="40.6137842" lon="14.539501"><ele>67.0</ele><time>2026-04-06T07:58:20Z</time></trkpt><trkpt lat="40.6136996" lon="14.5394891"><ele>67.0</ele><time>2026-04-06T07:58:23Z</time></trkpt><trkpt lat="40.6136358" lon="14.5394983"><ele>67.0</ele><time>2026-04-06T07:58:27Z</time></trkpt><trkpt lat="40.6136357" lon="14.5394147"><ele>67.0</ele><time>2026-04-06T08:00:30.999Z</time></trkpt><trkpt lat="40.6137199" lon="14.5393878"><ele>67.0</ele><time>2026-04-06T08:03:27Z</time></trkpt><trkpt lat="40.6138018" lon="14.5393954"><ele>67.0</ele><time>2026-04-06T08:03:29Z</time></trkpt><trkpt lat="40.6139109" lon="14.5394136"><ele>67.0</ele><time>2026-04-06T08:03:31Z</time></trkpt><trkpt lat="40.6139804" lon="14.5394"><ele>67.0</ele><time>2026-04-06T08:03:32Z</time></trkpt><trkpt lat="40.6140673" lon="14.5393797"><ele>67.0</ele><time>2026-04-06T08:03:33Z</time></trkpt><trkpt lat="40.6141518" lon="14.5393614"><ele>67.0</ele><time>2026-04-06T08:03:34Z</time></trkpt><trkpt lat="40.6142423" lon="14.5393392"><ele>67.0</ele><time>2026-04-06T08:03:35Z</time></trkpt><trkpt lat="40.614329" lon="14.5393167"><ele>67.0</ele><time>2026-04-06T08:03:36Z</time></trkpt><trkpt lat="40.614405" lon="14.5392872"><ele>67.0</ele><time>2026-04-06T08:03:37Z</time></trkpt><trkpt lat="40.6144781" lon="14.5392479"><ele>67.0</ele><time>2026-04-06T08:03:38Z</time></trkpt><trkpt lat="40.6145518" lon="14.5391904"><ele>67.0</ele><time>2026-04-06T08:03:39Z</time></trkpt><trkpt lat="40.6146215" lon="14.5391044"><ele>67.0</ele><time>2026-04-06T08:03:40Z</time></trkpt><trkpt lat="40.6146946" lon="14.5390115"><ele>67.0</ele><time>2026-04-06T08:03:40.999Z</time></trkpt><trkpt lat="40.614748" lon="14.5389398"><ele>67.0</ele><time>2026-04-06T08:03:42Z</time></trkpt><trkpt lat="40.6147933" lon="14.538877"><ele>67.0</ele><time>2026-04-06T08:03:43Z</time></trkpt><trkpt lat="40.6148397" lon="14.5388157"><ele>67.0</ele><time>2026-04-06T08:03:44Z</time></trkpt><trkpt lat="40.6149151" lon="14.5389083"><ele>67.0</ele><time>2026-04-06T08:03:46Z</time></trkpt><trkpt lat="40.6149238" lon="14.5390217"><ele>67.0</ele><time>2026-04-06T08:03:48Z</time></trkpt><trkpt lat="40.6148137" lon="14.5390874"><ele>67.0</ele><time>2026-04-06T08:03:50Z</time></trkpt><trkpt lat="40.6147649" lon="14.5391645"><ele>67.0</ele><time>2026-04-06T08:03:51Z</time></trkpt><trkpt lat="40.6147169" lon="14.5392694"><ele>67.0</ele><time>2026-04-06T08:03:52Z</time></trkpt><trkpt lat="40.6146614" lon="14.5393648"><ele>67.0</ele><time>2026-04-06T08:03:53Z</time></trkpt><trkpt lat="40.6145696" lon="14.5394273"><ele>67.0</ele><time>2026-04-06T08:03:53.999Z</time></trkpt><trkpt lat="40.6144567" lon="14.5394769"><ele>67.0</ele><time>2026-04-06T08:03:55Z</time></trkpt><trkpt lat="40.6143703" lon="14.5395071"><ele>67.0</ele><time>2026-04-06T08:03:56Z</time></trkpt><trkpt lat="40.6142845" lon="14.5395409"><ele>67.16666666666666</ele><time>2026-04-06T08:03:57Z</time></trkpt><trkpt lat="40.6142132" lon="14.5395731"><ele>67.33333333333333</ele><time>2026-04-06T08:03:58Z</time></trkpt><trkpt lat="40.6141152" lon="14.5396461"><ele>67.5</ele><time>2026-04-06T08:04:00Z</time></trkpt><trkpt lat="40.6140569" lon="14.5396875"><ele>67.66666666666667</ele><time>2026-04-06T08:04:01Z</time></trkpt><trkpt lat="40.6139781" lon="14.5397157"><ele>67.83333333333334</ele><time>2026-04-06T08:04:02Z</time></trkpt><trkpt lat="40.6138859" lon="14.5397382"><ele>68.0</ele><time>2026-04-06T08:04:03Z</time></trkpt><trkpt lat="40.6138048" lon="14.539773"><ele>68.0</ele><time>2026-04-06T08:04:04Z</time></trkpt><trkpt lat="40.6137398" lon="14.5398269"><ele>68.0</ele><time>2026-04-06T08:04:05Z</time></trkpt><trkpt lat="40.6136997" lon="14.5398965"><ele>68.0</ele><time>2026-04-06T08:04:06Z</time></trkpt><trkpt lat="40.6136566" lon="14.5399702"><ele>68.0</ele><time>2026-04-06T08:04:06.999Z</time></trkpt><trkpt lat="40.6136425" lon="14.5400688"><ele>68.0</ele><time>2026-04-06T08:04:08Z</time></trkpt><trkpt lat="40.61365" lon="14.5401774"><ele>68.0</ele><time>2026-04-06T08:04:09Z</time></trkpt><trkpt lat="40.6136749" lon="14.5403014"><ele>69.8</ele><time>2026-04-06T08:04:10Z</time></trkpt><trkpt lat="40.6137146" lon="14.5404148"><ele>71.6</ele><time>2026-04-06T08:04:11Z</time></trkpt><trkpt lat="40.6137753" lon="14.540546"><ele>73.4</ele><time>2026-04-06T08:04:12Z</time></trkpt><trkpt lat="40.613836" lon="14.540677"><ele>75.2</ele><time>2026-04-06T08:04:13Z</time></trkpt><trkpt lat="40.6138616" lon="14.5408066"><ele>77.0</ele><time>2026-04-06T08:04:14Z</time></trkpt><trkpt lat="40.6138848" lon="14.5409393"><ele>77.0</ele><time>2026-04-06T08:04:15Z</time></trkpt><trkpt lat="40.6138553" lon="14.5410698"><ele>77.0</ele><time>2026-04-06T08:04:15.999Z</time></trkpt><trkpt lat="40.6138522" lon="14.5412053"><ele>77.0</ele><time>2026-04-06T08:04:17Z</time></trkpt><trkpt lat="40.6138722" lon="14.5413403"><ele>77.0</ele><time>2026-04-06T08:04:18Z</time></trkpt><trkpt lat="40.6139098" lon="14.5414768"><ele>77.0</ele><time>2026-04-06T08:04:18.999Z</time></trkpt><trkpt lat="40.6139494" lon="14.5416292"><ele>71.2</ele><time>2026-04-06T08:04:20Z</time></trkpt><trkpt lat="40.6139479" lon="14.5417634"><ele>65.4</ele><time>2026-04-06T08:04:21Z</time></trkpt><trkpt lat="40.6139597" lon="14.5418895"><ele>59.599999999999994</ele><time>2026-04-06T08:04:22Z</time></trkpt><trkpt lat="40.6140187" lon="14.5420171"><ele>53.8</ele><time>2026-04-06T08:04:23Z</time></trkpt><trkpt lat="40.6141126" lon="14.5421374"><ele>48.0</ele><time>2026-04-06T08:04:24Z</time></trkpt><trkpt lat="40.6142302" lon="14.5422599"><ele>48.0</ele><time>2026-04-06T08:04:25Z</time></trkpt><trkpt lat="40.6143698" lon="14.5423893"><ele>48.0</ele><time>2026-04-06T08:04:26Z</time></trkpt><trkpt lat="40.6145017" lon="14.5424932"><ele>48.0</ele><time>2026-04-06T08:04:27Z</time></trkpt><trkpt lat="40.6146259" lon="14.5425758"><ele>48.0</ele><time>2026-04-06T08:04:28Z</time></trkpt><trkpt lat="40.614734" lon="14.5426385"><ele>48.0</ele><time>2026-04-06T08:04:29Z</time></trkpt><trkpt lat="40.6148194" lon="14.5427141"><ele>48.0</ele><time>2026-04-06T08:04:30Z</time></trkpt><trkpt lat="40.6148578" lon="14.5428108"><ele>48.0</ele><time>2026-04-06T08:04:31Z</time></trkpt><trkpt lat="40.6149001" lon="14.5429092"><ele>48.0</ele><time>2026-04-06T08:04:32Z</time></trkpt><trkpt lat="40.6148924" lon="14.5430464"><ele>48.0</ele><time>2026-04-06T08:04:33Z</time></trkpt><trkpt lat="40.6148377" lon="14.5431904"><ele>48.0</ele><time>2026-04-06T08:04:34Z</time></trkpt><trkpt lat="40.6147376" lon="14.5433343"><ele>48.0</ele><time>2026-04-06T08:04:35Z</time></trkpt><trkpt lat="40.6145656" lon="14.5435146"><ele>48.0</ele><time>2026-04-06T08:04:36Z</time></trkpt><trkpt lat="40.6144888" lon="14.5436692"><ele>48.0</ele><time>2026-04-06T08:04:37Z</time></trkpt><trkpt lat="40.6144091" lon="14.5438129"><ele>48.0</ele><time>2026-04-06T08:04:38Z</time></trkpt><trkpt lat="40.6143548" lon="14.5439448"><ele>48.0</ele><time>2026-04-06T08:04:39Z</time></trkpt><trkpt lat="40.6143189" lon="14.5440848"><ele>48.0</ele><time>2026-04-06T08:04:40Z</time></trkpt><trkpt lat="40.6142792" lon="14.5442161"><ele>48.0</ele><time>2026-04-06T08:04:41Z</time></trkpt><trkpt lat="40.6142429" lon="14.544317"><ele>48.0</ele><time>2026-04-06T08:04:42Z</time></trkpt><trkpt lat="40.6142323" lon="14.5444076"><ele>48.0</ele><time>2026-04-06T08:04:43Z</time></trkpt><trkpt lat="40.6142829" lon="14.5444906"><ele>48.0</ele><time>2026-04-06T08:04:44Z</time></trkpt><trkpt lat="40.6143509" lon="14.5445577"><ele>48.0</ele><time>2026-04-06T08:04:45Z</time></trkpt><trkpt lat="40.6144401" lon="14.5446349"><ele>48.0</ele><time>2026-04-06T08:04:46Z</time></trkpt><trkpt lat="40.6145442" lon="14.5447169"><ele>48.0</ele><time>2026-04-06T08:04:47Z</time></trkpt><trkpt lat="40.6146414" lon="14.5447925"><ele>48.0</ele><time>2026-04-06T08:04:48Z</time></trkpt><trkpt lat="40.6147227" lon="14.5448671"><ele>48.0</ele><time>2026-04-06T08:04:49Z</time></trkpt><trkpt lat="40.6147796" lon="14.5449543"><ele>48.0</ele><time>2026-04-06T08:04:50Z</time></trkpt><trkpt lat="40.6147807" lon="14.5450658"><ele>48.0</ele><time>2026-04-06T08:04:51.109Z</time></trkpt><trkpt lat="40.6147427" lon="14.545265"><ele>48.0</ele><time>2026-04-06T08:04:53Z</time></trkpt><trkpt lat="40.6147062" lon="14.5453726"><ele>48.0</ele><time>2026-04-06T08:04:54Z</time></trkpt><trkpt lat="40.6146339" lon="14.5454877"><ele>48.0</ele><time>2026-04-06T08:04:55Z</time></trkpt><trkpt lat="40.6145608" lon="14.5456259"><ele>38.4</ele><time>2026-04-06T08:04:56Z</time></trkpt><trkpt lat="40.6144916" lon="14.5457392"><ele>28.799999999999997</ele><time>2026-04-06T08:04:57Z</time></trkpt><trkpt lat="40.6144234" lon="14.5458344"><ele>19.2</ele><time>2026-04-06T08:04:58Z</time></trkpt><trkpt lat="40.6143559" lon="14.5459395"><ele>9.6</ele><time>2026-04-06T08:04:59Z</time></trkpt><trkpt lat="40.6143669" lon="14.5460895"><ele>0.0</ele><time>2026-04-06T08:05:00Z</time></trkpt><trkpt lat="40.6143792" lon="14.546256"><ele>0.0</ele><time>2026-04-06T08:05:00.999Z</time></trkpt><trkpt lat="40.6144078" lon="14.5464356"><ele>0.0</ele><time>2026-04-06T08:05:02Z</time></trkpt><trkpt lat="40.6144591" lon="14.5466228"><ele>0.0</ele><time>2026-04-06T08:05:03Z</time></trkpt><trkpt lat="40.6145239" lon="14.5467993"><ele>0.0</ele><time>2026-04-06T08:05:04Z</time></trkpt><trkpt lat="40.6145825" lon="14.5469802"><ele>0.0</ele><time>2026-04-06T08:05:05Z</time></trkpt><trkpt lat="40.6146216" lon="14.5471742"><ele>0.0</ele><time>2026-04-06T08:05:06Z</time></trkpt><trkpt lat="40.6146403" lon="14.5473427"><ele>0.0</ele><time>2026-04-06T08:05:07Z</time></trkpt><trkpt lat="40.6146557" lon="14.5475076"><ele>0.0</ele><time>2026-04-06T08:05:08Z</time></trkpt><trkpt lat="40.6146359" lon="14.54767"><ele>0.0</ele><time>2026-04-06T08:05:08.999Z</time></trkpt><trkpt lat="40.6145938" lon="14.547834"><ele>0.0</ele><time>2026-04-06T08:05:10Z</time></trkpt><trkpt lat="40.614564" lon="14.5480041"><ele>0.0</ele><time>2026-04-06T08:05:11Z</time></trkpt><trkpt lat="40.6145528" lon="14.5481635"><ele>0.0</ele><time>2026-04-06T08:05:12Z</time></trkpt><trkpt lat="40.6145299" lon="14.5483188"><ele>0.0</ele><time>2026-04-06T08:05:13Z</time></trkpt><trkpt lat="40.614482" lon="14.5484683"><ele>0.0</ele><time>2026-04-06T08:05:14Z</time></trkpt><trkpt lat="40.6144148" lon="14.5486209"><ele>0.0</ele><time>2026-04-06T08:05:15Z</time></trkpt><trkpt lat="40.6143571" lon="14.5487742"><ele>0.0</ele><time>2026-04-06T08:05:16Z</time></trkpt><trkpt lat="40.614304" lon="14.548911"><ele>0.0</ele><time>2026-04-06T08:05:17Z</time></trkpt><trkpt lat="40.6142681" lon="14.5490448"><ele>0.0</ele><time>2026-04-06T08:05:18Z</time></trkpt><trkpt lat="40.6142423" lon="14.5491804"><ele>0.0</ele><time>2026-04-06T08:05:19Z</time></trkpt><trkpt lat="40.6142797" lon="14.5493328"><ele>0.0</ele><time>2026-04-06T08:05:20Z</time></trkpt><trkpt lat="40.614264" lon="14.5494998"><ele>0.0</ele><time>2026-04-06T08:05:21Z</time></trkpt><trkpt lat="40.6142252" lon="14.5496609"><ele>0.0</ele><time>2026-04-06T08:05:22Z</time></trkpt><trkpt lat="40.6142018" lon="14.5498279"><ele>0.0</ele><time>2026-04-06T08:05:22.999Z</time></trkpt><trkpt lat="40.6141722" lon="14.549982"><ele>0.0</ele><time>2026-04-06T08:05:24Z</time></trkpt><trkpt lat="40.6141514" lon="14.5501608"><ele>0.0</ele><time>2026-04-06T08:05:24.999Z</time></trkpt><trkpt lat="40.6141833" lon="14.5502569"><ele>0.0</ele><time>2026-04-06T08:05:26Z</time></trkpt><trkpt lat="40.6141919" lon="14.5504242"><ele>0.0</ele><time>2026-04-06T08:05:27Z</time></trkpt><trkpt lat="40.614207" lon="14.5505905"><ele>0.0</ele><time>2026-04-06T08:05:28Z</time></trkpt><trkpt lat="40.6140561" lon="14.5504889"><ele>0.0</ele><time>2026-04-06T08:05:29Z</time></trkpt><trkpt lat="40.6141215" lon="14.5505245"><ele>0.0</ele><time>2026-04-06T08:05:31Z</time></trkpt><trkpt lat="40.6141782" lon="14.5506111"><ele>0.0</ele><time>2026-04-06T08:05:32Z</time></trkpt><trkpt lat="40.6142063" lon="14.5507099"><ele>0.0</ele><time>2026-04-06T08:05:33Z</time></trkpt><trkpt lat="40.6141423" lon="14.5508068"><ele>0.0</ele><time>2026-04-06T08:05:34Z</time></trkpt><trkpt lat="40.614106" lon="14.5509565"><ele>0.0</ele><time>2026-04-06T08:05:35Z</time></trkpt><trkpt lat="40.6140981" lon="14.5511171"><ele>0.0</ele><time>2026-04-06T08:05:35.999Z</time></trkpt><trkpt lat="40.6140813" lon="14.551267"><ele>0.0</ele><time>2026-04-06T08:05:37Z</time></trkpt><trkpt lat="40.6140665" lon="14.5513975"><ele>0.0</ele><time>2026-04-06T08:05:38Z</time></trkpt><trkpt lat="40.6140683" lon="14.5515172"><ele>0.0</ele><time>2026-04-06T08:05:39Z</time></trkpt><trkpt lat="40.614106" lon="14.5516466"><ele>0.0</ele><time>2026-04-06T08:05:40Z</time></trkpt><trkpt lat="40.6141534" lon="14.5517959"><ele>0.0</ele><time>2026-04-06T08:05:41Z</time></trkpt><trkpt lat="40.6141678" lon="14.5519634"><ele>0.0</ele><time>2026-04-06T08:05:42Z</time></trkpt><trkpt lat="40.6141864" lon="14.5521033"><ele>0.0</ele><time>2026-04-06T08:05:43Z</time></trkpt><trkpt lat="40.6142057" lon="14.5522249"><ele>0.0</ele><time>2026-04-06T08:05:44Z</time></trkpt><trkpt lat="40.6142134" lon="14.5523393"><ele>0.0</ele><time>2026-04-06T08:05:45Z</time></trkpt><trkpt lat="40.6142061" lon="14.5524739"><ele>0.0</ele><time>2026-04-06T08:05:46Z</time></trkpt><trkpt lat="40.6141979" lon="14.552621"><ele>0.0</ele><time>2026-04-06T08:05:46.999Z</time></trkpt><trkpt lat="40.6141885" lon="14.5527515"><ele>0.0</ele><time>2026-04-06T08:05:48Z</time></trkpt><trkpt lat="40.6141479" lon="14.5528663"><ele>0.0</ele><time>2026-04-06T08:05:49Z</time></trkpt><trkpt lat="40.6140838" lon="14.5529417"><ele>0.0</ele><time>2026-04-06T08:05:50Z</time></trkpt><trkpt lat="40.6140006" lon="14.5529709"><ele>0.0</ele><time>2026-04-06T08:05:51Z</time></trkpt><trkpt lat="40.613921" lon="14.5530042"><ele>0.0</ele><time>2026-04-06T08:05:52Z</time></trkpt><trkpt lat="40.613862" lon="14.5530834"><ele>0.0</ele><time>2026-04-06T08:05:53Z</time></trkpt><trkpt lat="40.6138453" lon="14.5531859"><ele>0.0</ele><time>2026-04-06T08:05:54Z</time></trkpt><trkpt lat="40.6138681" lon="14.5533136"><ele>4.5</ele><time>2026-04-06T08:05:55Z</time></trkpt><trkpt lat="40.6139116" lon="14.5534694"><ele>9.0</ele><time>2026-04-06T08:05:56Z</time></trkpt><trkpt lat="40.6139422" lon="14.553632"><ele>13.5</ele><time>2026-04-06T08:05:57Z</time></trkpt><trkpt lat="40.6139507" lon="14.5537934"><ele>18.0</ele><time>2026-04-06T08:05:58Z</time></trkpt><trkpt lat="40.6139569" lon="14.5539325"><ele>18.0</ele><time>2026-04-06T08:05:59Z</time></trkpt><trkpt lat="40.6139619" lon="14.55406"><ele>18.0</ele><time>2026-04-06T08:06:00Z</time></trkpt><trkpt lat="40.6139729" lon="14.5542408"><ele>18.0</ele><time>2026-04-06T08:06:02Z</time></trkpt><trkpt lat="40.6139628" lon="14.554362"><ele>18.0</ele><time>2026-04-06T08:06:03Z</time></trkpt><trkpt lat="40.6139407" lon="14.5544983"><ele>18.0</ele><time>2026-04-06T08:06:04Z</time></trkpt><trkpt lat="40.6138856" lon="14.5546268"><ele>17.25</ele><time>2026-04-06T08:06:05Z</time></trkpt><trkpt lat="40.613837" lon="14.5547648"><ele>16.5</ele><time>2026-04-06T08:06:06Z</time></trkpt><trkpt lat="40.6137849" lon="14.5549108"><ele>15.75</ele><time>2026-04-06T08:06:07Z</time></trkpt><trkpt lat="40.6137923" lon="14.5550882"><ele>15.0</ele><time>2026-04-06T08:06:08Z</time></trkpt><trkpt lat="40.6137945" lon="14.5552249"><ele>15.0</ele><time>2026-04-06T08:06:09Z</time></trkpt><trkpt lat="40.6138101" lon="14.555361"><ele>15.0</ele><time>2026-04-06T08:06:10Z</time></trkpt><trkpt lat="40.6138652" lon="14.5554872"><ele>15.0</ele><time>2026-04-06T08:06:11Z</time></trkpt><trkpt lat="40.613941" lon="14.5556345"><ele>15.0</ele><time>2026-04-06T08:06:12Z</time></trkpt><trkpt lat="40.6140113" lon="14.5557889"><ele>18.5</ele><time>2026-04-06T08:06:13Z</time></trkpt><trkpt lat="40.6140779" lon="14.5559241"><ele>22.0</ele><time>2026-04-06T08:06:14Z</time></trkpt><trkpt lat="40.614148" lon="14.5560524"><ele>25.5</ele><time>2026-04-06T08:06:15Z</time></trkpt><trkpt lat="40.6142112" lon="14.5561803"><ele>29.0</ele><time>2026-04-06T08:06:16Z</time></trkpt><trkpt lat="40.6142779" lon="14.556302"><ele>29.0</ele><time>2026-04-06T08:06:17Z</time></trkpt><trkpt lat="40.6143434" lon="14.5564271"><ele>29.0</ele><time>2026-04-06T08:06:18Z</time></trkpt><trkpt lat="40.6144078" lon="14.5565443"><ele>29.0</ele><time>2026-04-06T08:06:19Z</time></trkpt><trkpt lat="40.6144686" lon="14.5566692"><ele>29.0</ele><time>2026-04-06T08:06:20Z</time></trkpt><trkpt lat="40.6145165" lon="14.5567977"><ele>29.0</ele><time>2026-04-06T08:06:21Z</time></trkpt><trkpt lat="40.6145679" lon="14.5569307"><ele>36.5</ele><time>2026-04-06T08:06:22Z</time></trkpt><trkpt lat="40.6146265" lon="14.5570634"><ele>44.0</ele><time>2026-04-06T08:06:23Z</time></trkpt><trkpt lat="40.6147011" lon="14.5572169"><ele>51.5</ele><time>2026-04-06T08:06:24Z</time></trkpt><trkpt lat="40.6147748" lon="14.5574103"><ele>59.0</ele><time>2026-04-06T08:06:25Z</time></trkpt><trkpt lat="40.6148471" lon="14.5576026"><ele>59.0</ele><time>2026-04-06T08:06:26Z</time></trkpt><trkpt lat="40.6149067" lon="14.5578475"><ele>59.0</ele><time>2026-04-06T08:06:27Z</time></trkpt><trkpt lat="40.6149749" lon="14.5580778"><ele>59.0</ele><time>2026-04-06T08:06:28Z</time></trkpt><trkpt lat="40.6150383" lon="14.5582944"><ele>57.333333333333336</ele><time>2026-04-06T08:06:29Z</time></trkpt><trkpt lat="40.615103" lon="14.5585126"><ele>55.66666666666667</ele><time>2026-04-06T08:06:30Z</time></trkpt><trkpt lat="40.615163" lon="14.5587321"><ele>54.0</ele><time>2026-04-06T08:06:30.999Z</time></trkpt><trkpt lat="40.6152207" lon="14.5589483"><ele>49.0</ele><time>2026-04-06T08:06:32Z</time></trkpt><trkpt lat="40.6152754" lon="14.559151"><ele>44.0</ele><time>2026-04-06T08:06:33Z</time></trkpt><trkpt lat="40.6153322" lon="14.5593326"><ele>39.0</ele><time>2026-04-06T08:06:34Z</time></trkpt><trkpt lat="40.6153806" lon="14.5595023"><ele>39.0</ele><time>2026-04-06T08:06:35Z</time></trkpt><trkpt lat="40.6154331" lon="14.5596727"><ele>39.0</ele><time>2026-04-06T08:06:36Z</time></trkpt><trkpt lat="40.615455" lon="14.5598457"><ele>39.0</ele><time>2026-04-06T08:06:37Z</time></trkpt><trkpt lat="40.6154548" lon="14.5600264"><ele>39.0</ele><time>2026-04-06T08:06:38Z</time></trkpt><trkpt lat="40.615435" lon="14.5602164"><ele>39.0</ele><time>2026-04-06T08:06:39Z</time></trkpt><trkpt lat="40.6153985" lon="14.5604058"><ele>39.0</ele><time>2026-04-06T08:06:40Z</time></trkpt><trkpt lat="40.6153397" lon="14.560583"><ele>39.0</ele><time>2026-04-06T08:06:41Z</time></trkpt><trkpt lat="40.6152608" lon="14.560746"><ele>39.0</ele><time>2026-04-06T08:06:42Z</time></trkpt><trkpt lat="40.61517" lon="14.5609018"><ele>39.0</ele><time>2026-04-06T08:06:43Z</time></trkpt><trkpt lat="40.6150669" lon="14.5610422"><ele>39.0</ele><time>2026-04-06T08:06:44Z</time></trkpt><trkpt lat="40.6149784" lon="14.5612007"><ele>39.0</ele><time>2026-04-06T08:06:45Z</time></trkpt><trkpt lat="40.6149134" lon="14.5613552"><ele>39.0</ele><time>2026-04-06T08:06:45.999Z</time></trkpt><trkpt lat="40.6148652" lon="14.5614957"><ele>31.2</ele><time>2026-04-06T08:06:47Z</time></trkpt><trkpt lat="40.6148407" lon="14.5616166"><ele>23.4</ele><time>2026-04-06T08:06:47.999Z</time></trkpt><trkpt lat="40.6148626" lon="14.561724"><ele>15.6</ele><time>2026-04-06T08:06:49Z</time></trkpt><trkpt lat="40.6149236" lon="14.5618172"><ele>7.8</ele><time>2026-04-06T08:06:50Z</time></trkpt><trkpt lat="40.6150119" lon="14.561917"><ele>0.0</ele><time>2026-04-06T08:06:50.999Z</time></trkpt><trkpt lat="40.6151193" lon="14.5620318"><ele>0.0</ele><time>2026-04-06T08:06:52Z</time></trkpt><trkpt lat="40.6152308" lon="14.5621337"><ele>0.0</ele><time>2026-04-06T08:06:53Z</time></trkpt><trkpt lat="40.6153451" lon="14.5622447"><ele>0.0</ele><time>2026-04-06T08:06:54Z</time></trkpt><trkpt lat="40.615458" lon="14.5623446"><ele>0.0</ele><time>2026-04-06T08:06:55Z</time></trkpt><trkpt lat="40.6154978" lon="14.5624728"><ele>20.0</ele><time>2026-04-06T08:06:56Z</time></trkpt><trkpt lat="40.6155544" lon="14.5626198"><ele>40.0</ele><time>2026-04-06T08:06:57Z</time></trkpt><trkpt lat="40.6156014" lon="14.5628001"><ele>60.0</ele><time>2026-04-06T08:06:58Z</time></trkpt><trkpt lat="40.6156434" lon="14.5629814"><ele>80.0</ele><time>2026-04-06T08:06:59Z</time></trkpt><trkpt lat="40.6157005" lon="14.5631703"><ele>80.0</ele><time>2026-04-06T08:07:00Z</time></trkpt><trkpt lat="40.6157623" lon="14.5633476"><ele>80.0</ele><time>2026-04-06T08:07:01Z</time></trkpt><trkpt lat="40.6158239" lon="14.5635138"><ele>80.0</ele><time>2026-04-06T08:07:02Z</time></trkpt><trkpt lat="40.615857" lon="14.563677"><ele>80.0</ele><time>2026-04-06T08:07:03Z</time></trkpt><trkpt lat="40.6158891" lon="14.563831"><ele>75.8</ele><time>2026-04-06T08:07:04Z</time></trkpt><trkpt lat="40.6158529" lon="14.563989"><ele>71.6</ele><time>2026-04-06T08:07:05Z</time></trkpt><trkpt lat="40.6158599" lon="14.5641239"><ele>67.4</ele><time>2026-04-06T08:07:06Z</time></trkpt><trkpt lat="40.6159021" lon="14.5642468"><ele>63.2</ele><time>2026-04-06T08:07:07Z</time></trkpt><trkpt lat="40.6159787" lon="14.5643671"><ele>59.0</ele><time>2026-04-06T08:07:07.999Z</time></trkpt><trkpt lat="40.6160545" lon="14.5644733"><ele>59.0</ele><time>2026-04-06T08:07:09Z</time></trkpt><trkpt lat="40.6161089" lon="14.5645734"><ele>59.00000000000001</ele><time>2026-04-06T08:07:10Z</time></trkpt><trkpt lat="40.6161368" lon="14.5646691"><ele>59.00000000000001</ele><time>2026-04-06T08:07:11Z</time></trkpt><trkpt lat="40.6161172" lon="14.5647685"><ele>59.0</ele><time>2026-04-06T08:07:11.999Z</time></trkpt><trkpt lat="40.6160587" lon="14.5648866"><ele>59.0</ele><time>2026-04-06T08:07:13Z</time></trkpt><trkpt lat="40.615969" lon="14.5650179"><ele>59.0</ele><time>2026-04-06T08:07:14Z</time></trkpt><trkpt lat="40.6158599" lon="14.5651441"><ele>59.0</ele><time>2026-04-06T08:07:15Z</time></trkpt><trkpt lat="40.6157493" lon="14.5652384"><ele>59.0</ele><time>2026-04-06T08:07:16Z</time></trkpt><trkpt lat="40.615646" lon="14.5653244"><ele>59.0</ele><time>2026-04-06T08:07:16.999Z</time></trkpt><trkpt lat="40.615565" lon="14.5654378"><ele>59.0</ele><time>2026-04-06T08:07:18Z</time></trkpt><trkpt lat="40.6155038" lon="14.5655865"><ele>59.0</ele><time>2026-04-06T08:07:19Z</time></trkpt><trkpt lat="40.6154546" lon="14.5657392"><ele>59.0</ele><time>2026-04-06T08:07:20Z</time></trkpt><trkpt lat="40.6154041" lon="14.5658747"><ele>59.0</ele><time>2026-04-06T08:07:20.999Z</time></trkpt><trkpt lat="40.6153414" lon="14.5659744"><ele>53.400000000000006</ele><time>2026-04-06T08:07:22Z</time></trkpt><trkpt lat="40.6152513" lon="14.5660363"><ele>47.800000000000004</ele><time>2026-04-06T08:07:23Z</time></trkpt><trkpt lat="40.6151518" lon="14.566076"><ele>42.2</ele><time>2026-04-06T08:07:24Z</time></trkpt><trkpt lat="40.6150605" lon="14.5661356"><ele>36.6</ele><time>2026-04-06T08:07:25Z</time></trkpt><trkpt lat="40.6149761" lon="14.5662159"><ele>31.0</ele><time>2026-04-06T08:07:26Z</time></trkpt><trkpt lat="40.6149123" lon="14.5663622"><ele>30.200000000000003</ele><time>2026-04-06T08:07:27Z</time></trkpt><trkpt lat="40.6148514" lon="14.5664695"><ele>29.400000000000002</ele><time>2026-04-06T08:07:28Z</time></trkpt><trkpt lat="40.6148433" lon="14.5665904"><ele>28.6</ele><time>2026-04-06T08:07:29Z</time></trkpt><trkpt lat="40.6148317" lon="14.5666879"><ele>27.8</ele><time>2026-04-06T08:07:30Z</time></trkpt><trkpt lat="40.6149278" lon="14.5667549"><ele>27.0</ele><time>2026-04-06T08:07:32Z</time></trkpt><trkpt lat="40.6149981" lon="14.566805"><ele>27.0</ele><time>2026-04-06T08:07:33Z</time></trkpt><trkpt lat="40.6150887" lon="14.5668859"><ele>27.0</ele><time>2026-04-06T08:07:33.999Z</time></trkpt><trkpt lat="40.6151998" lon="14.5669646"><ele>27.0</ele><time>2026-04-06T08:07:35Z</time></trkpt><trkpt lat="40.615315" lon="14.567045"><ele>27.0</ele><time>2026-04-06T08:07:36Z</time></trkpt><trkpt lat="40.6154184" lon="14.5671036"><ele>40.5</ele><time>2026-04-06T08:07:37Z</time></trkpt><trkpt lat="40.6154962" lon="14.5671515"><ele>54.0</ele><time>2026-04-06T08:07:38Z</time></trkpt><trkpt lat="40.6155573" lon="14.5672067"><ele>67.5</ele><time>2026-04-06T08:07:39Z</time></trkpt><trkpt lat="40.6155835" lon="14.5672962"><ele>81.0</ele><time>2026-04-06T08:07:40Z</time></trkpt><trkpt lat="40.6155686" lon="14.567419"><ele>94.5</ele><time>2026-04-06T08:07:41Z</time></trkpt><trkpt lat="40.6155239" lon="14.5675511"><ele>108.0</ele><time>2026-04-06T08:07:42Z</time></trkpt><trkpt lat="40.6154536" lon="14.5676767"><ele>108.0</ele><time>2026-04-06T08:07:43Z</time></trkpt><trkpt lat="40.6153848" lon="14.567779"><ele>108.00000000000001</ele><time>2026-04-06T08:07:44Z</time></trkpt><trkpt lat="40.6153479" lon="14.5678803"><ele>108.00000000000001</ele><time>2026-04-06T08:07:45Z</time></trkpt><trkpt lat="40.6153602" lon="14.5679794"><ele>108.0</ele><time>2026-04-06T08:07:45.999Z</time></trkpt><trkpt lat="40.6154092" lon="14.5680642"><ele>108.0</ele><time>2026-04-06T08:07:47Z</time></trkpt><trkpt lat="40.6155018" lon="14.5681497"><ele>102.5</ele><time>2026-04-06T08:07:48Z</time></trkpt><trkpt lat="40.6156169" lon="14.5682186"><ele>97.0</ele><time>2026-04-06T08:07:49Z</time></trkpt><trkpt lat="40.6157277" lon="14.5682429"><ele>91.5</ele><time>2026-04-06T08:07:50Z</time></trkpt><trkpt lat="40.6158214" lon="14.5682628"><ele>86.0</ele><time>2026-04-06T08:07:51.163Z</time></trkpt><trkpt lat="40.6159324" lon="14.5684114"><ele>86.0</ele><time>2026-04-06T08:07:53Z</time></trkpt><trkpt lat="40.6159655" lon="14.5685176"><ele>86.0</ele><time>2026-04-06T08:07:54Z</time></trkpt><trkpt lat="40.6159024" lon="14.5686563"><ele>86.0</ele><time>2026-04-06T08:07:55Z</time></trkpt><trkpt lat="40.6158826" lon="14.5687902"><ele>86.0</ele><time>2026-04-06T08:07:55.999Z</time></trkpt><trkpt lat="40.6158996" lon="14.5689403"><ele>86.0</ele><time>2026-04-06T08:07:57Z</time></trkpt><trkpt lat="40.615955" lon="14.5691104"><ele>89.0</ele><time>2026-04-06T08:07:58Z</time></trkpt><trkpt lat="40.6160156" lon="14.5692934"><ele>92.0</ele><time>2026-04-06T08:07:59Z</time></trkpt><trkpt lat="40.6160854" lon="14.569498"><ele>95.0</ele><time>2026-04-06T08:08:00Z</time></trkpt><trkpt lat="40.6161453" lon="14.5696655"><ele>95.0</ele><time>2026-04-06T08:08:01Z</time></trkpt><trkpt lat="40.6161865" lon="14.5698281"><ele>95.0</ele><time>2026-04-06T08:08:02Z</time></trkpt><trkpt lat="40.6161929" lon="14.5699904"><ele>95.0</ele><time>2026-04-06T08:08:02.999Z</time></trkpt><trkpt lat="40.6161867" lon="14.5701391"><ele>95.0</ele><time>2026-04-06T08:08:04Z</time></trkpt><trkpt lat="40.6161736" lon="14.570285"><ele>95.0</ele><time>2026-04-06T08:08:04.999Z</time></trkpt><trkpt lat="40.6161111" lon="14.5704175"><ele>95.0</ele><time>2026-04-06T08:08:06Z</time></trkpt><trkpt lat="40.6160328" lon="14.5705333"><ele>95.0</ele><time>2026-04-06T08:08:07Z</time></trkpt><trkpt lat="40.6159419" lon="14.5706348"><ele>95.0</ele><time>2026-04-06T08:08:08Z</time></trkpt><trkpt lat="40.6158524" lon="14.5707541"><ele>95.0</ele><time>2026-04-06T08:08:09Z</time></trkpt><trkpt lat="40.615779" lon="14.5708835"><ele>95.0</ele><time>2026-04-06T08:08:09.999Z</time></trkpt><trkpt lat="40.6157214" lon="14.5710249"><ele>95.0</ele><time>2026-04-06T08:08:11Z</time></trkpt><trkpt lat="40.6156912" lon="14.5711839"><ele>95.0</ele><time>2026-04-06T08:08:12Z</time></trkpt><trkpt lat="40.6156795" lon="14.5713664"><ele>95.0</ele><time>2026-04-06T08:08:12.999Z</time></trkpt><trkpt lat="40.6156644" lon="14.57155"><ele>95.0</ele><time>2026-04-06T08:08:14Z</time></trkpt><trkpt lat="40.6156476" lon="14.5717394"><ele>95.0</ele><time>2026-04-06T08:08:15Z</time></trkpt><trkpt lat="40.615625" lon="14.5719232"><ele>95.0</ele><time>2026-04-06T08:08:16Z</time></trkpt><trkpt lat="40.6155761" lon="14.5721002"><ele>95.0</ele><time>2026-04-06T08:08:17Z</time></trkpt><trkpt lat="40.6155099" lon="14.5722603"><ele>95.0</ele><time>2026-04-06T08:08:18Z</time></trkpt><trkpt lat="40.6154456" lon="14.5724091"><ele>95.0</ele><time>2026-04-06T08:08:19Z</time></trkpt><trkpt lat="40.6153865" lon="14.5725467"><ele>95.0</ele><time>2026-04-06T08:08:20Z</time></trkpt><trkpt lat="40.6153288" lon="14.5726747"><ele>93.8</ele><time>2026-04-06T08:08:21Z</time></trkpt><trkpt lat="40.61528" lon="14.5728032"><ele>92.6</ele><time>2026-04-06T08:08:22Z</time></trkpt><trkpt lat="40.6152307" lon="14.5729159"><ele>91.4</ele><time>2026-04-06T08:08:23Z</time></trkpt><trkpt lat="40.6151768" lon="14.5730067"><ele>90.2</ele><time>2026-04-06T08:08:23.999Z</time></trkpt><trkpt lat="40.6150946" lon="14.5730519"><ele>89.0</ele><time>2026-04-06T08:08:25Z</time></trkpt><trkpt lat="40.6150007" lon="14.5730456"><ele>89.0</ele><time>2026-04-06T08:08:26Z</time></trkpt><trkpt lat="40.6148856" lon="14.5729998"><ele>89.0</ele><time>2026-04-06T08:08:27Z</time></trkpt><trkpt lat="40.6147728" lon="14.5729674"><ele>89.0</ele><time>2026-04-06T08:08:28Z</time></trkpt><trkpt lat="40.6146336" lon="14.5729293"><ele>89.0</ele><time>2026-04-06T08:08:29Z</time></trkpt><trkpt lat="40.614518" lon="14.5729248"><ele>85.4</ele><time>2026-04-06T08:08:30Z</time></trkpt><trkpt lat="40.6144069" lon="14.5729498"><ele>81.80000000000001</ele><time>2026-04-06T08:08:31Z</time></trkpt><trkpt lat="40.6143001" lon="14.5730165"><ele>78.19999999999999</ele><time>2026-04-06T08:08:32Z</time></trkpt><trkpt lat="40.6142118" lon="14.5730849"><ele>74.6</ele><time>2026-04-06T08:08:33Z</time></trkpt><trkpt lat="40.6141479" lon="14.5731632"><ele>71.0</ele><time>2026-04-06T08:08:34Z</time></trkpt><trkpt lat="40.6141205" lon="14.5732839"><ele>71.0</ele><time>2026-04-06T08:08:35Z</time></trkpt><trkpt lat="40.614079" lon="14.5734152"><ele>71.0</ele><time>2026-04-06T08:08:36Z</time></trkpt><trkpt lat="40.614017" lon="14.573527"><ele>71.0</ele><time>2026-04-06T08:08:37Z</time></trkpt><trkpt lat="40.6139775" lon="14.5736384"><ele>71.0</ele><time>2026-04-06T08:08:37.999Z</time></trkpt><trkpt lat="40.6139802" lon="14.5737573"><ele>71.0</ele><time>2026-04-06T08:08:39Z</time></trkpt><trkpt lat="40.6140198" lon="14.5738881"><ele>72.25</ele><time>2026-04-06T08:08:40Z</time></trkpt><trkpt lat="40.6141027" lon="14.574008"><ele>73.5</ele><time>2026-04-06T08:08:41Z</time></trkpt><trkpt lat="40.6142049" lon="14.5741266"><ele>74.75</ele><time>2026-04-06T08:08:42Z</time></trkpt><trkpt lat="40.6142893" lon="14.5742432"><ele>76.0</ele><time>2026-04-06T08:08:43Z</time></trkpt><trkpt lat="40.6143451" lon="14.5743692"><ele>76.0</ele><time>2026-04-06T08:08:44Z</time></trkpt><trkpt lat="40.6143659" lon="14.5745122"><ele>76.0</ele><time>2026-04-06T08:08:45Z</time></trkpt><trkpt lat="40.6143698" lon="14.5746815"><ele>76.0</ele><time>2026-04-06T08:08:46Z</time></trkpt><trkpt lat="40.6143938" lon="14.5748586"><ele>76.0</ele><time>2026-04-06T08:08:47Z</time></trkpt><trkpt lat="40.6144398" lon="14.5750211"><ele>74.2</ele><time>2026-04-06T08:08:48Z</time></trkpt><trkpt lat="40.6145018" lon="14.575166"><ele>72.39999999999999</ele><time>2026-04-06T08:08:49Z</time></trkpt><trkpt lat="40.6145687" lon="14.5752914"><ele>70.6</ele><time>2026-04-06T08:08:50Z</time></trkpt><trkpt lat="40.6146396" lon="14.5753891"><ele>68.8</ele><time>2026-04-06T08:08:51Z</time></trkpt><trkpt lat="40.6147232" lon="14.5754547"><ele>67.0</ele><time>2026-04-06T08:08:52Z</time></trkpt><trkpt lat="40.6148146" lon="14.5754905"><ele>67.0</ele><time>2026-04-06T08:08:53Z</time></trkpt><trkpt lat="40.6149184" lon="14.5754877"><ele>67.0</ele><time>2026-04-06T08:08:54Z</time></trkpt><trkpt lat="40.6150267" lon="14.5754454"><ele>67.0</ele><time>2026-04-06T08:08:55Z</time></trkpt><trkpt lat="40.6151421" lon="14.5753857"><ele>67.0</ele><time>2026-04-06T08:08:56Z</time></trkpt><trkpt lat="40.6152643" lon="14.5753312"><ele>76.0</ele><time>2026-04-06T08:08:56.999Z</time></trkpt><trkpt lat="40.6153883" lon="14.5752819"><ele>85.0</ele><time>2026-04-06T08:08:58Z</time></trkpt><trkpt lat="40.6155148" lon="14.5752803"><ele>94.0</ele><time>2026-04-06T08:08:59Z</time></trkpt><trkpt lat="40.6156392" lon="14.5752668"><ele>103.0</ele><time>2026-04-06T08:09:00Z</time></trkpt><trkpt lat="40.6157655" lon="14.5752609"><ele>103.0</ele><time>2026-04-06T08:09:01Z</time></trkpt><trkpt lat="40.6158947" lon="14.5752631"><ele>103.0</ele><time>2026-04-06T08:09:02Z</time></trkpt><trkpt lat="40.6160122" lon="14.5752986"><ele>103.0</ele><time>2026-04-06T08:09:03Z</time></trkpt><trkpt lat="40.6161108" lon="14.5753437"><ele>103.0</ele><time>2026-04-06T08:09:04Z</time></trkpt><trkpt lat="40.616197" lon="14.5753777"><ele>103.0</ele><time>2026-04-06T08:09:05Z</time></trkpt><trkpt lat="40.6162805" lon="14.5753805"><ele>102.0</ele><time>2026-04-06T08:09:06Z</time></trkpt><trkpt lat="40.616365" lon="14.5753569"><ele>101.0</ele><time>2026-04-06T08:09:07Z</time></trkpt><trkpt lat="40.6164538" lon="14.5753269"><ele>100.0</ele><time>2026-04-06T08:09:08Z</time></trkpt><trkpt lat="40.6165506" lon="14.575286"><ele>99.0</ele><time>2026-04-06T08:09:09Z</time></trkpt><trkpt lat="40.6166582" lon="14.575243"><ele>98.0</ele><time>2026-04-06T08:09:10Z</time></trkpt><trkpt lat="40.616774" lon="14.5751957"><ele>98.0</ele><time>2026-04-06T08:09:11Z</time></trkpt><trkpt lat="40.6169024" lon="14.5751381"><ele>98.0</ele><time>2026-04-06T08:09:12Z</time></trkpt><trkpt lat="40.6170083" lon="14.575059"><ele>98.0</ele><time>2026-04-06T08:09:13Z</time></trkpt><trkpt lat="40.6171154" lon="14.5749989"><ele>98.0</ele><time>2026-04-06T08:09:14Z</time></trkpt><trkpt lat="40.6172304" lon="14.5749879"><ele>103.25</ele><time>2026-04-06T08:09:15Z</time></trkpt><trkpt lat="40.6173555" lon="14.5749822"><ele>108.5</ele><time>2026-04-06T08:09:16Z</time></trkpt><trkpt lat="40.6174787" lon="14.5749605"><ele>113.75</ele><time>2026-04-06T08:09:17Z</time></trkpt><trkpt lat="40.6175937" lon="14.5749438"><ele>119.0</ele><time>2026-04-06T08:09:18Z</time></trkpt><trkpt lat="40.617682" lon="14.5750317"><ele>119.0</ele><time>2026-04-06T08:09:18.999Z</time></trkpt><trkpt lat="40.6177771" lon="14.5751478"><ele>119.0</ele><time>2026-04-06T08:09:20Z</time></trkpt><trkpt lat="40.6178864" lon="14.5752713"><ele>119.0</ele><time>2026-04-06T08:09:21Z</time></trkpt><trkpt lat="40.6180104" lon="14.5753558"><ele>119.0</ele><time>2026-04-06T08:09:22Z</time></trkpt><trkpt lat="40.6181227" lon="14.575417"><ele>118.2</ele><time>2026-04-06T08:09:23Z</time></trkpt><trkpt lat="40.6182088" lon="14.5755091"><ele>117.4</ele><time>2026-04-06T08:09:23.999Z</time></trkpt><trkpt lat="40.6182791" lon="14.5756098"><ele>116.6</ele><time>2026-04-06T08:09:25Z</time></trkpt><trkpt lat="40.6183048" lon="14.5757349"><ele>115.8</ele><time>2026-04-06T08:09:26Z</time></trkpt><trkpt lat="40.6183065" lon="14.5758655"><ele>115.0</ele><time>2026-04-06T08:09:27Z</time></trkpt><trkpt lat="40.6182954" lon="14.5759658"><ele>115.00000000000001</ele><time>2026-04-06T08:09:28Z</time></trkpt><trkpt lat="40.6183044" lon="14.5760481"><ele>115.0</ele><time>2026-04-06T08:09:28.999Z</time></trkpt><trkpt lat="40.6183905" lon="14.5761082"><ele>115.0</ele><time>2026-04-06T08:09:30.999Z</time></trkpt><trkpt lat="40.6184727" lon="14.5761014"><ele>115.0</ele><time>2026-04-06T08:09:32Z</time></trkpt><trkpt lat="40.6185649" lon="14.5761009"><ele>115.00000000000001</ele><time>2026-04-06T08:09:33Z</time></trkpt><trkpt lat="40.6186583" lon="14.5761409"><ele>115.0</ele><time>2026-04-06T08:09:34Z</time></trkpt><trkpt lat="40.6187523" lon="14.5762006"><ele>114.2</ele><time>2026-04-06T08:09:35Z</time></trkpt><trkpt lat="40.6188472" lon="14.5762649"><ele>113.4</ele><time>2026-04-06T08:09:36Z</time></trkpt><trkpt lat="40.6189426" lon="14.5763262"><ele>112.6</ele><time>2026-04-06T08:09:37Z</time></trkpt><trkpt lat="40.6190378" lon="14.5763901"><ele>111.8</ele><time>2026-04-06T08:09:37.999Z</time></trkpt><trkpt lat="40.6191355" lon="14.5764584"><ele>111.0</ele><time>2026-04-06T08:09:39Z</time></trkpt><trkpt lat="40.6192348" lon="14.5765149"><ele>111.0</ele><time>2026-04-06T08:09:40Z</time></trkpt><trkpt lat="40.6193297" lon="14.5765725"><ele>111.0</ele><time>2026-04-06T08:09:41Z</time></trkpt><trkpt lat="40.6194009" lon="14.5766676"><ele>111.0</ele><time>2026-04-06T08:09:42Z</time></trkpt><trkpt lat="40.6194508" lon="14.5768001"><ele>111.0</ele><time>2026-04-06T08:09:43Z</time></trkpt><trkpt lat="40.6194784" lon="14.5769479"><ele>111.0</ele><time>2026-04-06T08:09:43.999Z</time></trkpt><trkpt lat="40.6195222" lon="14.5770954"><ele>118.0</ele><time>2026-04-06T08:09:45Z</time></trkpt><trkpt lat="40.6195791" lon="14.5772547"><ele>125.0</ele><time>2026-04-06T08:09:46Z</time></trkpt><trkpt lat="40.6196783" lon="14.5774157"><ele>132.0</ele><time>2026-04-06T08:09:47Z</time></trkpt><trkpt lat="40.6197607" lon="14.5775693"><ele>139.0</ele><time>2026-04-06T08:09:48Z</time></trkpt><trkpt lat="40.6198399" lon="14.5777142"><ele>139.0</ele><time>2026-04-06T08:09:49Z</time></trkpt><trkpt lat="40.6199158" lon="14.5778502"><ele>139.0</ele><time>2026-04-06T08:09:50Z</time></trkpt><trkpt lat="40.619995" lon="14.5779802"><ele>139.0</ele><time>2026-04-06T08:09:51Z</time></trkpt><trkpt lat="40.6200781" lon="14.5781122"><ele>139.0</ele><time>2026-04-06T08:09:52Z</time></trkpt><trkpt lat="40.6201748" lon="14.5782392"><ele>130.75</ele><time>2026-04-06T08:09:53Z</time></trkpt><trkpt lat="40.6202772" lon="14.5783616"><ele>122.5</ele><time>2026-04-06T08:09:54Z</time></trkpt><trkpt lat="40.6203751" lon="14.5784749"><ele>114.25</ele><time>2026-04-06T08:09:55Z</time></trkpt><trkpt lat="40.6204684" lon="14.5785835"><ele>106.0</ele><time>2026-04-06T08:09:55.999Z</time></trkpt><trkpt lat="40.6205504" lon="14.5786805"><ele>104.8</ele><time>2026-04-06T08:09:57Z</time></trkpt><trkpt lat="40.6206272" lon="14.5787704"><ele>103.6</ele><time>2026-04-06T08:09:58Z</time></trkpt><trkpt lat="40.620702" lon="14.5788525"><ele>102.4</ele><time>2026-04-06T08:09:59Z</time></trkpt><trkpt lat="40.6207688" lon="14.5789371"><ele>101.2</ele><time>2026-04-06T08:10:00Z</time></trkpt><trkpt lat="40.6208309" lon="14.5790241"><ele>100.0</ele><time>2026-04-06T08:10:01Z</time></trkpt><trkpt lat="40.620891" lon="14.5791125"><ele>100.00000000000001</ele><time>2026-04-06T08:10:02Z</time></trkpt><trkpt lat="40.6209421" lon="14.579188"><ele>100.0</ele><time>2026-04-06T08:10:03Z</time></trkpt><trkpt lat="40.6209903" lon="14.5792629"><ele>100.0</ele><time>2026-04-06T08:10:04Z</time></trkpt><trkpt lat="40.6210385" lon="14.5793255"><ele>100.0</ele><time>2026-04-06T08:10:05Z</time></trkpt><trkpt lat="40.6211506" lon="14.5793511"><ele>100.00000000000001</ele><time>2026-04-06T08:10:07Z</time></trkpt><trkpt lat="40.6212108" lon="14.5793116"><ele>100.0</ele><time>2026-04-06T08:10:08Z</time></trkpt><trkpt lat="40.6212586" lon="14.5792539"><ele>102.0</ele><time>2026-04-06T08:10:09Z</time></trkpt><trkpt lat="40.6213375" lon="14.5791557"><ele>104.0</ele><time>2026-04-06T08:10:11Z</time></trkpt><trkpt lat="40.6214197" lon="14.5790996"><ele>106.0</ele><time>2026-04-06T08:10:13Z</time></trkpt><trkpt lat="40.6215157" lon="14.5791204"><ele>108.0</ele><time>2026-04-06T08:10:15Z</time></trkpt><trkpt lat="40.621604" lon="14.5792017"><ele>110.0</ele><time>2026-04-06T08:10:17Z</time></trkpt><trkpt lat="40.6216534" lon="14.5792567"><ele>109.99999999999999</ele><time>2026-04-06T08:10:18Z</time></trkpt><trkpt lat="40.6217091" lon="14.5793131"><ele>110.0</ele><time>2026-04-06T08:10:18.999Z</time></trkpt><trkpt lat="40.6217719" lon="14.5793859"><ele>110.0</ele><time>2026-04-06T08:10:20Z</time></trkpt><trkpt lat="40.6218367" lon="14.5794547"><ele>110.0</ele><time>2026-04-06T08:10:21Z</time></trkpt><trkpt lat="40.6218997" lon="14.5795245"><ele>109.99999999999999</ele><time>2026-04-06T08:10:22Z</time></trkpt><trkpt lat="40.6219634" lon="14.5795923"><ele>110.0</ele><time>2026-04-06T08:10:22.999Z</time></trkpt><trkpt lat="40.6220256" lon="14.5796593"><ele>110.0</ele><time>2026-04-06T08:10:24Z</time></trkpt><trkpt lat="40.6220894" lon="14.5797275"><ele>110.0</ele><time>2026-04-06T08:10:25Z</time></trkpt><trkpt lat="40.622154" lon="14.5797917"><ele>110.0</ele><time>2026-04-06T08:10:26Z</time></trkpt><trkpt lat="40.6222104" lon="14.5798705"><ele>110.0</ele><time>2026-04-06T08:10:27Z</time></trkpt><trkpt lat="40.6222677" lon="14.5799783"><ele>110.0</ele><time>2026-04-06T08:10:28Z</time></trkpt><trkpt lat="40.6223292" lon="14.5800937"><ele>109.99999999999999</ele><time>2026-04-06T08:10:29Z</time></trkpt><trkpt lat="40.622387" lon="14.5801849"><ele>110.0</ele><time>2026-04-06T08:10:30Z</time></trkpt><trkpt lat="40.6224385" lon="14.5802816"><ele>110.0</ele><time>2026-04-06T08:10:31Z</time></trkpt><trkpt lat="40.6224782" lon="14.5803777"><ele>110.0</ele><time>2026-04-06T08:10:32Z</time></trkpt><trkpt lat="40.6225056" lon="14.580475"><ele>109.99999999999999</ele><time>2026-04-06T08:10:33Z</time></trkpt><trkpt lat="40.6225247" lon="14.5805604"><ele>110.0</ele><time>2026-04-06T08:10:34Z</time></trkpt><trkpt lat="40.6225395" lon="14.5806447"><ele>108.42857142857142</ele><time>2026-04-06T08:10:35Z</time></trkpt><trkpt lat="40.6225612" lon="14.5807326"><ele>106.85714285714286</ele><time>2026-04-06T08:10:36Z</time></trkpt><trkpt lat="40.6225789" lon="14.5808194"><ele>105.28571428571428</ele><time>2026-04-06T08:10:37Z</time></trkpt><trkpt lat="40.622595" lon="14.5809053"><ele>103.71428571428571</ele><time>2026-04-06T08:10:38Z</time></trkpt><trkpt lat="40.6226159" lon="14.5809933"><ele>102.14285714285714</ele><time>2026-04-06T08:10:39Z</time></trkpt><trkpt lat="40.6226387" lon="14.5810898"><ele>100.57142857142857</ele><time>2026-04-06T08:10:40Z</time></trkpt><trkpt lat="40.6226659" lon="14.581196"><ele>99.0</ele><time>2026-04-06T08:10:41Z</time></trkpt><trkpt lat="40.6227006" lon="14.5813028"><ele>102.0</ele><time>2026-04-06T08:10:42Z</time></trkpt><trkpt lat="40.6227508" lon="14.5814135"><ele>105.0</ele><time>2026-04-06T08:10:43Z</time></trkpt><trkpt lat="40.6228079" lon="14.5815124"><ele>108.0</ele><time>2026-04-06T08:10:44Z</time></trkpt><trkpt lat="40.6228624" lon="14.5816082"><ele>111.0</ele><time>2026-04-06T08:10:45Z</time></trkpt><trkpt lat="40.6229226" lon="14.5816901"><ele>114.0</ele><time>2026-04-06T08:10:46Z</time></trkpt><trkpt lat="40.6229845" lon="14.581761"><ele>114.0</ele><time>2026-04-06T08:10:47Z</time></trkpt><trkpt lat="40.6230495" lon="14.5818263"><ele>114.0</ele><time>2026-04-06T08:10:47.999Z</time></trkpt><trkpt lat="40.623117" lon="14.58189"><ele>114.0</ele><time>2026-04-06T08:10:49Z</time></trkpt><trkpt lat="40.6231836" lon="14.5819575"><ele>114.0</ele><time>2026-04-06T08:10:50Z</time></trkpt><trkpt lat="40.6232507" lon="14.5820229"><ele>114.0</ele><time>2026-04-06T08:10:51Z</time></trkpt><trkpt lat="40.6233195" lon="14.582083"><ele>114.0</ele><time>2026-04-06T08:10:52Z</time></trkpt><trkpt lat="40.6233902" lon="14.5821474"><ele>113.0</ele><time>2026-04-06T08:10:53Z</time></trkpt><trkpt lat="40.6234586" lon="14.5822142"><ele>112.0</ele><time>2026-04-06T08:10:54Z</time></trkpt><trkpt lat="40.6235266" lon="14.5822837"><ele>111.0</ele><time>2026-04-06T08:10:55Z</time></trkpt><trkpt lat="40.6235992" lon="14.5823549"><ele>110.0</ele><time>2026-04-06T08:10:56Z</time></trkpt><trkpt lat="40.6236673" lon="14.5824289"><ele>109.0</ele><time>2026-04-06T08:10:56.999Z</time></trkpt><trkpt lat="40.6237343" lon="14.5825079"><ele>108.0</ele><time>2026-04-06T08:10:58Z</time></trkpt><trkpt lat="40.623799" lon="14.5825837"><ele>108.0</ele><time>2026-04-06T08:10:59Z</time></trkpt><trkpt lat="40.6238814" lon="14.5826395"><ele>108.0</ele><time>2026-04-06T08:11:00Z</time></trkpt><trkpt lat="40.6239868" lon="14.5826617"><ele>108.0</ele><time>2026-04-06T08:11:01.153Z</time></trkpt><trkpt lat="40.6241716" lon="14.5826628"><ele>108.0</ele><time>2026-04-06T08:11:03Z</time></trkpt><trkpt lat="40.6242532" lon="14.5826673"><ele>108.0</ele><time>2026-04-06T08:11:04Z</time></trkpt><trkpt lat="40.6243246" lon="14.5826877"><ele>108.0</ele><time>2026-04-06T08:11:05Z</time></trkpt><trkpt lat="40.6243797" lon="14.5827416"><ele>108.0</ele><time>2026-04-06T08:11:06Z</time></trkpt><trkpt lat="40.6244181" lon="14.5828185"><ele>108.0</ele><time>2026-04-06T08:11:06.999Z</time></trkpt><trkpt lat="40.6244315" lon="14.5829164"><ele>108.0</ele><time>2026-04-06T08:11:08Z</time></trkpt><trkpt lat="40.6244263" lon="14.5830223"><ele>108.0</ele><time>2026-04-06T08:11:09Z</time></trkpt><trkpt lat="40.6244214" lon="14.5831202"><ele>108.0</ele><time>2026-04-06T08:11:10Z</time></trkpt><trkpt lat="40.6244239" lon="14.5832162"><ele>109.83333333333333</ele><time>2026-04-06T08:11:11Z</time></trkpt><trkpt lat="40.6244449" lon="14.5833059"><ele>111.66666666666666</ele><time>2026-04-06T08:11:12Z</time></trkpt><trkpt lat="40.6244913" lon="14.5833897"><ele>113.5</ele><time>2026-04-06T08:11:13Z</time></trkpt><trkpt lat="40.624561" lon="14.5834616"><ele>115.33333333333333</ele><time>2026-04-06T08:11:14Z</time></trkpt><trkpt lat="40.6246375" lon="14.5835281"><ele>117.16666666666666</ele><time>2026-04-06T08:11:15Z</time></trkpt><trkpt lat="40.6247207" lon="14.5835987"><ele>119.0</ele><time>2026-04-06T08:11:16Z</time></trkpt><trkpt lat="40.6248046" lon="14.5836639"><ele>112.4</ele><time>2026-04-06T08:11:17Z</time></trkpt><trkpt lat="40.6249042" lon="14.5837198"><ele>105.80000000000001</ele><time>2026-04-06T08:11:18Z</time></trkpt><trkpt lat="40.6250101" lon="14.5837774"><ele>99.19999999999999</ele><time>2026-04-06T08:11:19Z</time></trkpt><trkpt lat="40.6251182" lon="14.5838234"><ele>92.6</ele><time>2026-04-06T08:11:19.999Z</time></trkpt><trkpt lat="40.625212" lon="14.5838695"><ele>86.0</ele><time>2026-04-06T08:11:21Z</time></trkpt><trkpt lat="40.6253025" lon="14.5839031"><ele>90.8</ele><time>2026-04-06T08:11:22Z</time></trkpt><trkpt lat="40.6253857" lon="14.5839423"><ele>95.6</ele><time>2026-04-06T08:11:23Z</time></trkpt><trkpt lat="40.6254645" lon="14.583965"><ele>100.4</ele><time>2026-04-06T08:11:24Z</time></trkpt><trkpt lat="40.6255543" lon="14.5839615"><ele>105.2</ele><time>2026-04-06T08:11:25Z</time></trkpt><trkpt lat="40.6256458" lon="14.5839196"><ele>110.0</ele><time>2026-04-06T08:11:26Z</time></trkpt><trkpt lat="40.6257363" lon="14.5838526"><ele>110.0</ele><time>2026-04-06T08:11:27Z</time></trkpt><trkpt lat="40.6258126" lon="14.5837857"><ele>110.0</ele><time>2026-04-06T08:11:28Z</time></trkpt><trkpt lat="40.6258904" lon="14.5837252"><ele>110.0</ele><time>2026-04-06T08:11:29Z</time></trkpt><trkpt lat="40.6259672" lon="14.5836646"><ele>110.0</ele><time>2026-04-06T08:11:30Z</time></trkpt><trkpt lat="40.6260441" lon="14.5836066"><ele>110.0</ele><time>2026-04-06T08:11:31Z</time></trkpt><trkpt lat="40.6261245" lon="14.5835439"><ele>111.6</ele><time>2026-04-06T08:11:31.999Z</time></trkpt><trkpt lat="40.626214" lon="14.5834982"><ele>113.2</ele><time>2026-04-06T08:11:33Z</time></trkpt><trkpt lat="40.6263098" lon="14.583467"><ele>114.80000000000001</ele><time>2026-04-06T08:11:34Z</time></trkpt><trkpt lat="40.6264117" lon="14.5834461"><ele>116.4</ele><time>2026-04-06T08:11:35Z</time></trkpt><trkpt lat="40.6265161" lon="14.5834445"><ele>118.0</ele><time>2026-04-06T08:11:36Z</time></trkpt><trkpt lat="40.6266223" lon="14.5834591"><ele>118.00000000000001</ele><time>2026-04-06T08:11:37Z</time></trkpt><trkpt lat="40.6267161" lon="14.5834697"><ele>118.0</ele><time>2026-04-06T08:11:38Z</time></trkpt><trkpt lat="40.6268042" lon="14.5834767"><ele>118.0</ele><time>2026-04-06T08:11:39Z</time></trkpt><trkpt lat="40.6268733" lon="14.5834833"><ele>118.0</ele><time>2026-04-06T08:11:40Z</time></trkpt><trkpt lat="40.6269665" lon="14.5835066"><ele>118.00000000000001</ele><time>2026-04-06T08:11:42Z</time></trkpt><trkpt lat="40.6270436" lon="14.5835873"><ele>118.0</ele><time>2026-04-06T08:11:44Z</time></trkpt><trkpt lat="40.6270717" lon="14.5837397"><ele>118.00000000000001</ele><time>2026-04-06T08:11:46Z</time></trkpt><trkpt lat="40.6270564" lon="14.5838349"><ele>118.0</ele><time>2026-04-06T08:11:47Z</time></trkpt><trkpt lat="40.6270322" lon="14.5839188"><ele>118.0</ele><time>2026-04-06T08:11:48Z</time></trkpt><trkpt lat="40.6269964" lon="14.583996"><ele>118.0</ele><time>2026-04-06T08:11:48.999Z</time></trkpt><trkpt lat="40.6269378" lon="14.5840484"><ele>118.00000000000001</ele><time>2026-04-06T08:11:50Z</time></trkpt><trkpt lat="40.6268575" lon="14.584069"><ele>118.0</ele><time>2026-04-06T08:11:51Z</time></trkpt><trkpt lat="40.6267575" lon="14.5840861"><ele>114.0</ele><time>2026-04-06T08:11:52Z</time></trkpt><trkpt lat="40.6266406" lon="14.5841327"><ele>110.0</ele><time>2026-04-06T08:11:53Z</time></trkpt><trkpt lat="40.6265365" lon="14.5842054"><ele>106.0</ele><time>2026-04-06T08:11:54Z</time></trkpt><trkpt lat="40.626436" lon="14.584281"><ele>102.0</ele><time>2026-04-06T08:11:55Z</time></trkpt><trkpt lat="40.626338" lon="14.5843508"><ele>102.0</ele><time>2026-04-06T08:11:55.999Z</time></trkpt><trkpt lat="40.6262464" lon="14.5844204"><ele>102.0</ele><time>2026-04-06T08:11:57Z</time></trkpt><trkpt lat="40.6261585" lon="14.5844849"><ele>102.0</ele><time>2026-04-06T08:11:57.999Z</time></trkpt><trkpt lat="40.6260769" lon="14.5845486"><ele>102.0</ele><time>2026-04-06T08:11:59Z</time></trkpt><trkpt lat="40.6259941" lon="14.5846122"><ele>102.0</ele><time>2026-04-06T08:12:00Z</time></trkpt><trkpt lat="40.6259179" lon="14.5846833"><ele>103.0</ele><time>2026-04-06T08:12:01Z</time></trkpt><trkpt lat="40.6258516" lon="14.5847604"><ele>104.0</ele><time>2026-04-06T08:12:02Z</time></trkpt><trkpt lat="40.625789" lon="14.5848625"><ele>104.99999999999999</ele><time>2026-04-06T08:12:03Z</time></trkpt><trkpt lat="40.6257279" lon="14.5849753"><ele>106.0</ele><time>2026-04-06T08:12:04Z</time></trkpt><trkpt lat="40.6256839" lon="14.5850814"><ele>107.0</ele><time>2026-04-06T08:12:04.999Z</time></trkpt><trkpt lat="40.6256463" lon="14.5851819"><ele>106.99999999999999</ele><time>2026-04-06T08:12:06Z</time></trkpt><trkpt lat="40.6256044" lon="14.5852732"><ele>107.0</ele><time>2026-04-06T08:12:07Z</time></trkpt><trkpt lat="40.6255577" lon="14.5853438"><ele>107.0</ele><time>2026-04-06T08:12:08Z</time></trkpt><trkpt lat="40.6255182" lon="14.5854106"><ele>107.0</ele><time>2026-04-06T08:12:08.999Z</time></trkpt><trkpt lat="40.6254709" lon="14.5855296"><ele>106.99999999999999</ele><time>2026-04-06T08:12:11Z</time></trkpt><trkpt lat="40.625468" lon="14.5856365"><ele>107.0</ele><time>2026-04-06T08:12:13Z</time></trkpt><trkpt lat="40.6254881" lon="14.5857194"><ele>105.8</ele><time>2026-04-06T08:12:15Z</time></trkpt><trkpt lat="40.6254947" lon="14.5858683"><ele>104.6</ele><time>2026-04-06T08:12:17Z</time></trkpt><trkpt lat="40.6254989" lon="14.5860225"><ele>103.39999999999999</ele><time>2026-04-06T08:12:19Z</time></trkpt><trkpt lat="40.6254976" lon="14.5861154"><ele>102.19999999999999</ele><time>2026-04-06T08:12:20Z</time></trkpt><trkpt lat="40.6255006" lon="14.58622"><ele>101.0</ele><time>2026-04-06T08:12:20.999Z</time></trkpt><trkpt lat="40.625515" lon="14.5863325"><ele>96.83333333333333</ele><time>2026-04-06T08:12:22Z</time></trkpt><trkpt lat="40.6255641" lon="14.5864393"><ele>92.66666666666666</ele><time>2026-04-06T08:12:22.999Z</time></trkpt><trkpt lat="40.6256213" lon="14.5865323"><ele>88.5</ele><time>2026-04-06T08:12:24Z</time></trkpt><trkpt lat="40.6256925" lon="14.5866007"><ele>84.33333333333333</ele><time>2026-04-06T08:12:25Z</time></trkpt><trkpt lat="40.6257774" lon="14.5866392"><ele>80.16666666666666</ele><time>2026-04-06T08:12:26Z</time></trkpt><trkpt lat="40.6258507" lon="14.5866957"><ele>76.0</ele><time>2026-04-06T08:12:27Z</time></trkpt><trkpt lat="40.6259197" lon="14.5867447"><ele>76.0</ele><time>2026-04-06T08:12:28Z</time></trkpt><trkpt lat="40.6259865" lon="14.5867978"><ele>76.0</ele><time>2026-04-06T08:12:29Z</time></trkpt><trkpt lat="40.6260457" lon="14.5868526"><ele>76.0</ele><time>2026-04-06T08:12:30Z</time></trkpt><trkpt lat="40.6261003" lon="14.586917"><ele>76.0</ele><time>2026-04-06T08:12:31Z</time></trkpt><trkpt lat="40.6261374" lon="14.5870032"><ele>76.0</ele><time>2026-04-06T08:12:32Z</time></trkpt><trkpt lat="40.6261618" lon="14.5871073"><ele>76.0</ele><time>2026-04-06T08:12:33Z</time></trkpt><trkpt lat="40.6261966" lon="14.5872006"><ele>83.6</ele><time>2026-04-06T08:12:34Z</time></trkpt><trkpt lat="40.6262339" lon="14.5872981"><ele>91.19999999999999</ele><time>2026-04-06T08:12:35Z</time></trkpt><trkpt lat="40.6262866" lon="14.5873898"><ele>98.80000000000001</ele><time>2026-04-06T08:12:36Z</time></trkpt><trkpt lat="40.6263443" lon="14.5874907"><ele>106.4</ele><time>2026-04-06T08:12:37Z</time></trkpt><trkpt lat="40.6264096" lon="14.5875941"><ele>114.0</ele><time>2026-04-06T08:12:38Z</time></trkpt><trkpt lat="40.6264634" lon="14.5876998"><ele>114.0</ele><time>2026-04-06T08:12:39Z</time></trkpt><trkpt lat="40.6265041" lon="14.5878133"><ele>114.0</ele><time>2026-04-06T08:12:40Z</time></trkpt><trkpt lat="40.6265324" lon="14.5879195"><ele>114.0</ele><time>2026-04-06T08:12:41Z</time></trkpt><trkpt lat="40.6265494" lon="14.5880285"><ele>114.0</ele><time>2026-04-06T08:12:42Z</time></trkpt><trkpt lat="40.6265571" lon="14.5881301"><ele>114.0</ele><time>2026-04-06T08:12:43Z</time></trkpt><trkpt lat="40.6265492" lon="14.5882309"><ele>114.0</ele><time>2026-04-06T08:12:44Z</time></trkpt><trkpt lat="40.6265387" lon="14.5883368"><ele>108.83333333333333</ele><time>2026-04-06T08:12:44.999Z</time></trkpt><trkpt lat="40.6265542" lon="14.5884361"><ele>103.66666666666667</ele><time>2026-04-06T08:12:46Z</time></trkpt><trkpt lat="40.6265895" lon="14.588533"><ele>98.5</ele><time>2026-04-06T08:12:47Z</time></trkpt><trkpt lat="40.6266357" lon="14.5886199"><ele>93.33333333333334</ele><time>2026-04-06T08:12:48Z</time></trkpt><trkpt lat="40.6266771" lon="14.5887105"><ele>88.16666666666667</ele><time>2026-04-06T08:12:49Z</time></trkpt><trkpt lat="40.6267101" lon="14.588811"><ele>83.0</ele><time>2026-04-06T08:12:50Z</time></trkpt><trkpt lat="40.6267382" lon="14.5889132"><ele>79.2</ele><time>2026-04-06T08:12:51.155Z</time></trkpt><trkpt lat="40.6267788" lon="14.5891247"><ele>75.4</ele><time>2026-04-06T08:12:53Z</time></trkpt><trkpt lat="40.6268058" lon="14.5892392"><ele>71.60000000000001</ele><time>2026-04-06T08:12:54Z</time></trkpt><trkpt lat="40.6268419" lon="14.5893492"><ele>67.80000000000001</ele><time>2026-04-06T08:12:55Z</time></trkpt><trkpt lat="40.626886" lon="14.5894652"><ele>64.0</ele><time>2026-04-06T08:12:56Z</time></trkpt><trkpt lat="40.6269312" lon="14.5895764"><ele>69.80000000000001</ele><time>2026-04-06T08:12:57Z</time></trkpt><trkpt lat="40.6269802" lon="14.5896922"><ele>75.60000000000001</ele><time>2026-04-06T08:12:58Z</time></trkpt><trkpt lat="40.6270283" lon="14.5898092"><ele>81.4</ele><time>2026-04-06T08:12:59Z</time></trkpt><trkpt lat="40.6270778" lon="14.5899229"><ele>87.2</ele><time>2026-04-06T08:13:00Z</time></trkpt><trkpt lat="40.6271327" lon="14.5900342"><ele>93.0</ele><time>2026-04-06T08:13:01Z</time></trkpt><trkpt lat="40.6271973" lon="14.5901407"><ele>93.0</ele><time>2026-04-06T08:13:02Z</time></trkpt><trkpt lat="40.6272645" lon="14.5902406"><ele>93.0</ele><time>2026-04-06T08:13:03Z</time></trkpt><trkpt lat="40.6273413" lon="14.5903363"><ele>93.0</ele><time>2026-04-06T08:13:04Z</time></trkpt><trkpt lat="40.6274128" lon="14.5904295"><ele>93.0</ele><time>2026-04-06T08:13:05Z</time></trkpt><trkpt lat="40.6274661" lon="14.5905426"><ele>93.0</ele><time>2026-04-06T08:13:06Z</time></trkpt><trkpt lat="40.6275201" lon="14.59066"><ele>95.4</ele><time>2026-04-06T08:13:07Z</time></trkpt><trkpt lat="40.627572" lon="14.5907683"><ele>97.80000000000001</ele><time>2026-04-06T08:13:08Z</time></trkpt><trkpt lat="40.6276265" lon="14.5908774"><ele>100.2</ele><time>2026-04-06T08:13:09Z</time></trkpt><trkpt lat="40.6276849" lon="14.5909831"><ele>102.6</ele><time>2026-04-06T08:13:10Z</time></trkpt><trkpt lat="40.6277536" lon="14.5910781"><ele>105.0</ele><time>2026-04-06T08:13:11Z</time></trkpt><trkpt lat="40.6278301" lon="14.5911712"><ele>98.8</ele><time>2026-04-06T08:13:12Z</time></trkpt><trkpt lat="40.6279073" lon="14.5912599"><ele>92.6</ele><time>2026-04-06T08:13:13Z</time></trkpt><trkpt lat="40.6279805" lon="14.5913453"><ele>86.4</ele><time>2026-04-06T08:13:13.999Z</time></trkpt><trkpt lat="40.6280539" lon="14.5914275"><ele>80.2</ele><time>2026-04-06T08:13:15Z</time></trkpt><trkpt lat="40.6281247" lon="14.5915125"><ele>74.0</ele><time>2026-04-06T08:13:16Z</time></trkpt><trkpt lat="40.6281949" lon="14.5915919"><ele>74.0</ele><time>2026-04-06T08:13:17Z</time></trkpt><trkpt lat="40.6282654" lon="14.5916672"><ele>74.0</ele><time>2026-04-06T08:13:18Z</time></trkpt><trkpt lat="40.6283399" lon="14.591728"><ele>74.0</ele><time>2026-04-06T08:13:18.999Z</time></trkpt><trkpt lat="40.6284197" lon="14.5917828"><ele>74.0</ele><time>2026-04-06T08:13:19.999Z</time></trkpt><trkpt lat="40.6285002" lon="14.5918222"><ele>74.0</ele><time>2026-04-06T08:13:21Z</time></trkpt><trkpt lat="40.6285775" lon="14.5918728"><ele>74.0</ele><time>2026-04-06T08:13:21.999Z</time></trkpt><trkpt lat="40.6286601" lon="14.5919321"><ele>72.0</ele><time>2026-04-06T08:13:23Z</time></trkpt><trkpt lat="40.6287516" lon="14.5919892"><ele>70.0</ele><time>2026-04-06T08:13:24Z</time></trkpt><trkpt lat="40.6288512" lon="14.5920486"><ele>68.0</ele><time>2026-04-06T08:13:25Z</time></trkpt><trkpt lat="40.6289592" lon="14.5920852"><ele>66.0</ele><time>2026-04-06T08:13:26Z</time></trkpt><trkpt lat="40.6290711" lon="14.5921219"><ele>64.0</ele><time>2026-04-06T08:13:27Z</time></trkpt><trkpt lat="40.6291726" lon="14.5921886"><ele>64.0</ele><time>2026-04-06T08:13:28Z</time></trkpt><trkpt lat="40.6292585" lon="14.5922682"><ele>64.0</ele><time>2026-04-06T08:13:29Z</time></trkpt><trkpt lat="40.6293295" lon="14.592358"><ele>64.0</ele><time>2026-04-06T08:13:30Z</time></trkpt><trkpt lat="40.6293987" lon="14.5924391"><ele>64.0</ele><time>2026-04-06T08:13:31Z</time></trkpt><trkpt lat="40.6294644" lon="14.5925107"><ele>64.0</ele><time>2026-04-06T08:13:32Z</time></trkpt><trkpt lat="40.6295358" lon="14.59256"><ele>66.60000000000001</ele><time>2026-04-06T08:13:33Z</time></trkpt><trkpt lat="40.6296068" lon="14.5925841"><ele>69.2</ele><time>2026-04-06T08:13:34Z</time></trkpt><trkpt lat="40.6296731" lon="14.5926052"><ele>71.80000000000001</ele><time>2026-04-06T08:13:35Z</time></trkpt><trkpt lat="40.6297613" lon="14.592698"><ele>74.4</ele><time>2026-04-06T08:13:37Z</time></trkpt><trkpt lat="40.629821" lon="14.5928155"><ele>77.0</ele><time>2026-04-06T08:13:39Z</time></trkpt><trkpt lat="40.6298463" lon="14.5929507"><ele>77.0</ele><time>2026-04-06T08:13:41Z</time></trkpt><trkpt lat="40.6298372" lon="14.593106"><ele>77.0</ele><time>2026-04-06T08:13:43Z</time></trkpt><trkpt lat="40.629836" lon="14.5931922"><ele>77.0</ele><time>2026-04-06T08:13:44Z</time></trkpt><trkpt lat="40.6298436" lon="14.5933682"><ele>77.0</ele><time>2026-04-06T08:13:46Z</time></trkpt><trkpt lat="40.6298698" lon="14.5934733"><ele>77.0</ele><time>2026-04-06T08:13:47Z</time></trkpt><trkpt lat="40.6299079" lon="14.5935821"><ele>71.75</ele><time>2026-04-06T08:13:48Z</time></trkpt><trkpt lat="40.6299538" lon="14.5937079"><ele>66.5</ele><time>2026-04-06T08:13:49Z</time></trkpt><trkpt lat="40.6300112" lon="14.5938552"><ele>61.25</ele><time>2026-04-06T08:13:50Z</time></trkpt><trkpt lat="40.630059" lon="14.5940023"><ele>56.0</ele><time>2026-04-06T08:13:51Z</time></trkpt><trkpt lat="40.6301143" lon="14.5941429"><ele>56.00000000000001</ele><time>2026-04-06T08:13:52Z</time></trkpt><trkpt lat="40.6301805" lon="14.5942549"><ele>56.0</ele><time>2026-04-06T08:13:52.999Z</time></trkpt><trkpt lat="40.6302551" lon="14.594333"><ele>56.0</ele><time>2026-04-06T08:13:54Z</time></trkpt><trkpt lat="40.6303343" lon="14.5943853"><ele>56.0</ele><time>2026-04-06T08:13:55Z</time></trkpt><trkpt lat="40.6304056" lon="14.5944255"><ele>56.00000000000001</ele><time>2026-04-06T08:13:56Z</time></trkpt><trkpt lat="40.6304748" lon="14.5944765"><ele>56.0</ele><time>2026-04-06T08:13:57Z</time></trkpt><trkpt lat="40.6305372" lon="14.5945315"><ele>56.333333333333336</ele><time>2026-04-06T08:13:58Z</time></trkpt><trkpt lat="40.6305916" lon="14.5946014"><ele>56.66666666666667</ele><time>2026-04-06T08:13:58.999Z</time></trkpt><trkpt lat="40.6306309" lon="14.594671"><ele>57.0</ele><time>2026-04-06T08:14:00Z</time></trkpt><trkpt lat="40.6306823" lon="14.5947268"><ele>57.33333333333333</ele><time>2026-04-06T08:14:01Z</time></trkpt><trkpt lat="40.6307984" lon="14.5947943"><ele>57.666666666666664</ele><time>2026-04-06T08:14:03Z</time></trkpt><trkpt lat="40.6308597" lon="14.5948267"><ele>58.0</ele><time>2026-04-06T08:14:04Z</time></trkpt><trkpt lat="40.6309238" lon="14.5948582"><ele>57.99999999999999</ele><time>2026-04-06T08:14:05Z</time></trkpt><trkpt lat="40.630989" lon="14.5948884"><ele>58.0</ele><time>2026-04-06T08:14:06Z</time></trkpt><trkpt lat="40.6310537" lon="14.5949237"><ele>58.0</ele><time>2026-04-06T08:14:07Z</time></trkpt><trkpt lat="40.6311048" lon="14.5949861"><ele>58.0</ele><time>2026-04-06T08:14:08Z</time></trkpt><trkpt lat="40.6311613" lon="14.5950533"><ele>57.99999999999999</ele><time>2026-04-06T08:14:09Z</time></trkpt><trkpt lat="40.6312107" lon="14.5951355"><ele>58.0</ele><time>2026-04-06T08:14:10Z</time></trkpt><trkpt lat="40.6312657" lon="14.5952317"><ele>57.0</ele><time>2026-04-06T08:14:11Z</time></trkpt><trkpt lat="40.6313238" lon="14.5953365"><ele>56.0</ele><time>2026-04-06T08:14:12Z</time></trkpt><trkpt lat="40.6313841" lon="14.5954498"><ele>55.0</ele><time>2026-04-06T08:14:13Z</time></trkpt><trkpt lat="40.6314473" lon="14.5955599"><ele>54.0</ele><time>2026-04-06T08:14:14Z</time></trkpt><trkpt lat="40.631504" lon="14.5956629"><ele>53.0</ele><time>2026-04-06T08:14:15Z</time></trkpt><trkpt lat="40.6315685" lon="14.5957451"><ele>53.00000000000001</ele><time>2026-04-06T08:14:16Z</time></trkpt><trkpt lat="40.6316461" lon="14.595786"><ele>53.0</ele><time>2026-04-06T08:14:17Z</time></trkpt><trkpt lat="40.6317195" lon="14.5958097"><ele>53.0</ele><time>2026-04-06T08:14:18Z</time></trkpt><trkpt lat="40.631793" lon="14.5958069"><ele>53.0</ele><time>2026-04-06T08:14:19Z</time></trkpt><trkpt lat="40.6318713" lon="14.5958042"><ele>53.00000000000001</ele><time>2026-04-06T08:14:20Z</time></trkpt><trkpt lat="40.6319488" lon="14.5958024"><ele>53.0</ele><time>2026-04-06T08:14:21Z</time></trkpt><trkpt lat="40.6320268" lon="14.5957981"><ele>64.6</ele><time>2026-04-06T08:14:22Z</time></trkpt><trkpt lat="40.6321036" lon="14.5957703"><ele>76.19999999999999</ele><time>2026-04-06T08:14:23Z</time></trkpt><trkpt lat="40.6321742" lon="14.5957543"><ele>87.8</ele><time>2026-04-06T08:14:24Z</time></trkpt><trkpt lat="40.6322464" lon="14.5957611"><ele>99.39999999999999</ele><time>2026-04-06T08:14:25Z</time></trkpt><trkpt lat="40.6323546" lon="14.5957803"><ele>111.0</ele><time>2026-04-06T08:14:27Z</time></trkpt><trkpt lat="40.632351" lon="14.5959602"><ele>111.0</ele><time>2026-04-06T08:14:29Z</time></trkpt><trkpt lat="40.632353" lon="14.5960488"><ele>111.0</ele><time>2026-04-06T08:14:30Z</time></trkpt><trkpt lat="40.6323494" lon="14.5961859"><ele>111.0</ele><time>2026-04-06T08:14:32Z</time></trkpt><trkpt lat="40.6329215" lon="14.5973715"><ele>105.0</ele><time>2026-04-06T08:14:44.383Z</time></trkpt><trkpt lat="40.632874" lon="14.5975902"><ele>99.0</ele><time>2026-04-06T08:14:51Z</time></trkpt><trkpt lat="40.6329222" lon="14.5977211"><ele>93.0</ele><time>2026-04-06T08:14:53Z</time></trkpt><trkpt lat="40.6330219" lon="14.5977957"><ele>87.0</ele><time>2026-04-06T08:14:55Z</time></trkpt><trkpt lat="40.6330762" lon="14.5978574"><ele>79.16666666666667</ele><time>2026-04-06T08:14:56Z</time></trkpt><trkpt lat="40.6331421" lon="14.5979094"><ele>71.33333333333333</ele><time>2026-04-06T08:14:57Z</time></trkpt><trkpt lat="40.6332131" lon="14.5979478"><ele>63.5</ele><time>2026-04-06T08:14:58Z</time></trkpt><trkpt lat="40.6332725" lon="14.5980278"><ele>55.66666666666667</ele><time>2026-04-06T08:14:59Z</time></trkpt><trkpt lat="40.6333202" lon="14.5981219"><ele>47.833333333333336</ele><time>2026-04-06T08:15:00Z</time></trkpt><trkpt lat="40.6333627" lon="14.5982218"><ele>40.0</ele><time>2026-04-06T08:15:01Z</time></trkpt><trkpt lat="40.6333979" lon="14.5983108"><ele>40.0</ele><time>2026-04-06T08:15:02Z</time></trkpt><trkpt lat="40.6334275" lon="14.5984273"><ele>40.0</ele><time>2026-04-06T08:15:03Z</time></trkpt><trkpt lat="40.6334455" lon="14.5985387"><ele>40.0</ele><time>2026-04-06T08:15:04Z</time></trkpt><trkpt lat="40.6334521" lon="14.598647"><ele>40.0</ele><time>2026-04-06T08:15:05Z</time></trkpt><trkpt lat="40.6334623" lon="14.5987425"><ele>40.0</ele><time>2026-04-06T08:15:06Z</time></trkpt><trkpt lat="40.6334737" lon="14.5988525"><ele>40.0</ele><time>2026-04-06T08:15:08Z</time></trkpt><trkpt lat="40.6334829" lon="14.5989682"><ele>38.66666666666667</ele><time>2026-04-06T08:15:12Z</time></trkpt><trkpt lat="40.6335033" lon="14.5990892"><ele>37.333333333333336</ele><time>2026-04-06T08:15:14.999Z</time></trkpt><trkpt lat="40.6335285" lon="14.5991679"><ele>36.0</ele><time>2026-04-06T08:15:17Z</time></trkpt><trkpt lat="40.6335708" lon="14.5992582"><ele>34.666666666666664</ele><time>2026-04-06T08:15:19Z</time></trkpt><trkpt lat="40.6336104" lon="14.5993852"><ele>33.33333333333333</ele><time>2026-04-06T08:15:21Z</time></trkpt><trkpt lat="40.6336294" lon="14.5994701"><ele>32.0</ele><time>2026-04-06T08:15:22Z</time></trkpt><trkpt lat="40.6336467" lon="14.5995554"><ele>39.33333333333333</ele><time>2026-04-06T08:15:23Z</time></trkpt><trkpt lat="40.6336607" lon="14.5996454"><ele>46.666666666666664</ele><time>2026-04-06T08:15:24Z</time></trkpt><trkpt lat="40.6336709" lon="14.5997495"><ele>54.0</ele><time>2026-04-06T08:15:25Z</time></trkpt><trkpt lat="40.6336763" lon="14.5998511"><ele>61.33333333333333</ele><time>2026-04-06T08:15:25.999Z</time></trkpt><trkpt lat="40.6336775" lon="14.5999479"><ele>68.66666666666666</ele><time>2026-04-06T08:15:27Z</time></trkpt><trkpt lat="40.6336739" lon="14.6000482"><ele>76.0</ele><time>2026-04-06T08:15:28Z</time></trkpt><trkpt lat="40.6336783" lon="14.6001515"><ele>76.0</ele><time>2026-04-06T08:15:29Z</time></trkpt><trkpt lat="40.6336825" lon="14.6002444"><ele>76.0</ele><time>2026-04-06T08:15:30Z</time></trkpt><trkpt lat="40.633686" lon="14.6003383"><ele>76.0</ele><time>2026-04-06T08:15:31Z</time></trkpt><trkpt lat="40.6336893" lon="14.6004261"><ele>76.0</ele><time>2026-04-06T08:15:32Z</time></trkpt><trkpt lat="40.633686" lon="14.6005193"><ele>76.0</ele><time>2026-04-06T08:15:33Z</time></trkpt><trkpt lat="40.6336883" lon="14.6006113"><ele>76.0</ele><time>2026-04-06T08:15:34Z</time></trkpt><trkpt lat="40.6336921" lon="14.6006958"><ele>76.0</ele><time>2026-04-06T08:15:35Z</time></trkpt><trkpt lat="40.6336972" lon="14.6007832"><ele>66.75</ele><time>2026-04-06T08:15:36Z</time></trkpt><trkpt lat="40.6337036" lon="14.6008676"><ele>57.5</ele><time>2026-04-06T08:15:37Z</time></trkpt><trkpt lat="40.6337116" lon="14.6009579"><ele>48.25</ele><time>2026-04-06T08:15:38Z</time></trkpt><trkpt lat="40.6337242" lon="14.6010436"><ele>39.0</ele><time>2026-04-06T08:15:39Z</time></trkpt><trkpt lat="40.6338242" lon="14.6017184"><ele>36.714285714285715</ele><time>2026-04-06T08:15:46Z</time></trkpt><trkpt lat="40.63384" lon="14.6018005"><ele>34.42857142857142</ele><time>2026-04-06T08:15:48Z</time></trkpt><trkpt lat="40.6338536" lon="14.6018868"><ele>32.14285714285714</ele><time>2026-04-06T08:15:54Z</time></trkpt><trkpt lat="40.633861" lon="14.601977"><ele>29.857142857142858</ele><time>2026-04-06T08:15:57Z</time></trkpt><trkpt lat="40.6338693" lon="14.6020985"><ele>27.57142857142857</ele><time>2026-04-06T08:16:00Z</time></trkpt><trkpt lat="40.6338739" lon="14.6021857"><ele>25.285714285714285</ele><time>2026-04-06T08:16:02Z</time></trkpt><trkpt lat="40.6338815" lon="14.6022724"><ele>23.0</ele><time>2026-04-06T08:16:05Z</time></trkpt><trkpt lat="40.6338843" lon="14.6023673"><ele>22.0</ele><time>2026-04-06T08:16:10Z</time></trkpt><trkpt lat="40.633884" lon="14.6024549"><ele>21.0</ele><time>2026-04-06T08:16:14Z</time></trkpt><trkpt lat="40.6338658" lon="14.6025772"><ele>20.0</ele><time>2026-04-06T08:16:21Z</time></trkpt><trkpt lat="40.6338237" lon="14.6026626"><ele>19.0</ele><time>2026-04-06T08:16:23Z</time></trkpt><trkpt lat="40.6338122" lon="14.6027446"><ele>18.0</ele><time>2026-04-06T08:16:24Z</time></trkpt><trkpt lat="40.6338269" lon="14.6028358"><ele>17.0</ele><time>2026-04-06T08:16:26Z</time></trkpt><trkpt lat="40.6338544" lon="14.6029203"><ele>16.0</ele><time>2026-04-06T08:16:29Z</time></trkpt><trkpt lat="40.6338812" lon="14.6030379"><ele>16.0</ele><time>2026-04-06T08:16:31Z</time></trkpt><trkpt lat="40.6339038" lon="14.6031194"><ele>15.999999999999998</ele><time>2026-04-06T08:16:32Z</time></trkpt><trkpt lat="40.6339183" lon="14.6032098"><ele>16.0</ele><time>2026-04-06T08:16:32.999Z</time></trkpt><trkpt lat="40.6339327" lon="14.6033031"><ele>16.0</ele><time>2026-04-06T08:16:34Z</time></trkpt><trkpt lat="40.6339393" lon="14.603392"><ele>15.999999999999998</ele><time>2026-04-06T08:16:35Z</time></trkpt><trkpt lat="40.633955" lon="14.6034806"><ele>16.0</ele><time>2026-04-06T08:16:35.999Z</time></trkpt><trkpt lat="40.6339657" lon="14.6035698"><ele>16.0</ele><time>2026-04-06T08:16:37Z</time></trkpt><trkpt lat="40.6339787" lon="14.6036663"><ele>16.833333333333332</ele><time>2026-04-06T08:16:38Z</time></trkpt><trkpt lat="40.6339856" lon="14.6037666"><ele>17.666666666666664</ele><time>2026-04-06T08:16:39Z</time></trkpt><trkpt lat="40.6339967" lon="14.603873"><ele>18.5</ele><time>2026-04-06T08:16:40Z</time></trkpt><trkpt lat="40.6340123" lon="14.6039858"><ele>19.333333333333332</ele><time>2026-04-06T08:16:41Z</time></trkpt><trkpt lat="40.6340251" lon="14.6040799"><ele>20.166666666666668</ele><time>2026-04-06T08:16:42Z</time></trkpt><trkpt lat="40.6340426" lon="14.6042046"><ele>21.0</ele><time>2026-04-06T08:16:44Z</time></trkpt><trkpt lat="40.6340535" lon="14.6043368"><ele>21.0</ele><time>2026-04-06T08:16:46Z</time></trkpt><trkpt lat="40.634039" lon="14.6044185"><ele>21.0</ele><time>2026-04-06T08:16:47Z</time></trkpt><trkpt lat="40.6340117" lon="14.6045051"><ele>21.0</ele><time>2026-04-06T08:16:48Z</time></trkpt><trkpt lat="40.6339742" lon="14.6045872"><ele>21.0</ele><time>2026-04-06T08:16:49Z</time></trkpt><trkpt lat="40.6339272" lon="14.6046586"><ele>21.0</ele><time>2026-04-06T08:16:50Z</time></trkpt><trkpt lat="40.6338726" lon="14.6047178"><ele>21.0</ele><time>2026-04-06T08:16:51Z</time></trkpt><trkpt lat="40.6338145" lon="14.6047608"><ele>21.0</ele><time>2026-04-06T08:16:52Z</time></trkpt><trkpt lat="40.6337456" lon="14.6047974"><ele>19.833333333333332</ele><time>2026-04-06T08:16:53Z</time></trkpt><trkpt lat="40.6336769" lon="14.6048379"><ele>18.666666666666668</ele><time>2026-04-06T08:16:54Z</time></trkpt><trkpt lat="40.6336069" lon="14.6048714"><ele>17.5</ele><time>2026-04-06T08:16:55Z</time></trkpt><trkpt lat="40.6335366" lon="14.604917"><ele>16.333333333333336</ele><time>2026-04-06T08:16:56Z</time></trkpt><trkpt lat="40.6334839" lon="14.6049843"><ele>15.166666666666668</ele><time>2026-04-06T08:16:57Z</time></trkpt><trkpt lat="40.6334527" lon="14.6050771"><ele>14.0</ele><time>2026-04-06T08:16:58Z</time></trkpt><trkpt lat="40.6334479" lon="14.6051817"><ele>14.000000000000002</ele><time>2026-04-06T08:16:58.999Z</time></trkpt><trkpt lat="40.6334487" lon="14.6052979"><ele>14.0</ele><time>2026-04-06T08:17:00Z</time></trkpt><trkpt lat="40.6334447" lon="14.6054182"><ele>14.0</ele><time>2026-04-06T08:17:01Z</time></trkpt><trkpt lat="40.6334359" lon="14.605528"><ele>14.0</ele><time>2026-04-06T08:17:02Z</time></trkpt><trkpt lat="40.6334254" lon="14.6056202"><ele>14.000000000000002</ele><time>2026-04-06T08:17:03Z</time></trkpt><trkpt lat="40.6334156" lon="14.6057501"><ele>14.0</ele><time>2026-04-06T08:17:05Z</time></trkpt><trkpt lat="40.633396" lon="14.6058719"><ele>13.833333333333334</ele><time>2026-04-06T08:17:08Z</time></trkpt><trkpt lat="40.6333615" lon="14.6060186"><ele>13.666666666666668</ele><time>2026-04-06T08:17:09.999Z</time></trkpt><trkpt lat="40.6333431" lon="14.6061202"><ele>13.5</ele><time>2026-04-06T08:17:11Z</time></trkpt><trkpt lat="40.6333226" lon="14.6062116"><ele>13.333333333333332</ele><time>2026-04-06T08:17:12Z</time></trkpt><trkpt lat="40.6332876" lon="14.6062904"><ele>13.166666666666666</ele><time>2026-04-06T08:17:13Z</time></trkpt><trkpt lat="40.6332439" lon="14.6063559"><ele>13.0</ele><time>2026-04-06T08:17:14Z</time></trkpt><trkpt lat="40.6331941" lon="14.6064194"><ele>12.999999999999998</ele><time>2026-04-06T08:17:14.999Z</time></trkpt><trkpt lat="40.633144" lon="14.6065019"><ele>13.0</ele><time>2026-04-06T08:17:16Z</time></trkpt><trkpt lat="40.6331048" lon="14.6065833"><ele>13.0</ele><time>2026-04-06T08:17:17Z</time></trkpt><trkpt lat="40.6330789" lon="14.6066609"><ele>13.0</ele><time>2026-04-06T08:17:18Z</time></trkpt><trkpt lat="40.6330542" lon="14.6067407"><ele>12.999999999999998</ele><time>2026-04-06T08:17:18.999Z</time></trkpt><trkpt lat="40.6330637" lon="14.6068789"><ele>13.0</ele><time>2026-04-06T08:17:21Z</time></trkpt><trkpt lat="40.6331538" lon="14.6069701"><ele>11.833333333333332</ele><time>2026-04-06T08:17:23Z</time></trkpt><trkpt lat="40.6332197" lon="14.6070088"><ele>10.666666666666666</ele><time>2026-04-06T08:17:23.999Z</time></trkpt><trkpt lat="40.6332824" lon="14.60704"><ele>9.5</ele><time>2026-04-06T08:17:25Z</time></trkpt><trkpt lat="40.6333529" lon="14.607063"><ele>8.333333333333332</ele><time>2026-04-06T08:17:26Z</time></trkpt><trkpt lat="40.6334631" lon="14.607101"><ele>7.166666666666666</ele><time>2026-04-06T08:17:28Z</time></trkpt><trkpt lat="40.6335479" lon="14.6070936"><ele>6.0</ele><time>2026-04-06T08:17:37Z</time></trkpt><trkpt lat="40.6336118" lon="14.6070907"><ele>9.666666666666668</ele><time>2026-04-06T08:17:40Z</time></trkpt><trkpt lat="40.6336758" lon="14.6070776"><ele>13.333333333333334</ele><time>2026-04-06T08:17:43Z</time></trkpt><trkpt lat="40.6337514" lon="14.6070663"><ele>17.0</ele><time>2026-04-06T08:17:46Z</time></trkpt><trkpt lat="40.6338229" lon="14.6070725"><ele>20.666666666666668</ele><time>2026-04-06T08:17:48Z</time></trkpt><trkpt lat="40.6339041" lon="14.6070823"><ele>24.333333333333336</ele><time>2026-04-06T08:17:51Z</time></trkpt><trkpt lat="40.6339756" lon="14.6070985"><ele>28.0</ele><time>2026-04-06T08:17:54Z</time></trkpt><trkpt lat="40.6340877" lon="14.6071097"><ele>28.0</ele><time>2026-04-06T08:17:58Z</time></trkpt><trkpt lat="40.6341702" lon="14.6071459"><ele>27.999999999999996</ele><time>2026-04-06T08:17:59Z</time></trkpt><trkpt lat="40.6342576" lon="14.6072176"><ele>27.999999999999996</ele><time>2026-04-06T08:18:00Z</time></trkpt><trkpt lat="40.6343386" lon="14.6072987"><ele>28.0</ele><time>2026-04-06T08:18:01Z</time></trkpt><trkpt lat="40.6344098" lon="14.6074015"><ele>28.0</ele><time>2026-04-06T08:18:02Z</time></trkpt><trkpt lat="40.6344712" lon="14.6074944"><ele>24.5</ele><time>2026-04-06T08:18:03Z</time></trkpt><trkpt lat="40.634525" lon="14.607595"><ele>21.0</ele><time>2026-04-06T08:18:03.999Z</time></trkpt><trkpt lat="40.6350617" lon="14.6082265"><ele>21.0</ele><time>2026-04-06T08:18:13Z</time></trkpt><trkpt lat="40.6351783" lon="14.6082521"><ele>21.0</ele><time>2026-04-06T08:18:15Z</time></trkpt><trkpt lat="40.6352835" lon="14.6083006"><ele>21.0</ele><time>2026-04-06T08:18:17Z</time></trkpt><trkpt lat="40.6353881" lon="14.608346"><ele>21.0</ele><time>2026-04-06T08:18:19Z</time></trkpt><trkpt lat="40.635504" lon="14.60839"><ele>21.4</ele><time>2026-04-06T08:18:21Z</time></trkpt><trkpt lat="40.6356083" lon="14.6084563"><ele>21.8</ele><time>2026-04-06T08:18:23Z</time></trkpt><trkpt lat="40.6356577" lon="14.6085277"><ele>22.2</ele><time>2026-04-06T08:18:24Z</time></trkpt><trkpt lat="40.6357002" lon="14.608595"><ele>22.599999999999998</ele><time>2026-04-06T08:18:25Z</time></trkpt><trkpt lat="40.6357454" lon="14.6087397"><ele>23.0</ele><time>2026-04-06T08:18:27Z</time></trkpt><trkpt lat="40.6357694" lon="14.6088967"><ele>21.28571428571429</ele><time>2026-04-06T08:18:29Z</time></trkpt><trkpt lat="40.6357861" lon="14.6089768"><ele>19.57142857142857</ele><time>2026-04-06T08:18:30Z</time></trkpt><trkpt lat="40.6358053" lon="14.6090651"><ele>17.857142857142858</ele><time>2026-04-06T08:18:31Z</time></trkpt><trkpt lat="40.6358205" lon="14.6091511"><ele>16.142857142857142</ele><time>2026-04-06T08:18:32Z</time></trkpt><trkpt lat="40.6358356" lon="14.6092344"><ele>14.428571428571427</ele><time>2026-04-06T08:18:33Z</time></trkpt><trkpt lat="40.6358484" lon="14.6093203"><ele>12.714285714285715</ele><time>2026-04-06T08:18:34Z</time></trkpt><trkpt lat="40.635859" lon="14.6094064"><ele>11.0</ele><time>2026-04-06T08:18:35Z</time></trkpt><trkpt lat="40.6358555" lon="14.6094986"><ele>10.714285714285715</ele><time>2026-04-06T08:18:36Z</time></trkpt><trkpt lat="40.6358288" lon="14.6095813"><ele>10.428571428571429</ele><time>2026-04-06T08:18:37Z</time></trkpt><trkpt lat="40.6357807" lon="14.6096543"><ele>10.142857142857142</ele><time>2026-04-06T08:18:38Z</time></trkpt><trkpt lat="40.6357278" lon="14.6097319"><ele>9.857142857142858</ele><time>2026-04-06T08:18:39Z</time></trkpt><trkpt lat="40.6356992" lon="14.6098113"><ele>9.571428571428571</ele><time>2026-04-06T08:18:40Z</time></trkpt><trkpt lat="40.6356704" lon="14.6098888"><ele>9.285714285714286</ele><time>2026-04-06T08:18:41Z</time></trkpt><trkpt lat="40.6357025" lon="14.60998"><ele>9.0</ele><time>2026-04-06T08:18:42Z</time></trkpt><trkpt lat="40.6357578" lon="14.6101299"><ele>9.0</ele><time>2026-04-06T08:18:44Z</time></trkpt><trkpt lat="40.6358611" lon="14.6102145"><ele>9.0</ele><time>2026-04-06T08:18:46Z</time></trkpt><trkpt lat="40.6359275" lon="14.6102297"><ele>9.0</ele><time>2026-04-06T08:18:47Z</time></trkpt><trkpt lat="40.6359951" lon="14.610241"><ele>9.0</ele><time>2026-04-06T08:18:48Z</time></trkpt><trkpt lat="40.6360591" lon="14.6102473"><ele>9.0</ele><time>2026-04-06T08:18:49Z</time></trkpt><trkpt lat="40.6361733" lon="14.6102352"><ele>9.0</ele><time>2026-04-06T08:18:51Z</time></trkpt><trkpt lat="40.6362931" lon="14.6102195"><ele>19.0</ele><time>2026-04-06T08:18:53Z</time></trkpt><trkpt lat="40.6364115" lon="14.6102132"><ele>29.0</ele><time>2026-04-06T08:18:55Z</time></trkpt><trkpt lat="40.6365249" lon="14.6101859"><ele>39.0</ele><time>2026-04-06T08:18:57Z</time></trkpt><trkpt lat="40.636582" lon="14.610091"><ele>49.0</ele><time>2026-04-06T08:18:59Z</time></trkpt><trkpt lat="40.6364623" lon="14.6101527"><ele>48.99999999999999</ele><time>2026-04-06T08:19:12Z</time></trkpt><trkpt lat="40.6363875" lon="14.6101646"><ele>49.0</ele><time>2026-04-06T08:19:13Z</time></trkpt><trkpt lat="40.6363214" lon="14.6101779"><ele>49.0</ele><time>2026-04-06T08:19:14Z</time></trkpt><trkpt lat="40.6361968" lon="14.6101914"><ele>49.0</ele><time>2026-04-06T08:19:16Z</time></trkpt><trkpt lat="40.6361323" lon="14.6101916"><ele>48.99999999999999</ele><time>2026-04-06T08:19:17Z</time></trkpt><trkpt lat="40.6360191" lon="14.6101929"><ele>49.0</ele><time>2026-04-06T08:19:19Z</time></trkpt><trkpt lat="40.6359144" lon="14.6101615"><ele>42.33333333333333</ele><time>2026-04-06T08:19:21.136Z</time></trkpt><trkpt lat="40.6358187" lon="14.6101246"><ele>35.666666666666664</ele><time>2026-04-06T08:19:23Z</time></trkpt><trkpt lat="40.6357427" lon="14.6100328"><ele>29.0</ele><time>2026-04-06T08:19:25Z</time></trkpt><trkpt lat="40.6357144" lon="14.6099537"><ele>22.333333333333332</ele><time>2026-04-06T08:19:29Z</time></trkpt><trkpt lat="40.6356971" lon="14.6098631"><ele>15.666666666666666</ele><time>2026-04-06T08:19:32Z</time></trkpt><trkpt lat="40.6357142" lon="14.6097823"><ele>9.0</ele><time>2026-04-06T08:19:34Z</time></trkpt><trkpt lat="40.6357772" lon="14.6096863"><ele>9.0</ele><time>2026-04-06T08:19:36Z</time></trkpt><trkpt lat="40.635855" lon="14.6095748"><ele>9.0</ele><time>2026-04-06T08:19:38Z</time></trkpt><trkpt lat="40.6358694" lon="14.6094142"><ele>9.0</ele><time>2026-04-06T08:19:40Z</time></trkpt><trkpt lat="40.6358572" lon="14.6093324"><ele>9.0</ele><time>2026-04-06T08:19:41Z</time></trkpt><trkpt lat="40.6358315" lon="14.6091942"><ele>9.0</ele><time>2026-04-06T08:19:43Z</time></trkpt><trkpt lat="40.635814" lon="14.6090693"><ele>9.333333333333334</ele><time>2026-04-06T08:19:45Z</time></trkpt><trkpt lat="40.6357845" lon="14.6089323"><ele>9.666666666666666</ele><time>2026-04-06T08:19:47Z</time></trkpt><trkpt lat="40.63576" lon="14.6087901"><ele>10.0</ele><time>2026-04-06T08:19:49Z</time></trkpt><trkpt lat="40.635743" lon="14.6086846"><ele>10.333333333333332</ele><time>2026-04-06T08:19:51Z</time></trkpt><trkpt lat="40.6357287" lon="14.6085801"><ele>10.666666666666666</ele><time>2026-04-06T08:19:54Z</time></trkpt><trkpt lat="40.6356813" lon="14.6085246"><ele>11.0</ele><time>2026-04-06T08:23:14Z</time></trkpt><trkpt lat="40.6355864" lon="14.6084212"><ele>12.666666666666666</ele><time>2026-04-06T08:23:16Z</time></trkpt><trkpt lat="40.6355103" lon="14.6083655"><ele>14.333333333333332</ele><time>2026-04-06T08:23:17Z</time></trkpt><trkpt lat="40.6354365" lon="14.6083159"><ele>16.0</ele><time>2026-04-06T08:23:18Z</time></trkpt><trkpt lat="40.6353301" lon="14.6083013"><ele>17.666666666666668</ele><time>2026-04-06T08:23:19Z</time></trkpt><trkpt lat="40.6352514" lon="14.6082788"><ele>19.333333333333332</ele><time>2026-04-06T08:23:19.999Z</time></trkpt><trkpt lat="40.6351859" lon="14.6082638"><ele>21.0</ele><time>2026-04-06T08:23:20.999Z</time></trkpt><trkpt lat="40.6350805" lon="14.6082264"><ele>21.0</ele><time>2026-04-06T08:23:23Z</time></trkpt><trkpt lat="40.6349611" lon="14.6081785"><ele>21.0</ele><time>2026-04-06T08:23:25Z</time></trkpt><trkpt lat="40.6348997" lon="14.6081412"><ele>21.0</ele><time>2026-04-06T08:23:25.999Z</time></trkpt><trkpt lat="40.6348277" lon="14.6080765"><ele>21.0</ele><time>2026-04-06T08:23:27Z</time></trkpt><trkpt lat="40.6347556" lon="14.6080181"><ele>21.0</ele><time>2026-04-06T08:23:28Z</time></trkpt><trkpt lat="40.6346836" lon="14.6079576"><ele>28.0</ele><time>2026-04-06T08:23:29Z</time></trkpt><trkpt lat="40.6343687" lon="14.6072826"><ele>28.0</ele><time>2026-04-06T08:23:36Z</time></trkpt><trkpt lat="40.6343188" lon="14.6071786"><ele>27.999999999999996</ele><time>2026-04-06T08:23:37Z</time></trkpt><trkpt lat="40.6342199" lon="14.6071106"><ele>27.999999999999996</ele><time>2026-04-06T08:23:39Z</time></trkpt><trkpt lat="40.634154" lon="14.6070741"><ele>28.0</ele><time>2026-04-06T08:23:40Z</time></trkpt><trkpt lat="40.6340286" lon="14.6070393"><ele>28.0</ele><time>2026-04-06T08:23:42Z</time></trkpt><trkpt lat="40.6339649" lon="14.607021"><ele>28.000000000000004</ele><time>2026-04-06T08:23:43Z</time></trkpt><trkpt lat="40.633894" lon="14.6070129"><ele>28.0</ele><time>2026-04-06T08:23:44Z</time></trkpt><trkpt lat="40.6338155" lon="14.6070119"><ele>28.0</ele><time>2026-04-06T08:23:45Z</time></trkpt><trkpt lat="40.6337364" lon="14.6070153"><ele>28.0</ele><time>2026-04-06T08:23:46Z</time></trkpt><trkpt lat="40.6336519" lon="14.6070239"><ele>28.000000000000004</ele><time>2026-04-06T08:23:47Z</time></trkpt><trkpt lat="40.6335662" lon="14.607025"><ele>28.0</ele><time>2026-04-06T08:23:47.999Z</time></trkpt><trkpt lat="40.6334827" lon="14.6070176"><ele>25.0</ele><time>2026-04-06T08:23:49Z</time></trkpt><trkpt lat="40.6334032" lon="14.60699"><ele>21.999999999999996</ele><time>2026-04-06T08:23:50Z</time></trkpt><trkpt lat="40.6333353" lon="14.6069648"><ele>19.0</ele><time>2026-04-06T08:23:51Z</time></trkpt><trkpt lat="40.6332708" lon="14.6069328"><ele>16.0</ele><time>2026-04-06T08:23:52Z</time></trkpt><trkpt lat="40.6331511" lon="14.6068624"><ele>13.0</ele><time>2026-04-06T08:23:54Z</time></trkpt><trkpt lat="40.6330739" lon="14.606748"><ele>13.0</ele><time>2026-04-06T08:23:56Z</time></trkpt><trkpt lat="40.6330998" lon="14.6066177"><ele>13.0</ele><time>2026-04-06T08:23:58Z</time></trkpt><trkpt lat="40.6331541" lon="14.6064661"><ele>13.0</ele><time>2026-04-06T08:24:00Z</time></trkpt><trkpt lat="40.6331991" lon="14.6064014"><ele>13.0</ele><time>2026-04-06T08:24:01Z</time></trkpt><trkpt lat="40.6332941" lon="14.6062905"><ele>13.0</ele><time>2026-04-06T08:24:03Z</time></trkpt><trkpt lat="40.6333499" lon="14.606163"><ele>16.8</ele><time>2026-04-06T08:24:05Z</time></trkpt><trkpt lat="40.6333662" lon="14.6060221"><ele>20.6</ele><time>2026-04-06T08:24:06.999Z</time></trkpt><trkpt lat="40.6333878" lon="14.6058993"><ele>24.400000000000002</ele><time>2026-04-06T08:24:09Z</time></trkpt><trkpt lat="40.6334201" lon="14.6057432"><ele>28.200000000000003</ele><time>2026-04-06T08:24:11Z</time></trkpt><trkpt lat="40.6334356" lon="14.6056568"><ele>32.0</ele><time>2026-04-06T08:24:12Z</time></trkpt><trkpt lat="40.6334431" lon="14.6055542"><ele>31.999999999999996</ele><time>2026-04-06T08:24:13Z</time></trkpt><trkpt lat="40.6334503" lon="14.6054584"><ele>32.0</ele><time>2026-04-06T08:24:14Z</time></trkpt><trkpt lat="40.6334548" lon="14.6053714"><ele>32.0</ele><time>2026-04-06T08:24:15Z</time></trkpt><trkpt lat="40.6334579" lon="14.6052837"><ele>32.0</ele><time>2026-04-06T08:24:16Z</time></trkpt><trkpt lat="40.6334584" lon="14.6051927"><ele>31.999999999999996</ele><time>2026-04-06T08:24:17Z</time></trkpt><trkpt lat="40.6334995" lon="14.605032"><ele>32.0</ele><time>2026-04-06T08:24:18.999Z</time></trkpt><trkpt lat="40.6335673" lon="14.604945"><ele>33.8</ele><time>2026-04-06T08:24:21Z</time></trkpt><trkpt lat="40.6336562" lon="14.6048985"><ele>35.6</ele><time>2026-04-06T08:24:23Z</time></trkpt><trkpt lat="40.6337337" lon="14.6048493"><ele>37.4</ele><time>2026-04-06T08:24:25Z</time></trkpt><trkpt lat="40.6338124" lon="14.6047992"><ele>39.199999999999996</ele><time>2026-04-06T08:24:27Z</time></trkpt><trkpt lat="40.6338964" lon="14.6047339"><ele>41.0</ele><time>2026-04-06T08:24:29Z</time></trkpt><trkpt lat="40.6339801" lon="14.6046436"><ele>41.0</ele><time>2026-04-06T08:24:31Z</time></trkpt><trkpt lat="40.6340485" lon="14.6045267"><ele>41.0</ele><time>2026-04-06T08:24:33Z</time></trkpt><trkpt lat="40.6340702" lon="14.6043998"><ele>41.0</ele><time>2026-04-06T08:24:35Z</time></trkpt><trkpt lat="40.6340626" lon="14.6042863"><ele>41.0</ele><time>2026-04-06T08:24:36.999Z</time></trkpt><trkpt lat="40.6340391" lon="14.6041532"><ele>41.0</ele><time>2026-04-06T08:24:39Z</time></trkpt><trkpt lat="40.6340237" lon="14.6040184"><ele>37.0</ele><time>2026-04-06T08:24:41Z</time></trkpt><trkpt lat="40.6340109" lon="14.6038812"><ele>33.0</ele><time>2026-04-06T08:24:42.999Z</time></trkpt><trkpt lat="40.6339902" lon="14.6037482"><ele>29.0</ele><time>2026-04-06T08:24:45Z</time></trkpt><trkpt lat="40.6339728" lon="14.6036157"><ele>25.0</ele><time>2026-04-06T08:24:47Z</time></trkpt><trkpt lat="40.6339553" lon="14.6034664"><ele>21.0</ele><time>2026-04-06T08:24:48.999Z</time></trkpt><trkpt lat="40.6339396" lon="14.6033328"><ele>20.285714285714285</ele><time>2026-04-06T08:24:51Z</time></trkpt><trkpt lat="40.6339289" lon="14.6032339"><ele>19.57142857142857</ele><time>2026-04-06T08:24:53Z</time></trkpt><trkpt lat="40.6339196" lon="14.6031303"><ele>18.857142857142858</ele><time>2026-04-06T08:24:57Z</time></trkpt><trkpt lat="40.6339055" lon="14.6030482"><ele>18.142857142857142</ele><time>2026-04-06T08:25:00Z</time></trkpt><trkpt lat="40.6338851" lon="14.6029422"><ele>17.428571428571427</ele><time>2026-04-06T08:25:03Z</time></trkpt><trkpt lat="40.6338604" lon="14.6028624"><ele>16.714285714285715</ele><time>2026-04-06T08:25:06Z</time></trkpt><trkpt lat="40.6338416" lon="14.6027813"><ele>16.0</ele><time>2026-04-06T08:25:14Z</time></trkpt><trkpt lat="40.6338081" lon="14.6026896"><ele>16.0</ele><time>2026-04-06T08:25:16Z</time></trkpt><trkpt lat="40.6337366" lon="14.6026281"><ele>15.999999999999998</ele><time>2026-04-06T08:25:18Z</time></trkpt><trkpt lat="40.633685" lon="14.6025656"><ele>16.0</ele><time>2026-04-06T08:25:20Z</time></trkpt><trkpt lat="40.6336389" lon="14.6024993"><ele>16.0</ele><time>2026-04-06T08:25:21.999Z</time></trkpt><trkpt lat="40.6335779" lon="14.6024558"><ele>15.999999999999998</ele><time>2026-04-06T08:25:23.999Z</time></trkpt><trkpt lat="40.6335125" lon="14.60249"><ele>16.0</ele><time>2026-04-06T08:25:26Z</time></trkpt><trkpt lat="40.6334905" lon="14.6025845"><ele>16.0</ele><time>2026-04-06T08:25:28Z</time></trkpt><trkpt lat="40.6335092" lon="14.6026768"><ele>16.0</ele><time>2026-04-06T08:25:30Z</time></trkpt><trkpt lat="40.6335682" lon="14.6027462"><ele>16.0</ele><time>2026-04-06T08:25:32Z</time></trkpt><trkpt lat="40.6336434" lon="14.6027971"><ele>16.0</ele><time>2026-04-06T08:25:34Z</time></trkpt><trkpt lat="40.6337137" lon="14.6028386"><ele>16.0</ele><time>2026-04-06T08:25:36Z</time></trkpt><trkpt lat="40.6337964" lon="14.6029127"><ele>16.0</ele><time>2026-04-06T08:25:42Z</time></trkpt><trkpt lat="40.6338512" lon="14.6030439"><ele>16.0</ele><time>2026-04-06T08:25:44Z</time></trkpt><trkpt lat="40.6338814" lon="14.6031915"><ele>16.0</ele><time>2026-04-06T08:25:46Z</time></trkpt><trkpt lat="40.6339142" lon="14.6033388"><ele>16.0</ele><time>2026-04-06T08:25:48Z</time></trkpt><trkpt lat="40.6339264" lon="14.6034595"><ele>16.0</ele><time>2026-04-06T08:25:49Z</time></trkpt><trkpt lat="40.63394" lon="14.603588"><ele>16.0</ele><time>2026-04-06T08:25:50Z</time></trkpt><trkpt lat="40.6339627" lon="14.603737"><ele>17.0</ele><time>2026-04-06T08:25:51Z</time></trkpt><trkpt lat="40.6339856" lon="14.6038807"><ele>18.0</ele><time>2026-04-06T08:25:52Z</time></trkpt><trkpt lat="40.6340051" lon="14.6040073"><ele>19.0</ele><time>2026-04-06T08:25:53Z</time></trkpt><trkpt lat="40.6340193" lon="14.6041191"><ele>20.0</ele><time>2026-04-06T08:25:54Z</time></trkpt><trkpt lat="40.6340293" lon="14.6042079"><ele>21.0</ele><time>2026-04-06T08:25:55Z</time></trkpt><trkpt lat="40.6340403" lon="14.6043527"><ele>21.0</ele><time>2026-04-06T08:25:57Z</time></trkpt><trkpt lat="40.6340307" lon="14.604466"><ele>21.0</ele><time>2026-04-06T08:25:59Z</time></trkpt><trkpt lat="40.6340489" lon="14.6045485"><ele>21.0</ele><time>2026-04-06T08:26:01Z</time></trkpt><trkpt lat="40.6341208" lon="14.6045307"><ele>21.0</ele><time>2026-04-06T08:29:46.033Z</time></trkpt><trkpt lat="40.6341723" lon="14.6044812"><ele>21.0</ele><time>2026-04-06T08:29:54.024Z</time></trkpt><trkpt lat="40.6342287" lon="14.6044126"><ele>21.0</ele><time>2026-04-06T08:30:00Z</time></trkpt><trkpt lat="40.6342506" lon="14.604322"><ele>21.0</ele><time>2026-04-06T08:30:05Z</time></trkpt><trkpt lat="40.6343102" lon="14.6042725"><ele>21.0</ele><time>2026-04-06T08:30:10Z</time></trkpt><trkpt lat="40.6343654" lon="14.6042209"><ele>21.0</ele><time>2026-04-06T08:30:14Z</time></trkpt><trkpt lat="40.6344222" lon="14.6041771"><ele>21.0</ele><time>2026-04-06T08:30:19.977Z</time></trkpt><trkpt lat="40.6344449" lon="14.6040984"><ele>21.0</ele><time>2026-04-06T08:30:30.932Z</time></trkpt><trkpt lat="40.6344399" lon="14.6040029"><ele>21.0</ele><time>2026-04-06T08:30:38.011Z</time></trkpt><trkpt lat="40.634416" lon="14.6039235"><ele>21.0</ele><time>2026-04-06T08:30:45.025Z</time></trkpt><trkpt lat="40.6344819" lon="14.6038894"><ele>21.0</ele><time>2026-04-06T08:30:52Z</time></trkpt><trkpt lat="40.6344954" lon="14.6038024"><ele>23.0</ele><time>2026-04-06T08:30:58.938Z</time></trkpt><trkpt lat="40.6345392" lon="14.603733"><ele>25.0</ele><time>2026-04-06T08:31:08Z</time></trkpt><trkpt lat="40.6345999" lon="14.603693"><ele>27.0</ele><time>2026-04-06T08:31:15.021Z</time></trkpt><trkpt lat="40.6346105" lon="14.6036057"><ele>29.0</ele><time>2026-04-06T08:31:29.879Z</time></trkpt><trkpt lat="40.6346744" lon="14.6035648"><ele>31.0</ele><time>2026-04-06T08:31:39Z</time></trkpt><trkpt lat="40.6347402" lon="14.6035551"><ele>33.0</ele><time>2026-04-06T08:31:49.038Z</time></trkpt><trkpt lat="40.6347886" lon="14.6036128"><ele>35.0</ele><time>2026-04-06T08:32:07Z</time></trkpt><trkpt lat="40.6347851" lon="14.6036971"><ele>37.42857142857143</ele><time>2026-04-06T08:32:20.34Z</time></trkpt><trkpt lat="40.6348419" lon="14.6037545"><ele>39.85714285714286</ele><time>2026-04-06T08:32:34Z</time></trkpt><trkpt lat="40.6348919" lon="14.6038072"><ele>42.285714285714285</ele><time>2026-04-06T08:32:43Z</time></trkpt><trkpt lat="40.6349499" lon="14.6038522"><ele>44.714285714285715</ele><time>2026-04-06T08:32:50Z</time></trkpt><trkpt lat="40.6350027" lon="14.6038987"><ele>47.142857142857146</ele><time>2026-04-06T08:32:59.007Z</time></trkpt><trkpt lat="40.6350663" lon="14.6039251"><ele>49.57142857142857</ele><time>2026-04-06T08:33:34Z</time></trkpt><trkpt lat="40.6351298" lon="14.6039518"><ele>52.0</ele><time>2026-04-06T08:33:41Z</time></trkpt><trkpt lat="40.6351851" lon="14.6040081"><ele>52.0</ele><time>2026-04-06T08:33:51.908Z</time></trkpt><trkpt lat="40.6352494" lon="14.6040226"><ele>52.0</ele><time>2026-04-06T08:33:59Z</time></trkpt><trkpt lat="40.6352276" lon="14.6041092"><ele>52.0</ele><time>2026-04-06T08:34:22.938Z</time></trkpt><trkpt lat="40.6351729" lon="14.6041521"><ele>52.0</ele><time>2026-04-06T08:34:29.001Z</time></trkpt><trkpt lat="40.6352315" lon="14.6041851"><ele>52.0</ele><time>2026-04-06T08:34:33.732Z</time></trkpt><trkpt lat="40.6352572" lon="14.6042712"><ele>52.0</ele><time>2026-04-06T08:34:45.818Z</time></trkpt><trkpt lat="40.6352836" lon="14.6043536"><ele>52.0</ele><time>2026-04-06T08:34:53.851Z</time></trkpt><trkpt lat="40.6352365" lon="14.604411"><ele>52.0</ele><time>2026-04-06T08:35:00Z</time></trkpt><trkpt lat="40.6351758" lon="14.6043806"><ele>52.0</ele><time>2026-04-06T08:35:02.857Z</time></trkpt><trkpt lat="40.6351198" lon="14.604333"><ele>52.0</ele><time>2026-04-06T08:35:21Z</time></trkpt><trkpt lat="40.6350602" lon="14.6043844"><ele>52.0</ele><time>2026-04-06T08:35:35Z</time></trkpt><trkpt lat="40.6350291" lon="14.6044614"><ele>52.0</ele><time>2026-04-06T08:35:43Z</time></trkpt><trkpt lat="40.6350683" lon="14.6045353"><ele>52.0</ele><time>2026-04-06T08:35:53Z</time></trkpt><trkpt lat="40.6350736" lon="14.6046202"><ele>52.0</ele><time>2026-04-06T08:36:04.974Z</time></trkpt><trkpt lat="40.635049" lon="14.6047025"><ele>57.14285714285714</ele><time>2026-04-06T08:36:14Z</time></trkpt><trkpt lat="40.6350227" lon="14.6047804"><ele>62.28571428571429</ele><time>2026-04-06T08:36:20Z</time></trkpt><trkpt lat="40.6350003" lon="14.6048584"><ele>67.42857142857143</ele><time>2026-04-06T08:36:25Z</time></trkpt><trkpt lat="40.6349728" lon="14.6049407"><ele>72.57142857142857</ele><time>2026-04-06T08:36:30Z</time></trkpt><trkpt lat="40.6349401" lon="14.6050194"><ele>77.71428571428571</ele><time>2026-04-06T08:36:37Z</time></trkpt><trkpt lat="40.6348902" lon="14.6050825"><ele>82.85714285714286</ele><time>2026-04-06T08:36:45.013Z</time></trkpt><trkpt lat="40.6348612" lon="14.6051573"><ele>88.0</ele><time>2026-04-06T08:36:52Z</time></trkpt><trkpt lat="40.6348378" lon="14.6052441"><ele>88.0</ele><time>2026-04-06T08:36:57.955Z</time></trkpt><trkpt lat="40.634784" lon="14.6053011"><ele>88.0</ele><time>2026-04-06T08:37:04.999Z</time></trkpt><trkpt lat="40.6347225" lon="14.6053391"><ele>88.0</ele><time>2026-04-06T08:37:11.033Z</time></trkpt><trkpt lat="40.6346696" lon="14.6053906"><ele>88.0</ele><time>2026-04-06T08:37:16.977Z</time></trkpt><trkpt lat="40.6346073" lon="14.6054331"><ele>88.0</ele><time>2026-04-06T08:37:32Z</time></trkpt><trkpt lat="40.6345824" lon="14.6055127"><ele>88.0</ele><time>2026-04-06T08:37:41.016Z</time></trkpt><trkpt lat="40.63458" lon="14.6055963"><ele>88.0</ele><time>2026-04-06T08:38:11Z</time></trkpt><trkpt lat="40.6345808" lon="14.6055057"><ele>88.0</ele><time>2026-04-06T08:51:38Z</time></trkpt><trkpt lat="40.6346236" lon="14.6054413"><ele>88.0</ele><time>2026-04-06T08:51:46Z</time></trkpt><trkpt lat="40.634673" lon="14.6053739"><ele>88.0</ele><time>2026-04-06T08:52:09Z</time></trkpt><trkpt lat="40.6347209" lon="14.6053133"><ele>88.0</ele><time>2026-04-06T08:52:17.996Z</time></trkpt><trkpt lat="40.6347766" lon="14.6052657"><ele>88.0</ele><time>2026-04-06T08:52:25Z</time></trkpt><trkpt lat="40.6348271" lon="14.6052112"><ele>88.0</ele><time>2026-04-06T08:52:31.975Z</time></trkpt><trkpt lat="40.6348692" lon="14.6051445"><ele>88.0</ele><time>2026-04-06T08:52:39Z</time></trkpt><trkpt lat="40.634904" lon="14.6050616"><ele>88.0</ele><time>2026-04-06T08:52:45Z</time></trkpt><trkpt lat="40.6349325" lon="14.6049794"><ele>88.0</ele><time>2026-04-06T08:52:50.957Z</time></trkpt><trkpt lat="40.6349616" lon="14.6049058"><ele>88.0</ele><time>2026-04-06T08:52:55.999Z</time></trkpt><trkpt lat="40.6349881" lon="14.6048159"><ele>88.0</ele><time>2026-04-06T08:53:02Z</time></trkpt><trkpt lat="40.6350159" lon="14.6047242"><ele>88.0</ele><time>2026-04-06T08:53:08Z</time></trkpt><trkpt lat="40.6350397" lon="14.6046465"><ele>88.0</ele><time>2026-04-06T08:53:14Z</time></trkpt><trkpt lat="40.635063" lon="14.604558"><ele>88.0</ele><time>2026-04-06T08:53:22.013Z</time></trkpt><trkpt lat="40.6350526" lon="14.6044705"><ele>82.85714285714286</ele><time>2026-04-06T08:53:32Z</time></trkpt><trkpt lat="40.635086" lon="14.6043856"><ele>77.71428571428571</ele><time>2026-04-06T08:53:42Z</time></trkpt><trkpt lat="40.6351287" lon="14.6043163"><ele>72.57142857142857</ele><time>2026-04-06T08:53:48Z</time></trkpt><trkpt lat="40.6350984" lon="14.6042347"><ele>67.42857142857143</ele><time>2026-04-06T08:53:54Z</time></trkpt><trkpt lat="40.6351245" lon="14.604151"><ele>62.28571428571429</ele><time>2026-04-06T08:54:13.016Z</time></trkpt><trkpt lat="40.6351714" lon="14.6040815"><ele>57.14285714285714</ele><time>2026-04-06T08:54:17.914Z</time></trkpt><trkpt lat="40.6352323" lon="14.6041214"><ele>52.0</ele><time>2026-04-06T08:54:19.954Z</time></trkpt><trkpt lat="40.6353025" lon="14.6041078"><ele>52.0</ele><time>2026-04-06T08:54:25.975Z</time></trkpt><trkpt lat="40.6353261" lon="14.6040236"><ele>52.0</ele><time>2026-04-06T08:54:32.27Z</time></trkpt><trkpt lat="40.635375" lon="14.6039667"><ele>52.0</ele><time>2026-04-06T08:54:37.996Z</time></trkpt><trkpt lat="40.6354334" lon="14.603919"><ele>52.0</ele><time>2026-04-06T08:54:44.147Z</time></trkpt><trkpt lat="40.6353671" lon="14.6038661"><ele>52.0</ele><time>2026-04-06T08:54:50.019Z</time></trkpt><trkpt lat="40.6353084" lon="14.6039042"><ele>52.0</ele><time>2026-04-06T08:54:51Z</time></trkpt><trkpt lat="40.6352438" lon="14.6039349"><ele>52.0</ele><time>2026-04-06T08:54:53.999Z</time></trkpt><trkpt lat="40.6351744" lon="14.6039514"><ele>52.0</ele><time>2026-04-06T08:54:58.057Z</time></trkpt><trkpt lat="40.6351138" lon="14.6039959"><ele>52.0</ele><time>2026-04-06T08:55:01.99Z</time></trkpt><trkpt lat="40.6350631" lon="14.6039321"><ele>52.0</ele><time>2026-04-06T08:55:05.993Z</time></trkpt><trkpt lat="40.6350223" lon="14.6038613"><ele>52.0</ele><time>2026-04-06T08:55:16Z</time></trkpt><trkpt lat="40.6349554" lon="14.6038302"><ele>52.0</ele><time>2026-04-06T08:55:29.015Z</time></trkpt><trkpt lat="40.6348927" lon="14.6038014"><ele>52.0</ele><time>2026-04-06T08:55:36Z</time></trkpt><trkpt lat="40.6348676" lon="14.6037221"><ele>52.0</ele><time>2026-04-06T08:55:45Z</time></trkpt><trkpt lat="40.6348334" lon="14.6036487"><ele>49.166666666666664</ele><time>2026-04-06T08:55:55Z</time></trkpt><trkpt lat="40.6348419" lon="14.6035483"><ele>46.33333333333333</ele><time>2026-04-06T08:56:03.297Z</time></trkpt><trkpt lat="40.634774" lon="14.6035228"><ele>43.5</ele><time>2026-04-06T08:56:07.991Z</time></trkpt><trkpt lat="40.6347164" lon="14.6034839"><ele>40.666666666666664</ele><time>2026-04-06T08:56:13.003Z</time></trkpt><trkpt lat="40.6347053" lon="14.603401"><ele>37.83333333333333</ele><time>2026-04-06T08:56:17Z</time></trkpt><trkpt lat="40.6347009" lon="14.6032999"><ele>35.0</ele><time>2026-04-06T08:56:23Z</time></trkpt><trkpt lat="40.6346559" lon="14.6034244"><ele>35.0</ele><time>2026-04-06T08:56:29.997Z</time></trkpt><trkpt lat="40.6346326" lon="14.6035225"><ele>35.0</ele><time>2026-04-06T08:56:31Z</time></trkpt><trkpt lat="40.6345859" lon="14.6035875"><ele>35.0</ele><time>2026-04-06T08:56:35Z</time></trkpt><trkpt lat="40.6345935" lon="14.6036828"><ele>35.0</ele><time>2026-04-06T08:56:41Z</time></trkpt><trkpt lat="40.6345492" lon="14.6037508"><ele>35.0</ele><time>2026-04-06T08:57:38.931Z</time></trkpt><trkpt lat="40.6345526" lon="14.6038433"><ele>35.0</ele><time>2026-04-06T08:57:45.883Z</time></trkpt><trkpt lat="40.6345957" lon="14.6039116"><ele>35.0</ele><time>2026-04-06T08:57:48Z</time></trkpt><trkpt lat="40.6346445" lon="14.6039736"><ele>37.42857142857143</ele><time>2026-04-06T08:57:55.999Z</time></trkpt><trkpt lat="40.6346201" lon="14.6040614"><ele>39.85714285714286</ele><time>2026-04-06T08:58:07Z</time></trkpt><trkpt lat="40.6346945" lon="14.604077"><ele>42.285714285714285</ele><time>2026-04-06T08:58:17Z</time></trkpt><trkpt lat="40.63474" lon="14.6041376"><ele>44.714285714285715</ele><time>2026-04-06T08:58:22Z</time></trkpt><trkpt lat="40.6347334" lon="14.6042302"><ele>47.142857142857146</ele><time>2026-04-06T08:58:27.013Z</time></trkpt><trkpt lat="40.6346961" lon="14.6043006"><ele>49.57142857142857</ele><time>2026-04-06T08:58:31Z</time></trkpt><trkpt lat="40.6346417" lon="14.6043705"><ele>52.0</ele><time>2026-04-06T08:58:36.001Z</time></trkpt><trkpt lat="40.6345601" lon="14.6043806"><ele>52.0</ele><time>2026-04-06T08:58:39.931Z</time></trkpt><trkpt lat="40.6344989" lon="14.604404"><ele>52.0</ele><time>2026-04-06T08:58:44Z</time></trkpt><trkpt lat="40.6344319" lon="14.6043887"><ele>52.0</ele><time>2026-04-06T08:58:48Z</time></trkpt><trkpt lat="40.6343633" lon="14.6043695"><ele>52.0</ele><time>2026-04-06T08:58:54.01Z</time></trkpt><trkpt lat="40.634299" lon="14.6043792"><ele>52.0</ele><time>2026-04-06T08:58:58.993Z</time></trkpt><trkpt lat="40.6342347" lon="14.6043903"><ele>52.0</ele><time>2026-04-06T08:59:04.004Z</time></trkpt><trkpt lat="40.6341795" lon="14.6044508"><ele>52.0</ele><time>2026-04-06T08:59:10Z</time></trkpt><trkpt lat="40.6341149" lon="14.6044902"><ele>49.8</ele><time>2026-04-06T08:59:14.857Z</time></trkpt><trkpt lat="40.6340778" lon="14.6045842"><ele>47.6</ele><time>2026-04-06T08:59:41Z</time></trkpt><trkpt lat="40.6339705" lon="14.6046765"><ele>45.4</ele><time>2026-04-06T09:01:34Z</time></trkpt><trkpt lat="40.6339141" lon="14.6047302"><ele>43.199999999999996</ele><time>2026-04-06T09:01:35Z</time></trkpt><trkpt lat="40.6337978" lon="14.6047684"><ele>41.0</ele><time>2026-04-06T09:01:37Z</time></trkpt><trkpt lat="40.6336979" lon="14.6048159"><ele>35.599999999999994</ele><time>2026-04-06T09:01:39Z</time></trkpt><trkpt lat="40.6336354" lon="14.6048435"><ele>30.199999999999996</ele><time>2026-04-06T09:01:40Z</time></trkpt><trkpt lat="40.6335258" lon="14.6049026"><ele>24.799999999999997</ele><time>2026-04-06T09:01:42Z</time></trkpt><trkpt lat="40.6334512" lon="14.6050159"><ele>19.4</ele><time>2026-04-06T09:01:44Z</time></trkpt><trkpt lat="40.633432" lon="14.6051653"><ele>14.0</ele><time>2026-04-06T09:01:46Z</time></trkpt><trkpt lat="40.6334296" lon="14.6052508"><ele>17.6</ele><time>2026-04-06T09:01:46.999Z</time></trkpt><trkpt lat="40.633433" lon="14.6054028"><ele>21.2</ele><time>2026-04-06T09:01:49Z</time></trkpt><trkpt lat="40.6334334" lon="14.6055426"><ele>24.800000000000004</ele><time>2026-04-06T09:01:51Z</time></trkpt><trkpt lat="40.6334248" lon="14.6056629"><ele>28.400000000000002</ele><time>2026-04-06T09:01:53Z</time></trkpt><trkpt lat="40.6334051" lon="14.6057916"><ele>32.0</ele><time>2026-04-06T09:01:54.999Z</time></trkpt><trkpt lat="40.6333727" lon="14.6059241"><ele>31.999999999999996</ele><time>2026-04-06T09:01:57Z</time></trkpt><trkpt lat="40.6333465" lon="14.6060487"><ele>32.0</ele><time>2026-04-06T09:01:59Z</time></trkpt><trkpt lat="40.6333324" lon="14.6061506"><ele>32.0</ele><time>2026-04-06T09:02:02Z</time></trkpt><trkpt lat="40.6333149" lon="14.6062436"><ele>32.0</ele><time>2026-04-06T09:02:04Z</time></trkpt><trkpt lat="40.6332545" lon="14.6063336"><ele>31.999999999999996</ele><time>2026-04-06T09:02:06Z</time></trkpt><trkpt lat="40.6331807" lon="14.6064149"><ele>32.0</ele><time>2026-04-06T09:02:08Z</time></trkpt><trkpt lat="40.6331136" lon="14.6065306"><ele>28.200000000000003</ele><time>2026-04-06T09:02:10Z</time></trkpt><trkpt lat="40.6330707" lon="14.6066724"><ele>24.400000000000002</ele><time>2026-04-06T09:02:12Z</time></trkpt><trkpt lat="40.6330471" lon="14.6067892"><ele>20.6</ele><time>2026-04-06T09:02:14Z</time></trkpt><trkpt lat="40.6330673" lon="14.6068975"><ele>16.8</ele><time>2026-04-06T09:02:16Z</time></trkpt><trkpt lat="40.6331489" lon="14.6069598"><ele>13.0</ele><time>2026-04-06T09:02:18Z</time></trkpt><trkpt lat="40.6332527" lon="14.6070138"><ele>11.833333333333332</ele><time>2026-04-06T09:02:19.999Z</time></trkpt><trkpt lat="40.6333156" lon="14.6070403"><ele>10.666666666666666</ele><time>2026-04-06T09:02:21Z</time></trkpt><trkpt lat="40.6333851" lon="14.6070621"><ele>9.5</ele><time>2026-04-06T09:02:22Z</time></trkpt><trkpt lat="40.6334577" lon="14.6070776"><ele>8.333333333333332</ele><time>2026-04-06T09:02:23Z</time></trkpt><trkpt lat="40.6335674" lon="14.6070822"><ele>7.166666666666666</ele><time>2026-04-06T09:02:25Z</time></trkpt><trkpt lat="40.633643" lon="14.6070825"><ele>6.0</ele><time>2026-04-06T09:02:28Z</time></trkpt><trkpt lat="40.63371" lon="14.6070762"><ele>9.666666666666668</ele><time>2026-04-06T09:02:33.999Z</time></trkpt><trkpt lat="40.6337758" lon="14.6070588"><ele>13.333333333333334</ele><time>2026-04-06T09:02:37Z</time></trkpt><trkpt lat="40.6338443" lon="14.6070489"><ele>17.0</ele><time>2026-04-06T09:02:41Z</time></trkpt><trkpt lat="40.6339285" lon="14.6070647"><ele>20.666666666666668</ele><time>2026-04-06T09:02:46Z</time></trkpt><trkpt lat="40.6340064" lon="14.6070809"><ele>24.333333333333336</ele><time>2026-04-06T09:02:49Z</time></trkpt><trkpt lat="40.6341065" lon="14.6071148"><ele>28.0</ele><time>2026-04-06T09:02:52Z</time></trkpt><trkpt lat="40.6341872" lon="14.607144"><ele>28.0</ele><time>2026-04-06T09:02:54Z</time></trkpt><trkpt lat="40.6342749" lon="14.6071904"><ele>28.0</ele><time>2026-04-06T09:02:56Z</time></trkpt><trkpt lat="40.6343751" lon="14.607289"><ele>28.0</ele><time>2026-04-06T09:02:58Z</time></trkpt><trkpt lat="40.6344408" lon="14.6073706"><ele>28.0</ele><time>2026-04-06T09:03:00Z</time></trkpt><trkpt lat="40.6359932" lon="14.6092145"><ele>19.5</ele><time>2026-04-06T09:03:14.853Z</time></trkpt><trkpt lat="40.6355926" lon="14.6090278"><ele>11.0</ele><time>2026-04-06T09:03:38Z</time></trkpt><trkpt lat="40.6354589" lon="14.6088297"><ele>11.0</ele><time>2026-04-06T09:03:40Z</time></trkpt><trkpt lat="40.6353638" lon="14.6087003"><ele>11.0</ele><time>2026-04-06T09:03:41Z</time></trkpt><trkpt lat="40.6352532" lon="14.608585"><ele>11.0</ele><time>2026-04-06T09:03:42Z</time></trkpt><trkpt lat="40.6351918" lon="14.6084878"><ele>11.0</ele><time>2026-04-06T09:03:44Z</time></trkpt><trkpt lat="40.6351417" lon="14.6084281"><ele>11.0</ele><time>2026-04-06T09:03:46Z</time></trkpt><trkpt lat="40.6351061" lon="14.6082431"><ele>13.0</ele><time>2026-04-06T09:03:48Z</time></trkpt><trkpt lat="40.6352246" lon="14.6083032"><ele>15.0</ele><time>2026-04-06T09:03:50Z</time></trkpt><trkpt lat="40.6353535" lon="14.608332"><ele>17.0</ele><time>2026-04-06T09:03:52Z</time></trkpt><trkpt lat="40.6354238" lon="14.6083376"><ele>19.0</ele><time>2026-04-06T09:03:53Z</time></trkpt><trkpt lat="40.6355011" lon="14.6083662"><ele>21.0</ele><time>2026-04-06T09:03:53.999Z</time></trkpt><trkpt lat="40.635574" lon="14.6084102"><ele>21.4</ele><time>2026-04-06T09:03:55Z</time></trkpt><trkpt lat="40.6356671" lon="14.60852"><ele>21.8</ele><time>2026-04-06T09:03:57Z</time></trkpt><trkpt lat="40.6357088" lon="14.6085907"><ele>22.2</ele><time>2026-04-06T09:03:58Z</time></trkpt><trkpt lat="40.6357583" lon="14.6087456"><ele>22.599999999999998</ele><time>2026-04-06T09:04:00Z</time></trkpt><trkpt lat="40.6357717" lon="14.6088384"><ele>23.0</ele><time>2026-04-06T09:04:01Z</time></trkpt><trkpt lat="40.6357858" lon="14.6089375"><ele>21.0</ele><time>2026-04-06T09:04:02Z</time></trkpt><trkpt lat="40.6358012" lon="14.6090408"><ele>19.0</ele><time>2026-04-06T09:04:03Z</time></trkpt><trkpt lat="40.6358178" lon="14.6091392"><ele>17.0</ele><time>2026-04-06T09:04:04Z</time></trkpt><trkpt lat="40.6358325" lon="14.6092304"><ele>15.0</ele><time>2026-04-06T09:04:05Z</time></trkpt><trkpt lat="40.6358614" lon="14.6093805"><ele>13.0</ele><time>2026-04-06T09:04:07Z</time></trkpt><trkpt lat="40.6358805" lon="14.609496"><ele>11.0</ele><time>2026-04-06T09:04:09Z</time></trkpt><trkpt lat="40.6358222" lon="14.6096287"><ele>10.666666666666666</ele><time>2026-04-06T09:04:11Z</time></trkpt><trkpt lat="40.6357337" lon="14.6097271"><ele>10.333333333333332</ele><time>2026-04-06T09:04:13Z</time></trkpt><trkpt lat="40.6357003" lon="14.6098787"><ele>10.0</ele><time>2026-04-06T09:04:15Z</time></trkpt><trkpt lat="40.635708" lon="14.6099679"><ele>9.666666666666666</ele><time>2026-04-06T09:04:16Z</time></trkpt><trkpt lat="40.6357292" lon="14.6100558"><ele>9.333333333333334</ele><time>2026-04-06T09:04:17Z</time></trkpt><trkpt lat="40.6357628" lon="14.6101287"><ele>9.0</ele><time>2026-04-06T09:04:18Z</time></trkpt><trkpt lat="40.635865" lon="14.6102288"><ele>9.0</ele><time>2026-04-06T09:04:20Z</time></trkpt><trkpt lat="40.6359879" lon="14.6102548"><ele>9.0</ele><time>2026-04-06T09:04:22Z</time></trkpt><trkpt lat="40.6360569" lon="14.6102621"><ele>9.0</ele><time>2026-04-06T09:04:23Z</time></trkpt><trkpt lat="40.6361279" lon="14.6102605"><ele>9.0</ele><time>2026-04-06T09:04:24Z</time></trkpt><trkpt lat="40.636252" lon="14.6102463"><ele>9.0</ele><time>2026-04-06T09:04:26Z</time></trkpt><trkpt lat="40.6363709" lon="14.6102246"><ele>15.666666666666666</ele><time>2026-04-06T09:04:28Z</time></trkpt><trkpt lat="40.6364859" lon="14.6102059"><ele>22.333333333333332</ele><time>2026-04-06T09:04:30Z</time></trkpt><trkpt lat="40.6365931" lon="14.6101695"><ele>29.0</ele><time>2026-04-06T09:04:32Z</time></trkpt><trkpt lat="40.6366562" lon="14.6101503"><ele>35.666666666666664</ele><time>2026-04-06T09:04:33Z</time></trkpt><trkpt lat="40.6367231" lon="14.6101409"><ele>42.33333333333333</ele><time>2026-04-06T09:04:33.999Z</time></trkpt><trkpt lat="40.6367937" lon="14.6101827"><ele>49.0</ele><time>2026-04-06T09:04:35Z</time></trkpt><trkpt lat="40.636868" lon="14.6102177"><ele>49.0</ele><time>2026-04-06T09:04:36Z</time></trkpt><trkpt lat="40.636931" lon="14.6102715"><ele>49.0</ele><time>2026-04-06T09:04:37Z</time></trkpt><trkpt lat="40.6369844" lon="14.610337"><ele>49.0</ele><time>2026-04-06T09:04:38Z</time></trkpt><trkpt lat="40.6370447" lon="14.610384"><ele>49.0</ele><time>2026-04-06T09:04:39Z</time></trkpt><trkpt lat="40.637107" lon="14.6104388"><ele>49.0</ele><time>2026-04-06T09:04:40Z</time></trkpt><trkpt lat="40.6371651" lon="14.6104992"><ele>49.0</ele><time>2026-04-06T09:04:41Z</time></trkpt><trkpt lat="40.6372137" lon="14.610555"><ele>49.0</ele><time>2026-04-06T09:04:42Z</time></trkpt><trkpt lat="40.6372667" lon="14.6106067"><ele>53.166666666666664</ele><time>2026-04-06T09:04:43Z</time></trkpt><trkpt lat="40.6373546" lon="14.6107052"><ele>57.33333333333333</ele><time>2026-04-06T09:04:45Z</time></trkpt><trkpt lat="40.637405" lon="14.6107575"><ele>61.5</ele><time>2026-04-06T09:04:46Z</time></trkpt><trkpt lat="40.6374482" lon="14.6108212"><ele>65.66666666666667</ele><time>2026-04-06T09:04:46.999Z</time></trkpt><trkpt lat="40.6374809" lon="14.6108961"><ele>69.83333333333334</ele><time>2026-04-06T09:04:48Z</time></trkpt><trkpt lat="40.6375006" lon="14.6109874"><ele>74.0</ele><time>2026-04-06T09:04:49Z</time></trkpt><trkpt lat="40.6375079" lon="14.6110904"><ele>69.83333333333334</ele><time>2026-04-06T09:04:50Z</time></trkpt><trkpt lat="40.6375103" lon="14.6111909"><ele>65.66666666666667</ele><time>2026-04-06T09:04:51Z</time></trkpt><trkpt lat="40.6375033" lon="14.6112807"><ele>61.5</ele><time>2026-04-06T09:04:52Z</time></trkpt><trkpt lat="40.6374801" lon="14.6113644"><ele>57.33333333333333</ele><time>2026-04-06T09:04:53Z</time></trkpt><trkpt lat="40.6374022" lon="14.6114513"><ele>53.166666666666664</ele><time>2026-04-06T09:04:55Z</time></trkpt><trkpt lat="40.6373378" lon="14.611513"><ele>49.0</ele><time>2026-04-06T09:04:56.999Z</time></trkpt><trkpt lat="40.637275" lon="14.6115675"><ele>49.0</ele><time>2026-04-06T09:04:59Z</time></trkpt><trkpt lat="40.6372079" lon="14.6116278"><ele>49.0</ele><time>2026-04-06T09:05:01Z</time></trkpt><trkpt lat="40.6372153" lon="14.6117625"><ele>49.0</ele><time>2026-04-06T09:05:03Z</time></trkpt><trkpt lat="40.6372755" lon="14.6118866"><ele>49.0</ele><time>2026-04-06T09:05:05Z</time></trkpt><trkpt lat="40.6373471" lon="14.6120164"><ele>49.0</ele><time>2026-04-06T09:05:07Z</time></trkpt><trkpt lat="40.6373952" lon="14.6120818"><ele>47.166666666666664</ele><time>2026-04-06T09:05:08Z</time></trkpt><trkpt lat="40.6374526" lon="14.6121368"><ele>45.33333333333333</ele><time>2026-04-06T09:05:09Z</time></trkpt><trkpt lat="40.6375139" lon="14.6121781"><ele>43.5</ele><time>2026-04-06T09:05:10Z</time></trkpt><trkpt lat="40.6376189" lon="14.6122592"><ele>41.666666666666664</ele><time>2026-04-06T09:05:12Z</time></trkpt><trkpt lat="40.6376984" lon="14.6123804"><ele>39.83333333333333</ele><time>2026-04-06T09:05:14Z</time></trkpt><trkpt lat="40.6377362" lon="14.6124497"><ele>38.0</ele><time>2026-04-06T09:05:15Z</time></trkpt><trkpt lat="40.6378174" lon="14.6125634"><ele>42.0</ele><time>2026-04-06T09:05:17Z</time></trkpt><trkpt lat="40.6378769" lon="14.6126191"><ele>46.0</ele><time>2026-04-06T09:05:19Z</time></trkpt><trkpt lat="40.6379644" lon="14.6126521"><ele>50.0</ele><time>2026-04-06T09:05:23Z</time></trkpt><trkpt lat="40.6380285" lon="14.612653"><ele>54.0</ele><time>2026-04-06T09:05:30Z</time></trkpt><trkpt lat="40.6381371" lon="14.6126789"><ele>58.00000000000001</ele><time>2026-04-06T09:05:31Z</time></trkpt><trkpt lat="40.6382351" lon="14.6126855"><ele>62.0</ele><time>2026-04-06T09:05:32Z</time></trkpt><trkpt lat="40.6383445" lon="14.6126797"><ele>62.0</ele><time>2026-04-06T09:05:32.999Z</time></trkpt><trkpt lat="40.6384619" lon="14.6126657"><ele>62.0</ele><time>2026-04-06T09:05:34Z</time></trkpt><trkpt lat="40.6385727" lon="14.6126713"><ele>62.0</ele><time>2026-04-06T09:05:35Z</time></trkpt><trkpt lat="40.6386328" lon="14.612742"><ele>62.0</ele><time>2026-04-06T09:05:36Z</time></trkpt><trkpt lat="40.6387001" lon="14.6128342"><ele>62.0</ele><time>2026-04-06T09:05:36.999Z</time></trkpt><trkpt lat="40.6387714" lon="14.6128966"><ele>59.0</ele><time>2026-04-06T09:05:38Z</time></trkpt><trkpt lat="40.6388592" lon="14.6129278"><ele>56.0</ele><time>2026-04-06T09:05:39Z</time></trkpt><trkpt lat="40.6389661" lon="14.612933"><ele>53.0</ele><time>2026-04-06T09:05:40Z</time></trkpt><trkpt lat="40.6390952" lon="14.6129412"><ele>50.0</ele><time>2026-04-06T09:05:41Z</time></trkpt><trkpt lat="40.6392123" lon="14.6129741"><ele>47.0</ele><time>2026-04-06T09:05:42Z</time></trkpt><trkpt lat="40.6393117" lon="14.6130381"><ele>47.0</ele><time>2026-04-06T09:05:43Z</time></trkpt><trkpt lat="40.6393884" lon="14.6131179"><ele>47.0</ele><time>2026-04-06T09:05:44Z</time></trkpt><trkpt lat="40.6394422" lon="14.6132035"><ele>47.0</ele><time>2026-04-06T09:05:45Z</time></trkpt><trkpt lat="40.6394895" lon="14.6133004"><ele>47.0</ele><time>2026-04-06T09:05:46Z</time></trkpt><trkpt lat="40.6395658" lon="14.613401"><ele>47.0</ele><time>2026-04-06T09:05:47Z</time></trkpt><trkpt lat="40.6396561" lon="14.6134797"><ele>47.5</ele><time>2026-04-06T09:05:48Z</time></trkpt><trkpt lat="40.6397399" lon="14.6135421"><ele>48.0</ele><time>2026-04-06T09:05:49Z</time></trkpt><trkpt lat="40.639803" lon="14.6136249"><ele>48.5</ele><time>2026-04-06T09:05:49.999Z</time></trkpt><trkpt lat="40.6398427" lon="14.6137126"><ele>49.0</ele><time>2026-04-06T09:05:51Z</time></trkpt><trkpt lat="40.6398398" lon="14.6138202"><ele>49.50000000000001</ele><time>2026-04-06T09:05:52Z</time></trkpt><trkpt lat="40.6398101" lon="14.6139302"><ele>50.0</ele><time>2026-04-06T09:05:53Z</time></trkpt><trkpt lat="40.6397802" lon="14.6140344"><ele>50.0</ele><time>2026-04-06T09:05:54Z</time></trkpt><trkpt lat="40.639781" lon="14.6141481"><ele>50.0</ele><time>2026-04-06T09:05:55Z</time></trkpt><trkpt lat="40.6398206" lon="14.6142679"><ele>50.0</ele><time>2026-04-06T09:05:56Z</time></trkpt><trkpt lat="40.6399127" lon="14.6143859"><ele>50.0</ele><time>2026-04-06T09:05:57Z</time></trkpt><trkpt lat="40.6400177" lon="14.6145225"><ele>44.25</ele><time>2026-04-06T09:05:57.999Z</time></trkpt><trkpt lat="40.6401038" lon="14.6146593"><ele>38.5</ele><time>2026-04-06T09:05:59Z</time></trkpt><trkpt lat="40.6401618" lon="14.6148089"><ele>32.75</ele><time>2026-04-06T09:06:00Z</time></trkpt><trkpt lat="40.6402161" lon="14.6149672"><ele>27.0</ele><time>2026-04-06T09:06:01Z</time></trkpt><trkpt lat="40.6402887" lon="14.6151006"><ele>30.5</ele><time>2026-04-06T09:06:02Z</time></trkpt><trkpt lat="40.6403689" lon="14.6151973"><ele>34.0</ele><time>2026-04-06T09:06:03Z</time></trkpt><trkpt lat="40.6404913" lon="14.6152668"><ele>37.5</ele><time>2026-04-06T09:06:04Z</time></trkpt><trkpt lat="40.6406128" lon="14.6153524"><ele>41.0</ele><time>2026-04-06T09:06:05Z</time></trkpt><trkpt lat="40.6407285" lon="14.6154765"><ele>41.0</ele><time>2026-04-06T09:06:06Z</time></trkpt><trkpt lat="40.6408467" lon="14.6155964"><ele>41.0</ele><time>2026-04-06T09:06:07Z</time></trkpt><trkpt lat="40.6409712" lon="14.6157163"><ele>41.0</ele><time>2026-04-06T09:06:08Z</time></trkpt><trkpt lat="40.6410911" lon="14.6158368"><ele>41.75</ele><time>2026-04-06T09:06:09Z</time></trkpt><trkpt lat="40.6412124" lon="14.6159393"><ele>42.5</ele><time>2026-04-06T09:06:10Z</time></trkpt><trkpt lat="40.641325" lon="14.61603"><ele>43.25</ele><time>2026-04-06T09:06:11Z</time></trkpt><trkpt lat="40.6414226" lon="14.6161424"><ele>44.0</ele><time>2026-04-06T09:06:12Z</time></trkpt><trkpt lat="40.6415129" lon="14.6162549"><ele>44.0</ele><time>2026-04-06T09:06:13Z</time></trkpt><trkpt lat="40.6416069" lon="14.6163247"><ele>44.0</ele><time>2026-04-06T09:06:14Z</time></trkpt><trkpt lat="40.6417007" lon="14.616345"><ele>44.0</ele><time>2026-04-06T09:06:15Z</time></trkpt><trkpt lat="40.6417851" lon="14.6163307"><ele>44.0</ele><time>2026-04-06T09:06:15.999Z</time></trkpt><trkpt lat="40.6418586" lon="14.6163439"><ele>44.0</ele><time>2026-04-06T09:06:17Z</time></trkpt><trkpt lat="40.6419193" lon="14.6164188"><ele>44.0</ele><time>2026-04-06T09:06:18Z</time></trkpt><trkpt lat="40.6419599" lon="14.6165281"><ele>44.0</ele><time>2026-04-06T09:06:19Z</time></trkpt><trkpt lat="40.6419832" lon="14.6166484"><ele>44.0</ele><time>2026-04-06T09:06:20Z</time></trkpt><trkpt lat="40.6419644" lon="14.6167824"><ele>44.0</ele><time>2026-04-06T09:06:21Z</time></trkpt><trkpt lat="40.6419523" lon="14.6169223"><ele>44.0</ele><time>2026-04-06T09:06:22Z</time></trkpt><trkpt lat="40.6419748" lon="14.6170849"><ele>44.0</ele><time>2026-04-06T09:06:23Z</time></trkpt><trkpt lat="40.6420088" lon="14.6172679"><ele>47.25</ele><time>2026-04-06T09:06:24Z</time></trkpt><trkpt lat="40.6420547" lon="14.6174498"><ele>50.5</ele><time>2026-04-06T09:06:25Z</time></trkpt><trkpt lat="40.6420977" lon="14.6176225"><ele>53.75</ele><time>2026-04-06T09:06:26Z</time></trkpt><trkpt lat="40.6421398" lon="14.6177764"><ele>57.0</ele><time>2026-04-06T09:06:27Z</time></trkpt><trkpt lat="40.642182" lon="14.6179012"><ele>50.2</ele><time>2026-04-06T09:06:28Z</time></trkpt><trkpt lat="40.6422242" lon="14.6180076"><ele>43.400000000000006</ele><time>2026-04-06T09:06:29Z</time></trkpt><trkpt lat="40.6422923" lon="14.618076"><ele>36.6</ele><time>2026-04-06T09:06:30Z</time></trkpt><trkpt lat="40.6423861" lon="14.6181089"><ele>29.799999999999997</ele><time>2026-04-06T09:06:31Z</time></trkpt><trkpt lat="40.6424994" lon="14.6181228"><ele>23.0</ele><time>2026-04-06T09:06:31.999Z</time></trkpt><trkpt lat="40.64262" lon="14.6181331"><ele>23.0</ele><time>2026-04-06T09:06:33Z</time></trkpt><trkpt lat="40.6427357" lon="14.618132"><ele>23.0</ele><time>2026-04-06T09:06:34Z</time></trkpt><trkpt lat="40.6428522" lon="14.6181064"><ele>23.0</ele><time>2026-04-06T09:06:35Z</time></trkpt><trkpt lat="40.6429863" lon="14.6180317"><ele>23.0</ele><time>2026-04-06T09:06:36Z</time></trkpt><trkpt lat="40.6431055" lon="14.6179933"><ele>23.2</ele><time>2026-04-06T09:06:37Z</time></trkpt><trkpt lat="40.6432152" lon="14.6179092"><ele>23.4</ele><time>2026-04-06T09:06:38Z</time></trkpt><trkpt lat="40.6433099" lon="14.6178097"><ele>23.599999999999998</ele><time>2026-04-06T09:06:38.999Z</time></trkpt><trkpt lat="40.6433878" lon="14.6177088"><ele>23.799999999999997</ele><time>2026-04-06T09:06:39.999Z</time></trkpt><trkpt lat="40.6434449" lon="14.6176175"><ele>24.0</ele><time>2026-04-06T09:06:41Z</time></trkpt><trkpt lat="40.6435039" lon="14.6175703"><ele>27.4</ele><time>2026-04-06T09:06:42Z</time></trkpt><trkpt lat="40.6435943" lon="14.6176765"><ele>30.799999999999997</ele><time>2026-04-06T09:06:44Z</time></trkpt><trkpt lat="40.64364" lon="14.6178195"><ele>34.199999999999996</ele><time>2026-04-06T09:06:45Z</time></trkpt><trkpt lat="40.6436967" lon="14.6179021"><ele>37.599999999999994</ele><time>2026-04-06T09:06:46Z</time></trkpt><trkpt lat="40.6437806" lon="14.6179485"><ele>41.0</ele><time>2026-04-06T09:06:47Z</time></trkpt><trkpt lat="40.6438556" lon="14.61797"><ele>41.0</ele><time>2026-04-06T09:06:48Z</time></trkpt><trkpt lat="40.6439469" lon="14.6179729"><ele>41.0</ele><time>2026-04-06T09:06:49Z</time></trkpt><trkpt lat="40.6440128" lon="14.6180323"><ele>41.0</ele><time>2026-04-06T09:06:50Z</time></trkpt><trkpt lat="40.6440533" lon="14.618132"><ele>41.0</ele><time>2026-04-06T09:06:51Z</time></trkpt><trkpt lat="40.6440826" lon="14.6182531"><ele>41.0</ele><time>2026-04-06T09:06:51.999Z</time></trkpt><trkpt lat="40.6441061" lon="14.6183634"><ele>41.0</ele><time>2026-04-06T09:06:53Z</time></trkpt><trkpt lat="40.6441506" lon="14.6184569"><ele>41.0</ele><time>2026-04-06T09:06:53.999Z</time></trkpt><trkpt lat="40.644227" lon="14.6185284"><ele>41.0</ele><time>2026-04-06T09:06:55Z</time></trkpt><trkpt lat="40.6443234" lon="14.6185366"><ele>41.0</ele><time>2026-04-06T09:06:55.999Z</time></trkpt><trkpt lat="40.6444346" lon="14.6185145"><ele>41.0</ele><time>2026-04-06T09:06:57Z</time></trkpt><trkpt lat="40.6445687" lon="14.6185048"><ele>41.0</ele><time>2026-04-06T09:06:58Z</time></trkpt><trkpt lat="40.6447086" lon="14.6184959"><ele>45.5</ele><time>2026-04-06T09:06:58.999Z</time></trkpt><trkpt lat="40.6448364" lon="14.6184992"><ele>50.0</ele><time>2026-04-06T09:07:00Z</time></trkpt><trkpt lat="40.6449438" lon="14.6185468"><ele>54.5</ele><time>2026-04-06T09:07:01Z</time></trkpt><trkpt lat="40.6450344" lon="14.6186393"><ele>59.0</ele><time>2026-04-06T09:07:02Z</time></trkpt><trkpt lat="40.6451456" lon="14.6187354"><ele>52.0</ele><time>2026-04-06T09:07:03Z</time></trkpt><trkpt lat="40.6452552" lon="14.6188234"><ele>45.0</ele><time>2026-04-06T09:07:04Z</time></trkpt><trkpt lat="40.6454304" lon="14.6188483"><ele>38.0</ele><time>2026-04-06T09:07:05Z</time></trkpt><trkpt lat="40.6455747" lon="14.6188615"><ele>31.0</ele><time>2026-04-06T09:07:06Z</time></trkpt><trkpt lat="40.6457102" lon="14.6188454"><ele>31.000000000000004</ele><time>2026-04-06T09:07:07Z</time></trkpt><trkpt lat="40.6458231" lon="14.6188044"><ele>31.0</ele><time>2026-04-06T09:07:08Z</time></trkpt><trkpt lat="40.645912" lon="14.6187379"><ele>31.0</ele><time>2026-04-06T09:07:09Z</time></trkpt><trkpt lat="40.6459944" lon="14.6186903"><ele>31.0</ele><time>2026-04-06T09:07:10Z</time></trkpt><trkpt lat="40.6460688" lon="14.6186841"><ele>31.000000000000004</ele><time>2026-04-06T09:07:11Z</time></trkpt><trkpt lat="40.6461226" lon="14.6187325"><ele>31.0</ele><time>2026-04-06T09:07:12Z</time></trkpt><trkpt lat="40.646158" lon="14.6188296"><ele>31.0</ele><time>2026-04-06T09:07:13Z</time></trkpt><trkpt lat="40.6461572" lon="14.6189473"><ele>31.0</ele><time>2026-04-06T09:07:14Z</time></trkpt><trkpt lat="40.6461215" lon="14.6190669"><ele>31.0</ele><time>2026-04-06T09:07:15Z</time></trkpt><trkpt lat="40.6461033" lon="14.6191957"><ele>31.0</ele><time>2026-04-06T09:07:16Z</time></trkpt><trkpt lat="40.6461194" lon="14.6193101"><ele>31.0</ele><time>2026-04-06T09:07:17Z</time></trkpt><trkpt lat="40.6461734" lon="14.6194112"><ele>34.0</ele><time>2026-04-06T09:07:18Z</time></trkpt><trkpt lat="40.6462602" lon="14.6194679"><ele>37.0</ele><time>2026-04-06T09:07:19Z</time></trkpt><trkpt lat="40.6463536" lon="14.6195246"><ele>40.0</ele><time>2026-04-06T09:07:20Z</time></trkpt><trkpt lat="40.6464562" lon="14.6195625"><ele>43.0</ele><time>2026-04-06T09:07:21Z</time></trkpt><trkpt lat="40.6465442" lon="14.6196271"><ele>46.0</ele><time>2026-04-06T09:07:22Z</time></trkpt><trkpt lat="40.6466132" lon="14.619743"><ele>46.0</ele><time>2026-04-06T09:07:23Z</time></trkpt><trkpt lat="40.6466425" lon="14.6198607"><ele>46.0</ele><time>2026-04-06T09:07:23.999Z</time></trkpt><trkpt lat="40.6466271" lon="14.620002"><ele>46.0</ele><time>2026-04-06T09:07:25Z</time></trkpt><trkpt lat="40.6465678" lon="14.6201562"><ele>46.0</ele><time>2026-04-06T09:07:26Z</time></trkpt><trkpt lat="40.6465128" lon="14.6203339"><ele>45.0</ele><time>2026-04-06T09:07:26.999Z</time></trkpt><trkpt lat="40.6464729" lon="14.6205204"><ele>44.0</ele><time>2026-04-06T09:07:28Z</time></trkpt><trkpt lat="40.6464437" lon="14.6206928"><ele>43.0</ele><time>2026-04-06T09:07:29Z</time></trkpt><trkpt lat="40.6464282" lon="14.6208599"><ele>42.0</ele><time>2026-04-06T09:07:30Z</time></trkpt><trkpt lat="40.6464417" lon="14.6210161"><ele>38.6</ele><time>2026-04-06T09:07:31Z</time></trkpt><trkpt lat="40.6464727" lon="14.6211667"><ele>35.2</ele><time>2026-04-06T09:07:31.999Z</time></trkpt><trkpt lat="40.6465121" lon="14.6213147"><ele>31.8</ele><time>2026-04-06T09:07:33Z</time></trkpt><trkpt lat="40.6465736" lon="14.6214246"><ele>28.4</ele><time>2026-04-06T09:07:34Z</time></trkpt><trkpt lat="40.6466622" lon="14.6214808"><ele>25.0</ele><time>2026-04-06T09:07:35Z</time></trkpt><trkpt lat="40.6467772" lon="14.6215049"><ele>25.0</ele><time>2026-04-06T09:07:36Z</time></trkpt><trkpt lat="40.6469151" lon="14.621531"><ele>25.0</ele><time>2026-04-06T09:07:37Z</time></trkpt><trkpt lat="40.6470437" lon="14.6215743"><ele>25.0</ele><time>2026-04-06T09:07:38Z</time></trkpt><trkpt lat="40.6471649" lon="14.6216129"><ele>25.0</ele><time>2026-04-06T09:07:38.999Z</time></trkpt><trkpt lat="40.6472814" lon="14.6216728"><ele>29.2</ele><time>2026-04-06T09:07:40Z</time></trkpt><trkpt lat="40.6473728" lon="14.6217414"><ele>33.4</ele><time>2026-04-06T09:07:41Z</time></trkpt><trkpt lat="40.6474411" lon="14.6218248"><ele>37.599999999999994</ele><time>2026-04-06T09:07:42Z</time></trkpt><trkpt lat="40.6474877" lon="14.6219389"><ele>41.8</ele><time>2026-04-06T09:07:43Z</time></trkpt><trkpt lat="40.6475214" lon="14.6220744"><ele>46.0</ele><time>2026-04-06T09:07:44Z</time></trkpt><trkpt lat="40.6475624" lon="14.6222222"><ele>46.0</ele><time>2026-04-06T09:07:45Z</time></trkpt><trkpt lat="40.6476209" lon="14.6224079"><ele>46.0</ele><time>2026-04-06T09:07:46Z</time></trkpt><trkpt lat="40.6476663" lon="14.6225751"><ele>46.0</ele><time>2026-04-06T09:07:47Z</time></trkpt><trkpt lat="40.6477226" lon="14.6227208"><ele>46.0</ele><time>2026-04-06T09:07:48Z</time></trkpt><trkpt lat="40.64778" lon="14.6228461"><ele>53.199999999999996</ele><time>2026-04-06T09:07:49Z</time></trkpt><trkpt lat="40.6478341" lon="14.6229675"><ele>60.39999999999999</ele><time>2026-04-06T09:07:50Z</time></trkpt><trkpt lat="40.647873" lon="14.6230765"><ele>67.6</ele><time>2026-04-06T09:07:51Z</time></trkpt><trkpt lat="40.6478844" lon="14.6231866"><ele>74.8</ele><time>2026-04-06T09:07:51.999Z</time></trkpt><trkpt lat="40.6479095" lon="14.6232992"><ele>82.0</ele><time>2026-04-06T09:07:53Z</time></trkpt><trkpt lat="40.6479652" lon="14.6234171"><ele>82.0</ele><time>2026-04-06T09:07:54Z</time></trkpt><trkpt lat="40.6480154" lon="14.6235228"><ele>82.0</ele><time>2026-04-06T09:07:54.999Z</time></trkpt><trkpt lat="40.6480607" lon="14.6236234"><ele>82.0</ele><time>2026-04-06T09:07:56Z</time></trkpt><trkpt lat="40.6480528" lon="14.623716"><ele>82.0</ele><time>2026-04-06T09:07:57Z</time></trkpt><trkpt lat="40.6480255" lon="14.6238167"><ele>82.0</ele><time>2026-04-06T09:07:58Z</time></trkpt><trkpt lat="40.647975" lon="14.6239117"><ele>82.0</ele><time>2026-04-06T09:07:59Z</time></trkpt><trkpt lat="40.6479192" lon="14.6239923"><ele>78.66666666666666</ele><time>2026-04-06T09:08:00Z</time></trkpt><trkpt lat="40.6478709" lon="14.624072"><ele>75.33333333333333</ele><time>2026-04-06T09:08:01Z</time></trkpt><trkpt lat="40.6478491" lon="14.6241589"><ele>72.0</ele><time>2026-04-06T09:08:02Z</time></trkpt><trkpt lat="40.6478395" lon="14.6242723"><ele>68.66666666666667</ele><time>2026-04-06T09:08:03Z</time></trkpt><trkpt lat="40.6478394" lon="14.6243748"><ele>65.33333333333334</ele><time>2026-04-06T09:08:04Z</time></trkpt><trkpt lat="40.6478532" lon="14.6244721"><ele>62.0</ele><time>2026-04-06T09:08:05Z</time></trkpt><trkpt lat="40.6478885" lon="14.6245659"><ele>58.8</ele><time>2026-04-06T09:08:06Z</time></trkpt><trkpt lat="40.6479422" lon="14.6246535"><ele>55.6</ele><time>2026-04-06T09:08:07Z</time></trkpt><trkpt lat="40.6480478" lon="14.6247211"><ele>52.4</ele><time>2026-04-06T09:08:08Z</time></trkpt><trkpt lat="40.6481468" lon="14.6247553"><ele>49.199999999999996</ele><time>2026-04-06T09:08:09Z</time></trkpt><trkpt lat="40.6482406" lon="14.624799"><ele>46.0</ele><time>2026-04-06T09:08:10Z</time></trkpt><trkpt lat="40.6483012" lon="14.6248708"><ele>46.0</ele><time>2026-04-06T09:08:11Z</time></trkpt><trkpt lat="40.6483323" lon="14.6249539"><ele>46.0</ele><time>2026-04-06T09:08:12Z</time></trkpt><trkpt lat="40.6483769" lon="14.625019"><ele>46.0</ele><time>2026-04-06T09:08:13Z</time></trkpt><trkpt lat="40.6484007" lon="14.6251183"><ele>46.0</ele><time>2026-04-06T09:08:14Z</time></trkpt><trkpt lat="40.6483489" lon="14.6252995"><ele>46.0</ele><time>2026-04-06T09:08:15Z</time></trkpt><trkpt lat="40.6483472" lon="14.6254197"><ele>44.4</ele><time>2026-04-06T09:08:16Z</time></trkpt><trkpt lat="40.6483727" lon="14.6255549"><ele>42.8</ele><time>2026-04-06T09:08:17Z</time></trkpt><trkpt lat="40.6484603" lon="14.6256274"><ele>41.199999999999996</ele><time>2026-04-06T09:08:18Z</time></trkpt><trkpt lat="40.6485649" lon="14.6256944"><ele>39.599999999999994</ele><time>2026-04-06T09:08:19Z</time></trkpt><trkpt lat="40.64866" lon="14.625758"><ele>38.0</ele><time>2026-04-06T09:08:20Z</time></trkpt><trkpt lat="40.6487547" lon="14.6258193"><ele>38.0</ele><time>2026-04-06T09:08:21Z</time></trkpt><trkpt lat="40.6488595" lon="14.6258554"><ele>38.0</ele><time>2026-04-06T09:08:22Z</time></trkpt><trkpt lat="40.6489803" lon="14.6258538"><ele>38.0</ele><time>2026-04-06T09:08:23Z</time></trkpt><trkpt lat="40.6490723" lon="14.6258796"><ele>38.0</ele><time>2026-04-06T09:08:24Z</time></trkpt><trkpt lat="40.6491474" lon="14.6259042"><ele>38.0</ele><time>2026-04-06T09:08:24.999Z</time></trkpt><trkpt lat="40.6492236" lon="14.6259004"><ele>38.0</ele><time>2026-04-06T09:08:26Z</time></trkpt><trkpt lat="40.649289" lon="14.6258657"><ele>38.0</ele><time>2026-04-06T09:08:27Z</time></trkpt><trkpt lat="40.6493449" lon="14.625775"><ele>38.0</ele><time>2026-04-06T09:08:28Z</time></trkpt><trkpt lat="40.6494129" lon="14.6256793"><ele>38.0</ele><time>2026-04-06T09:08:29Z</time></trkpt><trkpt lat="40.6494659" lon="14.6255798"><ele>38.0</ele><time>2026-04-06T09:08:30Z</time></trkpt><trkpt lat="40.6495268" lon="14.6254855"><ele>38.0</ele><time>2026-04-06T09:08:31Z</time></trkpt><trkpt lat="40.6496274" lon="14.6254721"><ele>35.5</ele><time>2026-04-06T09:08:32Z</time></trkpt><trkpt lat="40.6496994" lon="14.6254241"><ele>33.0</ele><time>2026-04-06T09:08:33Z</time></trkpt><trkpt lat="40.6497784" lon="14.6254148"><ele>30.5</ele><time>2026-04-06T09:08:34Z</time></trkpt><trkpt lat="40.6498447" lon="14.625444"><ele>28.0</ele><time>2026-04-06T09:08:35Z</time></trkpt><trkpt lat="40.6499039" lon="14.6255157"><ele>25.5</ele><time>2026-04-06T09:08:36Z</time></trkpt><trkpt lat="40.6499777" lon="14.6255711"><ele>23.0</ele><time>2026-04-06T09:08:37Z</time></trkpt><trkpt lat="40.6500593" lon="14.6255636"><ele>23.0</ele><time>2026-04-06T09:08:38Z</time></trkpt><trkpt lat="40.6501497" lon="14.6255249"><ele>23.0</ele><time>2026-04-06T09:08:39Z</time></trkpt><trkpt lat="40.6502477" lon="14.6254767"><ele>23.0</ele><time>2026-04-06T09:08:40Z</time></trkpt><trkpt lat="40.6503535" lon="14.6254238"><ele>23.0</ele><time>2026-04-06T09:08:41Z</time></trkpt><trkpt lat="40.6504487" lon="14.6253799"><ele>23.0</ele><time>2026-04-06T09:08:41.999Z</time></trkpt><trkpt lat="40.6505422" lon="14.62534"><ele>22.2</ele><time>2026-04-06T09:08:43Z</time></trkpt><trkpt lat="40.6506284" lon="14.6253053"><ele>21.4</ele><time>2026-04-06T09:08:44Z</time></trkpt><trkpt lat="40.6507133" lon="14.6252784"><ele>20.599999999999998</ele><time>2026-04-06T09:08:45Z</time></trkpt><trkpt lat="40.6507914" lon="14.6252537"><ele>19.799999999999997</ele><time>2026-04-06T09:08:46Z</time></trkpt><trkpt lat="40.6509041" lon="14.6252409"><ele>19.0</ele><time>2026-04-06T09:08:48Z</time></trkpt><trkpt lat="40.6509578" lon="14.6253326"><ele>19.0</ele><time>2026-04-06T09:08:50Z</time></trkpt><trkpt lat="40.6509085" lon="14.6254373"><ele>19.0</ele><time>2026-04-06T09:08:52Z</time></trkpt><trkpt lat="40.6507936" lon="14.6254872"><ele>19.0</ele><time>2026-04-06T09:08:54Z</time></trkpt><trkpt lat="40.650683" lon="14.625539"><ele>19.0</ele><time>2026-04-06T09:08:56Z</time></trkpt><trkpt lat="40.6506235" lon="14.6255684"><ele>19.0</ele><time>2026-04-06T09:08:57Z</time></trkpt><trkpt lat="40.6505558" lon="14.6255983"><ele>19.0</ele><time>2026-04-06T09:08:58Z</time></trkpt><trkpt lat="40.6504863" lon="14.6256311"><ele>19.0</ele><time>2026-04-06T09:08:59Z</time></trkpt><trkpt lat="40.6504114" lon="14.6256675"><ele>19.0</ele><time>2026-04-06T09:09:00Z</time></trkpt><trkpt lat="40.6503328" lon="14.6257029"><ele>19.0</ele><time>2026-04-06T09:09:01Z</time></trkpt><trkpt lat="40.650245" lon="14.6257395"><ele>19.0</ele><time>2026-04-06T09:09:02Z</time></trkpt><trkpt lat="40.6501648" lon="14.6257692"><ele>19.0</ele><time>2026-04-06T09:09:03Z</time></trkpt><trkpt lat="40.6500876" lon="14.6258069"><ele>19.666666666666664</ele><time>2026-04-06T09:09:04Z</time></trkpt><trkpt lat="40.650011" lon="14.6258419"><ele>20.333333333333332</ele><time>2026-04-06T09:09:05Z</time></trkpt><trkpt lat="40.6499358" lon="14.6258803"><ele>21.0</ele><time>2026-04-06T09:09:06Z</time></trkpt><trkpt lat="40.6498571" lon="14.6259156"><ele>21.666666666666668</ele><time>2026-04-06T09:09:07Z</time></trkpt><trkpt lat="40.6497669" lon="14.6259564"><ele>22.333333333333336</ele><time>2026-04-06T09:09:08Z</time></trkpt><trkpt lat="40.6496772" lon="14.6260074"><ele>23.0</ele><time>2026-04-06T09:09:09Z</time></trkpt><trkpt lat="40.6495868" lon="14.6260695"><ele>23.0</ele><time>2026-04-06T09:09:10Z</time></trkpt><trkpt lat="40.6495057" lon="14.6261232"><ele>23.0</ele><time>2026-04-06T09:09:11Z</time></trkpt><trkpt lat="40.6494336" lon="14.6261828"><ele>23.0</ele><time>2026-04-06T09:09:12Z</time></trkpt><trkpt lat="40.6493771" lon="14.6262495"><ele>23.0</ele><time>2026-04-06T09:09:13Z</time></trkpt><trkpt lat="40.6493309" lon="14.6263443"><ele>23.0</ele><time>2026-04-06T09:09:15Z</time></trkpt><trkpt lat="40.6493279" lon="14.6264281"><ele>23.0</ele><time>2026-04-06T09:09:18Z</time></trkpt><trkpt lat="40.6493421" lon="14.6265274"><ele>20.799999999999997</ele><time>2026-04-06T09:09:20Z</time></trkpt><trkpt lat="40.6493821" lon="14.6266731"><ele>18.599999999999998</ele><time>2026-04-06T09:09:22Z</time></trkpt><trkpt lat="40.6494095" lon="14.6268221"><ele>16.4</ele><time>2026-04-06T09:09:24Z</time></trkpt><trkpt lat="40.6494292" lon="14.6269796"><ele>14.2</ele><time>2026-04-06T09:09:25.999Z</time></trkpt><trkpt lat="40.6494346" lon="14.6270625"><ele>12.0</ele><time>2026-04-06T09:09:27Z</time></trkpt><trkpt lat="40.6494398" lon="14.6271511"><ele>12.5</ele><time>2026-04-06T09:09:28Z</time></trkpt><trkpt lat="40.6494472" lon="14.6272361"><ele>13.0</ele><time>2026-04-06T09:09:29Z</time></trkpt><trkpt lat="40.6494592" lon="14.6273283"><ele>13.5</ele><time>2026-04-06T09:09:30Z</time></trkpt><trkpt lat="40.6494698" lon="14.6274185"><ele>14.0</ele><time>2026-04-06T09:09:31Z</time></trkpt><trkpt lat="40.649479" lon="14.6275022"><ele>14.5</ele><time>2026-04-06T09:09:32Z</time></trkpt><trkpt lat="40.649496" lon="14.6276391"><ele>15.0</ele><time>2026-04-06T09:09:34Z</time></trkpt><trkpt lat="40.6495059" lon="14.6277473"><ele>14.333333333333334</ele><time>2026-04-06T09:09:35.999Z</time></trkpt><trkpt lat="40.6495177" lon="14.6278436"><ele>13.666666666666666</ele><time>2026-04-06T09:09:39Z</time></trkpt><trkpt lat="40.6495218" lon="14.6279433"><ele>13.0</ele><time>2026-04-06T09:09:53Z</time></trkpt><trkpt lat="40.6495397" lon="14.6280479"><ele>12.333333333333332</ele><time>2026-04-06T09:09:55Z</time></trkpt><trkpt lat="40.6495635" lon="14.6281915"><ele>11.666666666666666</ele><time>2026-04-06T09:09:57Z</time></trkpt><trkpt lat="40.6495761" lon="14.6283184"><ele>11.0</ele><time>2026-04-06T09:09:58.999Z</time></trkpt><trkpt lat="40.649587" lon="14.6284176"><ele>11.0</ele><time>2026-04-06T09:10:01Z</time></trkpt><trkpt lat="40.6495942" lon="14.6285043"><ele>11.0</ele><time>2026-04-06T09:10:04Z</time></trkpt><trkpt lat="40.6496077" lon="14.6286086"><ele>11.0</ele><time>2026-04-06T09:10:18Z</time></trkpt><trkpt lat="40.6496239" lon="14.6286919"><ele>11.0</ele><time>2026-04-06T09:10:19Z</time></trkpt><trkpt lat="40.649629" lon="14.6287846"><ele>11.0</ele><time>2026-04-06T09:10:20Z</time></trkpt><trkpt lat="40.6496343" lon="14.6288838"><ele>11.0</ele><time>2026-04-06T09:10:21Z</time></trkpt><trkpt lat="40.649622" lon="14.6289873"><ele>11.0</ele><time>2026-04-06T09:10:22Z</time></trkpt><trkpt lat="40.649578" lon="14.6290942"><ele>12.0</ele><time>2026-04-06T09:10:23Z</time></trkpt><trkpt lat="40.6495134" lon="14.6291905"><ele>13.0</ele><time>2026-04-06T09:10:24Z</time></trkpt><trkpt lat="40.6494212" lon="14.6292768"><ele>14.0</ele><time>2026-04-06T09:10:24.999Z</time></trkpt><trkpt lat="40.6493149" lon="14.6293629"><ele>15.0</ele><time>2026-04-06T09:10:26Z</time></trkpt><trkpt lat="40.6491989" lon="14.6294469"><ele>24.5</ele><time>2026-04-06T09:10:27Z</time></trkpt><trkpt lat="40.649084" lon="14.6295269"><ele>34.0</ele><time>2026-04-06T09:10:28Z</time></trkpt><trkpt lat="40.6489754" lon="14.6296023"><ele>43.5</ele><time>2026-04-06T09:10:28.999Z</time></trkpt><trkpt lat="40.6488596" lon="14.6296812"><ele>53.0</ele><time>2026-04-06T09:10:30Z</time></trkpt><trkpt lat="40.648753" lon="14.6297622"><ele>53.0</ele><time>2026-04-06T09:10:31Z</time></trkpt><trkpt lat="40.6486526" lon="14.6298309"><ele>53.0</ele><time>2026-04-06T09:10:31.999Z</time></trkpt><trkpt lat="40.6485679" lon="14.629897"><ele>53.0</ele><time>2026-04-06T09:10:33Z</time></trkpt><trkpt lat="40.6485089" lon="14.6299804"><ele>53.0</ele><time>2026-04-06T09:10:34Z</time></trkpt><trkpt lat="40.6484742" lon="14.6300854"><ele>53.0</ele><time>2026-04-06T09:10:35Z</time></trkpt><trkpt lat="40.648441" lon="14.6302126"><ele>45.25</ele><time>2026-04-06T09:10:36Z</time></trkpt><trkpt lat="40.6484011" lon="14.6303566"><ele>37.5</ele><time>2026-04-06T09:10:36.999Z</time></trkpt><trkpt lat="40.6483698" lon="14.6305063"><ele>29.75</ele><time>2026-04-06T09:10:38Z</time></trkpt><trkpt lat="40.6483481" lon="14.6306513"><ele>22.0</ele><time>2026-04-06T09:10:39Z</time></trkpt><trkpt lat="40.6483308" lon="14.6307971"><ele>22.0</ele><time>2026-04-06T09:10:40Z</time></trkpt><trkpt lat="40.6483282" lon="14.630937"><ele>22.0</ele><time>2026-04-06T09:10:41Z</time></trkpt><trkpt lat="40.6483268" lon="14.6310677"><ele>22.0</ele><time>2026-04-06T09:10:42Z</time></trkpt><trkpt lat="40.6483198" lon="14.6311907"><ele>22.0</ele><time>2026-04-06T09:10:43Z</time></trkpt><trkpt lat="40.6483012" lon="14.6313162"><ele>22.0</ele><time>2026-04-06T09:10:44Z</time></trkpt><trkpt lat="40.6482771" lon="14.6314395"><ele>24.0</ele><time>2026-04-06T09:10:45Z</time></trkpt><trkpt lat="40.6482512" lon="14.6315599"><ele>26.0</ele><time>2026-04-06T09:10:46Z</time></trkpt><trkpt lat="40.6482237" lon="14.6316726"><ele>28.0</ele><time>2026-04-06T09:10:47Z</time></trkpt><trkpt lat="40.6481967" lon="14.6317834"><ele>30.0</ele><time>2026-04-06T09:10:48Z</time></trkpt><trkpt lat="40.6481692" lon="14.631891"><ele>32.0</ele><time>2026-04-06T09:10:49Z</time></trkpt><trkpt lat="40.6481413" lon="14.6319935"><ele>34.0</ele><time>2026-04-06T09:10:50Z</time></trkpt><trkpt lat="40.6481137" lon="14.632083"><ele>33.333333333333336</ele><time>2026-04-06T09:10:51.167Z</time></trkpt><trkpt lat="40.6480719" lon="14.6322457"><ele>32.66666666666667</ele><time>2026-04-06T09:10:53Z</time></trkpt><trkpt lat="40.6480366" lon="14.6323763"><ele>32.0</ele><time>2026-04-06T09:10:55Z</time></trkpt><trkpt lat="40.6480224" lon="14.6324702"><ele>31.333333333333336</ele><time>2026-04-06T09:10:56.999Z</time></trkpt><trkpt lat="40.6480015" lon="14.6325539"><ele>30.666666666666668</ele><time>2026-04-06T09:11:00Z</time></trkpt><trkpt lat="40.6479749" lon="14.6326336"><ele>30.0</ele><time>2026-04-06T09:12:27.999Z</time></trkpt><trkpt lat="40.6479619" lon="14.6328394"><ele>30.0</ele><time>2026-04-06T09:12:30Z</time></trkpt><trkpt lat="40.6479409" lon="14.6329692"><ele>30.0</ele><time>2026-04-06T09:12:31Z</time></trkpt><trkpt lat="40.6479171" lon="14.6330848"><ele>30.0</ele><time>2026-04-06T09:12:32Z</time></trkpt><trkpt lat="40.6478906" lon="14.633191"><ele>30.0</ele><time>2026-04-06T09:12:33Z</time></trkpt><trkpt lat="40.6478764" lon="14.6332991"><ele>30.0</ele><time>2026-04-06T09:12:34Z</time></trkpt><trkpt lat="40.6478756" lon="14.6333983"><ele>30.0</ele><time>2026-04-06T09:12:35Z</time></trkpt><trkpt lat="40.6478986" lon="14.6334911"><ele>30.0</ele><time>2026-04-06T09:12:36Z</time></trkpt><trkpt lat="40.6479372" lon="14.6335725"><ele>30.0</ele><time>2026-04-06T09:12:37Z</time></trkpt><trkpt lat="40.6479863" lon="14.6336449"><ele>30.0</ele><time>2026-04-06T09:12:38Z</time></trkpt><trkpt lat="40.6480448" lon="14.633689"><ele>30.0</ele><time>2026-04-06T09:12:39Z</time></trkpt><trkpt lat="40.6481195" lon="14.6336951"><ele>30.0</ele><time>2026-04-06T09:12:39.999Z</time></trkpt><trkpt lat="40.6481987" lon="14.6336817"><ele>30.0</ele><time>2026-04-06T09:12:41Z</time></trkpt><trkpt lat="40.6482713" lon="14.6336389"><ele>30.0</ele><time>2026-04-06T09:12:42Z</time></trkpt><trkpt lat="40.6483429" lon="14.6335956"><ele>30.0</ele><time>2026-04-06T09:12:42.999Z</time></trkpt><trkpt lat="40.6484609" lon="14.6335037"><ele>30.0</ele><time>2026-04-06T09:12:45Z</time></trkpt><trkpt lat="40.648538" lon="14.6335061"><ele>30.0</ele><time>2026-04-06T09:12:46Z</time></trkpt><trkpt lat="40.6486137" lon="14.6335287"><ele>30.0</ele><time>2026-04-06T09:12:47Z</time></trkpt><trkpt lat="40.6486878" lon="14.6335821"><ele>30.0</ele><time>2026-04-06T09:12:47.999Z</time></trkpt><trkpt lat="40.6487734" lon="14.6336534"><ele>30.5</ele><time>2026-04-06T09:12:49Z</time></trkpt><trkpt lat="40.648869" lon="14.6337485"><ele>31.0</ele><time>2026-04-06T09:12:50Z</time></trkpt><trkpt lat="40.6489636" lon="14.6338456"><ele>31.5</ele><time>2026-04-06T09:12:51Z</time></trkpt><trkpt lat="40.6490548" lon="14.6339287"><ele>32.0</ele><time>2026-04-06T09:12:52Z</time></trkpt><trkpt lat="40.6491409" lon="14.6340125"><ele>32.0</ele><time>2026-04-06T09:12:53Z</time></trkpt><trkpt lat="40.6492209" lon="14.6340945"><ele>32.0</ele><time>2026-04-06T09:12:54Z</time></trkpt><trkpt lat="40.6492944" lon="14.6342002"><ele>32.0</ele><time>2026-04-06T09:12:54.999Z</time></trkpt><trkpt lat="40.6493558" lon="14.6343191"><ele>32.0</ele><time>2026-04-06T09:12:56Z</time></trkpt><trkpt lat="40.6494" lon="14.6344545"><ele>32.0</ele><time>2026-04-06T09:12:57Z</time></trkpt><trkpt lat="40.6494276" lon="14.6345973"><ele>33.6</ele><time>2026-04-06T09:12:58Z</time></trkpt><trkpt lat="40.6494456" lon="14.6347373"><ele>35.2</ele><time>2026-04-06T09:12:59Z</time></trkpt><trkpt lat="40.6494588" lon="14.6348703"><ele>36.8</ele><time>2026-04-06T09:13:00Z</time></trkpt><trkpt lat="40.6494639" lon="14.6349953"><ele>38.4</ele><time>2026-04-06T09:13:01Z</time></trkpt><trkpt lat="40.6494659" lon="14.6351077"><ele>40.0</ele><time>2026-04-06T09:13:02Z</time></trkpt><trkpt lat="40.6494658" lon="14.6352195"><ele>39.2</ele><time>2026-04-06T09:13:03Z</time></trkpt><trkpt lat="40.6494604" lon="14.6353346"><ele>38.4</ele><time>2026-04-06T09:13:04Z</time></trkpt><trkpt lat="40.6494523" lon="14.6354614"><ele>37.6</ele><time>2026-04-06T09:13:05Z</time></trkpt><trkpt lat="40.6494378" lon="14.6355912"><ele>36.8</ele><time>2026-04-06T09:13:06Z</time></trkpt><trkpt lat="40.6494192" lon="14.635721"><ele>36.0</ele><time>2026-04-06T09:13:07Z</time></trkpt><trkpt lat="40.6493993" lon="14.635848"><ele>30.8</ele><time>2026-04-06T09:13:08Z</time></trkpt><trkpt lat="40.6493771" lon="14.6359764"><ele>25.6</ele><time>2026-04-06T09:13:09Z</time></trkpt><trkpt lat="40.6493559" lon="14.6361034"><ele>20.4</ele><time>2026-04-06T09:13:09.999Z</time></trkpt><trkpt lat="40.6493327" lon="14.6362237"><ele>15.2</ele><time>2026-04-06T09:13:11Z</time></trkpt><trkpt lat="40.6493167" lon="14.6363387"><ele>10.0</ele><time>2026-04-06T09:13:12Z</time></trkpt><trkpt lat="40.6492959" lon="14.6364569"><ele>10.0</ele><time>2026-04-06T09:13:13Z</time></trkpt><trkpt lat="40.6492765" lon="14.6365691"><ele>10.0</ele><time>2026-04-06T09:13:14Z</time></trkpt><trkpt lat="40.6492584" lon="14.6366792"><ele>10.0</ele><time>2026-04-06T09:13:15Z</time></trkpt><trkpt lat="40.6492386" lon="14.6367864"><ele>10.0</ele><time>2026-04-06T09:13:16Z</time></trkpt><trkpt lat="40.6492226" lon="14.6368959"><ele>10.0</ele><time>2026-04-06T09:13:17Z</time></trkpt><trkpt lat="40.6492024" lon="14.6370158"><ele>10.0</ele><time>2026-04-06T09:13:18Z</time></trkpt><trkpt lat="40.6491803" lon="14.6371369"><ele>10.2</ele><time>2026-04-06T09:13:19Z</time></trkpt><trkpt lat="40.6491563" lon="14.637258"><ele>10.4</ele><time>2026-04-06T09:13:20Z</time></trkpt><trkpt lat="40.6491361" lon="14.6373774"><ele>10.600000000000001</ele><time>2026-04-06T09:13:20.999Z</time></trkpt><trkpt lat="40.6491187" lon="14.6374975"><ele>10.8</ele><time>2026-04-06T09:13:22Z</time></trkpt><trkpt lat="40.6491003" lon="14.6376072"><ele>11.0</ele><time>2026-04-06T09:13:23Z</time></trkpt><trkpt lat="40.649081" lon="14.6377195"><ele>11.5</ele><time>2026-04-06T09:13:23.999Z</time></trkpt><trkpt lat="40.6490618" lon="14.637833"><ele>12.0</ele><time>2026-04-06T09:13:25Z</time></trkpt><trkpt lat="40.6490412" lon="14.6379453"><ele>12.5</ele><time>2026-04-06T09:13:26Z</time></trkpt><trkpt lat="40.6490259" lon="14.6380493"><ele>13.0</ele><time>2026-04-06T09:13:26.999Z</time></trkpt><trkpt lat="40.6490122" lon="14.6381506"><ele>13.500000000000002</ele><time>2026-04-06T09:13:28Z</time></trkpt><trkpt lat="40.6489959" lon="14.6382564"><ele>14.0</ele><time>2026-04-06T09:13:29Z</time></trkpt><trkpt lat="40.6489768" lon="14.6383594"><ele>14.000000000000002</ele><time>2026-04-06T09:13:30Z</time></trkpt><trkpt lat="40.648956" lon="14.6384683"><ele>14.0</ele><time>2026-04-06T09:13:31Z</time></trkpt><trkpt lat="40.64894" lon="14.6385838"><ele>14.0</ele><time>2026-04-06T09:13:32Z</time></trkpt><trkpt lat="40.6489232" lon="14.6386984"><ele>14.0</ele><time>2026-04-06T09:13:33Z</time></trkpt><trkpt lat="40.6489047" lon="14.6388119"><ele>14.000000000000002</ele><time>2026-04-06T09:13:34Z</time></trkpt><trkpt lat="40.6488783" lon="14.6389202"><ele>14.0</ele><time>2026-04-06T09:13:35Z</time></trkpt><trkpt lat="40.6488513" lon="14.6390208"><ele>14.333333333333334</ele><time>2026-04-06T09:13:36Z</time></trkpt><trkpt lat="40.6488251" lon="14.6391232"><ele>14.666666666666668</ele><time>2026-04-06T09:13:37Z</time></trkpt><trkpt lat="40.6487987" lon="14.6392141"><ele>15.0</ele><time>2026-04-06T09:13:38Z</time></trkpt><trkpt lat="40.6487689" lon="14.6392956"><ele>15.333333333333332</ele><time>2026-04-06T09:13:39Z</time></trkpt><trkpt lat="40.6487197" lon="14.639437"><ele>15.666666666666666</ele><time>2026-04-06T09:13:41Z</time></trkpt><trkpt lat="40.6486898" lon="14.6395151"><ele>16.0</ele><time>2026-04-06T09:13:42Z</time></trkpt><trkpt lat="40.6486551" lon="14.6396028"><ele>14.499999999999998</ele><time>2026-04-06T09:13:43Z</time></trkpt><trkpt lat="40.6486144" lon="14.6397098"><ele>13.0</ele><time>2026-04-06T09:13:44Z</time></trkpt><trkpt lat="40.6485725" lon="14.6398241"><ele>11.5</ele><time>2026-04-06T09:13:45Z</time></trkpt><trkpt lat="40.6485317" lon="14.639932"><ele>10.0</ele><time>2026-04-06T09:13:46Z</time></trkpt><trkpt lat="40.6484939" lon="14.6400304"><ele>8.5</ele><time>2026-04-06T09:13:47Z</time></trkpt><trkpt lat="40.6484602" lon="14.640123"><ele>7.0</ele><time>2026-04-06T09:13:48Z</time></trkpt><trkpt lat="40.6484293" lon="14.6402038"><ele>7.000000000000001</ele><time>2026-04-06T09:13:49Z</time></trkpt><trkpt lat="40.6484006" lon="14.6402794"><ele>7.0</ele><time>2026-04-06T09:13:50Z</time></trkpt><trkpt lat="40.6483694" lon="14.6403636"><ele>7.0</ele><time>2026-04-06T09:13:51Z</time></trkpt><trkpt lat="40.6483339" lon="14.6404639"><ele>7.0</ele><time>2026-04-06T09:13:52Z</time></trkpt><trkpt lat="40.6482958" lon="14.640553"><ele>7.000000000000001</ele><time>2026-04-06T09:13:53Z</time></trkpt><trkpt lat="40.6482645" lon="14.6406338"><ele>7.0</ele><time>2026-04-06T09:13:54Z</time></trkpt><trkpt lat="40.6482198" lon="14.6407476"><ele>8.0</ele><time>2026-04-06T09:13:56Z</time></trkpt><trkpt lat="40.6481889" lon="14.6408234"><ele>9.0</ele><time>2026-04-06T09:14:39Z</time></trkpt><trkpt lat="40.6481351" lon="14.6409691"><ele>10.0</ele><time>2026-04-06T09:14:41Z</time></trkpt><trkpt lat="40.6480951" lon="14.6410807"><ele>11.0</ele><time>2026-04-06T09:14:41.999Z</time></trkpt><trkpt lat="40.6480526" lon="14.6411963"><ele>12.0</ele><time>2026-04-06T09:14:43Z</time></trkpt><trkpt lat="40.6480119" lon="14.6413159"><ele>12.0</ele><time>2026-04-06T09:14:44Z</time></trkpt><trkpt lat="40.6479729" lon="14.6414328"><ele>12.0</ele><time>2026-04-06T09:14:45Z</time></trkpt><trkpt lat="40.6479305" lon="14.6415433"><ele>12.0</ele><time>2026-04-06T09:14:46Z</time></trkpt><trkpt lat="40.6478868" lon="14.6416666"><ele>12.0</ele><time>2026-04-06T09:14:47Z</time></trkpt><trkpt lat="40.6478362" lon="14.6418014"><ele>12.0</ele><time>2026-04-06T09:14:48Z</time></trkpt><trkpt lat="40.6477816" lon="14.6419288"><ele>11.4</ele><time>2026-04-06T09:14:49Z</time></trkpt><trkpt lat="40.6477301" lon="14.6420475"><ele>10.799999999999999</ele><time>2026-04-06T09:14:50Z</time></trkpt><trkpt lat="40.6476819" lon="14.6421733"><ele>10.2</ele><time>2026-04-06T09:14:51Z</time></trkpt><trkpt lat="40.6476315" lon="14.6423029"><ele>9.6</ele><time>2026-04-06T09:14:52Z</time></trkpt><trkpt lat="40.6475793" lon="14.6424321"><ele>9.0</ele><time>2026-04-06T09:14:53Z</time></trkpt><trkpt lat="40.647525" lon="14.6425612"><ele>9.0</ele><time>2026-04-06T09:14:54Z</time></trkpt><trkpt lat="40.6474673" lon="14.6426978"><ele>9.0</ele><time>2026-04-06T09:14:55Z</time></trkpt><trkpt lat="40.6474079" lon="14.6428385"><ele>9.0</ele><time>2026-04-06T09:14:56Z</time></trkpt><trkpt lat="40.6473486" lon="14.6429856"><ele>9.0</ele><time>2026-04-06T09:14:57Z</time></trkpt><trkpt lat="40.6472875" lon="14.643136"><ele>9.0</ele><time>2026-04-06T09:14:58Z</time></trkpt><trkpt lat="40.6472249" lon="14.6432883"><ele>9.0</ele><time>2026-04-06T09:14:59Z</time></trkpt><trkpt lat="40.6471608" lon="14.6434441"><ele>9.0</ele><time>2026-04-06T09:15:00Z</time></trkpt><trkpt lat="40.6470943" lon="14.6436005"><ele>9.0</ele><time>2026-04-06T09:15:01Z</time></trkpt><trkpt lat="40.6470267" lon="14.6437587"><ele>7.0</ele><time>2026-04-06T09:15:02Z</time></trkpt><trkpt lat="40.6469594" lon="14.6439165"><ele>5.0</ele><time>2026-04-06T09:15:02.999Z</time></trkpt><trkpt lat="40.6468928" lon="14.6440737"><ele>3.0</ele><time>2026-04-06T09:15:04Z</time></trkpt><trkpt lat="40.6468268" lon="14.6442304"><ele>1.0</ele><time>2026-04-06T09:15:05Z</time></trkpt><trkpt lat="40.6467642" lon="14.644382"><ele>2.0</ele><time>2026-04-06T09:15:06Z</time></trkpt><trkpt lat="40.6467061" lon="14.644522"><ele>3.0</ele><time>2026-04-06T09:15:07Z</time></trkpt><trkpt lat="40.6466591" lon="14.644647"><ele>3.9999999999999996</ele><time>2026-04-06T09:15:08Z</time></trkpt><trkpt lat="40.6466272" lon="14.6447625"><ele>5.0</ele><time>2026-04-06T09:15:09Z</time></trkpt><trkpt lat="40.646618" lon="14.6448808"><ele>6.0</ele><time>2026-04-06T09:15:10Z</time></trkpt><trkpt lat="40.6466402" lon="14.6450055"><ele>6.0</ele><time>2026-04-06T09:15:11Z</time></trkpt><trkpt lat="40.646698" lon="14.645123"><ele>6.0</ele><time>2026-04-06T09:15:12Z</time></trkpt><trkpt lat="40.6467641" lon="14.6452299"><ele>6.0</ele><time>2026-04-06T09:15:13Z</time></trkpt><trkpt lat="40.6468237" lon="14.6453513"><ele>6.0</ele><time>2026-04-06T09:15:14Z</time></trkpt><trkpt lat="40.6468465" lon="14.645474"><ele>6.0</ele><time>2026-04-06T09:15:15Z</time></trkpt><trkpt lat="40.6468367" lon="14.6456005"><ele>9.75</ele><time>2026-04-06T09:15:16Z</time></trkpt><trkpt lat="40.6467764" lon="14.6457252"><ele>13.5</ele><time>2026-04-06T09:15:17Z</time></trkpt><trkpt lat="40.6466986" lon="14.6458136"><ele>17.25</ele><time>2026-04-06T09:15:18Z</time></trkpt><trkpt lat="40.6465832" lon="14.6458581"><ele>21.0</ele><time>2026-04-06T09:15:19Z</time></trkpt><trkpt lat="40.6464538" lon="14.6458665"><ele>21.0</ele><time>2026-04-06T09:15:20Z</time></trkpt><trkpt lat="40.6463033" lon="14.6458449"><ele>21.0</ele><time>2026-04-06T09:15:21.169Z</time></trkpt><trkpt lat="40.6460427" lon="14.6458807"><ele>21.0</ele><time>2026-04-06T09:15:23Z</time></trkpt><trkpt lat="40.6459461" lon="14.6459286"><ele>18.166666666666668</ele><time>2026-04-06T09:15:24Z</time></trkpt><trkpt lat="40.6458801" lon="14.6459801"><ele>15.333333333333334</ele><time>2026-04-06T09:15:25Z</time></trkpt><trkpt lat="40.6457986" lon="14.6460341"><ele>12.5</ele><time>2026-04-06T09:15:27Z</time></trkpt><trkpt lat="40.6457598" lon="14.6461375"><ele>9.666666666666666</ele><time>2026-04-06T09:34:31Z</time></trkpt><trkpt lat="40.645695" lon="14.6462069"><ele>6.833333333333333</ele><time>2026-04-06T09:34:32Z</time></trkpt><trkpt lat="40.6456108" lon="14.6462894"><ele>4.0</ele><time>2026-04-06T09:34:33Z</time></trkpt><trkpt lat="40.6455261" lon="14.646378"><ele>8.0</ele><time>2026-04-06T09:34:34Z</time></trkpt><trkpt lat="40.6454309" lon="14.6464815"><ele>12.0</ele><time>2026-04-06T09:34:35Z</time></trkpt><trkpt lat="40.6453001" lon="14.6466157"><ele>16.0</ele><time>2026-04-06T09:34:36Z</time></trkpt><trkpt lat="40.6451648" lon="14.6467484"><ele>16.0</ele><time>2026-04-06T09:34:37Z</time></trkpt><trkpt lat="40.6450424" lon="14.6468733"><ele>16.0</ele><time>2026-04-06T09:34:38Z</time></trkpt><trkpt lat="40.6449466" lon="14.6469892"><ele>16.0</ele><time>2026-04-06T09:34:39Z</time></trkpt><trkpt lat="40.6448864" lon="14.6471189"><ele>16.0</ele><time>2026-04-06T09:34:40Z</time></trkpt><trkpt lat="40.6448344" lon="14.6472446"><ele>23.4</ele><time>2026-04-06T09:34:41Z</time></trkpt><trkpt lat="40.6447853" lon="14.6473526"><ele>30.8</ele><time>2026-04-06T09:34:42Z</time></trkpt><trkpt lat="40.6447367" lon="14.6474552"><ele>38.199999999999996</ele><time>2026-04-06T09:34:43Z</time></trkpt><trkpt lat="40.6446881" lon="14.6475526"><ele>45.6</ele><time>2026-04-06T09:34:44Z</time></trkpt><trkpt lat="40.6446325" lon="14.6476526"><ele>53.0</ele><time>2026-04-06T09:34:44.999Z</time></trkpt><trkpt lat="40.6445724" lon="14.6477507"><ele>55.16666666666667</ele><time>2026-04-06T09:34:46Z</time></trkpt><trkpt lat="40.6445136" lon="14.6478369"><ele>57.333333333333336</ele><time>2026-04-06T09:34:47Z</time></trkpt><trkpt lat="40.6444597" lon="14.6479051"><ele>59.5</ele><time>2026-04-06T09:34:48Z</time></trkpt><trkpt lat="40.6444213" lon="14.6479718"><ele>61.66666666666667</ele><time>2026-04-06T09:34:49Z</time></trkpt><trkpt lat="40.6443654" lon="14.6480879"><ele>63.833333333333336</ele><time>2026-04-06T09:34:51Z</time></trkpt><trkpt lat="40.6443307" lon="14.6481855"><ele>66.0</ele><time>2026-04-06T09:34:54Z</time></trkpt><trkpt lat="40.6442872" lon="14.6482929"><ele>57.4</ele><time>2026-04-06T09:34:57Z</time></trkpt><trkpt lat="40.6442365" lon="14.648414"><ele>48.8</ele><time>2026-04-06T09:34:59Z</time></trkpt><trkpt lat="40.6441802" lon="14.6485383"><ele>40.199999999999996</ele><time>2026-04-06T09:35:01Z</time></trkpt><trkpt lat="40.6441117" lon="14.6486699"><ele>31.599999999999998</ele><time>2026-04-06T09:35:03Z</time></trkpt><trkpt lat="40.6440855" lon="14.6487485"><ele>23.0</ele><time>2026-04-06T09:35:04Z</time></trkpt><trkpt lat="40.6440802" lon="14.6489118"><ele>23.0</ele><time>2026-04-06T09:35:06Z</time></trkpt><trkpt lat="40.6440976" lon="14.6489958"><ele>23.0</ele><time>2026-04-06T09:35:07Z</time></trkpt><trkpt lat="40.6441485" lon="14.6491364"><ele>23.0</ele><time>2026-04-06T09:35:09Z</time></trkpt><trkpt lat="40.6442038" lon="14.6492362"><ele>23.0</ele><time>2026-04-06T09:35:11Z</time></trkpt><trkpt lat="40.6442674" lon="14.6493014"><ele>23.0</ele><time>2026-04-06T09:35:13Z</time></trkpt><trkpt lat="40.6443795" lon="14.6492967"><ele>28.2</ele><time>2026-04-06T09:35:15Z</time></trkpt><trkpt lat="40.6444702" lon="14.649264"><ele>33.4</ele><time>2026-04-06T09:35:16Z</time></trkpt><trkpt lat="40.6445854" lon="14.6492418"><ele>38.6</ele><time>2026-04-06T09:35:17Z</time></trkpt><trkpt lat="40.6446938" lon="14.6492716"><ele>43.800000000000004</ele><time>2026-04-06T09:35:18Z</time></trkpt><trkpt lat="40.6448118" lon="14.6493198"><ele>49.0</ele><time>2026-04-06T09:35:19Z</time></trkpt><trkpt lat="40.6449402" lon="14.6494271"><ele>44.0</ele><time>2026-04-06T09:35:20Z</time></trkpt><trkpt lat="40.6450625" lon="14.6494979"><ele>39.0</ele><time>2026-04-06T09:35:21Z</time></trkpt><trkpt lat="40.6451825" lon="14.6495291"><ele>34.0</ele><time>2026-04-06T09:35:22Z</time></trkpt><trkpt lat="40.6453017" lon="14.6495682"><ele>29.0</ele><time>2026-04-06T09:35:22.999Z</time></trkpt><trkpt lat="40.6454045" lon="14.6496634"><ele>37.2</ele><time>2026-04-06T09:35:24Z</time></trkpt><trkpt lat="40.6454936" lon="14.6497886"><ele>45.4</ele><time>2026-04-06T09:35:25Z</time></trkpt><trkpt lat="40.6455744" lon="14.6499002"><ele>53.6</ele><time>2026-04-06T09:35:26Z</time></trkpt><trkpt lat="40.6456374" lon="14.6500079"><ele>61.8</ele><time>2026-04-06T09:35:27Z</time></trkpt><trkpt lat="40.6456588" lon="14.6501098"><ele>70.0</ele><time>2026-04-06T09:35:28Z</time></trkpt><trkpt lat="40.6456442" lon="14.6502262"><ele>69.0</ele><time>2026-04-06T09:35:29Z</time></trkpt><trkpt lat="40.6456208" lon="14.6503615"><ele>68.0</ele><time>2026-04-06T09:35:30Z</time></trkpt><trkpt lat="40.6455505" lon="14.6505554"><ele>67.0</ele><time>2026-04-06T09:35:31Z</time></trkpt><trkpt lat="40.6455035" lon="14.6507075"><ele>66.0</ele><time>2026-04-06T09:35:32Z</time></trkpt><trkpt lat="40.6454605" lon="14.6508352"><ele>66.0</ele><time>2026-04-06T09:35:33Z</time></trkpt><trkpt lat="40.6454466" lon="14.6509629"><ele>66.0</ele><time>2026-04-06T09:35:34Z</time></trkpt><trkpt lat="40.645468" lon="14.6510784"><ele>66.0</ele><time>2026-04-06T09:35:35Z</time></trkpt><trkpt lat="40.6455357" lon="14.6511815"><ele>66.0</ele><time>2026-04-06T09:35:36Z</time></trkpt><trkpt lat="40.6456241" lon="14.6512678"><ele>66.0</ele><time>2026-04-06T09:35:37Z</time></trkpt><trkpt lat="40.6456985" lon="14.6513379"><ele>65.57142857142857</ele><time>2026-04-06T09:35:38Z</time></trkpt><trkpt lat="40.6457509" lon="14.6514134"><ele>65.14285714285714</ele><time>2026-04-06T09:35:39Z</time></trkpt><trkpt lat="40.6457756" lon="14.6514972"><ele>64.71428571428572</ele><time>2026-04-06T09:35:40Z</time></trkpt><trkpt lat="40.6457669" lon="14.6515881"><ele>64.28571428571428</ele><time>2026-04-06T09:35:41Z</time></trkpt><trkpt lat="40.6457327" lon="14.6516737"><ele>63.85714285714286</ele><time>2026-04-06T09:35:42Z</time></trkpt><trkpt lat="40.6456863" lon="14.6517469"><ele>63.42857142857143</ele><time>2026-04-06T09:35:43Z</time></trkpt><trkpt lat="40.64561" lon="14.6517938"><ele>63.0</ele><time>2026-04-06T09:35:44Z</time></trkpt><trkpt lat="40.6455091" lon="14.6517961"><ele>63.0</ele><time>2026-04-06T09:35:45Z</time></trkpt><trkpt lat="40.6453919" lon="14.6517727"><ele>63.0</ele><time>2026-04-06T09:35:46Z</time></trkpt><trkpt lat="40.6452419" lon="14.6517459"><ele>63.0</ele><time>2026-04-06T09:35:46.999Z</time></trkpt><trkpt lat="40.645119" lon="14.6517033"><ele>63.0</ele><time>2026-04-06T09:35:48Z</time></trkpt><trkpt lat="40.6450024" lon="14.6516318"><ele>63.75</ele><time>2026-04-06T09:35:48.999Z</time></trkpt><trkpt lat="40.6449007" lon="14.6515156"><ele>64.5</ele><time>2026-04-06T09:35:50Z</time></trkpt><trkpt lat="40.6448108" lon="14.6513696"><ele>65.25</ele><time>2026-04-06T09:35:51Z</time></trkpt><trkpt lat="40.6447324" lon="14.6512254"><ele>66.0</ele><time>2026-04-06T09:35:52Z</time></trkpt><trkpt lat="40.6446606" lon="14.6510965"><ele>60.8</ele><time>2026-04-06T09:35:53Z</time></trkpt><trkpt lat="40.6445992" lon="14.6509827"><ele>55.599999999999994</ele><time>2026-04-06T09:35:54Z</time></trkpt><trkpt lat="40.6445303" lon="14.6509149"><ele>50.4</ele><time>2026-04-06T09:35:55Z</time></trkpt><trkpt lat="40.644437" lon="14.6508869"><ele>45.2</ele><time>2026-04-06T09:35:56Z</time></trkpt><trkpt lat="40.6443366" lon="14.6509065"><ele>40.0</ele><time>2026-04-06T09:35:56.999Z</time></trkpt><trkpt lat="40.6442247" lon="14.6509861"><ele>40.0</ele><time>2026-04-06T09:35:58Z</time></trkpt><trkpt lat="40.6441057" lon="14.6510864"><ele>40.0</ele><time>2026-04-06T09:35:59Z</time></trkpt><trkpt lat="40.6439792" lon="14.651184"><ele>40.0</ele><time>2026-04-06T09:36:00Z</time></trkpt><trkpt lat="40.6438469" lon="14.6512556"><ele>40.0</ele><time>2026-04-06T09:36:01Z</time></trkpt><trkpt lat="40.6437079" lon="14.6512819"><ele>44.0</ele><time>2026-04-06T09:36:02Z</time></trkpt><trkpt lat="40.6435706" lon="14.6513034"><ele>48.0</ele><time>2026-04-06T09:36:03Z</time></trkpt><trkpt lat="40.6434599" lon="14.6513321"><ele>52.0</ele><time>2026-04-06T09:36:04Z</time></trkpt><trkpt lat="40.6433757" lon="14.6513769"><ele>56.0</ele><time>2026-04-06T09:36:04.999Z</time></trkpt><trkpt lat="40.6433253" lon="14.6514437"><ele>60.0</ele><time>2026-04-06T09:36:06Z</time></trkpt><trkpt lat="40.6433133" lon="14.6515287"><ele>60.0</ele><time>2026-04-06T09:36:07Z</time></trkpt><trkpt lat="40.6433299" lon="14.651649"><ele>60.0</ele><time>2026-04-06T09:36:08Z</time></trkpt><trkpt lat="40.643352" lon="14.6517898"><ele>60.0</ele><time>2026-04-06T09:36:09Z</time></trkpt><trkpt lat="40.6433482" lon="14.6519291"><ele>60.0</ele><time>2026-04-06T09:36:10Z</time></trkpt><trkpt lat="40.64332" lon="14.6520654"><ele>60.0</ele><time>2026-04-06T09:36:11Z</time></trkpt><trkpt lat="40.643264" lon="14.6521774"><ele>65.25</ele><time>2026-04-06T09:36:12Z</time></trkpt><trkpt lat="40.6431783" lon="14.6522765"><ele>70.5</ele><time>2026-04-06T09:36:13Z</time></trkpt><trkpt lat="40.6430896" lon="14.6523847"><ele>75.75</ele><time>2026-04-06T09:36:14Z</time></trkpt><trkpt lat="40.6430232" lon="14.6525201"><ele>81.0</ele><time>2026-04-06T09:36:14.999Z</time></trkpt><trkpt lat="40.6429533" lon="14.6526706"><ele>81.8</ele><time>2026-04-06T09:36:16Z</time></trkpt><trkpt lat="40.6428854" lon="14.6528178"><ele>82.6</ele><time>2026-04-06T09:36:17Z</time></trkpt><trkpt lat="40.6428273" lon="14.6529483"><ele>83.4</ele><time>2026-04-06T09:36:18Z</time></trkpt><trkpt lat="40.6427872" lon="14.6530739"><ele>84.2</ele><time>2026-04-06T09:36:19Z</time></trkpt><trkpt lat="40.6427824" lon="14.6531988"><ele>85.0</ele><time>2026-04-06T09:36:20Z</time></trkpt><trkpt lat="40.6428185" lon="14.653333"><ele>85.0</ele><time>2026-04-06T09:36:21Z</time></trkpt><trkpt lat="40.6428816" lon="14.6534852"><ele>85.0</ele><time>2026-04-06T09:36:22Z</time></trkpt><trkpt lat="40.6429659" lon="14.653644"><ele>85.0</ele><time>2026-04-06T09:36:23Z</time></trkpt><trkpt lat="40.643063" lon="14.653782"><ele>85.0</ele><time>2026-04-06T09:36:24Z</time></trkpt><trkpt lat="40.6431402" lon="14.653905"><ele>84.5</ele><time>2026-04-06T09:36:25Z</time></trkpt><trkpt lat="40.64317" lon="14.654033"><ele>84.0</ele><time>2026-04-06T09:36:26Z</time></trkpt><trkpt lat="40.643164" lon="14.6541661"><ele>83.5</ele><time>2026-04-06T09:36:27Z</time></trkpt><trkpt lat="40.6431529" lon="14.6543116"><ele>83.0</ele><time>2026-04-06T09:36:28Z</time></trkpt><trkpt lat="40.6430947" lon="14.6544813"><ele>86.2</ele><time>2026-04-06T09:36:29Z</time></trkpt><trkpt lat="40.6430622" lon="14.6546262"><ele>89.4</ele><time>2026-04-06T09:36:30Z</time></trkpt><trkpt lat="40.6429969" lon="14.6547425"><ele>92.60000000000001</ele><time>2026-04-06T09:36:31Z</time></trkpt><trkpt lat="40.6429686" lon="14.6548705"><ele>95.80000000000001</ele><time>2026-04-06T09:36:32Z</time></trkpt><trkpt lat="40.6429662" lon="14.6549978"><ele>99.0</ele><time>2026-04-06T09:36:33Z</time></trkpt><trkpt lat="40.6430304" lon="14.6551592"><ele>98.0</ele><time>2026-04-06T09:36:34Z</time></trkpt><trkpt lat="40.6430756" lon="14.6553112"><ele>97.0</ele><time>2026-04-06T09:36:35Z</time></trkpt><trkpt lat="40.6430885" lon="14.6554708"><ele>96.0</ele><time>2026-04-06T09:36:36Z</time></trkpt><trkpt lat="40.6430683" lon="14.6556259"><ele>95.0</ele><time>2026-04-06T09:36:37Z</time></trkpt><trkpt lat="40.6430576" lon="14.6557879"><ele>95.0</ele><time>2026-04-06T09:36:38Z</time></trkpt><trkpt lat="40.6430724" lon="14.6559265"><ele>95.0</ele><time>2026-04-06T09:36:39Z</time></trkpt><trkpt lat="40.6430712" lon="14.6560457"><ele>95.0</ele><time>2026-04-06T09:36:40Z</time></trkpt><trkpt lat="40.6430239" lon="14.6561458"><ele>95.0</ele><time>2026-04-06T09:36:41Z</time></trkpt><trkpt lat="40.6429575" lon="14.6561943"><ele>95.0</ele><time>2026-04-06T09:36:42Z</time></trkpt><trkpt lat="40.6428844" lon="14.6562191"><ele>95.0</ele><time>2026-04-06T09:36:43Z</time></trkpt><trkpt lat="40.6427962" lon="14.6562951"><ele>90.0</ele><time>2026-04-06T09:36:44Z</time></trkpt><trkpt lat="40.6427208" lon="14.6563876"><ele>85.0</ele><time>2026-04-06T09:36:45Z</time></trkpt><trkpt lat="40.6426837" lon="14.656489"><ele>80.0</ele><time>2026-04-06T09:36:46Z</time></trkpt><trkpt lat="40.6426899" lon="14.6565996"><ele>75.0</ele><time>2026-04-06T09:36:47Z</time></trkpt><trkpt lat="40.6426873" lon="14.6567093"><ele>70.0</ele><time>2026-04-06T09:36:47.999Z</time></trkpt><trkpt lat="40.6426364" lon="14.656825"><ele>74.0</ele><time>2026-04-06T09:36:49Z</time></trkpt><trkpt lat="40.6425739" lon="14.6569628"><ele>78.0</ele><time>2026-04-06T09:36:50Z</time></trkpt><trkpt lat="40.6425124" lon="14.6571095"><ele>82.0</ele><time>2026-04-06T09:36:51Z</time></trkpt><trkpt lat="40.6424775" lon="14.6572295"><ele>86.0</ele><time>2026-04-06T09:36:52Z</time></trkpt><trkpt lat="40.6424734" lon="14.6573699"><ele>86.0</ele><time>2026-04-06T09:36:53Z</time></trkpt><trkpt lat="40.6424841" lon="14.6575456"><ele>86.0</ele><time>2026-04-06T09:36:54Z</time></trkpt><trkpt lat="40.6425077" lon="14.6577323"><ele>86.0</ele><time>2026-04-06T09:36:55Z</time></trkpt><trkpt lat="40.642539" lon="14.6578927"><ele>86.0</ele><time>2026-04-06T09:36:56Z</time></trkpt><trkpt lat="40.642596" lon="14.6580446"><ele>85.0</ele><time>2026-04-06T09:36:57Z</time></trkpt><trkpt lat="40.642683" lon="14.6581872"><ele>84.0</ele><time>2026-04-06T09:36:58Z</time></trkpt><trkpt lat="40.6427643" lon="14.658316"><ele>83.0</ele><time>2026-04-06T09:36:59Z</time></trkpt><trkpt lat="40.6428233" lon="14.658436"><ele>82.0</ele><time>2026-04-06T09:37:00Z</time></trkpt><trkpt lat="40.6428461" lon="14.6585656"><ele>91.25</ele><time>2026-04-06T09:37:01Z</time></trkpt><trkpt lat="40.6428455" lon="14.6587127"><ele>100.5</ele><time>2026-04-06T09:37:02Z</time></trkpt><trkpt lat="40.6428637" lon="14.6588585"><ele>109.75</ele><time>2026-04-06T09:37:03Z</time></trkpt><trkpt lat="40.6429202" lon="14.6589852"><ele>119.0</ele><time>2026-04-06T09:37:04Z</time></trkpt><trkpt lat="40.6430022" lon="14.6590953"><ele>119.0</ele><time>2026-04-06T09:37:05Z</time></trkpt><trkpt lat="40.6431042" lon="14.6591603"><ele>119.0</ele><time>2026-04-06T09:37:06Z</time></trkpt><trkpt lat="40.6431792" lon="14.6592266"><ele>119.0</ele><time>2026-04-06T09:37:07Z</time></trkpt><trkpt lat="40.6432208" lon="14.6593055"><ele>119.0</ele><time>2026-04-06T09:37:08Z</time></trkpt><trkpt lat="40.6431942" lon="14.6594603"><ele>119.0</ele><time>2026-04-06T09:37:10Z</time></trkpt><trkpt lat="40.6431274" lon="14.6595124"><ele>121.25</ele><time>2026-04-06T09:37:11Z</time></trkpt><trkpt lat="40.643023" lon="14.6595485"><ele>123.5</ele><time>2026-04-06T09:37:12Z</time></trkpt><trkpt lat="40.6429238" lon="14.6595998"><ele>125.75</ele><time>2026-04-06T09:37:12.999Z</time></trkpt><trkpt lat="40.6428467" lon="14.6597052"><ele>128.0</ele><time>2026-04-06T09:37:14Z</time></trkpt><trkpt lat="40.6427615" lon="14.6598476"><ele>118.0</ele><time>2026-04-06T09:37:15Z</time></trkpt><trkpt lat="40.6426808" lon="14.6600045"><ele>108.0</ele><time>2026-04-06T09:37:16Z</time></trkpt><trkpt lat="40.6426267" lon="14.6601591"><ele>98.0</ele><time>2026-04-06T09:37:17Z</time></trkpt><trkpt lat="40.6425998" lon="14.6602969"><ele>88.0</ele><time>2026-04-06T09:37:18Z</time></trkpt><trkpt lat="40.6426038" lon="14.660418"><ele>86.4</ele><time>2026-04-06T09:37:19Z</time></trkpt><trkpt lat="40.6426427" lon="14.6605176"><ele>84.80000000000001</ele><time>2026-04-06T09:37:20Z</time></trkpt><trkpt lat="40.6427137" lon="14.6605885"><ele>83.2</ele><time>2026-04-06T09:37:21Z</time></trkpt><trkpt lat="40.642814" lon="14.6605996"><ele>81.6</ele><time>2026-04-06T09:37:22Z</time></trkpt><trkpt lat="40.6429122" lon="14.660623"><ele>80.0</ele><time>2026-04-06T09:37:23Z</time></trkpt><trkpt lat="40.6430341" lon="14.6606299"><ele>90.4</ele><time>2026-04-06T09:37:24Z</time></trkpt><trkpt lat="40.6431203" lon="14.660691"><ele>100.8</ele><time>2026-04-06T09:37:25Z</time></trkpt><trkpt lat="40.6431871" lon="14.6607848"><ele>111.19999999999999</ele><time>2026-04-06T09:37:25.999Z</time></trkpt><trkpt lat="40.6432204" lon="14.6608906"><ele>121.6</ele><time>2026-04-06T09:37:27Z</time></trkpt><trkpt lat="40.6432158" lon="14.6609964"><ele>132.0</ele><time>2026-04-06T09:37:28Z</time></trkpt><trkpt lat="40.6431751" lon="14.6610978"><ele>135.5</ele><time>2026-04-06T09:37:29Z</time></trkpt><trkpt lat="40.6430928" lon="14.6612286"><ele>139.0</ele><time>2026-04-06T09:37:30Z</time></trkpt><trkpt lat="40.6430031" lon="14.6614008"><ele>142.5</ele><time>2026-04-06T09:37:31Z</time></trkpt><trkpt lat="40.6429068" lon="14.6615703"><ele>146.0</ele><time>2026-04-06T09:37:32Z</time></trkpt><trkpt lat="40.6427877" lon="14.6616958"><ele>139.75</ele><time>2026-04-06T09:37:33Z</time></trkpt><trkpt lat="40.6426647" lon="14.6617916"><ele>133.5</ele><time>2026-04-06T09:37:34Z</time></trkpt><trkpt lat="40.6425578" lon="14.6618882"><ele>127.25</ele><time>2026-04-06T09:37:35Z</time></trkpt><trkpt lat="40.6424778" lon="14.6620036"><ele>121.0</ele><time>2026-04-06T09:37:36Z</time></trkpt><trkpt lat="40.6424508" lon="14.6621304"><ele>121.0</ele><time>2026-04-06T09:37:37Z</time></trkpt><trkpt lat="40.6424632" lon="14.6622702"><ele>121.0</ele><time>2026-04-06T09:37:38Z</time></trkpt><trkpt lat="40.6424817" lon="14.6624271"><ele>121.0</ele><time>2026-04-06T09:37:39Z</time></trkpt><trkpt lat="40.6424969" lon="14.6625912"><ele>121.0</ele><time>2026-04-06T09:37:40Z</time></trkpt><trkpt lat="40.6424817" lon="14.6627809"><ele>135.75</ele><time>2026-04-06T09:37:41Z</time></trkpt><trkpt lat="40.642409" lon="14.662974"><ele>150.5</ele><time>2026-04-06T09:37:42Z</time></trkpt><trkpt lat="40.6423323" lon="14.6631229"><ele>165.25</ele><time>2026-04-06T09:37:43Z</time></trkpt><trkpt lat="40.6422478" lon="14.6632532"><ele>180.0</ele><time>2026-04-06T09:37:44Z</time></trkpt><trkpt lat="40.6421456" lon="14.6633551"><ele>180.0</ele><time>2026-04-06T09:37:45Z</time></trkpt><trkpt lat="40.6420229" lon="14.66343"><ele>180.0</ele><time>2026-04-06T09:37:46Z</time></trkpt><trkpt lat="40.6419079" lon="14.6634983"><ele>180.0</ele><time>2026-04-06T09:37:47Z</time></trkpt><trkpt lat="40.6418171" lon="14.6635916"><ele>180.0</ele><time>2026-04-06T09:37:48Z</time></trkpt><trkpt lat="40.6417613" lon="14.663715"><ele>176.0</ele><time>2026-04-06T09:37:48.999Z</time></trkpt><trkpt lat="40.6416931" lon="14.6638446"><ele>172.0</ele><time>2026-04-06T09:37:50Z</time></trkpt><trkpt lat="40.6416239" lon="14.6639593"><ele>168.0</ele><time>2026-04-06T09:37:51Z</time></trkpt><trkpt lat="40.6415282" lon="14.6640252"><ele>164.0</ele><time>2026-04-06T09:37:52Z</time></trkpt><trkpt lat="40.6414206" lon="14.6640465"><ele>160.0</ele><time>2026-04-06T09:37:53Z</time></trkpt><trkpt lat="40.6413069" lon="14.6640569"><ele>160.0</ele><time>2026-04-06T09:37:54Z</time></trkpt><trkpt lat="40.6411844" lon="14.6640113"><ele>160.0</ele><time>2026-04-06T09:37:54.999Z</time></trkpt><trkpt lat="40.6410759" lon="14.6637958"><ele>160.0</ele><time>2026-04-06T09:37:56Z</time></trkpt><trkpt lat="40.6409754" lon="14.6637014"><ele>160.0</ele><time>2026-04-06T09:37:57Z</time></trkpt><trkpt lat="40.640872" lon="14.6636404"><ele>156.8</ele><time>2026-04-06T09:37:58Z</time></trkpt><trkpt lat="40.6407729" lon="14.6636057"><ele>153.6</ele><time>2026-04-06T09:37:59Z</time></trkpt><trkpt lat="40.6406804" lon="14.6635854"><ele>150.4</ele><time>2026-04-06T09:38:00Z</time></trkpt><trkpt lat="40.6405772" lon="14.6636008"><ele>147.2</ele><time>2026-04-06T09:38:01Z</time></trkpt><trkpt lat="40.640478" lon="14.6636758"><ele>144.0</ele><time>2026-04-06T09:38:02Z</time></trkpt><trkpt lat="40.6404046" lon="14.6637818"><ele>144.0</ele><time>2026-04-06T09:38:03Z</time></trkpt><trkpt lat="40.6403648" lon="14.6639183"><ele>144.0</ele><time>2026-04-06T09:38:04Z</time></trkpt><trkpt lat="40.6403786" lon="14.664101"><ele>144.0</ele><time>2026-04-06T09:38:05Z</time></trkpt><trkpt lat="40.6403985" lon="14.6643297"><ele>144.0</ele><time>2026-04-06T09:38:06Z</time></trkpt><trkpt lat="40.6403883" lon="14.6645853"><ele>146.66666666666666</ele><time>2026-04-06T09:38:07Z</time></trkpt><trkpt lat="40.6403533" lon="14.6648441"><ele>149.33333333333331</ele><time>2026-04-06T09:38:08Z</time></trkpt><trkpt lat="40.6403212" lon="14.6650615"><ele>152.0</ele><time>2026-04-06T09:38:09Z</time></trkpt><trkpt lat="40.6402999" lon="14.665279"><ele>147.79999999999998</ele><time>2026-04-06T09:38:10Z</time></trkpt><trkpt lat="40.6402998" lon="14.6654689"><ele>143.6</ele><time>2026-04-06T09:38:11Z</time></trkpt><trkpt lat="40.6403177" lon="14.6656215"><ele>139.39999999999998</ele><time>2026-04-06T09:38:12Z</time></trkpt><trkpt lat="40.6403566" lon="14.6657409"><ele>135.2</ele><time>2026-04-06T09:38:12.999Z</time></trkpt><trkpt lat="40.640424" lon="14.665813"><ele>131.0</ele><time>2026-04-06T09:38:14Z</time></trkpt><trkpt lat="40.6405283" lon="14.665842"><ele>131.0</ele><time>2026-04-06T09:38:15Z</time></trkpt><trkpt lat="40.6406643" lon="14.6658489"><ele>131.0</ele><time>2026-04-06T09:38:16Z</time></trkpt><trkpt lat="40.6407759" lon="14.665857"><ele>131.0</ele><time>2026-04-06T09:38:17Z</time></trkpt><trkpt lat="40.6408791" lon="14.6658105"><ele>131.0</ele><time>2026-04-06T09:38:18Z</time></trkpt><trkpt lat="40.640966" lon="14.6657078"><ele>131.0</ele><time>2026-04-06T09:38:19Z</time></trkpt><trkpt lat="40.6410524" lon="14.6656377"><ele>131.0</ele><time>2026-04-06T09:38:20Z</time></trkpt><trkpt lat="40.6411456" lon="14.6656088"><ele>131.0</ele><time>2026-04-06T09:38:21Z</time></trkpt><trkpt lat="40.6412556" lon="14.6656478"><ele>131.0</ele><time>2026-04-06T09:38:22Z</time></trkpt><trkpt lat="40.6413675" lon="14.6657019"><ele>131.0</ele><time>2026-04-06T09:38:22.999Z</time></trkpt><trkpt lat="40.641485" lon="14.665872"><ele>129.66666666666666</ele><time>2026-04-06T09:38:23.999Z</time></trkpt><trkpt lat="40.6416017" lon="14.6660451"><ele>128.33333333333334</ele><time>2026-04-06T09:38:24.999Z</time></trkpt><trkpt lat="40.6417275" lon="14.6662537"><ele>127.0</ele><time>2026-04-06T09:38:26Z</time></trkpt><trkpt lat="40.641849" lon="14.6664258"><ele>127.0</ele><time>2026-04-06T09:38:26.999Z</time></trkpt><trkpt lat="40.6419527" lon="14.6665996"><ele>127.0</ele><time>2026-04-06T09:38:28Z</time></trkpt><trkpt lat="40.6420494" lon="14.6667557"><ele>127.0</ele><time>2026-04-06T09:38:29Z</time></trkpt><trkpt lat="40.6421171" lon="14.6669092"><ele>135.25</ele><time>2026-04-06T09:38:30Z</time></trkpt><trkpt lat="40.6421381" lon="14.6670732"><ele>143.5</ele><time>2026-04-06T09:38:31Z</time></trkpt><trkpt lat="40.6421515" lon="14.6672505"><ele>151.75</ele><time>2026-04-06T09:38:32Z</time></trkpt><trkpt lat="40.6420772" lon="14.6674687"><ele>160.0</ele><time>2026-04-06T09:38:33Z</time></trkpt><trkpt lat="40.6420318" lon="14.6676672"><ele>160.2</ele><time>2026-04-06T09:38:34Z</time></trkpt><trkpt lat="40.641992" lon="14.6678401"><ele>160.4</ele><time>2026-04-06T09:38:35Z</time></trkpt><trkpt lat="40.6419587" lon="14.6679841"><ele>160.60000000000002</ele><time>2026-04-06T09:38:36Z</time></trkpt><trkpt lat="40.6419119" lon="14.6680938"><ele>160.8</ele><time>2026-04-06T09:38:37Z</time></trkpt><trkpt lat="40.6418485" lon="14.6681474"><ele>161.0</ele><time>2026-04-06T09:38:38Z</time></trkpt><trkpt lat="40.6417625" lon="14.6681354"><ele>161.5</ele><time>2026-04-06T09:38:39Z</time></trkpt><trkpt lat="40.6416554" lon="14.6680736"><ele>162.0</ele><time>2026-04-06T09:38:40Z</time></trkpt><trkpt lat="40.6415403" lon="14.6679505"><ele>162.5</ele><time>2026-04-06T09:38:41Z</time></trkpt><trkpt lat="40.641432" lon="14.6677885"><ele>163.0</ele><time>2026-04-06T09:38:42Z</time></trkpt><trkpt lat="40.6413328" lon="14.6676497"><ele>157.0</ele><time>2026-04-06T09:38:43Z</time></trkpt><trkpt lat="40.6412467" lon="14.6675184"><ele>151.0</ele><time>2026-04-06T09:38:44Z</time></trkpt><trkpt lat="40.6411815" lon="14.6674768"><ele>145.0</ele><time>2026-04-06T09:38:45Z</time></trkpt><trkpt lat="40.6410688" lon="14.6674552"><ele>139.0</ele><time>2026-04-06T09:38:46Z</time></trkpt><trkpt lat="40.6409447" lon="14.6674663"><ele>133.0</ele><time>2026-04-06T09:38:47Z</time></trkpt><trkpt lat="40.6408205" lon="14.6675325"><ele>133.0</ele><time>2026-04-06T09:38:48Z</time></trkpt><trkpt lat="40.6407019" lon="14.6676322"><ele>133.0</ele><time>2026-04-06T09:38:49Z</time></trkpt><trkpt lat="40.6405836" lon="14.6677094"><ele>133.0</ele><time>2026-04-06T09:38:50Z</time></trkpt><trkpt lat="40.6404704" lon="14.6677517"><ele>133.0</ele><time>2026-04-06T09:38:51Z</time></trkpt><trkpt lat="40.6403804" lon="14.6677771"><ele>137.6</ele><time>2026-04-06T09:38:52Z</time></trkpt><trkpt lat="40.6403097" lon="14.6677986"><ele>142.20000000000002</ele><time>2026-04-06T09:38:53Z</time></trkpt><trkpt lat="40.6402151" lon="14.6678479"><ele>146.8</ele><time>2026-04-06T09:38:55Z</time></trkpt><trkpt lat="40.6401401" lon="14.6679527"><ele>151.4</ele><time>2026-04-06T09:38:57Z</time></trkpt><trkpt lat="40.6400821" lon="14.6680612"><ele>156.0</ele><time>2026-04-06T09:38:58Z</time></trkpt><trkpt lat="40.6400031" lon="14.6681884"><ele>156.0</ele><time>2026-04-06T09:38:59Z</time></trkpt><trkpt lat="40.6399122" lon="14.6683025"><ele>156.0</ele><time>2026-04-06T09:39:00Z</time></trkpt><trkpt lat="40.6398045" lon="14.6683585"><ele>156.0</ele><time>2026-04-06T09:39:01Z</time></trkpt><trkpt lat="40.6397079" lon="14.6683915"><ele>156.0</ele><time>2026-04-06T09:39:02Z</time></trkpt><trkpt lat="40.6396238" lon="14.6684186"><ele>156.0</ele><time>2026-04-06T09:39:03Z</time></trkpt><trkpt lat="40.6395422" lon="14.6684422"><ele>155.66666666666666</ele><time>2026-04-06T09:39:04Z</time></trkpt><trkpt lat="40.6394648" lon="14.668458"><ele>155.33333333333334</ele><time>2026-04-06T09:39:05Z</time></trkpt><trkpt lat="40.639383" lon="14.6684637"><ele>155.0</ele><time>2026-04-06T09:39:06Z</time></trkpt><trkpt lat="40.6392964" lon="14.6684744"><ele>154.66666666666669</ele><time>2026-04-06T09:39:07Z</time></trkpt><trkpt lat="40.6392118" lon="14.6684925"><ele>154.33333333333334</ele><time>2026-04-06T09:39:08Z</time></trkpt><trkpt lat="40.6391362" lon="14.6685379"><ele>154.0</ele><time>2026-04-06T09:39:09Z</time></trkpt><trkpt lat="40.6390674" lon="14.6686156"><ele>154.0</ele><time>2026-04-06T09:39:10Z</time></trkpt><trkpt lat="40.6390153" lon="14.6687111"><ele>154.0</ele><time>2026-04-06T09:39:11Z</time></trkpt><trkpt lat="40.6389761" lon="14.6688238"><ele>154.0</ele><time>2026-04-06T09:39:12Z</time></trkpt><trkpt lat="40.638944" lon="14.6689369"><ele>154.0</ele><time>2026-04-06T09:39:13Z</time></trkpt><trkpt lat="40.6389087" lon="14.6690542"><ele>154.0</ele><time>2026-04-06T09:39:14Z</time></trkpt><trkpt lat="40.6388815" lon="14.6691699"><ele>154.0</ele><time>2026-04-06T09:39:15Z</time></trkpt><trkpt lat="40.6388679" lon="14.6692922"><ele>154.0</ele><time>2026-04-06T09:39:16Z</time></trkpt><trkpt lat="40.6388755" lon="14.6694358"><ele>154.0</ele><time>2026-04-06T09:39:17Z</time></trkpt><trkpt lat="40.6388982" lon="14.6695667"><ele>154.0</ele><time>2026-04-06T09:39:18Z</time></trkpt><trkpt lat="40.6389217" lon="14.669684"><ele>154.0</ele><time>2026-04-06T09:39:19Z</time></trkpt><trkpt lat="40.6389392" lon="14.6697875"><ele>154.0</ele><time>2026-04-06T09:39:20Z</time></trkpt><trkpt lat="40.6389599" lon="14.6698715"><ele>154.0</ele><time>2026-04-06T09:39:21Z</time></trkpt><trkpt lat="40.6389818" lon="14.6699604"><ele>154.0</ele><time>2026-04-06T09:39:24Z</time></trkpt><trkpt lat="40.6390422" lon="14.6700518"><ele>154.0</ele><time>2026-04-06T09:39:28Z</time></trkpt><trkpt lat="40.63912" lon="14.6701554"><ele>154.0</ele><time>2026-04-06T09:39:29.999Z</time></trkpt><trkpt lat="40.6391677" lon="14.6702224"><ele>154.0</ele><time>2026-04-06T09:39:31Z</time></trkpt><trkpt lat="40.6392131" lon="14.6702838"><ele>154.0</ele><time>2026-04-06T09:39:32Z</time></trkpt><trkpt lat="40.6392548" lon="14.6703501"><ele>154.0</ele><time>2026-04-06T09:39:33Z</time></trkpt><trkpt lat="40.6392989" lon="14.6705003"><ele>154.0</ele><time>2026-04-06T09:39:35Z</time></trkpt><trkpt lat="40.6392901" lon="14.6706022"><ele>154.0</ele><time>2026-04-06T09:39:36Z</time></trkpt><trkpt lat="40.6392769" lon="14.6707565"><ele>154.0</ele><time>2026-04-06T09:39:37Z</time></trkpt><trkpt lat="40.6392381" lon="14.6709475"><ele>158.0</ele><time>2026-04-06T09:39:38Z</time></trkpt><trkpt lat="40.6391862" lon="14.671151"><ele>162.0</ele><time>2026-04-06T09:39:39Z</time></trkpt><trkpt lat="40.6391391" lon="14.6713302"><ele>166.0</ele><time>2026-04-06T09:39:40Z</time></trkpt><trkpt lat="40.6391089" lon="14.6714912"><ele>170.0</ele><time>2026-04-06T09:39:41Z</time></trkpt><trkpt lat="40.6391016" lon="14.6716284"><ele>170.0</ele><time>2026-04-06T09:39:41.999Z</time></trkpt><trkpt lat="40.6391036" lon="14.6717543"><ele>170.0</ele><time>2026-04-06T09:39:43Z</time></trkpt><trkpt lat="40.6391056" lon="14.6718623"><ele>170.0</ele><time>2026-04-06T09:39:44Z</time></trkpt><trkpt lat="40.6390867" lon="14.6719504"><ele>170.0</ele><time>2026-04-06T09:39:45Z</time></trkpt><trkpt lat="40.6390428" lon="14.6720124"><ele>170.0</ele><time>2026-04-06T09:39:46Z</time></trkpt><trkpt lat="40.6389126" lon="14.6720408"><ele>170.0</ele><time>2026-04-06T09:39:48Z</time></trkpt><trkpt lat="40.6388287" lon="14.672029"><ele>173.16666666666666</ele><time>2026-04-06T09:39:49Z</time></trkpt><trkpt lat="40.6387438" lon="14.6720115"><ele>176.33333333333331</ele><time>2026-04-06T09:39:50Z</time></trkpt><trkpt lat="40.6386634" lon="14.6720055"><ele>179.5</ele><time>2026-04-06T09:39:51Z</time></trkpt><trkpt lat="40.6385876" lon="14.6720139"><ele>182.66666666666666</ele><time>2026-04-06T09:39:52Z</time></trkpt><trkpt lat="40.6385216" lon="14.6720596"><ele>185.83333333333334</ele><time>2026-04-06T09:39:53Z</time></trkpt><trkpt lat="40.6384731" lon="14.6721301"><ele>189.0</ele><time>2026-04-06T09:39:54Z</time></trkpt><trkpt lat="40.6384519" lon="14.672221"><ele>183.6</ele><time>2026-04-06T09:39:55Z</time></trkpt><trkpt lat="40.638449" lon="14.6723166"><ele>178.2</ele><time>2026-04-06T09:39:55.999Z</time></trkpt><trkpt lat="40.6384557" lon="14.6724166"><ele>172.79999999999998</ele><time>2026-04-06T09:39:57Z</time></trkpt><trkpt lat="40.6384739" lon="14.6725442"><ele>167.39999999999998</ele><time>2026-04-06T09:39:58Z</time></trkpt><trkpt lat="40.6384981" lon="14.6727277"><ele>162.0</ele><time>2026-04-06T09:39:59Z</time></trkpt><trkpt lat="40.6385059" lon="14.6729516"><ele>162.0</ele><time>2026-04-06T09:40:00Z</time></trkpt><trkpt lat="40.6384922" lon="14.6731512"><ele>162.0</ele><time>2026-04-06T09:40:01Z</time></trkpt><trkpt lat="40.6384822" lon="14.6733263"><ele>162.0</ele><time>2026-04-06T09:40:01.999Z</time></trkpt><trkpt lat="40.63846" lon="14.6734783"><ele>162.0</ele><time>2026-04-06T09:40:03Z</time></trkpt><trkpt lat="40.6384255" lon="14.6735953"><ele>162.0</ele><time>2026-04-06T09:40:04Z</time></trkpt><trkpt lat="40.6383255" lon="14.6736083"><ele>162.0</ele><time>2026-04-06T09:40:05Z</time></trkpt><trkpt lat="40.6381999" lon="14.6736077"><ele>162.0</ele><time>2026-04-06T09:40:06Z</time></trkpt><trkpt lat="40.6380476" lon="14.6735965"><ele>162.0</ele><time>2026-04-06T09:40:07Z</time></trkpt><trkpt lat="40.6379154" lon="14.6736103"><ele>164.75</ele><time>2026-04-06T09:40:08Z</time></trkpt><trkpt lat="40.6377799" lon="14.6736758"><ele>167.5</ele><time>2026-04-06T09:40:09Z</time></trkpt><trkpt lat="40.6376488" lon="14.6737825"><ele>170.25</ele><time>2026-04-06T09:40:10Z</time></trkpt><trkpt lat="40.6375181" lon="14.6738501"><ele>173.0</ele><time>2026-04-06T09:40:11Z</time></trkpt><trkpt lat="40.6373852" lon="14.6738681"><ele>173.0</ele><time>2026-04-06T09:40:12Z</time></trkpt><trkpt lat="40.6372759" lon="14.6738938"><ele>173.0</ele><time>2026-04-06T09:40:13Z</time></trkpt><trkpt lat="40.6371968" lon="14.6739602"><ele>173.0</ele><time>2026-04-06T09:40:13.999Z</time></trkpt><trkpt lat="40.6371506" lon="14.6740768"><ele>173.0</ele><time>2026-04-06T09:40:15Z</time></trkpt><trkpt lat="40.6371459" lon="14.6742469"><ele>173.0</ele><time>2026-04-06T09:40:15.999Z</time></trkpt><trkpt lat="40.6371551" lon="14.6744484"><ele>177.33333333333331</ele><time>2026-04-06T09:40:17Z</time></trkpt><trkpt lat="40.637207" lon="14.6746536"><ele>181.66666666666666</ele><time>2026-04-06T09:40:18Z</time></trkpt><trkpt lat="40.6372691" lon="14.6748502"><ele>186.0</ele><time>2026-04-06T09:40:19Z</time></trkpt><trkpt lat="40.6372988" lon="14.6750705"><ele>184.0</ele><time>2026-04-06T09:40:20Z</time></trkpt><trkpt lat="40.6373092" lon="14.6753306"><ele>182.0</ele><time>2026-04-06T09:40:21Z</time></trkpt><trkpt lat="40.6373234" lon="14.6755981"><ele>180.0</ele><time>2026-04-06T09:40:22Z</time></trkpt><trkpt lat="40.6373393" lon="14.6758331"><ele>180.0</ele><time>2026-04-06T09:40:23Z</time></trkpt><trkpt lat="40.6373424" lon="14.676056"><ele>180.0</ele><time>2026-04-06T09:40:24Z</time></trkpt><trkpt lat="40.6373342" lon="14.6762687"><ele>180.0</ele><time>2026-04-06T09:40:25Z</time></trkpt><trkpt lat="40.637338" lon="14.676464"><ele>180.75</ele><time>2026-04-06T09:40:26Z</time></trkpt><trkpt lat="40.6373396" lon="14.6766331"><ele>181.5</ele><time>2026-04-06T09:40:27Z</time></trkpt><trkpt lat="40.6373079" lon="14.6767748"><ele>182.25</ele><time>2026-04-06T09:40:28Z</time></trkpt><trkpt lat="40.6372276" lon="14.6768955"><ele>183.0</ele><time>2026-04-06T09:40:29Z</time></trkpt><trkpt lat="40.6371298" lon="14.6770154"><ele>187.8</ele><time>2026-04-06T09:40:30Z</time></trkpt><trkpt lat="40.6370486" lon="14.6771302"><ele>192.60000000000002</ele><time>2026-04-06T09:40:31Z</time></trkpt><trkpt lat="40.6369824" lon="14.6772459"><ele>197.39999999999998</ele><time>2026-04-06T09:40:32Z</time></trkpt><trkpt lat="40.6369216" lon="14.6773529"><ele>202.2</ele><time>2026-04-06T09:40:33Z</time></trkpt><trkpt lat="40.6368724" lon="14.6774492"><ele>207.0</ele><time>2026-04-06T09:40:34Z</time></trkpt><trkpt lat="40.6368277" lon="14.6775439"><ele>201.83333333333334</ele><time>2026-04-06T09:40:35Z</time></trkpt><trkpt lat="40.6367875" lon="14.6776442"><ele>196.66666666666666</ele><time>2026-04-06T09:40:36Z</time></trkpt><trkpt lat="40.6367722" lon="14.6777537"><ele>191.5</ele><time>2026-04-06T09:40:37Z</time></trkpt><trkpt lat="40.6367758" lon="14.6778652"><ele>186.33333333333331</ele><time>2026-04-06T09:40:38Z</time></trkpt><trkpt lat="40.6367882" lon="14.6779699"><ele>181.16666666666666</ele><time>2026-04-06T09:40:39Z</time></trkpt><trkpt lat="40.6368042" lon="14.6780684"><ele>176.0</ele><time>2026-04-06T09:40:40Z</time></trkpt><trkpt lat="40.6368183" lon="14.6781762"><ele>176.0</ele><time>2026-04-06T09:40:41Z</time></trkpt><trkpt lat="40.6368183" lon="14.6782841"><ele>176.0</ele><time>2026-04-06T09:40:42Z</time></trkpt><trkpt lat="40.6367948" lon="14.6783805"><ele>176.0</ele><time>2026-04-06T09:40:43Z</time></trkpt><trkpt lat="40.6367469" lon="14.6784599"><ele>176.0</ele><time>2026-04-06T09:40:44Z</time></trkpt><trkpt lat="40.6366806" lon="14.6785129"><ele>176.0</ele><time>2026-04-06T09:40:45Z</time></trkpt><trkpt lat="40.6366047" lon="14.6785435"><ele>176.0</ele><time>2026-04-06T09:40:46Z</time></trkpt><trkpt lat="40.6365231" lon="14.6785502"><ele>176.0</ele><time>2026-04-06T09:40:47Z</time></trkpt><trkpt lat="40.6364409" lon="14.6785411"><ele>176.0</ele><time>2026-04-06T09:40:48Z</time></trkpt><trkpt lat="40.6363204" lon="14.6785213"><ele>176.0</ele><time>2026-04-06T09:40:49Z</time></trkpt><trkpt lat="40.6361793" lon="14.6784573"><ele>176.0</ele><time>2026-04-06T09:40:50Z</time></trkpt><trkpt lat="40.6360485" lon="14.6783431"><ele>176.0</ele><time>2026-04-06T09:40:51Z</time></trkpt><trkpt lat="40.6359395" lon="14.6782383"><ele>176.0</ele><time>2026-04-06T09:40:52Z</time></trkpt><trkpt lat="40.6358312" lon="14.6781814"><ele>176.0</ele><time>2026-04-06T09:40:53Z</time></trkpt><trkpt lat="40.6357308" lon="14.678172"><ele>176.0</ele><time>2026-04-06T09:40:54Z</time></trkpt><trkpt lat="40.635629" lon="14.6782296"><ele>176.0</ele><time>2026-04-06T09:40:55Z</time></trkpt><trkpt lat="40.6355346" lon="14.678349"><ele>176.0</ele><time>2026-04-06T09:40:56Z</time></trkpt><trkpt lat="40.6354321" lon="14.6785059"><ele>176.0</ele><time>2026-04-06T09:40:57Z</time></trkpt><trkpt lat="40.6353049" lon="14.6786258"><ele>176.0</ele><time>2026-04-06T09:40:58Z</time></trkpt><trkpt lat="40.6351619" lon="14.6787104"><ele>174.5</ele><time>2026-04-06T09:40:59Z</time></trkpt><trkpt lat="40.6350213" lon="14.6787712"><ele>173.0</ele><time>2026-04-06T09:41:00Z</time></trkpt><trkpt lat="40.6348972" lon="14.6788606"><ele>171.5</ele><time>2026-04-06T09:41:01Z</time></trkpt><trkpt lat="40.6347931" lon="14.6789612"><ele>170.0</ele><time>2026-04-06T09:41:02Z</time></trkpt><trkpt lat="40.6347139" lon="14.6790744"><ele>170.0</ele><time>2026-04-06T09:41:03Z</time></trkpt><trkpt lat="40.634676" lon="14.6791952"><ele>170.0</ele><time>2026-04-06T09:41:04Z</time></trkpt><trkpt lat="40.6346821" lon="14.67932"><ele>170.0</ele><time>2026-04-06T09:41:05Z</time></trkpt><trkpt lat="40.6347382" lon="14.6794422"><ele>170.0</ele><time>2026-04-06T09:41:06Z</time></trkpt><trkpt lat="40.6348336" lon="14.679545"><ele>170.0</ele><time>2026-04-06T09:41:07Z</time></trkpt><trkpt lat="40.634958" lon="14.6796452"><ele>166.66666666666666</ele><time>2026-04-06T09:41:08Z</time></trkpt><trkpt lat="40.6350723" lon="14.6797823"><ele>163.33333333333334</ele><time>2026-04-06T09:41:09Z</time></trkpt><trkpt lat="40.6351596" lon="14.6799632"><ele>160.0</ele><time>2026-04-06T09:41:10Z</time></trkpt><trkpt lat="40.6352123" lon="14.680171"><ele>160.0</ele><time>2026-04-06T09:41:11Z</time></trkpt><trkpt lat="40.6352349" lon="14.6803859"><ele>160.0</ele><time>2026-04-06T09:41:12Z</time></trkpt><trkpt lat="40.6352244" lon="14.680598"><ele>160.0</ele><time>2026-04-06T09:41:13Z</time></trkpt><trkpt lat="40.6351755" lon="14.6808012"><ele>160.0</ele><time>2026-04-06T09:41:14Z</time></trkpt><trkpt lat="40.6350905" lon="14.680962"><ele>160.0</ele><time>2026-04-06T09:41:14.999Z</time></trkpt><trkpt lat="40.6349779" lon="14.6810854"><ele>160.0</ele><time>2026-04-06T09:41:15.999Z</time></trkpt><trkpt lat="40.6348688" lon="14.6812075"><ele>160.0</ele><time>2026-04-06T09:41:17Z</time></trkpt><trkpt lat="40.6347862" lon="14.6813371"><ele>163.0</ele><time>2026-04-06T09:41:18Z</time></trkpt><trkpt lat="40.6347394" lon="14.6814817"><ele>166.0</ele><time>2026-04-06T09:41:19Z</time></trkpt><trkpt lat="40.6347413" lon="14.6816457"><ele>169.0</ele><time>2026-04-06T09:41:20Z</time></trkpt><trkpt lat="40.6347878" lon="14.6818228"><ele>172.0</ele><time>2026-04-06T09:41:20.999Z</time></trkpt><trkpt lat="40.6348458" lon="14.6820167"><ele>172.0</ele><time>2026-04-06T09:41:22Z</time></trkpt><trkpt lat="40.6349099" lon="14.6822216"><ele>172.0</ele><time>2026-04-06T09:41:23Z</time></trkpt><trkpt lat="40.6349758" lon="14.6824309"><ele>172.0</ele><time>2026-04-06T09:41:24Z</time></trkpt><trkpt lat="40.6350451" lon="14.6826369"><ele>144.0</ele><time>2026-04-06T09:41:25Z</time></trkpt><trkpt lat="40.635255" lon="14.6833909"><ele>144.0</ele><time>2026-04-06T09:41:29Z</time></trkpt><trkpt lat="40.6352523" lon="14.6835586"><ele>144.0</ele><time>2026-04-06T09:41:30Z</time></trkpt><trkpt lat="40.6351974" lon="14.683718"><ele>144.0</ele><time>2026-04-06T09:41:31Z</time></trkpt><trkpt lat="40.6351027" lon="14.6838751"><ele>144.0</ele><time>2026-04-06T09:41:32Z</time></trkpt><trkpt lat="40.6349923" lon="14.6840328"><ele>150.0</ele><time>2026-04-06T09:41:33Z</time></trkpt><trkpt lat="40.6349044" lon="14.6841865"><ele>156.0</ele><time>2026-04-06T09:41:34Z</time></trkpt><trkpt lat="40.6348304" lon="14.6843268"><ele>162.0</ele><time>2026-04-06T09:41:35Z</time></trkpt><trkpt lat="40.6347907" lon="14.6844782"><ele>168.0</ele><time>2026-04-06T09:41:36Z</time></trkpt><trkpt lat="40.6347875" lon="14.6846239"><ele>169.5</ele><time>2026-04-06T09:41:37Z</time></trkpt><trkpt lat="40.6347911" lon="14.6847864"><ele>171.0</ele><time>2026-04-06T09:41:38Z</time></trkpt><trkpt lat="40.6347626" lon="14.6849647"><ele>172.5</ele><time>2026-04-06T09:41:39Z</time></trkpt><trkpt lat="40.6346922" lon="14.6851336"><ele>174.0</ele><time>2026-04-06T09:41:40Z</time></trkpt><trkpt lat="40.6346228" lon="14.6852932"><ele>174.0</ele><time>2026-04-06T09:41:41Z</time></trkpt><trkpt lat="40.6345804" lon="14.6854598"><ele>174.0</ele><time>2026-04-06T09:41:42Z</time></trkpt><trkpt lat="40.6345571" lon="14.6855965"><ele>174.0</ele><time>2026-04-06T09:41:43Z</time></trkpt><trkpt lat="40.6345737" lon="14.6857182"><ele>174.0</ele><time>2026-04-06T09:41:43.999Z</time></trkpt><trkpt lat="40.6346429" lon="14.6858368"><ele>174.0</ele><time>2026-04-06T09:41:45Z</time></trkpt><trkpt lat="40.6347156" lon="14.6859612"><ele>174.0</ele><time>2026-04-06T09:41:46Z</time></trkpt><trkpt lat="40.6347495" lon="14.6860945"><ele>174.0</ele><time>2026-04-06T09:41:47Z</time></trkpt><trkpt lat="40.6347398" lon="14.6862246"><ele>174.0</ele><time>2026-04-06T09:41:48Z</time></trkpt><trkpt lat="40.6346819" lon="14.6863567"><ele>174.0</ele><time>2026-04-06T09:41:49Z</time></trkpt><trkpt lat="40.6345828" lon="14.6864659"><ele>174.0</ele><time>2026-04-06T09:41:50Z</time></trkpt><trkpt lat="40.6344657" lon="14.6865357"><ele>174.0</ele><time>2026-04-06T09:41:51Z</time></trkpt><trkpt lat="40.6343583" lon="14.6866193"><ele>174.0</ele><time>2026-04-06T09:41:52Z</time></trkpt><trkpt lat="40.6342593" lon="14.6867464"><ele>174.0</ele><time>2026-04-06T09:41:53Z</time></trkpt><trkpt lat="40.6341867" lon="14.6869068"><ele>174.0</ele><time>2026-04-06T09:41:53.999Z</time></trkpt><trkpt lat="40.6341462" lon="14.6870886"><ele>174.0</ele><time>2026-04-06T09:41:55Z</time></trkpt><trkpt lat="40.6341436" lon="14.6872924"><ele>174.0</ele><time>2026-04-06T09:41:55.999Z</time></trkpt><trkpt lat="40.6341444" lon="14.6875046"><ele>174.0</ele><time>2026-04-06T09:41:57Z</time></trkpt><trkpt lat="40.6341196" lon="14.6876908"><ele>174.0</ele><time>2026-04-06T09:41:58Z</time></trkpt><trkpt lat="40.6340988" lon="14.6878532"><ele>174.0</ele><time>2026-04-06T09:41:59Z</time></trkpt><trkpt lat="40.6341207" lon="14.6880108"><ele>174.0</ele><time>2026-04-06T09:42:00Z</time></trkpt><trkpt lat="40.6341944" lon="14.6881522"><ele>164.33333333333334</ele><time>2026-04-06T09:42:01Z</time></trkpt><trkpt lat="40.6342935" lon="14.6883172"><ele>154.66666666666669</ele><time>2026-04-06T09:42:01.999Z</time></trkpt><trkpt lat="40.6343728" lon="14.6885179"><ele>145.0</ele><time>2026-04-06T09:42:03Z</time></trkpt><trkpt lat="40.6344748" lon="14.6887079"><ele>145.0</ele><time>2026-04-06T09:42:04Z</time></trkpt><trkpt lat="40.6346202" lon="14.6888694"><ele>145.0</ele><time>2026-04-06T09:42:05Z</time></trkpt><trkpt lat="40.634746" lon="14.6890365"><ele>145.0</ele><time>2026-04-06T09:42:06Z</time></trkpt><trkpt lat="40.6348601" lon="14.6892199"><ele>145.0</ele><time>2026-04-06T09:42:07Z</time></trkpt><trkpt lat="40.6349374" lon="14.689418"><ele>145.0</ele><time>2026-04-06T09:42:08Z</time></trkpt><trkpt lat="40.6349747" lon="14.6896278"><ele>145.0</ele><time>2026-04-06T09:42:09Z</time></trkpt><trkpt lat="40.634989" lon="14.6898258"><ele>140.66666666666669</ele><time>2026-04-06T09:42:10Z</time></trkpt><trkpt lat="40.6350144" lon="14.6900102"><ele>136.33333333333334</ele><time>2026-04-06T09:42:11Z</time></trkpt><trkpt lat="40.6350776" lon="14.6901902"><ele>132.0</ele><time>2026-04-06T09:42:12Z</time></trkpt><trkpt lat="40.6351592" lon="14.6903838"><ele>135.0</ele><time>2026-04-06T09:42:13Z</time></trkpt><trkpt lat="40.6352408" lon="14.6905844"><ele>138.0</ele><time>2026-04-06T09:42:14Z</time></trkpt><trkpt lat="40.6353078" lon="14.6907861"><ele>141.0</ele><time>2026-04-06T09:42:15Z</time></trkpt><trkpt lat="40.6353658" lon="14.6909711"><ele>130.5</ele><time>2026-04-06T09:42:16Z</time></trkpt><trkpt lat="40.6354212" lon="14.6911348"><ele>120.0</ele><time>2026-04-06T09:42:17Z</time></trkpt><trkpt lat="40.6354887" lon="14.691263"><ele>109.5</ele><time>2026-04-06T09:42:18Z</time></trkpt><trkpt lat="40.635589" lon="14.6913482"><ele>99.0</ele><time>2026-04-06T09:42:19Z</time></trkpt><trkpt lat="40.6357308" lon="14.6913965"><ele>99.0</ele><time>2026-04-06T09:42:20Z</time></trkpt><trkpt lat="40.6359058" lon="14.6914456"><ele>99.0</ele><time>2026-04-06T09:42:21Z</time></trkpt><trkpt lat="40.6360781" lon="14.6915264"><ele>99.0</ele><time>2026-04-06T09:42:22Z</time></trkpt><trkpt lat="40.6362328" lon="14.6915966"><ele>101.0</ele><time>2026-04-06T09:42:23Z</time></trkpt><trkpt lat="40.6363778" lon="14.6916513"><ele>103.0</ele><time>2026-04-06T09:42:24Z</time></trkpt><trkpt lat="40.6365172" lon="14.6916831"><ele>105.0</ele><time>2026-04-06T09:42:25Z</time></trkpt><trkpt lat="40.6366434" lon="14.6916764"><ele>107.0</ele><time>2026-04-06T09:42:25.999Z</time></trkpt><trkpt lat="40.6367571" lon="14.6916309"><ele>107.0</ele><time>2026-04-06T09:42:27Z</time></trkpt><trkpt lat="40.6368463" lon="14.6915334"><ele>107.0</ele><time>2026-04-06T09:42:28Z</time></trkpt><trkpt lat="40.6369024" lon="14.6913975"><ele>107.0</ele><time>2026-04-06T09:42:29Z</time></trkpt><trkpt lat="40.6369226" lon="14.6912331"><ele>107.0</ele><time>2026-04-06T09:42:30Z</time></trkpt><trkpt lat="40.6369468" lon="14.6910642"><ele>102.75</ele><time>2026-04-06T09:42:31Z</time></trkpt><trkpt lat="40.6370141" lon="14.690898"><ele>98.5</ele><time>2026-04-06T09:42:32Z</time></trkpt><trkpt lat="40.6370872" lon="14.6907333"><ele>94.25</ele><time>2026-04-06T09:42:32.999Z</time></trkpt><trkpt lat="40.6371475" lon="14.6905729"><ele>90.0</ele><time>2026-04-06T09:42:34Z</time></trkpt><trkpt lat="40.637201" lon="14.6904169"><ele>90.0</ele><time>2026-04-06T09:42:34.999Z</time></trkpt><trkpt lat="40.6372669" lon="14.6902808"><ele>90.0</ele><time>2026-04-06T09:42:36Z</time></trkpt><trkpt lat="40.6373442" lon="14.6901698"><ele>90.0</ele><time>2026-04-06T09:42:37Z</time></trkpt><trkpt lat="40.6374239" lon="14.6900837"><ele>90.0</ele><time>2026-04-06T09:42:38Z</time></trkpt><trkpt lat="40.6375019" lon="14.6900162"><ele>90.0</ele><time>2026-04-06T09:42:39Z</time></trkpt><trkpt lat="40.6375828" lon="14.6899804"><ele>91.5</ele><time>2026-04-06T09:42:40Z</time></trkpt><trkpt lat="40.6376772" lon="14.6899846"><ele>93.0</ele><time>2026-04-06T09:42:41Z</time></trkpt><trkpt lat="40.6377881" lon="14.6899956"><ele>94.5</ele><time>2026-04-06T09:42:42Z</time></trkpt><trkpt lat="40.637915" lon="14.6900316"><ele>96.0</ele><time>2026-04-06T09:42:43Z</time></trkpt><trkpt lat="40.6380318" lon="14.6900814"><ele>96.0</ele><time>2026-04-06T09:42:44Z</time></trkpt><trkpt lat="40.6381491" lon="14.6901118"><ele>96.0</ele><time>2026-04-06T09:42:45Z</time></trkpt><trkpt lat="40.6382576" lon="14.6901226"><ele>96.0</ele><time>2026-04-06T09:42:46Z</time></trkpt><trkpt lat="40.6383501" lon="14.6900994"><ele>96.0</ele><time>2026-04-06T09:42:47Z</time></trkpt><trkpt lat="40.6384321" lon="14.6900179"><ele>96.0</ele><time>2026-04-06T09:42:48Z</time></trkpt><trkpt lat="40.6385155" lon="14.6899018"><ele>96.0</ele><time>2026-04-06T09:42:49Z</time></trkpt><trkpt lat="40.6386227" lon="14.6897789"><ele>96.0</ele><time>2026-04-06T09:42:50Z</time></trkpt><trkpt lat="40.638738" lon="14.6896508"><ele>96.0</ele><time>2026-04-06T09:42:51Z</time></trkpt><trkpt lat="40.6388443" lon="14.6895342"><ele>96.0</ele><time>2026-04-06T09:42:52Z</time></trkpt><trkpt lat="40.6389494" lon="14.6894605"><ele>98.75</ele><time>2026-04-06T09:42:52.999Z</time></trkpt><trkpt lat="40.6390741" lon="14.6894291"><ele>101.5</ele><time>2026-04-06T09:42:54Z</time></trkpt><trkpt lat="40.6392094" lon="14.6894008"><ele>104.25</ele><time>2026-04-06T09:42:55Z</time></trkpt><trkpt lat="40.6393686" lon="14.6893418"><ele>107.0</ele><time>2026-04-06T09:42:55.999Z</time></trkpt><trkpt lat="40.6395242" lon="14.6892751"><ele>97.66666666666666</ele><time>2026-04-06T09:42:57Z</time></trkpt><trkpt lat="40.6396852" lon="14.6891029"><ele>88.33333333333333</ele><time>2026-04-06T09:42:58Z</time></trkpt><trkpt lat="40.6398509" lon="14.689003"><ele>79.0</ele><time>2026-04-06T09:42:59Z</time></trkpt><trkpt lat="40.6400096" lon="14.6889088"><ele>79.0</ele><time>2026-04-06T09:43:00Z</time></trkpt><trkpt lat="40.6401592" lon="14.6888482"><ele>79.0</ele><time>2026-04-06T09:43:01Z</time></trkpt><trkpt lat="40.6402879" lon="14.6888111"><ele>79.0</ele><time>2026-04-06T09:43:02Z</time></trkpt><trkpt lat="40.640384" lon="14.6887495"><ele>79.0</ele><time>2026-04-06T09:43:03Z</time></trkpt><trkpt lat="40.6404528" lon="14.6886402"><ele>80.80000000000001</ele><time>2026-04-06T09:43:04Z</time></trkpt><trkpt lat="40.640492" lon="14.6884947"><ele>82.60000000000001</ele><time>2026-04-06T09:43:05Z</time></trkpt><trkpt lat="40.6404917" lon="14.6883251"><ele>84.4</ele><time>2026-04-06T09:43:06Z</time></trkpt><trkpt lat="40.6405107" lon="14.6881967"><ele>86.2</ele><time>2026-04-06T09:43:07Z</time></trkpt><trkpt lat="40.6405289" lon="14.6880715"><ele>88.0</ele><time>2026-04-06T09:43:08Z</time></trkpt><trkpt lat="40.6406053" lon="14.6880712"><ele>88.0</ele><time>2026-04-06T09:43:09Z</time></trkpt><trkpt lat="40.6406903" lon="14.6880897"><ele>88.0</ele><time>2026-04-06T09:43:09.999Z</time></trkpt><trkpt lat="40.6408075" lon="14.6881193"><ele>88.0</ele><time>2026-04-06T09:43:11Z</time></trkpt><trkpt lat="40.6409345" lon="14.6881523"><ele>88.0</ele><time>2026-04-06T09:43:12Z</time></trkpt><trkpt lat="40.6410374" lon="14.6882163"><ele>88.0</ele><time>2026-04-06T09:43:13Z</time></trkpt><trkpt lat="40.6411245" lon="14.6883232"><ele>100.0</ele><time>2026-04-06T09:43:14Z</time></trkpt><trkpt lat="40.6411912" lon="14.6884521"><ele>112.0</ele><time>2026-04-06T09:43:15Z</time></trkpt><trkpt lat="40.641235" lon="14.6886087"><ele>124.0</ele><time>2026-04-06T09:43:16Z</time></trkpt><trkpt lat="40.6412484" lon="14.6887903"><ele>136.0</ele><time>2026-04-06T09:43:17Z</time></trkpt><trkpt lat="40.6412573" lon="14.688955"><ele>139.2</ele><time>2026-04-06T09:43:18Z</time></trkpt><trkpt lat="40.6412632" lon="14.6890882"><ele>142.39999999999998</ele><time>2026-04-06T09:43:19Z</time></trkpt><trkpt lat="40.6412416" lon="14.6892048"><ele>145.6</ele><time>2026-04-06T09:43:20Z</time></trkpt><trkpt lat="40.6411854" lon="14.6892921"><ele>148.79999999999998</ele><time>2026-04-06T09:43:21Z</time></trkpt><trkpt lat="40.6410939" lon="14.6893474"><ele>152.0</ele><time>2026-04-06T09:43:22Z</time></trkpt><trkpt lat="40.6409879" lon="14.6894254"><ele>132.33333333333331</ele><time>2026-04-06T09:43:23Z</time></trkpt><trkpt lat="40.6408796" lon="14.6895629"><ele>112.66666666666666</ele><time>2026-04-06T09:43:24Z</time></trkpt><trkpt lat="40.6407741" lon="14.6897278"><ele>93.0</ele><time>2026-04-06T09:43:24.999Z</time></trkpt><trkpt lat="40.6406743" lon="14.6899221"><ele>93.0</ele><time>2026-04-06T09:43:26Z</time></trkpt><trkpt lat="40.6405964" lon="14.6901034"><ele>93.0</ele><time>2026-04-06T09:43:27Z</time></trkpt><trkpt lat="40.6405456" lon="14.6902731"><ele>93.0</ele><time>2026-04-06T09:43:28Z</time></trkpt><trkpt lat="40.6405185" lon="14.690436"><ele>93.0</ele><time>2026-04-06T09:43:29Z</time></trkpt><trkpt lat="40.6404968" lon="14.6905718"><ele>87.0</ele><time>2026-04-06T09:43:29.999Z</time></trkpt><trkpt lat="40.6404515" lon="14.690674"><ele>81.0</ele><time>2026-04-06T09:43:31Z</time></trkpt><trkpt lat="40.6403602" lon="14.6907192"><ele>75.0</ele><time>2026-04-06T09:43:32Z</time></trkpt><trkpt lat="40.6402546" lon="14.6907407"><ele>69.0</ele><time>2026-04-06T09:43:33Z</time></trkpt><trkpt lat="40.6401601" lon="14.6908032"><ele>63.0</ele><time>2026-04-06T09:43:34Z</time></trkpt><trkpt lat="40.6400825" lon="14.6909164"><ele>63.0</ele><time>2026-04-06T09:43:35Z</time></trkpt><trkpt lat="40.6400355" lon="14.6910846"><ele>63.0</ele><time>2026-04-06T09:43:36Z</time></trkpt><trkpt lat="40.6399635" lon="14.6912643"><ele>63.0</ele><time>2026-04-06T09:43:37Z</time></trkpt><trkpt lat="40.6398764" lon="14.6914584"><ele>72.0</ele><time>2026-04-06T09:43:38Z</time></trkpt><trkpt lat="40.6398026" lon="14.6916552"><ele>81.0</ele><time>2026-04-06T09:43:39Z</time></trkpt><trkpt lat="40.6397308" lon="14.691849"><ele>90.0</ele><time>2026-04-06T09:43:39.999Z</time></trkpt><trkpt lat="40.6396978" lon="14.6920409"><ele>92.25</ele><time>2026-04-06T09:43:41Z</time></trkpt><trkpt lat="40.6396788" lon="14.6922202"><ele>94.5</ele><time>2026-04-06T09:43:41.999Z</time></trkpt><trkpt lat="40.6397015" lon="14.6923854"><ele>96.75</ele><time>2026-04-06T09:43:43Z</time></trkpt><trkpt lat="40.6397312" lon="14.6925422"><ele>99.0</ele><time>2026-04-06T09:43:44Z</time></trkpt><trkpt lat="40.6397376" lon="14.6926842"><ele>99.80000000000001</ele><time>2026-04-06T09:43:44.999Z</time></trkpt><trkpt lat="40.6397196" lon="14.692804"><ele>100.60000000000001</ele><time>2026-04-06T09:43:46Z</time></trkpt><trkpt lat="40.6396639" lon="14.6929061"><ele>101.4</ele><time>2026-04-06T09:43:47Z</time></trkpt><trkpt lat="40.6396061" lon="14.6930138"><ele>102.2</ele><time>2026-04-06T09:43:48Z</time></trkpt><trkpt lat="40.6395898" lon="14.6931339"><ele>103.0</ele><time>2026-04-06T09:43:49Z</time></trkpt><trkpt lat="40.6395837" lon="14.693242"><ele>103.0</ele><time>2026-04-06T09:43:50Z</time></trkpt><trkpt lat="40.6395708" lon="14.6933515"><ele>103.0</ele><time>2026-04-06T09:43:51Z</time></trkpt><trkpt lat="40.6395343" lon="14.6934877"><ele>103.0</ele><time>2026-04-06T09:43:52Z</time></trkpt><trkpt lat="40.6394792" lon="14.693647"><ele>103.0</ele><time>2026-04-06T09:43:53Z</time></trkpt><trkpt lat="40.6393334" lon="14.693866"><ele>91.66666666666667</ele><time>2026-04-06T09:43:54Z</time></trkpt><trkpt lat="40.6391953" lon="14.6940428"><ele>80.33333333333334</ele><time>2026-04-06T09:43:55Z</time></trkpt><trkpt lat="40.6390498" lon="14.6941851"><ele>69.0</ele><time>2026-04-06T09:43:56Z</time></trkpt><trkpt lat="40.6389104" lon="14.6943209"><ele>71.25</ele><time>2026-04-06T09:43:56.999Z</time></trkpt><trkpt lat="40.6387927" lon="14.6944453"><ele>73.5</ele><time>2026-04-06T09:43:58Z</time></trkpt><trkpt lat="40.6386887" lon="14.694565"><ele>75.75</ele><time>2026-04-06T09:43:59Z</time></trkpt><trkpt lat="40.6386173" lon="14.6946903"><ele>78.0</ele><time>2026-04-06T09:44:00Z</time></trkpt><trkpt lat="40.6385725" lon="14.6948116"><ele>78.0</ele><time>2026-04-06T09:44:01Z</time></trkpt><trkpt lat="40.6385622" lon="14.694935"><ele>78.0</ele><time>2026-04-06T09:44:02Z</time></trkpt><trkpt lat="40.638601" lon="14.6950493"><ele>78.0</ele><time>2026-04-06T09:44:03Z</time></trkpt><trkpt lat="40.6386784" lon="14.6951382"><ele>78.0</ele><time>2026-04-06T09:44:03.999Z</time></trkpt><trkpt lat="40.6387771" lon="14.6952379"><ele>78.0</ele><time>2026-04-06T09:44:04.999Z</time></trkpt><trkpt lat="40.6388712" lon="14.6953779"><ele>73.0</ele><time>2026-04-06T09:44:06Z</time></trkpt><trkpt lat="40.638954" lon="14.6955336"><ele>68.0</ele><time>2026-04-06T09:44:07Z</time></trkpt><trkpt lat="40.639019" lon="14.6956919"><ele>63.0</ele><time>2026-04-06T09:44:08Z</time></trkpt><trkpt lat="40.6390808" lon="14.695823"><ele>58.0</ele><time>2026-04-06T09:44:09Z</time></trkpt><trkpt lat="40.6391583" lon="14.6959115"><ele>58.0</ele><time>2026-04-06T09:44:10Z</time></trkpt><trkpt lat="40.6392496" lon="14.6959457"><ele>58.0</ele><time>2026-04-06T09:44:11Z</time></trkpt><trkpt lat="40.6393608" lon="14.6959058"><ele>58.0</ele><time>2026-04-06T09:44:12Z</time></trkpt><trkpt lat="40.6394921" lon="14.6958267"><ele>58.0</ele><time>2026-04-06T09:44:13Z</time></trkpt><trkpt lat="40.6396114" lon="14.6957339"><ele>56.25</ele><time>2026-04-06T09:44:14Z</time></trkpt><trkpt lat="40.6397188" lon="14.6956393"><ele>54.5</ele><time>2026-04-06T09:44:15Z</time></trkpt><trkpt lat="40.6398257" lon="14.6955382"><ele>52.75</ele><time>2026-04-06T09:44:16Z</time></trkpt><trkpt lat="40.6399421" lon="14.6954706"><ele>51.0</ele><time>2026-04-06T09:44:17Z</time></trkpt><trkpt lat="40.6400563" lon="14.6954165"><ele>51.0</ele><time>2026-04-06T09:44:18Z</time></trkpt><trkpt lat="40.6401541" lon="14.6953742"><ele>51.0</ele><time>2026-04-06T09:44:19Z</time></trkpt><trkpt lat="40.6402531" lon="14.6953399"><ele>51.0</ele><time>2026-04-06T09:44:20Z</time></trkpt><trkpt lat="40.6403505" lon="14.6953217"><ele>51.0</ele><time>2026-04-06T09:44:21Z</time></trkpt><trkpt lat="40.6404477" lon="14.6953079"><ele>51.0</ele><time>2026-04-06T09:44:22Z</time></trkpt><trkpt lat="40.6405387" lon="14.6953182"><ele>52.166666666666664</ele><time>2026-04-06T09:44:23Z</time></trkpt><trkpt lat="40.640624" lon="14.6953583"><ele>53.33333333333333</ele><time>2026-04-06T09:44:24Z</time></trkpt><trkpt lat="40.6406988" lon="14.6954223"><ele>54.5</ele><time>2026-04-06T09:44:25Z</time></trkpt><trkpt lat="40.6407589" lon="14.6955111"><ele>55.666666666666664</ele><time>2026-04-06T09:44:26Z</time></trkpt><trkpt lat="40.6408056" lon="14.6956033"><ele>56.83333333333333</ele><time>2026-04-06T09:44:27Z</time></trkpt><trkpt lat="40.640841" lon="14.6956863"><ele>58.0</ele><time>2026-04-06T09:44:28Z</time></trkpt><trkpt lat="40.640887" lon="14.6957445"><ele>58.0</ele><time>2026-04-06T09:44:28.999Z</time></trkpt><trkpt lat="40.6409898" lon="14.6958105"><ele>58.0</ele><time>2026-04-06T09:44:31Z</time></trkpt><trkpt lat="40.6410697" lon="14.695838"><ele>58.0</ele><time>2026-04-06T09:44:33Z</time></trkpt><trkpt lat="40.6411368" lon="14.6958987"><ele>58.0</ele><time>2026-04-06T09:44:35Z</time></trkpt><trkpt lat="40.6411691" lon="14.6960076"><ele>58.0</ele><time>2026-04-06T09:44:37Z</time></trkpt><trkpt lat="40.6411126" lon="14.696165"><ele>56.83333333333333</ele><time>2026-04-06T09:44:39Z</time></trkpt><trkpt lat="40.6410664" lon="14.6962451"><ele>55.666666666666664</ele><time>2026-04-06T09:44:40Z</time></trkpt><trkpt lat="40.6410143" lon="14.6963225"><ele>54.5</ele><time>2026-04-06T09:44:40.999Z</time></trkpt><trkpt lat="40.6409529" lon="14.6963943"><ele>53.33333333333333</ele><time>2026-04-06T09:44:42Z</time></trkpt><trkpt lat="40.6408826" lon="14.6964557"><ele>52.166666666666664</ele><time>2026-04-06T09:44:43Z</time></trkpt><trkpt lat="40.6408052" lon="14.6965011"><ele>51.0</ele><time>2026-04-06T09:44:44Z</time></trkpt><trkpt lat="40.6407312" lon="14.6965389"><ele>51.0</ele><time>2026-04-06T09:44:45Z</time></trkpt><trkpt lat="40.6406595" lon="14.6966045"><ele>51.0</ele><time>2026-04-06T09:44:46Z</time></trkpt><trkpt lat="40.6406034" lon="14.6967233"><ele>51.0</ele><time>2026-04-06T09:44:46.999Z</time></trkpt><trkpt lat="40.6405402" lon="14.6968909"><ele>51.0</ele><time>2026-04-06T09:44:48Z</time></trkpt><trkpt lat="40.6404633" lon="14.6970319"><ele>48.8</ele><time>2026-04-06T09:44:49Z</time></trkpt><trkpt lat="40.6403854" lon="14.6971479"><ele>46.599999999999994</ele><time>2026-04-06T09:44:50Z</time></trkpt><trkpt lat="40.640332" lon="14.6972471"><ele>44.4</ele><time>2026-04-06T09:44:51Z</time></trkpt><trkpt lat="40.6402996" lon="14.6973404"><ele>42.2</ele><time>2026-04-06T09:44:52Z</time></trkpt><trkpt lat="40.6403096" lon="14.6974841"><ele>40.0</ele><time>2026-04-06T09:44:54Z</time></trkpt><trkpt lat="40.6403745" lon="14.6975738"><ele>40.0</ele><time>2026-04-06T09:44:56Z</time></trkpt><trkpt lat="40.6404706" lon="14.6975957"><ele>40.0</ele><time>2026-04-06T09:44:58Z</time></trkpt><trkpt lat="40.6405359" lon="14.6975892"><ele>40.0</ele><time>2026-04-06T09:44:58.999Z</time></trkpt><trkpt lat="40.640608" lon="14.6975419"><ele>40.0</ele><time>2026-04-06T09:45:00Z</time></trkpt><trkpt lat="40.640731" lon="14.6974758"><ele>40.0</ele><time>2026-04-06T09:45:01Z</time></trkpt><trkpt lat="40.6408824" lon="14.6974106"><ele>40.0</ele><time>2026-04-06T09:45:01.999Z</time></trkpt><trkpt lat="40.6410418" lon="14.6973273"><ele>40.0</ele><time>2026-04-06T09:45:03Z</time></trkpt><trkpt lat="40.6411964" lon="14.697255"><ele>40.0</ele><time>2026-04-06T09:45:04Z</time></trkpt><trkpt lat="40.6413512" lon="14.6972119"><ele>40.0</ele><time>2026-04-06T09:45:05Z</time></trkpt><trkpt lat="40.6415056" lon="14.6972121"><ele>40.0</ele><time>2026-04-06T09:45:05.999Z</time></trkpt><trkpt lat="40.6416587" lon="14.6972259"><ele>40.0</ele><time>2026-04-06T09:45:07Z</time></trkpt><trkpt lat="40.6417973" lon="14.6972168"><ele>40.0</ele><time>2026-04-06T09:45:07.999Z</time></trkpt><trkpt lat="40.6419219" lon="14.6972084"><ele>43.0</ele><time>2026-04-06T09:45:09Z</time></trkpt><trkpt lat="40.6420261" lon="14.6972335"><ele>46.0</ele><time>2026-04-06T09:45:10Z</time></trkpt><trkpt lat="40.6421017" lon="14.697281"><ele>49.0</ele><time>2026-04-06T09:45:10.999Z</time></trkpt><trkpt lat="40.6421294" lon="14.6973587"><ele>52.0</ele><time>2026-04-06T09:45:12Z</time></trkpt><trkpt lat="40.642111" lon="14.6974523"><ele>54.99999999999999</ele><time>2026-04-06T09:45:13Z</time></trkpt><trkpt lat="40.6420767" lon="14.6975735"><ele>58.0</ele><time>2026-04-06T09:45:14Z</time></trkpt><trkpt lat="40.6420539" lon="14.6976983"><ele>51.4</ele><time>2026-04-06T09:45:15Z</time></trkpt><trkpt lat="40.6420595" lon="14.6978103"><ele>44.8</ele><time>2026-04-06T09:45:16Z</time></trkpt><trkpt lat="40.6421047" lon="14.6979018"><ele>38.2</ele><time>2026-04-06T09:45:17Z</time></trkpt><trkpt lat="40.6421886" lon="14.6979653"><ele>31.6</ele><time>2026-04-06T09:45:18Z</time></trkpt><trkpt lat="40.6423078" lon="14.6980173"><ele>25.0</ele><time>2026-04-06T09:45:19Z</time></trkpt><trkpt lat="40.6424414" lon="14.6980789"><ele>25.0</ele><time>2026-04-06T09:45:20Z</time></trkpt><trkpt lat="40.6425755" lon="14.6981394"><ele>25.0</ele><time>2026-04-06T09:45:21Z</time></trkpt><trkpt lat="40.64271" lon="14.6981846"><ele>25.0</ele><time>2026-04-06T09:45:22Z</time></trkpt><trkpt lat="40.6428489" lon="14.6982"><ele>25.0</ele><time>2026-04-06T09:45:23Z</time></trkpt><trkpt lat="40.6429919" lon="14.6981744"><ele>26.0</ele><time>2026-04-06T09:45:24Z</time></trkpt><trkpt lat="40.6431286" lon="14.6981075"><ele>27.0</ele><time>2026-04-06T09:45:25Z</time></trkpt><trkpt lat="40.6432502" lon="14.6980181"><ele>28.0</ele><time>2026-04-06T09:45:26Z</time></trkpt><trkpt lat="40.643359" lon="14.6979199"><ele>29.0</ele><time>2026-04-06T09:45:27Z</time></trkpt><trkpt lat="40.6434669" lon="14.6978451"><ele>29.0</ele><time>2026-04-06T09:45:28Z</time></trkpt><trkpt lat="40.6435691" lon="14.6977863"><ele>29.0</ele><time>2026-04-06T09:45:29Z</time></trkpt><trkpt lat="40.6436533" lon="14.6977389"><ele>29.0</ele><time>2026-04-06T09:45:30Z</time></trkpt><trkpt lat="40.643738" lon="14.6977408"><ele>29.0</ele><time>2026-04-06T09:45:31Z</time></trkpt><trkpt lat="40.6438216" lon="14.6977841"><ele>29.0</ele><time>2026-04-06T09:45:32Z</time></trkpt><trkpt lat="40.6438998" lon="14.6978888"><ele>32.5</ele><time>2026-04-06T09:45:33Z</time></trkpt><trkpt lat="40.6439923" lon="14.6979983"><ele>36.0</ele><time>2026-04-06T09:45:34Z</time></trkpt><trkpt lat="40.6440813" lon="14.6981443"><ele>39.5</ele><time>2026-04-06T09:45:35Z</time></trkpt><trkpt lat="40.6441784" lon="14.6982907"><ele>43.0</ele><time>2026-04-06T09:45:36Z</time></trkpt><trkpt lat="40.6442875" lon="14.6984539"><ele>49.333333333333336</ele><time>2026-04-06T09:45:37Z</time></trkpt><trkpt lat="40.644392" lon="14.6986332"><ele>55.66666666666667</ele><time>2026-04-06T09:45:38Z</time></trkpt><trkpt lat="40.644499" lon="14.6988281"><ele>62.0</ele><time>2026-04-06T09:45:39Z</time></trkpt><trkpt lat="40.6446032" lon="14.6990317"><ele>62.0</ele><time>2026-04-06T09:45:40Z</time></trkpt><trkpt lat="40.6447161" lon="14.6992409"><ele>62.0</ele><time>2026-04-06T09:45:41Z</time></trkpt><trkpt lat="40.6448196" lon="14.6994358"><ele>62.0</ele><time>2026-04-06T09:45:42Z</time></trkpt><trkpt lat="40.6449199" lon="14.6996234"><ele>52.0</ele><time>2026-04-06T09:45:43Z</time></trkpt><trkpt lat="40.6450089" lon="14.6998168"><ele>42.0</ele><time>2026-04-06T09:45:44Z</time></trkpt><trkpt lat="40.6450916" lon="14.7000215"><ele>32.0</ele><time>2026-04-06T09:45:45Z</time></trkpt><trkpt lat="40.6451618" lon="14.7002315"><ele>34.666666666666664</ele><time>2026-04-06T09:45:46Z</time></trkpt><trkpt lat="40.6452266" lon="14.7004325"><ele>37.333333333333336</ele><time>2026-04-06T09:45:47Z</time></trkpt><trkpt lat="40.6452867" lon="14.7006172"><ele>40.0</ele><time>2026-04-06T09:45:48Z</time></trkpt><trkpt lat="40.6453366" lon="14.7007813"><ele>40.0</ele><time>2026-04-06T09:45:49Z</time></trkpt><trkpt lat="40.6453937" lon="14.7009159"><ele>40.0</ele><time>2026-04-06T09:45:50Z</time></trkpt><trkpt lat="40.6454802" lon="14.701013"><ele>40.0</ele><time>2026-04-06T09:45:51Z</time></trkpt><trkpt lat="40.645597" lon="14.7010824"><ele>40.0</ele><time>2026-04-06T09:45:52Z</time></trkpt><trkpt lat="40.6456978" lon="14.7011525"><ele>33.6</ele><time>2026-04-06T09:45:53Z</time></trkpt><trkpt lat="40.645773" lon="14.7012551"><ele>27.2</ele><time>2026-04-06T09:45:54Z</time></trkpt><trkpt lat="40.6458343" lon="14.7013587"><ele>20.8</ele><time>2026-04-06T09:45:55Z</time></trkpt><trkpt lat="40.6459122" lon="14.7014282"><ele>14.4</ele><time>2026-04-06T09:45:56Z</time></trkpt><trkpt lat="40.6459937" lon="14.7014529"><ele>8.0</ele><time>2026-04-06T09:45:57Z</time></trkpt><trkpt lat="40.6460701" lon="14.7014392"><ele>8.4</ele><time>2026-04-06T09:45:58Z</time></trkpt><trkpt lat="40.6461309" lon="14.7013895"><ele>8.8</ele><time>2026-04-06T09:45:59Z</time></trkpt><trkpt lat="40.6461812" lon="14.7013118"><ele>9.2</ele><time>2026-04-06T09:46:00Z</time></trkpt><trkpt lat="40.6462355" lon="14.7012112"><ele>9.6</ele><time>2026-04-06T09:46:01Z</time></trkpt><trkpt lat="40.6462965" lon="14.701088"><ele>10.0</ele><time>2026-04-06T09:46:02Z</time></trkpt><trkpt lat="40.6463686" lon="14.7009638"><ele>14.25</ele><time>2026-04-06T09:46:03Z</time></trkpt><trkpt lat="40.6464596" lon="14.7008518"><ele>18.5</ele><time>2026-04-06T09:46:04Z</time></trkpt><trkpt lat="40.6465577" lon="14.700753"><ele>22.75</ele><time>2026-04-06T09:46:05Z</time></trkpt><trkpt lat="40.646659" lon="14.7006726"><ele>27.0</ele><time>2026-04-06T09:46:06Z</time></trkpt><trkpt lat="40.6467656" lon="14.7005917"><ele>27.0</ele><time>2026-04-06T09:46:06.999Z</time></trkpt><trkpt lat="40.6468771" lon="14.7005238"><ele>27.0</ele><time>2026-04-06T09:46:08Z</time></trkpt><trkpt lat="40.6469836" lon="14.7004531"><ele>27.0</ele><time>2026-04-06T09:46:09Z</time></trkpt><trkpt lat="40.6470924" lon="14.700403"><ele>27.0</ele><time>2026-04-06T09:46:09.999Z</time></trkpt><trkpt lat="40.6471876" lon="14.7003524"><ele>26.0</ele><time>2026-04-06T09:46:11Z</time></trkpt><trkpt lat="40.6472707" lon="14.7003228"><ele>25.0</ele><time>2026-04-06T09:46:12Z</time></trkpt><trkpt lat="40.6473517" lon="14.7003261"><ele>24.0</ele><time>2026-04-06T09:46:13Z</time></trkpt><trkpt lat="40.6474247" lon="14.7003429"><ele>23.0</ele><time>2026-04-06T09:46:14Z</time></trkpt><trkpt lat="40.6474885" lon="14.7003872"><ele>22.0</ele><time>2026-04-06T09:46:15Z</time></trkpt><trkpt lat="40.6475479" lon="14.700448"><ele>21.0</ele><time>2026-04-06T09:46:16Z</time></trkpt><trkpt lat="40.647601" lon="14.7005142"><ele>21.0</ele><time>2026-04-06T09:46:17Z</time></trkpt><trkpt lat="40.647653" lon="14.7005787"><ele>21.0</ele><time>2026-04-06T09:46:18Z</time></trkpt><trkpt lat="40.6476985" lon="14.7006403"><ele>21.0</ele><time>2026-04-06T09:46:19Z</time></trkpt><trkpt lat="40.6477521" lon="14.7007465"><ele>21.0</ele><time>2026-04-06T09:46:21Z</time></trkpt><trkpt lat="40.6477273" lon="14.7008613"><ele>21.0</ele><time>2026-04-06T09:46:23Z</time></trkpt><trkpt lat="40.6476557" lon="14.7010018"><ele>22.5</ele><time>2026-04-06T09:46:25Z</time></trkpt><trkpt lat="40.6476202" lon="14.7010942"><ele>24.0</ele><time>2026-04-06T09:46:26Z</time></trkpt><trkpt lat="40.6475853" lon="14.7012014"><ele>25.5</ele><time>2026-04-06T09:46:27Z</time></trkpt><trkpt lat="40.6475525" lon="14.7013178"><ele>27.0</ele><time>2026-04-06T09:46:28Z</time></trkpt><trkpt lat="40.6475187" lon="14.7014338"><ele>28.5</ele><time>2026-04-06T09:46:29Z</time></trkpt><trkpt lat="40.6474727" lon="14.7015378"><ele>30.0</ele><time>2026-04-06T09:46:30Z</time></trkpt><trkpt lat="40.6474218" lon="14.7016292"><ele>30.0</ele><time>2026-04-06T09:46:31Z</time></trkpt><trkpt lat="40.6473817" lon="14.7017259"><ele>30.0</ele><time>2026-04-06T09:46:32Z</time></trkpt><trkpt lat="40.647352" lon="14.7018189"><ele>30.0</ele><time>2026-04-06T09:46:33Z</time></trkpt><trkpt lat="40.6473427" lon="14.7019079"><ele>30.0</ele><time>2026-04-06T09:46:34Z</time></trkpt><trkpt lat="40.6473215" lon="14.7020105"><ele>30.0</ele><time>2026-04-06T09:46:35Z</time></trkpt><trkpt lat="40.6472988" lon="14.7021086"><ele>30.0</ele><time>2026-04-06T09:46:36Z</time></trkpt><trkpt lat="40.6472986" lon="14.7022122"><ele>30.166666666666668</ele><time>2026-04-06T09:46:37Z</time></trkpt><trkpt lat="40.6473018" lon="14.7023137"><ele>30.333333333333336</ele><time>2026-04-06T09:46:38Z</time></trkpt><trkpt lat="40.6472809" lon="14.7024095"><ele>30.5</ele><time>2026-04-06T09:46:39Z</time></trkpt><trkpt lat="40.6472517" lon="14.7025003"><ele>30.666666666666668</ele><time>2026-04-06T09:46:40Z</time></trkpt><trkpt lat="40.6472096" lon="14.7025823"><ele>30.833333333333336</ele><time>2026-04-06T09:46:41Z</time></trkpt><trkpt lat="40.6471717" lon="14.702676"><ele>31.0</ele><time>2026-04-06T09:46:42Z</time></trkpt><trkpt lat="40.6471359" lon="14.7027663"><ele>31.000000000000004</ele><time>2026-04-06T09:46:43Z</time></trkpt><trkpt lat="40.6471066" lon="14.7028578"><ele>31.0</ele><time>2026-04-06T09:46:44Z</time></trkpt><trkpt lat="40.6470928" lon="14.7029585"><ele>31.0</ele><time>2026-04-06T09:46:45Z</time></trkpt><trkpt lat="40.6470928" lon="14.7030645"><ele>31.0</ele><time>2026-04-06T09:46:46Z</time></trkpt><trkpt lat="40.6471004" lon="14.7031689"><ele>31.000000000000004</ele><time>2026-04-06T09:46:47Z</time></trkpt><trkpt lat="40.6471103" lon="14.7032647"><ele>31.0</ele><time>2026-04-06T09:46:48Z</time></trkpt><trkpt lat="40.6471291" lon="14.7033643"><ele>31.000000000000004</ele><time>2026-04-06T09:46:49Z</time></trkpt><trkpt lat="40.6471603" lon="14.7034584"><ele>31.0</ele><time>2026-04-06T09:46:50Z</time></trkpt><trkpt lat="40.6472066" lon="14.7035451"><ele>31.0</ele><time>2026-04-06T09:46:51Z</time></trkpt><trkpt lat="40.647264" lon="14.7036204"><ele>31.0</ele><time>2026-04-06T09:46:52Z</time></trkpt><trkpt lat="40.6473292" lon="14.7036856"><ele>31.000000000000004</ele><time>2026-04-06T09:46:52.999Z</time></trkpt><trkpt lat="40.6474007" lon="14.7037402"><ele>31.0</ele><time>2026-04-06T09:46:54Z</time></trkpt><trkpt lat="40.6474726" lon="14.7037792"><ele>29.142857142857146</ele><time>2026-04-06T09:46:55Z</time></trkpt><trkpt lat="40.6475434" lon="14.7038056"><ele>27.28571428571429</ele><time>2026-04-06T09:46:56Z</time></trkpt><trkpt lat="40.647616" lon="14.7038079"><ele>25.42857142857143</ele><time>2026-04-06T09:46:57Z</time></trkpt><trkpt lat="40.6476892" lon="14.7037917"><ele>23.571428571428573</ele><time>2026-04-06T09:46:58Z</time></trkpt><trkpt lat="40.6477566" lon="14.7037603"><ele>21.714285714285715</ele><time>2026-04-06T09:46:59Z</time></trkpt><trkpt lat="40.6478169" lon="14.703719"><ele>19.85714285714286</ele><time>2026-04-06T09:47:00Z</time></trkpt><trkpt lat="40.6478755" lon="14.7036611"><ele>18.0</ele><time>2026-04-06T09:47:01Z</time></trkpt><trkpt lat="40.6479368" lon="14.7035889"><ele>26.6</ele><time>2026-04-06T09:47:02Z</time></trkpt><trkpt lat="40.6479976" lon="14.7035176"><ele>35.2</ele><time>2026-04-06T09:47:03Z</time></trkpt><trkpt lat="40.6480831" lon="14.7034538"><ele>43.8</ele><time>2026-04-06T09:47:04Z</time></trkpt><trkpt lat="40.6481708" lon="14.7034084"><ele>52.4</ele><time>2026-04-06T09:47:05Z</time></trkpt><trkpt lat="40.6482652" lon="14.7033728"><ele>61.0</ele><time>2026-04-06T09:47:06Z</time></trkpt><trkpt lat="40.6483588" lon="14.7033468"><ele>61.0</ele><time>2026-04-06T09:47:07Z</time></trkpt><trkpt lat="40.648435" lon="14.7033313"><ele>60.99999999999999</ele><time>2026-04-06T09:47:08Z</time></trkpt><trkpt lat="40.6485465" lon="14.7033149"><ele>60.99999999999999</ele><time>2026-04-06T09:47:09.999Z</time></trkpt><trkpt lat="40.6486503" lon="14.7033254"><ele>61.0</ele><time>2026-04-06T09:47:12Z</time></trkpt><trkpt lat="40.6487457" lon="14.703399"><ele>61.0</ele><time>2026-04-06T09:47:14Z</time></trkpt><trkpt lat="40.6488154" lon="14.7035336"><ele>56.666666666666664</ele><time>2026-04-06T09:47:16Z</time></trkpt><trkpt lat="40.6488468" lon="14.7036253"><ele>52.33333333333333</ele><time>2026-04-06T09:47:17Z</time></trkpt><trkpt lat="40.6488721" lon="14.7037223"><ele>48.0</ele><time>2026-04-06T09:47:18Z</time></trkpt><trkpt lat="40.6489021" lon="14.7038105"><ele>43.666666666666664</ele><time>2026-04-06T09:47:19Z</time></trkpt><trkpt lat="40.6489358" lon="14.7039002"><ele>39.33333333333333</ele><time>2026-04-06T09:47:20Z</time></trkpt><trkpt lat="40.6489963" lon="14.7039897"><ele>35.0</ele><time>2026-04-06T09:47:21Z</time></trkpt><trkpt lat="40.6490803" lon="14.7040861"><ele>35.0</ele><time>2026-04-06T09:47:22Z</time></trkpt><trkpt lat="40.6491925" lon="14.7041801"><ele>35.0</ele><time>2026-04-06T09:47:23Z</time></trkpt><trkpt lat="40.6493243" lon="14.704248"><ele>35.0</ele><time>2026-04-06T09:47:24Z</time></trkpt><trkpt lat="40.6494694" lon="14.7042847"><ele>35.0</ele><time>2026-04-06T09:47:25Z</time></trkpt><trkpt lat="40.6496072" lon="14.7043348"><ele>40.75</ele><time>2026-04-06T09:47:26Z</time></trkpt><trkpt lat="40.649726" lon="14.7043942"><ele>46.5</ele><time>2026-04-06T09:47:27Z</time></trkpt><trkpt lat="40.6498464" lon="14.7044007"><ele>52.25</ele><time>2026-04-06T09:47:28Z</time></trkpt><trkpt lat="40.6499617" lon="14.7043607"><ele>58.0</ele><time>2026-04-06T09:47:29Z</time></trkpt><trkpt lat="40.6500783" lon="14.7042904"><ele>58.0</ele><time>2026-04-06T09:47:30Z</time></trkpt><trkpt lat="40.6502006" lon="14.7042241"><ele>58.0</ele><time>2026-04-06T09:47:31Z</time></trkpt><trkpt lat="40.6503147" lon="14.7041746"><ele>58.0</ele><time>2026-04-06T09:47:32Z</time></trkpt><trkpt lat="40.6504241" lon="14.7041234"><ele>58.0</ele><time>2026-04-06T09:47:33Z</time></trkpt><trkpt lat="40.6505183" lon="14.7040908"><ele>55.99999999999999</ele><time>2026-04-06T09:47:34Z</time></trkpt><trkpt lat="40.6506034" lon="14.7040957"><ele>54.0</ele><time>2026-04-06T09:47:35Z</time></trkpt><trkpt lat="40.6506695" lon="14.7041342"><ele>52.0</ele><time>2026-04-06T09:47:36Z</time></trkpt><trkpt lat="40.6507001" lon="14.7042091"><ele>50.0</ele><time>2026-04-06T09:47:37Z</time></trkpt><trkpt lat="40.6506978" lon="14.7043064"><ele>48.0</ele><time>2026-04-06T09:47:38Z</time></trkpt><trkpt lat="40.650665" lon="14.7044119"><ele>46.0</ele><time>2026-04-06T09:47:39Z</time></trkpt><trkpt lat="40.650643" lon="14.704509"><ele>46.0</ele><time>2026-04-06T09:47:40Z</time></trkpt><trkpt lat="40.6506319" lon="14.7046137"><ele>46.0</ele><time>2026-04-06T09:47:41Z</time></trkpt><trkpt lat="40.6506882" lon="14.7047138"><ele>46.0</ele><time>2026-04-06T09:47:42Z</time></trkpt><trkpt lat="40.6507669" lon="14.7048055"><ele>46.0</ele><time>2026-04-06T09:47:43Z</time></trkpt><trkpt lat="40.6508797" lon="14.7048883"><ele>46.0</ele><time>2026-04-06T09:47:44Z</time></trkpt><trkpt lat="40.6509999" lon="14.7049711"><ele>58.25</ele><time>2026-04-06T09:47:45Z</time></trkpt><trkpt lat="40.6511257" lon="14.7050477"><ele>70.5</ele><time>2026-04-06T09:47:46Z</time></trkpt><trkpt lat="40.6512641" lon="14.70511"><ele>82.75</ele><time>2026-04-06T09:47:47Z</time></trkpt><trkpt lat="40.6513855" lon="14.705133"><ele>95.0</ele><time>2026-04-06T09:47:48Z</time></trkpt><trkpt lat="40.6514624" lon="14.7051448"><ele>95.0</ele><time>2026-04-06T09:47:48.999Z</time></trkpt><trkpt lat="40.6515558" lon="14.7052178"><ele>95.0</ele><time>2026-04-06T09:47:50Z</time></trkpt><trkpt lat="40.6515349" lon="14.7054464"><ele>95.0</ele><time>2026-04-06T09:47:52Z</time></trkpt><trkpt lat="40.6515532" lon="14.7055755"><ele>95.0</ele><time>2026-04-06T09:47:53Z</time></trkpt><trkpt lat="40.6516075" lon="14.7057044"><ele>93.33333333333334</ele><time>2026-04-06T09:47:54Z</time></trkpt><trkpt lat="40.6516653" lon="14.7058057"><ele>91.66666666666667</ele><time>2026-04-06T09:47:55Z</time></trkpt><trkpt lat="40.6517326" lon="14.7058946"><ele>90.0</ele><time>2026-04-06T09:47:56Z</time></trkpt><trkpt lat="40.6518018" lon="14.7059548"><ele>88.33333333333333</ele><time>2026-04-06T09:47:57Z</time></trkpt><trkpt lat="40.6518838" lon="14.7059913"><ele>86.66666666666666</ele><time>2026-04-06T09:47:58Z</time></trkpt><trkpt lat="40.6519615" lon="14.7060036"><ele>85.0</ele><time>2026-04-06T09:47:59Z</time></trkpt><trkpt lat="40.6520335" lon="14.7059992"><ele>85.0</ele><time>2026-04-06T09:48:00Z</time></trkpt><trkpt lat="40.6521041" lon="14.7059886"><ele>85.0</ele><time>2026-04-06T09:48:01Z</time></trkpt><trkpt lat="40.6521715" lon="14.7060057"><ele>85.0</ele><time>2026-04-06T09:48:02Z</time></trkpt><trkpt lat="40.6522403" lon="14.7060434"><ele>85.0</ele><time>2026-04-06T09:48:03Z</time></trkpt><trkpt lat="40.6523127" lon="14.7060885"><ele>85.0</ele><time>2026-04-06T09:48:04Z</time></trkpt><trkpt lat="40.6523918" lon="14.7061178"><ele>85.0</ele><time>2026-04-06T09:48:04.999Z</time></trkpt><trkpt lat="40.6524701" lon="14.7061413"><ele>83.83333333333333</ele><time>2026-04-06T09:48:06Z</time></trkpt><trkpt lat="40.6525436" lon="14.7061631"><ele>82.66666666666666</ele><time>2026-04-06T09:48:06.999Z</time></trkpt><trkpt lat="40.6526166" lon="14.7061948"><ele>81.5</ele><time>2026-04-06T09:48:08Z</time></trkpt><trkpt lat="40.6526791" lon="14.706258"><ele>80.33333333333333</ele><time>2026-04-06T09:48:09Z</time></trkpt><trkpt lat="40.6527273" lon="14.706345"><ele>79.16666666666667</ele><time>2026-04-06T09:48:10Z</time></trkpt><trkpt lat="40.652786" lon="14.706432"><ele>78.0</ele><time>2026-04-06T09:48:11Z</time></trkpt><trkpt lat="40.6528524" lon="14.7065231"><ele>78.0</ele><time>2026-04-06T09:48:12Z</time></trkpt><trkpt lat="40.6529192" lon="14.7066097"><ele>78.0</ele><time>2026-04-06T09:48:13Z</time></trkpt><trkpt lat="40.6529742" lon="14.706694"><ele>78.0</ele><time>2026-04-06T09:48:14Z</time></trkpt><trkpt lat="40.6530232" lon="14.7067778"><ele>78.0</ele><time>2026-04-06T09:48:15Z</time></trkpt><trkpt lat="40.6530791" lon="14.7068567"><ele>78.0</ele><time>2026-04-06T09:48:15.999Z</time></trkpt><trkpt lat="40.6531356" lon="14.7069314"><ele>78.0</ele><time>2026-04-06T09:48:17Z</time></trkpt><trkpt lat="40.6532316" lon="14.7069509"><ele>76.33333333333333</ele><time>2026-04-06T09:48:18Z</time></trkpt><trkpt lat="40.6533165" lon="14.7069674"><ele>74.66666666666667</ele><time>2026-04-06T09:48:19Z</time></trkpt><trkpt lat="40.6534073" lon="14.7069817"><ele>73.0</ele><time>2026-04-06T09:48:20Z</time></trkpt><trkpt lat="40.6534981" lon="14.7069932"><ele>71.33333333333334</ele><time>2026-04-06T09:48:21Z</time></trkpt><trkpt lat="40.6535825" lon="14.70701"><ele>69.66666666666667</ele><time>2026-04-06T09:48:22Z</time></trkpt><trkpt lat="40.6536538" lon="14.7070221"><ele>68.0</ele><time>2026-04-06T09:48:23Z</time></trkpt><trkpt lat="40.6537614" lon="14.707036"><ele>68.0</ele><time>2026-04-06T09:48:25Z</time></trkpt><trkpt lat="40.6538345" lon="14.7071173"><ele>68.0</ele><time>2026-04-06T09:48:27Z</time></trkpt><trkpt lat="40.6538492" lon="14.7072691"><ele>68.0</ele><time>2026-04-06T09:48:29Z</time></trkpt><trkpt lat="40.6538708" lon="14.7073626"><ele>68.0</ele><time>2026-04-06T09:48:30Z</time></trkpt><trkpt lat="40.6539074" lon="14.7074644"><ele>68.0</ele><time>2026-04-06T09:48:31Z</time></trkpt><trkpt lat="40.6539538" lon="14.7075615"><ele>68.0</ele><time>2026-04-06T09:48:32Z</time></trkpt><trkpt lat="40.6540078" lon="14.7076574"><ele>68.0</ele><time>2026-04-06T09:48:33Z</time></trkpt><trkpt lat="40.654087" lon="14.7077315"><ele>68.0</ele><time>2026-04-06T09:48:34Z</time></trkpt><trkpt lat="40.6541708" lon="14.707785"><ele>68.0</ele><time>2026-04-06T09:48:35Z</time></trkpt><trkpt lat="40.654271" lon="14.7078042"><ele>68.0</ele><time>2026-04-06T09:48:36Z</time></trkpt><trkpt lat="40.6543629" lon="14.7078377"><ele>66.16666666666667</ele><time>2026-04-06T09:48:37Z</time></trkpt><trkpt lat="40.6544508" lon="14.70788"><ele>64.33333333333334</ele><time>2026-04-06T09:48:38Z</time></trkpt><trkpt lat="40.6545301" lon="14.7079267"><ele>62.5</ele><time>2026-04-06T09:48:38.999Z</time></trkpt><trkpt lat="40.6546004" lon="14.7079835"><ele>60.66666666666667</ele><time>2026-04-06T09:48:40Z</time></trkpt><trkpt lat="40.6546712" lon="14.7080307"><ele>58.833333333333336</ele><time>2026-04-06T09:48:41Z</time></trkpt><trkpt lat="40.6547523" lon="14.7080617"><ele>57.0</ele><time>2026-04-06T09:48:42Z</time></trkpt><trkpt lat="40.6548339" lon="14.7080717"><ele>57.0</ele><time>2026-04-06T09:48:43Z</time></trkpt><trkpt lat="40.6549162" lon="14.7080838"><ele>57.0</ele><time>2026-04-06T09:48:44Z</time></trkpt><trkpt lat="40.6549876" lon="14.7081217"><ele>57.0</ele><time>2026-04-06T09:48:45Z</time></trkpt><trkpt lat="40.655055" lon="14.7081787"><ele>57.0</ele><time>2026-04-06T09:48:46Z</time></trkpt><trkpt lat="40.6551403" lon="14.7082322"><ele>57.0</ele><time>2026-04-06T09:48:47Z</time></trkpt><trkpt lat="40.6552375" lon="14.7082629"><ele>57.0</ele><time>2026-04-06T09:48:48Z</time></trkpt><trkpt lat="40.6553305" lon="14.7082973"><ele>59.333333333333336</ele><time>2026-04-06T09:48:48.999Z</time></trkpt><trkpt lat="40.6554277" lon="14.7082967"><ele>61.66666666666667</ele><time>2026-04-06T09:48:50Z</time></trkpt><trkpt lat="40.6555152" lon="14.7083261"><ele>64.0</ele><time>2026-04-06T09:48:51Z</time></trkpt><trkpt lat="40.6556015" lon="14.7083473"><ele>66.33333333333334</ele><time>2026-04-06T09:48:52Z</time></trkpt><trkpt lat="40.6556826" lon="14.7083602"><ele>68.66666666666667</ele><time>2026-04-06T09:48:53Z</time></trkpt><trkpt lat="40.6557618" lon="14.708366"><ele>71.0</ele><time>2026-04-06T09:48:54Z</time></trkpt><trkpt lat="40.6558357" lon="14.7083386"><ele>71.0</ele><time>2026-04-06T09:48:55Z</time></trkpt><trkpt lat="40.6559123" lon="14.7083003"><ele>71.0</ele><time>2026-04-06T09:48:56Z</time></trkpt><trkpt lat="40.6559892" lon="14.7082608"><ele>71.0</ele><time>2026-04-06T09:48:57Z</time></trkpt><trkpt lat="40.6560642" lon="14.7082402"><ele>71.0</ele><time>2026-04-06T09:48:58Z</time></trkpt><trkpt lat="40.6561377" lon="14.708243"><ele>71.0</ele><time>2026-04-06T09:48:59Z</time></trkpt><trkpt lat="40.6562054" lon="14.7082848"><ele>71.0</ele><time>2026-04-06T09:49:00Z</time></trkpt><trkpt lat="40.6562578" lon="14.7083614"><ele>68.66666666666667</ele><time>2026-04-06T09:49:01Z</time></trkpt><trkpt lat="40.6562828" lon="14.7084526"><ele>66.33333333333334</ele><time>2026-04-06T09:49:02Z</time></trkpt><trkpt lat="40.656302" lon="14.7085532"><ele>64.0</ele><time>2026-04-06T09:49:03Z</time></trkpt><trkpt lat="40.6563288" lon="14.7086519"><ele>61.66666666666667</ele><time>2026-04-06T09:49:04Z</time></trkpt><trkpt lat="40.6563767" lon="14.7087412"><ele>59.333333333333336</ele><time>2026-04-06T09:49:05Z</time></trkpt><trkpt lat="40.6564488" lon="14.708815"><ele>57.0</ele><time>2026-04-06T09:49:06Z</time></trkpt><trkpt lat="40.6565381" lon="14.7088743"><ele>57.0</ele><time>2026-04-06T09:49:07Z</time></trkpt><trkpt lat="40.6566188" lon="14.7089293"><ele>57.0</ele><time>2026-04-06T09:49:08Z</time></trkpt><trkpt lat="40.6567022" lon="14.7089827"><ele>57.0</ele><time>2026-04-06T09:49:09Z</time></trkpt><trkpt lat="40.6567858" lon="14.7090249"><ele>57.0</ele><time>2026-04-06T09:49:10Z</time></trkpt><trkpt lat="40.6568753" lon="14.7090609"><ele>57.0</ele><time>2026-04-06T09:49:11Z</time></trkpt><trkpt lat="40.65697" lon="14.7090949"><ele>58.166666666666664</ele><time>2026-04-06T09:49:12Z</time></trkpt><trkpt lat="40.6570616" lon="14.709148"><ele>59.33333333333333</ele><time>2026-04-06T09:49:13Z</time></trkpt><trkpt lat="40.6571369" lon="14.7092153"><ele>60.5</ele><time>2026-04-06T09:49:14Z</time></trkpt><trkpt lat="40.6571998" lon="14.7092868"><ele>61.666666666666664</ele><time>2026-04-06T09:49:15Z</time></trkpt><trkpt lat="40.6572499" lon="14.7093522"><ele>62.83333333333333</ele><time>2026-04-06T09:49:16Z</time></trkpt><trkpt lat="40.6572982" lon="14.7094239"><ele>64.0</ele><time>2026-04-06T09:49:16.999Z</time></trkpt><trkpt lat="40.657365" lon="14.7095384"><ele>64.0</ele><time>2026-04-06T09:49:20Z</time></trkpt><trkpt lat="40.6574411" lon="14.709672"><ele>64.0</ele><time>2026-04-06T09:49:22Z</time></trkpt><trkpt lat="40.6575059" lon="14.7097719"><ele>64.0</ele><time>2026-04-06T09:49:24Z</time></trkpt><trkpt lat="40.6575866" lon="14.7099084"><ele>64.0</ele><time>2026-04-06T09:49:26Z</time></trkpt><trkpt lat="40.6576559" lon="14.7100021"><ele>64.0</ele><time>2026-04-06T09:49:27Z</time></trkpt><trkpt lat="40.6577325" lon="14.7100898"><ele>64.0</ele><time>2026-04-06T09:49:28Z</time></trkpt><trkpt lat="40.6578198" lon="14.7101483"><ele>64.0</ele><time>2026-04-06T09:49:29Z</time></trkpt><trkpt lat="40.657909" lon="14.7101656"><ele>64.0</ele><time>2026-04-06T09:49:30Z</time></trkpt><trkpt lat="40.6579985" lon="14.7101835"><ele>64.0</ele><time>2026-04-06T09:49:31Z</time></trkpt><trkpt lat="40.65809" lon="14.7102046"><ele>65.5</ele><time>2026-04-06T09:49:32Z</time></trkpt><trkpt lat="40.6581719" lon="14.7102376"><ele>67.0</ele><time>2026-04-06T09:49:33Z</time></trkpt><trkpt lat="40.6582542" lon="14.7102902"><ele>68.5</ele><time>2026-04-06T09:49:34Z</time></trkpt><trkpt lat="40.6582953" lon="14.7103923"><ele>70.0</ele><time>2026-04-06T09:49:35Z</time></trkpt><trkpt lat="40.6583113" lon="14.710512"><ele>71.5</ele><time>2026-04-06T09:49:36Z</time></trkpt><trkpt lat="40.6582875" lon="14.7106282"><ele>73.0</ele><time>2026-04-06T09:49:37Z</time></trkpt><trkpt lat="40.6582364" lon="14.7107424"><ele>73.0</ele><time>2026-04-06T09:49:38Z</time></trkpt><trkpt lat="40.6581993" lon="14.7108417"><ele>73.0</ele><time>2026-04-06T09:49:39Z</time></trkpt><trkpt lat="40.6581724" lon="14.7109414"><ele>73.0</ele><time>2026-04-06T09:49:39.999Z</time></trkpt><trkpt lat="40.6581594" lon="14.711041"><ele>73.0</ele><time>2026-04-06T09:49:41Z</time></trkpt><trkpt lat="40.658181" lon="14.7111438"><ele>73.0</ele><time>2026-04-06T09:49:42Z</time></trkpt><trkpt lat="40.6582316" lon="14.711232"><ele>73.0</ele><time>2026-04-06T09:49:43Z</time></trkpt><trkpt lat="40.658309" lon="14.7112956"><ele>72.6</ele><time>2026-04-06T09:49:43.999Z</time></trkpt><trkpt lat="40.6584065" lon="14.711323"><ele>72.19999999999999</ele><time>2026-04-06T09:49:45Z</time></trkpt><trkpt lat="40.6585088" lon="14.7113074"><ele>71.8</ele><time>2026-04-06T09:49:46Z</time></trkpt><trkpt lat="40.6586156" lon="14.711269"><ele>71.39999999999999</ele><time>2026-04-06T09:49:47Z</time></trkpt><trkpt lat="40.6587204" lon="14.7112442"><ele>71.0</ele><time>2026-04-06T09:49:48Z</time></trkpt><trkpt lat="40.658824" lon="14.711235"><ele>71.0</ele><time>2026-04-06T09:49:49Z</time></trkpt><trkpt lat="40.6589299" lon="14.7112531"><ele>71.0</ele><time>2026-04-06T09:49:50Z</time></trkpt><trkpt lat="40.6590307" lon="14.7113006"><ele>71.0</ele><time>2026-04-06T09:49:51Z</time></trkpt><trkpt lat="40.6591187" lon="14.7113762"><ele>71.0</ele><time>2026-04-06T09:49:52Z</time></trkpt><trkpt lat="40.6591937" lon="14.7114689"><ele>71.0</ele><time>2026-04-06T09:49:53Z</time></trkpt><trkpt lat="40.6592734" lon="14.7115713"><ele>71.0</ele><time>2026-04-06T09:49:54Z</time></trkpt><trkpt lat="40.6593679" lon="14.7116566"><ele>71.0</ele><time>2026-04-06T09:49:55Z</time></trkpt><trkpt lat="40.6594681" lon="14.7117299"><ele>71.0</ele><time>2026-04-06T09:49:56Z</time></trkpt><trkpt lat="40.6595705" lon="14.711797"><ele>71.0</ele><time>2026-04-06T09:49:57Z</time></trkpt><trkpt lat="40.6596708" lon="14.7118594"><ele>65.75</ele><time>2026-04-06T09:49:58Z</time></trkpt><trkpt lat="40.6597747" lon="14.7119188"><ele>60.5</ele><time>2026-04-06T09:49:59Z</time></trkpt><trkpt lat="40.6598883" lon="14.7119582"><ele>55.25</ele><time>2026-04-06T09:50:00Z</time></trkpt><trkpt lat="40.6599996" lon="14.7119765"><ele>50.0</ele><time>2026-04-06T09:50:01Z</time></trkpt><trkpt lat="40.660113" lon="14.7119837"><ele>50.0</ele><time>2026-04-06T09:50:02Z</time></trkpt><trkpt lat="40.660221" lon="14.7120015"><ele>50.0</ele><time>2026-04-06T09:50:03Z</time></trkpt><trkpt lat="40.6603206" lon="14.712035"><ele>50.0</ele><time>2026-04-06T09:50:04Z</time></trkpt><trkpt lat="40.6604152" lon="14.7120673"><ele>50.0</ele><time>2026-04-06T09:50:05Z</time></trkpt><trkpt lat="40.660506" lon="14.7120981"><ele>50.0</ele><time>2026-04-06T09:50:06Z</time></trkpt><trkpt lat="40.6605918" lon="14.7121304"><ele>52.333333333333336</ele><time>2026-04-06T09:50:07Z</time></trkpt><trkpt lat="40.6606732" lon="14.712157"><ele>54.66666666666667</ele><time>2026-04-06T09:50:08Z</time></trkpt><trkpt lat="40.6607499" lon="14.712185"><ele>57.0</ele><time>2026-04-06T09:50:09Z</time></trkpt><trkpt lat="40.6608239" lon="14.7122077"><ele>59.33333333333333</ele><time>2026-04-06T09:50:10Z</time></trkpt><trkpt lat="40.6608927" lon="14.7122263"><ele>61.666666666666664</ele><time>2026-04-06T09:50:11Z</time></trkpt><trkpt lat="40.6609586" lon="14.7122479"><ele>64.0</ele><time>2026-04-06T09:50:12Z</time></trkpt><trkpt lat="40.6610522" lon="14.7122917"><ele>66.66666666666666</ele><time>2026-04-06T09:50:14Z</time></trkpt><trkpt lat="40.6611235" lon="14.7123171"><ele>69.33333333333333</ele><time>2026-04-06T09:50:16Z</time></trkpt><trkpt lat="40.661195" lon="14.71236"><ele>72.0</ele><time>2026-04-06T09:50:19Z</time></trkpt><trkpt lat="40.6613129" lon="14.7123954"><ele>74.66666666666667</ele><time>2026-04-06T09:51:33Z</time></trkpt><trkpt lat="40.6613833" lon="14.7124303"><ele>77.33333333333334</ele><time>2026-04-06T09:51:34Z</time></trkpt><trkpt lat="40.6614578" lon="14.7124494"><ele>80.0</ele><time>2026-04-06T09:51:35Z</time></trkpt><trkpt lat="40.6615351" lon="14.7124377"><ele>80.0</ele><time>2026-04-06T09:51:36Z</time></trkpt><trkpt lat="40.6616105" lon="14.7123914"><ele>80.0</ele><time>2026-04-06T09:51:37Z</time></trkpt><trkpt lat="40.6616757" lon="14.7123171"><ele>80.0</ele><time>2026-04-06T09:51:38Z</time></trkpt><trkpt lat="40.6617354" lon="14.712227"><ele>80.0</ele><time>2026-04-06T09:51:39Z</time></trkpt><trkpt lat="40.6617984" lon="14.7121341"><ele>80.0</ele><time>2026-04-06T09:51:40Z</time></trkpt><trkpt lat="40.6618565" lon="14.7120475"><ele>80.0</ele><time>2026-04-06T09:51:41Z</time></trkpt><trkpt lat="40.6619116" lon="14.7119706"><ele>82.71428571428571</ele><time>2026-04-06T09:51:42Z</time></trkpt><trkpt lat="40.6619679" lon="14.7119084"><ele>85.42857142857143</ele><time>2026-04-06T09:51:42.999Z</time></trkpt><trkpt lat="40.6620305" lon="14.7118807"><ele>88.14285714285714</ele><time>2026-04-06T09:51:44Z</time></trkpt><trkpt lat="40.6620999" lon="14.7118899"><ele>90.85714285714286</ele><time>2026-04-06T09:51:45Z</time></trkpt><trkpt lat="40.6621592" lon="14.7119316"><ele>93.57142857142857</ele><time>2026-04-06T09:51:46Z</time></trkpt><trkpt lat="40.6621998" lon="14.7119954"><ele>96.28571428571429</ele><time>2026-04-06T09:51:47Z</time></trkpt><trkpt lat="40.6622276" lon="14.7120805"><ele>99.0</ele><time>2026-04-06T09:51:48Z</time></trkpt><trkpt lat="40.6622497" lon="14.7121929"><ele>99.0</ele><time>2026-04-06T09:51:48.999Z</time></trkpt><trkpt lat="40.6622715" lon="14.712339"><ele>99.0</ele><time>2026-04-06T09:51:50Z</time></trkpt><trkpt lat="40.6622991" lon="14.7125189"><ele>99.0</ele><time>2026-04-06T09:51:51Z</time></trkpt><trkpt lat="40.6623165" lon="14.7127156"><ele>99.0</ele><time>2026-04-06T09:51:52Z</time></trkpt><trkpt lat="40.6623368" lon="14.7129202"><ele>93.75</ele><time>2026-04-06T09:51:53Z</time></trkpt><trkpt lat="40.6623574" lon="14.7131114"><ele>88.5</ele><time>2026-04-06T09:51:54Z</time></trkpt><trkpt lat="40.6623803" lon="14.7132778"><ele>83.25</ele><time>2026-04-06T09:51:55Z</time></trkpt><trkpt lat="40.6624262" lon="14.7134044"><ele>78.0</ele><time>2026-04-06T09:51:56Z</time></trkpt><trkpt lat="40.6625046" lon="14.7134756"><ele>78.0</ele><time>2026-04-06T09:51:57Z</time></trkpt><trkpt lat="40.6626146" lon="14.7135029"><ele>78.0</ele><time>2026-04-06T09:51:58Z</time></trkpt><trkpt lat="40.6627491" lon="14.7135242"><ele>78.0</ele><time>2026-04-06T09:51:59Z</time></trkpt><trkpt lat="40.6628599" lon="14.7136027"><ele>78.0</ele><time>2026-04-06T09:52:00Z</time></trkpt><trkpt lat="40.662949" lon="14.713714"><ele>73.75</ele><time>2026-04-06T09:52:01Z</time></trkpt><trkpt lat="40.663025" lon="14.7138451"><ele>69.5</ele><time>2026-04-06T09:52:02Z</time></trkpt><trkpt lat="40.6631121" lon="14.7139563"><ele>65.25</ele><time>2026-04-06T09:52:03Z</time></trkpt><trkpt lat="40.6632143" lon="14.7140268"><ele>61.0</ele><time>2026-04-06T09:52:04Z</time></trkpt><trkpt lat="40.6633358" lon="14.7140499"><ele>61.0</ele><time>2026-04-06T09:52:05Z</time></trkpt><trkpt lat="40.663467" lon="14.7140356"><ele>61.0</ele><time>2026-04-06T09:52:06Z</time></trkpt><trkpt lat="40.66361" lon="14.7139928"><ele>61.0</ele><time>2026-04-06T09:52:07Z</time></trkpt><trkpt lat="40.6637488" lon="14.7139591"><ele>61.0</ele><time>2026-04-06T09:52:08Z</time></trkpt><trkpt lat="40.6638736" lon="14.7139027"><ele>59.5</ele><time>2026-04-06T09:52:09Z</time></trkpt><trkpt lat="40.6639814" lon="14.7137956"><ele>58.0</ele><time>2026-04-06T09:52:10Z</time></trkpt><trkpt lat="40.6640767" lon="14.7136428"><ele>56.5</ele><time>2026-04-06T09:52:11Z</time></trkpt><trkpt lat="40.6641834" lon="14.7134873"><ele>55.0</ele><time>2026-04-06T09:52:11.999Z</time></trkpt><trkpt lat="40.6643079" lon="14.7133753"><ele>57.666666666666664</ele><time>2026-04-06T09:52:13Z</time></trkpt><trkpt lat="40.6644447" lon="14.7132989"><ele>60.33333333333333</ele><time>2026-04-06T09:52:13.999Z</time></trkpt><trkpt lat="40.6645857" lon="14.7132088"><ele>63.0</ele><time>2026-04-06T09:52:15Z</time></trkpt><trkpt lat="40.6647178" lon="14.713067"><ele>63.0</ele><time>2026-04-06T09:52:16Z</time></trkpt><trkpt lat="40.6648354" lon="14.7129182"><ele>63.0</ele><time>2026-04-06T09:52:17Z</time></trkpt><trkpt lat="40.6649393" lon="14.7127729"><ele>63.0</ele><time>2026-04-06T09:52:18Z</time></trkpt><trkpt lat="40.6650346" lon="14.7126434"><ele>66.4</ele><time>2026-04-06T09:52:19Z</time></trkpt><trkpt lat="40.665117" lon="14.7125411"><ele>69.8</ele><time>2026-04-06T09:52:20Z</time></trkpt><trkpt lat="40.6652008" lon="14.7124938"><ele>73.2</ele><time>2026-04-06T09:52:21Z</time></trkpt><trkpt lat="40.6652859" lon="14.7125115"><ele>76.6</ele><time>2026-04-06T09:52:21.999Z</time></trkpt><trkpt lat="40.6653762" lon="14.7125533"><ele>80.0</ele><time>2026-04-06T09:52:23Z</time></trkpt><trkpt lat="40.6654751" lon="14.7126022"><ele>80.0</ele><time>2026-04-06T09:52:24Z</time></trkpt><trkpt lat="40.6655686" lon="14.7126515"><ele>80.0</ele><time>2026-04-06T09:52:25Z</time></trkpt><trkpt lat="40.6656476" lon="14.7127219"><ele>80.0</ele><time>2026-04-06T09:52:26Z</time></trkpt><trkpt lat="40.6657053" lon="14.7128265"><ele>80.0</ele><time>2026-04-06T09:52:27Z</time></trkpt><trkpt lat="40.6657233" lon="14.7129692"><ele>80.0</ele><time>2026-04-06T09:52:28Z</time></trkpt><trkpt lat="40.6656964" lon="14.7131368"><ele>82.0</ele><time>2026-04-06T09:52:29Z</time></trkpt><trkpt lat="40.6656711" lon="14.7133176"><ele>84.0</ele><time>2026-04-06T09:52:30Z</time></trkpt><trkpt lat="40.6655766" lon="14.7135177"><ele>86.0</ele><time>2026-04-06T09:52:31Z</time></trkpt><trkpt lat="40.6655044" lon="14.7137382"><ele>92.0</ele><time>2026-04-06T09:52:32Z</time></trkpt><trkpt lat="40.6654279" lon="14.7139747"><ele>98.0</ele><time>2026-04-06T09:52:33Z</time></trkpt><trkpt lat="40.6653513" lon="14.7142027"><ele>104.0</ele><time>2026-04-06T09:52:34Z</time></trkpt><trkpt lat="40.6652738" lon="14.7144255"><ele>92.0</ele><time>2026-04-06T09:52:35Z</time></trkpt><trkpt lat="40.6651962" lon="14.7146333"><ele>80.0</ele><time>2026-04-06T09:52:36Z</time></trkpt><trkpt lat="40.6651218" lon="14.7148253"><ele>68.0</ele><time>2026-04-06T09:52:37Z</time></trkpt><trkpt lat="40.6650539" lon="14.715006"><ele>68.0</ele><time>2026-04-06T09:52:38Z</time></trkpt><trkpt lat="40.664983" lon="14.7151741"><ele>68.0</ele><time>2026-04-06T09:52:39Z</time></trkpt><trkpt lat="40.6649105" lon="14.7153346"><ele>68.0</ele><time>2026-04-06T09:52:40Z</time></trkpt><trkpt lat="40.6648424" lon="14.7154934"><ele>68.0</ele><time>2026-04-06T09:52:40.999Z</time></trkpt><trkpt lat="40.6647763" lon="14.7156543"><ele>68.25</ele><time>2026-04-06T09:52:42Z</time></trkpt><trkpt lat="40.6647108" lon="14.7158095"><ele>68.5</ele><time>2026-04-06T09:52:43Z</time></trkpt><trkpt lat="40.6646577" lon="14.7159572"><ele>68.75</ele><time>2026-04-06T09:52:44Z</time></trkpt><trkpt lat="40.6646318" lon="14.7161137"><ele>69.0</ele><time>2026-04-06T09:52:45Z</time></trkpt><trkpt lat="40.6646394" lon="14.7162754"><ele>69.0</ele><time>2026-04-06T09:52:46Z</time></trkpt><trkpt lat="40.6646824" lon="14.71643"><ele>69.0</ele><time>2026-04-06T09:52:47Z</time></trkpt><trkpt lat="40.6647607" lon="14.716575"><ele>69.0</ele><time>2026-04-06T09:52:48Z</time></trkpt><trkpt lat="40.6648498" lon="14.7166961"><ele>69.0</ele><time>2026-04-06T09:52:49Z</time></trkpt><trkpt lat="40.6649652" lon="14.7167908"><ele>69.0</ele><time>2026-04-06T09:52:50Z</time></trkpt><trkpt lat="40.6651398" lon="14.7168789"><ele>69.0</ele><time>2026-04-06T09:52:51Z</time></trkpt><trkpt lat="40.6652921" lon="14.7169796"><ele>69.0</ele><time>2026-04-06T09:52:52Z</time></trkpt><trkpt lat="40.6654385" lon="14.7170722"><ele>68.0</ele><time>2026-04-06T09:52:53Z</time></trkpt><trkpt lat="40.6655758" lon="14.7171602"><ele>67.0</ele><time>2026-04-06T09:52:54Z</time></trkpt><trkpt lat="40.6657124" lon="14.7172459"><ele>66.0</ele><time>2026-04-06T09:52:55Z</time></trkpt><trkpt lat="40.6658493" lon="14.7173361"><ele>66.0</ele><time>2026-04-06T09:52:56Z</time></trkpt><trkpt lat="40.6659947" lon="14.7174169"><ele>66.0</ele><time>2026-04-06T09:52:57Z</time></trkpt><trkpt lat="40.6661403" lon="14.7174789"><ele>66.0</ele><time>2026-04-06T09:52:58Z</time></trkpt><trkpt lat="40.6662905" lon="14.7175437"><ele>63.0</ele><time>2026-04-06T09:52:59Z</time></trkpt><trkpt lat="40.6664313" lon="14.7176181"><ele>60.0</ele><time>2026-04-06T09:53:00Z</time></trkpt><trkpt lat="40.6665674" lon="14.7176909"><ele>57.0</ele><time>2026-04-06T09:53:01Z</time></trkpt><trkpt lat="40.666689" lon="14.717774"><ele>54.0</ele><time>2026-04-06T09:53:02Z</time></trkpt><trkpt lat="40.666791" lon="14.7178872"><ele>54.0</ele><time>2026-04-06T09:53:03Z</time></trkpt><trkpt lat="40.6668761" lon="14.7180208"><ele>54.0</ele><time>2026-04-06T09:53:04Z</time></trkpt><trkpt lat="40.6669593" lon="14.7181459"><ele>54.0</ele><time>2026-04-06T09:53:05Z</time></trkpt><trkpt lat="40.6670574" lon="14.7182204"><ele>54.0</ele><time>2026-04-06T09:53:06Z</time></trkpt><trkpt lat="40.6671654" lon="14.7182449"><ele>60.25</ele><time>2026-04-06T09:53:07Z</time></trkpt><trkpt lat="40.6672866" lon="14.7182674"><ele>66.5</ele><time>2026-04-06T09:53:08Z</time></trkpt><trkpt lat="40.6674023" lon="14.7183162"><ele>72.75</ele><time>2026-04-06T09:53:09Z</time></trkpt><trkpt lat="40.6674914" lon="14.7184109"><ele>79.0</ele><time>2026-04-06T09:53:10Z</time></trkpt><trkpt lat="40.6675647" lon="14.7185263"><ele>77.60000000000001</ele><time>2026-04-06T09:53:11Z</time></trkpt><trkpt lat="40.6676294" lon="14.7186492"><ele>76.2</ele><time>2026-04-06T09:53:12Z</time></trkpt><trkpt lat="40.6677059" lon="14.7187467"><ele>74.80000000000001</ele><time>2026-04-06T09:53:13Z</time></trkpt><trkpt lat="40.6678035" lon="14.7187926"><ele>73.4</ele><time>2026-04-06T09:53:14Z</time></trkpt><trkpt lat="40.6679199" lon="14.7188035"><ele>72.0</ele><time>2026-04-06T09:53:15Z</time></trkpt><trkpt lat="40.6680428" lon="14.7188415"><ele>72.0</ele><time>2026-04-06T09:53:16Z</time></trkpt><trkpt lat="40.6681692" lon="14.7189218"><ele>72.0</ele><time>2026-04-06T09:53:17Z</time></trkpt><trkpt lat="40.668293" lon="14.7190177"><ele>72.0</ele><time>2026-04-06T09:53:18Z</time></trkpt><trkpt lat="40.6684093" lon="14.7190973"><ele>72.0</ele><time>2026-04-06T09:53:18.999Z</time></trkpt><trkpt lat="40.6685251" lon="14.7191539"><ele>77.0</ele><time>2026-04-06T09:53:20Z</time></trkpt><trkpt lat="40.6686267" lon="14.7192307"><ele>82.0</ele><time>2026-04-06T09:53:21Z</time></trkpt><trkpt lat="40.6687025" lon="14.7193403"><ele>87.0</ele><time>2026-04-06T09:53:22Z</time></trkpt><trkpt lat="40.6687499" lon="14.7194654"><ele>92.0</ele><time>2026-04-06T09:53:23Z</time></trkpt><trkpt lat="40.6687761" lon="14.7195816"><ele>97.0</ele><time>2026-04-06T09:53:24Z</time></trkpt><trkpt lat="40.6687736" lon="14.719686"><ele>97.0</ele><time>2026-04-06T09:53:25Z</time></trkpt><trkpt lat="40.6687546" lon="14.7197704"><ele>97.0</ele><time>2026-04-06T09:53:26Z</time></trkpt><trkpt lat="40.6687276" lon="14.719888"><ele>97.0</ele><time>2026-04-06T09:53:28Z</time></trkpt><trkpt lat="40.6686961" lon="14.7200014"><ele>97.0</ele><time>2026-04-06T09:54:16Z</time></trkpt><trkpt lat="40.6687276" lon="14.7201901"><ele>97.0</ele><time>2026-04-06T09:54:18Z</time></trkpt><trkpt lat="40.6687737" lon="14.720314"><ele>89.25</ele><time>2026-04-06T09:54:19Z</time></trkpt><trkpt lat="40.668831" lon="14.7204524"><ele>81.5</ele><time>2026-04-06T09:54:20Z</time></trkpt><trkpt lat="40.6689033" lon="14.7205919"><ele>73.75</ele><time>2026-04-06T09:54:21Z</time></trkpt><trkpt lat="40.6689659" lon="14.7207199"><ele>66.0</ele><time>2026-04-06T09:54:22Z</time></trkpt><trkpt lat="40.6690219" lon="14.7208412"><ele>66.0</ele><time>2026-04-06T09:54:23Z</time></trkpt><trkpt lat="40.6690809" lon="14.7209443"><ele>66.0</ele><time>2026-04-06T09:54:24Z</time></trkpt><trkpt lat="40.6691539" lon="14.7210087"><ele>66.0</ele><time>2026-04-06T09:54:25Z</time></trkpt><trkpt lat="40.6692358" lon="14.7210374"><ele>66.0</ele><time>2026-04-06T09:54:25.999Z</time></trkpt><trkpt lat="40.6693327" lon="14.7210532"><ele>66.0</ele><time>2026-04-06T09:54:27Z</time></trkpt><trkpt lat="40.6694151" lon="14.7211087"><ele>67.2</ele><time>2026-04-06T09:54:28Z</time></trkpt><trkpt lat="40.6694795" lon="14.7211948"><ele>68.39999999999999</ele><time>2026-04-06T09:54:29Z</time></trkpt><trkpt lat="40.6695325" lon="14.7213168"><ele>69.6</ele><time>2026-04-06T09:54:30Z</time></trkpt><trkpt lat="40.6696173" lon="14.7214293"><ele>70.8</ele><time>2026-04-06T09:54:31Z</time></trkpt><trkpt lat="40.6697137" lon="14.7214981"><ele>72.0</ele><time>2026-04-06T09:54:32Z</time></trkpt><trkpt lat="40.6698133" lon="14.7215315"><ele>72.0</ele><time>2026-04-06T09:54:33Z</time></trkpt><trkpt lat="40.6699105" lon="14.7215397"><ele>72.0</ele><time>2026-04-06T09:54:33.999Z</time></trkpt><trkpt lat="40.6699921" lon="14.7215824"><ele>72.0</ele><time>2026-04-06T09:54:35Z</time></trkpt><trkpt lat="40.670069" lon="14.7216701"><ele>72.0</ele><time>2026-04-06T09:54:36Z</time></trkpt><trkpt lat="40.6701484" lon="14.7217652"><ele>72.0</ele><time>2026-04-06T09:54:37Z</time></trkpt><trkpt lat="40.6701934" lon="14.7218995"><ele>70.6</ele><time>2026-04-06T09:54:38Z</time></trkpt><trkpt lat="40.670237" lon="14.7220117"><ele>69.2</ele><time>2026-04-06T09:54:39Z</time></trkpt><trkpt lat="40.6702958" lon="14.7220911"><ele>67.8</ele><time>2026-04-06T09:54:40Z</time></trkpt><trkpt lat="40.6703808" lon="14.7221325"><ele>66.4</ele><time>2026-04-06T09:54:41Z</time></trkpt><trkpt lat="40.6704808" lon="14.7221349"><ele>65.0</ele><time>2026-04-06T09:54:42Z</time></trkpt><trkpt lat="40.6705991" lon="14.7220946"><ele>65.0</ele><time>2026-04-06T09:54:43Z</time></trkpt><trkpt lat="40.6707159" lon="14.7220342"><ele>65.0</ele><time>2026-04-06T09:54:44Z</time></trkpt><trkpt lat="40.6708129" lon="14.7219387"><ele>65.0</ele><time>2026-04-06T09:54:45Z</time></trkpt><trkpt lat="40.6708849" lon="14.7218227"><ele>65.0</ele><time>2026-04-06T09:54:45.999Z</time></trkpt><trkpt lat="40.6709462" lon="14.7217012"><ele>67.66666666666667</ele><time>2026-04-06T09:54:47Z</time></trkpt><trkpt lat="40.671018" lon="14.7216149"><ele>70.33333333333334</ele><time>2026-04-06T09:54:48Z</time></trkpt><trkpt lat="40.671096" lon="14.7215514"><ele>73.0</ele><time>2026-04-06T09:54:49Z</time></trkpt><trkpt lat="40.6711734" lon="14.7215316"><ele>75.66666666666667</ele><time>2026-04-06T09:54:50Z</time></trkpt><trkpt lat="40.6712466" lon="14.7215588"><ele>78.33333333333333</ele><time>2026-04-06T09:54:51Z</time></trkpt><trkpt lat="40.6713034" lon="14.7216423"><ele>81.0</ele><time>2026-04-06T09:54:52Z</time></trkpt><trkpt lat="40.6713296" lon="14.7217559"><ele>83.6</ele><time>2026-04-06T09:54:53Z</time></trkpt><trkpt lat="40.6713551" lon="14.7218879"><ele>86.19999999999999</ele><time>2026-04-06T09:54:54Z</time></trkpt><trkpt lat="40.6713675" lon="14.7220241"><ele>88.80000000000001</ele><time>2026-04-06T09:54:55Z</time></trkpt><trkpt lat="40.6713512" lon="14.7221609"><ele>91.4</ele><time>2026-04-06T09:54:56Z</time></trkpt><trkpt lat="40.6712939" lon="14.7223059"><ele>94.0</ele><time>2026-04-06T09:54:57Z</time></trkpt><trkpt lat="40.6712272" lon="14.7224522"><ele>94.0</ele><time>2026-04-06T09:54:58Z</time></trkpt><trkpt lat="40.6711667" lon="14.7226139"><ele>94.0</ele><time>2026-04-06T09:54:59Z</time></trkpt><trkpt lat="40.6710726" lon="14.7227608"><ele>94.0</ele><time>2026-04-06T09:55:00Z</time></trkpt><trkpt lat="40.6709557" lon="14.7228864"><ele>94.0</ele><time>2026-04-06T09:55:01Z</time></trkpt><trkpt lat="40.6708358" lon="14.722976"><ele>88.75</ele><time>2026-04-06T09:55:02Z</time></trkpt><trkpt lat="40.670719" lon="14.7230493"><ele>83.5</ele><time>2026-04-06T09:55:03Z</time></trkpt><trkpt lat="40.6706265" lon="14.7231352"><ele>78.25</ele><time>2026-04-06T09:55:04Z</time></trkpt><trkpt lat="40.6705641" lon="14.7232436"><ele>73.0</ele><time>2026-04-06T09:55:05Z</time></trkpt><trkpt lat="40.6705464" lon="14.7233836"><ele>73.0</ele><time>2026-04-06T09:55:06Z</time></trkpt><trkpt lat="40.6705774" lon="14.7235396"><ele>73.0</ele><time>2026-04-06T09:55:07Z</time></trkpt><trkpt lat="40.6706295" lon="14.7237148"><ele>73.0</ele><time>2026-04-06T09:55:08Z</time></trkpt><trkpt lat="40.6706973" lon="14.7238904"><ele>73.0</ele><time>2026-04-06T09:55:09Z</time></trkpt><trkpt lat="40.6707746" lon="14.7240655"><ele>71.25</ele><time>2026-04-06T09:55:10Z</time></trkpt><trkpt lat="40.6708484" lon="14.7242232"><ele>69.5</ele><time>2026-04-06T09:55:11Z</time></trkpt><trkpt lat="40.6709151" lon="14.7243698"><ele>67.75</ele><time>2026-04-06T09:55:12Z</time></trkpt><trkpt lat="40.6709761" lon="14.7245091"><ele>66.0</ele><time>2026-04-06T09:55:12.999Z</time></trkpt><trkpt lat="40.6710282" lon="14.7246443"><ele>66.6</ele><time>2026-04-06T09:55:14Z</time></trkpt><trkpt lat="40.6710776" lon="14.7247695"><ele>67.19999999999999</ele><time>2026-04-06T09:55:15Z</time></trkpt><trkpt lat="40.6711336" lon="14.7248751"><ele>67.80000000000001</ele><time>2026-04-06T09:55:16Z</time></trkpt><trkpt lat="40.6712196" lon="14.7249375"><ele>68.4</ele><time>2026-04-06T09:55:17Z</time></trkpt><trkpt lat="40.6713248" lon="14.7249606"><ele>69.0</ele><time>2026-04-06T09:55:18Z</time></trkpt><trkpt lat="40.6714393" lon="14.7249449"><ele>69.0</ele><time>2026-04-06T09:55:19Z</time></trkpt><trkpt lat="40.6715566" lon="14.7249411"><ele>69.0</ele><time>2026-04-06T09:55:20Z</time></trkpt><trkpt lat="40.6716636" lon="14.7249815"><ele>69.0</ele><time>2026-04-06T09:55:21Z</time></trkpt><trkpt lat="40.6717688" lon="14.7250551"><ele>69.0</ele><time>2026-04-06T09:55:22Z</time></trkpt><trkpt lat="40.6718709" lon="14.7251307"><ele>69.25</ele><time>2026-04-06T09:55:23Z</time></trkpt><trkpt lat="40.6719734" lon="14.7251758"><ele>69.5</ele><time>2026-04-06T09:55:24Z</time></trkpt><trkpt lat="40.6720739" lon="14.7252088"><ele>69.75</ele><time>2026-04-06T09:55:25Z</time></trkpt><trkpt lat="40.672197" lon="14.7251327"><ele>70.0</ele><time>2026-04-06T09:55:26Z</time></trkpt><trkpt lat="40.6723166" lon="14.7250624"><ele>70.0</ele><time>2026-04-06T09:55:27Z</time></trkpt><trkpt lat="40.6724503" lon="14.7249754"><ele>70.0</ele><time>2026-04-06T09:55:28Z</time></trkpt><trkpt lat="40.6725962" lon="14.7248975"><ele>70.0</ele><time>2026-04-06T09:55:29Z</time></trkpt><trkpt lat="40.6727638" lon="14.7248389"><ele>65.0</ele><time>2026-04-06T09:55:30Z</time></trkpt><trkpt lat="40.672942" lon="14.7247963"><ele>60.0</ele><time>2026-04-06T09:55:31Z</time></trkpt><trkpt lat="40.6731106" lon="14.7247541"><ele>55.0</ele><time>2026-04-06T09:55:32Z</time></trkpt><trkpt lat="40.6732681" lon="14.7247183"><ele>55.0</ele><time>2026-04-06T09:55:33Z</time></trkpt><trkpt lat="40.67341" lon="14.7246805"><ele>55.0</ele><time>2026-04-06T09:55:34Z</time></trkpt><trkpt lat="40.673538" lon="14.724669"><ele>55.0</ele><time>2026-04-06T09:55:35Z</time></trkpt><trkpt lat="40.673645" lon="14.7246964"><ele>55.0</ele><time>2026-04-06T09:55:36Z</time></trkpt><trkpt lat="40.6737286" lon="14.7247715"><ele>53.0</ele><time>2026-04-06T09:55:37Z</time></trkpt><trkpt lat="40.6737906" lon="14.7248895"><ele>51.0</ele><time>2026-04-06T09:55:38Z</time></trkpt><trkpt lat="40.6738525" lon="14.7250322"><ele>49.0</ele><time>2026-04-06T09:55:39Z</time></trkpt><trkpt lat="40.673917" lon="14.7251869"><ele>47.0</ele><time>2026-04-06T09:55:40Z</time></trkpt><trkpt lat="40.6739793" lon="14.7253263"><ele>53.2</ele><time>2026-04-06T09:55:41Z</time></trkpt><trkpt lat="40.6740252" lon="14.7254539"><ele>59.400000000000006</ele><time>2026-04-06T09:55:42Z</time></trkpt><trkpt lat="40.6740472" lon="14.725566"><ele>65.6</ele><time>2026-04-06T09:55:43Z</time></trkpt><trkpt lat="40.6740142" lon="14.7256625"><ele>71.8</ele><time>2026-04-06T09:55:44Z</time></trkpt><trkpt lat="40.6739472" lon="14.7257572"><ele>78.0</ele><time>2026-04-06T09:55:45Z</time></trkpt><trkpt lat="40.6738744" lon="14.7258676"><ele>78.0</ele><time>2026-04-06T09:55:46Z</time></trkpt><trkpt lat="40.6738037" lon="14.7260003"><ele>78.0</ele><time>2026-04-06T09:55:47Z</time></trkpt><trkpt lat="40.6737382" lon="14.7261372"><ele>78.0</ele><time>2026-04-06T09:55:48Z</time></trkpt><trkpt lat="40.6736872" lon="14.7262857"><ele>78.0</ele><time>2026-04-06T09:55:48.999Z</time></trkpt><trkpt lat="40.673642" lon="14.7264243"><ele>78.0</ele><time>2026-04-06T09:55:50Z</time></trkpt><trkpt lat="40.6736055" lon="14.7265463"><ele>78.0</ele><time>2026-04-06T09:55:51Z</time></trkpt><trkpt lat="40.6735695" lon="14.7266632"><ele>78.0</ele><time>2026-04-06T09:55:52Z</time></trkpt><trkpt lat="40.6735348" lon="14.7267705"><ele>78.0</ele><time>2026-04-06T09:55:53Z</time></trkpt><trkpt lat="40.6735023" lon="14.7268746"><ele>78.0</ele><time>2026-04-06T09:55:54Z</time></trkpt><trkpt lat="40.6734742" lon="14.7269689"><ele>78.0</ele><time>2026-04-06T09:55:55Z</time></trkpt><trkpt lat="40.673443" lon="14.7270647"><ele>78.0</ele><time>2026-04-06T09:55:55.999Z</time></trkpt><trkpt lat="40.6734073" lon="14.7271569"><ele>78.0</ele><time>2026-04-06T09:55:56.999Z</time></trkpt><trkpt lat="40.6733782" lon="14.7272434"><ele>78.0</ele><time>2026-04-06T09:55:58Z</time></trkpt><trkpt lat="40.6733468" lon="14.7273335"><ele>78.0</ele><time>2026-04-06T09:55:59Z</time></trkpt><trkpt lat="40.6733215" lon="14.7274178"><ele>78.0</ele><time>2026-04-06T09:56:00Z</time></trkpt><trkpt lat="40.6732974" lon="14.7274956"><ele>78.0</ele><time>2026-04-06T09:56:01Z</time></trkpt><trkpt lat="40.6732541" lon="14.7276278"><ele>78.0</ele><time>2026-04-06T09:56:03Z</time></trkpt><trkpt lat="40.6732154" lon="14.7277236"><ele>78.0</ele><time>2026-04-06T09:56:05Z</time></trkpt><trkpt lat="40.6731818" lon="14.7278224"><ele>78.0</ele><time>2026-04-06T09:56:08Z</time></trkpt><trkpt lat="40.673134" lon="14.7279042"><ele>78.0</ele><time>2026-04-06T09:56:11Z</time></trkpt><trkpt lat="40.673066" lon="14.72797"><ele>78.0</ele><time>2026-04-06T09:56:15Z</time></trkpt><trkpt lat="40.6729832" lon="14.7280003"><ele>78.0</ele><time>2026-04-06T09:56:19.999Z</time></trkpt><trkpt lat="40.6729212" lon="14.728017"><ele>78.57142857142857</ele><time>2026-04-06T09:56:22Z</time></trkpt><trkpt lat="40.6728598" lon="14.728046"><ele>79.14285714285714</ele><time>2026-04-06T09:56:24Z</time></trkpt><trkpt lat="40.6727931" lon="14.7280653"><ele>79.71428571428571</ele><time>2026-04-06T09:56:27Z</time></trkpt><trkpt lat="40.6727294" lon="14.7280877"><ele>80.28571428571428</ele><time>2026-04-06T09:56:36Z</time></trkpt><trkpt lat="40.6726735" lon="14.7281267"><ele>80.85714285714286</ele><time>2026-04-06T09:56:38Z</time></trkpt><trkpt lat="40.6725907" lon="14.7281249"><ele>81.42857142857142</ele><time>2026-04-06T09:56:40Z</time></trkpt><trkpt lat="40.6724996" lon="14.7280902"><ele>82.0</ele><time>2026-04-06T09:56:42Z</time></trkpt><trkpt lat="40.6724069" lon="14.7280081"><ele>82.0</ele><time>2026-04-06T09:56:44Z</time></trkpt><trkpt lat="40.6723144" lon="14.7279509"><ele>82.0</ele><time>2026-04-06T09:56:46Z</time></trkpt><trkpt lat="40.6722345" lon="14.7279107"><ele>82.0</ele><time>2026-04-06T09:56:48Z</time></trkpt><trkpt lat="40.6721529" lon="14.7278411"><ele>82.0</ele><time>2026-04-06T09:56:50Z</time></trkpt><trkpt lat="40.6720652" lon="14.7277602"><ele>82.0</ele><time>2026-04-06T09:56:51.999Z</time></trkpt><trkpt lat="40.6719734" lon="14.7276784"><ele>78.5</ele><time>2026-04-06T09:56:54Z</time></trkpt><trkpt lat="40.67186" lon="14.7276189"><ele>75.0</ele><time>2026-04-06T09:56:56Z</time></trkpt><trkpt lat="40.6717476" lon="14.7275849"><ele>71.5</ele><time>2026-04-06T09:56:58Z</time></trkpt><trkpt lat="40.6716281" lon="14.7275556"><ele>68.0</ele><time>2026-04-06T09:57:00Z</time></trkpt><trkpt lat="40.6715198" lon="14.7275093"><ele>68.0</ele><time>2026-04-06T09:57:02Z</time></trkpt><trkpt lat="40.6714411" lon="14.7273898"><ele>68.0</ele><time>2026-04-06T09:57:04Z</time></trkpt><trkpt lat="40.6713769" lon="14.727252"><ele>68.0</ele><time>2026-04-06T09:57:06Z</time></trkpt><trkpt lat="40.6713092" lon="14.7271195"><ele>68.0</ele><time>2026-04-06T09:57:08Z</time></trkpt><trkpt lat="40.6712365" lon="14.7269908"><ele>68.0</ele><time>2026-04-06T09:57:10Z</time></trkpt><trkpt lat="40.6711983" lon="14.726923"><ele>68.0</ele><time>2026-04-06T09:57:11Z</time></trkpt><trkpt lat="40.6711621" lon="14.7268498"><ele>68.0</ele><time>2026-04-06T09:57:11.999Z</time></trkpt><trkpt lat="40.6711235" lon="14.7267833"><ele>68.0</ele><time>2026-04-06T09:57:13Z</time></trkpt><trkpt lat="40.6710767" lon="14.7267197"><ele>68.0</ele><time>2026-04-06T09:57:14Z</time></trkpt><trkpt lat="40.670991" lon="14.726602"><ele>68.0</ele><time>2026-04-06T09:57:16Z</time></trkpt><trkpt lat="40.6708947" lon="14.7265248"><ele>64.25</ele><time>2026-04-06T09:57:18Z</time></trkpt><trkpt lat="40.6707831" lon="14.7264952"><ele>60.5</ele><time>2026-04-06T09:57:20Z</time></trkpt><trkpt lat="40.6706615" lon="14.7264798"><ele>56.75</ele><time>2026-04-06T09:57:22Z</time></trkpt><trkpt lat="40.6705471" lon="14.7264561"><ele>53.0</ele><time>2026-04-06T09:57:24Z</time></trkpt><trkpt lat="40.670441" lon="14.7264125"><ele>53.0</ele><time>2026-04-06T09:57:26Z</time></trkpt><trkpt lat="40.6703448" lon="14.7263537"><ele>53.0</ele><time>2026-04-06T09:57:28Z</time></trkpt><trkpt lat="40.6702671" lon="14.7262696"><ele>53.0</ele><time>2026-04-06T09:57:30Z</time></trkpt><trkpt lat="40.6701957" lon="14.7261663"><ele>53.0</ele><time>2026-04-06T09:57:32Z</time></trkpt><trkpt lat="40.6701161" lon="14.7260688"><ele>53.0</ele><time>2026-04-06T09:57:34Z</time></trkpt><trkpt lat="40.6700277" lon="14.725961"><ele>50.4</ele><time>2026-04-06T09:57:36Z</time></trkpt><trkpt lat="40.6699555" lon="14.7258473"><ele>47.8</ele><time>2026-04-06T09:57:38Z</time></trkpt><trkpt lat="40.6699106" lon="14.7257349"><ele>45.2</ele><time>2026-04-06T09:57:39.999Z</time></trkpt><trkpt lat="40.669891" lon="14.7256263"><ele>42.6</ele><time>2026-04-06T09:57:42Z</time></trkpt><trkpt lat="40.6698724" lon="14.725509"><ele>40.0</ele><time>2026-04-06T09:57:44Z</time></trkpt><trkpt lat="40.6698218" lon="14.7254041"><ele>40.0</ele><time>2026-04-06T09:57:46Z</time></trkpt><trkpt lat="40.6697601" lon="14.725304"><ele>40.0</ele><time>2026-04-06T09:57:48Z</time></trkpt><trkpt lat="40.6697004" lon="14.7252026"><ele>40.0</ele><time>2026-04-06T09:57:50Z</time></trkpt><trkpt lat="40.6696607" lon="14.7251234"><ele>40.0</ele><time>2026-04-06T09:57:52Z</time></trkpt><trkpt lat="40.6696111" lon="14.7250555"><ele>40.0</ele><time>2026-04-06T09:57:55Z</time></trkpt><trkpt lat="40.6695551" lon="14.7249895"><ele>40.0</ele><time>2026-04-06T09:57:59Z</time></trkpt><trkpt lat="40.6694919" lon="14.7249272"><ele>39.14285714285714</ele><time>2026-04-06T09:58:03Z</time></trkpt><trkpt lat="40.6694413" lon="14.7248675"><ele>38.285714285714285</ele><time>2026-04-06T09:58:08Z</time></trkpt><trkpt lat="40.6693881" lon="14.7248125"><ele>37.42857142857143</ele><time>2026-04-06T09:58:11.999Z</time></trkpt><trkpt lat="40.6693369" lon="14.7247604"><ele>36.57142857142857</ele><time>2026-04-06T09:58:16Z</time></trkpt><trkpt lat="40.6692772" lon="14.7247081"><ele>35.714285714285715</ele><time>2026-04-06T09:58:21Z</time></trkpt><trkpt lat="40.6692204" lon="14.7246643"><ele>34.857142857142854</ele><time>2026-04-06T09:58:24Z</time></trkpt><trkpt lat="40.6691605" lon="14.7246255"><ele>34.0</ele><time>2026-04-06T09:58:28Z</time></trkpt><trkpt lat="40.6691009" lon="14.7245951"><ele>34.0</ele><time>2026-04-06T09:58:32Z</time></trkpt><trkpt lat="40.669024" lon="14.7245368"><ele>34.0</ele><time>2026-04-06T09:58:37Z</time></trkpt><trkpt lat="40.6689602" lon="14.7244994"><ele>34.0</ele><time>2026-04-06T09:58:39Z</time></trkpt><trkpt lat="40.6688877" lon="14.7244549"><ele>34.0</ele><time>2026-04-06T09:58:41Z</time></trkpt><trkpt lat="40.6688219" lon="14.7244134"><ele>34.0</ele><time>2026-04-06T09:58:43Z</time></trkpt><trkpt lat="40.6687512" lon="14.7243668"><ele>34.0</ele><time>2026-04-06T09:58:45Z</time></trkpt><trkpt lat="40.6686807" lon="14.7243214"><ele>31.000000000000004</ele><time>2026-04-06T09:58:47Z</time></trkpt><trkpt lat="40.6686051" lon="14.7242782"><ele>28.0</ele><time>2026-04-06T09:58:50Z</time></trkpt><trkpt lat="40.6685797" lon="14.7241784"><ele>25.0</ele><time>2026-04-06T09:58:53Z</time></trkpt><trkpt lat="40.6686162" lon="14.7240863"><ele>22.0</ele><time>2026-04-06T09:58:55Z</time></trkpt><trkpt lat="40.6686418" lon="14.7239948"><ele>19.0</ele><time>2026-04-06T09:58:57Z</time></trkpt><trkpt lat="40.6686593" lon="14.7239134"><ele>16.0</ele><time>2026-04-06T09:58:59Z</time></trkpt><trkpt lat="40.6687098" lon="14.7238168"><ele>15.999999999999998</ele><time>2026-04-06T09:59:02Z</time></trkpt><trkpt lat="40.6687499" lon="14.7237458"><ele>16.0</ele><time>2026-04-06T09:59:04Z</time></trkpt><trkpt lat="40.6687821" lon="14.723665"><ele>16.0</ele><time>2026-04-06T09:59:06Z</time></trkpt><trkpt lat="40.6688293" lon="14.7235628"><ele>16.0</ele><time>2026-04-06T09:59:09.999Z</time></trkpt><trkpt lat="40.6687642" lon="14.7234957"><ele>15.999999999999998</ele><time>2026-04-06T09:59:13Z</time></trkpt><trkpt lat="40.668695" lon="14.7234927"><ele>16.0</ele><time>2026-04-06T09:59:15Z</time></trkpt><trkpt lat="40.6686224" lon="14.7234827"><ele>15.142857142857142</ele><time>2026-04-06T09:59:17Z</time></trkpt><trkpt lat="40.6685525" lon="14.7234753"><ele>14.285714285714285</ele><time>2026-04-06T09:59:20Z</time></trkpt><trkpt lat="40.6684728" lon="14.7234687"><ele>13.428571428571427</ele><time>2026-04-06T09:59:32Z</time></trkpt><trkpt lat="40.6684034" lon="14.7234622"><ele>12.571428571428571</ele><time>2026-04-06T09:59:42Z</time></trkpt><trkpt lat="40.6683457" lon="14.723497"><ele>11.714285714285715</ele><time>2026-04-06T09:59:45Z</time></trkpt><trkpt lat="40.6683204" lon="14.7235814"><ele>10.857142857142858</ele><time>2026-04-06T09:59:47Z</time></trkpt><trkpt lat="40.6683011" lon="14.7236691"><ele>10.0</ele><time>2026-04-06T09:59:49Z</time></trkpt><trkpt lat="40.6682773" lon="14.7237799"><ele>10.0</ele><time>2026-04-06T09:59:52Z</time></trkpt><trkpt lat="40.6682523" lon="14.7238977"><ele>10.0</ele><time>2026-04-06T09:59:54.999Z</time></trkpt><trkpt lat="40.6682219" lon="14.7239958"><ele>10.0</ele><time>2026-04-06T09:59:58Z</time></trkpt><trkpt lat="40.668199" lon="14.7240826"><ele>10.0</ele><time>2026-04-06T10:00:03Z</time></trkpt><trkpt lat="40.6681731" lon="14.7241595"><ele>10.0</ele><time>2026-04-06T10:00:07Z</time></trkpt><trkpt lat="40.6681536" lon="14.7242412"><ele>10.0</ele><time>2026-04-06T10:00:09Z</time></trkpt><trkpt lat="40.6680913" lon="14.7243481"><ele>11.5</ele><time>2026-04-06T10:00:12Z</time></trkpt><trkpt lat="40.6680092" lon="14.7244353"><ele>13.0</ele><time>2026-04-06T10:00:14Z</time></trkpt><trkpt lat="40.6679528" lon="14.7245025"><ele>14.5</ele><time>2026-04-06T10:00:16Z</time></trkpt><trkpt lat="40.6679035" lon="14.724562"><ele>16.0</ele><time>2026-04-06T10:00:18Z</time></trkpt><trkpt lat="40.6678645" lon="14.7246562"><ele>17.5</ele><time>2026-04-06T10:00:21Z</time></trkpt><trkpt lat="40.667866" lon="14.7247433"><ele>19.0</ele><time>2026-04-06T10:00:24Z</time></trkpt><trkpt lat="40.6678688" lon="14.7248598"><ele>19.0</ele><time>2026-04-06T10:00:27Z</time></trkpt><trkpt lat="40.6678735" lon="14.7249858"><ele>19.0</ele><time>2026-04-06T10:00:30Z</time></trkpt><trkpt lat="40.6678753" lon="14.7251013"><ele>19.0</ele><time>2026-04-06T10:00:32Z</time></trkpt><trkpt lat="40.6678716" lon="14.7252161"><ele>19.0</ele><time>2026-04-06T10:00:34Z</time></trkpt><trkpt lat="40.6678684" lon="14.7253399"><ele>19.0</ele><time>2026-04-06T10:00:36Z</time></trkpt><trkpt lat="40.6678739" lon="14.725469"><ele>22.0</ele><time>2026-04-06T10:00:38Z</time></trkpt><trkpt lat="40.667879" lon="14.7255978"><ele>25.0</ele><time>2026-04-06T10:00:40Z</time></trkpt><trkpt lat="40.6678737" lon="14.7257146"><ele>28.0</ele><time>2026-04-06T10:00:42Z</time></trkpt><trkpt lat="40.667871" lon="14.7258389"><ele>31.0</ele><time>2026-04-06T10:00:44Z</time></trkpt><trkpt lat="40.6678794" lon="14.7259692"><ele>34.0</ele><time>2026-04-06T10:00:46Z</time></trkpt><trkpt lat="40.6678853" lon="14.7261055"><ele>35.0</ele><time>2026-04-06T10:00:48Z</time></trkpt><trkpt lat="40.6678884" lon="14.7262296"><ele>36.0</ele><time>2026-04-06T10:00:50Z</time></trkpt><trkpt lat="40.6678869" lon="14.7263312"><ele>37.0</ele><time>2026-04-06T10:00:52Z</time></trkpt><trkpt lat="40.6679052" lon="14.7264131"><ele>38.0</ele><time>2026-04-06T10:00:53.999Z</time></trkpt><trkpt lat="40.6679758" lon="14.7263985"><ele>39.0</ele><time>2026-04-06T10:00:57Z</time></trkpt><trkpt lat="40.6679771" lon="14.7262597"><ele>40.0</ele><time>2026-04-06T10:00:58.999Z</time></trkpt><trkpt lat="40.6679702" lon="14.7261664"><ele>40.0</ele><time>2026-04-06T10:01:00Z</time></trkpt><trkpt lat="40.6679664" lon="14.7260818"><ele>40.0</ele><time>2026-04-06T10:01:01Z</time></trkpt><trkpt lat="40.6679611" lon="14.7259735"><ele>40.0</ele><time>2026-04-06T10:01:02.999Z</time></trkpt><trkpt lat="40.6679497" lon="14.7258719"><ele>40.0</ele><time>2026-04-06T10:01:14Z</time></trkpt><trkpt lat="40.6679569" lon="14.7257738"><ele>40.0</ele><time>2026-04-06T10:01:18Z</time></trkpt><trkpt lat="40.6679639" lon="14.725687"><ele>40.0</ele><time>2026-04-06T10:01:23.999Z</time></trkpt><trkpt lat="40.6679681" lon="14.7255913"><ele>40.0</ele><time>2026-04-06T10:01:34Z</time></trkpt><trkpt lat="40.6679742" lon="14.7254583"><ele>34.0</ele><time>2026-04-06T10:01:38Z</time></trkpt><trkpt lat="40.6679824" lon="14.7253695"><ele>34.0</ele><time>2026-04-06T10:01:39Z</time></trkpt><trkpt lat="40.6679945" lon="14.7252535"><ele>34.0</ele><time>2026-04-06T10:01:41Z</time></trkpt><trkpt lat="40.6679945" lon="14.7252535"><ele>34.0</ele><time>2026-04-06T10:01:41Z</time></trkpt><trkpt lat="40.6679945" lon="14.7252535"><ele>34.0</ele><time>2026-04-06T10:01:41Z</time></trkpt></trkseg><trkseg><trkpt lat="40.6679735" lon="14.7252854"><ele>34.0</ele><time>2026-04-06T11:09:09Z</time></trkpt><trkpt lat="40.6679833" lon="14.725409"><ele>34.0</ele><time>2026-04-06T11:09:11Z</time></trkpt><trkpt lat="40.6680211" lon="14.7254769"><ele>34.0</ele><time>2026-04-06T11:09:20Z</time></trkpt><trkpt lat="40.668092" lon="14.7255781"><ele>34.0</ele><time>2026-04-06T11:09:23Z</time></trkpt><trkpt lat="40.6681299" lon="14.72574"><ele>34.0</ele><time>2026-04-06T11:09:25Z</time></trkpt><trkpt lat="40.6681352" lon="14.7259076"><ele>34.0</ele><time>2026-04-06T11:09:26Z</time></trkpt><trkpt lat="40.6681426" lon="14.7260335"><ele>34.0</ele><time>2026-04-06T11:09:27Z</time></trkpt><trkpt lat="40.6681638" lon="14.7261932"><ele>34.0</ele><time>2026-04-06T11:09:28Z</time></trkpt><trkpt lat="40.6681718" lon="14.7263945"><ele>34.0</ele><time>2026-04-06T11:09:29Z</time></trkpt><trkpt lat="40.6681952" lon="14.7265812"><ele>35.5</ele><time>2026-04-06T11:09:30Z</time></trkpt><trkpt lat="40.6682067" lon="14.726773"><ele>37.0</ele><time>2026-04-06T11:09:31Z</time></trkpt><trkpt lat="40.6682187" lon="14.7269509"><ele>38.5</ele><time>2026-04-06T11:09:32Z</time></trkpt><trkpt lat="40.6682407" lon="14.7271255"><ele>40.0</ele><time>2026-04-06T11:09:33Z</time></trkpt><trkpt lat="40.6682413" lon="14.7273013"><ele>39.25</ele><time>2026-04-06T11:09:33.999Z</time></trkpt><trkpt lat="40.6682292" lon="14.7274697"><ele>38.5</ele><time>2026-04-06T11:09:35Z</time></trkpt><trkpt lat="40.6682137" lon="14.7276499"><ele>37.75</ele><time>2026-04-06T11:09:36Z</time></trkpt><trkpt lat="40.6681429" lon="14.727714"><ele>37.0</ele><time>2026-04-06T11:09:37Z</time></trkpt><trkpt lat="40.6681053" lon="14.7278689"><ele>37.0</ele><time>2026-04-06T11:09:38Z</time></trkpt><trkpt lat="40.6680483" lon="14.7279943"><ele>37.0</ele><time>2026-04-06T11:09:39Z</time></trkpt><trkpt lat="40.6680284" lon="14.7281228"><ele>37.0</ele><time>2026-04-06T11:09:40Z</time></trkpt><trkpt lat="40.6680343" lon="14.7282517"><ele>37.0</ele><time>2026-04-06T11:09:41Z</time></trkpt><trkpt lat="40.668058" lon="14.7283655"><ele>37.0</ele><time>2026-04-06T11:09:42Z</time></trkpt><trkpt lat="40.6680821" lon="14.728469"><ele>37.0</ele><time>2026-04-06T11:09:43Z</time></trkpt><trkpt lat="40.668107" lon="14.7285584"><ele>37.0</ele><time>2026-04-06T11:09:44Z</time></trkpt><trkpt lat="40.6681659" lon="14.7286988"><ele>37.0</ele><time>2026-04-06T11:09:46Z</time></trkpt><trkpt lat="40.6681938" lon="14.7287862"><ele>37.0</ele><time>2026-04-06T11:09:47Z</time></trkpt><trkpt lat="40.6682167" lon="14.7288757"><ele>37.0</ele><time>2026-04-06T11:09:47.999Z</time></trkpt><trkpt lat="40.6682513" lon="14.7289659"><ele>37.0</ele><time>2026-04-06T11:09:49Z</time></trkpt><trkpt lat="40.6682749" lon="14.7291143"><ele>37.66666666666667</ele><time>2026-04-06T11:09:51Z</time></trkpt><trkpt lat="40.6683034" lon="14.729196"><ele>38.333333333333336</ele><time>2026-04-06T11:09:52Z</time></trkpt><trkpt lat="40.668354" lon="14.7293207"><ele>39.0</ele><time>2026-04-06T11:09:54Z</time></trkpt><trkpt lat="40.6684165" lon="14.729396"><ele>39.666666666666664</ele><time>2026-04-06T11:09:55.999Z</time></trkpt><trkpt lat="40.6685078" lon="14.7294676"><ele>40.33333333333333</ele><time>2026-04-06T11:09:58Z</time></trkpt><trkpt lat="40.6685761" lon="14.7295212"><ele>41.0</ele><time>2026-04-06T11:10:00.206Z</time></trkpt><trkpt lat="40.6686593" lon="14.7296076"><ele>41.0</ele><time>2026-04-06T11:10:03Z</time></trkpt><trkpt lat="40.6687487" lon="14.7296877"><ele>41.0</ele><time>2026-04-06T11:10:05Z</time></trkpt><trkpt lat="40.6688374" lon="14.72976"><ele>41.0</ele><time>2026-04-06T11:10:07Z</time></trkpt><trkpt lat="40.668915" lon="14.7298417"><ele>41.0</ele><time>2026-04-06T11:10:09Z</time></trkpt><trkpt lat="40.6689987" lon="14.7299441"><ele>41.0</ele><time>2026-04-06T11:10:11Z</time></trkpt><trkpt lat="40.6690388" lon="14.730016"><ele>41.0</ele><time>2026-04-06T11:10:12Z</time></trkpt><trkpt lat="40.6690753" lon="14.7300927"><ele>41.0</ele><time>2026-04-06T11:10:13Z</time></trkpt><trkpt lat="40.6691011" lon="14.7301763"><ele>41.0</ele><time>2026-04-06T11:10:14Z</time></trkpt><trkpt lat="40.6691226" lon="14.7302578"><ele>41.0</ele><time>2026-04-06T11:10:15Z</time></trkpt><trkpt lat="40.6691469" lon="14.7303415"><ele>41.0</ele><time>2026-04-06T11:10:16Z</time></trkpt><trkpt lat="40.6691875" lon="14.7304699"><ele>41.0</ele><time>2026-04-06T11:10:18Z</time></trkpt><trkpt lat="40.6692239" lon="14.7305689"><ele>40.199999999999996</ele><time>2026-04-06T11:10:20Z</time></trkpt><trkpt lat="40.6692814" lon="14.7306633"><ele>39.4</ele><time>2026-04-06T11:10:22Z</time></trkpt><trkpt lat="40.6693564" lon="14.7307947"><ele>38.6</ele><time>2026-04-06T11:10:24Z</time></trkpt><trkpt lat="40.669394" lon="14.7308677"><ele>37.8</ele><time>2026-04-06T11:10:24.999Z</time></trkpt><trkpt lat="40.669446" lon="14.7309925"><ele>37.0</ele><time>2026-04-06T11:10:27Z</time></trkpt><trkpt lat="40.66949" lon="14.7311067"><ele>37.0</ele><time>2026-04-06T11:10:29Z</time></trkpt><trkpt lat="40.6695505" lon="14.7312041"><ele>37.0</ele><time>2026-04-06T11:10:31Z</time></trkpt><trkpt lat="40.6696344" lon="14.7312352"><ele>37.0</ele><time>2026-04-06T11:10:33Z</time></trkpt><trkpt lat="40.6697301" lon="14.7311974"><ele>37.0</ele><time>2026-04-06T11:10:35Z</time></trkpt><trkpt lat="40.6697959" lon="14.7311035"><ele>37.0</ele><time>2026-04-06T11:10:36Z</time></trkpt><trkpt lat="40.6698592" lon="14.7310255"><ele>39.333333333333336</ele><time>2026-04-06T11:10:37Z</time></trkpt><trkpt lat="40.6699299" lon="14.7309479"><ele>41.66666666666667</ele><time>2026-04-06T11:10:38Z</time></trkpt><trkpt lat="40.6699882" lon="14.7308867"><ele>44.0</ele><time>2026-04-06T11:10:39Z</time></trkpt><trkpt lat="40.6700463" lon="14.7308203"><ele>46.333333333333336</ele><time>2026-04-06T11:10:40Z</time></trkpt><trkpt lat="40.6701122" lon="14.7307353"><ele>48.666666666666664</ele><time>2026-04-06T11:10:43Z</time></trkpt><trkpt lat="40.6701676" lon="14.7306847"><ele>51.0</ele><time>2026-04-06T11:10:45Z</time></trkpt><trkpt lat="40.6702444" lon="14.7306816"><ele>54.166666666666664</ele><time>2026-04-06T11:10:47Z</time></trkpt><trkpt lat="40.6703335" lon="14.7307416"><ele>57.33333333333333</ele><time>2026-04-06T11:10:49Z</time></trkpt><trkpt lat="40.6704043" lon="14.7308387"><ele>60.5</ele><time>2026-04-06T11:10:50.999Z</time></trkpt><trkpt lat="40.6704522" lon="14.730936"><ele>63.666666666666664</ele><time>2026-04-06T11:10:53Z</time></trkpt><trkpt lat="40.6704827" lon="14.7310279"><ele>66.83333333333333</ele><time>2026-04-06T11:10:55Z</time></trkpt><trkpt lat="40.6705126" lon="14.7311192"><ele>70.0</ele><time>2026-04-06T11:10:57Z</time></trkpt><trkpt lat="40.6705233" lon="14.7312096"><ele>70.0</ele><time>2026-04-06T11:10:59Z</time></trkpt><trkpt lat="40.670521" lon="14.7313054"><ele>70.0</ele><time>2026-04-06T11:11:01Z</time></trkpt><trkpt lat="40.6705155" lon="14.7314057"><ele>70.0</ele><time>2026-04-06T11:11:02.999Z</time></trkpt><trkpt lat="40.6705103" lon="14.7315114"><ele>70.0</ele><time>2026-04-06T11:11:05Z</time></trkpt><trkpt lat="40.6705039" lon="14.7315996"><ele>70.0</ele><time>2026-04-06T11:11:07Z</time></trkpt><trkpt lat="40.6704959" lon="14.7317043"><ele>70.0</ele><time>2026-04-06T11:11:09Z</time></trkpt><trkpt lat="40.6704939" lon="14.731814"><ele>70.0</ele><time>2026-04-06T11:11:11Z</time></trkpt><trkpt lat="40.6704879" lon="14.7319198"><ele>70.0</ele><time>2026-04-06T11:11:13Z</time></trkpt><trkpt lat="40.6704966" lon="14.7320107"><ele>70.0</ele><time>2026-04-06T11:11:15Z</time></trkpt><trkpt lat="40.6705532" lon="14.7320486"><ele>70.0</ele><time>2026-04-06T11:11:17Z</time></trkpt><trkpt lat="40.6705905" lon="14.7319774"><ele>70.0</ele><time>2026-04-06T11:11:19Z</time></trkpt><trkpt lat="40.6705845" lon="14.7318695"><ele>70.0</ele><time>2026-04-06T11:11:20Z</time></trkpt><trkpt lat="40.6705764" lon="14.7317789"><ele>70.0</ele><time>2026-04-06T11:11:21Z</time></trkpt><trkpt lat="40.6705746" lon="14.7316771"><ele>70.0</ele><time>2026-04-06T11:11:22Z</time></trkpt><trkpt lat="40.6705761" lon="14.7315833"><ele>70.0</ele><time>2026-04-06T11:11:23Z</time></trkpt><trkpt lat="40.6705823" lon="14.7314815"><ele>70.0</ele><time>2026-04-06T11:11:24Z</time></trkpt><trkpt lat="40.67059" lon="14.7313804"><ele>70.0</ele><time>2026-04-06T11:11:25Z</time></trkpt><trkpt lat="40.6705978" lon="14.7312819"><ele>70.0</ele><time>2026-04-06T11:11:26Z</time></trkpt><trkpt lat="40.6706034" lon="14.7311932"><ele>70.0</ele><time>2026-04-06T11:11:26.999Z</time></trkpt><trkpt lat="40.6706091" lon="14.7311013"><ele>70.0</ele><time>2026-04-06T11:11:28Z</time></trkpt><trkpt lat="40.6706205" lon="14.7310188"><ele>70.33333333333333</ele><time>2026-04-06T11:11:29Z</time></trkpt><trkpt lat="40.6706303" lon="14.7309244"><ele>70.66666666666666</ele><time>2026-04-06T11:11:30Z</time></trkpt><trkpt lat="40.6706374" lon="14.7308283"><ele>71.0</ele><time>2026-04-06T11:11:31Z</time></trkpt><trkpt lat="40.6706494" lon="14.7307262"><ele>71.33333333333333</ele><time>2026-04-06T11:11:32Z</time></trkpt><trkpt lat="40.6706646" lon="14.7306248"><ele>71.66666666666667</ele><time>2026-04-06T11:11:33Z</time></trkpt><trkpt lat="40.6706854" lon="14.7305169"><ele>72.0</ele><time>2026-04-06T11:11:34Z</time></trkpt><trkpt lat="40.6706961" lon="14.7304159"><ele>72.0</ele><time>2026-04-06T11:11:35Z</time></trkpt><trkpt lat="40.6707087" lon="14.7303194"><ele>72.0</ele><time>2026-04-06T11:11:36Z</time></trkpt><trkpt lat="40.6707285" lon="14.7302012"><ele>72.0</ele><time>2026-04-06T11:11:37Z</time></trkpt><trkpt lat="40.6707516" lon="14.7300959"><ele>72.0</ele><time>2026-04-06T11:11:38Z</time></trkpt><trkpt lat="40.6707659" lon="14.7299794"><ele>72.0</ele><time>2026-04-06T11:11:39Z</time></trkpt><trkpt lat="40.6707027" lon="14.7299193"><ele>72.0</ele><time>2026-04-06T11:11:40Z</time></trkpt><trkpt lat="40.670672" lon="14.72984"><ele>72.2</ele><time>2026-04-06T11:11:41Z</time></trkpt><trkpt lat="40.6705855" lon="14.7297215"><ele>72.4</ele><time>2026-04-06T11:11:43Z</time></trkpt><trkpt lat="40.6705301" lon="14.7296789"><ele>72.6</ele><time>2026-04-06T11:11:44Z</time></trkpt><trkpt lat="40.6704221" lon="14.7296339"><ele>72.8</ele><time>2026-04-06T11:11:45.999Z</time></trkpt><trkpt lat="40.6703411" lon="14.7295843"><ele>73.0</ele><time>2026-04-06T11:11:48Z</time></trkpt><trkpt lat="40.6702611" lon="14.7295557"><ele>74.42857142857143</ele><time>2026-04-06T11:11:50Z</time></trkpt><trkpt lat="40.6701939" lon="14.7294802"><ele>75.85714285714286</ele><time>2026-04-06T11:11:53Z</time></trkpt><trkpt lat="40.6702499" lon="14.7294216"><ele>77.28571428571428</ele><time>2026-04-06T11:11:55Z</time></trkpt><trkpt lat="40.6703197" lon="14.7293833"><ele>78.71428571428572</ele><time>2026-04-06T11:11:58Z</time></trkpt><trkpt lat="40.6703833" lon="14.7293507"><ele>80.14285714285715</ele><time>2026-04-06T11:12:00Z</time></trkpt><trkpt lat="40.6704515" lon="14.7293277"><ele>81.57142857142857</ele><time>2026-04-06T11:12:02.999Z</time></trkpt><trkpt lat="40.6705218" lon="14.7293232"><ele>83.0</ele><time>2026-04-06T11:12:31Z</time></trkpt><trkpt lat="40.6705905" lon="14.7293428"><ele>83.0</ele><time>2026-04-06T11:12:56Z</time></trkpt><trkpt lat="40.6706534" lon="14.7293793"><ele>83.0</ele><time>2026-04-06T11:13:04Z</time></trkpt><trkpt lat="40.6707276" lon="14.7293844"><ele>83.0</ele><time>2026-04-06T11:13:07.999Z</time></trkpt><trkpt lat="40.6708331" lon="14.7293982"><ele>83.0</ele><time>2026-04-06T11:13:18Z</time></trkpt><trkpt lat="40.6709082" lon="14.7294549"><ele>83.0</ele><time>2026-04-06T11:13:20Z</time></trkpt><trkpt lat="40.6709836" lon="14.7295351"><ele>83.0</ele><time>2026-04-06T11:13:23Z</time></trkpt><trkpt lat="40.6710312" lon="14.7295923"><ele>81.33333333333334</ele><time>2026-04-06T11:13:25Z</time></trkpt><trkpt lat="40.6710537" lon="14.7296865"><ele>79.66666666666667</ele><time>2026-04-06T11:13:27.999Z</time></trkpt><trkpt lat="40.6710621" lon="14.7297723"><ele>78.0</ele><time>2026-04-06T11:13:30Z</time></trkpt><trkpt lat="40.671072" lon="14.7298847"><ele>76.33333333333333</ele><time>2026-04-06T11:13:41Z</time></trkpt><trkpt lat="40.6710559" lon="14.7299663"><ele>74.66666666666666</ele><time>2026-04-06T11:13:44Z</time></trkpt><trkpt lat="40.6710455" lon="14.7300677"><ele>73.0</ele><time>2026-04-06T11:14:00Z</time></trkpt><trkpt lat="40.6709947" lon="14.7301852"><ele>72.85714285714286</ele><time>2026-04-06T11:14:25Z</time></trkpt><trkpt lat="40.6709832" lon="14.7302693"><ele>72.71428571428572</ele><time>2026-04-06T11:14:27Z</time></trkpt><trkpt lat="40.6709708" lon="14.7303515"><ele>72.57142857142858</ele><time>2026-04-06T11:14:29Z</time></trkpt><trkpt lat="40.670987" lon="14.7304568"><ele>72.42857142857143</ele><time>2026-04-06T11:14:32Z</time></trkpt><trkpt lat="40.6710448" lon="14.7305095"><ele>72.28571428571429</ele><time>2026-04-06T11:14:37.999Z</time></trkpt><trkpt lat="40.6711063" lon="14.7305689"><ele>72.14285714285715</ele><time>2026-04-06T11:14:41Z</time></trkpt><trkpt lat="40.6711066" lon="14.730684"><ele>72.0</ele><time>2026-04-06T11:14:44Z</time></trkpt><trkpt lat="40.6711007" lon="14.7307744"><ele>72.0</ele><time>2026-04-06T11:14:47Z</time></trkpt><trkpt lat="40.6710824" lon="14.7308721"><ele>72.0</ele><time>2026-04-06T11:14:50Z</time></trkpt><trkpt lat="40.6710891" lon="14.7309728"><ele>72.0</ele><time>2026-04-06T11:14:53Z</time></trkpt><trkpt lat="40.6711289" lon="14.7310493"><ele>72.0</ele><time>2026-04-06T11:14:56Z</time></trkpt><trkpt lat="40.6712061" lon="14.7309743"><ele>72.0</ele><time>2026-04-06T11:15:17Z</time></trkpt><trkpt lat="40.6712607" lon="14.7308916"><ele>72.0</ele><time>2026-04-06T11:15:18.999Z</time></trkpt><trkpt lat="40.6713288" lon="14.7308098"><ele>80.75</ele><time>2026-04-06T11:15:21.174Z</time></trkpt><trkpt lat="40.6713913" lon="14.7306668"><ele>89.5</ele><time>2026-04-06T11:15:23Z</time></trkpt><trkpt lat="40.6714151" lon="14.7305611"><ele>98.25</ele><time>2026-04-06T11:15:25Z</time></trkpt><trkpt lat="40.6714321" lon="14.7304393"><ele>107.0</ele><time>2026-04-06T11:15:40Z</time></trkpt><trkpt lat="40.6714634" lon="14.7302457"><ele>105.6</ele><time>2026-04-06T11:15:42Z</time></trkpt><trkpt lat="40.6714803" lon="14.7301431"><ele>104.19999999999999</ele><time>2026-04-06T11:15:43Z</time></trkpt><trkpt lat="40.6715005" lon="14.7300485"><ele>102.8</ele><time>2026-04-06T11:15:44Z</time></trkpt><trkpt lat="40.6715252" lon="14.7298826"><ele>101.4</ele><time>2026-04-06T11:15:46Z</time></trkpt><trkpt lat="40.6715437" lon="14.729795"><ele>100.0</ele><time>2026-04-06T11:15:47Z</time></trkpt><trkpt lat="40.6715845" lon="14.7296382"><ele>100.00000000000001</ele><time>2026-04-06T11:15:49Z</time></trkpt><trkpt lat="40.6716204" lon="14.7295595"><ele>100.0</ele><time>2026-04-06T11:15:50Z</time></trkpt><trkpt lat="40.6716682" lon="14.7294725"><ele>100.0</ele><time>2026-04-06T11:15:50.999Z</time></trkpt><trkpt lat="40.6717184" lon="14.729386"><ele>100.0</ele><time>2026-04-06T11:15:52Z</time></trkpt><trkpt lat="40.6717693" lon="14.7293164"><ele>100.00000000000001</ele><time>2026-04-06T11:15:53Z</time></trkpt><trkpt lat="40.6718295" lon="14.7292425"><ele>100.0</ele><time>2026-04-06T11:15:54Z</time></trkpt><trkpt lat="40.6718828" lon="14.7291843"><ele>99.83333333333334</ele><time>2026-04-06T11:15:56Z</time></trkpt><trkpt lat="40.671967" lon="14.7291585"><ele>99.66666666666667</ele><time>2026-04-06T11:16:12Z</time></trkpt><trkpt lat="40.6720289" lon="14.7291086"><ele>99.5</ele><time>2026-04-06T11:16:14Z</time></trkpt><trkpt lat="40.6720915" lon="14.7290699"><ele>99.33333333333334</ele><time>2026-04-06T11:16:16Z</time></trkpt><trkpt lat="40.6721869" lon="14.7290269"><ele>99.16666666666667</ele><time>2026-04-06T11:16:19Z</time></trkpt><trkpt lat="40.6722748" lon="14.7289837"><ele>99.0</ele><time>2026-04-06T11:16:21Z</time></trkpt><trkpt lat="40.6723496" lon="14.7289609"><ele>99.0</ele><time>2026-04-06T11:16:24Z</time></trkpt><trkpt lat="40.6724196" lon="14.7289496"><ele>99.0</ele><time>2026-04-06T11:16:28Z</time></trkpt><trkpt lat="40.6724875" lon="14.7289113"><ele>99.0</ele><time>2026-04-06T11:16:36Z</time></trkpt><trkpt lat="40.6725649" lon="14.7288315"><ele>99.0</ele><time>2026-04-06T11:16:38Z</time></trkpt><trkpt lat="40.6726297" lon="14.7287762"><ele>99.0</ele><time>2026-04-06T11:16:40Z</time></trkpt><trkpt lat="40.6727039" lon="14.7287431"><ele>99.0</ele><time>2026-04-06T11:16:43Z</time></trkpt><trkpt lat="40.6727688" lon="14.7287043"><ele>100.6</ele><time>2026-04-06T11:16:46Z</time></trkpt><trkpt lat="40.6728626" lon="14.7286613"><ele>102.2</ele><time>2026-04-06T11:16:48Z</time></trkpt><trkpt lat="40.6729465" lon="14.7286336"><ele>103.79999999999998</ele><time>2026-04-06T11:16:50Z</time></trkpt><trkpt lat="40.6730239" lon="14.7285871"><ele>105.39999999999999</ele><time>2026-04-06T11:16:52Z</time></trkpt><trkpt lat="40.6731074" lon="14.7285494"><ele>107.0</ele><time>2026-04-06T11:16:54Z</time></trkpt><trkpt lat="40.6731931" lon="14.7284895"><ele>104.16666666666666</ele><time>2026-04-06T11:16:56Z</time></trkpt><trkpt lat="40.673263" lon="14.7284074"><ele>101.33333333333333</ele><time>2026-04-06T11:16:58Z</time></trkpt><trkpt lat="40.6733112" lon="14.7283056"><ele>98.5</ele><time>2026-04-06T11:17:00Z</time></trkpt><trkpt lat="40.6733354" lon="14.7282019"><ele>95.66666666666666</ele><time>2026-04-06T11:17:02Z</time></trkpt><trkpt lat="40.6733382" lon="14.7280973"><ele>92.83333333333333</ele><time>2026-04-06T11:17:04Z</time></trkpt><trkpt lat="40.6733174" lon="14.7280099"><ele>90.0</ele><time>2026-04-06T11:17:06Z</time></trkpt><trkpt lat="40.6732799" lon="14.7279416"><ele>90.0</ele><time>2026-04-06T11:17:09Z</time></trkpt><trkpt lat="40.6732365" lon="14.7278432"><ele>90.0</ele><time>2026-04-06T11:17:18Z</time></trkpt><trkpt lat="40.6732468" lon="14.7277499"><ele>90.0</ele><time>2026-04-06T11:17:20Z</time></trkpt><trkpt lat="40.673288" lon="14.7276594"><ele>90.0</ele><time>2026-04-06T11:17:22Z</time></trkpt><trkpt lat="40.6733136" lon="14.7275654"><ele>90.0</ele><time>2026-04-06T11:17:23Z</time></trkpt><trkpt lat="40.6733358" lon="14.7274876"><ele>90.0</ele><time>2026-04-06T11:17:24Z</time></trkpt><trkpt lat="40.6733585" lon="14.7273982"><ele>90.0</ele><time>2026-04-06T11:17:24.999Z</time></trkpt><trkpt lat="40.6733852" lon="14.7272898"><ele>87.0</ele><time>2026-04-06T11:17:26Z</time></trkpt><trkpt lat="40.673423" lon="14.7271627"><ele>84.0</ele><time>2026-04-06T11:17:27Z</time></trkpt><trkpt lat="40.6734724" lon="14.7270301"><ele>81.0</ele><time>2026-04-06T11:17:28Z</time></trkpt><trkpt lat="40.6735158" lon="14.7268848"><ele>78.0</ele><time>2026-04-06T11:17:29Z</time></trkpt><trkpt lat="40.6735691" lon="14.7267345"><ele>79.5</ele><time>2026-04-06T11:17:30Z</time></trkpt><trkpt lat="40.6736161" lon="14.726585"><ele>81.0</ele><time>2026-04-06T11:17:31Z</time></trkpt><trkpt lat="40.6736707" lon="14.7264375"><ele>82.5</ele><time>2026-04-06T11:17:32Z</time></trkpt><trkpt lat="40.6737204" lon="14.7263"><ele>84.0</ele><time>2026-04-06T11:17:33Z</time></trkpt><trkpt lat="40.6737675" lon="14.7261666"><ele>82.8</ele><time>2026-04-06T11:17:34Z</time></trkpt><trkpt lat="40.6738252" lon="14.7260447"><ele>81.60000000000001</ele><time>2026-04-06T11:17:35Z</time></trkpt><trkpt lat="40.6738891" lon="14.7259383"><ele>80.4</ele><time>2026-04-06T11:17:36Z</time></trkpt><trkpt lat="40.6739608" lon="14.7258516"><ele>79.2</ele><time>2026-04-06T11:17:37Z</time></trkpt><trkpt lat="40.6740295" lon="14.7257632"><ele>78.0</ele><time>2026-04-06T11:17:38Z</time></trkpt><trkpt lat="40.6740917" lon="14.7256665"><ele>78.0</ele><time>2026-04-06T11:17:39Z</time></trkpt><trkpt lat="40.674093" lon="14.7255516"><ele>78.0</ele><time>2026-04-06T11:17:40Z</time></trkpt><trkpt lat="40.6740743" lon="14.725452"><ele>78.0</ele><time>2026-04-06T11:17:41Z</time></trkpt><trkpt lat="40.6740298" lon="14.7253517"><ele>78.0</ele><time>2026-04-06T11:17:42Z</time></trkpt><trkpt lat="40.6739888" lon="14.7252572"><ele>78.0</ele><time>2026-04-06T11:17:43Z</time></trkpt><trkpt lat="40.6739467" lon="14.7251633"><ele>78.0</ele><time>2026-04-06T11:17:44Z</time></trkpt><trkpt lat="40.6739101" lon="14.7250557"><ele>72.83333333333333</ele><time>2026-04-06T11:17:45Z</time></trkpt><trkpt lat="40.673874" lon="14.7249595"><ele>67.66666666666667</ele><time>2026-04-06T11:17:46Z</time></trkpt><trkpt lat="40.6738414" lon="14.72486"><ele>62.5</ele><time>2026-04-06T11:17:47Z</time></trkpt><trkpt lat="40.6738018" lon="14.7247742"><ele>57.33333333333333</ele><time>2026-04-06T11:17:48Z</time></trkpt><trkpt lat="40.6737461" lon="14.7247101"><ele>52.166666666666664</ele><time>2026-04-06T11:17:49Z</time></trkpt><trkpt lat="40.6736795" lon="14.7246747"><ele>47.0</ele><time>2026-04-06T11:17:50Z</time></trkpt><trkpt lat="40.6736056" lon="14.7246675"><ele>48.6</ele><time>2026-04-06T11:17:51Z</time></trkpt><trkpt lat="40.6735226" lon="14.7246754"><ele>50.2</ele><time>2026-04-06T11:17:52Z</time></trkpt><trkpt lat="40.6734351" lon="14.7246927"><ele>51.8</ele><time>2026-04-06T11:17:53Z</time></trkpt><trkpt lat="40.673336" lon="14.7247147"><ele>53.4</ele><time>2026-04-06T11:17:54Z</time></trkpt><trkpt lat="40.6732144" lon="14.7247509"><ele>55.0</ele><time>2026-04-06T11:17:55Z</time></trkpt><trkpt lat="40.6730678" lon="14.7247784"><ele>55.0</ele><time>2026-04-06T11:17:56Z</time></trkpt><trkpt lat="40.6729259" lon="14.7247978"><ele>55.0</ele><time>2026-04-06T11:17:57Z</time></trkpt><trkpt lat="40.6727973" lon="14.724823"><ele>55.0</ele><time>2026-04-06T11:17:58Z</time></trkpt><trkpt lat="40.6726827" lon="14.7248582"><ele>55.0</ele><time>2026-04-06T11:17:59Z</time></trkpt><trkpt lat="40.6725793" lon="14.7248986"><ele>57.49999999999999</ele><time>2026-04-06T11:18:00Z</time></trkpt><trkpt lat="40.672488" lon="14.7249461"><ele>60.0</ele><time>2026-04-06T11:18:01Z</time></trkpt><trkpt lat="40.6724106" lon="14.7249905"><ele>62.5</ele><time>2026-04-06T11:18:02Z</time></trkpt><trkpt lat="40.6723415" lon="14.7250335"><ele>65.0</ele><time>2026-04-06T11:18:02.999Z</time></trkpt><trkpt lat="40.6722805" lon="14.7250749"><ele>67.5</ele><time>2026-04-06T11:18:04Z</time></trkpt><trkpt lat="40.6722216" lon="14.7251097"><ele>70.0</ele><time>2026-04-06T11:18:05Z</time></trkpt><trkpt lat="40.6721553" lon="14.725151"><ele>70.0</ele><time>2026-04-06T11:18:06Z</time></trkpt><trkpt lat="40.6720678" lon="14.7251743"><ele>70.0</ele><time>2026-04-06T11:18:07Z</time></trkpt><trkpt lat="40.671978" lon="14.7251354"><ele>70.0</ele><time>2026-04-06T11:18:08Z</time></trkpt><trkpt lat="40.671901" lon="14.7250941"><ele>70.0</ele><time>2026-04-06T11:18:09Z</time></trkpt><trkpt lat="40.6718207" lon="14.7250399"><ele>70.0</ele><time>2026-04-06T11:18:09.999Z</time></trkpt><trkpt lat="40.6717247" lon="14.7249811"><ele>69.83333333333333</ele><time>2026-04-06T11:18:11Z</time></trkpt><trkpt lat="40.6716324" lon="14.7249264"><ele>69.66666666666666</ele><time>2026-04-06T11:18:12Z</time></trkpt><trkpt lat="40.6715615" lon="14.7249245"><ele>69.5</ele><time>2026-04-06T11:18:13Z</time></trkpt><trkpt lat="40.6714835" lon="14.7249256"><ele>69.33333333333333</ele><time>2026-04-06T11:18:14Z</time></trkpt><trkpt lat="40.6713889" lon="14.7249385"><ele>69.16666666666667</ele><time>2026-04-06T11:18:15Z</time></trkpt><trkpt lat="40.6713046" lon="14.7249447"><ele>69.0</ele><time>2026-04-06T11:18:16Z</time></trkpt><trkpt lat="40.6712179" lon="14.7249467"><ele>69.0</ele><time>2026-04-06T11:18:17Z</time></trkpt><trkpt lat="40.671158" lon="14.7248922"><ele>69.0</ele><time>2026-04-06T11:18:18Z</time></trkpt><trkpt lat="40.6711016" lon="14.7247926"><ele>69.0</ele><time>2026-04-06T11:18:19Z</time></trkpt><trkpt lat="40.6710575" lon="14.7246773"><ele>69.0</ele><time>2026-04-06T11:18:19.999Z</time></trkpt><trkpt lat="40.6709813" lon="14.7245273"><ele>69.0</ele><time>2026-04-06T11:18:21Z</time></trkpt><trkpt lat="40.6709125" lon="14.7243622"><ele>68.0</ele><time>2026-04-06T11:18:22Z</time></trkpt><trkpt lat="40.6708304" lon="14.7241599"><ele>67.0</ele><time>2026-04-06T11:18:23Z</time></trkpt><trkpt lat="40.6707648" lon="14.7239803"><ele>66.0</ele><time>2026-04-06T11:18:24Z</time></trkpt><trkpt lat="40.6707067" lon="14.7238315"><ele>66.0</ele><time>2026-04-06T11:18:25Z</time></trkpt><trkpt lat="40.6706605" lon="14.7236911"><ele>66.0</ele><time>2026-04-06T11:18:26Z</time></trkpt><trkpt lat="40.6706245" lon="14.7235567"><ele>66.0</ele><time>2026-04-06T11:18:27Z</time></trkpt><trkpt lat="40.6705984" lon="14.7234357"><ele>66.0</ele><time>2026-04-06T11:18:28Z</time></trkpt><trkpt lat="40.670601" lon="14.7233164"><ele>66.0</ele><time>2026-04-06T11:18:29Z</time></trkpt><trkpt lat="40.6706273" lon="14.7231972"><ele>67.75</ele><time>2026-04-06T11:18:30Z</time></trkpt><trkpt lat="40.6706886" lon="14.7231496"><ele>69.5</ele><time>2026-04-06T11:18:31Z</time></trkpt><trkpt lat="40.6707688" lon="14.7230819"><ele>71.25</ele><time>2026-04-06T11:18:32Z</time></trkpt><trkpt lat="40.6708934" lon="14.7229866"><ele>73.0</ele><time>2026-04-06T11:18:33Z</time></trkpt><trkpt lat="40.6710317" lon="14.7228691"><ele>80.0</ele><time>2026-04-06T11:18:34Z</time></trkpt><trkpt lat="40.6711578" lon="14.7227215"><ele>87.0</ele><time>2026-04-06T11:18:35Z</time></trkpt><trkpt lat="40.6712692" lon="14.7225516"><ele>94.0</ele><time>2026-04-06T11:18:36Z</time></trkpt><trkpt lat="40.6713294" lon="14.7223951"><ele>94.0</ele><time>2026-04-06T11:18:37Z</time></trkpt><trkpt lat="40.671399" lon="14.7222479"><ele>94.0</ele><time>2026-04-06T11:18:38Z</time></trkpt><trkpt lat="40.6714225" lon="14.7220914"><ele>94.0</ele><time>2026-04-06T11:18:39Z</time></trkpt><trkpt lat="40.6714133" lon="14.7219388"><ele>94.0</ele><time>2026-04-06T11:18:39.999Z</time></trkpt><trkpt lat="40.6713937" lon="14.7217947"><ele>94.0</ele><time>2026-04-06T11:18:41Z</time></trkpt><trkpt lat="40.6713681" lon="14.7216569"><ele>94.0</ele><time>2026-04-06T11:18:42Z</time></trkpt><trkpt lat="40.6713223" lon="14.7215472"><ele>94.0</ele><time>2026-04-06T11:18:43Z</time></trkpt><trkpt lat="40.6712642" lon="14.7214309"><ele>94.0</ele><time>2026-04-06T11:18:44Z</time></trkpt><trkpt lat="40.6712153" lon="14.721343"><ele>94.0</ele><time>2026-04-06T11:18:45Z</time></trkpt><trkpt lat="40.6711295" lon="14.7215025"><ele>91.83333333333333</ele><time>2026-04-06T11:18:45.999Z</time></trkpt><trkpt lat="40.6710702" lon="14.7215522"><ele>89.66666666666666</ele><time>2026-04-06T11:18:47Z</time></trkpt><trkpt lat="40.6710259" lon="14.7216177"><ele>87.5</ele><time>2026-04-06T11:18:48Z</time></trkpt><trkpt lat="40.6709636" lon="14.7216886"><ele>85.33333333333333</ele><time>2026-04-06T11:18:49Z</time></trkpt><trkpt lat="40.6709181" lon="14.721777"><ele>83.16666666666667</ele><time>2026-04-06T11:18:50Z</time></trkpt><trkpt lat="40.6708789" lon="14.7218728"><ele>81.0</ele><time>2026-04-06T11:18:51Z</time></trkpt><trkpt lat="40.6708312" lon="14.7219572"><ele>78.33333333333333</ele><time>2026-04-06T11:18:51.999Z</time></trkpt><trkpt lat="40.6707553" lon="14.7220163"><ele>75.66666666666667</ele><time>2026-04-06T11:18:53Z</time></trkpt><trkpt lat="40.6706767" lon="14.7220493"><ele>73.0</ele><time>2026-04-06T11:18:54Z</time></trkpt><trkpt lat="40.6706086" lon="14.7220942"><ele>70.33333333333334</ele><time>2026-04-06T11:18:55Z</time></trkpt><trkpt lat="40.6705417" lon="14.7221289"><ele>67.66666666666667</ele><time>2026-04-06T11:18:56Z</time></trkpt><trkpt lat="40.6704785" lon="14.7221413"><ele>65.0</ele><time>2026-04-06T11:18:57Z</time></trkpt><trkpt lat="40.6704109" lon="14.7221552"><ele>65.0</ele><time>2026-04-06T11:18:58Z</time></trkpt><trkpt lat="40.670351" lon="14.7221265"><ele>65.0</ele><time>2026-04-06T11:18:59Z</time></trkpt><trkpt lat="40.6702634" lon="14.7219972"><ele>65.0</ele><time>2026-04-06T11:19:01Z</time></trkpt><trkpt lat="40.6702397" lon="14.7219092"><ele>65.0</ele><time>2026-04-06T11:19:02Z</time></trkpt><trkpt lat="40.6701838" lon="14.7217657"><ele>65.0</ele><time>2026-04-06T11:19:04Z</time></trkpt><trkpt lat="40.670137" lon="14.7216495"><ele>66.4</ele><time>2026-04-06T11:19:06Z</time></trkpt><trkpt lat="40.6700723" lon="14.7215741"><ele>67.8</ele><time>2026-04-06T11:19:08Z</time></trkpt><trkpt lat="40.6699682" lon="14.721538"><ele>69.2</ele><time>2026-04-06T11:19:09Z</time></trkpt><trkpt lat="40.6698956" lon="14.7215131"><ele>70.6</ele><time>2026-04-06T11:19:10Z</time></trkpt><trkpt lat="40.6698178" lon="14.7214908"><ele>72.0</ele><time>2026-04-06T11:19:11Z</time></trkpt><trkpt lat="40.6697236" lon="14.7214403"><ele>72.0</ele><time>2026-04-06T11:19:13Z</time></trkpt><trkpt lat="40.6696325" lon="14.7213344"><ele>72.0</ele><time>2026-04-06T11:19:15Z</time></trkpt><trkpt lat="40.6695772" lon="14.7212409"><ele>72.0</ele><time>2026-04-06T11:19:17Z</time></trkpt><trkpt lat="40.6695193" lon="14.7211998"><ele>72.0</ele><time>2026-04-06T11:20:41Z</time></trkpt><trkpt lat="40.6694084" lon="14.7210874"><ele>72.0</ele><time>2026-04-06T11:20:43Z</time></trkpt><trkpt lat="40.6693265" lon="14.721061"><ele>71.0</ele><time>2026-04-06T11:20:44Z</time></trkpt><trkpt lat="40.669259" lon="14.7210407"><ele>70.0</ele><time>2026-04-06T11:20:45Z</time></trkpt><trkpt lat="40.6691968" lon="14.7209762"><ele>69.0</ele><time>2026-04-06T11:20:46Z</time></trkpt><trkpt lat="40.6691078" lon="14.7208621"><ele>68.0</ele><time>2026-04-06T11:20:48Z</time></trkpt><trkpt lat="40.6690656" lon="14.7207847"><ele>67.0</ele><time>2026-04-06T11:20:49Z</time></trkpt><trkpt lat="40.6690239" lon="14.7207003"><ele>66.0</ele><time>2026-04-06T11:20:50Z</time></trkpt><trkpt lat="40.6689747" lon="14.7206206"><ele>66.0</ele><time>2026-04-06T11:20:51Z</time></trkpt><trkpt lat="40.6689264" lon="14.7205326"><ele>66.0</ele><time>2026-04-06T11:20:52Z</time></trkpt><trkpt lat="40.6688799" lon="14.7204404"><ele>66.0</ele><time>2026-04-06T11:20:52.999Z</time></trkpt><trkpt lat="40.6688406" lon="14.720352"><ele>66.0</ele><time>2026-04-06T11:20:53.999Z</time></trkpt><trkpt lat="40.6688056" lon="14.7202634"><ele>66.0</ele><time>2026-04-06T11:20:54.999Z</time></trkpt><trkpt lat="40.6687803" lon="14.7201672"><ele>66.0</ele><time>2026-04-06T11:20:56Z</time></trkpt><trkpt lat="40.6687745" lon="14.7200726"><ele>71.16666666666667</ele><time>2026-04-06T11:20:57Z</time></trkpt><trkpt lat="40.6687854" lon="14.7199721"><ele>76.33333333333334</ele><time>2026-04-06T11:20:58Z</time></trkpt><trkpt lat="40.6688084" lon="14.7198686"><ele>81.5</ele><time>2026-04-06T11:20:59Z</time></trkpt><trkpt lat="40.6688311" lon="14.7197622"><ele>86.66666666666667</ele><time>2026-04-06T11:21:00Z</time></trkpt><trkpt lat="40.668839" lon="14.7196521"><ele>91.83333333333334</ele><time>2026-04-06T11:21:01Z</time></trkpt><trkpt lat="40.6688328" lon="14.7195405"><ele>97.0</ele><time>2026-04-06T11:21:02Z</time></trkpt><trkpt lat="40.668807" lon="14.7194352"><ele>100.0</ele><time>2026-04-06T11:21:03Z</time></trkpt><trkpt lat="40.668773" lon="14.7193319"><ele>103.0</ele><time>2026-04-06T11:21:04Z</time></trkpt><trkpt lat="40.6687185" lon="14.7192401"><ele>105.99999999999999</ele><time>2026-04-06T11:21:05Z</time></trkpt><trkpt lat="40.6686363" lon="14.7191644"><ele>109.0</ele><time>2026-04-06T11:21:06Z</time></trkpt><trkpt lat="40.668519" lon="14.7191142"><ele>112.0</ele><time>2026-04-06T11:21:07Z</time></trkpt><trkpt lat="40.6683897" lon="14.7190545"><ele>102.0</ele><time>2026-04-06T11:21:08Z</time></trkpt><trkpt lat="40.6682861" lon="14.7189381"><ele>92.0</ele><time>2026-04-06T11:21:08.999Z</time></trkpt><trkpt lat="40.6681868" lon="14.7188506"><ele>82.0</ele><time>2026-04-06T11:21:10Z</time></trkpt><trkpt lat="40.6680934" lon="14.7187966"><ele>72.0</ele><time>2026-04-06T11:21:11Z</time></trkpt><trkpt lat="40.6679899" lon="14.7187718"><ele>72.0</ele><time>2026-04-06T11:21:12Z</time></trkpt><trkpt lat="40.6678663" lon="14.7187588"><ele>72.0</ele><time>2026-04-06T11:21:13.198Z</time></trkpt><trkpt lat="40.6676818" lon="14.7185837"><ele>72.0</ele><time>2026-04-06T11:21:15Z</time></trkpt><trkpt lat="40.6675973" lon="14.7184381"><ele>73.75</ele><time>2026-04-06T11:21:16Z</time></trkpt><trkpt lat="40.6674979" lon="14.7183191"><ele>75.5</ele><time>2026-04-06T11:21:17Z</time></trkpt><trkpt lat="40.6673714" lon="14.7182501"><ele>77.25</ele><time>2026-04-06T11:21:18Z</time></trkpt><trkpt lat="40.6672463" lon="14.7181867"><ele>79.0</ele><time>2026-04-06T11:21:19Z</time></trkpt><trkpt lat="40.6671195" lon="14.7181806"><ele>79.0</ele><time>2026-04-06T11:21:20Z</time></trkpt><trkpt lat="40.6670184" lon="14.7180913"><ele>79.0</ele><time>2026-04-06T11:21:21Z</time></trkpt><trkpt lat="40.666935" lon="14.7179663"><ele>79.0</ele><time>2026-04-06T11:21:22Z</time></trkpt><trkpt lat="40.6668392" lon="14.7178296"><ele>79.0</ele><time>2026-04-06T11:21:23Z</time></trkpt><trkpt lat="40.6667022" lon="14.7177097"><ele>81.33333333333333</ele><time>2026-04-06T11:21:24Z</time></trkpt><trkpt lat="40.6665524" lon="14.7176245"><ele>83.66666666666667</ele><time>2026-04-06T11:21:25Z</time></trkpt><trkpt lat="40.6664048" lon="14.71754"><ele>86.0</ele><time>2026-04-06T11:21:26Z</time></trkpt><trkpt lat="40.6662479" lon="14.7174578"><ele>79.33333333333334</ele><time>2026-04-06T11:21:26.999Z</time></trkpt><trkpt lat="40.6660893" lon="14.7173804"><ele>72.66666666666667</ele><time>2026-04-06T11:21:27.999Z</time></trkpt><trkpt lat="40.665935" lon="14.7172936"><ele>66.0</ele><time>2026-04-06T11:21:29Z</time></trkpt><trkpt lat="40.665789" lon="14.7171986"><ele>66.0</ele><time>2026-04-06T11:21:29.999Z</time></trkpt><trkpt lat="40.6656443" lon="14.7171091"><ele>66.0</ele><time>2026-04-06T11:21:31Z</time></trkpt><trkpt lat="40.6655005" lon="14.7170174"><ele>66.0</ele><time>2026-04-06T11:21:32Z</time></trkpt><trkpt lat="40.6653619" lon="14.71692"><ele>66.75</ele><time>2026-04-06T11:21:33Z</time></trkpt><trkpt lat="40.6652319" lon="14.716826"><ele>67.5</ele><time>2026-04-06T11:21:34Z</time></trkpt><trkpt lat="40.6651083" lon="14.7167335"><ele>68.25</ele><time>2026-04-06T11:21:35Z</time></trkpt><trkpt lat="40.6649936" lon="14.7166546"><ele>69.0</ele><time>2026-04-06T11:21:36Z</time></trkpt><trkpt lat="40.6648879" lon="14.716581"><ele>69.0</ele><time>2026-04-06T11:21:37Z</time></trkpt><trkpt lat="40.6648043" lon="14.7164785"><ele>69.0</ele><time>2026-04-06T11:21:38Z</time></trkpt><trkpt lat="40.6647223" lon="14.7163774"><ele>69.0</ele><time>2026-04-06T11:21:38.999Z</time></trkpt><trkpt lat="40.6647157" lon="14.7161908"><ele>69.0</ele><time>2026-04-06T11:21:39.999Z</time></trkpt><trkpt lat="40.6647187" lon="14.716036"><ele>73.33333333333333</ele><time>2026-04-06T11:21:41Z</time></trkpt><trkpt lat="40.6647616" lon="14.7158738"><ele>77.66666666666666</ele><time>2026-04-06T11:21:42Z</time></trkpt><trkpt lat="40.664833" lon="14.7156923"><ele>82.0</ele><time>2026-04-06T11:21:43Z</time></trkpt><trkpt lat="40.6649222" lon="14.7154833"><ele>82.0</ele><time>2026-04-06T11:21:44Z</time></trkpt><trkpt lat="40.6650177" lon="14.7152518"><ele>82.0</ele><time>2026-04-06T11:21:45Z</time></trkpt><trkpt lat="40.665121" lon="14.7150117"><ele>82.0</ele><time>2026-04-06T11:21:46Z</time></trkpt><trkpt lat="40.6652102" lon="14.714787"><ele>89.33333333333333</ele><time>2026-04-06T11:21:47Z</time></trkpt><trkpt lat="40.6652891" lon="14.714576"><ele>96.66666666666666</ele><time>2026-04-06T11:21:48Z</time></trkpt><trkpt lat="40.6653693" lon="14.7143634"><ele>104.0</ele><time>2026-04-06T11:21:49Z</time></trkpt><trkpt lat="40.6654425" lon="14.7141545"><ele>104.0</ele><time>2026-04-06T11:21:49.999Z</time></trkpt><trkpt lat="40.6655108" lon="14.7139562"><ele>104.0</ele><time>2026-04-06T11:21:51Z</time></trkpt><trkpt lat="40.6655692" lon="14.7137747"><ele>104.0</ele><time>2026-04-06T11:21:52Z</time></trkpt><trkpt lat="40.6656236" lon="14.7136075"><ele>99.5</ele><time>2026-04-06T11:21:52.999Z</time></trkpt><trkpt lat="40.6656742" lon="14.7134554"><ele>95.0</ele><time>2026-04-06T11:21:54Z</time></trkpt><trkpt lat="40.6657228" lon="14.7133082"><ele>90.5</ele><time>2026-04-06T11:21:55Z</time></trkpt><trkpt lat="40.6657638" lon="14.7131663"><ele>86.0</ele><time>2026-04-06T11:21:56Z</time></trkpt><trkpt lat="40.6657869" lon="14.7130255"><ele>86.0</ele><time>2026-04-06T11:21:57Z</time></trkpt><trkpt lat="40.6657886" lon="14.7128907"><ele>86.0</ele><time>2026-04-06T11:21:58Z</time></trkpt><trkpt lat="40.665758" lon="14.7127723"><ele>86.0</ele><time>2026-04-06T11:21:59Z</time></trkpt><trkpt lat="40.6657049" lon="14.7126905"><ele>86.0</ele><time>2026-04-06T11:22:00Z</time></trkpt><trkpt lat="40.6656344" lon="14.7126442"><ele>86.0</ele><time>2026-04-06T11:22:01Z</time></trkpt><trkpt lat="40.6655627" lon="14.7126147"><ele>86.0</ele><time>2026-04-06T11:22:02Z</time></trkpt><trkpt lat="40.6654855" lon="14.7125742"><ele>86.66666666666667</ele><time>2026-04-06T11:22:03Z</time></trkpt><trkpt lat="40.6654156" lon="14.7125202"><ele>87.33333333333334</ele><time>2026-04-06T11:22:04Z</time></trkpt><trkpt lat="40.6653438" lon="14.7124701"><ele>88.0</ele><time>2026-04-06T11:22:04.999Z</time></trkpt><trkpt lat="40.6652647" lon="14.7124557"><ele>88.66666666666667</ele><time>2026-04-06T11:22:06Z</time></trkpt><trkpt lat="40.6651912" lon="14.7124784"><ele>89.33333333333333</ele><time>2026-04-06T11:22:07Z</time></trkpt><trkpt lat="40.6651173" lon="14.7125428"><ele>90.0</ele><time>2026-04-06T11:22:08Z</time></trkpt><trkpt lat="40.6650346" lon="14.712648"><ele>81.0</ele><time>2026-04-06T11:22:09Z</time></trkpt><trkpt lat="40.6649204" lon="14.7127899"><ele>72.0</ele><time>2026-04-06T11:22:10Z</time></trkpt><trkpt lat="40.6648069" lon="14.712937"><ele>63.0</ele><time>2026-04-06T11:22:11Z</time></trkpt><trkpt lat="40.6646984" lon="14.7130866"><ele>63.0</ele><time>2026-04-06T11:22:12Z</time></trkpt><trkpt lat="40.6645572" lon="14.7131595"><ele>63.0</ele><time>2026-04-06T11:22:13Z</time></trkpt><trkpt lat="40.6644363" lon="14.7132367"><ele>63.0</ele><time>2026-04-06T11:22:14Z</time></trkpt><trkpt lat="40.6643142" lon="14.7133288"><ele>63.0</ele><time>2026-04-06T11:22:15Z</time></trkpt><trkpt lat="40.6642149" lon="14.7134314"><ele>61.4</ele><time>2026-04-06T11:22:16Z</time></trkpt><trkpt lat="40.6641352" lon="14.7135422"><ele>59.8</ele><time>2026-04-06T11:22:17Z</time></trkpt><trkpt lat="40.6640672" lon="14.7136522"><ele>58.2</ele><time>2026-04-06T11:22:18Z</time></trkpt><trkpt lat="40.6640068" lon="14.7137536"><ele>56.6</ele><time>2026-04-06T11:22:18.999Z</time></trkpt><trkpt lat="40.6639314" lon="14.7138299"><ele>55.0</ele><time>2026-04-06T11:22:20Z</time></trkpt><trkpt lat="40.6638381" lon="14.713883"><ele>55.0</ele><time>2026-04-06T11:22:21Z</time></trkpt><trkpt lat="40.6637495" lon="14.7139194"><ele>55.0</ele><time>2026-04-06T11:22:22Z</time></trkpt><trkpt lat="40.6636524" lon="14.7139457"><ele>55.0</ele><time>2026-04-06T11:22:23Z</time></trkpt><trkpt lat="40.6635551" lon="14.7139718"><ele>55.0</ele><time>2026-04-06T11:22:24Z</time></trkpt><trkpt lat="40.6634561" lon="14.7139976"><ele>55.0</ele><time>2026-04-06T11:22:25Z</time></trkpt><trkpt lat="40.6633656" lon="14.7140131"><ele>56.2</ele><time>2026-04-06T11:22:26Z</time></trkpt><trkpt lat="40.6632759" lon="14.7140006"><ele>57.4</ele><time>2026-04-06T11:22:27Z</time></trkpt><trkpt lat="40.6631933" lon="14.7139577"><ele>58.599999999999994</ele><time>2026-04-06T11:22:28Z</time></trkpt><trkpt lat="40.6631201" lon="14.7138793"><ele>59.8</ele><time>2026-04-06T11:22:28.999Z</time></trkpt><trkpt lat="40.6630589" lon="14.7137834"><ele>61.0</ele><time>2026-04-06T11:22:30Z</time></trkpt><trkpt lat="40.6630027" lon="14.7136846"><ele>60.99999999999999</ele><time>2026-04-06T11:22:31Z</time></trkpt><trkpt lat="40.6629458" lon="14.7136004"><ele>61.0</ele><time>2026-04-06T11:22:32Z</time></trkpt><trkpt lat="40.6628814" lon="14.7135354"><ele>61.0</ele><time>2026-04-06T11:22:33Z</time></trkpt><trkpt lat="40.6628026" lon="14.7134956"><ele>61.0</ele><time>2026-04-06T11:22:34Z</time></trkpt><trkpt lat="40.6627171" lon="14.7134691"><ele>60.99999999999999</ele><time>2026-04-06T11:22:35Z</time></trkpt><trkpt lat="40.6626356" lon="14.7134588"><ele>61.0</ele><time>2026-04-06T11:22:36Z</time></trkpt><trkpt lat="40.6625516" lon="14.7134411"><ele>63.83333333333333</ele><time>2026-04-06T11:22:37Z</time></trkpt><trkpt lat="40.6624948" lon="14.7133946"><ele>66.66666666666666</ele><time>2026-04-06T11:22:38Z</time></trkpt><trkpt lat="40.6624567" lon="14.7133207"><ele>69.5</ele><time>2026-04-06T11:22:39Z</time></trkpt><trkpt lat="40.6624308" lon="14.7132299"><ele>72.33333333333333</ele><time>2026-04-06T11:22:40Z</time></trkpt><trkpt lat="40.6624156" lon="14.7131416"><ele>75.16666666666667</ele><time>2026-04-06T11:22:41Z</time></trkpt><trkpt lat="40.6624056" lon="14.7130572"><ele>78.0</ele><time>2026-04-06T11:22:42Z</time></trkpt><trkpt lat="40.6623819" lon="14.7129083"><ele>78.0</ele><time>2026-04-06T11:22:44Z</time></trkpt><trkpt lat="40.6623667" lon="14.7127916"><ele>78.0</ele><time>2026-04-06T11:22:46Z</time></trkpt><trkpt lat="40.6623526" lon="14.7126896"><ele>78.0</ele><time>2026-04-06T11:22:49Z</time></trkpt><trkpt lat="40.6623447" lon="14.7125787"><ele>78.0</ele><time>2026-04-06T11:23:52Z</time></trkpt><trkpt lat="40.6623035" lon="14.712388"><ele>78.0</ele><time>2026-04-06T11:23:54Z</time></trkpt><trkpt lat="40.6622865" lon="14.7122677"><ele>81.5</ele><time>2026-04-06T11:23:55Z</time></trkpt><trkpt lat="40.6622759" lon="14.7121495"><ele>85.0</ele><time>2026-04-06T11:23:56Z</time></trkpt><trkpt lat="40.6622534" lon="14.712045"><ele>88.5</ele><time>2026-04-06T11:23:57Z</time></trkpt><trkpt lat="40.6622062" lon="14.7119538"><ele>92.0</ele><time>2026-04-06T11:23:58Z</time></trkpt><trkpt lat="40.6621454" lon="14.7118984"><ele>95.5</ele><time>2026-04-06T11:23:59Z</time></trkpt><trkpt lat="40.6620703" lon="14.7118778"><ele>99.0</ele><time>2026-04-06T11:24:00Z</time></trkpt><trkpt lat="40.6619988" lon="14.7119044"><ele>95.2</ele><time>2026-04-06T11:24:01Z</time></trkpt><trkpt lat="40.6619319" lon="14.7119649"><ele>91.4</ele><time>2026-04-06T11:24:02Z</time></trkpt><trkpt lat="40.6618653" lon="14.7120588"><ele>87.6</ele><time>2026-04-06T11:24:03Z</time></trkpt><trkpt lat="40.6617827" lon="14.7121651"><ele>83.8</ele><time>2026-04-06T11:24:04Z</time></trkpt><trkpt lat="40.661702" lon="14.7122636"><ele>80.0</ele><time>2026-04-06T11:24:05Z</time></trkpt><trkpt lat="40.6616242" lon="14.7123515"><ele>80.0</ele><time>2026-04-06T11:24:06Z</time></trkpt><trkpt lat="40.6615389" lon="14.7124087"><ele>80.0</ele><time>2026-04-06T11:24:07Z</time></trkpt><trkpt lat="40.6614486" lon="14.7124111"><ele>80.0</ele><time>2026-04-06T11:24:08Z</time></trkpt><trkpt lat="40.6613449" lon="14.7123839"><ele>80.0</ele><time>2026-04-06T11:24:09Z</time></trkpt><trkpt lat="40.6612355" lon="14.7123318"><ele>80.0</ele><time>2026-04-06T11:24:10Z</time></trkpt><trkpt lat="40.6611048" lon="14.7122827"><ele>74.66666666666667</ele><time>2026-04-06T11:24:11Z</time></trkpt><trkpt lat="40.6609554" lon="14.7122248"><ele>69.33333333333333</ele><time>2026-04-06T11:24:12Z</time></trkpt><trkpt lat="40.6608015" lon="14.7121657"><ele>64.0</ele><time>2026-04-06T11:24:12.999Z</time></trkpt><trkpt lat="40.6606509" lon="14.7121057"><ele>64.0</ele><time>2026-04-06T11:24:13.999Z</time></trkpt><trkpt lat="40.6605084" lon="14.7120476"><ele>64.0</ele><time>2026-04-06T11:24:15Z</time></trkpt><trkpt lat="40.660375" lon="14.7119955"><ele>64.0</ele><time>2026-04-06T11:24:16Z</time></trkpt><trkpt lat="40.6602406" lon="14.7119567"><ele>64.0</ele><time>2026-04-06T11:24:17Z</time></trkpt><trkpt lat="40.6601048" lon="14.7119291"><ele>60.5</ele><time>2026-04-06T11:24:18Z</time></trkpt><trkpt lat="40.6599754" lon="14.711907"><ele>57.0</ele><time>2026-04-06T11:24:19Z</time></trkpt><trkpt lat="40.659844" lon="14.711864"><ele>53.5</ele><time>2026-04-06T11:24:20Z</time></trkpt><trkpt lat="40.6597193" lon="14.7118009"><ele>50.0</ele><time>2026-04-06T11:24:21Z</time></trkpt><trkpt lat="40.6595968" lon="14.7117318"><ele>55.25</ele><time>2026-04-06T11:24:22Z</time></trkpt><trkpt lat="40.659482" lon="14.7116579"><ele>60.5</ele><time>2026-04-06T11:24:23Z</time></trkpt><trkpt lat="40.6593721" lon="14.7115789"><ele>65.75</ele><time>2026-04-06T11:24:24Z</time></trkpt><trkpt lat="40.6592844" lon="14.7114764"><ele>71.0</ele><time>2026-04-06T11:24:25Z</time></trkpt><trkpt lat="40.6592049" lon="14.7113679"><ele>71.0</ele><time>2026-04-06T11:24:26Z</time></trkpt><trkpt lat="40.6591161" lon="14.7112742"><ele>71.0</ele><time>2026-04-06T11:24:27Z</time></trkpt><trkpt lat="40.6590279" lon="14.7112098"><ele>71.0</ele><time>2026-04-06T11:24:28Z</time></trkpt><trkpt lat="40.6588991" lon="14.7112157"><ele>71.0</ele><time>2026-04-06T11:24:29Z</time></trkpt><trkpt lat="40.6587833" lon="14.7112182"><ele>71.0</ele><time>2026-04-06T11:24:30Z</time></trkpt><trkpt lat="40.6586609" lon="14.7112419"><ele>71.0</ele><time>2026-04-06T11:24:31Z</time></trkpt><trkpt lat="40.6585541" lon="14.7112753"><ele>71.0</ele><time>2026-04-06T11:24:32Z</time></trkpt><trkpt lat="40.6584505" lon="14.7112883"><ele>71.0</ele><time>2026-04-06T11:24:33Z</time></trkpt><trkpt lat="40.6583549" lon="14.7112586"><ele>71.0</ele><time>2026-04-06T11:24:34Z</time></trkpt><trkpt lat="40.6582845" lon="14.7111894"><ele>71.39999999999999</ele><time>2026-04-06T11:24:35Z</time></trkpt><trkpt lat="40.6582442" lon="14.7110957"><ele>71.8</ele><time>2026-04-06T11:24:35.999Z</time></trkpt><trkpt lat="40.6582397" lon="14.7109776"><ele>72.19999999999999</ele><time>2026-04-06T11:24:37Z</time></trkpt><trkpt lat="40.6582689" lon="14.7108541"><ele>72.6</ele><time>2026-04-06T11:24:38Z</time></trkpt><trkpt lat="40.6583208" lon="14.7107416"><ele>73.0</ele><time>2026-04-06T11:24:39Z</time></trkpt><trkpt lat="40.6583598" lon="14.7106234"><ele>73.0</ele><time>2026-04-06T11:24:40Z</time></trkpt><trkpt lat="40.6583704" lon="14.7105017"><ele>73.0</ele><time>2026-04-06T11:24:41Z</time></trkpt><trkpt lat="40.6583515" lon="14.7103882"><ele>73.0</ele><time>2026-04-06T11:24:42Z</time></trkpt><trkpt lat="40.6582961" lon="14.7102859"><ele>73.0</ele><time>2026-04-06T11:24:43Z</time></trkpt><trkpt lat="40.6582176" lon="14.7102223"><ele>73.0</ele><time>2026-04-06T11:24:44Z</time></trkpt><trkpt lat="40.6581327" lon="14.7101858"><ele>70.75</ele><time>2026-04-06T11:24:45Z</time></trkpt><trkpt lat="40.6580334" lon="14.7101576"><ele>68.5</ele><time>2026-04-06T11:24:46Z</time></trkpt><trkpt lat="40.6579198" lon="14.7101277"><ele>66.25</ele><time>2026-04-06T11:24:47Z</time></trkpt><trkpt lat="40.6578138" lon="14.7100739"><ele>64.0</ele><time>2026-04-06T11:24:47.999Z</time></trkpt><trkpt lat="40.6577181" lon="14.7099771"><ele>64.0</ele><time>2026-04-06T11:24:48.999Z</time></trkpt><trkpt lat="40.6576222" lon="14.7098669"><ele>64.0</ele><time>2026-04-06T11:24:50Z</time></trkpt><trkpt lat="40.6575371" lon="14.7097407"><ele>64.0</ele><time>2026-04-06T11:24:51.154Z</time></trkpt><trkpt lat="40.6573672" lon="14.7094766"><ele>68.5</ele><time>2026-04-06T11:24:53Z</time></trkpt><trkpt lat="40.6572894" lon="14.7093458"><ele>73.0</ele><time>2026-04-06T11:24:54Z</time></trkpt><trkpt lat="40.6572046" lon="14.7092271"><ele>77.5</ele><time>2026-04-06T11:24:55Z</time></trkpt><trkpt lat="40.6570996" lon="14.7091348"><ele>82.0</ele><time>2026-04-06T11:24:56Z</time></trkpt><trkpt lat="40.6569814" lon="14.7090649"><ele>75.75</ele><time>2026-04-06T11:24:57Z</time></trkpt><trkpt lat="40.6568574" lon="14.7090038"><ele>69.5</ele><time>2026-04-06T11:24:58Z</time></trkpt><trkpt lat="40.6567333" lon="14.7089365"><ele>63.25</ele><time>2026-04-06T11:24:58.999Z</time></trkpt><trkpt lat="40.6566191" lon="14.7088673"><ele>57.0</ele><time>2026-04-06T11:25:00Z</time></trkpt><trkpt lat="40.6565121" lon="14.7088075"><ele>57.0</ele><time>2026-04-06T11:25:01Z</time></trkpt><trkpt lat="40.6564334" lon="14.7087298"><ele>57.0</ele><time>2026-04-06T11:25:02Z</time></trkpt><trkpt lat="40.6563727" lon="14.7086297"><ele>57.0</ele><time>2026-04-06T11:25:03Z</time></trkpt><trkpt lat="40.6563476" lon="14.7085132"><ele>57.0</ele><time>2026-04-06T11:25:04Z</time></trkpt><trkpt lat="40.6563359" lon="14.7083986"><ele>57.0</ele><time>2026-04-06T11:25:05Z</time></trkpt><trkpt lat="40.6562942" lon="14.7083033"><ele>59.8</ele><time>2026-04-06T11:25:06Z</time></trkpt><trkpt lat="40.6562742" lon="14.7082059"><ele>62.6</ele><time>2026-04-06T11:25:07Z</time></trkpt><trkpt lat="40.6561698" lon="14.7081942"><ele>65.39999999999999</ele><time>2026-04-06T11:25:08Z</time></trkpt><trkpt lat="40.6560768" lon="14.7082012"><ele>68.2</ele><time>2026-04-06T11:25:09Z</time></trkpt><trkpt lat="40.6559771" lon="14.7082377"><ele>71.0</ele><time>2026-04-06T11:25:10Z</time></trkpt><trkpt lat="40.6558767" lon="14.7082924"><ele>71.0</ele><time>2026-04-06T11:25:11Z</time></trkpt><trkpt lat="40.6557833" lon="14.7083257"><ele>71.0</ele><time>2026-04-06T11:25:12Z</time></trkpt><trkpt lat="40.6556794" lon="14.7083186"><ele>71.0</ele><time>2026-04-06T11:25:13Z</time></trkpt><trkpt lat="40.6555649" lon="14.7082843"><ele>71.0</ele><time>2026-04-06T11:25:14Z</time></trkpt><trkpt lat="40.6554486" lon="14.7082517"><ele>71.0</ele><time>2026-04-06T11:25:15Z</time></trkpt><trkpt lat="40.6553389" lon="14.7082388"><ele>68.2</ele><time>2026-04-06T11:25:16Z</time></trkpt><trkpt lat="40.6552367" lon="14.7082292"><ele>65.39999999999999</ele><time>2026-04-06T11:25:17Z</time></trkpt><trkpt lat="40.6551425" lon="14.7081837"><ele>62.6</ele><time>2026-04-06T11:25:17.999Z</time></trkpt><trkpt lat="40.6550528" lon="14.7081159"><ele>59.8</ele><time>2026-04-06T11:25:19Z</time></trkpt><trkpt lat="40.654957" lon="14.708064"><ele>57.0</ele><time>2026-04-06T11:25:20Z</time></trkpt><trkpt lat="40.654857" lon="14.7080465"><ele>57.0</ele><time>2026-04-06T11:25:20.999Z</time></trkpt><trkpt lat="40.6547599" lon="14.7080239"><ele>57.0</ele><time>2026-04-06T11:25:22Z</time></trkpt><trkpt lat="40.6546651" lon="14.7079872"><ele>57.0</ele><time>2026-04-06T11:25:23Z</time></trkpt><trkpt lat="40.6545651" lon="14.7079186"><ele>57.0</ele><time>2026-04-06T11:25:24Z</time></trkpt><trkpt lat="40.6544588" lon="14.7078574"><ele>57.0</ele><time>2026-04-06T11:25:25Z</time></trkpt><trkpt lat="40.6543606" lon="14.7078175"><ele>59.2</ele><time>2026-04-06T11:25:26Z</time></trkpt><trkpt lat="40.6542661" lon="14.7077859"><ele>61.400000000000006</ele><time>2026-04-06T11:25:27Z</time></trkpt><trkpt lat="40.6541776" lon="14.7077469"><ele>63.599999999999994</ele><time>2026-04-06T11:25:28Z</time></trkpt><trkpt lat="40.6541075" lon="14.7076837"><ele>65.8</ele><time>2026-04-06T11:25:29Z</time></trkpt><trkpt lat="40.6540307" lon="14.7075912"><ele>68.0</ele><time>2026-04-06T11:25:30Z</time></trkpt><trkpt lat="40.6539654" lon="14.7074862"><ele>68.0</ele><time>2026-04-06T11:25:31Z</time></trkpt><trkpt lat="40.6539152" lon="14.7073812"><ele>68.0</ele><time>2026-04-06T11:25:32Z</time></trkpt><trkpt lat="40.6538888" lon="14.7072741"><ele>68.0</ele><time>2026-04-06T11:25:32.999Z</time></trkpt><trkpt lat="40.6538813" lon="14.7071692"><ele>68.0</ele><time>2026-04-06T11:25:34Z</time></trkpt><trkpt lat="40.6538471" lon="14.7070828"><ele>68.0</ele><time>2026-04-06T11:25:35Z</time></trkpt><trkpt lat="40.6538126" lon="14.7070106"><ele>68.0</ele><time>2026-04-06T11:25:35.999Z</time></trkpt><trkpt lat="40.6536438" lon="14.7070291"><ele>56.66666666666667</ele><time>2026-04-06T11:25:36.999Z</time></trkpt><trkpt lat="40.6534792" lon="14.7069949"><ele>45.333333333333336</ele><time>2026-04-06T11:25:38Z</time></trkpt><trkpt lat="40.6533314" lon="14.7069613"><ele>34.0</ele><time>2026-04-06T11:25:38.999Z</time></trkpt><trkpt lat="40.6532028" lon="14.7069149"><ele>45.0</ele><time>2026-04-06T11:25:40Z</time></trkpt><trkpt lat="40.653103" lon="14.7068226"><ele>56.0</ele><time>2026-04-06T11:25:41Z</time></trkpt><trkpt lat="40.6530005" lon="14.7066795"><ele>67.0</ele><time>2026-04-06T11:25:42Z</time></trkpt><trkpt lat="40.6528918" lon="14.7065348"><ele>78.0</ele><time>2026-04-06T11:25:43Z</time></trkpt><trkpt lat="40.6528058" lon="14.7063766"><ele>79.75</ele><time>2026-04-06T11:25:44Z</time></trkpt><trkpt lat="40.6527173" lon="14.7062422"><ele>81.5</ele><time>2026-04-06T11:25:45Z</time></trkpt><trkpt lat="40.6525992" lon="14.7061683"><ele>83.25</ele><time>2026-04-06T11:25:46Z</time></trkpt><trkpt lat="40.6524716" lon="14.706115"><ele>85.0</ele><time>2026-04-06T11:25:47Z</time></trkpt><trkpt lat="40.6523515" lon="14.7060574"><ele>85.0</ele><time>2026-04-06T11:25:48Z</time></trkpt><trkpt lat="40.6522397" lon="14.7059916"><ele>85.0</ele><time>2026-04-06T11:25:49Z</time></trkpt><trkpt lat="40.6521149" lon="14.7059772"><ele>85.0</ele><time>2026-04-06T11:25:50Z</time></trkpt><trkpt lat="40.652004" lon="14.7059842"><ele>85.0</ele><time>2026-04-06T11:25:51Z</time></trkpt><trkpt lat="40.6519009" lon="14.7059561"><ele>77.5</ele><time>2026-04-06T11:25:52Z</time></trkpt><trkpt lat="40.6517933" lon="14.705888"><ele>70.0</ele><time>2026-04-06T11:25:52.999Z</time></trkpt><trkpt lat="40.6517009" lon="14.705776"><ele>62.5</ele><time>2026-04-06T11:25:54Z</time></trkpt><trkpt lat="40.6516299" lon="14.7056572"><ele>55.0</ele><time>2026-04-06T11:25:54.999Z</time></trkpt><trkpt lat="40.6515922" lon="14.7055419"><ele>54.99999999999999</ele><time>2026-04-06T11:25:56Z</time></trkpt><trkpt lat="40.6515817" lon="14.70546"><ele>55.0</ele><time>2026-04-06T11:25:57Z</time></trkpt><trkpt lat="40.6515722" lon="14.7053717"><ele>55.0</ele><time>2026-04-06T11:25:58Z</time></trkpt><trkpt lat="40.6515476" lon="14.7052033"><ele>55.0</ele><time>2026-04-06T11:26:00Z</time></trkpt><trkpt lat="40.6514954" lon="14.7051466"><ele>54.99999999999999</ele><time>2026-04-06T11:26:01Z</time></trkpt><trkpt lat="40.6514224" lon="14.7051152"><ele>55.0</ele><time>2026-04-06T11:26:02Z</time></trkpt><trkpt lat="40.6513402" lon="14.7050961"><ele>52.75</ele><time>2026-04-06T11:26:03Z</time></trkpt><trkpt lat="40.6512479" lon="14.7050734"><ele>50.5</ele><time>2026-04-06T11:26:04Z</time></trkpt><trkpt lat="40.6511261" lon="14.7050191"><ele>48.25</ele><time>2026-04-06T11:26:04.999Z</time></trkpt><trkpt lat="40.6509941" lon="14.7049323"><ele>46.0</ele><time>2026-04-06T11:26:06Z</time></trkpt><trkpt lat="40.6508747" lon="14.7048485"><ele>46.0</ele><time>2026-04-06T11:26:07Z</time></trkpt><trkpt lat="40.6507765" lon="14.7047716"><ele>46.0</ele><time>2026-04-06T11:26:08Z</time></trkpt><trkpt lat="40.6507159" lon="14.7046719"><ele>46.0</ele><time>2026-04-06T11:26:09Z</time></trkpt><trkpt lat="40.6507019" lon="14.7045622"><ele>46.0</ele><time>2026-04-06T11:26:09.999Z</time></trkpt><trkpt lat="40.6507326" lon="14.7044471"><ele>46.0</ele><time>2026-04-06T11:26:11Z</time></trkpt><trkpt lat="40.6507664" lon="14.7043241"><ele>52.0</ele><time>2026-04-06T11:26:12Z</time></trkpt><trkpt lat="40.6507594" lon="14.7042163"><ele>58.0</ele><time>2026-04-06T11:26:13Z</time></trkpt><trkpt lat="40.6507141" lon="14.7041263"><ele>64.0</ele><time>2026-04-06T11:26:14Z</time></trkpt><trkpt lat="40.6506525" lon="14.7040907"><ele>70.0</ele><time>2026-04-06T11:26:15Z</time></trkpt><trkpt lat="40.6505784" lon="14.7040853"><ele>76.0</ele><time>2026-04-06T11:26:16Z</time></trkpt><trkpt lat="40.650467" lon="14.7040911"><ele>82.0</ele><time>2026-04-06T11:26:17Z</time></trkpt><trkpt lat="40.6503259" lon="14.7041282"><ele>76.0</ele><time>2026-04-06T11:26:18Z</time></trkpt><trkpt lat="40.6501732" lon="14.7041968"><ele>70.0</ele><time>2026-04-06T11:26:19Z</time></trkpt><trkpt lat="40.6500437" lon="14.7042712"><ele>64.0</ele><time>2026-04-06T11:26:20Z</time></trkpt><trkpt lat="40.6499235" lon="14.7043311"><ele>58.0</ele><time>2026-04-06T11:26:20.999Z</time></trkpt><trkpt lat="40.6498148" lon="14.7043461"><ele>58.0</ele><time>2026-04-06T11:26:22Z</time></trkpt><trkpt lat="40.649709" lon="14.7043129"><ele>58.0</ele><time>2026-04-06T11:26:23Z</time></trkpt><trkpt lat="40.6495844" lon="14.7042664"><ele>58.0</ele><time>2026-04-06T11:26:24Z</time></trkpt><trkpt lat="40.649451" lon="14.7042554"><ele>58.0</ele><time>2026-04-06T11:26:25Z</time></trkpt><trkpt lat="40.6493147" lon="14.7042128"><ele>52.25</ele><time>2026-04-06T11:26:26Z</time></trkpt><trkpt lat="40.6491975" lon="14.7041496"><ele>46.5</ele><time>2026-04-06T11:26:26.999Z</time></trkpt><trkpt lat="40.6490934" lon="14.7040658"><ele>40.75</ele><time>2026-04-06T11:26:28Z</time></trkpt><trkpt lat="40.6490086" lon="14.7039564"><ele>35.0</ele><time>2026-04-06T11:26:28.999Z</time></trkpt><trkpt lat="40.6489484" lon="14.7038281"><ele>35.0</ele><time>2026-04-06T11:26:30Z</time></trkpt><trkpt lat="40.6488952" lon="14.7036921"><ele>35.0</ele><time>2026-04-06T11:26:31Z</time></trkpt><trkpt lat="40.6488477" lon="14.7035658"><ele>35.0</ele><time>2026-04-06T11:26:32Z</time></trkpt><trkpt lat="40.6488" lon="14.7034425"><ele>35.0</ele><time>2026-04-06T11:26:33Z</time></trkpt><trkpt lat="40.6487279" lon="14.7033574"><ele>35.0</ele><time>2026-04-06T11:26:34Z</time></trkpt><trkpt lat="40.6486402" lon="14.7033215"><ele>41.5</ele><time>2026-04-06T11:26:35Z</time></trkpt><trkpt lat="40.6485427" lon="14.7033159"><ele>48.0</ele><time>2026-04-06T11:26:36Z</time></trkpt><trkpt lat="40.6484246" lon="14.7033316"><ele>54.5</ele><time>2026-04-06T11:26:37Z</time></trkpt><trkpt lat="40.648305" lon="14.7033561"><ele>61.0</ele><time>2026-04-06T11:26:38Z</time></trkpt><trkpt lat="40.6481862" lon="14.7033946"><ele>61.0</ele><time>2026-04-06T11:26:39Z</time></trkpt><trkpt lat="40.6480781" lon="14.7034513"><ele>60.99999999999999</ele><time>2026-04-06T11:26:40Z</time></trkpt><trkpt lat="40.6479897" lon="14.7035217"><ele>60.99999999999999</ele><time>2026-04-06T11:26:41Z</time></trkpt><trkpt lat="40.6479216" lon="14.703593"><ele>61.0</ele><time>2026-04-06T11:26:42Z</time></trkpt><trkpt lat="40.6478659" lon="14.7036416"><ele>61.0</ele><time>2026-04-06T11:26:43Z</time></trkpt><trkpt lat="40.6477855" lon="14.7036946"><ele>55.0</ele><time>2026-04-06T11:26:45Z</time></trkpt><trkpt lat="40.6476996" lon="14.7037446"><ele>48.99999999999999</ele><time>2026-04-06T11:26:47Z</time></trkpt><trkpt lat="40.647586" lon="14.7037522"><ele>43.0</ele><time>2026-04-06T11:26:48.999Z</time></trkpt><trkpt lat="40.6474927" lon="14.7037234"><ele>37.0</ele><time>2026-04-06T11:26:50Z</time></trkpt><trkpt lat="40.6473887" lon="14.7036545"><ele>31.0</ele><time>2026-04-06T11:26:51Z</time></trkpt><trkpt lat="40.647303" lon="14.7035677"><ele>31.0</ele><time>2026-04-06T11:26:51.999Z</time></trkpt><trkpt lat="40.6472318" lon="14.7034648"><ele>31.0</ele><time>2026-04-06T11:26:53Z</time></trkpt><trkpt lat="40.647182" lon="14.7033598"><ele>31.0</ele><time>2026-04-06T11:26:54Z</time></trkpt><trkpt lat="40.6471599" lon="14.7032426"><ele>31.0</ele><time>2026-04-06T11:26:55Z</time></trkpt><trkpt lat="40.6471491" lon="14.7031321"><ele>31.0</ele><time>2026-04-06T11:26:56Z</time></trkpt><trkpt lat="40.6471427" lon="14.7030241"><ele>31.000000000000004</ele><time>2026-04-06T11:26:57Z</time></trkpt><trkpt lat="40.6471431" lon="14.7029223"><ele>31.0</ele><time>2026-04-06T11:26:58Z</time></trkpt><trkpt lat="40.6471678" lon="14.7028308"><ele>31.0</ele><time>2026-04-06T11:26:59Z</time></trkpt><trkpt lat="40.6472067" lon="14.7027322"><ele>31.0</ele><time>2026-04-06T11:27:00Z</time></trkpt><trkpt lat="40.6472487" lon="14.7026227"><ele>31.000000000000004</ele><time>2026-04-06T11:27:01Z</time></trkpt><trkpt lat="40.6473055" lon="14.7025169"><ele>31.0</ele><time>2026-04-06T11:27:02Z</time></trkpt><trkpt lat="40.6473479" lon="14.7023922"><ele>30.8</ele><time>2026-04-06T11:27:03Z</time></trkpt><trkpt lat="40.647379" lon="14.702256"><ele>30.6</ele><time>2026-04-06T11:27:04Z</time></trkpt><trkpt lat="40.6473736" lon="14.7020927"><ele>30.4</ele><time>2026-04-06T11:27:05Z</time></trkpt><trkpt lat="40.6473926" lon="14.7019374"><ele>30.2</ele><time>2026-04-06T11:27:06Z</time></trkpt><trkpt lat="40.6474195" lon="14.7018151"><ele>30.0</ele><time>2026-04-06T11:27:07Z</time></trkpt><trkpt lat="40.6474557" lon="14.7016996"><ele>30.0</ele><time>2026-04-06T11:27:08Z</time></trkpt><trkpt lat="40.6475012" lon="14.70162"><ele>30.0</ele><time>2026-04-06T11:27:09Z</time></trkpt><trkpt lat="40.6475546" lon="14.701481"><ele>30.0</ele><time>2026-04-06T11:27:10.999Z</time></trkpt><trkpt lat="40.6475875" lon="14.7013741"><ele>30.0</ele><time>2026-04-06T11:27:13Z</time></trkpt><trkpt lat="40.6476071" lon="14.7012729"><ele>30.0</ele><time>2026-04-06T11:27:15Z</time></trkpt><trkpt lat="40.6476561" lon="14.7011888"><ele>30.0</ele><time>2026-04-06T11:27:17Z</time></trkpt><trkpt lat="40.6476852" lon="14.7011018"><ele>31.4</ele><time>2026-04-06T11:27:20Z</time></trkpt><trkpt lat="40.6477239" lon="14.7009926"><ele>32.8</ele><time>2026-04-06T11:27:23Z</time></trkpt><trkpt lat="40.647765" lon="14.7009053"><ele>34.2</ele><time>2026-04-06T11:27:26Z</time></trkpt><trkpt lat="40.6477958" lon="14.7008239"><ele>35.6</ele><time>2026-04-06T11:27:28Z</time></trkpt><trkpt lat="40.6478094" lon="14.7007022"><ele>37.0</ele><time>2026-04-06T11:27:30Z</time></trkpt><trkpt lat="40.6477224" lon="14.7005817"><ele>33.800000000000004</ele><time>2026-04-06T11:27:32Z</time></trkpt><trkpt lat="40.647665" lon="14.7005043"><ele>30.6</ele><time>2026-04-06T11:27:33Z</time></trkpt><trkpt lat="40.6476126" lon="14.7004405"><ele>27.400000000000002</ele><time>2026-04-06T11:27:34Z</time></trkpt><trkpt lat="40.6475037" lon="14.7003601"><ele>24.200000000000003</ele><time>2026-04-06T11:27:36Z</time></trkpt><trkpt lat="40.6474239" lon="14.7003285"><ele>21.0</ele><time>2026-04-06T11:27:37Z</time></trkpt><trkpt lat="40.6473357" lon="14.7003224"><ele>21.0</ele><time>2026-04-06T11:27:38Z</time></trkpt><trkpt lat="40.6472362" lon="14.7003508"><ele>21.0</ele><time>2026-04-06T11:27:39Z</time></trkpt><trkpt lat="40.6471292" lon="14.7003926"><ele>21.0</ele><time>2026-04-06T11:27:40Z</time></trkpt><trkpt lat="40.647015" lon="14.7004465"><ele>21.0</ele><time>2026-04-06T11:27:41Z</time></trkpt><trkpt lat="40.6469132" lon="14.7005"><ele>21.0</ele><time>2026-04-06T11:27:42Z</time></trkpt><trkpt lat="40.646823" lon="14.7005582"><ele>22.0</ele><time>2026-04-06T11:27:43Z</time></trkpt><trkpt lat="40.6467363" lon="14.7006051"><ele>23.0</ele><time>2026-04-06T11:27:44Z</time></trkpt><trkpt lat="40.6466559" lon="14.7006634"><ele>24.0</ele><time>2026-04-06T11:27:45Z</time></trkpt><trkpt lat="40.6465807" lon="14.7007182"><ele>25.0</ele><time>2026-04-06T11:27:46Z</time></trkpt><trkpt lat="40.6465137" lon="14.700772"><ele>26.0</ele><time>2026-04-06T11:27:46.999Z</time></trkpt><trkpt lat="40.6464491" lon="14.7008126"><ele>27.0</ele><time>2026-04-06T11:27:48Z</time></trkpt><trkpt lat="40.6463908" lon="14.7008767"><ele>27.0</ele><time>2026-04-06T11:27:49Z</time></trkpt><trkpt lat="40.6463501" lon="14.7009626"><ele>27.000000000000004</ele><time>2026-04-06T11:27:50Z</time></trkpt><trkpt lat="40.6463078" lon="14.7010374"><ele>27.000000000000004</ele><time>2026-04-06T11:27:51Z</time></trkpt><trkpt lat="40.6462645" lon="14.7011099"><ele>27.0</ele><time>2026-04-06T11:27:52Z</time></trkpt><trkpt lat="40.6462056" lon="14.7012363"><ele>27.0</ele><time>2026-04-06T11:27:54Z</time></trkpt><trkpt lat="40.6461245" lon="14.7013561"><ele>23.200000000000003</ele><time>2026-04-06T11:27:56Z</time></trkpt><trkpt lat="40.6460433" lon="14.7014079"><ele>19.400000000000002</ele><time>2026-04-06T11:27:58Z</time></trkpt><trkpt lat="40.6459529" lon="14.7013978"><ele>15.600000000000001</ele><time>2026-04-06T11:28:00Z</time></trkpt><trkpt lat="40.6458741" lon="14.701301"><ele>11.8</ele><time>2026-04-06T11:28:01.999Z</time></trkpt><trkpt lat="40.6457952" lon="14.7011845"><ele>8.0</ele><time>2026-04-06T11:28:04Z</time></trkpt><trkpt lat="40.6457438" lon="14.7011307"><ele>7.999999999999999</ele><time>2026-04-06T11:28:05Z</time></trkpt><trkpt lat="40.6456806" lon="14.7010842"><ele>8.0</ele><time>2026-04-06T11:28:06Z</time></trkpt><trkpt lat="40.6456109" lon="14.7010525"><ele>8.0</ele><time>2026-04-06T11:28:07Z</time></trkpt><trkpt lat="40.6455469" lon="14.7010229"><ele>8.0</ele><time>2026-04-06T11:28:08Z</time></trkpt><trkpt lat="40.6454867" lon="14.7009834"><ele>7.999999999999999</ele><time>2026-04-06T11:28:09Z</time></trkpt><trkpt lat="40.6454332" lon="14.7009131"><ele>8.0</ele><time>2026-04-06T11:28:10Z</time></trkpt><trkpt lat="40.6453757" lon="14.7008082"><ele>8.25</ele><time>2026-04-06T11:28:11Z</time></trkpt><trkpt lat="40.64532" lon="14.7006589"><ele>8.5</ele><time>2026-04-06T11:28:12Z</time></trkpt><trkpt lat="40.6452694" lon="14.700476"><ele>8.75</ele><time>2026-04-06T11:28:13Z</time></trkpt><trkpt lat="40.6452142" lon="14.7002751"><ele>9.0</ele><time>2026-04-06T11:28:14Z</time></trkpt><trkpt lat="40.6451391" lon="14.7000547"><ele>16.666666666666664</ele><time>2026-04-06T11:28:15Z</time></trkpt><trkpt lat="40.6450519" lon="14.6998441"><ele>24.333333333333332</ele><time>2026-04-06T11:28:16Z</time></trkpt><trkpt lat="40.6449617" lon="14.6996543"><ele>32.0</ele><time>2026-04-06T11:28:17Z</time></trkpt><trkpt lat="40.6448757" lon="14.6994781"><ele>42.0</ele><time>2026-04-06T11:28:18Z</time></trkpt><trkpt lat="40.6447877" lon="14.6993055"><ele>52.0</ele><time>2026-04-06T11:28:19Z</time></trkpt><trkpt lat="40.6446979" lon="14.6991294"><ele>62.0</ele><time>2026-04-06T11:28:20Z</time></trkpt><trkpt lat="40.6445927" lon="14.6989496"><ele>62.0</ele><time>2026-04-06T11:28:21Z</time></trkpt><trkpt lat="40.6444692" lon="14.6987523"><ele>62.0</ele><time>2026-04-06T11:28:22Z</time></trkpt><trkpt lat="40.6443451" lon="14.698535"><ele>62.0</ele><time>2026-04-06T11:28:23Z</time></trkpt><trkpt lat="40.6442203" lon="14.6983157"><ele>55.66666666666667</ele><time>2026-04-06T11:28:24Z</time></trkpt><trkpt lat="40.6441253" lon="14.6981574"><ele>49.333333333333336</ele><time>2026-04-06T11:28:24.999Z</time></trkpt><trkpt lat="40.6440228" lon="14.6979751"><ele>43.0</ele><time>2026-04-06T11:28:26Z</time></trkpt><trkpt lat="40.6439334" lon="14.6978336"><ele>48.2</ele><time>2026-04-06T11:28:27Z</time></trkpt><trkpt lat="40.6438397" lon="14.6977103"><ele>53.4</ele><time>2026-04-06T11:28:28Z</time></trkpt><trkpt lat="40.6437546" lon="14.6976235"><ele>58.60000000000001</ele><time>2026-04-06T11:28:29Z</time></trkpt><trkpt lat="40.6436631" lon="14.6975955"><ele>63.800000000000004</ele><time>2026-04-06T11:28:30Z</time></trkpt><trkpt lat="40.643565" lon="14.6976027"><ele>69.0</ele><time>2026-04-06T11:28:31Z</time></trkpt><trkpt lat="40.6434445" lon="14.6976491"><ele>55.666666666666664</ele><time>2026-04-06T11:28:32Z</time></trkpt><trkpt lat="40.643281" lon="14.6978347"><ele>42.33333333333333</ele><time>2026-04-06T11:28:32.999Z</time></trkpt><trkpt lat="40.6431444" lon="14.6979898"><ele>29.0</ele><time>2026-04-06T11:28:34Z</time></trkpt><trkpt lat="40.6430115" lon="14.6980635"><ele>29.0</ele><time>2026-04-06T11:28:35Z</time></trkpt><trkpt lat="40.642889" lon="14.6981001"><ele>29.0</ele><time>2026-04-06T11:28:36Z</time></trkpt><trkpt lat="40.6427668" lon="14.6980936"><ele>29.0</ele><time>2026-04-06T11:28:37Z</time></trkpt><trkpt lat="40.6426419" lon="14.6980887"><ele>29.0</ele><time>2026-04-06T11:28:38Z</time></trkpt><trkpt lat="40.642529" lon="14.6980356"><ele>28.2</ele><time>2026-04-06T11:28:39Z</time></trkpt><trkpt lat="40.6424161" lon="14.6979995"><ele>27.4</ele><time>2026-04-06T11:28:40Z</time></trkpt><trkpt lat="40.6423168" lon="14.6979637"><ele>26.6</ele><time>2026-04-06T11:28:41Z</time></trkpt><trkpt lat="40.6422258" lon="14.6979289"><ele>25.8</ele><time>2026-04-06T11:28:42Z</time></trkpt><trkpt lat="40.6421565" lon="14.6978823"><ele>25.0</ele><time>2026-04-06T11:28:43Z</time></trkpt><trkpt lat="40.6420895" lon="14.6978291"><ele>31.6</ele><time>2026-04-06T11:28:44Z</time></trkpt><trkpt lat="40.6421096" lon="14.6977259"><ele>38.2</ele><time>2026-04-06T11:28:45Z</time></trkpt><trkpt lat="40.6421405" lon="14.6975661"><ele>44.8</ele><time>2026-04-06T11:28:47Z</time></trkpt><trkpt lat="40.6421856" lon="14.6974161"><ele>51.4</ele><time>2026-04-06T11:28:49Z</time></trkpt><trkpt lat="40.6421549" lon="14.6972932"><ele>58.0</ele><time>2026-04-06T11:28:51Z</time></trkpt><trkpt lat="40.6420477" lon="14.6971976"><ele>53.5</ele><time>2026-04-06T11:28:53Z</time></trkpt><trkpt lat="40.6419311" lon="14.6972241"><ele>49.0</ele><time>2026-04-06T11:28:53.999Z</time></trkpt><trkpt lat="40.6417884" lon="14.6972373"><ele>44.5</ele><time>2026-04-06T11:28:55Z</time></trkpt><trkpt lat="40.6416414" lon="14.6972216"><ele>40.0</ele><time>2026-04-06T11:28:56Z</time></trkpt><trkpt lat="40.6414806" lon="14.6972106"><ele>40.0</ele><time>2026-04-06T11:28:57Z</time></trkpt><trkpt lat="40.6413056" lon="14.6972332"><ele>40.0</ele><time>2026-04-06T11:28:58Z</time></trkpt><trkpt lat="40.6411193" lon="14.6972888"><ele>40.0</ele><time>2026-04-06T11:28:59Z</time></trkpt><trkpt lat="40.6409538" lon="14.6973687"><ele>40.0</ele><time>2026-04-06T11:29:00Z</time></trkpt><trkpt lat="40.6408048" lon="14.6974572"><ele>40.0</ele><time>2026-04-06T11:29:01Z</time></trkpt><trkpt lat="40.6406609" lon="14.6975268"><ele>40.0</ele><time>2026-04-06T11:29:02Z</time></trkpt><trkpt lat="40.6405472" lon="14.697549"><ele>40.0</ele><time>2026-04-06T11:29:03Z</time></trkpt><trkpt lat="40.6404501" lon="14.697548"><ele>40.0</ele><time>2026-04-06T11:29:03.999Z</time></trkpt><trkpt lat="40.6403886" lon="14.6974878"><ele>40.0</ele><time>2026-04-06T11:29:05Z</time></trkpt><trkpt lat="40.6403621" lon="14.6973929"><ele>40.0</ele><time>2026-04-06T11:29:06Z</time></trkpt><trkpt lat="40.6403963" lon="14.6972819"><ele>40.0</ele><time>2026-04-06T11:29:07Z</time></trkpt><trkpt lat="40.6404672" lon="14.6971407"><ele>40.0</ele><time>2026-04-06T11:29:08Z</time></trkpt><trkpt lat="40.6405392" lon="14.6969779"><ele>42.75</ele><time>2026-04-06T11:29:09Z</time></trkpt><trkpt lat="40.6405984" lon="14.69682"><ele>45.5</ele><time>2026-04-06T11:29:10Z</time></trkpt><trkpt lat="40.6406677" lon="14.6966947"><ele>48.25</ele><time>2026-04-06T11:29:11Z</time></trkpt><trkpt lat="40.6407566" lon="14.6966118"><ele>51.0</ele><time>2026-04-06T11:29:12Z</time></trkpt><trkpt lat="40.640858" lon="14.6965518"><ele>51.0</ele><time>2026-04-06T11:29:13Z</time></trkpt><trkpt lat="40.6409496" lon="14.6964844"><ele>51.0</ele><time>2026-04-06T11:29:13.999Z</time></trkpt><trkpt lat="40.64103" lon="14.6964029"><ele>51.0</ele><time>2026-04-06T11:29:15Z</time></trkpt><trkpt lat="40.6410931" lon="14.6963149"><ele>51.0</ele><time>2026-04-06T11:29:16Z</time></trkpt><trkpt lat="40.6411426" lon="14.6962369"><ele>51.0</ele><time>2026-04-06T11:29:17Z</time></trkpt><trkpt lat="40.6411803" lon="14.696169"><ele>51.0</ele><time>2026-04-06T11:29:18Z</time></trkpt><trkpt lat="40.6412159" lon="14.6961003"><ele>52.4</ele><time>2026-04-06T11:29:19Z</time></trkpt><trkpt lat="40.6412043" lon="14.6959508"><ele>53.8</ele><time>2026-04-06T11:29:21Z</time></trkpt><trkpt lat="40.6411307" lon="14.695841"><ele>55.199999999999996</ele><time>2026-04-06T11:29:23Z</time></trkpt><trkpt lat="40.6410672" lon="14.6957931"><ele>56.599999999999994</ele><time>2026-04-06T11:29:24Z</time></trkpt><trkpt lat="40.6409901" lon="14.6957688"><ele>58.0</ele><time>2026-04-06T11:29:25Z</time></trkpt><trkpt lat="40.6409304" lon="14.6957116"><ele>57.99999999999999</ele><time>2026-04-06T11:29:26Z</time></trkpt><trkpt lat="40.6408891" lon="14.6956365"><ele>58.0</ele><time>2026-04-06T11:29:27Z</time></trkpt><trkpt lat="40.6408419" lon="14.6955442"><ele>58.0</ele><time>2026-04-06T11:29:28Z</time></trkpt><trkpt lat="40.6407848" lon="14.6954632"><ele>58.0</ele><time>2026-04-06T11:29:29Z</time></trkpt><trkpt lat="40.6407189" lon="14.6953923"><ele>57.99999999999999</ele><time>2026-04-06T11:29:30Z</time></trkpt><trkpt lat="40.6406416" lon="14.6953362"><ele>58.0</ele><time>2026-04-06T11:29:31Z</time></trkpt><trkpt lat="40.6405505" lon="14.6953038"><ele>58.0</ele><time>2026-04-06T11:29:31.999Z</time></trkpt><trkpt lat="40.6404492" lon="14.6952908"><ele>58.0</ele><time>2026-04-06T11:29:33Z</time></trkpt><trkpt lat="40.6403432" lon="14.6952892"><ele>58.0</ele><time>2026-04-06T11:29:34Z</time></trkpt><trkpt lat="40.6402301" lon="14.6953194"><ele>58.0</ele><time>2026-04-06T11:29:35Z</time></trkpt><trkpt lat="40.6401234" lon="14.6953489"><ele>58.0</ele><time>2026-04-06T11:29:36Z</time></trkpt><trkpt lat="40.6400158" lon="14.6953948"><ele>56.25</ele><time>2026-04-06T11:29:37Z</time></trkpt><trkpt lat="40.6398978" lon="14.6954708"><ele>54.5</ele><time>2026-04-06T11:29:38Z</time></trkpt><trkpt lat="40.6397784" lon="14.6955513"><ele>52.75</ele><time>2026-04-06T11:29:39Z</time></trkpt><trkpt lat="40.6396512" lon="14.695663"><ele>51.0</ele><time>2026-04-06T11:29:40Z</time></trkpt><trkpt lat="40.6395331" lon="14.6957497"><ele>52.4</ele><time>2026-04-06T11:29:41Z</time></trkpt><trkpt lat="40.639447" lon="14.6958064"><ele>53.8</ele><time>2026-04-06T11:29:41.999Z</time></trkpt><trkpt lat="40.6393658" lon="14.6958591"><ele>55.199999999999996</ele><time>2026-04-06T11:29:42.999Z</time></trkpt><trkpt lat="40.63928" lon="14.6958768"><ele>56.599999999999994</ele><time>2026-04-06T11:29:44Z</time></trkpt><trkpt lat="40.6392088" lon="14.6958766"><ele>58.0</ele><time>2026-04-06T11:29:45Z</time></trkpt><trkpt lat="40.6391087" lon="14.6957403"><ele>58.0</ele><time>2026-04-06T11:29:47Z</time></trkpt><trkpt lat="40.6390431" lon="14.6956143"><ele>58.0</ele><time>2026-04-06T11:29:48Z</time></trkpt><trkpt lat="40.638971" lon="14.6954438"><ele>58.0</ele><time>2026-04-06T11:29:49Z</time></trkpt><trkpt lat="40.6388792" lon="14.6952906"><ele>58.0</ele><time>2026-04-06T11:29:50Z</time></trkpt><trkpt lat="40.6387883" lon="14.6951493"><ele>63.0</ele><time>2026-04-06T11:29:51Z</time></trkpt><trkpt lat="40.6387046" lon="14.6949987"><ele>68.0</ele><time>2026-04-06T11:29:52Z</time></trkpt><trkpt lat="40.6386485" lon="14.6948661"><ele>73.0</ele><time>2026-04-06T11:29:53Z</time></trkpt><trkpt lat="40.6387131" lon="14.6946984"><ele>78.0</ele><time>2026-04-06T11:29:55Z</time></trkpt><trkpt lat="40.6387876" lon="14.6945605"><ele>78.0</ele><time>2026-04-06T11:29:56Z</time></trkpt><trkpt lat="40.638879" lon="14.6944521"><ele>78.0</ele><time>2026-04-06T11:29:57Z</time></trkpt><trkpt lat="40.6389836" lon="14.6943419"><ele>78.0</ele><time>2026-04-06T11:29:58Z</time></trkpt><trkpt lat="40.6390922" lon="14.6942341"><ele>78.0</ele><time>2026-04-06T11:29:59Z</time></trkpt><trkpt lat="40.6391912" lon="14.6941302"><ele>75.75</ele><time>2026-04-06T11:30:00Z</time></trkpt><trkpt lat="40.6392817" lon="14.6940202"><ele>73.5</ele><time>2026-04-06T11:30:01Z</time></trkpt><trkpt lat="40.6393529" lon="14.6938916"><ele>71.25</ele><time>2026-04-06T11:30:02Z</time></trkpt><trkpt lat="40.6394409" lon="14.6937363"><ele>69.0</ele><time>2026-04-06T11:30:03Z</time></trkpt><trkpt lat="40.6395269" lon="14.6935837"><ele>75.80000000000001</ele><time>2026-04-06T11:30:03.999Z</time></trkpt><trkpt lat="40.6395952" lon="14.6934376"><ele>82.60000000000001</ele><time>2026-04-06T11:30:05Z</time></trkpt><trkpt lat="40.6396313" lon="14.6932867"><ele>89.4</ele><time>2026-04-06T11:30:05.999Z</time></trkpt><trkpt lat="40.6396636" lon="14.6931534"><ele>96.2</ele><time>2026-04-06T11:30:07Z</time></trkpt><trkpt lat="40.6396761" lon="14.6930567"><ele>103.0</ele><time>2026-04-06T11:30:08Z</time></trkpt><trkpt lat="40.6397183" lon="14.6929809"><ele>102.99999999999999</ele><time>2026-04-06T11:30:09Z</time></trkpt><trkpt lat="40.6397629" lon="14.6929108"><ele>103.0</ele><time>2026-04-06T11:30:10Z</time></trkpt><trkpt lat="40.6397932" lon="14.6928351"><ele>103.0</ele><time>2026-04-06T11:30:10.999Z</time></trkpt><trkpt lat="40.6398093" lon="14.6927462"><ele>103.0</ele><time>2026-04-06T11:30:12Z</time></trkpt><trkpt lat="40.6398081" lon="14.6926559"><ele>103.0</ele><time>2026-04-06T11:30:13Z</time></trkpt><trkpt lat="40.6397941" lon="14.6925656"><ele>102.99999999999999</ele><time>2026-04-06T11:30:14Z</time></trkpt><trkpt lat="40.6397778" lon="14.6924757"><ele>103.0</ele><time>2026-04-06T11:30:15Z</time></trkpt><trkpt lat="40.639757" lon="14.6923814"><ele>102.33333333333334</ele><time>2026-04-06T11:30:16Z</time></trkpt><trkpt lat="40.6397475" lon="14.692286"><ele>101.66666666666667</ele><time>2026-04-06T11:30:17Z</time></trkpt><trkpt lat="40.6397561" lon="14.6921744"><ele>101.0</ele><time>2026-04-06T11:30:18Z</time></trkpt><trkpt lat="40.6397795" lon="14.6920689"><ele>100.33333333333334</ele><time>2026-04-06T11:30:19Z</time></trkpt><trkpt lat="40.6398025" lon="14.6919702"><ele>99.66666666666667</ele><time>2026-04-06T11:30:20Z</time></trkpt><trkpt lat="40.6398213" lon="14.6918675"><ele>99.0</ele><time>2026-04-06T11:30:21Z</time></trkpt><trkpt lat="40.6398496" lon="14.6917412"><ele>97.5</ele><time>2026-04-06T11:30:23Z</time></trkpt><trkpt lat="40.6398749" lon="14.6916296"><ele>96.0</ele><time>2026-04-06T11:30:26Z</time></trkpt><trkpt lat="40.6399007" lon="14.6915434"><ele>94.5</ele><time>2026-04-06T11:30:28Z</time></trkpt><trkpt lat="40.6399416" lon="14.6914498"><ele>93.0</ele><time>2026-04-06T11:30:29Z</time></trkpt><trkpt lat="40.6399883" lon="14.691378"><ele>91.5</ele><time>2026-04-06T11:30:29.999Z</time></trkpt><trkpt lat="40.6400361" lon="14.6913046"><ele>90.0</ele><time>2026-04-06T11:30:31Z</time></trkpt><trkpt lat="40.6400768" lon="14.6911983"><ele>85.5</ele><time>2026-04-06T11:30:32Z</time></trkpt><trkpt lat="40.6401002" lon="14.6910892"><ele>81.0</ele><time>2026-04-06T11:30:33Z</time></trkpt><trkpt lat="40.6401344" lon="14.6909906"><ele>76.5</ele><time>2026-04-06T11:30:34Z</time></trkpt><trkpt lat="40.6401687" lon="14.6908992"><ele>72.0</ele><time>2026-04-06T11:30:35Z</time></trkpt><trkpt lat="40.6402661" lon="14.6908031"><ele>67.5</ele><time>2026-04-06T11:30:37Z</time></trkpt><trkpt lat="40.6403336" lon="14.6907726"><ele>63.0</ele><time>2026-04-06T11:30:38Z</time></trkpt><trkpt lat="40.6404064" lon="14.6907568"><ele>68.0</ele><time>2026-04-06T11:30:39Z</time></trkpt><trkpt lat="40.6404819" lon="14.6907381"><ele>73.0</ele><time>2026-04-06T11:30:40Z</time></trkpt><trkpt lat="40.6405363" lon="14.6906159"><ele>78.0</ele><time>2026-04-06T11:30:42Z</time></trkpt><trkpt lat="40.6405677" lon="14.6904589"><ele>83.0</ele><time>2026-04-06T11:30:44Z</time></trkpt><trkpt lat="40.6405821" lon="14.6903711"><ele>88.0</ele><time>2026-04-06T11:30:45Z</time></trkpt><trkpt lat="40.6405976" lon="14.6902842"><ele>93.0</ele><time>2026-04-06T11:30:46Z</time></trkpt><trkpt lat="40.6406204" lon="14.690189"><ele>93.0</ele><time>2026-04-06T11:30:47Z</time></trkpt><trkpt lat="40.6406577" lon="14.6900839"><ele>93.0</ele><time>2026-04-06T11:30:48Z</time></trkpt><trkpt lat="40.6407039" lon="14.6899697"><ele>93.0</ele><time>2026-04-06T11:30:49Z</time></trkpt><trkpt lat="40.6407485" lon="14.6898638"><ele>93.0</ele><time>2026-04-06T11:30:50Z</time></trkpt><trkpt lat="40.6407911" lon="14.6897555"><ele>93.0</ele><time>2026-04-06T11:30:51Z</time></trkpt><trkpt lat="40.6408437" lon="14.6896653"><ele>93.0</ele><time>2026-04-06T11:30:52Z</time></trkpt><trkpt lat="40.6409068" lon="14.6895852"><ele>93.0</ele><time>2026-04-06T11:30:52.999Z</time></trkpt><trkpt lat="40.6409629" lon="14.6895029"><ele>93.0</ele><time>2026-04-06T11:30:54Z</time></trkpt><trkpt lat="40.6410261" lon="14.6894275"><ele>93.0</ele><time>2026-04-06T11:30:55Z</time></trkpt><trkpt lat="40.6410907" lon="14.6893594"><ele>93.0</ele><time>2026-04-06T11:30:56Z</time></trkpt><trkpt lat="40.641169" lon="14.689343"><ele>93.0</ele><time>2026-04-06T11:30:57Z</time></trkpt><trkpt lat="40.6412237" lon="14.6892938"><ele>102.83333333333333</ele><time>2026-04-06T11:30:58Z</time></trkpt><trkpt lat="40.6412793" lon="14.6892398"><ele>112.66666666666666</ele><time>2026-04-06T11:30:59Z</time></trkpt><trkpt lat="40.6412783" lon="14.6890855"><ele>122.5</ele><time>2026-04-06T11:31:00Z</time></trkpt><trkpt lat="40.641284" lon="14.6889809"><ele>132.33333333333331</ele><time>2026-04-06T11:31:01Z</time></trkpt><trkpt lat="40.6412827" lon="14.6888682"><ele>142.16666666666666</ele><time>2026-04-06T11:31:02Z</time></trkpt><trkpt lat="40.6412818" lon="14.688755"><ele>152.0</ele><time>2026-04-06T11:31:03Z</time></trkpt><trkpt lat="40.6412767" lon="14.6886322"><ele>149.33333333333331</ele><time>2026-04-06T11:31:04Z</time></trkpt><trkpt lat="40.6412458" lon="14.6885326"><ele>146.66666666666666</ele><time>2026-04-06T11:31:05Z</time></trkpt><trkpt lat="40.6412169" lon="14.6884311"><ele>144.0</ele><time>2026-04-06T11:31:06Z</time></trkpt><trkpt lat="40.6411783" lon="14.6883461"><ele>141.33333333333334</ele><time>2026-04-06T11:31:07Z</time></trkpt><trkpt lat="40.6411401" lon="14.6882709"><ele>138.66666666666669</ele><time>2026-04-06T11:31:08Z</time></trkpt><trkpt lat="40.6410915" lon="14.6881993"><ele>136.0</ele><time>2026-04-06T11:31:09Z</time></trkpt><trkpt lat="40.6410244" lon="14.6881473"><ele>128.0</ele><time>2026-04-06T11:31:10Z</time></trkpt><trkpt lat="40.6409496" lon="14.6881121"><ele>120.0</ele><time>2026-04-06T11:31:10.999Z</time></trkpt><trkpt lat="40.6408616" lon="14.6880909"><ele>112.0</ele><time>2026-04-06T11:31:12Z</time></trkpt><trkpt lat="40.6407707" lon="14.6880661"><ele>104.0</ele><time>2026-04-06T11:31:12.999Z</time></trkpt><trkpt lat="40.6406972" lon="14.6880456"><ele>96.0</ele><time>2026-04-06T11:31:14Z</time></trkpt><trkpt lat="40.6406343" lon="14.6880319"><ele>88.0</ele><time>2026-04-06T11:31:15Z</time></trkpt><trkpt lat="40.6405377" lon="14.6880917"><ele>88.0</ele><time>2026-04-06T11:31:17Z</time></trkpt><trkpt lat="40.6405119" lon="14.6881681"><ele>88.0</ele><time>2026-04-06T11:31:18Z</time></trkpt><trkpt lat="40.6404953" lon="14.6882659"><ele>88.0</ele><time>2026-04-06T11:31:19Z</time></trkpt><trkpt lat="40.6404821" lon="14.6883812"><ele>88.0</ele><time>2026-04-06T11:31:20Z</time></trkpt><trkpt lat="40.6404702" lon="14.6884825"><ele>88.0</ele><time>2026-04-06T11:31:21Z</time></trkpt><trkpt lat="40.6404553" lon="14.6885881"><ele>88.0</ele><time>2026-04-06T11:31:22Z</time></trkpt><trkpt lat="40.6404293" lon="14.6886822"><ele>86.2</ele><time>2026-04-06T11:31:23Z</time></trkpt><trkpt lat="40.640379" lon="14.6887508"><ele>84.4</ele><time>2026-04-06T11:31:24Z</time></trkpt><trkpt lat="40.6403102" lon="14.688786"><ele>82.60000000000001</ele><time>2026-04-06T11:31:25Z</time></trkpt><trkpt lat="40.6402282" lon="14.688803"><ele>80.80000000000001</ele><time>2026-04-06T11:31:25.999Z</time></trkpt><trkpt lat="40.6401505" lon="14.6888265"><ele>79.0</ele><time>2026-04-06T11:31:27.193Z</time></trkpt><trkpt lat="40.6399834" lon="14.6889065"><ele>79.0</ele><time>2026-04-06T11:31:29Z</time></trkpt><trkpt lat="40.6398929" lon="14.6889576"><ele>79.0</ele><time>2026-04-06T11:31:30Z</time></trkpt><trkpt lat="40.6398095" lon="14.6890057"><ele>79.0</ele><time>2026-04-06T11:31:31Z</time></trkpt><trkpt lat="40.6397354" lon="14.6890507"><ele>79.0</ele><time>2026-04-06T11:31:32Z</time></trkpt><trkpt lat="40.6396622" lon="14.6891019"><ele>79.0</ele><time>2026-04-06T11:31:33Z</time></trkpt><trkpt lat="40.6395923" lon="14.6891643"><ele>79.0</ele><time>2026-04-06T11:31:33.999Z</time></trkpt><trkpt lat="40.6395253" lon="14.6892278"><ele>83.66666666666666</ele><time>2026-04-06T11:31:35Z</time></trkpt><trkpt lat="40.6394565" lon="14.6892872"><ele>88.33333333333333</ele><time>2026-04-06T11:31:36Z</time></trkpt><trkpt lat="40.6393825" lon="14.6893395"><ele>93.0</ele><time>2026-04-06T11:31:37Z</time></trkpt><trkpt lat="40.6393011" lon="14.6893684"><ele>97.66666666666666</ele><time>2026-04-06T11:31:38Z</time></trkpt><trkpt lat="40.6392165" lon="14.689384"><ele>102.33333333333333</ele><time>2026-04-06T11:31:38.999Z</time></trkpt><trkpt lat="40.6391362" lon="14.6893949"><ele>107.0</ele><time>2026-04-06T11:31:39.999Z</time></trkpt><trkpt lat="40.6390477" lon="14.6894009"><ele>96.75</ele><time>2026-04-06T11:31:41Z</time></trkpt><trkpt lat="40.6389535" lon="14.6894373"><ele>86.5</ele><time>2026-04-06T11:31:42Z</time></trkpt><trkpt lat="40.638842" lon="14.6895501"><ele>76.25</ele><time>2026-04-06T11:31:42.999Z</time></trkpt><trkpt lat="40.6387343" lon="14.689651"><ele>66.0</ele><time>2026-04-06T11:31:44Z</time></trkpt><trkpt lat="40.638638" lon="14.6897314"><ele>71.0</ele><time>2026-04-06T11:31:45Z</time></trkpt><trkpt lat="40.6385594" lon="14.6898207"><ele>76.0</ele><time>2026-04-06T11:31:46Z</time></trkpt><trkpt lat="40.6384984" lon="14.6898974"><ele>81.0</ele><time>2026-04-06T11:31:47Z</time></trkpt><trkpt lat="40.638438" lon="14.689984"><ele>86.0</ele><time>2026-04-06T11:31:48Z</time></trkpt><trkpt lat="40.6383907" lon="14.6900589"><ele>91.0</ele><time>2026-04-06T11:31:49Z</time></trkpt><trkpt lat="40.6383428" lon="14.6901292"><ele>96.0</ele><time>2026-04-06T11:31:50Z</time></trkpt><trkpt lat="40.638222" lon="14.6900912"><ele>96.0</ele><time>2026-04-06T11:31:51Z</time></trkpt><trkpt lat="40.6381501" lon="14.6900748"><ele>96.0</ele><time>2026-04-06T11:31:52Z</time></trkpt><trkpt lat="40.6380685" lon="14.6900484"><ele>96.0</ele><time>2026-04-06T11:31:53Z</time></trkpt><trkpt lat="40.6379829" lon="14.6900154"><ele>96.0</ele><time>2026-04-06T11:31:54Z</time></trkpt><trkpt lat="40.6378968" lon="14.6899847"><ele>96.0</ele><time>2026-04-06T11:31:55Z</time></trkpt><trkpt lat="40.6378165" lon="14.6899535"><ele>96.0</ele><time>2026-04-06T11:31:56Z</time></trkpt><trkpt lat="40.6377313" lon="14.6899077"><ele>99.16666666666667</ele><time>2026-04-06T11:31:57Z</time></trkpt><trkpt lat="40.6376658" lon="14.6899209"><ele>102.33333333333334</ele><time>2026-04-06T11:31:58Z</time></trkpt><trkpt lat="40.6375916" lon="14.6899255"><ele>105.5</ele><time>2026-04-06T11:31:59Z</time></trkpt><trkpt lat="40.6375129" lon="14.6899527"><ele>108.66666666666667</ele><time>2026-04-06T11:32:00Z</time></trkpt><trkpt lat="40.6374338" lon="14.6899952"><ele>111.83333333333334</ele><time>2026-04-06T11:32:01Z</time></trkpt><trkpt lat="40.6373693" lon="14.6900666"><ele>115.0</ele><time>2026-04-06T11:32:02Z</time></trkpt><trkpt lat="40.6373049" lon="14.6901491"><ele>115.0</ele><time>2026-04-06T11:32:02.999Z</time></trkpt><trkpt lat="40.6372515" lon="14.690249"><ele>115.0</ele><time>2026-04-06T11:32:04Z</time></trkpt><trkpt lat="40.6372069" lon="14.690385"><ele>115.0</ele><time>2026-04-06T11:32:05Z</time></trkpt><trkpt lat="40.6371623" lon="14.6905629"><ele>115.0</ele><time>2026-04-06T11:32:06Z</time></trkpt><trkpt lat="40.6371031" lon="14.6907451"><ele>113.0</ele><time>2026-04-06T11:32:07Z</time></trkpt><trkpt lat="40.6369797" lon="14.6909145"><ele>111.0</ele><time>2026-04-06T11:32:07.999Z</time></trkpt><trkpt lat="40.6369496" lon="14.6910893"><ele>109.0</ele><time>2026-04-06T11:32:09Z</time></trkpt><trkpt lat="40.6369261" lon="14.6912503"><ele>107.0</ele><time>2026-04-06T11:32:10Z</time></trkpt><trkpt lat="40.6368791" lon="14.6913888"><ele>107.0</ele><time>2026-04-06T11:32:11Z</time></trkpt><trkpt lat="40.6368132" lon="14.6915007"><ele>106.99999999999999</ele><time>2026-04-06T11:32:12Z</time></trkpt><trkpt lat="40.6367295" lon="14.691571"><ele>106.99999999999999</ele><time>2026-04-06T11:32:13Z</time></trkpt><trkpt lat="40.6366436" lon="14.6916085"><ele>107.0</ele><time>2026-04-06T11:32:14Z</time></trkpt><trkpt lat="40.6365497" lon="14.6916221"><ele>107.0</ele><time>2026-04-06T11:32:15Z</time></trkpt><trkpt lat="40.6364603" lon="14.6916103"><ele>107.0</ele><time>2026-04-06T11:32:16Z</time></trkpt><trkpt lat="40.6363661" lon="14.6915837"><ele>106.99999999999999</ele><time>2026-04-06T11:32:17Z</time></trkpt><trkpt lat="40.6362667" lon="14.6915406"><ele>106.99999999999999</ele><time>2026-04-06T11:32:18Z</time></trkpt><trkpt lat="40.6361673" lon="14.6914913"><ele>107.0</ele><time>2026-04-06T11:32:19Z</time></trkpt><trkpt lat="40.6360747" lon="14.6914493"><ele>107.0</ele><time>2026-04-06T11:32:20Z</time></trkpt><trkpt lat="40.635988" lon="14.6914172"><ele>105.66666666666666</ele><time>2026-04-06T11:32:20.999Z</time></trkpt><trkpt lat="40.6358962" lon="14.6913959"><ele>104.33333333333333</ele><time>2026-04-06T11:32:22Z</time></trkpt><trkpt lat="40.6358056" lon="14.6913686"><ele>103.0</ele><time>2026-04-06T11:32:23Z</time></trkpt><trkpt lat="40.6357176" lon="14.6913434"><ele>101.66666666666666</ele><time>2026-04-06T11:32:24Z</time></trkpt><trkpt lat="40.6356414" lon="14.691311"><ele>100.33333333333333</ele><time>2026-04-06T11:32:25Z</time></trkpt><trkpt lat="40.6355711" lon="14.6912749"><ele>99.0</ele><time>2026-04-06T11:32:26Z</time></trkpt><trkpt lat="40.6355163" lon="14.6911937"><ele>100.75</ele><time>2026-04-06T11:32:27Z</time></trkpt><trkpt lat="40.6354617" lon="14.6910863"><ele>102.5</ele><time>2026-04-06T11:32:28Z</time></trkpt><trkpt lat="40.6353986" lon="14.6909342"><ele>104.25</ele><time>2026-04-06T11:32:29Z</time></trkpt><trkpt lat="40.6353284" lon="14.6907447"><ele>106.0</ele><time>2026-04-06T11:32:29.999Z</time></trkpt><trkpt lat="40.6352703" lon="14.6905695"><ele>106.0</ele><time>2026-04-06T11:32:31Z</time></trkpt><trkpt lat="40.6352117" lon="14.6904178"><ele>106.0</ele><time>2026-04-06T11:32:32Z</time></trkpt><trkpt lat="40.6351537" lon="14.6902944"><ele>106.0</ele><time>2026-04-06T11:32:33Z</time></trkpt><trkpt lat="40.6351029" lon="14.6901803"><ele>106.0</ele><time>2026-04-06T11:32:33.999Z</time></trkpt><trkpt lat="40.6350602" lon="14.6900427"><ele>114.66666666666667</ele><time>2026-04-06T11:32:35Z</time></trkpt><trkpt lat="40.6350287" lon="14.6898518"><ele>123.33333333333334</ele><time>2026-04-06T11:32:35.999Z</time></trkpt><trkpt lat="40.6350096" lon="14.6896296"><ele>132.0</ele><time>2026-04-06T11:32:37Z</time></trkpt><trkpt lat="40.6349817" lon="14.689418"><ele>136.33333333333334</ele><time>2026-04-06T11:32:38Z</time></trkpt><trkpt lat="40.6348904" lon="14.6892184"><ele>140.66666666666669</ele><time>2026-04-06T11:32:39Z</time></trkpt><trkpt lat="40.6348141" lon="14.6890024"><ele>145.0</ele><time>2026-04-06T11:32:40Z</time></trkpt><trkpt lat="40.6346497" lon="14.6888765"><ele>145.0</ele><time>2026-04-06T11:32:41Z</time></trkpt><trkpt lat="40.634523" lon="14.6887124"><ele>145.0</ele><time>2026-04-06T11:32:42Z</time></trkpt><trkpt lat="40.634463" lon="14.6885534"><ele>145.0</ele><time>2026-04-06T11:32:43Z</time></trkpt><trkpt lat="40.6343869" lon="14.6883707"><ele>145.0</ele><time>2026-04-06T11:32:44Z</time></trkpt><trkpt lat="40.6342985" lon="14.6882219"><ele>145.0</ele><time>2026-04-06T11:32:45Z</time></trkpt><trkpt lat="40.6342138" lon="14.6880937"><ele>145.0</ele><time>2026-04-06T11:32:46Z</time></trkpt><trkpt lat="40.6341359" lon="14.6879535"><ele>145.0</ele><time>2026-04-06T11:32:47Z</time></trkpt><trkpt lat="40.6341824" lon="14.6877994"><ele>145.0</ele><time>2026-04-06T11:32:47.999Z</time></trkpt><trkpt lat="40.6341792" lon="14.6876481"><ele>145.0</ele><time>2026-04-06T11:32:48.999Z</time></trkpt><trkpt lat="40.6341913" lon="14.6874239"><ele>145.0</ele><time>2026-04-06T11:32:50Z</time></trkpt><trkpt lat="40.6341994" lon="14.6871903"><ele>145.0</ele><time>2026-04-06T11:32:51Z</time></trkpt><trkpt lat="40.6342183" lon="14.686981"><ele>145.0</ele><time>2026-04-06T11:32:52Z</time></trkpt><trkpt lat="40.6342569" lon="14.6867706"><ele>145.0</ele><time>2026-04-06T11:32:53Z</time></trkpt><trkpt lat="40.6344153" lon="14.6867116"><ele>155.0</ele><time>2026-04-06T11:32:54Z</time></trkpt><trkpt lat="40.634525" lon="14.6866074"><ele>165.0</ele><time>2026-04-06T11:32:55Z</time></trkpt><trkpt lat="40.6346493" lon="14.6865019"><ele>175.0</ele><time>2026-04-06T11:32:56Z</time></trkpt><trkpt lat="40.6347443" lon="14.6863716"><ele>185.0</ele><time>2026-04-06T11:32:57Z</time></trkpt><trkpt lat="40.6348159" lon="14.6862173"><ele>182.8</ele><time>2026-04-06T11:32:58Z</time></trkpt><trkpt lat="40.6347935" lon="14.6860805"><ele>180.6</ele><time>2026-04-06T11:32:59Z</time></trkpt><trkpt lat="40.6347545" lon="14.6859351"><ele>178.39999999999998</ele><time>2026-04-06T11:33:00Z</time></trkpt><trkpt lat="40.6346727" lon="14.6858257"><ele>176.2</ele><time>2026-04-06T11:33:01Z</time></trkpt><trkpt lat="40.63462" lon="14.6857237"><ele>174.0</ele><time>2026-04-06T11:33:02Z</time></trkpt><trkpt lat="40.6345667" lon="14.6856248"><ele>174.0</ele><time>2026-04-06T11:33:03Z</time></trkpt><trkpt lat="40.6346302" lon="14.6854736"><ele>174.0</ele><time>2026-04-06T11:33:04Z</time></trkpt><trkpt lat="40.634632" lon="14.6853333"><ele>174.0</ele><time>2026-04-06T11:33:05Z</time></trkpt><trkpt lat="40.63471" lon="14.6851316"><ele>174.0</ele><time>2026-04-06T11:33:06Z</time></trkpt><trkpt lat="40.6347553" lon="14.6850148"><ele>172.5</ele><time>2026-04-06T11:33:07Z</time></trkpt><trkpt lat="40.634758" lon="14.684815"><ele>171.0</ele><time>2026-04-06T11:33:08Z</time></trkpt><trkpt lat="40.6348086" lon="14.6846308"><ele>169.5</ele><time>2026-04-06T11:33:09Z</time></trkpt><trkpt lat="40.6347716" lon="14.6845116"><ele>168.0</ele><time>2026-04-06T11:33:10Z</time></trkpt><trkpt lat="40.6348405" lon="14.684381"><ele>168.0</ele><time>2026-04-06T11:33:11Z</time></trkpt><trkpt lat="40.634946" lon="14.6841983"><ele>168.0</ele><time>2026-04-06T11:33:11.999Z</time></trkpt><trkpt lat="40.6350577" lon="14.6840253"><ele>168.0</ele><time>2026-04-06T11:33:13Z</time></trkpt><trkpt lat="40.6351686" lon="14.6838554"><ele>168.0</ele><time>2026-04-06T11:33:13.999Z</time></trkpt><trkpt lat="40.6352907" lon="14.6836786"><ele>168.0</ele><time>2026-04-06T11:33:15Z</time></trkpt><trkpt lat="40.6353874" lon="14.6835863"><ele>168.0</ele><time>2026-04-06T11:33:16Z</time></trkpt><trkpt lat="40.6354309" lon="14.6834058"><ele>168.0</ele><time>2026-04-06T11:33:17Z</time></trkpt><trkpt lat="40.6352713" lon="14.6832636"><ele>169.0</ele><time>2026-04-06T11:33:18Z</time></trkpt><trkpt lat="40.6352428" lon="14.6830869"><ele>170.0</ele><time>2026-04-06T11:33:19Z</time></trkpt><trkpt lat="40.6351952" lon="14.6829039"><ele>171.0</ele><time>2026-04-06T11:33:20Z</time></trkpt><trkpt lat="40.6351477" lon="14.6827217"><ele>172.0</ele><time>2026-04-06T11:33:20.999Z</time></trkpt><trkpt lat="40.634782" lon="14.6816511"><ele>172.8</ele><time>2026-04-06T11:33:26Z</time></trkpt><trkpt lat="40.6347584" lon="14.6815035"><ele>173.6</ele><time>2026-04-06T11:33:27Z</time></trkpt><trkpt lat="40.6347711" lon="14.6813866"><ele>174.4</ele><time>2026-04-06T11:33:28Z</time></trkpt><trkpt lat="40.6347836" lon="14.6812456"><ele>175.20000000000002</ele><time>2026-04-06T11:33:29Z</time></trkpt><trkpt lat="40.6348366" lon="14.6811244"><ele>176.0</ele><time>2026-04-06T11:33:30Z</time></trkpt><trkpt lat="40.6350298" lon="14.6810392"><ele>172.0</ele><time>2026-04-06T11:33:31Z</time></trkpt><trkpt lat="40.6351297" lon="14.6809014"><ele>168.0</ele><time>2026-04-06T11:33:32Z</time></trkpt><trkpt lat="40.635222" lon="14.6807585"><ele>164.0</ele><time>2026-04-06T11:33:33Z</time></trkpt><trkpt lat="40.635283" lon="14.6805875"><ele>160.0</ele><time>2026-04-06T11:33:34Z</time></trkpt><trkpt lat="40.6352328" lon="14.6803833"><ele>160.0</ele><time>2026-04-06T11:33:35Z</time></trkpt><trkpt lat="40.6352299" lon="14.6802056"><ele>160.0</ele><time>2026-04-06T11:33:36Z</time></trkpt><trkpt lat="40.6352018" lon="14.6800464"><ele>160.0</ele><time>2026-04-06T11:33:37Z</time></trkpt><trkpt lat="40.6351712" lon="14.6798986"><ele>160.0</ele><time>2026-04-06T11:33:38Z</time></trkpt><trkpt lat="40.6351117" lon="14.6797697"><ele>160.0</ele><time>2026-04-06T11:33:39Z</time></trkpt><trkpt lat="40.6350506" lon="14.6796517"><ele>160.0</ele><time>2026-04-06T11:33:40Z</time></trkpt><trkpt lat="40.6349836" lon="14.6795903"><ele>160.0</ele><time>2026-04-06T11:33:41Z</time></trkpt><trkpt lat="40.6349145" lon="14.6794786"><ele>160.0</ele><time>2026-04-06T11:33:42Z</time></trkpt><trkpt lat="40.6348487" lon="14.6793834"><ele>160.0</ele><time>2026-04-06T11:33:43Z</time></trkpt><trkpt lat="40.6347173" lon="14.6792763"><ele>162.0</ele><time>2026-04-06T11:33:46Z</time></trkpt><trkpt lat="40.6347283" lon="14.6791497"><ele>164.0</ele><time>2026-04-06T11:33:48Z</time></trkpt><trkpt lat="40.6347512" lon="14.6790657"><ele>166.0</ele><time>2026-04-06T11:33:49Z</time></trkpt><trkpt lat="40.6347872" lon="14.6789773"><ele>168.0</ele><time>2026-04-06T11:33:50Z</time></trkpt><trkpt lat="40.6348773" lon="14.6788941"><ele>170.0</ele><time>2026-04-06T11:33:51Z</time></trkpt><trkpt lat="40.6349627" lon="14.6788222"><ele>170.0</ele><time>2026-04-06T11:33:52Z</time></trkpt><trkpt lat="40.6350704" lon="14.678791"><ele>170.0</ele><time>2026-04-06T11:33:52.999Z</time></trkpt><trkpt lat="40.6351698" lon="14.6787578"><ele>170.0</ele><time>2026-04-06T11:33:54Z</time></trkpt><trkpt lat="40.6352697" lon="14.6786938"><ele>170.0</ele><time>2026-04-06T11:33:55Z</time></trkpt><trkpt lat="40.6353828" lon="14.6785674"><ele>171.5</ele><time>2026-04-06T11:33:56Z</time></trkpt><trkpt lat="40.6354908" lon="14.6784239"><ele>173.0</ele><time>2026-04-06T11:33:57Z</time></trkpt><trkpt lat="40.6355977" lon="14.6782996"><ele>174.5</ele><time>2026-04-06T11:33:58Z</time></trkpt><trkpt lat="40.6357086" lon="14.6782278"><ele>176.0</ele><time>2026-04-06T11:33:59Z</time></trkpt><trkpt lat="40.6358233" lon="14.6781652"><ele>176.0</ele><time>2026-04-06T11:33:59.999Z</time></trkpt><trkpt lat="40.6359663" lon="14.6781575"><ele>176.0</ele><time>2026-04-06T11:34:01Z</time></trkpt><trkpt lat="40.6360903" lon="14.6782864"><ele>176.0</ele><time>2026-04-06T11:34:02Z</time></trkpt><trkpt lat="40.6362382" lon="14.6784202"><ele>176.0</ele><time>2026-04-06T11:34:03Z</time></trkpt><trkpt lat="40.6363865" lon="14.678476"><ele>176.0</ele><time>2026-04-06T11:34:04Z</time></trkpt><trkpt lat="40.6365276" lon="14.6785289"><ele>176.0</ele><time>2026-04-06T11:34:05Z</time></trkpt><trkpt lat="40.6366574" lon="14.6785436"><ele>176.0</ele><time>2026-04-06T11:34:06Z</time></trkpt><trkpt lat="40.636795" lon="14.6785387"><ele>176.0</ele><time>2026-04-06T11:34:06.999Z</time></trkpt><trkpt lat="40.6369076" lon="14.678517"><ele>176.0</ele><time>2026-04-06T11:34:08Z</time></trkpt><trkpt lat="40.6369811" lon="14.6784373"><ele>176.0</ele><time>2026-04-06T11:34:09Z</time></trkpt><trkpt lat="40.6369415" lon="14.6782362"><ele>176.0</ele><time>2026-04-06T11:34:10Z</time></trkpt><trkpt lat="40.6369308" lon="14.6781311"><ele>176.0</ele><time>2026-04-06T11:34:11Z</time></trkpt><trkpt lat="40.6368659" lon="14.6780055"><ele>176.0</ele><time>2026-04-06T11:34:12Z</time></trkpt><trkpt lat="40.6368507" lon="14.6778948"><ele>176.0</ele><time>2026-04-06T11:34:13Z</time></trkpt><trkpt lat="40.6368479" lon="14.6777849"><ele>176.0</ele><time>2026-04-06T11:34:14Z</time></trkpt><trkpt lat="40.6368684" lon="14.6776871"><ele>176.0</ele><time>2026-04-06T11:34:15Z</time></trkpt><trkpt lat="40.6369087" lon="14.6775836"><ele>176.0</ele><time>2026-04-06T11:34:16Z</time></trkpt><trkpt lat="40.6369463" lon="14.6774709"><ele>176.0</ele><time>2026-04-06T11:34:17Z</time></trkpt><trkpt lat="40.6369933" lon="14.6773596"><ele>177.4</ele><time>2026-04-06T11:34:18Z</time></trkpt><trkpt lat="40.6370588" lon="14.6772507"><ele>178.8</ele><time>2026-04-06T11:34:18.999Z</time></trkpt><trkpt lat="40.6371287" lon="14.6771541"><ele>180.20000000000002</ele><time>2026-04-06T11:34:20Z</time></trkpt><trkpt lat="40.6372038" lon="14.6770769"><ele>181.60000000000002</ele><time>2026-04-06T11:34:21Z</time></trkpt><trkpt lat="40.6372709" lon="14.6769921"><ele>183.0</ele><time>2026-04-06T11:34:22Z</time></trkpt><trkpt lat="40.6373329" lon="14.6769154"><ele>183.0</ele><time>2026-04-06T11:34:23Z</time></trkpt><trkpt lat="40.6373735" lon="14.6768059"><ele>183.0</ele><time>2026-04-06T11:34:24Z</time></trkpt><trkpt lat="40.6373828" lon="14.6766719"><ele>183.0</ele><time>2026-04-06T11:34:25Z</time></trkpt><trkpt lat="40.6373763" lon="14.6765126"><ele>183.0</ele><time>2026-04-06T11:34:26Z</time></trkpt><trkpt lat="40.6373795" lon="14.6763457"><ele>183.0</ele><time>2026-04-06T11:34:27Z</time></trkpt><trkpt lat="40.6373814" lon="14.6761489"><ele>182.0</ele><time>2026-04-06T11:34:28Z</time></trkpt><trkpt lat="40.6373638" lon="14.675919"><ele>181.0</ele><time>2026-04-06T11:34:29Z</time></trkpt><trkpt lat="40.6373523" lon="14.675624"><ele>180.0</ele><time>2026-04-06T11:34:30Z</time></trkpt><trkpt lat="40.6373538" lon="14.6754031"><ele>182.0</ele><time>2026-04-06T11:34:31Z</time></trkpt><trkpt lat="40.6373496" lon="14.6751842"><ele>184.0</ele><time>2026-04-06T11:34:32Z</time></trkpt><trkpt lat="40.6373181" lon="14.6749592"><ele>186.0</ele><time>2026-04-06T11:34:33Z</time></trkpt><trkpt lat="40.6372629" lon="14.6747765"><ele>186.0</ele><time>2026-04-06T11:34:34Z</time></trkpt><trkpt lat="40.6372091" lon="14.6745995"><ele>186.0</ele><time>2026-04-06T11:34:35Z</time></trkpt><trkpt lat="40.637181" lon="14.674398"><ele>186.0</ele><time>2026-04-06T11:34:35.999Z</time></trkpt><trkpt lat="40.6371743" lon="14.6742274"><ele>186.0</ele><time>2026-04-06T11:34:37Z</time></trkpt><trkpt lat="40.6371917" lon="14.6740856"><ele>182.75</ele><time>2026-04-06T11:34:38Z</time></trkpt><trkpt lat="40.6372357" lon="14.6739858"><ele>179.5</ele><time>2026-04-06T11:34:39Z</time></trkpt><trkpt lat="40.6372745" lon="14.6738885"><ele>176.25</ele><time>2026-04-06T11:34:40Z</time></trkpt><trkpt lat="40.63738" lon="14.6739032"><ele>173.0</ele><time>2026-04-06T11:34:41Z</time></trkpt><trkpt lat="40.6375948" lon="14.6738219"><ele>173.0</ele><time>2026-04-06T11:34:41.999Z</time></trkpt><trkpt lat="40.6377181" lon="14.6737452"><ele>173.0</ele><time>2026-04-06T11:34:43Z</time></trkpt><trkpt lat="40.6378353" lon="14.6736576"><ele>173.0</ele><time>2026-04-06T11:34:44Z</time></trkpt><trkpt lat="40.6379788" lon="14.6736355"><ele>173.0</ele><time>2026-04-06T11:34:45Z</time></trkpt><trkpt lat="40.6381252" lon="14.6736503"><ele>170.8</ele><time>2026-04-06T11:34:46Z</time></trkpt><trkpt lat="40.6382479" lon="14.6736512"><ele>168.60000000000002</ele><time>2026-04-06T11:34:47Z</time></trkpt><trkpt lat="40.6383508" lon="14.6736529"><ele>166.39999999999998</ele><time>2026-04-06T11:34:48Z</time></trkpt><trkpt lat="40.6384485" lon="14.6736316"><ele>164.2</ele><time>2026-04-06T11:34:49Z</time></trkpt><trkpt lat="40.638527" lon="14.6735592"><ele>162.0</ele><time>2026-04-06T11:34:50Z</time></trkpt><trkpt lat="40.6385749" lon="14.6734682"><ele>162.0</ele><time>2026-04-06T11:34:51Z</time></trkpt><trkpt lat="40.6386286" lon="14.6733485"><ele>162.0</ele><time>2026-04-06T11:34:52Z</time></trkpt><trkpt lat="40.6386817" lon="14.6732055"><ele>162.0</ele><time>2026-04-06T11:34:53Z</time></trkpt><trkpt lat="40.6385526" lon="14.6727797"><ele>157.5</ele><time>2026-04-06T11:34:53.999Z</time></trkpt><trkpt lat="40.6385295" lon="14.6725894"><ele>153.0</ele><time>2026-04-06T11:34:55Z</time></trkpt><trkpt lat="40.6385092" lon="14.6724136"><ele>148.5</ele><time>2026-04-06T11:34:55.999Z</time></trkpt><trkpt lat="40.6384837" lon="14.6722186"><ele>144.0</ele><time>2026-04-06T11:34:57Z</time></trkpt><trkpt lat="40.6385703" lon="14.6721497"><ele>144.0</ele><time>2026-04-06T11:34:58Z</time></trkpt><trkpt lat="40.6386152" lon="14.6720372"><ele>144.0</ele><time>2026-04-06T11:34:59Z</time></trkpt><trkpt lat="40.6387714" lon="14.6720956"><ele>144.0</ele><time>2026-04-06T11:35:00Z</time></trkpt><trkpt lat="40.6388629" lon="14.6720738"><ele>144.0</ele><time>2026-04-06T11:35:01Z</time></trkpt><trkpt lat="40.6389783" lon="14.672068"><ele>149.2</ele><time>2026-04-06T11:35:02Z</time></trkpt><trkpt lat="40.6390605" lon="14.6720281"><ele>154.4</ele><time>2026-04-06T11:35:02.999Z</time></trkpt><trkpt lat="40.6391452" lon="14.6719821"><ele>159.6</ele><time>2026-04-06T11:35:04Z</time></trkpt><trkpt lat="40.6391837" lon="14.6718805"><ele>164.8</ele><time>2026-04-06T11:35:05Z</time></trkpt><trkpt lat="40.6392102" lon="14.6717179"><ele>170.0</ele><time>2026-04-06T11:35:06Z</time></trkpt><trkpt lat="40.6392097" lon="14.6714329"><ele>170.0</ele><time>2026-04-06T11:35:07Z</time></trkpt><trkpt lat="40.6392386" lon="14.6712122"><ele>170.0</ele><time>2026-04-06T11:35:08Z</time></trkpt><trkpt lat="40.6392772" lon="14.6709996"><ele>170.0</ele><time>2026-04-06T11:35:09Z</time></trkpt><trkpt lat="40.6393063" lon="14.6707663"><ele>166.0</ele><time>2026-04-06T11:35:10Z</time></trkpt><trkpt lat="40.6393381" lon="14.67058"><ele>162.0</ele><time>2026-04-06T11:35:11Z</time></trkpt><trkpt lat="40.6393054" lon="14.6704438"><ele>158.0</ele><time>2026-04-06T11:35:12Z</time></trkpt><trkpt lat="40.6392394" lon="14.6702828"><ele>154.0</ele><time>2026-04-06T11:35:14Z</time></trkpt><trkpt lat="40.6391501" lon="14.6702265"><ele>154.0</ele><time>2026-04-06T11:35:15Z</time></trkpt><trkpt lat="40.6391049" lon="14.6701422"><ele>154.0</ele><time>2026-04-06T11:35:16Z</time></trkpt><trkpt lat="40.6390381" lon="14.6700687"><ele>154.0</ele><time>2026-04-06T11:35:17Z</time></trkpt><trkpt lat="40.6390009" lon="14.6699596"><ele>154.0</ele><time>2026-04-06T11:35:18Z</time></trkpt><trkpt lat="40.6389708" lon="14.6698326"><ele>154.0</ele><time>2026-04-06T11:35:19Z</time></trkpt><trkpt lat="40.6389399" lon="14.6697075"><ele>154.0</ele><time>2026-04-06T11:35:20Z</time></trkpt><trkpt lat="40.6389242" lon="14.669579"><ele>154.0</ele><time>2026-04-06T11:35:21Z</time></trkpt><trkpt lat="40.6389001" lon="14.6694546"><ele>154.0</ele><time>2026-04-06T11:35:22Z</time></trkpt><trkpt lat="40.6388716" lon="14.6693352"><ele>154.0</ele><time>2026-04-06T11:35:23Z</time></trkpt><trkpt lat="40.6388713" lon="14.6692125"><ele>154.0</ele><time>2026-04-06T11:35:24Z</time></trkpt><trkpt lat="40.6389138" lon="14.6690906"><ele>154.0</ele><time>2026-04-06T11:35:25Z</time></trkpt><trkpt lat="40.6389443" lon="14.6689739"><ele>154.0</ele><time>2026-04-06T11:35:26Z</time></trkpt><trkpt lat="40.6389694" lon="14.6688689"><ele>154.0</ele><time>2026-04-06T11:35:27Z</time></trkpt><trkpt lat="40.6390109" lon="14.668775"><ele>154.0</ele><time>2026-04-06T11:35:28Z</time></trkpt><trkpt lat="40.6390573" lon="14.6686881"><ele>154.0</ele><time>2026-04-06T11:35:28.999Z</time></trkpt><trkpt lat="40.6391128" lon="14.6686116"><ele>154.0</ele><time>2026-04-06T11:35:29.999Z</time></trkpt><trkpt lat="40.6391901" lon="14.6685677"><ele>154.4</ele><time>2026-04-06T11:35:31Z</time></trkpt><trkpt lat="40.6392725" lon="14.6685377"><ele>154.8</ele><time>2026-04-06T11:35:32Z</time></trkpt><trkpt lat="40.6393636" lon="14.668518"><ele>155.2</ele><time>2026-04-06T11:35:33Z</time></trkpt><trkpt lat="40.6394599" lon="14.6684917"><ele>155.6</ele><time>2026-04-06T11:35:34Z</time></trkpt><trkpt lat="40.6395561" lon="14.6684719"><ele>156.0</ele><time>2026-04-06T11:35:35Z</time></trkpt><trkpt lat="40.6396468" lon="14.6684529"><ele>156.0</ele><time>2026-04-06T11:35:36Z</time></trkpt><trkpt lat="40.6397323" lon="14.6684338"><ele>156.0</ele><time>2026-04-06T11:35:36.999Z</time></trkpt><trkpt lat="40.6398112" lon="14.6684067"><ele>156.0</ele><time>2026-04-06T11:35:38Z</time></trkpt><trkpt lat="40.6398796" lon="14.6683597"><ele>156.0</ele><time>2026-04-06T11:35:39Z</time></trkpt><trkpt lat="40.6399449" lon="14.6683069"><ele>156.0</ele><time>2026-04-06T11:35:40Z</time></trkpt><trkpt lat="40.6400075" lon="14.6682357"><ele>156.0</ele><time>2026-04-06T11:35:41Z</time></trkpt><trkpt lat="40.6400681" lon="14.6681554"><ele>156.0</ele><time>2026-04-06T11:35:42Z</time></trkpt><trkpt lat="40.6401318" lon="14.6680657"><ele>156.0</ele><time>2026-04-06T11:35:43Z</time></trkpt><trkpt lat="40.6402011" lon="14.6679812"><ele>156.0</ele><time>2026-04-06T11:35:44Z</time></trkpt><trkpt lat="40.6402814" lon="14.6679101"><ele>156.0</ele><time>2026-04-06T11:35:45Z</time></trkpt><trkpt lat="40.6403771" lon="14.6678599"><ele>156.0</ele><time>2026-04-06T11:35:46Z</time></trkpt><trkpt lat="40.6404827" lon="14.66782"><ele>160.0</ele><time>2026-04-06T11:35:47Z</time></trkpt><trkpt lat="40.6405841" lon="14.6677865"><ele>164.0</ele><time>2026-04-06T11:35:48Z</time></trkpt><trkpt lat="40.6406727" lon="14.6677353"><ele>168.0</ele><time>2026-04-06T11:35:49Z</time></trkpt><trkpt lat="40.6407694" lon="14.6676957"><ele>172.0</ele><time>2026-04-06T11:35:50Z</time></trkpt><trkpt lat="40.6408211" lon="14.6676134"><ele>176.0</ele><time>2026-04-06T11:35:50.999Z</time></trkpt><trkpt lat="40.6408954" lon="14.667562"><ele>168.83333333333331</ele><time>2026-04-06T11:35:52Z</time></trkpt><trkpt lat="40.6409734" lon="14.6675276"><ele>161.66666666666666</ele><time>2026-04-06T11:35:52.999Z</time></trkpt><trkpt lat="40.6410533" lon="14.6675089"><ele>154.5</ele><time>2026-04-06T11:35:54Z</time></trkpt><trkpt lat="40.6411232" lon="14.6674851"><ele>147.33333333333334</ele><time>2026-04-06T11:35:55Z</time></trkpt><trkpt lat="40.6411979" lon="14.6674603"><ele>140.16666666666669</ele><time>2026-04-06T11:35:56Z</time></trkpt><trkpt lat="40.6412739" lon="14.6674673"><ele>133.0</ele><time>2026-04-06T11:35:57Z</time></trkpt><trkpt lat="40.6412963" lon="14.6675671"><ele>133.0</ele><time>2026-04-06T11:35:58Z</time></trkpt><trkpt lat="40.641367" lon="14.6676246"><ele>133.0</ele><time>2026-04-06T11:35:59Z</time></trkpt><trkpt lat="40.641438" lon="14.6677704"><ele>133.0</ele><time>2026-04-06T11:36:00Z</time></trkpt><trkpt lat="40.6415108" lon="14.6678795"><ele>133.0</ele><time>2026-04-06T11:36:01Z</time></trkpt><trkpt lat="40.6415764" lon="14.6679833"><ele>133.0</ele><time>2026-04-06T11:36:02Z</time></trkpt><trkpt lat="40.6416439" lon="14.6680666"><ele>137.66666666666669</ele><time>2026-04-06T11:36:03Z</time></trkpt><trkpt lat="40.6417132" lon="14.6681215"><ele>142.33333333333334</ele><time>2026-04-06T11:36:04Z</time></trkpt><trkpt lat="40.6417802" lon="14.6681665"><ele>147.0</ele><time>2026-04-06T11:36:05Z</time></trkpt><trkpt lat="40.6418482" lon="14.6682042"><ele>151.66666666666666</ele><time>2026-04-06T11:36:06Z</time></trkpt><trkpt lat="40.6419123" lon="14.6682184"><ele>156.33333333333331</ele><time>2026-04-06T11:36:07Z</time></trkpt><trkpt lat="40.6419498" lon="14.6681193"><ele>161.0</ele><time>2026-04-06T11:36:08Z</time></trkpt><trkpt lat="40.6419809" lon="14.668018"><ele>161.0</ele><time>2026-04-06T11:36:09Z</time></trkpt><trkpt lat="40.642004" lon="14.6678738"><ele>161.0</ele><time>2026-04-06T11:36:10Z</time></trkpt><trkpt lat="40.6420469" lon="14.6677034"><ele>161.0</ele><time>2026-04-06T11:36:11Z</time></trkpt><trkpt lat="40.6421091" lon="14.667501"><ele>161.0</ele><time>2026-04-06T11:36:12Z</time></trkpt><trkpt lat="40.6421549" lon="14.6672683"><ele>160.75</ele><time>2026-04-06T11:36:13Z</time></trkpt><trkpt lat="40.6421594" lon="14.6670716"><ele>160.5</ele><time>2026-04-06T11:36:14Z</time></trkpt><trkpt lat="40.6421204" lon="14.6668819"><ele>160.25</ele><time>2026-04-06T11:36:15Z</time></trkpt><trkpt lat="40.6420523" lon="14.6667154"><ele>160.0</ele><time>2026-04-06T11:36:16Z</time></trkpt><trkpt lat="40.6419871" lon="14.6665313"><ele>158.66666666666669</ele><time>2026-04-06T11:36:17Z</time></trkpt><trkpt lat="40.6418904" lon="14.6663567"><ele>157.33333333333334</ele><time>2026-04-06T11:36:18Z</time></trkpt><trkpt lat="40.6417276" lon="14.6662057"><ele>156.0</ele><time>2026-04-06T11:36:19Z</time></trkpt><trkpt lat="40.6416202" lon="14.6660368"><ele>156.0</ele><time>2026-04-06T11:36:20Z</time></trkpt><trkpt lat="40.6415178" lon="14.6658663"><ele>156.0</ele><time>2026-04-06T11:36:21Z</time></trkpt><trkpt lat="40.6414114" lon="14.6657299"><ele>156.0</ele><time>2026-04-06T11:36:22Z</time></trkpt><trkpt lat="40.64131" lon="14.6655902"><ele>156.0</ele><time>2026-04-06T11:36:23Z</time></trkpt><trkpt lat="40.6412065" lon="14.665457"><ele>156.0</ele><time>2026-04-06T11:36:24Z</time></trkpt><trkpt lat="40.6411033" lon="14.6654987"><ele>156.0</ele><time>2026-04-06T11:36:25Z</time></trkpt><trkpt lat="40.6410077" lon="14.6655963"><ele>156.0</ele><time>2026-04-06T11:36:26Z</time></trkpt><trkpt lat="40.6409322" lon="14.6656596"><ele>151.83333333333334</ele><time>2026-04-06T11:36:27Z</time></trkpt><trkpt lat="40.6408502" lon="14.6657352"><ele>147.66666666666666</ele><time>2026-04-06T11:36:28Z</time></trkpt><trkpt lat="40.6407922" lon="14.6657912"><ele>143.5</ele><time>2026-04-06T11:36:29Z</time></trkpt><trkpt lat="40.6406776" lon="14.6657955"><ele>139.33333333333331</ele><time>2026-04-06T11:36:31Z</time></trkpt><trkpt lat="40.640603" lon="14.6657879"><ele>135.16666666666666</ele><time>2026-04-06T11:36:32Z</time></trkpt><trkpt lat="40.6405398" lon="14.6657925"><ele>131.0</ele><time>2026-04-06T11:36:33Z</time></trkpt><trkpt lat="40.6404401" lon="14.6657958"><ele>131.0</ele><time>2026-04-06T11:36:34.999Z</time></trkpt><trkpt lat="40.6403597" lon="14.6657186"><ele>131.0</ele><time>2026-04-06T11:36:37Z</time></trkpt><trkpt lat="40.6403201" lon="14.6655611"><ele>131.0</ele><time>2026-04-06T11:36:39Z</time></trkpt><trkpt lat="40.6403094" lon="14.6654426"><ele>131.0</ele><time>2026-04-06T11:36:40Z</time></trkpt><trkpt lat="40.6403074" lon="14.6653146"><ele>131.0</ele><time>2026-04-06T11:36:41Z</time></trkpt><trkpt lat="40.6403223" lon="14.6651709"><ele>136.25</ele><time>2026-04-06T11:36:42Z</time></trkpt><trkpt lat="40.6403436" lon="14.6650139"><ele>141.5</ele><time>2026-04-06T11:36:43Z</time></trkpt><trkpt lat="40.6403687" lon="14.6648586"><ele>146.75</ele><time>2026-04-06T11:36:44Z</time></trkpt><trkpt lat="40.6403902" lon="14.664714"><ele>152.0</ele><time>2026-04-06T11:36:45Z</time></trkpt><trkpt lat="40.6404071" lon="14.6645819"><ele>152.0</ele><time>2026-04-06T11:36:46Z</time></trkpt><trkpt lat="40.6404121" lon="14.664456"><ele>152.0</ele><time>2026-04-06T11:36:47Z</time></trkpt><trkpt lat="40.640413" lon="14.6643406"><ele>152.0</ele><time>2026-04-06T11:36:48Z</time></trkpt><trkpt lat="40.6404058" lon="14.6642322"><ele>152.0</ele><time>2026-04-06T11:36:49Z</time></trkpt><trkpt lat="40.6403997" lon="14.6641427"><ele>152.0</ele><time>2026-04-06T11:36:50Z</time></trkpt><trkpt lat="40.6403959" lon="14.6639828"><ele>150.4</ele><time>2026-04-06T11:36:52Z</time></trkpt><trkpt lat="40.6404486" lon="14.6638239"><ele>148.79999999999998</ele><time>2026-04-06T11:36:54Z</time></trkpt><trkpt lat="40.6405054" lon="14.66374"><ele>147.2</ele><time>2026-04-06T11:36:55Z</time></trkpt><trkpt lat="40.6405785" lon="14.6636721"><ele>145.6</ele><time>2026-04-06T11:36:55.999Z</time></trkpt><trkpt lat="40.6406665" lon="14.6636347"><ele>144.0</ele><time>2026-04-06T11:36:57Z</time></trkpt><trkpt lat="40.6407561" lon="14.6636187"><ele>144.0</ele><time>2026-04-06T11:36:58Z</time></trkpt><trkpt lat="40.6408576" lon="14.6636375"><ele>144.0</ele><time>2026-04-06T11:36:59Z</time></trkpt><trkpt lat="40.6409507" lon="14.663674"><ele>144.0</ele><time>2026-04-06T11:37:00Z</time></trkpt><trkpt lat="40.6410416" lon="14.6637391"><ele>144.0</ele><time>2026-04-06T11:37:01Z</time></trkpt><trkpt lat="40.6411168" lon="14.6638289"><ele>144.0</ele><time>2026-04-06T11:37:02Z</time></trkpt><trkpt lat="40.6411828" lon="14.6639233"><ele>146.66666666666666</ele><time>2026-04-06T11:37:03Z</time></trkpt><trkpt lat="40.6412506" lon="14.6639924"><ele>149.33333333333334</ele><time>2026-04-06T11:37:04Z</time></trkpt><trkpt lat="40.6413114" lon="14.6640513"><ele>152.0</ele><time>2026-04-06T11:37:04.999Z</time></trkpt><trkpt lat="40.6413798" lon="14.6640871"><ele>154.66666666666669</ele><time>2026-04-06T11:37:06Z</time></trkpt><trkpt lat="40.6414543" lon="14.6641025"><ele>157.33333333333334</ele><time>2026-04-06T11:37:07Z</time></trkpt><trkpt lat="40.6415281" lon="14.6640955"><ele>160.0</ele><time>2026-04-06T11:37:08Z</time></trkpt><trkpt lat="40.641599" lon="14.6640693"><ele>160.0</ele><time>2026-04-06T11:37:09Z</time></trkpt><trkpt lat="40.6416681" lon="14.6640249"><ele>160.0</ele><time>2026-04-06T11:37:10Z</time></trkpt><trkpt lat="40.641718" lon="14.6639212"><ele>160.0</ele><time>2026-04-06T11:37:11Z</time></trkpt><trkpt lat="40.6417553" lon="14.6638201"><ele>160.0</ele><time>2026-04-06T11:37:12Z</time></trkpt><trkpt lat="40.6417893" lon="14.6637219"><ele>160.0</ele><time>2026-04-06T11:37:13Z</time></trkpt><trkpt lat="40.6418381" lon="14.6636384"><ele>160.0</ele><time>2026-04-06T11:37:14Z</time></trkpt><trkpt lat="40.6418914" lon="14.6635764"><ele>156.0</ele><time>2026-04-06T11:37:14.999Z</time></trkpt><trkpt lat="40.6419601" lon="14.6635255"><ele>152.0</ele><time>2026-04-06T11:37:16Z</time></trkpt><trkpt lat="40.642038" lon="14.663489"><ele>148.0</ele><time>2026-04-06T11:37:17Z</time></trkpt><trkpt lat="40.6421155" lon="14.6634384"><ele>144.0</ele><time>2026-04-06T11:37:18Z</time></trkpt><trkpt lat="40.6422028" lon="14.6633816"><ele>140.0</ele><time>2026-04-06T11:37:19Z</time></trkpt><trkpt lat="40.6422864" lon="14.6632841"><ele>136.2</ele><time>2026-04-06T11:37:20Z</time></trkpt><trkpt lat="40.6423571" lon="14.6631895"><ele>132.4</ele><time>2026-04-06T11:37:21Z</time></trkpt><trkpt lat="40.6424177" lon="14.6630775"><ele>128.6</ele><time>2026-04-06T11:37:22Z</time></trkpt><trkpt lat="40.6424729" lon="14.662966"><ele>124.8</ele><time>2026-04-06T11:37:23Z</time></trkpt><trkpt lat="40.6424998" lon="14.6628439"><ele>121.0</ele><time>2026-04-06T11:37:24Z</time></trkpt><trkpt lat="40.6425366" lon="14.6627316"><ele>121.0</ele><time>2026-04-06T11:37:25Z</time></trkpt><trkpt lat="40.6425356" lon="14.6626412"><ele>120.99999999999999</ele><time>2026-04-06T11:37:26Z</time></trkpt><trkpt lat="40.6425546" lon="14.6625435"><ele>121.0</ele><time>2026-04-06T11:37:27Z</time></trkpt><trkpt lat="40.642557" lon="14.6624406"><ele>121.0</ele><time>2026-04-06T11:37:27.999Z</time></trkpt><trkpt lat="40.6425465" lon="14.6623426"><ele>120.99999999999999</ele><time>2026-04-06T11:37:29Z</time></trkpt><trkpt lat="40.6425385" lon="14.6622513"><ele>121.0</ele><time>2026-04-06T11:37:30Z</time></trkpt><trkpt lat="40.642542" lon="14.662146"><ele>121.0</ele><time>2026-04-06T11:37:31Z</time></trkpt><trkpt lat="40.6425732" lon="14.6620506"><ele>121.0</ele><time>2026-04-06T11:37:32Z</time></trkpt><trkpt lat="40.642625" lon="14.6619692"><ele>121.0</ele><time>2026-04-06T11:37:33Z</time></trkpt><trkpt lat="40.6426965" lon="14.6619038"><ele>121.0</ele><time>2026-04-06T11:37:34Z</time></trkpt><trkpt lat="40.6427845" lon="14.6618383"><ele>121.0</ele><time>2026-04-06T11:37:34.999Z</time></trkpt><trkpt lat="40.6428827" lon="14.6617406"><ele>121.0</ele><time>2026-04-06T11:37:36Z</time></trkpt><trkpt lat="40.6429683" lon="14.6615987"><ele>123.75</ele><time>2026-04-06T11:37:37Z</time></trkpt><trkpt lat="40.6430553" lon="14.661452"><ele>126.5</ele><time>2026-04-06T11:37:38Z</time></trkpt><trkpt lat="40.6431365" lon="14.6613091"><ele>129.25</ele><time>2026-04-06T11:37:39Z</time></trkpt><trkpt lat="40.6432088" lon="14.661187"><ele>132.0</ele><time>2026-04-06T11:37:40Z</time></trkpt><trkpt lat="40.6432691" lon="14.6610884"><ele>132.0</ele><time>2026-04-06T11:37:40.999Z</time></trkpt><trkpt lat="40.6433076" lon="14.6609909"><ele>132.0</ele><time>2026-04-06T11:37:41.999Z</time></trkpt><trkpt lat="40.6433039" lon="14.6608804"><ele>132.0</ele><time>2026-04-06T11:37:43Z</time></trkpt><trkpt lat="40.6432743" lon="14.6607693"><ele>132.0</ele><time>2026-04-06T11:37:44Z</time></trkpt><trkpt lat="40.6432413" lon="14.6606677"><ele>132.0</ele><time>2026-04-06T11:37:45Z</time></trkpt><trkpt lat="40.6431814" lon="14.6605566"><ele>132.0</ele><time>2026-04-06T11:37:46Z</time></trkpt><trkpt lat="40.64306" lon="14.6604809"><ele>132.0</ele><time>2026-04-06T11:37:47Z</time></trkpt><trkpt lat="40.6429644" lon="14.6604298"><ele>132.0</ele><time>2026-04-06T11:37:48Z</time></trkpt><trkpt lat="40.6428706" lon="14.6605647"><ele>132.0</ele><time>2026-04-06T11:37:49Z</time></trkpt><trkpt lat="40.6427829" lon="14.6605575"><ele>132.0</ele><time>2026-04-06T11:37:50Z</time></trkpt><trkpt lat="40.6427043" lon="14.6605621"><ele>132.0</ele><time>2026-04-06T11:37:50.999Z</time></trkpt><trkpt lat="40.6426294" lon="14.6605532"><ele>121.0</ele><time>2026-04-06T11:37:52Z</time></trkpt><trkpt lat="40.6426055" lon="14.6603184"><ele>110.0</ele><time>2026-04-06T11:37:53.999Z</time></trkpt><trkpt lat="40.6426725" lon="14.660191"><ele>99.0</ele><time>2026-04-06T11:37:55Z</time></trkpt><trkpt lat="40.6427026" lon="14.6600369"><ele>88.0</ele><time>2026-04-06T11:37:56Z</time></trkpt><trkpt lat="40.6427918" lon="14.6599175"><ele>94.66666666666666</ele><time>2026-04-06T11:37:57Z</time></trkpt><trkpt lat="40.6428442" lon="14.6598129"><ele>101.33333333333333</ele><time>2026-04-06T11:37:58Z</time></trkpt><trkpt lat="40.6428969" lon="14.6597287"><ele>108.0</ele><time>2026-04-06T11:37:59Z</time></trkpt><trkpt lat="40.6429489" lon="14.6596623"><ele>114.66666666666666</ele><time>2026-04-06T11:38:00Z</time></trkpt><trkpt lat="40.6430112" lon="14.6596332"><ele>121.33333333333333</ele><time>2026-04-06T11:38:01Z</time></trkpt><trkpt lat="40.6430811" lon="14.6596161"><ele>128.0</ele><time>2026-04-06T11:38:02Z</time></trkpt><trkpt lat="40.6431474" lon="14.6595918"><ele>127.99999999999999</ele><time>2026-04-06T11:38:03Z</time></trkpt><trkpt lat="40.6432005" lon="14.6595443"><ele>128.0</ele><time>2026-04-06T11:38:04Z</time></trkpt><trkpt lat="40.6432914" lon="14.659441"><ele>128.0</ele><time>2026-04-06T11:38:06Z</time></trkpt><trkpt lat="40.6432582" lon="14.659336"><ele>128.0</ele><time>2026-04-06T11:38:07Z</time></trkpt><trkpt lat="40.6432279" lon="14.6592495"><ele>127.99999999999999</ele><time>2026-04-06T11:38:08Z</time></trkpt><trkpt lat="40.6431457" lon="14.6591895"><ele>128.0</ele><time>2026-04-06T11:38:09Z</time></trkpt><trkpt lat="40.6430703" lon="14.6591328"><ele>128.6</ele><time>2026-04-06T11:38:10Z</time></trkpt><trkpt lat="40.6429957" lon="14.6590588"><ele>129.20000000000002</ele><time>2026-04-06T11:38:11Z</time></trkpt><trkpt lat="40.6429307" lon="14.6589637"><ele>129.8</ele><time>2026-04-06T11:38:12Z</time></trkpt><trkpt lat="40.6428891" lon="14.6588484"><ele>130.4</ele><time>2026-04-06T11:38:13Z</time></trkpt><trkpt lat="40.6428776" lon="14.6587316"><ele>131.0</ele><time>2026-04-06T11:38:14Z</time></trkpt><trkpt lat="40.6428785" lon="14.6586032"><ele>131.0</ele><time>2026-04-06T11:38:15Z</time></trkpt><trkpt lat="40.6428513" lon="14.6584783"><ele>131.0</ele><time>2026-04-06T11:38:16Z</time></trkpt><trkpt lat="40.6428037" lon="14.6583721"><ele>131.0</ele><time>2026-04-06T11:38:17Z</time></trkpt><trkpt lat="40.6427452" lon="14.6582732"><ele>131.0</ele><time>2026-04-06T11:38:18Z</time></trkpt><trkpt lat="40.6426883" lon="14.6581661"><ele>131.0</ele><time>2026-04-06T11:38:19Z</time></trkpt><trkpt lat="40.6426079" lon="14.6580685"><ele>122.0</ele><time>2026-04-06T11:38:20Z</time></trkpt><trkpt lat="40.6425734" lon="14.6579863"><ele>113.0</ele><time>2026-04-06T11:38:21Z</time></trkpt><trkpt lat="40.6425298" lon="14.657894"><ele>104.0</ele><time>2026-04-06T11:38:22Z</time></trkpt><trkpt lat="40.6424854" lon="14.657799"><ele>95.0</ele><time>2026-04-06T11:38:23Z</time></trkpt><trkpt lat="40.6425056" lon="14.6576265"><ele>86.0</ele><time>2026-04-06T11:38:24Z</time></trkpt><trkpt lat="40.6424972" lon="14.6574898"><ele>86.0</ele><time>2026-04-06T11:38:24.999Z</time></trkpt><trkpt lat="40.6424882" lon="14.6573819"><ele>86.0</ele><time>2026-04-06T11:38:26Z</time></trkpt><trkpt lat="40.6424967" lon="14.6572719"><ele>86.0</ele><time>2026-04-06T11:38:27Z</time></trkpt><trkpt lat="40.6425282" lon="14.6571629"><ele>86.0</ele><time>2026-04-06T11:38:28Z</time></trkpt><trkpt lat="40.6425769" lon="14.6570718"><ele>86.0</ele><time>2026-04-06T11:38:29Z</time></trkpt><trkpt lat="40.6426153" lon="14.6569907"><ele>86.0</ele><time>2026-04-06T11:38:30Z</time></trkpt><trkpt lat="40.6426559" lon="14.6569084"><ele>82.8</ele><time>2026-04-06T11:38:31Z</time></trkpt><trkpt lat="40.642687" lon="14.6568342"><ele>79.6</ele><time>2026-04-06T11:38:32Z</time></trkpt><trkpt lat="40.6426932" lon="14.6566757"><ele>76.4</ele><time>2026-04-06T11:38:34Z</time></trkpt><trkpt lat="40.6427021" lon="14.6565075"><ele>73.2</ele><time>2026-04-06T11:38:36Z</time></trkpt><trkpt lat="40.6427398" lon="14.656423"><ele>70.0</ele><time>2026-04-06T11:38:37Z</time></trkpt><trkpt lat="40.6427732" lon="14.6563407"><ele>73.57142857142857</ele><time>2026-04-06T11:38:38Z</time></trkpt><trkpt lat="40.6428564" lon="14.656309"><ele>77.14285714285714</ele><time>2026-04-06T11:38:39Z</time></trkpt><trkpt lat="40.6429245" lon="14.6562747"><ele>80.71428571428572</ele><time>2026-04-06T11:38:39.999Z</time></trkpt><trkpt lat="40.642994" lon="14.6562447"><ele>84.28571428571428</ele><time>2026-04-06T11:38:41Z</time></trkpt><trkpt lat="40.6430458" lon="14.6561749"><ele>87.85714285714286</ele><time>2026-04-06T11:38:41.999Z</time></trkpt><trkpt lat="40.6430642" lon="14.6560872"><ele>91.42857142857143</ele><time>2026-04-06T11:38:43Z</time></trkpt><trkpt lat="40.643065" lon="14.6559907"><ele>95.0</ele><time>2026-04-06T11:38:44Z</time></trkpt><trkpt lat="40.6430652" lon="14.6558849"><ele>95.0</ele><time>2026-04-06T11:38:45Z</time></trkpt><trkpt lat="40.6430715" lon="14.6557709"><ele>95.0</ele><time>2026-04-06T11:38:46Z</time></trkpt><trkpt lat="40.6430868" lon="14.6556596"><ele>95.0</ele><time>2026-04-06T11:38:47Z</time></trkpt><trkpt lat="40.6431025" lon="14.6555549"><ele>95.0</ele><time>2026-04-06T11:38:48Z</time></trkpt><trkpt lat="40.6431055" lon="14.6554503"><ele>95.0</ele><time>2026-04-06T11:38:49Z</time></trkpt><trkpt lat="40.6430902" lon="14.6553499"><ele>95.0</ele><time>2026-04-06T11:38:50Z</time></trkpt><trkpt lat="40.643064" lon="14.6552561"><ele>95.57142857142857</ele><time>2026-04-06T11:38:51Z</time></trkpt><trkpt lat="40.6430392" lon="14.6551785"><ele>96.14285714285714</ele><time>2026-04-06T11:38:52Z</time></trkpt><trkpt lat="40.6430107" lon="14.6550923"><ele>96.71428571428572</ele><time>2026-04-06T11:38:53Z</time></trkpt><trkpt lat="40.6429876" lon="14.6550033"><ele>97.28571428571428</ele><time>2026-04-06T11:38:54Z</time></trkpt><trkpt lat="40.6429878" lon="14.6548999"><ele>97.85714285714285</ele><time>2026-04-06T11:38:55Z</time></trkpt><trkpt lat="40.6430158" lon="14.6548"><ele>98.42857142857143</ele><time>2026-04-06T11:38:56Z</time></trkpt><trkpt lat="40.6430589" lon="14.6547106"><ele>99.0</ele><time>2026-04-06T11:38:57Z</time></trkpt><trkpt lat="40.6430968" lon="14.6546239"><ele>99.0</ele><time>2026-04-06T11:38:58Z</time></trkpt><trkpt lat="40.6431251" lon="14.6545311"><ele>99.0</ele><time>2026-04-06T11:38:59Z</time></trkpt><trkpt lat="40.6431482" lon="14.6544297"><ele>99.0</ele><time>2026-04-06T11:39:00Z</time></trkpt><trkpt lat="40.6431801" lon="14.6543264"><ele>99.0</ele><time>2026-04-06T11:39:00.999Z</time></trkpt><trkpt lat="40.6432141" lon="14.6542228"><ele>99.0</ele><time>2026-04-06T11:39:02Z</time></trkpt><trkpt lat="40.6432287" lon="14.6541154"><ele>99.0</ele><time>2026-04-06T11:39:03Z</time></trkpt><trkpt lat="40.6432101" lon="14.6540039"><ele>96.2</ele><time>2026-04-06T11:39:03.999Z</time></trkpt><trkpt lat="40.6431675" lon="14.6539033"><ele>93.4</ele><time>2026-04-06T11:39:05Z</time></trkpt><trkpt lat="40.6431131" lon="14.6538159"><ele>90.6</ele><time>2026-04-06T11:39:06Z</time></trkpt><trkpt lat="40.6430465" lon="14.6537328"><ele>87.8</ele><time>2026-04-06T11:39:07Z</time></trkpt><trkpt lat="40.6429827" lon="14.6536353"><ele>85.0</ele><time>2026-04-06T11:39:07.999Z</time></trkpt><trkpt lat="40.6429297" lon="14.6535296"><ele>85.0</ele><time>2026-04-06T11:39:09Z</time></trkpt><trkpt lat="40.6428865" lon="14.6534208"><ele>85.0</ele><time>2026-04-06T11:39:10Z</time></trkpt><trkpt lat="40.642851" lon="14.6533334"><ele>85.0</ele><time>2026-04-06T11:39:11Z</time></trkpt><trkpt lat="40.6428238" lon="14.6532582"><ele>85.0</ele><time>2026-04-06T11:39:12Z</time></trkpt><trkpt lat="40.6428222" lon="14.6531094"><ele>85.0</ele><time>2026-04-06T11:39:14Z</time></trkpt><trkpt lat="40.6428591" lon="14.6530204"><ele>85.0</ele><time>2026-04-06T11:39:15Z</time></trkpt><trkpt lat="40.6428985" lon="14.6529193"><ele>85.0</ele><time>2026-04-06T11:39:16Z</time></trkpt><trkpt lat="40.6429408" lon="14.6528112"><ele>85.0</ele><time>2026-04-06T11:39:17Z</time></trkpt><trkpt lat="40.6429866" lon="14.6527082"><ele>85.0</ele><time>2026-04-06T11:39:18Z</time></trkpt><trkpt lat="40.6430292" lon="14.6526084"><ele>85.0</ele><time>2026-04-06T11:39:19Z</time></trkpt><trkpt lat="40.6430765" lon="14.6525116"><ele>85.0</ele><time>2026-04-06T11:39:20Z</time></trkpt><trkpt lat="40.6431291" lon="14.6524198"><ele>85.0</ele><time>2026-04-06T11:39:21Z</time></trkpt><trkpt lat="40.6431951" lon="14.652337"><ele>84.33333333333333</ele><time>2026-04-06T11:39:22Z</time></trkpt><trkpt lat="40.6432624" lon="14.6522608"><ele>83.66666666666666</ele><time>2026-04-06T11:39:23Z</time></trkpt><trkpt lat="40.6433222" lon="14.6521865"><ele>83.0</ele><time>2026-04-06T11:39:24Z</time></trkpt><trkpt lat="40.6433647" lon="14.6521093"><ele>82.33333333333333</ele><time>2026-04-06T11:39:25Z</time></trkpt><trkpt lat="40.6433872" lon="14.6520193"><ele>81.66666666666667</ele><time>2026-04-06T11:39:26Z</time></trkpt><trkpt lat="40.6433969" lon="14.6519286"><ele>81.0</ele><time>2026-04-06T11:39:27Z</time></trkpt><trkpt lat="40.6433984" lon="14.6518365"><ele>76.8</ele><time>2026-04-06T11:39:28Z</time></trkpt><trkpt lat="40.643395" lon="14.6517484"><ele>72.6</ele><time>2026-04-06T11:39:29Z</time></trkpt><trkpt lat="40.6433682" lon="14.6515968"><ele>68.4</ele><time>2026-04-06T11:39:31Z</time></trkpt><trkpt lat="40.6433898" lon="14.65146"><ele>64.2</ele><time>2026-04-06T11:39:33Z</time></trkpt><trkpt lat="40.6434862" lon="14.6513856"><ele>60.0</ele><time>2026-04-06T11:39:35Z</time></trkpt><trkpt lat="40.6435572" lon="14.6513567"><ele>64.6</ele><time>2026-04-06T11:39:36Z</time></trkpt><trkpt lat="40.6436377" lon="14.6513302"><ele>69.2</ele><time>2026-04-06T11:39:37Z</time></trkpt><trkpt lat="40.6437342" lon="14.651332"><ele>73.80000000000001</ele><time>2026-04-06T11:39:37.999Z</time></trkpt><trkpt lat="40.6438292" lon="14.6513083"><ele>78.4</ele><time>2026-04-06T11:39:39Z</time></trkpt><trkpt lat="40.6439252" lon="14.6512713"><ele>83.0</ele><time>2026-04-06T11:39:40Z</time></trkpt><trkpt lat="40.644009" lon="14.6512219"><ele>83.0</ele><time>2026-04-06T11:39:41Z</time></trkpt><trkpt lat="40.6440897" lon="14.6511644"><ele>83.0</ele><time>2026-04-06T11:39:42Z</time></trkpt><trkpt lat="40.6441605" lon="14.6511113"><ele>83.0</ele><time>2026-04-06T11:39:43Z</time></trkpt><trkpt lat="40.6442302" lon="14.6510546"><ele>83.0</ele><time>2026-04-06T11:39:43.999Z</time></trkpt><trkpt lat="40.6442993" lon="14.6510042"><ele>83.0</ele><time>2026-04-06T11:39:45Z</time></trkpt><trkpt lat="40.6443723" lon="14.6509603"><ele>83.0</ele><time>2026-04-06T11:39:46Z</time></trkpt><trkpt lat="40.6444477" lon="14.6509423"><ele>80.16666666666667</ele><time>2026-04-06T11:39:46.999Z</time></trkpt><trkpt lat="40.644523" lon="14.6509573"><ele>77.33333333333334</ele><time>2026-04-06T11:39:47.999Z</time></trkpt><trkpt lat="40.6445829" lon="14.6510121"><ele>74.5</ele><time>2026-04-06T11:39:49Z</time></trkpt><trkpt lat="40.6446312" lon="14.6510936"><ele>71.66666666666667</ele><time>2026-04-06T11:39:50Z</time></trkpt><trkpt lat="40.6446828" lon="14.6511902"><ele>68.83333333333333</ele><time>2026-04-06T11:39:51Z</time></trkpt><trkpt lat="40.6447322" lon="14.6512812"><ele>66.0</ele><time>2026-04-06T11:39:52Z</time></trkpt><trkpt lat="40.6447821" lon="14.6513756"><ele>66.0</ele><time>2026-04-06T11:39:53Z</time></trkpt><trkpt lat="40.6448381" lon="14.651471"><ele>66.0</ele><time>2026-04-06T11:39:54Z</time></trkpt><trkpt lat="40.6448961" lon="14.6515598"><ele>66.0</ele><time>2026-04-06T11:39:55Z</time></trkpt><trkpt lat="40.6449608" lon="14.6516372"><ele>66.0</ele><time>2026-04-06T11:39:55.999Z</time></trkpt><trkpt lat="40.6450293" lon="14.6517003"><ele>66.0</ele><time>2026-04-06T11:39:57Z</time></trkpt><trkpt lat="40.6451008" lon="14.651744"><ele>66.0</ele><time>2026-04-06T11:39:58Z</time></trkpt><trkpt lat="40.6451762" lon="14.6517753"><ele>66.0</ele><time>2026-04-06T11:39:59Z</time></trkpt><trkpt lat="40.6452628" lon="14.651802"><ele>66.0</ele><time>2026-04-06T11:40:00Z</time></trkpt><trkpt lat="40.6453559" lon="14.6518235"><ele>66.0</ele><time>2026-04-06T11:40:01Z</time></trkpt><trkpt lat="40.6454478" lon="14.6518489"><ele>66.0</ele><time>2026-04-06T11:40:01.999Z</time></trkpt><trkpt lat="40.6455371" lon="14.6518645"><ele>66.0</ele><time>2026-04-06T11:40:03Z</time></trkpt><trkpt lat="40.6456168" lon="14.6518457"><ele>66.0</ele><time>2026-04-06T11:40:04Z</time></trkpt><trkpt lat="40.6456843" lon="14.6518231"><ele>65.39999999999999</ele><time>2026-04-06T11:40:05Z</time></trkpt><trkpt lat="40.6457606" lon="14.6517155"><ele>64.8</ele><time>2026-04-06T11:40:07Z</time></trkpt><trkpt lat="40.6457954" lon="14.6515793"><ele>64.19999999999999</ele><time>2026-04-06T11:40:09Z</time></trkpt><trkpt lat="40.6457645" lon="14.6514176"><ele>63.599999999999994</ele><time>2026-04-06T11:40:11Z</time></trkpt><trkpt lat="40.6457113" lon="14.6513504"><ele>63.0</ele><time>2026-04-06T11:40:12Z</time></trkpt><trkpt lat="40.6456436" lon="14.651289"><ele>63.0</ele><time>2026-04-06T11:40:13Z</time></trkpt><trkpt lat="40.645581" lon="14.6512203"><ele>63.0</ele><time>2026-04-06T11:40:13.999Z</time></trkpt><trkpt lat="40.6455172" lon="14.6511491"><ele>63.0</ele><time>2026-04-06T11:40:15Z</time></trkpt><trkpt lat="40.6454683" lon="14.6510706"><ele>63.0</ele><time>2026-04-06T11:40:16Z</time></trkpt><trkpt lat="40.6454506" lon="14.6509865"><ele>63.0</ele><time>2026-04-06T11:40:16.999Z</time></trkpt><trkpt lat="40.6454661" lon="14.650892"><ele>63.0</ele><time>2026-04-06T11:40:18Z</time></trkpt><trkpt lat="40.6454936" lon="14.6507929"><ele>63.5</ele><time>2026-04-06T11:40:19Z</time></trkpt><trkpt lat="40.6455284" lon="14.650683"><ele>64.0</ele><time>2026-04-06T11:40:20Z</time></trkpt><trkpt lat="40.6455621" lon="14.6505848"><ele>64.5</ele><time>2026-04-06T11:40:21Z</time></trkpt><trkpt lat="40.6455974" lon="14.6504875"><ele>65.0</ele><time>2026-04-06T11:40:22Z</time></trkpt><trkpt lat="40.6456258" lon="14.6503986"><ele>65.5</ele><time>2026-04-06T11:40:23Z</time></trkpt><trkpt lat="40.6456573" lon="14.6503075"><ele>66.0</ele><time>2026-04-06T11:40:24Z</time></trkpt><trkpt lat="40.6456856" lon="14.6502204"><ele>66.66666666666667</ele><time>2026-04-06T11:40:25Z</time></trkpt><trkpt lat="40.6456966" lon="14.6501223"><ele>67.33333333333333</ele><time>2026-04-06T11:40:26Z</time></trkpt><trkpt lat="40.645713" lon="14.6500361"><ele>68.0</ele><time>2026-04-06T11:40:27Z</time></trkpt><trkpt lat="40.6456967" lon="14.6499423"><ele>68.66666666666666</ele><time>2026-04-06T11:40:28Z</time></trkpt><trkpt lat="40.6456107" lon="14.6498201"><ele>69.33333333333333</ele><time>2026-04-06T11:40:28.999Z</time></trkpt><trkpt lat="40.6455191" lon="14.6497812"><ele>70.0</ele><time>2026-04-06T11:40:29.999Z</time></trkpt><trkpt lat="40.6454557" lon="14.6497153"><ele>70.0</ele><time>2026-04-06T11:40:31Z</time></trkpt><trkpt lat="40.6453943" lon="14.6496488"><ele>70.0</ele><time>2026-04-06T11:40:32Z</time></trkpt><trkpt lat="40.6453187" lon="14.6495974"><ele>70.0</ele><time>2026-04-06T11:40:33Z</time></trkpt><trkpt lat="40.6452185" lon="14.6495721"><ele>70.0</ele><time>2026-04-06T11:40:34Z</time></trkpt><trkpt lat="40.6451147" lon="14.6495476"><ele>70.0</ele><time>2026-04-06T11:40:35Z</time></trkpt><trkpt lat="40.6450093" lon="14.649496"><ele>66.5</ele><time>2026-04-06T11:40:36Z</time></trkpt><trkpt lat="40.6449189" lon="14.6494385"><ele>63.0</ele><time>2026-04-06T11:40:37Z</time></trkpt><trkpt lat="40.6448364" lon="14.6493882"><ele>59.5</ele><time>2026-04-06T11:40:37.999Z</time></trkpt><trkpt lat="40.6447623" lon="14.6493346"><ele>56.0</ele><time>2026-04-06T11:40:39Z</time></trkpt><trkpt lat="40.6446871" lon="14.6492925"><ele>52.49999999999999</ele><time>2026-04-06T11:40:40Z</time></trkpt><trkpt lat="40.6446068" lon="14.6492793"><ele>49.0</ele><time>2026-04-06T11:40:41Z</time></trkpt><trkpt lat="40.6445283" lon="14.6492775"><ele>44.666666666666664</ele><time>2026-04-06T11:40:42Z</time></trkpt><trkpt lat="40.6444529" lon="14.6492952"><ele>40.33333333333333</ele><time>2026-04-06T11:40:43Z</time></trkpt><trkpt lat="40.6443817" lon="14.649316"><ele>36.0</ele><time>2026-04-06T11:40:43.999Z</time></trkpt><trkpt lat="40.6443106" lon="14.6493295"><ele>31.666666666666664</ele><time>2026-04-06T11:40:45Z</time></trkpt><trkpt lat="40.6442037" lon="14.6492945"><ele>27.333333333333336</ele><time>2026-04-06T11:40:47Z</time></trkpt><trkpt lat="40.6441734" lon="14.6492169"><ele>23.0</ele><time>2026-04-06T11:40:48Z</time></trkpt><trkpt lat="40.6441133" lon="14.6490641"><ele>23.0</ele><time>2026-04-06T11:40:50Z</time></trkpt><trkpt lat="40.6440894" lon="14.6489834"><ele>23.0</ele><time>2026-04-06T11:40:51Z</time></trkpt><trkpt lat="40.644081" lon="14.6489002"><ele>23.0</ele><time>2026-04-06T11:40:52Z</time></trkpt><trkpt lat="40.644101" lon="14.6487408"><ele>23.0</ele><time>2026-04-06T11:40:54Z</time></trkpt><trkpt lat="40.6441649" lon="14.6486188"><ele>23.0</ele><time>2026-04-06T11:40:56Z</time></trkpt><trkpt lat="40.6442189" lon="14.6485149"><ele>22.833333333333336</ele><time>2026-04-06T11:40:57.999Z</time></trkpt><trkpt lat="40.6442664" lon="14.6484236"><ele>22.666666666666668</ele><time>2026-04-06T11:41:00Z</time></trkpt><trkpt lat="40.6443043" lon="14.6483321"><ele>22.5</ele><time>2026-04-06T11:41:02Z</time></trkpt><trkpt lat="40.6443377" lon="14.6482361"><ele>22.333333333333332</ele><time>2026-04-06T11:41:05Z</time></trkpt><trkpt lat="40.6443634" lon="14.6481396"><ele>22.166666666666664</ele><time>2026-04-06T11:41:08Z</time></trkpt><trkpt lat="40.6444165" lon="14.6480562"><ele>22.0</ele><time>2026-04-06T11:41:13Z</time></trkpt><trkpt lat="40.6444568" lon="14.6479863"><ele>28.200000000000003</ele><time>2026-04-06T11:41:14Z</time></trkpt><trkpt lat="40.6445477" lon="14.6478687"><ele>34.4</ele><time>2026-04-06T11:41:16Z</time></trkpt><trkpt lat="40.6446263" lon="14.6477478"><ele>40.599999999999994</ele><time>2026-04-06T11:41:17Z</time></trkpt><trkpt lat="40.6446905" lon="14.6476602"><ele>46.8</ele><time>2026-04-06T11:41:18Z</time></trkpt><trkpt lat="40.6447422" lon="14.6475593"><ele>53.0</ele><time>2026-04-06T11:41:19Z</time></trkpt><trkpt lat="40.644795" lon="14.6474569"><ele>53.0</ele><time>2026-04-06T11:41:20Z</time></trkpt><trkpt lat="40.644831" lon="14.6473679"><ele>53.0</ele><time>2026-04-06T11:41:21Z</time></trkpt><trkpt lat="40.6448762" lon="14.6472799"><ele>53.0</ele><time>2026-04-06T11:41:22Z</time></trkpt><trkpt lat="40.6449116" lon="14.6471977"><ele>53.0</ele><time>2026-04-06T11:41:23Z</time></trkpt><trkpt lat="40.6449489" lon="14.6471225"><ele>53.0</ele><time>2026-04-06T11:41:24Z</time></trkpt><trkpt lat="40.6449854" lon="14.6470506"><ele>53.0</ele><time>2026-04-06T11:41:25Z</time></trkpt><trkpt lat="40.6450273" lon="14.646978"><ele>53.0</ele><time>2026-04-06T11:41:26Z</time></trkpt><trkpt lat="40.6450792" lon="14.6469176"><ele>53.2</ele><time>2026-04-06T11:41:27Z</time></trkpt><trkpt lat="40.6451413" lon="14.6468548"><ele>53.4</ele><time>2026-04-06T11:41:28Z</time></trkpt><trkpt lat="40.6452094" lon="14.6467866"><ele>53.60000000000001</ele><time>2026-04-06T11:41:28.999Z</time></trkpt><trkpt lat="40.6452932" lon="14.6466953"><ele>53.800000000000004</ele><time>2026-04-06T11:41:30Z</time></trkpt><trkpt lat="40.6453838" lon="14.6465997"><ele>54.0</ele><time>2026-04-06T11:41:30.999Z</time></trkpt><trkpt lat="40.6454779" lon="14.6465148"><ele>54.0</ele><time>2026-04-06T11:41:32Z</time></trkpt><trkpt lat="40.6455655" lon="14.6464323"><ele>54.00000000000001</ele><time>2026-04-06T11:41:33Z</time></trkpt><trkpt lat="40.6456517" lon="14.6463498"><ele>54.00000000000001</ele><time>2026-04-06T11:41:34Z</time></trkpt><trkpt lat="40.645737" lon="14.6462734"><ele>54.0</ele><time>2026-04-06T11:41:35Z</time></trkpt><trkpt lat="40.6458213" lon="14.64619"><ele>54.0</ele><time>2026-04-06T11:41:36Z</time></trkpt><trkpt lat="40.6459061" lon="14.6461079"><ele>45.75</ele><time>2026-04-06T11:41:37Z</time></trkpt><trkpt lat="40.6459977" lon="14.6460325"><ele>37.5</ele><time>2026-04-06T11:41:38Z</time></trkpt><trkpt lat="40.6460914" lon="14.6459602"><ele>29.25</ele><time>2026-04-06T11:41:39Z</time></trkpt><trkpt lat="40.6461994" lon="14.6459396"><ele>21.0</ele><time>2026-04-06T11:41:40Z</time></trkpt><trkpt lat="40.6463243" lon="14.6459503"><ele>21.0</ele><time>2026-04-06T11:41:41Z</time></trkpt><trkpt lat="40.6464351" lon="14.6459672"><ele>21.0</ele><time>2026-04-06T11:41:41.999Z</time></trkpt><trkpt lat="40.6465526" lon="14.6459792"><ele>21.0</ele><time>2026-04-06T11:41:43Z</time></trkpt><trkpt lat="40.646671" lon="14.6459808"><ele>21.0</ele><time>2026-04-06T11:41:44Z</time></trkpt><trkpt lat="40.6467763" lon="14.6458831"><ele>21.0</ele><time>2026-04-06T11:41:45Z</time></trkpt><trkpt lat="40.646849" lon="14.6457762"><ele>21.0</ele><time>2026-04-06T11:41:46Z</time></trkpt><trkpt lat="40.6469011" lon="14.6456548"><ele>21.0</ele><time>2026-04-06T11:41:47Z</time></trkpt><trkpt lat="40.646918" lon="14.6455085"><ele>21.0</ele><time>2026-04-06T11:41:48Z</time></trkpt><trkpt lat="40.6468977" lon="14.6453652"><ele>21.0</ele><time>2026-04-06T11:41:48.999Z</time></trkpt><trkpt lat="40.6468455" lon="14.6452411"><ele>18.0</ele><time>2026-04-06T11:41:50Z</time></trkpt><trkpt lat="40.6467747" lon="14.6451324"><ele>15.000000000000002</ele><time>2026-04-06T11:41:51Z</time></trkpt><trkpt lat="40.6467143" lon="14.6450238"><ele>12.0</ele><time>2026-04-06T11:41:52Z</time></trkpt><trkpt lat="40.6466863" lon="14.6448988"><ele>9.0</ele><time>2026-04-06T11:41:53Z</time></trkpt><trkpt lat="40.6466933" lon="14.6447863"><ele>6.0</ele><time>2026-04-06T11:41:54Z</time></trkpt><trkpt lat="40.64672" lon="14.6446782"><ele>6.0</ele><time>2026-04-06T11:41:55Z</time></trkpt><trkpt lat="40.6467502" lon="14.6445794"><ele>6.0</ele><time>2026-04-06T11:41:56Z</time></trkpt><trkpt lat="40.6467924" lon="14.6444782"><ele>6.0</ele><time>2026-04-06T11:41:57Z</time></trkpt><trkpt lat="40.6468388" lon="14.6443831"><ele>6.0</ele><time>2026-04-06T11:41:58Z</time></trkpt><trkpt lat="40.646887" lon="14.6442814"><ele>6.0</ele><time>2026-04-06T11:41:59Z</time></trkpt><trkpt lat="40.6469354" lon="14.6441746"><ele>6.0</ele><time>2026-04-06T11:42:00Z</time></trkpt><trkpt lat="40.6469824" lon="14.6440589"><ele>6.6</ele><time>2026-04-06T11:42:01Z</time></trkpt><trkpt lat="40.6470334" lon="14.6439394"><ele>7.199999999999999</ele><time>2026-04-06T11:42:02Z</time></trkpt><trkpt lat="40.6470811" lon="14.6438154"><ele>7.800000000000001</ele><time>2026-04-06T11:42:03Z</time></trkpt><trkpt lat="40.647144" lon="14.6436947"><ele>8.4</ele><time>2026-04-06T11:42:04Z</time></trkpt><trkpt lat="40.6471931" lon="14.6435699"><ele>9.0</ele><time>2026-04-06T11:42:05Z</time></trkpt><trkpt lat="40.6472471" lon="14.6434421"><ele>9.0</ele><time>2026-04-06T11:42:06Z</time></trkpt><trkpt lat="40.6472995" lon="14.6433156"><ele>9.0</ele><time>2026-04-06T11:42:07Z</time></trkpt><trkpt lat="40.6473465" lon="14.6431947"><ele>9.0</ele><time>2026-04-06T11:42:08Z</time></trkpt><trkpt lat="40.6473946" lon="14.6430823"><ele>9.0</ele><time>2026-04-06T11:42:09Z</time></trkpt><trkpt lat="40.6474389" lon="14.6429729"><ele>9.0</ele><time>2026-04-06T11:42:09.999Z</time></trkpt><trkpt lat="40.6474835" lon="14.6428667"><ele>9.0</ele><time>2026-04-06T11:42:11Z</time></trkpt><trkpt lat="40.6475263" lon="14.6427569"><ele>9.0</ele><time>2026-04-06T11:42:11.999Z</time></trkpt><trkpt lat="40.647571" lon="14.6426512"><ele>9.0</ele><time>2026-04-06T11:42:13Z</time></trkpt><trkpt lat="40.6476188" lon="14.6425528"><ele>9.0</ele><time>2026-04-06T11:42:14Z</time></trkpt><trkpt lat="40.6476621" lon="14.6424441"><ele>9.0</ele><time>2026-04-06T11:42:15Z</time></trkpt><trkpt lat="40.6476985" lon="14.6423405"><ele>9.0</ele><time>2026-04-06T11:42:16Z</time></trkpt><trkpt lat="40.6477367" lon="14.6422348"><ele>9.0</ele><time>2026-04-06T11:42:17Z</time></trkpt><trkpt lat="40.6477777" lon="14.6421253"><ele>9.0</ele><time>2026-04-06T11:42:18Z</time></trkpt><trkpt lat="40.6478199" lon="14.6420094"><ele>9.0</ele><time>2026-04-06T11:42:19Z</time></trkpt><trkpt lat="40.6478662" lon="14.641888"><ele>9.0</ele><time>2026-04-06T11:42:20Z</time></trkpt><trkpt lat="40.6479173" lon="14.6417649"><ele>9.6</ele><time>2026-04-06T11:42:21Z</time></trkpt><trkpt lat="40.6479647" lon="14.6416381"><ele>10.2</ele><time>2026-04-06T11:42:22Z</time></trkpt><trkpt lat="40.6480099" lon="14.64151"><ele>10.799999999999999</ele><time>2026-04-06T11:42:22.999Z</time></trkpt><trkpt lat="40.6480552" lon="14.6413835"><ele>11.4</ele><time>2026-04-06T11:42:24Z</time></trkpt><trkpt lat="40.6480925" lon="14.6412643"><ele>12.0</ele><time>2026-04-06T11:42:25Z</time></trkpt><trkpt lat="40.6481284" lon="14.6411702"><ele>12.2</ele><time>2026-04-06T11:42:26Z</time></trkpt><trkpt lat="40.6481719" lon="14.6410558"><ele>12.399999999999999</ele><time>2026-04-06T11:42:28Z</time></trkpt><trkpt lat="40.6482002" lon="14.6409291"><ele>12.600000000000001</ele><time>2026-04-06T11:42:31Z</time></trkpt><trkpt lat="40.6482542" lon="14.6407895"><ele>12.8</ele><time>2026-04-06T11:42:32.999Z</time></trkpt><trkpt lat="40.648296" lon="14.6406972"><ele>13.0</ele><time>2026-04-06T11:42:34Z</time></trkpt><trkpt lat="40.6483384" lon="14.6405955"><ele>12.999999999999998</ele><time>2026-04-06T11:42:35Z</time></trkpt><trkpt lat="40.6483786" lon="14.6404826"><ele>13.0</ele><time>2026-04-06T11:42:36Z</time></trkpt><trkpt lat="40.6484159" lon="14.6403693"><ele>13.0</ele><time>2026-04-06T11:42:37Z</time></trkpt><trkpt lat="40.6484541" lon="14.6402562"><ele>13.0</ele><time>2026-04-06T11:42:38Z</time></trkpt><trkpt lat="40.6484907" lon="14.6401573"><ele>12.999999999999998</ele><time>2026-04-06T11:42:38.999Z</time></trkpt><trkpt lat="40.6485257" lon="14.6400666"><ele>13.0</ele><time>2026-04-06T11:42:40Z</time></trkpt><trkpt lat="40.6485575" lon="14.6399877"><ele>13.499999999999998</ele><time>2026-04-06T11:42:41Z</time></trkpt><trkpt lat="40.648603" lon="14.6398753"><ele>14.0</ele><time>2026-04-06T11:42:43Z</time></trkpt><trkpt lat="40.6486425" lon="14.639793"><ele>14.5</ele><time>2026-04-06T11:42:46Z</time></trkpt><trkpt lat="40.6486825" lon="14.6396866"><ele>15.0</ele><time>2026-04-06T11:42:49Z</time></trkpt><trkpt lat="40.6487242" lon="14.6395631"><ele>15.499999999999998</ele><time>2026-04-06T11:42:51Z</time></trkpt><trkpt lat="40.6487542" lon="14.6394821"><ele>16.0</ele><time>2026-04-06T11:42:52Z</time></trkpt><trkpt lat="40.6487846" lon="14.6393949"><ele>15.999999999999998</ele><time>2026-04-06T11:42:53Z</time></trkpt><trkpt lat="40.6488171" lon="14.6393139"><ele>16.0</ele><time>2026-04-06T11:42:54Z</time></trkpt><trkpt lat="40.6488443" lon="14.6392338"><ele>16.0</ele><time>2026-04-06T11:42:55Z</time></trkpt><trkpt lat="40.6488953" lon="14.639081"><ele>16.0</ele><time>2026-04-06T11:42:57Z</time></trkpt><trkpt lat="40.6489183" lon="14.6389976"><ele>15.999999999999998</ele><time>2026-04-06T11:42:58Z</time></trkpt><trkpt lat="40.6489392" lon="14.6389093"><ele>16.0</ele><time>2026-04-06T11:42:59Z</time></trkpt><trkpt lat="40.6489544" lon="14.6388108"><ele>16.0</ele><time>2026-04-06T11:43:00Z</time></trkpt><trkpt lat="40.6489699" lon="14.6387062"><ele>15.999999999999998</ele><time>2026-04-06T11:43:01Z</time></trkpt><trkpt lat="40.648987" lon="14.638608"><ele>16.0</ele><time>2026-04-06T11:43:02Z</time></trkpt><trkpt lat="40.6490024" lon="14.6385136"><ele>16.0</ele><time>2026-04-06T11:43:03Z</time></trkpt><trkpt lat="40.6490176" lon="14.6384205"><ele>15.999999999999998</ele><time>2026-04-06T11:43:04Z</time></trkpt><trkpt lat="40.649031" lon="14.638332"><ele>16.0</ele><time>2026-04-06T11:43:05Z</time></trkpt><trkpt lat="40.6490451" lon="14.6382428"><ele>16.0</ele><time>2026-04-06T11:43:06Z</time></trkpt><trkpt lat="40.6490582" lon="14.6381538"><ele>15.714285714285714</ele><time>2026-04-06T11:43:07Z</time></trkpt><trkpt lat="40.6490715" lon="14.6380578"><ele>15.428571428571427</ele><time>2026-04-06T11:43:08Z</time></trkpt><trkpt lat="40.6490871" lon="14.6379708"><ele>15.142857142857142</ele><time>2026-04-06T11:43:09Z</time></trkpt><trkpt lat="40.649103" lon="14.637881"><ele>14.857142857142858</ele><time>2026-04-06T11:43:10Z</time></trkpt><trkpt lat="40.6491201" lon="14.6377926"><ele>14.571428571428571</ele><time>2026-04-06T11:43:11Z</time></trkpt><trkpt lat="40.6491362" lon="14.6376947"><ele>14.285714285714285</ele><time>2026-04-06T11:43:12Z</time></trkpt><trkpt lat="40.6491503" lon="14.6376103"><ele>14.0</ele><time>2026-04-06T11:43:13Z</time></trkpt><trkpt lat="40.6491747" lon="14.6374839"><ele>13.500000000000002</ele><time>2026-04-06T11:43:14.999Z</time></trkpt><trkpt lat="40.6491954" lon="14.6373891"><ele>13.0</ele><time>2026-04-06T11:43:17Z</time></trkpt><trkpt lat="40.6492106" lon="14.6372952"><ele>12.5</ele><time>2026-04-06T11:43:19Z</time></trkpt><trkpt lat="40.6492244" lon="14.6371869"><ele>12.0</ele><time>2026-04-06T11:43:21Z</time></trkpt><trkpt lat="40.649239" lon="14.6370897"><ele>11.5</ele><time>2026-04-06T11:43:23Z</time></trkpt><trkpt lat="40.6492482" lon="14.6369857"><ele>11.0</ele><time>2026-04-06T11:43:25Z</time></trkpt><trkpt lat="40.6492666" lon="14.6369006"><ele>10.8</ele><time>2026-04-06T11:43:25.999Z</time></trkpt><trkpt lat="40.6492826" lon="14.6368092"><ele>10.600000000000001</ele><time>2026-04-06T11:43:27Z</time></trkpt><trkpt lat="40.6493066" lon="14.6366571"><ele>10.4</ele><time>2026-04-06T11:43:29Z</time></trkpt><trkpt lat="40.6493315" lon="14.6365035"><ele>10.2</ele><time>2026-04-06T11:43:31Z</time></trkpt><trkpt lat="40.6493569" lon="14.6363378"><ele>10.0</ele><time>2026-04-06T11:43:33Z</time></trkpt><trkpt lat="40.6493883" lon="14.6362152"><ele>9.666666666666668</ele><time>2026-04-06T11:43:35Z</time></trkpt><trkpt lat="40.6494222" lon="14.6360818"><ele>9.333333333333334</ele><time>2026-04-06T11:43:37Z</time></trkpt><trkpt lat="40.6494446" lon="14.6359928"><ele>9.0</ele><time>2026-04-06T11:43:39Z</time></trkpt><trkpt lat="40.6494401" lon="14.6359045"><ele>8.666666666666666</ele><time>2026-04-06T11:43:44Z</time></trkpt><trkpt lat="40.6494562" lon="14.6357935"><ele>8.333333333333332</ele><time>2026-04-06T11:43:47Z</time></trkpt><trkpt lat="40.6494697" lon="14.6356824"><ele>8.0</ele><time>2026-04-06T11:43:49Z</time></trkpt><trkpt lat="40.6494909" lon="14.635554"><ele>13.600000000000001</ele><time>2026-04-06T11:43:51Z</time></trkpt><trkpt lat="40.6495022" lon="14.6353799"><ele>19.200000000000003</ele><time>2026-04-06T11:43:53Z</time></trkpt><trkpt lat="40.6495085" lon="14.6352897"><ele>24.8</ele><time>2026-04-06T11:43:54Z</time></trkpt><trkpt lat="40.6495152" lon="14.6351978"><ele>30.400000000000002</ele><time>2026-04-06T11:43:55.174Z</time></trkpt><trkpt lat="40.6495164" lon="14.6350025"><ele>36.0</ele><time>2026-04-06T11:43:57Z</time></trkpt><trkpt lat="40.6495095" lon="14.6349035"><ele>36.57142857142858</ele><time>2026-04-06T11:43:58Z</time></trkpt><trkpt lat="40.6495025" lon="14.6348054"><ele>37.142857142857146</ele><time>2026-04-06T11:43:59Z</time></trkpt><trkpt lat="40.6494935" lon="14.6347059"><ele>37.714285714285715</ele><time>2026-04-06T11:43:59.999Z</time></trkpt><trkpt lat="40.6494812" lon="14.6346192"><ele>38.28571428571429</ele><time>2026-04-06T11:44:01Z</time></trkpt><trkpt lat="40.6494675" lon="14.6345308"><ele>38.85714285714286</ele><time>2026-04-06T11:44:02Z</time></trkpt><trkpt lat="40.6494495" lon="14.6344471"><ele>39.42857142857143</ele><time>2026-04-06T11:44:03Z</time></trkpt><trkpt lat="40.6494225" lon="14.634367"><ele>40.0</ele><time>2026-04-06T11:44:04Z</time></trkpt><trkpt lat="40.6493925" lon="14.6342912"><ele>38.66666666666667</ele><time>2026-04-06T11:44:05Z</time></trkpt><trkpt lat="40.6493304" lon="14.6341594"><ele>37.333333333333336</ele><time>2026-04-06T11:44:07Z</time></trkpt><trkpt lat="40.6492815" lon="14.6340877"><ele>36.0</ele><time>2026-04-06T11:44:08Z</time></trkpt><trkpt lat="40.6492189" lon="14.6340084"><ele>34.666666666666664</ele><time>2026-04-06T11:44:08.999Z</time></trkpt><trkpt lat="40.6491543" lon="14.6339354"><ele>33.33333333333333</ele><time>2026-04-06T11:44:10Z</time></trkpt><trkpt lat="40.6490952" lon="14.6338693"><ele>32.0</ele><time>2026-04-06T11:44:11Z</time></trkpt><trkpt lat="40.6490436" lon="14.6338056"><ele>32.0</ele><time>2026-04-06T11:44:11.999Z</time></trkpt><trkpt lat="40.6489924" lon="14.6337439"><ele>31.999999999999996</ele><time>2026-04-06T11:44:13Z</time></trkpt><trkpt lat="40.6489428" lon="14.6336811"><ele>32.0</ele><time>2026-04-06T11:44:14Z</time></trkpt><trkpt lat="40.6488903" lon="14.6336264"><ele>32.0</ele><time>2026-04-06T11:44:15Z</time></trkpt><trkpt lat="40.6488378" lon="14.6335743"><ele>31.999999999999996</ele><time>2026-04-06T11:44:16Z</time></trkpt><trkpt lat="40.6487796" lon="14.6335225"><ele>32.0</ele><time>2026-04-06T11:44:17Z</time></trkpt><trkpt lat="40.6487244" lon="14.6334748"><ele>32.0</ele><time>2026-04-06T11:44:18Z</time></trkpt><trkpt lat="40.6486267" lon="14.6334231"><ele>31.666666666666664</ele><time>2026-04-06T11:44:20Z</time></trkpt><trkpt lat="40.6485347" lon="14.6333845"><ele>31.333333333333332</ele><time>2026-04-06T11:44:22Z</time></trkpt><trkpt lat="40.6484462" lon="14.6334089"><ele>31.0</ele><time>2026-04-06T11:44:23.999Z</time></trkpt><trkpt lat="40.6483616" lon="14.6334679"><ele>30.666666666666664</ele><time>2026-04-06T11:44:27Z</time></trkpt><trkpt lat="40.6483106" lon="14.6335311"><ele>30.333333333333332</ele><time>2026-04-06T11:44:28Z</time></trkpt><trkpt lat="40.6482531" lon="14.6335872"><ele>30.0</ele><time>2026-04-06T11:44:29Z</time></trkpt><trkpt lat="40.6481516" lon="14.6336525"><ele>30.0</ele><time>2026-04-06T11:44:30.999Z</time></trkpt><trkpt lat="40.6480621" lon="14.6336648"><ele>30.0</ele><time>2026-04-06T11:44:33Z</time></trkpt><trkpt lat="40.6479954" lon="14.6336361"><ele>30.0</ele><time>2026-04-06T11:44:35Z</time></trkpt><trkpt lat="40.6479565" lon="14.6335621"><ele>30.0</ele><time>2026-04-06T11:44:37Z</time></trkpt><trkpt lat="40.6479091" lon="14.6334545"><ele>30.0</ele><time>2026-04-06T11:44:39Z</time></trkpt><trkpt lat="40.6479183" lon="14.6333039"><ele>30.0</ele><time>2026-04-06T11:44:41Z</time></trkpt><trkpt lat="40.6479493" lon="14.6331692"><ele>30.0</ele><time>2026-04-06T11:44:43Z</time></trkpt><trkpt lat="40.6479763" lon="14.6330141"><ele>30.0</ele><time>2026-04-06T11:44:45Z</time></trkpt><trkpt lat="40.6479893" lon="14.6329273"><ele>30.0</ele><time>2026-04-06T11:44:46Z</time></trkpt><trkpt lat="40.6480016" lon="14.6328439"><ele>30.0</ele><time>2026-04-06T11:44:47Z</time></trkpt><trkpt lat="40.6480092" lon="14.6327543"><ele>30.0</ele><time>2026-04-06T11:44:48Z</time></trkpt><trkpt lat="40.648016" lon="14.6326654"><ele>30.0</ele><time>2026-04-06T11:44:49Z</time></trkpt><trkpt lat="40.6480403" lon="14.6325771"><ele>30.571428571428573</ele><time>2026-04-06T11:44:49.999Z</time></trkpt><trkpt lat="40.6480614" lon="14.632481"><ele>31.14285714285714</ele><time>2026-04-06T11:44:51Z</time></trkpt><trkpt lat="40.6480865" lon="14.6324016"><ele>31.71428571428571</ele><time>2026-04-06T11:44:52Z</time></trkpt><trkpt lat="40.6481099" lon="14.6323176"><ele>32.285714285714285</ele><time>2026-04-06T11:44:53Z</time></trkpt><trkpt lat="40.648132" lon="14.6322309"><ele>32.857142857142854</ele><time>2026-04-06T11:44:54Z</time></trkpt><trkpt lat="40.6481544" lon="14.6321368"><ele>33.42857142857142</ele><time>2026-04-06T11:44:55Z</time></trkpt><trkpt lat="40.6481781" lon="14.6320305"><ele>34.0</ele><time>2026-04-06T11:44:56Z</time></trkpt><trkpt lat="40.6482047" lon="14.6319238"><ele>34.0</ele><time>2026-04-06T11:44:57Z</time></trkpt><trkpt lat="40.6482351" lon="14.6318063"><ele>34.0</ele><time>2026-04-06T11:44:58Z</time></trkpt><trkpt lat="40.6482622" lon="14.6316663"><ele>34.0</ele><time>2026-04-06T11:44:59Z</time></trkpt><trkpt lat="40.6482965" lon="14.6315096"><ele>34.0</ele><time>2026-04-06T11:45:00Z</time></trkpt><trkpt lat="40.6483288" lon="14.6313577"><ele>34.0</ele><time>2026-04-06T11:45:01Z</time></trkpt><trkpt lat="40.6483499" lon="14.631207"><ele>31.6</ele><time>2026-04-06T11:45:02Z</time></trkpt><trkpt lat="40.6483635" lon="14.6310392"><ele>29.2</ele><time>2026-04-06T11:45:02.999Z</time></trkpt><trkpt lat="40.6483745" lon="14.6309119"><ele>26.8</ele><time>2026-04-06T11:45:04Z</time></trkpt><trkpt lat="40.6483802" lon="14.6307842"><ele>24.400000000000002</ele><time>2026-04-06T11:45:05Z</time></trkpt><trkpt lat="40.6483993" lon="14.6306648"><ele>22.0</ele><time>2026-04-06T11:45:06Z</time></trkpt><trkpt lat="40.6484231" lon="14.63055"><ele>22.0</ele><time>2026-04-06T11:45:07Z</time></trkpt><trkpt lat="40.6484464" lon="14.6304402"><ele>22.0</ele><time>2026-04-06T11:45:08Z</time></trkpt><trkpt lat="40.6484698" lon="14.6303415"><ele>22.0</ele><time>2026-04-06T11:45:09Z</time></trkpt><trkpt lat="40.6484961" lon="14.6302473"><ele>22.0</ele><time>2026-04-06T11:45:10Z</time></trkpt><trkpt lat="40.6485168" lon="14.6301572"><ele>22.0</ele><time>2026-04-06T11:45:10.999Z</time></trkpt><trkpt lat="40.6485384" lon="14.6300781"><ele>22.0</ele><time>2026-04-06T11:45:12Z</time></trkpt><trkpt lat="40.6485657" lon="14.6300033"><ele>22.0</ele><time>2026-04-06T11:45:13Z</time></trkpt><trkpt lat="40.6486453" lon="14.6298976"><ele>28.200000000000003</ele><time>2026-04-06T11:45:15Z</time></trkpt><trkpt lat="40.6487338" lon="14.6298275"><ele>34.4</ele><time>2026-04-06T11:45:17Z</time></trkpt><trkpt lat="40.6488194" lon="14.629767"><ele>40.599999999999994</ele><time>2026-04-06T11:45:19Z</time></trkpt><trkpt lat="40.6489145" lon="14.6296948"><ele>46.8</ele><time>2026-04-06T11:45:21Z</time></trkpt><trkpt lat="40.6490444" lon="14.6296342"><ele>53.0</ele><time>2026-04-06T11:45:23Z</time></trkpt><trkpt lat="40.6491108" lon="14.6295905"><ele>53.0</ele><time>2026-04-06T11:45:24Z</time></trkpt><trkpt lat="40.6491821" lon="14.6295523"><ele>53.0</ele><time>2026-04-06T11:45:25Z</time></trkpt><trkpt lat="40.6492433" lon="14.6295244"><ele>53.0</ele><time>2026-04-06T11:45:25.999Z</time></trkpt><trkpt lat="40.6493043" lon="14.6294752"><ele>53.0</ele><time>2026-04-06T11:45:27Z</time></trkpt><trkpt lat="40.6493655" lon="14.6294236"><ele>53.0</ele><time>2026-04-06T11:45:27.999Z</time></trkpt><trkpt lat="40.6494266" lon="14.6293747"><ele>53.0</ele><time>2026-04-06T11:45:29Z</time></trkpt><trkpt lat="40.6494844" lon="14.6293309"><ele>53.0</ele><time>2026-04-06T11:45:30Z</time></trkpt><trkpt lat="40.6495395" lon="14.6292814"><ele>51.00000000000001</ele><time>2026-04-06T11:45:31Z</time></trkpt><trkpt lat="40.649637" lon="14.629183"><ele>49.0</ele><time>2026-04-06T11:45:33Z</time></trkpt><trkpt lat="40.6496751" lon="14.6291167"><ele>47.0</ele><time>2026-04-06T11:45:34Z</time></trkpt><trkpt lat="40.6496879" lon="14.6290229"><ele>45.0</ele><time>2026-04-06T11:45:35Z</time></trkpt><trkpt lat="40.6496904" lon="14.6289324"><ele>43.0</ele><time>2026-04-06T11:45:35.999Z</time></trkpt><trkpt lat="40.6496809" lon="14.6288437"><ele>41.0</ele><time>2026-04-06T11:45:37Z</time></trkpt><trkpt lat="40.6496678" lon="14.6287523"><ele>35.0</ele><time>2026-04-06T11:45:38Z</time></trkpt><trkpt lat="40.6496487" lon="14.6286034"><ele>29.0</ele><time>2026-04-06T11:45:40Z</time></trkpt><trkpt lat="40.6496302" lon="14.6284679"><ele>23.0</ele><time>2026-04-06T11:45:42Z</time></trkpt><trkpt lat="40.6496137" lon="14.6283627"><ele>17.0</ele><time>2026-04-06T11:45:44Z</time></trkpt><trkpt lat="40.6496055" lon="14.6282579"><ele>11.0</ele><time>2026-04-06T11:45:48Z</time></trkpt><trkpt lat="40.6495873" lon="14.6281251"><ele>11.0</ele><time>2026-04-06T11:45:51Z</time></trkpt><trkpt lat="40.6495682" lon="14.6279887"><ele>11.0</ele><time>2026-04-06T11:45:53Z</time></trkpt><trkpt lat="40.649548" lon="14.6278452"><ele>11.0</ele><time>2026-04-06T11:45:55Z</time></trkpt><trkpt lat="40.649527" lon="14.627687"><ele>11.0</ele><time>2026-04-06T11:45:57Z</time></trkpt><trkpt lat="40.6495158" lon="14.6276048"><ele>11.0</ele><time>2026-04-06T11:45:58Z</time></trkpt><trkpt lat="40.6494885" lon="14.6274476"><ele>11.200000000000001</ele><time>2026-04-06T11:46:00Z</time></trkpt><trkpt lat="40.6494737" lon="14.6272887"><ele>11.4</ele><time>2026-04-06T11:46:02Z</time></trkpt><trkpt lat="40.6494553" lon="14.6271514"><ele>11.6</ele><time>2026-04-06T11:46:04Z</time></trkpt><trkpt lat="40.6494441" lon="14.6270129"><ele>11.8</ele><time>2026-04-06T11:46:05.999Z</time></trkpt><trkpt lat="40.6494296" lon="14.6268752"><ele>12.0</ele><time>2026-04-06T11:46:08Z</time></trkpt><trkpt lat="40.6494082" lon="14.6267413"><ele>12.0</ele><time>2026-04-06T11:46:10Z</time></trkpt><trkpt lat="40.6493838" lon="14.6266063"><ele>12.0</ele><time>2026-04-06T11:46:12Z</time></trkpt><trkpt lat="40.6493618" lon="14.626478"><ele>12.0</ele><time>2026-04-06T11:46:14Z</time></trkpt><trkpt lat="40.649372" lon="14.6263394"><ele>12.0</ele><time>2026-04-06T11:46:16Z</time></trkpt><trkpt lat="40.6494509" lon="14.6262062"><ele>12.0</ele><time>2026-04-06T11:46:17.999Z</time></trkpt><trkpt lat="40.649508" lon="14.6261514"><ele>13.833333333333334</ele><time>2026-04-06T11:46:19Z</time></trkpt><trkpt lat="40.6495784" lon="14.6261077"><ele>15.666666666666668</ele><time>2026-04-06T11:46:20Z</time></trkpt><trkpt lat="40.6496541" lon="14.6260392"><ele>17.5</ele><time>2026-04-06T11:46:21Z</time></trkpt><trkpt lat="40.6497103" lon="14.6259941"><ele>19.333333333333336</ele><time>2026-04-06T11:46:22Z</time></trkpt><trkpt lat="40.6498022" lon="14.6259306"><ele>21.166666666666668</ele><time>2026-04-06T11:46:23Z</time></trkpt><trkpt lat="40.6498865" lon="14.6258805"><ele>23.0</ele><time>2026-04-06T11:46:24Z</time></trkpt><trkpt lat="40.649986" lon="14.6258449"><ele>23.0</ele><time>2026-04-06T11:46:25Z</time></trkpt><trkpt lat="40.6500795" lon="14.6258015"><ele>23.0</ele><time>2026-04-06T11:46:26Z</time></trkpt><trkpt lat="40.6501957" lon="14.6257521"><ele>23.0</ele><time>2026-04-06T11:46:27Z</time></trkpt><trkpt lat="40.6503162" lon="14.6256885"><ele>23.0</ele><time>2026-04-06T11:46:28Z</time></trkpt><trkpt lat="40.6504664" lon="14.6256514"><ele>22.0</ele><time>2026-04-06T11:46:29Z</time></trkpt><trkpt lat="40.6506009" lon="14.6256024"><ele>21.0</ele><time>2026-04-06T11:46:30Z</time></trkpt><trkpt lat="40.650723" lon="14.6255743"><ele>20.0</ele><time>2026-04-06T11:46:31Z</time></trkpt><trkpt lat="40.6508301" lon="14.6255437"><ele>19.0</ele><time>2026-04-06T11:46:32Z</time></trkpt><trkpt lat="40.6509315" lon="14.6255028"><ele>19.0</ele><time>2026-04-06T11:46:33Z</time></trkpt><trkpt lat="40.6510103" lon="14.6253886"><ele>19.0</ele><time>2026-04-06T11:46:35Z</time></trkpt><trkpt lat="40.6509832" lon="14.6252371"><ele>19.0</ele><time>2026-04-06T11:46:37Z</time></trkpt><trkpt lat="40.6507741" lon="14.6252864"><ele>19.0</ele><time>2026-04-06T11:46:39Z</time></trkpt><trkpt lat="40.6506734" lon="14.6253287"><ele>19.0</ele><time>2026-04-06T11:46:40Z</time></trkpt><trkpt lat="40.6505462" lon="14.6253851"><ele>19.0</ele><time>2026-04-06T11:46:41Z</time></trkpt><trkpt lat="40.650427" lon="14.625423"><ele>19.0</ele><time>2026-04-06T11:46:42Z</time></trkpt><trkpt lat="40.6503244" lon="14.6254682"><ele>19.0</ele><time>2026-04-06T11:46:43Z</time></trkpt><trkpt lat="40.6502241" lon="14.6255135"><ele>19.666666666666664</ele><time>2026-04-06T11:46:44Z</time></trkpt><trkpt lat="40.6501433" lon="14.625548"><ele>20.333333333333332</ele><time>2026-04-06T11:46:45Z</time></trkpt><trkpt lat="40.6500706" lon="14.6255565"><ele>21.0</ele><time>2026-04-06T11:46:46Z</time></trkpt><trkpt lat="40.6499995" lon="14.6255595"><ele>21.666666666666668</ele><time>2026-04-06T11:46:47Z</time></trkpt><trkpt lat="40.6499413" lon="14.6254937"><ele>22.333333333333336</ele><time>2026-04-06T11:46:48Z</time></trkpt><trkpt lat="40.6498846" lon="14.6254323"><ele>23.0</ele><time>2026-04-06T11:46:48.999Z</time></trkpt><trkpt lat="40.6497994" lon="14.62542"><ele>23.0</ele><time>2026-04-06T11:46:50Z</time></trkpt><trkpt lat="40.6497143" lon="14.6254438"><ele>23.0</ele><time>2026-04-06T11:46:50.999Z</time></trkpt><trkpt lat="40.6496313" lon="14.6254737"><ele>23.0</ele><time>2026-04-06T11:46:52Z</time></trkpt><trkpt lat="40.6495369" lon="14.6255208"><ele>23.0</ele><time>2026-04-06T11:46:53Z</time></trkpt><trkpt lat="40.6494433" lon="14.6255584"><ele>23.0</ele><time>2026-04-06T11:46:54Z</time></trkpt><trkpt lat="40.6493407" lon="14.6256309"><ele>26.0</ele><time>2026-04-06T11:46:55Z</time></trkpt><trkpt lat="40.6493038" lon="14.6257364"><ele>29.0</ele><time>2026-04-06T11:46:56Z</time></trkpt><trkpt lat="40.6492421" lon="14.6258506"><ele>31.999999999999996</ele><time>2026-04-06T11:46:58Z</time></trkpt><trkpt lat="40.6491958" lon="14.6259113"><ele>35.0</ele><time>2026-04-06T11:46:59Z</time></trkpt><trkpt lat="40.6490702" lon="14.6259288"><ele>38.0</ele><time>2026-04-06T11:47:01Z</time></trkpt><trkpt lat="40.6489914" lon="14.6258842"><ele>38.0</ele><time>2026-04-06T11:47:02Z</time></trkpt><trkpt lat="40.6489202" lon="14.6258727"><ele>38.0</ele><time>2026-04-06T11:47:03Z</time></trkpt><trkpt lat="40.6488498" lon="14.6258597"><ele>38.0</ele><time>2026-04-06T11:47:04Z</time></trkpt><trkpt lat="40.6487839" lon="14.6258544"><ele>38.0</ele><time>2026-04-06T11:47:05Z</time></trkpt><trkpt lat="40.6487221" lon="14.6258157"><ele>38.0</ele><time>2026-04-06T11:47:05.999Z</time></trkpt><trkpt lat="40.6486562" lon="14.6257643"><ele>38.0</ele><time>2026-04-06T11:47:07Z</time></trkpt><trkpt lat="40.6485927" lon="14.6257217"><ele>38.0</ele><time>2026-04-06T11:47:08Z</time></trkpt><trkpt lat="40.648535" lon="14.6256807"><ele>39.14285714285714</ele><time>2026-04-06T11:47:09Z</time></trkpt><trkpt lat="40.6484761" lon="14.6256343"><ele>40.28571428571429</ele><time>2026-04-06T11:47:09.999Z</time></trkpt><trkpt lat="40.6484223" lon="14.6255789"><ele>41.42857142857143</ele><time>2026-04-06T11:47:11Z</time></trkpt><trkpt lat="40.6483793" lon="14.625511"><ele>42.57142857142857</ele><time>2026-04-06T11:47:12Z</time></trkpt><trkpt lat="40.6483601" lon="14.6254265"><ele>43.71428571428571</ele><time>2026-04-06T11:47:13Z</time></trkpt><trkpt lat="40.6483589" lon="14.6253274"><ele>44.85714285714286</ele><time>2026-04-06T11:47:14Z</time></trkpt><trkpt lat="40.6483637" lon="14.6252303"><ele>46.0</ele><time>2026-04-06T11:47:15Z</time></trkpt><trkpt lat="40.6483647" lon="14.6251407"><ele>46.0</ele><time>2026-04-06T11:47:16Z</time></trkpt><trkpt lat="40.6483635" lon="14.6249794"><ele>46.0</ele><time>2026-04-06T11:47:18Z</time></trkpt><trkpt lat="40.6483022" lon="14.6248278"><ele>46.0</ele><time>2026-04-06T11:47:20Z</time></trkpt><trkpt lat="40.6482412" lon="14.6247858"><ele>46.0</ele><time>2026-04-06T11:47:21Z</time></trkpt><trkpt lat="40.6481744" lon="14.6247463"><ele>46.0</ele><time>2026-04-06T11:47:22Z</time></trkpt><trkpt lat="40.6481129" lon="14.6247129"><ele>46.0</ele><time>2026-04-06T11:47:23Z</time></trkpt><trkpt lat="40.6480018" lon="14.6246434"><ele>46.0</ele><time>2026-04-06T11:47:25Z</time></trkpt><trkpt lat="40.6479531" lon="14.6245744"><ele>46.0</ele><time>2026-04-06T11:47:27Z</time></trkpt><trkpt lat="40.6478889" lon="14.6245096"><ele>46.0</ele><time>2026-04-06T11:47:45Z</time></trkpt><trkpt lat="40.6478745" lon="14.6243491"><ele>46.0</ele><time>2026-04-06T11:48:01Z</time></trkpt><trkpt lat="40.6478884" lon="14.6242057"><ele>48.66666666666667</ele><time>2026-04-06T11:48:03Z</time></trkpt><trkpt lat="40.6479138" lon="14.6241005"><ele>51.333333333333336</ele><time>2026-04-06T11:48:05Z</time></trkpt><trkpt lat="40.64798" lon="14.6240068"><ele>54.0</ele><time>2026-04-06T11:48:07Z</time></trkpt><trkpt lat="40.6480472" lon="14.6239391"><ele>56.66666666666667</ele><time>2026-04-06T11:48:09Z</time></trkpt><trkpt lat="40.6480868" lon="14.6238705"><ele>59.333333333333336</ele><time>2026-04-06T11:48:12Z</time></trkpt><trkpt lat="40.648074" lon="14.6237281"><ele>62.0</ele><time>2026-04-06T11:49:33Z</time></trkpt><trkpt lat="40.6480769" lon="14.6236054"><ele>65.33333333333334</ele><time>2026-04-06T11:49:35Z</time></trkpt><trkpt lat="40.648019" lon="14.6234567"><ele>68.66666666666667</ele><time>2026-04-06T11:50:11Z</time></trkpt><trkpt lat="40.6479731" lon="14.6233453"><ele>72.0</ele><time>2026-04-06T11:50:13Z</time></trkpt><trkpt lat="40.6479286" lon="14.6232816"><ele>75.33333333333333</ele><time>2026-04-06T11:50:17Z</time></trkpt><trkpt lat="40.6479295" lon="14.6231835"><ele>78.66666666666666</ele><time>2026-04-06T11:52:05Z</time></trkpt><trkpt lat="40.647917" lon="14.623091"><ele>82.0</ele><time>2026-04-06T11:52:34Z</time></trkpt><trkpt lat="40.6479002" lon="14.6230106"><ele>81.99999999999999</ele><time>2026-04-06T11:52:45Z</time></trkpt><trkpt lat="40.6478696" lon="14.6229371"><ele>82.0</ele><time>2026-04-06T11:52:50Z</time></trkpt><trkpt lat="40.6478363" lon="14.6228515"><ele>82.0</ele><time>2026-04-06T11:52:55Z</time></trkpt><trkpt lat="40.6477957" lon="14.6227686"><ele>82.0</ele><time>2026-04-06T11:53:00Z</time></trkpt><trkpt lat="40.6477512" lon="14.6226867"><ele>82.0</ele><time>2026-04-06T11:53:31Z</time></trkpt><trkpt lat="40.6477041" lon="14.6226257"><ele>81.99999999999999</ele><time>2026-04-06T11:54:15Z</time></trkpt><trkpt lat="40.6476788" lon="14.6225425"><ele>82.0</ele><time>2026-04-06T11:54:19.999Z</time></trkpt><trkpt lat="40.6476525" lon="14.6224452"><ele>80.83333333333333</ele><time>2026-04-06T11:54:25Z</time></trkpt><trkpt lat="40.647633" lon="14.6223622"><ele>79.66666666666666</ele><time>2026-04-06T11:54:52Z</time></trkpt><trkpt lat="40.6475982" lon="14.622285"><ele>78.5</ele><time>2026-04-06T11:55:06Z</time></trkpt><trkpt lat="40.6475547" lon="14.6221719"><ele>77.33333333333333</ele><time>2026-04-06T11:55:09Z</time></trkpt><trkpt lat="40.6475261" lon="14.6220433"><ele>76.16666666666667</ele><time>2026-04-06T11:55:10.999Z</time></trkpt><trkpt lat="40.6474937" lon="14.6219068"><ele>75.0</ele><time>2026-04-06T11:55:13Z</time></trkpt><trkpt lat="40.6474246" lon="14.6217851"><ele>75.0</ele><time>2026-04-06T11:55:15Z</time></trkpt><trkpt lat="40.6473244" lon="14.6216995"><ele>75.0</ele><time>2026-04-06T11:55:17Z</time></trkpt><trkpt lat="40.6472651" lon="14.6216616"><ele>75.0</ele><time>2026-04-06T11:55:18Z</time></trkpt><trkpt lat="40.6471985" lon="14.6216307"><ele>75.0</ele><time>2026-04-06T11:55:19Z</time></trkpt><trkpt lat="40.6471293" lon="14.6216062"><ele>75.0</ele><time>2026-04-06T11:55:20Z</time></trkpt><trkpt lat="40.6470637" lon="14.6215817"><ele>75.0</ele><time>2026-04-06T11:55:21Z</time></trkpt><trkpt lat="40.6470003" lon="14.6215562"><ele>65.0</ele><time>2026-04-06T11:55:22Z</time></trkpt><trkpt lat="40.6469381" lon="14.6215284"><ele>55.0</ele><time>2026-04-06T11:55:23Z</time></trkpt><trkpt lat="40.6468778" lon="14.6214992"><ele>45.0</ele><time>2026-04-06T11:55:24Z</time></trkpt><trkpt lat="40.6467629" lon="14.6214735"><ele>35.0</ele><time>2026-04-06T11:55:26Z</time></trkpt><trkpt lat="40.64665" lon="14.6214668"><ele>25.0</ele><time>2026-04-06T11:55:28Z</time></trkpt><trkpt lat="40.6465666" lon="14.6213744"><ele>25.000000000000004</ele><time>2026-04-06T11:55:30Z</time></trkpt><trkpt lat="40.6465147" lon="14.6212576"><ele>25.0</ele><time>2026-04-06T11:55:33Z</time></trkpt><trkpt lat="40.6464768" lon="14.6211345"><ele>25.0</ele><time>2026-04-06T11:55:35Z</time></trkpt><trkpt lat="40.6464552" lon="14.6210384"><ele>25.0</ele><time>2026-04-06T11:55:37Z</time></trkpt><trkpt lat="40.6464469" lon="14.6209367"><ele>25.000000000000004</ele><time>2026-04-06T11:55:40Z</time></trkpt><trkpt lat="40.6464539" lon="14.620843"><ele>25.0</ele><time>2026-04-06T11:55:42Z</time></trkpt><trkpt lat="40.6464745" lon="14.6207589"><ele>27.42857142857143</ele><time>2026-04-06T11:55:44Z</time></trkpt><trkpt lat="40.6464978" lon="14.6206636"><ele>29.857142857142858</ele><time>2026-04-06T11:55:55Z</time></trkpt><trkpt lat="40.6465205" lon="14.6205554"><ele>32.285714285714285</ele><time>2026-04-06T11:56:03Z</time></trkpt><trkpt lat="40.6465414" lon="14.6204699"><ele>34.714285714285715</ele><time>2026-04-06T11:56:05Z</time></trkpt><trkpt lat="40.6465646" lon="14.6203922"><ele>37.142857142857146</ele><time>2026-04-06T11:56:09Z</time></trkpt><trkpt lat="40.6465696" lon="14.6202981"><ele>39.57142857142857</ele><time>2026-04-06T11:57:01Z</time></trkpt><trkpt lat="40.6465908" lon="14.6202123"><ele>42.0</ele><time>2026-04-06T11:57:05Z</time></trkpt><trkpt lat="40.646623" lon="14.6201286"><ele>42.666666666666664</ele><time>2026-04-06T11:57:09Z</time></trkpt><trkpt lat="40.6466584" lon="14.6200454"><ele>43.333333333333336</ele><time>2026-04-06T11:57:19.999Z</time></trkpt><trkpt lat="40.6466868" lon="14.6199259"><ele>44.0</ele><time>2026-04-06T11:57:23Z</time></trkpt><trkpt lat="40.6466816" lon="14.61984"><ele>44.66666666666667</ele><time>2026-04-06T11:57:25Z</time></trkpt><trkpt lat="40.6466534" lon="14.6197646"><ele>45.333333333333336</ele><time>2026-04-06T11:57:28Z</time></trkpt><trkpt lat="40.6466039" lon="14.6196744"><ele>46.0</ele><time>2026-04-06T11:58:05Z</time></trkpt><trkpt lat="40.646516" lon="14.619565"><ele>46.0</ele><time>2026-04-06T11:58:07Z</time></trkpt><trkpt lat="40.646431" lon="14.6194997"><ele>46.0</ele><time>2026-04-06T11:58:09Z</time></trkpt><trkpt lat="40.6463587" lon="14.6194763"><ele>46.0</ele><time>2026-04-06T11:58:11Z</time></trkpt><trkpt lat="40.6462842" lon="14.6194586"><ele>46.0</ele><time>2026-04-06T11:58:20Z</time></trkpt><trkpt lat="40.6462065" lon="14.6194161"><ele>46.0</ele><time>2026-04-06T11:58:23Z</time></trkpt><trkpt lat="40.6461504" lon="14.6193432"><ele>46.0</ele><time>2026-04-06T11:58:25Z</time></trkpt><trkpt lat="40.6461243" lon="14.6192209"><ele>48.8</ele><time>2026-04-06T11:58:27Z</time></trkpt><trkpt lat="40.6461601" lon="14.6190739"><ele>51.599999999999994</ele><time>2026-04-06T11:58:29Z</time></trkpt><trkpt lat="40.6461806" lon="14.6189161"><ele>54.4</ele><time>2026-04-06T11:58:31Z</time></trkpt><trkpt lat="40.6461729" lon="14.6187897"><ele>57.2</ele><time>2026-04-06T11:58:33Z</time></trkpt><trkpt lat="40.6461327" lon="14.6187139"><ele>60.0</ele><time>2026-04-06T11:58:35Z</time></trkpt><trkpt lat="40.6460612" lon="14.6186683"><ele>55.166666666666664</ele><time>2026-04-06T11:58:39Z</time></trkpt><trkpt lat="40.6459935" lon="14.6186968"><ele>50.333333333333336</ele><time>2026-04-06T11:58:41Z</time></trkpt><trkpt lat="40.645886" lon="14.6187693"><ele>45.5</ele><time>2026-04-06T11:58:43Z</time></trkpt><trkpt lat="40.6458173" lon="14.618819"><ele>40.66666666666667</ele><time>2026-04-06T11:58:44Z</time></trkpt><trkpt lat="40.6457414" lon="14.6188577"><ele>35.833333333333336</ele><time>2026-04-06T11:58:45Z</time></trkpt><trkpt lat="40.6456553" lon="14.618884"><ele>31.0</ele><time>2026-04-06T11:58:46Z</time></trkpt><trkpt lat="40.6455707" lon="14.6188906"><ele>31.000000000000004</ele><time>2026-04-06T11:58:47Z</time></trkpt><trkpt lat="40.6454829" lon="14.6188825"><ele>31.0</ele><time>2026-04-06T11:58:48Z</time></trkpt><trkpt lat="40.6453975" lon="14.6188666"><ele>31.0</ele><time>2026-04-06T11:58:49Z</time></trkpt><trkpt lat="40.6453123" lon="14.6188417"><ele>31.0</ele><time>2026-04-06T11:58:50Z</time></trkpt><trkpt lat="40.6452312" lon="14.6188088"><ele>31.000000000000004</ele><time>2026-04-06T11:58:51Z</time></trkpt><trkpt lat="40.6451502" lon="14.618755"><ele>31.0</ele><time>2026-04-06T11:58:51.999Z</time></trkpt><trkpt lat="40.6450775" lon="14.618684"><ele>36.6</ele><time>2026-04-06T11:58:53Z</time></trkpt><trkpt lat="40.6450087" lon="14.6186135"><ele>42.2</ele><time>2026-04-06T11:58:54Z</time></trkpt><trkpt lat="40.644929" lon="14.6185515"><ele>47.800000000000004</ele><time>2026-04-06T11:58:54.999Z</time></trkpt><trkpt lat="40.6448335" lon="14.6185124"><ele>53.400000000000006</ele><time>2026-04-06T11:58:56Z</time></trkpt><trkpt lat="40.6447382" lon="14.6185237"><ele>59.0</ele><time>2026-04-06T11:58:57Z</time></trkpt><trkpt lat="40.6446092" lon="14.6185267"><ele>59.0</ele><time>2026-04-06T11:58:58Z</time></trkpt><trkpt lat="40.6444846" lon="14.6185281"><ele>59.00000000000001</ele><time>2026-04-06T11:58:59Z</time></trkpt><trkpt lat="40.6443659" lon="14.6185318"><ele>59.00000000000001</ele><time>2026-04-06T11:59:00Z</time></trkpt><trkpt lat="40.6442653" lon="14.6185215"><ele>59.0</ele><time>2026-04-06T11:59:01Z</time></trkpt><trkpt lat="40.6441913" lon="14.6184771"><ele>59.0</ele><time>2026-04-06T11:59:02Z</time></trkpt><trkpt lat="40.6441447" lon="14.6183913"><ele>56.00000000000001</ele><time>2026-04-06T11:59:03Z</time></trkpt><trkpt lat="40.6441193" lon="14.6182723"><ele>53.0</ele><time>2026-04-06T11:59:04Z</time></trkpt><trkpt lat="40.6440959" lon="14.6181511"><ele>50.0</ele><time>2026-04-06T11:59:05Z</time></trkpt><trkpt lat="40.6440614" lon="14.6180451"><ele>47.0</ele><time>2026-04-06T11:59:06Z</time></trkpt><trkpt lat="40.644" lon="14.6179829"><ele>44.0</ele><time>2026-04-06T11:59:07Z</time></trkpt><trkpt lat="40.6439173" lon="14.6179653"><ele>41.0</ele><time>2026-04-06T11:59:08Z</time></trkpt><trkpt lat="40.6438279" lon="14.6179674"><ele>41.0</ele><time>2026-04-06T11:59:09Z</time></trkpt><trkpt lat="40.6437495" lon="14.6179454"><ele>41.0</ele><time>2026-04-06T11:59:10Z</time></trkpt><trkpt lat="40.6436899" lon="14.6178862"><ele>41.0</ele><time>2026-04-06T11:59:11Z</time></trkpt><trkpt lat="40.6436529" lon="14.6177924"><ele>41.0</ele><time>2026-04-06T11:59:12Z</time></trkpt><trkpt lat="40.6436281" lon="14.6177027"><ele>41.0</ele><time>2026-04-06T11:59:13Z</time></trkpt><trkpt lat="40.6435554" lon="14.6175992"><ele>41.0</ele><time>2026-04-06T11:59:15Z</time></trkpt><trkpt lat="40.6434741" lon="14.6176201"><ele>38.166666666666664</ele><time>2026-04-06T11:59:17Z</time></trkpt><trkpt lat="40.643426" lon="14.617681"><ele>35.33333333333333</ele><time>2026-04-06T11:59:19Z</time></trkpt><trkpt lat="40.6433826" lon="14.6177497"><ele>32.5</ele><time>2026-04-06T11:59:52Z</time></trkpt><trkpt lat="40.6433114" lon="14.6178497"><ele>29.666666666666664</ele><time>2026-04-06T11:59:54Z</time></trkpt><trkpt lat="40.643258" lon="14.6179138"><ele>26.833333333333332</ele><time>2026-04-06T11:59:55Z</time></trkpt><trkpt lat="40.6432006" lon="14.6179665"><ele>24.0</ele><time>2026-04-06T11:59:56Z</time></trkpt><trkpt lat="40.6431371" lon="14.6180076"><ele>24.0</ele><time>2026-04-06T11:59:57Z</time></trkpt><trkpt lat="40.6430687" lon="14.6180381"><ele>24.0</ele><time>2026-04-06T11:59:58Z</time></trkpt><trkpt lat="40.6430052" lon="14.6180607"><ele>24.0</ele><time>2026-04-06T11:59:59Z</time></trkpt><trkpt lat="40.642893" lon="14.6181152"><ele>24.0</ele><time>2026-04-06T12:00:01Z</time></trkpt><trkpt lat="40.6427741" lon="14.618155"><ele>24.0</ele><time>2026-04-06T12:00:03Z</time></trkpt><trkpt lat="40.6426948" lon="14.6181609"><ele>23.833333333333332</ele><time>2026-04-06T12:00:04Z</time></trkpt><trkpt lat="40.6426038" lon="14.6181507"><ele>23.666666666666668</ele><time>2026-04-06T12:00:05Z</time></trkpt><trkpt lat="40.6425131" lon="14.6181394"><ele>23.5</ele><time>2026-04-06T12:00:05.999Z</time></trkpt><trkpt lat="40.6424286" lon="14.6181281"><ele>23.333333333333336</ele><time>2026-04-06T12:00:07Z</time></trkpt><trkpt lat="40.6423507" lon="14.6181159"><ele>23.166666666666668</ele><time>2026-04-06T12:00:08Z</time></trkpt><trkpt lat="40.6422898" lon="14.6180856"><ele>23.0</ele><time>2026-04-06T12:00:09Z</time></trkpt><trkpt lat="40.6422061" lon="14.6179578"><ele>23.0</ele><time>2026-04-06T12:00:11Z</time></trkpt><trkpt lat="40.6421765" lon="14.6178637"><ele>23.0</ele><time>2026-04-06T12:00:12Z</time></trkpt><trkpt lat="40.6421444" lon="14.6177534"><ele>23.0</ele><time>2026-04-06T12:00:13Z</time></trkpt><trkpt lat="40.6421064" lon="14.6176412"><ele>23.0</ele><time>2026-04-06T12:00:14Z</time></trkpt><trkpt lat="40.6420742" lon="14.6175322"><ele>23.0</ele><time>2026-04-06T12:00:15Z</time></trkpt><trkpt lat="40.6420406" lon="14.6174282"><ele>23.0</ele><time>2026-04-06T12:00:16Z</time></trkpt><trkpt lat="40.6420128" lon="14.6173327"><ele>22.571428571428573</ele><time>2026-04-06T12:00:17Z</time></trkpt><trkpt lat="40.6419883" lon="14.6172443"><ele>22.142857142857142</ele><time>2026-04-06T12:00:17.999Z</time></trkpt><trkpt lat="40.641971" lon="14.6171503"><ele>21.714285714285715</ele><time>2026-04-06T12:00:19Z</time></trkpt><trkpt lat="40.641958" lon="14.6170508"><ele>21.285714285714285</ele><time>2026-04-06T12:00:19.999Z</time></trkpt><trkpt lat="40.6419539" lon="14.6169459"><ele>20.857142857142858</ele><time>2026-04-06T12:00:21Z</time></trkpt><trkpt lat="40.6419637" lon="14.6168492"><ele>20.428571428571427</ele><time>2026-04-06T12:00:22Z</time></trkpt><trkpt lat="40.6419815" lon="14.6167554"><ele>20.0</ele><time>2026-04-06T12:00:23Z</time></trkpt><trkpt lat="40.6419864" lon="14.6166611"><ele>24.0</ele><time>2026-04-06T12:00:24Z</time></trkpt><trkpt lat="40.641975" lon="14.6165698"><ele>28.0</ele><time>2026-04-06T12:00:25Z</time></trkpt><trkpt lat="40.6419523" lon="14.6164874"><ele>32.0</ele><time>2026-04-06T12:00:26Z</time></trkpt><trkpt lat="40.641923" lon="14.6164138"><ele>36.0</ele><time>2026-04-06T12:00:27Z</time></trkpt><trkpt lat="40.6418352" lon="14.6163405"><ele>40.0</ele><time>2026-04-06T12:00:29Z</time></trkpt><trkpt lat="40.6417206" lon="14.6163546"><ele>44.0</ele><time>2026-04-06T12:00:30.999Z</time></trkpt><trkpt lat="40.64165" lon="14.6163546"><ele>44.0</ele><time>2026-04-06T12:00:32Z</time></trkpt><trkpt lat="40.6415779" lon="14.6163246"><ele>44.0</ele><time>2026-04-06T12:00:33Z</time></trkpt><trkpt lat="40.6415127" lon="14.6162638"><ele>44.0</ele><time>2026-04-06T12:00:34Z</time></trkpt><trkpt lat="40.6414537" lon="14.6161833"><ele>44.0</ele><time>2026-04-06T12:00:35Z</time></trkpt><trkpt lat="40.6413872" lon="14.6161031"><ele>44.0</ele><time>2026-04-06T12:00:36Z</time></trkpt><trkpt lat="40.6413095" lon="14.6160287"><ele>44.0</ele><time>2026-04-06T12:00:37Z</time></trkpt><trkpt lat="40.6412203" lon="14.6159604"><ele>43.400000000000006</ele><time>2026-04-06T12:00:38Z</time></trkpt><trkpt lat="40.6411298" lon="14.6158801"><ele>42.8</ele><time>2026-04-06T12:00:39Z</time></trkpt><trkpt lat="40.641044" lon="14.6157947"><ele>42.2</ele><time>2026-04-06T12:00:40Z</time></trkpt><trkpt lat="40.640954" lon="14.6157049"><ele>41.599999999999994</ele><time>2026-04-06T12:00:41Z</time></trkpt><trkpt lat="40.6408667" lon="14.6156147"><ele>41.0</ele><time>2026-04-06T12:00:42Z</time></trkpt><trkpt lat="40.6407803" lon="14.6155284"><ele>41.0</ele><time>2026-04-06T12:00:43Z</time></trkpt><trkpt lat="40.6406968" lon="14.6154492"><ele>41.0</ele><time>2026-04-06T12:00:43.999Z</time></trkpt><trkpt lat="40.6406053" lon="14.6153793"><ele>41.0</ele><time>2026-04-06T12:00:45Z</time></trkpt><trkpt lat="40.6405109" lon="14.6153275"><ele>41.0</ele><time>2026-04-06T12:00:46Z</time></trkpt><trkpt lat="40.6404187" lon="14.6152837"><ele>41.0</ele><time>2026-04-06T12:00:47Z</time></trkpt><trkpt lat="40.6403403" lon="14.6152244"><ele>38.199999999999996</ele><time>2026-04-06T12:00:48Z</time></trkpt><trkpt lat="40.6402772" lon="14.6151353"><ele>35.4</ele><time>2026-04-06T12:00:49Z</time></trkpt><trkpt lat="40.6402339" lon="14.6150336"><ele>32.6</ele><time>2026-04-06T12:00:50Z</time></trkpt><trkpt lat="40.6402001" lon="14.6149212"><ele>29.8</ele><time>2026-04-06T12:00:51Z</time></trkpt><trkpt lat="40.6401652" lon="14.6148046"><ele>27.0</ele><time>2026-04-06T12:00:52Z</time></trkpt><trkpt lat="40.6401132" lon="14.6146926"><ele>27.0</ele><time>2026-04-06T12:00:53Z</time></trkpt><trkpt lat="40.6400437" lon="14.6145874"><ele>27.000000000000004</ele><time>2026-04-06T12:00:54Z</time></trkpt><trkpt lat="40.6399715" lon="14.6144886"><ele>27.000000000000004</ele><time>2026-04-06T12:00:55Z</time></trkpt><trkpt lat="40.6399077" lon="14.6144005"><ele>27.0</ele><time>2026-04-06T12:00:56Z</time></trkpt><trkpt lat="40.6398438" lon="14.6143084"><ele>27.0</ele><time>2026-04-06T12:00:56.999Z</time></trkpt><trkpt lat="40.6398064" lon="14.6142324"><ele>30.833333333333336</ele><time>2026-04-06T12:00:58Z</time></trkpt><trkpt lat="40.6397838" lon="14.6141512"><ele>34.66666666666667</ele><time>2026-04-06T12:01:00Z</time></trkpt><trkpt lat="40.6398048" lon="14.6140224"><ele>38.5</ele><time>2026-04-06T12:01:08Z</time></trkpt><trkpt lat="40.6398267" lon="14.6139374"><ele>42.333333333333336</ele><time>2026-04-06T12:01:08.999Z</time></trkpt><trkpt lat="40.6398469" lon="14.6138396"><ele>46.16666666666667</ele><time>2026-04-06T12:01:10Z</time></trkpt><trkpt lat="40.6398399" lon="14.6137416"><ele>50.0</ele><time>2026-04-06T12:01:11Z</time></trkpt><trkpt lat="40.6398086" lon="14.6136616"><ele>49.50000000000001</ele><time>2026-04-06T12:01:11.999Z</time></trkpt><trkpt lat="40.639762" lon="14.6135927"><ele>49.0</ele><time>2026-04-06T12:01:13Z</time></trkpt><trkpt lat="40.6396738" lon="14.613525"><ele>48.5</ele><time>2026-04-06T12:01:15Z</time></trkpt><trkpt lat="40.639582" lon="14.613443"><ele>48.0</ele><time>2026-04-06T12:01:17Z</time></trkpt><trkpt lat="40.639531" lon="14.6133896"><ele>47.5</ele><time>2026-04-06T12:01:17.999Z</time></trkpt><trkpt lat="40.6394874" lon="14.613315"><ele>47.0</ele><time>2026-04-06T12:01:19Z</time></trkpt><trkpt lat="40.639445" lon="14.6132269"><ele>47.0</ele><time>2026-04-06T12:01:20Z</time></trkpt><trkpt lat="40.6393954" lon="14.6131437"><ele>47.0</ele><time>2026-04-06T12:01:21Z</time></trkpt><trkpt lat="40.6393378" lon="14.6130826"><ele>47.0</ele><time>2026-04-06T12:01:22Z</time></trkpt><trkpt lat="40.6392551" lon="14.6130166"><ele>47.0</ele><time>2026-04-06T12:01:23Z</time></trkpt><trkpt lat="40.6391683" lon="14.6129817"><ele>47.0</ele><time>2026-04-06T12:01:24Z</time></trkpt><trkpt lat="40.6390736" lon="14.6129736"><ele>47.0</ele><time>2026-04-06T12:01:25Z</time></trkpt><trkpt lat="40.6389822" lon="14.6129733"><ele>47.0</ele><time>2026-04-06T12:01:26Z</time></trkpt><trkpt lat="40.6388994" lon="14.6129645"><ele>47.0</ele><time>2026-04-06T12:01:27Z</time></trkpt><trkpt lat="40.6388254" lon="14.6129393"><ele>47.0</ele><time>2026-04-06T12:01:28Z</time></trkpt><trkpt lat="40.6387682" lon="14.6128904"><ele>47.0</ele><time>2026-04-06T12:01:28.999Z</time></trkpt><trkpt lat="40.6387228" lon="14.6128286"><ele>47.0</ele><time>2026-04-06T12:01:30Z</time></trkpt><trkpt lat="40.6386252" lon="14.6127343"><ele>47.0</ele><time>2026-04-06T12:01:32Z</time></trkpt><trkpt lat="40.6385611" lon="14.6127198"><ele>49.5</ele><time>2026-04-06T12:01:33Z</time></trkpt><trkpt lat="40.6384951" lon="14.6127156"><ele>52.0</ele><time>2026-04-06T12:01:34Z</time></trkpt><trkpt lat="40.6384275" lon="14.6127192"><ele>54.5</ele><time>2026-04-06T12:01:34.999Z</time></trkpt><trkpt lat="40.6383537" lon="14.6127258"><ele>57.0</ele><time>2026-04-06T12:01:36Z</time></trkpt><trkpt lat="40.6382833" lon="14.6127252"><ele>59.50000000000001</ele><time>2026-04-06T12:01:37Z</time></trkpt><trkpt lat="40.63818" lon="14.6126768"><ele>62.0</ele><time>2026-04-06T12:01:39Z</time></trkpt><trkpt lat="40.638123" lon="14.6126194"><ele>62.00000000000001</ele><time>2026-04-06T12:01:41Z</time></trkpt><trkpt lat="40.6380159" lon="14.6125438"><ele>62.0</ele><time>2026-04-06T12:01:44Z</time></trkpt><trkpt lat="40.6379428" lon="14.612509"><ele>62.0</ele><time>2026-04-06T12:01:45Z</time></trkpt><trkpt lat="40.6378814" lon="14.6124704"><ele>62.0</ele><time>2026-04-06T12:01:46Z</time></trkpt><trkpt lat="40.6378172" lon="14.6124056"><ele>62.00000000000001</ele><time>2026-04-06T12:01:47Z</time></trkpt><trkpt lat="40.6377479" lon="14.6123151"><ele>62.0</ele><time>2026-04-06T12:01:48Z</time></trkpt><trkpt lat="40.6376603" lon="14.6122189"><ele>59.400000000000006</ele><time>2026-04-06T12:01:49Z</time></trkpt><trkpt lat="40.6375725" lon="14.6121275"><ele>56.800000000000004</ele><time>2026-04-06T12:01:50Z</time></trkpt><trkpt lat="40.6374967" lon="14.6120423"><ele>54.2</ele><time>2026-04-06T12:01:50.999Z</time></trkpt><trkpt lat="40.6374436" lon="14.6119543"><ele>51.6</ele><time>2026-04-06T12:01:52Z</time></trkpt><trkpt lat="40.6374226" lon="14.6118683"><ele>49.0</ele><time>2026-04-06T12:01:53Z</time></trkpt><trkpt lat="40.6374643" lon="14.6117177"><ele>48.99999999999999</ele><time>2026-04-06T12:01:55Z</time></trkpt><trkpt lat="40.6375147" lon="14.6116635"><ele>49.0</ele><time>2026-04-06T12:01:56Z</time></trkpt><trkpt lat="40.637597" lon="14.6115853"><ele>49.0</ele><time>2026-04-06T12:01:58Z</time></trkpt><trkpt lat="40.6376512" lon="14.6115353"><ele>49.0</ele><time>2026-04-06T12:02:01Z</time></trkpt><trkpt lat="40.6376751" lon="14.6116244"><ele>48.99999999999999</ele><time>2026-04-06T12:02:17Z</time></trkpt><trkpt lat="40.6375864" lon="14.6116665"><ele>49.0</ele><time>2026-04-06T12:02:19Z</time></trkpt><trkpt lat="40.6375017" lon="14.6117371"><ele>49.0</ele><time>2026-04-06T12:02:21Z</time></trkpt><trkpt lat="40.6374726" lon="14.6118385"><ele>49.0</ele><time>2026-04-06T12:02:23Z</time></trkpt><trkpt lat="40.6375116" lon="14.6119583"><ele>49.0</ele><time>2026-04-06T12:02:25Z</time></trkpt><trkpt lat="40.6375943" lon="14.6120764"><ele>49.0</ele><time>2026-04-06T12:02:27Z</time></trkpt><trkpt lat="40.6376825" lon="14.6121582"><ele>49.0</ele><time>2026-04-06T12:02:29Z</time></trkpt><trkpt lat="40.6377668" lon="14.6122555"><ele>51.6</ele><time>2026-04-06T12:02:31Z</time></trkpt><trkpt lat="40.6378255" lon="14.6123086"><ele>54.2</ele><time>2026-04-06T12:02:32Z</time></trkpt><trkpt lat="40.6378943" lon="14.6123405"><ele>56.800000000000004</ele><time>2026-04-06T12:02:33Z</time></trkpt><trkpt lat="40.6379848" lon="14.612348"><ele>59.400000000000006</ele><time>2026-04-06T12:02:34Z</time></trkpt><trkpt lat="40.6381148" lon="14.6123688"><ele>62.0</ele><time>2026-04-06T12:02:35Z</time></trkpt><trkpt lat="40.6382564" lon="14.6124051"><ele>62.0</ele><time>2026-04-06T12:02:36Z</time></trkpt><trkpt lat="40.6383463" lon="14.6124191"><ele>62.0</ele><time>2026-04-06T12:02:37Z</time></trkpt><trkpt lat="40.6384394" lon="14.6123988"><ele>62.0</ele><time>2026-04-06T12:02:38Z</time></trkpt><trkpt lat="40.6385293" lon="14.6123553"><ele>62.0</ele><time>2026-04-06T12:02:39Z</time></trkpt><trkpt lat="40.6386299" lon="14.6123315"><ele>62.0</ele><time>2026-04-06T12:02:40Z</time></trkpt><trkpt lat="40.6387221" lon="14.612342"><ele>65.8</ele><time>2026-04-06T12:02:40.999Z</time></trkpt><trkpt lat="40.6388126" lon="14.6123892"><ele>69.6</ele><time>2026-04-06T12:02:42Z</time></trkpt><trkpt lat="40.6389086" lon="14.6124447"><ele>73.39999999999999</ele><time>2026-04-06T12:02:43Z</time></trkpt><trkpt lat="40.6390158" lon="14.6124934"><ele>77.2</ele><time>2026-04-06T12:02:44Z</time></trkpt><trkpt lat="40.6391426" lon="14.6125098"><ele>81.0</ele><time>2026-04-06T12:02:45Z</time></trkpt><trkpt lat="40.6392549" lon="14.6125196"><ele>81.0</ele><time>2026-04-06T12:02:46Z</time></trkpt><trkpt lat="40.6393587" lon="14.612508"><ele>81.0</ele><time>2026-04-06T12:02:47Z</time></trkpt><trkpt lat="40.6394551" lon="14.6124865"><ele>81.0</ele><time>2026-04-06T12:02:48Z</time></trkpt><trkpt lat="40.639545" lon="14.6124623"><ele>81.0</ele><time>2026-04-06T12:02:49Z</time></trkpt><trkpt lat="40.6396311" lon="14.6124451"><ele>81.0</ele><time>2026-04-06T12:02:50Z</time></trkpt><trkpt lat="40.6397132" lon="14.6124488"><ele>81.0</ele><time>2026-04-06T12:02:51Z</time></trkpt><trkpt lat="40.6397821" lon="14.6124995"><ele>81.0</ele><time>2026-04-06T12:02:52Z</time></trkpt><trkpt lat="40.6398369" lon="14.6125812"><ele>81.0</ele><time>2026-04-06T12:02:53Z</time></trkpt><trkpt lat="40.639877" lon="14.6126847"><ele>81.0</ele><time>2026-04-06T12:02:54Z</time></trkpt><trkpt lat="40.6399089" lon="14.6128048"><ele>81.0</ele><time>2026-04-06T12:02:55Z</time></trkpt><trkpt lat="40.6399617" lon="14.6129254"><ele>81.0</ele><time>2026-04-06T12:02:56Z</time></trkpt><trkpt lat="40.6400318" lon="14.6130356"><ele>81.0</ele><time>2026-04-06T12:02:57Z</time></trkpt><trkpt lat="40.6401152" lon="14.6131259"><ele>81.0</ele><time>2026-04-06T12:02:58Z</time></trkpt><trkpt lat="40.6401946" lon="14.6132089"><ele>81.0</ele><time>2026-04-06T12:02:59Z</time></trkpt><trkpt lat="40.6402705" lon="14.6132902"><ele>81.0</ele><time>2026-04-06T12:03:00Z</time></trkpt><trkpt lat="40.6403309" lon="14.6133877"><ele>86.4</ele><time>2026-04-06T12:03:01Z</time></trkpt><trkpt lat="40.6403864" lon="14.6134987"><ele>91.8</ele><time>2026-04-06T12:03:02Z</time></trkpt><trkpt lat="40.6404279" lon="14.613617"><ele>97.20000000000002</ele><time>2026-04-06T12:03:03Z</time></trkpt><trkpt lat="40.6404374" lon="14.6137456"><ele>102.60000000000001</ele><time>2026-04-06T12:03:04Z</time></trkpt><trkpt lat="40.6404603" lon="14.6138678"><ele>108.0</ele><time>2026-04-06T12:03:05Z</time></trkpt><trkpt lat="40.6405079" lon="14.6139896"><ele>108.0</ele><time>2026-04-06T12:03:06Z</time></trkpt><trkpt lat="40.6405544" lon="14.6140934"><ele>108.00000000000001</ele><time>2026-04-06T12:03:07Z</time></trkpt><trkpt lat="40.6405984" lon="14.6141846"><ele>108.00000000000001</ele><time>2026-04-06T12:03:08Z</time></trkpt><trkpt lat="40.6406665" lon="14.6142629"><ele>108.0</ele><time>2026-04-06T12:03:09Z</time></trkpt><trkpt lat="40.6407565" lon="14.6143481"><ele>108.0</ele><time>2026-04-06T12:03:09.999Z</time></trkpt><trkpt lat="40.6408416" lon="14.6144342"><ele>107.33333333333333</ele><time>2026-04-06T12:03:11Z</time></trkpt><trkpt lat="40.6409203" lon="14.6145113"><ele>106.66666666666666</ele><time>2026-04-06T12:03:11.999Z</time></trkpt><trkpt lat="40.641" lon="14.6145849"><ele>106.0</ele><time>2026-04-06T12:03:12.999Z</time></trkpt><trkpt lat="40.6410772" lon="14.6146471"><ele>105.33333333333333</ele><time>2026-04-06T12:03:14Z</time></trkpt><trkpt lat="40.6411546" lon="14.6146693"><ele>104.66666666666666</ele><time>2026-04-06T12:03:15Z</time></trkpt><trkpt lat="40.6412193" lon="14.6146879"><ele>104.0</ele><time>2026-04-06T12:03:16Z</time></trkpt><trkpt lat="40.6413144" lon="14.6146311"><ele>103.99999999999999</ele><time>2026-04-06T12:03:18Z</time></trkpt><trkpt lat="40.6413274" lon="14.6144993"><ele>104.0</ele><time>2026-04-06T12:03:20Z</time></trkpt><trkpt lat="40.6412551" lon="14.6144668"><ele>104.0</ele><time>2026-04-06T12:03:21Z</time></trkpt><trkpt lat="40.641191" lon="14.6144379"><ele>104.0</ele><time>2026-04-06T12:03:22Z</time></trkpt><trkpt lat="40.6411144" lon="14.6144676"><ele>103.99999999999999</ele><time>2026-04-06T12:03:23Z</time></trkpt><trkpt lat="40.6410394" lon="14.6144729"><ele>104.0</ele><time>2026-04-06T12:03:24Z</time></trkpt><trkpt lat="40.640959" lon="14.6144573"><ele>104.80000000000001</ele><time>2026-04-06T12:03:25Z</time></trkpt><trkpt lat="40.6409294" lon="14.6143293"><ele>105.60000000000001</ele><time>2026-04-06T12:03:26Z</time></trkpt><trkpt lat="40.6408636" lon="14.614265"><ele>106.4</ele><time>2026-04-06T12:03:27Z</time></trkpt><trkpt lat="40.6407983" lon="14.614183"><ele>107.2</ele><time>2026-04-06T12:03:28Z</time></trkpt><trkpt lat="40.6407465" lon="14.6140837"><ele>108.0</ele><time>2026-04-06T12:03:29Z</time></trkpt><trkpt lat="40.6407116" lon="14.6139649"><ele>108.0</ele><time>2026-04-06T12:03:30Z</time></trkpt><trkpt lat="40.6406845" lon="14.6138423"><ele>108.0</ele><time>2026-04-06T12:03:30.999Z</time></trkpt><trkpt lat="40.6406693" lon="14.6137364"><ele>108.0</ele><time>2026-04-06T12:03:32Z</time></trkpt><trkpt lat="40.640673" lon="14.6136217"><ele>108.0</ele><time>2026-04-06T12:03:33Z</time></trkpt><trkpt lat="40.640688" lon="14.613504"><ele>108.0</ele><time>2026-04-06T12:03:34Z</time></trkpt><trkpt lat="40.6407084" lon="14.6133928"><ele>108.0</ele><time>2026-04-06T12:03:35Z</time></trkpt><trkpt lat="40.6407226" lon="14.6132841"><ele>113.0</ele><time>2026-04-06T12:03:35.999Z</time></trkpt><trkpt lat="40.6407122" lon="14.613174"><ele>118.00000000000001</ele><time>2026-04-06T12:03:37Z</time></trkpt><trkpt lat="40.6406745" lon="14.6130546"><ele>123.00000000000001</ele><time>2026-04-06T12:03:38Z</time></trkpt><trkpt lat="40.6406157" lon="14.6129425"><ele>128.0</ele><time>2026-04-06T12:03:38.999Z</time></trkpt><trkpt lat="40.640552" lon="14.6128424"><ele>133.0</ele><time>2026-04-06T12:03:40Z</time></trkpt><trkpt lat="40.640492" lon="14.6127372"><ele>136.6</ele><time>2026-04-06T12:03:41Z</time></trkpt><trkpt lat="40.6404388" lon="14.6126258"><ele>140.20000000000002</ele><time>2026-04-06T12:03:42Z</time></trkpt><trkpt lat="40.6403917" lon="14.6125049"><ele>143.8</ele><time>2026-04-06T12:03:43Z</time></trkpt><trkpt lat="40.6403506" lon="14.6123776"><ele>147.4</ele><time>2026-04-06T12:03:43.999Z</time></trkpt><trkpt lat="40.6403093" lon="14.6122621"><ele>151.0</ele><time>2026-04-06T12:03:44.999Z</time></trkpt><trkpt lat="40.6402724" lon="14.6121481"><ele>150.5</ele><time>2026-04-06T12:03:46Z</time></trkpt><trkpt lat="40.6402356" lon="14.6120366"><ele>150.0</ele><time>2026-04-06T12:03:47Z</time></trkpt><trkpt lat="40.6402017" lon="14.6119303"><ele>149.5</ele><time>2026-04-06T12:03:48Z</time></trkpt><trkpt lat="40.6401627" lon="14.6118373"><ele>149.0</ele><time>2026-04-06T12:03:49Z</time></trkpt><trkpt lat="40.6401047" lon="14.6117561"><ele>148.5</ele><time>2026-04-06T12:03:50Z</time></trkpt><trkpt lat="40.6400285" lon="14.6116996"><ele>148.0</ele><time>2026-04-06T12:03:51Z</time></trkpt><trkpt lat="40.6399347" lon="14.6116678"><ele>148.0</ele><time>2026-04-06T12:03:52Z</time></trkpt><trkpt lat="40.6398446" lon="14.6116561"><ele>148.0</ele><time>2026-04-06T12:03:53Z</time></trkpt><trkpt lat="40.6397578" lon="14.6116562"><ele>148.0</ele><time>2026-04-06T12:03:53.999Z</time></trkpt><trkpt lat="40.6396711" lon="14.6116433"><ele>148.0</ele><time>2026-04-06T12:03:55Z</time></trkpt><trkpt lat="40.6395871" lon="14.6116309"><ele>148.0</ele><time>2026-04-06T12:03:56Z</time></trkpt><trkpt lat="40.6394901" lon="14.6115977"><ele>148.0</ele><time>2026-04-06T12:03:57Z</time></trkpt><trkpt lat="40.6393937" lon="14.6115575"><ele>144.0</ele><time>2026-04-06T12:03:58Z</time></trkpt><trkpt lat="40.6393305" lon="14.6114732"><ele>140.0</ele><time>2026-04-06T12:03:59Z</time></trkpt><trkpt lat="40.6392555" lon="14.6114183"><ele>136.0</ele><time>2026-04-06T12:03:59.999Z</time></trkpt><trkpt lat="40.6391866" lon="14.6113592"><ele>132.0</ele><time>2026-04-06T12:04:01Z</time></trkpt><trkpt lat="40.639124" lon="14.6113013"><ele>128.0</ele><time>2026-04-06T12:04:02Z</time></trkpt><trkpt lat="40.6390682" lon="14.6112486"><ele>124.0</ele><time>2026-04-06T12:04:03Z</time></trkpt><trkpt lat="40.6389693" lon="14.6111651"><ele>129.66666666666669</ele><time>2026-04-06T12:04:05Z</time></trkpt><trkpt lat="40.6389013" lon="14.6111102"><ele>135.33333333333334</ele><time>2026-04-06T12:04:07Z</time></trkpt><trkpt lat="40.6388491" lon="14.6110411"><ele>141.0</ele><time>2026-04-06T12:12:08Z</time></trkpt><trkpt lat="40.6388037" lon="14.6109654"><ele>146.66666666666666</ele><time>2026-04-06T12:12:09Z</time></trkpt><trkpt lat="40.6387561" lon="14.6108539"><ele>152.33333333333331</ele><time>2026-04-06T12:12:09.999Z</time></trkpt><trkpt lat="40.638708" lon="14.6107312"><ele>158.0</ele><time>2026-04-06T12:12:11Z</time></trkpt><trkpt lat="40.6386478" lon="14.6106101"><ele>156.25</ele><time>2026-04-06T12:12:12Z</time></trkpt><trkpt lat="40.638575" lon="14.6104958"><ele>154.5</ele><time>2026-04-06T12:12:13Z</time></trkpt><trkpt lat="40.638495" lon="14.6103827"><ele>152.75</ele><time>2026-04-06T12:12:14Z</time></trkpt><trkpt lat="40.6383988" lon="14.6102716"><ele>151.0</ele><time>2026-04-06T12:12:15Z</time></trkpt><trkpt lat="40.6383003" lon="14.6101857"><ele>151.0</ele><time>2026-04-06T12:12:16Z</time></trkpt><trkpt lat="40.6381811" lon="14.6101209"><ele>151.0</ele><time>2026-04-06T12:12:17Z</time></trkpt><trkpt lat="40.6380737" lon="14.6100634"><ele>151.0</ele><time>2026-04-06T12:12:18Z</time></trkpt><trkpt lat="40.6379647" lon="14.6100153"><ele>151.0</ele><time>2026-04-06T12:12:19Z</time></trkpt><trkpt lat="40.6379036" lon="14.609917"><ele>151.0</ele><time>2026-04-06T12:12:20Z</time></trkpt><trkpt lat="40.6378406" lon="14.6098026"><ele>151.0</ele><time>2026-04-06T12:12:21.194Z</time></trkpt><trkpt lat="40.6377268" lon="14.6095459"><ele>151.0</ele><time>2026-04-06T12:12:23Z</time></trkpt><trkpt lat="40.6377004" lon="14.6093983"><ele>151.0</ele><time>2026-04-06T12:12:24Z</time></trkpt><trkpt lat="40.6376968" lon="14.609256"><ele>152.8</ele><time>2026-04-06T12:12:25Z</time></trkpt><trkpt lat="40.6377108" lon="14.6091274"><ele>154.6</ele><time>2026-04-06T12:12:26Z</time></trkpt><trkpt lat="40.6377516" lon="14.6090067"><ele>156.4</ele><time>2026-04-06T12:12:27Z</time></trkpt><trkpt lat="40.6378232" lon="14.6089031"><ele>158.2</ele><time>2026-04-06T12:12:28Z</time></trkpt><trkpt lat="40.6379023" lon="14.6087881"><ele>160.0</ele><time>2026-04-06T12:12:29Z</time></trkpt><trkpt lat="40.6379959" lon="14.6086803"><ele>148.75</ele><time>2026-04-06T12:12:30Z</time></trkpt><trkpt lat="40.6381018" lon="14.6085827"><ele>137.5</ele><time>2026-04-06T12:12:31Z</time></trkpt><trkpt lat="40.6382071" lon="14.6085008"><ele>126.25</ele><time>2026-04-06T12:12:32Z</time></trkpt><trkpt lat="40.6382995" lon="14.608423"><ele>115.0</ele><time>2026-04-06T12:12:33Z</time></trkpt><trkpt lat="40.6383837" lon="14.6083682"><ele>115.00000000000001</ele><time>2026-04-06T12:12:34Z</time></trkpt><trkpt lat="40.6384708" lon="14.6083567"><ele>115.0</ele><time>2026-04-06T12:12:34.999Z</time></trkpt><trkpt lat="40.6385558" lon="14.6083821"><ele>115.0</ele><time>2026-04-06T12:12:36Z</time></trkpt><trkpt lat="40.6386292" lon="14.6084121"><ele>115.0</ele><time>2026-04-06T12:12:36.999Z</time></trkpt><trkpt lat="40.6386909" lon="14.6084861"><ele>115.00000000000001</ele><time>2026-04-06T12:12:38Z</time></trkpt><trkpt lat="40.6387658" lon="14.6085671"><ele>115.0</ele><time>2026-04-06T12:12:38.999Z</time></trkpt><trkpt lat="40.6388636" lon="14.6086092"><ele>120.4</ele><time>2026-04-06T12:12:40Z</time></trkpt><trkpt lat="40.6389614" lon="14.6086166"><ele>125.8</ele><time>2026-04-06T12:12:41Z</time></trkpt><trkpt lat="40.6390587" lon="14.6086159"><ele>131.2</ele><time>2026-04-06T12:12:42Z</time></trkpt><trkpt lat="40.6391414" lon="14.6085556"><ele>136.6</ele><time>2026-04-06T12:12:43Z</time></trkpt><trkpt lat="40.6392012" lon="14.6084562"><ele>142.0</ele><time>2026-04-06T12:12:44Z</time></trkpt><trkpt lat="40.6392416" lon="14.6083593"><ele>142.0</ele><time>2026-04-06T12:12:45Z</time></trkpt><trkpt lat="40.6393086" lon="14.608304"><ele>142.0</ele><time>2026-04-06T12:12:46Z</time></trkpt><trkpt lat="40.6393723" lon="14.6082853"><ele>142.0</ele><time>2026-04-06T12:12:47Z</time></trkpt><trkpt lat="40.6394574" lon="14.608335"><ele>142.0</ele><time>2026-04-06T12:12:48Z</time></trkpt><trkpt lat="40.6395541" lon="14.6084106"><ele>142.0</ele><time>2026-04-06T12:12:49Z</time></trkpt><trkpt lat="40.639656" lon="14.6084875"><ele>144.0</ele><time>2026-04-06T12:12:50Z</time></trkpt><trkpt lat="40.6397553" lon="14.6085294"><ele>146.0</ele><time>2026-04-06T12:12:51Z</time></trkpt><trkpt lat="40.6398545" lon="14.6085261"><ele>148.0</ele><time>2026-04-06T12:12:52Z</time></trkpt><trkpt lat="40.6399422" lon="14.6084837"><ele>150.0</ele><time>2026-04-06T12:12:53Z</time></trkpt><trkpt lat="40.640033" lon="14.6083838"><ele>152.0</ele><time>2026-04-06T12:12:54Z</time></trkpt><trkpt lat="40.6400992" lon="14.6082595"><ele>152.0</ele><time>2026-04-06T12:12:55Z</time></trkpt><trkpt lat="40.6401553" lon="14.608137"><ele>152.0</ele><time>2026-04-06T12:12:56Z</time></trkpt><trkpt lat="40.640224" lon="14.6080477"><ele>152.0</ele><time>2026-04-06T12:12:57Z</time></trkpt><trkpt lat="40.6402987" lon="14.6079755"><ele>152.0</ele><time>2026-04-06T12:12:57.999Z</time></trkpt><trkpt lat="40.6403906" lon="14.6079408"><ele>152.0</ele><time>2026-04-06T12:12:59Z</time></trkpt><trkpt lat="40.6404886" lon="14.6079188"><ele>158.2</ele><time>2026-04-06T12:12:59.999Z</time></trkpt><trkpt lat="40.6405912" lon="14.6079086"><ele>164.39999999999998</ele><time>2026-04-06T12:13:01Z</time></trkpt><trkpt lat="40.6407008" lon="14.607895"><ele>170.60000000000002</ele><time>2026-04-06T12:13:02Z</time></trkpt><trkpt lat="40.6408154" lon="14.6078773"><ele>176.8</ele><time>2026-04-06T12:13:03Z</time></trkpt><trkpt lat="40.6409281" lon="14.6078654"><ele>183.0</ele><time>2026-04-06T12:13:04Z</time></trkpt><trkpt lat="40.6410469" lon="14.6078755"><ele>174.8</ele><time>2026-04-06T12:13:05Z</time></trkpt><trkpt lat="40.64116" lon="14.6078926"><ele>166.60000000000002</ele><time>2026-04-06T12:13:06Z</time></trkpt><trkpt lat="40.6412674" lon="14.6078987"><ele>158.39999999999998</ele><time>2026-04-06T12:13:07Z</time></trkpt><trkpt lat="40.6413776" lon="14.6078743"><ele>150.2</ele><time>2026-04-06T12:13:08Z</time></trkpt><trkpt lat="40.641471" lon="14.6077898"><ele>142.0</ele><time>2026-04-06T12:13:09Z</time></trkpt><trkpt lat="40.6415741" lon="14.6077133"><ele>142.0</ele><time>2026-04-06T12:13:10Z</time></trkpt><trkpt lat="40.6416836" lon="14.6076332"><ele>142.0</ele><time>2026-04-06T12:13:11Z</time></trkpt><trkpt lat="40.641789" lon="14.6075702"><ele>142.0</ele><time>2026-04-06T12:13:12Z</time></trkpt><trkpt lat="40.6418871" lon="14.6075195"><ele>142.0</ele><time>2026-04-06T12:13:13Z</time></trkpt><trkpt lat="40.6419749" lon="14.607486"><ele>142.0</ele><time>2026-04-06T12:13:14Z</time></trkpt><trkpt lat="40.6420826" lon="14.6074954"><ele>144.75</ele><time>2026-04-06T12:13:15Z</time></trkpt><trkpt lat="40.6422099" lon="14.6075308"><ele>147.5</ele><time>2026-04-06T12:13:16Z</time></trkpt><trkpt lat="40.6423405" lon="14.6075594"><ele>150.25</ele><time>2026-04-06T12:13:17Z</time></trkpt><trkpt lat="40.6424849" lon="14.6075853"><ele>153.0</ele><time>2026-04-06T12:13:18Z</time></trkpt><trkpt lat="40.6426482" lon="14.6075819"><ele>153.0</ele><time>2026-04-06T12:13:19Z</time></trkpt><trkpt lat="40.6428242" lon="14.6075816"><ele>153.0</ele><time>2026-04-06T12:13:20Z</time></trkpt><trkpt lat="40.6430077" lon="14.6075933"><ele>153.0</ele><time>2026-04-06T12:13:21Z</time></trkpt><trkpt lat="40.6431746" lon="14.607607"><ele>160.5</ele><time>2026-04-06T12:13:22Z</time></trkpt><trkpt lat="40.643334" lon="14.6076071"><ele>168.0</ele><time>2026-04-06T12:13:23Z</time></trkpt><trkpt lat="40.643466" lon="14.6075796"><ele>175.5</ele><time>2026-04-06T12:13:24Z</time></trkpt><trkpt lat="40.6435886" lon="14.607562"><ele>183.0</ele><time>2026-04-06T12:13:25Z</time></trkpt><trkpt lat="40.6436863" lon="14.6075429"><ele>183.0</ele><time>2026-04-06T12:13:26Z</time></trkpt><trkpt lat="40.6437797" lon="14.607546"><ele>183.0</ele><time>2026-04-06T12:13:27Z</time></trkpt><trkpt lat="40.6438741" lon="14.6075833"><ele>183.0</ele><time>2026-04-06T12:13:28Z</time></trkpt><trkpt lat="40.6439674" lon="14.6076493"><ele>183.0</ele><time>2026-04-06T12:13:29Z</time></trkpt><trkpt lat="40.6440596" lon="14.6077503"><ele>183.0</ele><time>2026-04-06T12:13:30Z</time></trkpt><trkpt lat="40.6441633" lon="14.6078587"><ele>187.5</ele><time>2026-04-06T12:13:31Z</time></trkpt><trkpt lat="40.644281" lon="14.6079234"><ele>192.0</ele><time>2026-04-06T12:13:31.999Z</time></trkpt><trkpt lat="40.6444045" lon="14.6079736"><ele>196.5</ele><time>2026-04-06T12:13:33Z</time></trkpt><trkpt lat="40.6445251" lon="14.6080262"><ele>201.0</ele><time>2026-04-06T12:13:34Z</time></trkpt><trkpt lat="40.644622" lon="14.6081248"><ele>201.0</ele><time>2026-04-06T12:13:35Z</time></trkpt><trkpt lat="40.644731" lon="14.608189"><ele>201.0</ele><time>2026-04-06T12:13:36Z</time></trkpt><trkpt lat="40.6448521" lon="14.608237"><ele>201.0</ele><time>2026-04-06T12:13:37Z</time></trkpt><trkpt lat="40.6449658" lon="14.6082466"><ele>201.0</ele><time>2026-04-06T12:13:38Z</time></trkpt><trkpt lat="40.6450751" lon="14.6082639"><ele>201.0</ele><time>2026-04-06T12:13:39Z</time></trkpt><trkpt lat="40.6451424" lon="14.6082163"><ele>201.0</ele><time>2026-04-06T12:13:40Z</time></trkpt><trkpt lat="40.6452187" lon="14.6081633"><ele>201.0</ele><time>2026-04-06T12:13:42Z</time></trkpt><trkpt lat="40.6452248" lon="14.6082585"><ele>201.0</ele><time>2026-04-06T12:13:44Z</time></trkpt><trkpt lat="40.6450868" lon="14.6083404"><ele>201.0</ele><time>2026-04-06T12:13:46Z</time></trkpt><trkpt lat="40.6449831" lon="14.608362"><ele>201.0</ele><time>2026-04-06T12:13:47Z</time></trkpt><trkpt lat="40.6448435" lon="14.6083682"><ele>201.0</ele><time>2026-04-06T12:13:48Z</time></trkpt><trkpt lat="40.6447145" lon="14.6083494"><ele>201.0</ele><time>2026-04-06T12:13:49Z</time></trkpt><trkpt lat="40.6446106" lon="14.6083032"><ele>201.0</ele><time>2026-04-06T12:13:50Z</time></trkpt><trkpt lat="40.6445185" lon="14.6082251"><ele>219.8</ele><time>2026-04-06T12:13:51Z</time></trkpt><trkpt lat="40.6444072" lon="14.6081877"><ele>238.60000000000002</ele><time>2026-04-06T12:13:52Z</time></trkpt><trkpt lat="40.6443008" lon="14.6081996"><ele>257.4</ele><time>2026-04-06T12:13:53Z</time></trkpt><trkpt lat="40.6442098" lon="14.6082167"><ele>276.2</ele><time>2026-04-06T12:13:54Z</time></trkpt><trkpt lat="40.6441079" lon="14.6082125"><ele>295.0</ele><time>2026-04-06T12:13:55Z</time></trkpt><trkpt lat="40.6440337" lon="14.6081663"><ele>295.0</ele><time>2026-04-06T12:13:56Z</time></trkpt><trkpt lat="40.6440106" lon="14.6080414"><ele>295.0</ele><time>2026-04-06T12:13:57Z</time></trkpt><trkpt lat="40.6439633" lon="14.6079305"><ele>295.0</ele><time>2026-04-06T12:13:58Z</time></trkpt><trkpt lat="40.6438697" lon="14.6078482"><ele>295.0</ele><time>2026-04-06T12:14:00Z</time></trkpt><trkpt lat="40.6437996" lon="14.6078798"><ele>295.0</ele><time>2026-04-06T12:14:02Z</time></trkpt><trkpt lat="40.6438281" lon="14.6079784"><ele>295.0</ele><time>2026-04-06T12:14:04Z</time></trkpt><trkpt lat="40.6439861" lon="14.6080499"><ele>295.0</ele><time>2026-04-06T12:14:05Z</time></trkpt><trkpt lat="40.6440611" lon="14.6081097"><ele>295.0</ele><time>2026-04-06T12:14:06Z</time></trkpt><trkpt lat="40.6441512" lon="14.6081641"><ele>295.0</ele><time>2026-04-06T12:14:07Z</time></trkpt><trkpt lat="40.6442501" lon="14.6082024"><ele>295.0</ele><time>2026-04-06T12:14:08Z</time></trkpt><trkpt lat="40.644357" lon="14.6082181"><ele>295.0</ele><time>2026-04-06T12:14:09Z</time></trkpt><trkpt lat="40.6444591" lon="14.6082784"><ele>295.0</ele><time>2026-04-06T12:14:10Z</time></trkpt><trkpt lat="40.6445704" lon="14.6083533"><ele>295.0</ele><time>2026-04-06T12:14:11Z</time></trkpt><trkpt lat="40.6446924" lon="14.6084314"><ele>271.5</ele><time>2026-04-06T12:14:12Z</time></trkpt><trkpt lat="40.6448259" lon="14.6084879"><ele>248.0</ele><time>2026-04-06T12:14:13Z</time></trkpt><trkpt lat="40.6449599" lon="14.608482"><ele>224.5</ele><time>2026-04-06T12:14:14Z</time></trkpt><trkpt lat="40.6450913" lon="14.6084794"><ele>201.0</ele><time>2026-04-06T12:14:15Z</time></trkpt><trkpt lat="40.6452491" lon="14.6084342"><ele>209.5</ele><time>2026-04-06T12:14:16Z</time></trkpt><trkpt lat="40.6453814" lon="14.6084085"><ele>218.0</ele><time>2026-04-06T12:14:17Z</time></trkpt><trkpt lat="40.6454591" lon="14.6082401"><ele>226.5</ele><time>2026-04-06T12:14:18Z</time></trkpt><trkpt lat="40.6455708" lon="14.6081808"><ele>235.0</ele><time>2026-04-06T12:14:19Z</time></trkpt><trkpt lat="40.6457061" lon="14.6081747"><ele>235.0</ele><time>2026-04-06T12:14:20Z</time></trkpt><trkpt lat="40.6458346" lon="14.6081438"><ele>235.0</ele><time>2026-04-06T12:14:21Z</time></trkpt><trkpt lat="40.6459722" lon="14.6081237"><ele>235.0</ele><time>2026-04-06T12:14:22Z</time></trkpt><trkpt lat="40.6461233" lon="14.608112"><ele>235.0</ele><time>2026-04-06T12:14:23Z</time></trkpt><trkpt lat="40.6462846" lon="14.6080907"><ele>241.66666666666666</ele><time>2026-04-06T12:14:24Z</time></trkpt><trkpt lat="40.64645" lon="14.6080525"><ele>248.33333333333331</ele><time>2026-04-06T12:14:25Z</time></trkpt><trkpt lat="40.6466135" lon="14.6080087"><ele>255.0</ele><time>2026-04-06T12:14:26Z</time></trkpt><trkpt lat="40.6467844" lon="14.6079563"><ele>255.0</ele><time>2026-04-06T12:14:27Z</time></trkpt><trkpt lat="40.6469562" lon="14.6078974"><ele>255.0</ele><time>2026-04-06T12:14:28Z</time></trkpt><trkpt lat="40.6471116" lon="14.6078306"><ele>255.0</ele><time>2026-04-06T12:14:28.999Z</time></trkpt><trkpt lat="40.6472598" lon="14.6077905"><ele>253.33333333333331</ele><time>2026-04-06T12:14:30Z</time></trkpt><trkpt lat="40.6474062" lon="14.6077835"><ele>251.66666666666666</ele><time>2026-04-06T12:14:31Z</time></trkpt><trkpt lat="40.6475595" lon="14.607796"><ele>250.0</ele><time>2026-04-06T12:14:32Z</time></trkpt><trkpt lat="40.6477148" lon="14.6078304"><ele>254.66666666666666</ele><time>2026-04-06T12:14:33Z</time></trkpt><trkpt lat="40.6478717" lon="14.6078637"><ele>259.3333333333333</ele><time>2026-04-06T12:14:34Z</time></trkpt><trkpt lat="40.6480335" lon="14.6079326"><ele>264.0</ele><time>2026-04-06T12:14:35Z</time></trkpt><trkpt lat="40.6481959" lon="14.6079744"><ele>264.0</ele><time>2026-04-06T12:14:36Z</time></trkpt><trkpt lat="40.6483437" lon="14.608014"><ele>264.0</ele><time>2026-04-06T12:14:37Z</time></trkpt><trkpt lat="40.648494" lon="14.6080416"><ele>264.0</ele><time>2026-04-06T12:14:38Z</time></trkpt><trkpt lat="40.6486153" lon="14.6080425"><ele>264.0</ele><time>2026-04-06T12:14:39Z</time></trkpt><trkpt lat="40.6487271" lon="14.6080187"><ele>262.0</ele><time>2026-04-06T12:14:40Z</time></trkpt><trkpt lat="40.6488358" lon="14.6080204"><ele>260.0</ele><time>2026-04-06T12:14:40.999Z</time></trkpt><trkpt lat="40.6488537" lon="14.6081189"><ele>258.0</ele><time>2026-04-06T12:14:42Z</time></trkpt><trkpt lat="40.6488058" lon="14.6082539"><ele>256.0</ele><time>2026-04-06T12:14:44Z</time></trkpt><trkpt lat="40.6487239" lon="14.6082401"><ele>254.0</ele><time>2026-04-06T12:14:45Z</time></trkpt><trkpt lat="40.6486427" lon="14.6082329"><ele>257.33333333333337</ele><time>2026-04-06T12:14:46Z</time></trkpt><trkpt lat="40.6485239" lon="14.6082012"><ele>260.6666666666667</ele><time>2026-04-06T12:14:47Z</time></trkpt><trkpt lat="40.6482889" lon="14.6081857"><ele>264.0</ele><time>2026-04-06T12:14:48Z</time></trkpt><trkpt lat="40.6481029" lon="14.6081462"><ele>264.0</ele><time>2026-04-06T12:14:49Z</time></trkpt><trkpt lat="40.6479309" lon="14.608107"><ele>264.0</ele><time>2026-04-06T12:14:50Z</time></trkpt><trkpt lat="40.6477705" lon="14.6080684"><ele>264.0</ele><time>2026-04-06T12:14:51Z</time></trkpt><trkpt lat="40.6476376" lon="14.6080145"><ele>264.4</ele><time>2026-04-06T12:14:52Z</time></trkpt><trkpt lat="40.647527" lon="14.6080012"><ele>264.79999999999995</ele><time>2026-04-06T12:14:53Z</time></trkpt><trkpt lat="40.6474378" lon="14.6080026"><ele>265.20000000000005</ele><time>2026-04-06T12:14:54Z</time></trkpt><trkpt lat="40.64736" lon="14.6080288"><ele>265.6</ele><time>2026-04-06T12:14:55Z</time></trkpt><trkpt lat="40.6473415" lon="14.6081113"><ele>266.0</ele><time>2026-04-06T12:14:57.165Z</time></trkpt><trkpt lat="40.6475323" lon="14.6082401"><ele>266.0</ele><time>2026-04-06T12:14:58.999Z</time></trkpt><trkpt lat="40.647685" lon="14.6083164"><ele>266.0</ele><time>2026-04-06T12:15:00Z</time></trkpt><trkpt lat="40.647942" lon="14.6083513"><ele>266.0</ele><time>2026-04-06T12:15:01Z</time></trkpt><trkpt lat="40.6482113" lon="14.6084042"><ele>265.0</ele><time>2026-04-06T12:15:02Z</time></trkpt><trkpt lat="40.648478" lon="14.6085374"><ele>264.0</ele><time>2026-04-06T12:15:03Z</time></trkpt><trkpt lat="40.648691" lon="14.6086273"><ele>274.6666666666667</ele><time>2026-04-06T12:15:04Z</time></trkpt><trkpt lat="40.6488855" lon="14.6087114"><ele>285.33333333333337</ele><time>2026-04-06T12:15:05Z</time></trkpt><trkpt lat="40.6490671" lon="14.6087849"><ele>296.0</ele><time>2026-04-06T12:15:06Z</time></trkpt><trkpt lat="40.6492438" lon="14.6088573"><ele>296.0</ele><time>2026-04-06T12:15:07Z</time></trkpt><trkpt lat="40.6494188" lon="14.6089319"><ele>296.0</ele><time>2026-04-06T12:15:08Z</time></trkpt><trkpt lat="40.6495835" lon="14.6090182"><ele>296.0</ele><time>2026-04-06T12:15:08.999Z</time></trkpt><trkpt lat="40.6497405" lon="14.6091256"><ele>292.0</ele><time>2026-04-06T12:15:10Z</time></trkpt><trkpt lat="40.6498986" lon="14.6092335"><ele>288.0</ele><time>2026-04-06T12:15:11Z</time></trkpt><trkpt lat="40.6500558" lon="14.6093368"><ele>284.0</ele><time>2026-04-06T12:15:12Z</time></trkpt><trkpt lat="40.6501675" lon="14.6094459"><ele>287.0</ele><time>2026-04-06T12:15:13Z</time></trkpt><trkpt lat="40.6503031" lon="14.6095357"><ele>290.0</ele><time>2026-04-06T12:15:14Z</time></trkpt><trkpt lat="40.6504052" lon="14.6096332"><ele>293.0</ele><time>2026-04-06T12:15:15Z</time></trkpt><trkpt lat="40.6505234" lon="14.6097232"><ele>296.0</ele><time>2026-04-06T12:15:16Z</time></trkpt><trkpt lat="40.6506431" lon="14.6098083"><ele>296.0</ele><time>2026-04-06T12:15:17Z</time></trkpt><trkpt lat="40.6507087" lon="14.6098946"><ele>296.0</ele><time>2026-04-06T12:15:18Z</time></trkpt><trkpt lat="40.6507866" lon="14.6099865"><ele>296.0</ele><time>2026-04-06T12:15:19Z</time></trkpt><trkpt lat="40.6508642" lon="14.6100793"><ele>296.0</ele><time>2026-04-06T12:15:20Z</time></trkpt><trkpt lat="40.6509557" lon="14.6101861"><ele>296.0</ele><time>2026-04-06T12:15:21Z</time></trkpt><trkpt lat="40.6510661" lon="14.6103157"><ele>298.33333333333337</ele><time>2026-04-06T12:15:22Z</time></trkpt><trkpt lat="40.6511905" lon="14.6104716"><ele>300.6666666666667</ele><time>2026-04-06T12:15:23Z</time></trkpt><trkpt lat="40.651327" lon="14.6106234"><ele>303.0</ele><time>2026-04-06T12:15:24Z</time></trkpt><trkpt lat="40.6514699" lon="14.6107556"><ele>303.0</ele><time>2026-04-06T12:15:25Z</time></trkpt><trkpt lat="40.6516011" lon="14.6108498"><ele>303.0</ele><time>2026-04-06T12:15:25.999Z</time></trkpt><trkpt lat="40.6517356" lon="14.6108591"><ele>303.0</ele><time>2026-04-06T12:15:27Z</time></trkpt><trkpt lat="40.6518551" lon="14.6108635"><ele>303.0</ele><time>2026-04-06T12:15:28Z</time></trkpt><trkpt lat="40.6519544" lon="14.6108731"><ele>301.4</ele><time>2026-04-06T12:15:29Z</time></trkpt><trkpt lat="40.6520373" lon="14.6109283"><ele>299.8</ele><time>2026-04-06T12:15:30Z</time></trkpt><trkpt lat="40.6521061" lon="14.6109892"><ele>298.2</ele><time>2026-04-06T12:15:31Z</time></trkpt><trkpt lat="40.6521669" lon="14.6111091"><ele>296.6</ele><time>2026-04-06T12:15:32Z</time></trkpt><trkpt lat="40.6522418" lon="14.6111982"><ele>295.0</ele><time>2026-04-06T12:15:33Z</time></trkpt><trkpt lat="40.6523744" lon="14.6112639"><ele>297.75</ele><time>2026-04-06T12:15:34Z</time></trkpt><trkpt lat="40.6525055" lon="14.6113642"><ele>300.5</ele><time>2026-04-06T12:15:35Z</time></trkpt><trkpt lat="40.652617" lon="14.6114719"><ele>303.25</ele><time>2026-04-06T12:15:36Z</time></trkpt><trkpt lat="40.6527229" lon="14.611569"><ele>306.0</ele><time>2026-04-06T12:15:37Z</time></trkpt><trkpt lat="40.6528317" lon="14.6116582"><ele>306.0</ele><time>2026-04-06T12:15:38Z</time></trkpt><trkpt lat="40.6529544" lon="14.6117327"><ele>306.0</ele><time>2026-04-06T12:15:39Z</time></trkpt><trkpt lat="40.6530813" lon="14.6117976"><ele>306.0</ele><time>2026-04-06T12:15:40Z</time></trkpt><trkpt lat="40.6532038" lon="14.6118675"><ele>306.0</ele><time>2026-04-06T12:15:41Z</time></trkpt><trkpt lat="40.6533184" lon="14.6119448"><ele>315.5</ele><time>2026-04-06T12:15:42Z</time></trkpt><trkpt lat="40.6534368" lon="14.6120167"><ele>325.0</ele><time>2026-04-06T12:15:43Z</time></trkpt><trkpt lat="40.6535821" lon="14.6120306"><ele>334.5</ele><time>2026-04-06T12:15:44Z</time></trkpt><trkpt lat="40.6537253" lon="14.6120126"><ele>344.0</ele><time>2026-04-06T12:15:45Z</time></trkpt><trkpt lat="40.6538786" lon="14.6120243"><ele>336.25</ele><time>2026-04-06T12:15:46Z</time></trkpt><trkpt lat="40.6540098" lon="14.6119784"><ele>328.5</ele><time>2026-04-06T12:15:47Z</time></trkpt><trkpt lat="40.6541449" lon="14.6119589"><ele>320.75</ele><time>2026-04-06T12:15:48Z</time></trkpt><trkpt lat="40.6542822" lon="14.6119338"><ele>313.0</ele><time>2026-04-06T12:15:49Z</time></trkpt><trkpt lat="40.6544052" lon="14.6119086"><ele>314.66666666666663</ele><time>2026-04-06T12:15:50Z</time></trkpt><trkpt lat="40.6545299" lon="14.6118036"><ele>316.3333333333333</ele><time>2026-04-06T12:15:51Z</time></trkpt><trkpt lat="40.6546325" lon="14.6116961"><ele>318.0</ele><time>2026-04-06T12:15:52Z</time></trkpt><trkpt lat="40.6545986" lon="14.6114741"><ele>318.0</ele><time>2026-04-06T12:15:53Z</time></trkpt><trkpt lat="40.654652" lon="14.6113681"><ele>318.0</ele><time>2026-04-06T12:15:54Z</time></trkpt><trkpt lat="40.6547224" lon="14.6113318"><ele>318.0</ele><time>2026-04-06T12:15:54.999Z</time></trkpt><trkpt lat="40.6548061" lon="14.6113397"><ele>318.0</ele><time>2026-04-06T12:15:56Z</time></trkpt><trkpt lat="40.6549087" lon="14.6114048"><ele>318.0</ele><time>2026-04-06T12:15:57Z</time></trkpt><trkpt lat="40.6549766" lon="14.6114465"><ele>318.0</ele><time>2026-04-06T12:15:58Z</time></trkpt><trkpt lat="40.6550524" lon="14.6115504"><ele>318.0</ele><time>2026-04-06T12:15:59Z</time></trkpt><trkpt lat="40.6551256" lon="14.6116624"><ele>318.0</ele><time>2026-04-06T12:16:00Z</time></trkpt><trkpt lat="40.6552089" lon="14.6117574"><ele>318.0</ele><time>2026-04-06T12:16:01Z</time></trkpt><trkpt lat="40.6553166" lon="14.6118364"><ele>318.0</ele><time>2026-04-06T12:16:02Z</time></trkpt><trkpt lat="40.6554333" lon="14.6118898"><ele>318.4</ele><time>2026-04-06T12:16:03Z</time></trkpt><trkpt lat="40.6555398" lon="14.6119339"><ele>318.8</ele><time>2026-04-06T12:16:03.999Z</time></trkpt><trkpt lat="40.6556243" lon="14.6119676"><ele>319.2</ele><time>2026-04-06T12:16:05Z</time></trkpt><trkpt lat="40.6557088" lon="14.6119924"><ele>319.6</ele><time>2026-04-06T12:16:05.999Z</time></trkpt><trkpt lat="40.6557811" lon="14.6120121"><ele>320.0</ele><time>2026-04-06T12:16:06.999Z</time></trkpt><trkpt lat="40.6557216" lon="14.6121536"><ele>326.6666666666667</ele><time>2026-04-06T12:16:09Z</time></trkpt><trkpt lat="40.6555956" lon="14.6122122"><ele>333.3333333333333</ele><time>2026-04-06T12:16:11Z</time></trkpt><trkpt lat="40.6554283" lon="14.6121316"><ele>340.0</ele><time>2026-04-06T12:16:12Z</time></trkpt><trkpt lat="40.6552816" lon="14.6120407"><ele>334.5</ele><time>2026-04-06T12:16:13Z</time></trkpt><trkpt lat="40.6551693" lon="14.6119323"><ele>329.0</ele><time>2026-04-06T12:16:14Z</time></trkpt><trkpt lat="40.6550699" lon="14.6118072"><ele>323.5</ele><time>2026-04-06T12:16:15Z</time></trkpt><trkpt lat="40.6549793" lon="14.611699"><ele>318.0</ele><time>2026-04-06T12:16:16Z</time></trkpt><trkpt lat="40.6548928" lon="14.611624"><ele>318.0</ele><time>2026-04-06T12:16:17Z</time></trkpt><trkpt lat="40.6548099" lon="14.6115929"><ele>318.0</ele><time>2026-04-06T12:16:18Z</time></trkpt><trkpt lat="40.6547331" lon="14.6115648"><ele>318.0</ele><time>2026-04-06T12:16:19Z</time></trkpt><trkpt lat="40.6546785" lon="14.6116491"><ele>318.0</ele><time>2026-04-06T12:16:20Z</time></trkpt><trkpt lat="40.6546174" lon="14.6117211"><ele>318.0</ele><time>2026-04-06T12:16:21Z</time></trkpt><trkpt lat="40.6545506" lon="14.6118261"><ele>318.0</ele><time>2026-04-06T12:16:22Z</time></trkpt><trkpt lat="40.6544703" lon="14.6119393"><ele>324.5</ele><time>2026-04-06T12:16:23Z</time></trkpt><trkpt lat="40.6543839" lon="14.61206"><ele>331.0</ele><time>2026-04-06T12:16:23.999Z</time></trkpt><trkpt lat="40.6542898" lon="14.6121757"><ele>337.5</ele><time>2026-04-06T12:16:25Z</time></trkpt><trkpt lat="40.6541955" lon="14.6122738"><ele>344.0</ele><time>2026-04-06T12:16:26Z</time></trkpt><trkpt lat="40.654092" lon="14.612359"><ele>344.0</ele><time>2026-04-06T12:16:27Z</time></trkpt><trkpt lat="40.6539874" lon="14.6124333"><ele>344.0</ele><time>2026-04-06T12:16:28Z</time></trkpt><trkpt lat="40.6538789" lon="14.6124887"><ele>344.0</ele><time>2026-04-06T12:16:29Z</time></trkpt><trkpt lat="40.6537805" lon="14.6125497"><ele>344.0</ele><time>2026-04-06T12:16:30Z</time></trkpt><trkpt lat="40.653693" lon="14.6126141"><ele>344.0</ele><time>2026-04-06T12:16:31Z</time></trkpt><trkpt lat="40.6536172" lon="14.6126892"><ele>344.0</ele><time>2026-04-06T12:16:32Z</time></trkpt><trkpt lat="40.6535439" lon="14.6127679"><ele>344.0</ele><time>2026-04-06T12:16:33Z</time></trkpt><trkpt lat="40.6534754" lon="14.6128459"><ele>344.0</ele><time>2026-04-06T12:16:34Z</time></trkpt><trkpt lat="40.6534169" lon="14.6129264"><ele>344.0</ele><time>2026-04-06T12:16:34.999Z</time></trkpt><trkpt lat="40.6515311" lon="14.6139537"><ele>353.0</ele><time>2026-04-06T12:16:56Z</time></trkpt><trkpt lat="40.6515126" lon="14.6140396"><ele>353.0</ele><time>2026-04-06T12:16:58Z</time></trkpt><trkpt lat="40.6515566" lon="14.6141243"><ele>353.0</ele><time>2026-04-06T12:17:01Z</time></trkpt></trkseg><trkseg><trkpt lat="40.6516117" lon="14.6141065"><ele>353.0</ele><time>2026-04-06T12:33:46Z</time></trkpt><trkpt lat="40.6516802" lon="14.6141316"><ele>353.0</ele><time>2026-04-06T12:33:47Z</time></trkpt><trkpt lat="40.6517567" lon="14.6141713"><ele>353.0</ele><time>2026-04-06T12:33:48Z</time></trkpt><trkpt lat="40.651842" lon="14.6142003"><ele>353.0</ele><time>2026-04-06T12:33:49Z</time></trkpt><trkpt lat="40.651933" lon="14.6142178"><ele>353.0</ele><time>2026-04-06T12:33:50Z</time></trkpt><trkpt lat="40.652022" lon="14.6142138"><ele>353.0</ele><time>2026-04-06T12:33:51Z</time></trkpt><trkpt lat="40.6521201" lon="14.6141863"><ele>350.5</ele><time>2026-04-06T12:33:52Z</time></trkpt><trkpt lat="40.6522204" lon="14.614131"><ele>348.0</ele><time>2026-04-06T12:33:53Z</time></trkpt><trkpt lat="40.6523346" lon="14.614059"><ele>345.5</ele><time>2026-04-06T12:33:54Z</time></trkpt><trkpt lat="40.6524557" lon="14.613973"><ele>343.0</ele><time>2026-04-06T12:33:55Z</time></trkpt><trkpt lat="40.6525825" lon="14.6138902"><ele>343.0</ele><time>2026-04-06T12:33:56Z</time></trkpt><trkpt lat="40.6527031" lon="14.6138056"><ele>343.0</ele><time>2026-04-06T12:33:57Z</time></trkpt><trkpt lat="40.6528157" lon="14.6137233"><ele>343.0</ele><time>2026-04-06T12:33:58Z</time></trkpt><trkpt lat="40.652927" lon="14.6136566"><ele>343.0</ele><time>2026-04-06T12:33:59Z</time></trkpt><trkpt lat="40.6530346" lon="14.6136125"><ele>346.4</ele><time>2026-04-06T12:34:00Z</time></trkpt><trkpt lat="40.6531381" lon="14.613589"><ele>349.79999999999995</ele><time>2026-04-06T12:34:01Z</time></trkpt><trkpt lat="40.6532466" lon="14.6135861"><ele>353.2</ele><time>2026-04-06T12:34:02Z</time></trkpt><trkpt lat="40.653358" lon="14.6136012"><ele>356.6</ele><time>2026-04-06T12:34:02.999Z</time></trkpt><trkpt lat="40.6534705" lon="14.613619"><ele>360.0</ele><time>2026-04-06T12:34:04Z</time></trkpt><trkpt lat="40.6535797" lon="14.6136261"><ele>360.6</ele><time>2026-04-06T12:34:05Z</time></trkpt><trkpt lat="40.6536817" lon="14.6136064"><ele>361.2</ele><time>2026-04-06T12:34:06Z</time></trkpt><trkpt lat="40.6537741" lon="14.6135628"><ele>361.79999999999995</ele><time>2026-04-06T12:34:07Z</time></trkpt><trkpt lat="40.6538691" lon="14.613529"><ele>362.4</ele><time>2026-04-06T12:34:08Z</time></trkpt><trkpt lat="40.6539661" lon="14.6135266"><ele>363.0</ele><time>2026-04-06T12:34:09Z</time></trkpt><trkpt lat="40.6540495" lon="14.6135593"><ele>363.0</ele><time>2026-04-06T12:34:10Z</time></trkpt><trkpt lat="40.654116" lon="14.6136022"><ele>363.0</ele><time>2026-04-06T12:34:11Z</time></trkpt><trkpt lat="40.6541778" lon="14.6136462"><ele>363.0</ele><time>2026-04-06T12:34:12Z</time></trkpt><trkpt lat="40.6542445" lon="14.6136976"><ele>363.0</ele><time>2026-04-06T12:34:13Z</time></trkpt><trkpt lat="40.6543135" lon="14.6137614"><ele>363.0</ele><time>2026-04-06T12:34:14Z</time></trkpt><trkpt lat="40.6543721" lon="14.6138297"><ele>363.0</ele><time>2026-04-06T12:34:15Z</time></trkpt><trkpt lat="40.6544297" lon="14.6139124"><ele>364.59999999999997</ele><time>2026-04-06T12:34:16Z</time></trkpt><trkpt lat="40.6544904" lon="14.6139948"><ele>366.2</ele><time>2026-04-06T12:34:16.999Z</time></trkpt><trkpt lat="40.6545644" lon="14.6140635"><ele>367.8</ele><time>2026-04-06T12:34:18Z</time></trkpt><trkpt lat="40.6546537" lon="14.6141157"><ele>369.4</ele><time>2026-04-06T12:34:19Z</time></trkpt><trkpt lat="40.6547605" lon="14.6141492"><ele>371.0</ele><time>2026-04-06T12:34:20Z</time></trkpt><trkpt lat="40.6548756" lon="14.6141901"><ele>371.0</ele><time>2026-04-06T12:34:20.999Z</time></trkpt><trkpt lat="40.6549948" lon="14.614254"><ele>371.0</ele><time>2026-04-06T12:34:22Z</time></trkpt><trkpt lat="40.6551092" lon="14.614327"><ele>371.0</ele><time>2026-04-06T12:34:23Z</time></trkpt><trkpt lat="40.6552051" lon="14.6144126"><ele>371.0</ele><time>2026-04-06T12:34:23.999Z</time></trkpt><trkpt lat="40.6552928" lon="14.6145234"><ele>372.75</ele><time>2026-04-06T12:34:25Z</time></trkpt><trkpt lat="40.6553849" lon="14.6146292"><ele>374.5</ele><time>2026-04-06T12:34:26Z</time></trkpt><trkpt lat="40.6554893" lon="14.6147305"><ele>376.25</ele><time>2026-04-06T12:34:27Z</time></trkpt><trkpt lat="40.6555987" lon="14.6148376"><ele>378.0</ele><time>2026-04-06T12:34:28Z</time></trkpt><trkpt lat="40.6557071" lon="14.6149423"><ele>378.0</ele><time>2026-04-06T12:34:29Z</time></trkpt><trkpt lat="40.6558021" lon="14.6150502"><ele>378.0</ele><time>2026-04-06T12:34:30Z</time></trkpt><trkpt lat="40.6558767" lon="14.6151633"><ele>378.0</ele><time>2026-04-06T12:34:31Z</time></trkpt><trkpt lat="40.6559448" lon="14.6152857"><ele>378.0</ele><time>2026-04-06T12:34:32Z</time></trkpt><trkpt lat="40.656023" lon="14.6153922"><ele>373.75</ele><time>2026-04-06T12:34:33Z</time></trkpt><trkpt lat="40.6561118" lon="14.6154753"><ele>369.5</ele><time>2026-04-06T12:34:34Z</time></trkpt><trkpt lat="40.6562178" lon="14.6155206"><ele>365.25</ele><time>2026-04-06T12:34:35Z</time></trkpt><trkpt lat="40.6563433" lon="14.6155353"><ele>361.0</ele><time>2026-04-06T12:34:35.999Z</time></trkpt><trkpt lat="40.6564832" lon="14.6155175"><ele>361.0</ele><time>2026-04-06T12:34:37Z</time></trkpt><trkpt lat="40.6566293" lon="14.6154767"><ele>361.0</ele><time>2026-04-06T12:34:38Z</time></trkpt><trkpt lat="40.6567706" lon="14.615446"><ele>361.0</ele><time>2026-04-06T12:34:38.999Z</time></trkpt><trkpt lat="40.6569055" lon="14.6154156"><ele>361.0</ele><time>2026-04-06T12:34:40Z</time></trkpt><trkpt lat="40.657041" lon="14.6153893"><ele>358.5</ele><time>2026-04-06T12:34:41Z</time></trkpt><trkpt lat="40.6571804" lon="14.6153609"><ele>356.0</ele><time>2026-04-06T12:34:42Z</time></trkpt><trkpt lat="40.6573139" lon="14.6153385"><ele>353.5</ele><time>2026-04-06T12:34:43Z</time></trkpt><trkpt lat="40.6574481" lon="14.6153121"><ele>351.0</ele><time>2026-04-06T12:34:44Z</time></trkpt><trkpt lat="40.6575826" lon="14.615286"><ele>363.75</ele><time>2026-04-06T12:34:45Z</time></trkpt><trkpt lat="40.6577104" lon="14.6152618"><ele>376.5</ele><time>2026-04-06T12:34:46Z</time></trkpt><trkpt lat="40.6578194" lon="14.6152381"><ele>389.25</ele><time>2026-04-06T12:34:47Z</time></trkpt><trkpt lat="40.6579255" lon="14.6152187"><ele>402.0</ele><time>2026-04-06T12:34:48Z</time></trkpt><trkpt lat="40.6580319" lon="14.6151855"><ele>402.75</ele><time>2026-04-06T12:34:49Z</time></trkpt><trkpt lat="40.6581518" lon="14.6151554"><ele>403.5</ele><time>2026-04-06T12:34:50Z</time></trkpt><trkpt lat="40.6582788" lon="14.6151299"><ele>404.25</ele><time>2026-04-06T12:34:51Z</time></trkpt><trkpt lat="40.6584228" lon="14.6150939"><ele>405.0</ele><time>2026-04-06T12:34:52Z</time></trkpt><trkpt lat="40.6585697" lon="14.6150529"><ele>402.25</ele><time>2026-04-06T12:34:53Z</time></trkpt><trkpt lat="40.6587139" lon="14.6150147"><ele>399.5</ele><time>2026-04-06T12:34:54Z</time></trkpt><trkpt lat="40.6588473" lon="14.6149799"><ele>396.75</ele><time>2026-04-06T12:34:54.999Z</time></trkpt><trkpt lat="40.6589744" lon="14.614949"><ele>394.0</ele><time>2026-04-06T12:34:55.999Z</time></trkpt><trkpt lat="40.6590872" lon="14.6149205"><ele>394.0</ele><time>2026-04-06T12:34:57Z</time></trkpt><trkpt lat="40.6591928" lon="14.6148943"><ele>394.0</ele><time>2026-04-06T12:34:58Z</time></trkpt><trkpt lat="40.6592835" lon="14.6148728"><ele>394.0</ele><time>2026-04-06T12:34:59Z</time></trkpt><trkpt lat="40.6593723" lon="14.6148475"><ele>394.0</ele><time>2026-04-06T12:35:00Z</time></trkpt><trkpt lat="40.6594612" lon="14.6148063"><ele>394.0</ele><time>2026-04-06T12:35:01Z</time></trkpt><trkpt lat="40.6595481" lon="14.6147495"><ele>393.50000000000006</ele><time>2026-04-06T12:35:02Z</time></trkpt><trkpt lat="40.6596294" lon="14.6146898"><ele>393.0</ele><time>2026-04-06T12:35:02.999Z</time></trkpt><trkpt lat="40.6596965" lon="14.6146347"><ele>392.5</ele><time>2026-04-06T12:35:04Z</time></trkpt><trkpt lat="40.6597519" lon="14.6145895"><ele>392.0</ele><time>2026-04-06T12:35:05Z</time></trkpt><trkpt lat="40.6598072" lon="14.6145498"><ele>391.50000000000006</ele><time>2026-04-06T12:35:06Z</time></trkpt><trkpt lat="40.6599129" lon="14.6145096"><ele>391.0</ele><time>2026-04-06T12:35:08Z</time></trkpt><trkpt lat="40.6600305" lon="14.6145527"><ele>391.00000000000006</ele><time>2026-04-06T12:35:09.999Z</time></trkpt><trkpt lat="40.6601298" lon="14.6146608"><ele>391.0</ele><time>2026-04-06T12:35:12Z</time></trkpt><trkpt lat="40.6601869" lon="14.6147295"><ele>391.0</ele><time>2026-04-06T12:35:13Z</time></trkpt><trkpt lat="40.6602548" lon="14.6147861"><ele>391.0</ele><time>2026-04-06T12:35:14Z</time></trkpt><trkpt lat="40.6603318" lon="14.6148257"><ele>391.00000000000006</ele><time>2026-04-06T12:35:14.999Z</time></trkpt><trkpt lat="40.6603999" lon="14.6148495"><ele>391.0</ele><time>2026-04-06T12:35:16Z</time></trkpt><trkpt lat="40.6604685" lon="14.6148494"><ele>392.33333333333337</ele><time>2026-04-06T12:35:17Z</time></trkpt><trkpt lat="40.6605376" lon="14.6148423"><ele>393.6666666666667</ele><time>2026-04-06T12:35:18Z</time></trkpt><trkpt lat="40.6606085" lon="14.6148251"><ele>395.0</ele><time>2026-04-06T12:35:19Z</time></trkpt><trkpt lat="40.6606847" lon="14.6148067"><ele>396.33333333333337</ele><time>2026-04-06T12:35:20Z</time></trkpt><trkpt lat="40.6607588" lon="14.614787"><ele>397.6666666666667</ele><time>2026-04-06T12:35:21Z</time></trkpt><trkpt lat="40.6608343" lon="14.6147613"><ele>399.0</ele><time>2026-04-06T12:35:22Z</time></trkpt><trkpt lat="40.6609109" lon="14.6147373"><ele>399.0</ele><time>2026-04-06T12:35:23Z</time></trkpt><trkpt lat="40.6609979" lon="14.6147111"><ele>399.0</ele><time>2026-04-06T12:35:23.999Z</time></trkpt><trkpt lat="40.6610979" lon="14.6146934"><ele>399.0</ele><time>2026-04-06T12:35:25Z</time></trkpt><trkpt lat="40.6612353" lon="14.6146968"><ele>399.0</ele><time>2026-04-06T12:35:26Z</time></trkpt><trkpt lat="40.6613986" lon="14.6148028"><ele>400.33333333333337</ele><time>2026-04-06T12:35:27Z</time></trkpt><trkpt lat="40.6615492" lon="14.6148428"><ele>401.6666666666667</ele><time>2026-04-06T12:35:28Z</time></trkpt><trkpt lat="40.6617077" lon="14.6148414"><ele>403.0</ele><time>2026-04-06T12:35:29Z</time></trkpt><trkpt lat="40.6618657" lon="14.6148153"><ele>397.33333333333337</ele><time>2026-04-06T12:35:30Z</time></trkpt><trkpt lat="40.6620207" lon="14.614743"><ele>391.66666666666663</ele><time>2026-04-06T12:35:31Z</time></trkpt><trkpt lat="40.6621574" lon="14.6146389"><ele>386.0</ele><time>2026-04-06T12:35:32Z</time></trkpt><trkpt lat="40.662264" lon="14.6145052"><ele>396.25</ele><time>2026-04-06T12:35:33Z</time></trkpt><trkpt lat="40.6623463" lon="14.6143785"><ele>406.5</ele><time>2026-04-06T12:35:34Z</time></trkpt><trkpt lat="40.6624369" lon="14.6142572"><ele>416.75</ele><time>2026-04-06T12:35:35Z</time></trkpt><trkpt lat="40.6625345" lon="14.6141602"><ele>427.0</ele><time>2026-04-06T12:35:36Z</time></trkpt><trkpt lat="40.6626539" lon="14.614103"><ele>422.25</ele><time>2026-04-06T12:35:37Z</time></trkpt><trkpt lat="40.6627845" lon="14.614083"><ele>417.5</ele><time>2026-04-06T12:35:38Z</time></trkpt><trkpt lat="40.6629153" lon="14.6140437"><ele>412.75</ele><time>2026-04-06T12:35:39Z</time></trkpt><trkpt lat="40.6630568" lon="14.6139859"><ele>408.0</ele><time>2026-04-06T12:35:40Z</time></trkpt><trkpt lat="40.6631903" lon="14.6139062"><ele>408.0</ele><time>2026-04-06T12:35:41Z</time></trkpt><trkpt lat="40.6633168" lon="14.6138127"><ele>408.0</ele><time>2026-04-06T12:35:42Z</time></trkpt><trkpt lat="40.6634277" lon="14.6137016"><ele>408.0</ele><time>2026-04-06T12:35:43Z</time></trkpt><trkpt lat="40.6635295" lon="14.6136001"><ele>408.0</ele><time>2026-04-06T12:35:44Z</time></trkpt><trkpt lat="40.6636185" lon="14.613506"><ele>413.59999999999997</ele><time>2026-04-06T12:35:45Z</time></trkpt><trkpt lat="40.6637118" lon="14.6134403"><ele>419.2</ele><time>2026-04-06T12:35:46Z</time></trkpt><trkpt lat="40.6638045" lon="14.6134008"><ele>424.8</ele><time>2026-04-06T12:35:47Z</time></trkpt><trkpt lat="40.6639054" lon="14.6133838"><ele>430.4</ele><time>2026-04-06T12:35:48Z</time></trkpt><trkpt lat="40.6640067" lon="14.6133969"><ele>436.0</ele><time>2026-04-06T12:35:49Z</time></trkpt><trkpt lat="40.6641083" lon="14.6134197"><ele>436.00000000000006</ele><time>2026-04-06T12:35:50Z</time></trkpt><trkpt lat="40.6642033" lon="14.6134379"><ele>436.0</ele><time>2026-04-06T12:35:51Z</time></trkpt><trkpt lat="40.6642826" lon="14.6134257"><ele>436.0</ele><time>2026-04-06T12:35:52Z</time></trkpt><trkpt lat="40.6643456" lon="14.6133812"><ele>436.0</ele><time>2026-04-06T12:35:53Z</time></trkpt><trkpt lat="40.664403" lon="14.6133212"><ele>436.00000000000006</ele><time>2026-04-06T12:35:54Z</time></trkpt><trkpt lat="40.6644607" lon="14.6132399"><ele>436.0</ele><time>2026-04-06T12:35:55Z</time></trkpt><trkpt lat="40.6645138" lon="14.6131459"><ele>431.25</ele><time>2026-04-06T12:35:56Z</time></trkpt><trkpt lat="40.664551" lon="14.6130209"><ele>426.5</ele><time>2026-04-06T12:35:56.999Z</time></trkpt><trkpt lat="40.6645712" lon="14.6128539"><ele>421.75</ele><time>2026-04-06T12:35:57.999Z</time></trkpt><trkpt lat="40.6645995" lon="14.612678"><ele>417.0</ele><time>2026-04-06T12:35:59Z</time></trkpt><trkpt lat="40.6646872" lon="14.6124972"><ele>417.0</ele><time>2026-04-06T12:35:59.999Z</time></trkpt><trkpt lat="40.6647447" lon="14.6123251"><ele>417.0</ele><time>2026-04-06T12:36:01Z</time></trkpt><trkpt lat="40.6647731" lon="14.6121623"><ele>417.0</ele><time>2026-04-06T12:36:02Z</time></trkpt><trkpt lat="40.6647897" lon="14.6120057"><ele>417.0</ele><time>2026-04-06T12:36:03Z</time></trkpt><trkpt lat="40.6648237" lon="14.6118568"><ele>430.5</ele><time>2026-04-06T12:36:04Z</time></trkpt><trkpt lat="40.6648511" lon="14.6117174"><ele>444.0</ele><time>2026-04-06T12:36:05Z</time></trkpt><trkpt lat="40.6649665" lon="14.6116506"><ele>457.5</ele><time>2026-04-06T12:36:06Z</time></trkpt><trkpt lat="40.6650787" lon="14.6116126"><ele>471.0</ele><time>2026-04-06T12:36:07Z</time></trkpt><trkpt lat="40.6652058" lon="14.6115911"><ele>463.0</ele><time>2026-04-06T12:36:08Z</time></trkpt><trkpt lat="40.6653237" lon="14.6115705"><ele>455.0</ele><time>2026-04-06T12:36:08.999Z</time></trkpt><trkpt lat="40.6654381" lon="14.611528"><ele>447.0</ele><time>2026-04-06T12:36:10Z</time></trkpt><trkpt lat="40.6655209" lon="14.6114382"><ele>439.0</ele><time>2026-04-06T12:36:11Z</time></trkpt><trkpt lat="40.6656036" lon="14.6113507"><ele>439.0</ele><time>2026-04-06T12:36:12Z</time></trkpt><trkpt lat="40.6657009" lon="14.6113057"><ele>439.0</ele><time>2026-04-06T12:36:13Z</time></trkpt><trkpt lat="40.6658185" lon="14.6113126"><ele>439.0</ele><time>2026-04-06T12:36:14Z</time></trkpt><trkpt lat="40.6659421" lon="14.6113587"><ele>439.0</ele><time>2026-04-06T12:36:15Z</time></trkpt><trkpt lat="40.6660965" lon="14.6114127"><ele>450.0</ele><time>2026-04-06T12:36:16Z</time></trkpt><trkpt lat="40.6662638" lon="14.6114569"><ele>461.0</ele><time>2026-04-06T12:36:17Z</time></trkpt><trkpt lat="40.6664146" lon="14.6114916"><ele>472.0</ele><time>2026-04-06T12:36:18Z</time></trkpt><trkpt lat="40.6665552" lon="14.6115508"><ele>472.0</ele><time>2026-04-06T12:36:19Z</time></trkpt><trkpt lat="40.6666794" lon="14.6116482"><ele>472.0</ele><time>2026-04-06T12:36:20Z</time></trkpt><trkpt lat="40.6667764" lon="14.611769"><ele>472.0</ele><time>2026-04-06T12:36:21Z</time></trkpt><trkpt lat="40.6668566" lon="14.6119056"><ele>472.0</ele><time>2026-04-06T12:36:22Z</time></trkpt><trkpt lat="40.6669279" lon="14.6120236"><ele>467.25</ele><time>2026-04-06T12:36:23Z</time></trkpt><trkpt lat="40.6670132" lon="14.6121213"><ele>462.5</ele><time>2026-04-06T12:36:24Z</time></trkpt><trkpt lat="40.6671107" lon="14.6121814"><ele>457.75</ele><time>2026-04-06T12:36:25Z</time></trkpt><trkpt lat="40.6672279" lon="14.6122015"><ele>453.0</ele><time>2026-04-06T12:36:26Z</time></trkpt><trkpt lat="40.6673427" lon="14.6122056"><ele>453.0</ele><time>2026-04-06T12:36:27Z</time></trkpt><trkpt lat="40.6675234" lon="14.6121589"><ele>453.0</ele><time>2026-04-06T12:36:28Z</time></trkpt><trkpt lat="40.6676722" lon="14.6121428"><ele>453.0</ele><time>2026-04-06T12:36:28.999Z</time></trkpt><trkpt lat="40.6678529" lon="14.6121188"><ele>451.33333333333337</ele><time>2026-04-06T12:36:30Z</time></trkpt><trkpt lat="40.668029" lon="14.6120831"><ele>449.6666666666667</ele><time>2026-04-06T12:36:31Z</time></trkpt><trkpt lat="40.6682038" lon="14.6120459"><ele>448.0</ele><time>2026-04-06T12:36:32Z</time></trkpt><trkpt lat="40.6683695" lon="14.6120178"><ele>452.0</ele><time>2026-04-06T12:36:33Z</time></trkpt><trkpt lat="40.668516" lon="14.6119851"><ele>456.0</ele><time>2026-04-06T12:36:34Z</time></trkpt><trkpt lat="40.6686354" lon="14.6119411"><ele>460.0</ele><time>2026-04-06T12:36:35Z</time></trkpt><trkpt lat="40.6687286" lon="14.611847"><ele>464.0</ele><time>2026-04-06T12:36:35.999Z</time></trkpt><trkpt lat="40.668791" lon="14.6117062"><ele>464.0</ele><time>2026-04-06T12:36:36.999Z</time></trkpt><trkpt lat="40.6688424" lon="14.6115369"><ele>464.0</ele><time>2026-04-06T12:36:38Z</time></trkpt><trkpt lat="40.6689152" lon="14.6113484"><ele>464.0</ele><time>2026-04-06T12:36:39Z</time></trkpt><trkpt lat="40.668993" lon="14.6111859"><ele>464.0</ele><time>2026-04-06T12:36:40Z</time></trkpt><trkpt lat="40.6690645" lon="14.6110401"><ele>472.5</ele><time>2026-04-06T12:36:41Z</time></trkpt><trkpt lat="40.6691325" lon="14.610912"><ele>481.0</ele><time>2026-04-06T12:36:42Z</time></trkpt><trkpt lat="40.66925" lon="14.610877"><ele>489.5</ele><time>2026-04-06T12:36:43Z</time></trkpt><trkpt lat="40.6693677" lon="14.6108701"><ele>498.0</ele><time>2026-04-06T12:36:44Z</time></trkpt><trkpt lat="40.6695033" lon="14.6108827"><ele>498.0</ele><time>2026-04-06T12:36:45Z</time></trkpt><trkpt lat="40.6696577" lon="14.6108939"><ele>498.0</ele><time>2026-04-06T12:36:46Z</time></trkpt><trkpt lat="40.6697995" lon="14.6109117"><ele>498.0</ele><time>2026-04-06T12:36:47Z</time></trkpt><trkpt lat="40.6699391" lon="14.6108929"><ele>498.0</ele><time>2026-04-06T12:36:48Z</time></trkpt><trkpt lat="40.6700707" lon="14.61083"><ele>498.0</ele><time>2026-04-06T12:36:49Z</time></trkpt><trkpt lat="40.6701805" lon="14.6107306"><ele>498.0</ele><time>2026-04-06T12:36:50Z</time></trkpt><trkpt lat="40.6702786" lon="14.6106329"><ele>498.0</ele><time>2026-04-06T12:36:51Z</time></trkpt><trkpt lat="40.6703781" lon="14.6105784"><ele>498.0</ele><time>2026-04-06T12:36:52Z</time></trkpt><trkpt lat="40.6704896" lon="14.6105679"><ele>500.25</ele><time>2026-04-06T12:36:53Z</time></trkpt><trkpt lat="40.6706143" lon="14.6106233"><ele>502.5</ele><time>2026-04-06T12:36:54Z</time></trkpt><trkpt lat="40.6707452" lon="14.610738"><ele>504.75</ele><time>2026-04-06T12:36:55Z</time></trkpt><trkpt lat="40.6708742" lon="14.6108575"><ele>507.0</ele><time>2026-04-06T12:36:56Z</time></trkpt><trkpt lat="40.6709841" lon="14.610946"><ele>507.0</ele><time>2026-04-06T12:36:57Z</time></trkpt><trkpt lat="40.6711015" lon="14.6109822"><ele>507.0</ele><time>2026-04-06T12:36:58Z</time></trkpt><trkpt lat="40.6712185" lon="14.6109566"><ele>507.0</ele><time>2026-04-06T12:36:58.999Z</time></trkpt><trkpt lat="40.6713443" lon="14.6109142"><ele>507.0</ele><time>2026-04-06T12:37:00Z</time></trkpt><trkpt lat="40.6714777" lon="14.6109241"><ele>515.0</ele><time>2026-04-06T12:37:01Z</time></trkpt><trkpt lat="40.6716308" lon="14.6109774"><ele>523.0</ele><time>2026-04-06T12:37:02Z</time></trkpt><trkpt lat="40.6718022" lon="14.6110268"><ele>531.0</ele><time>2026-04-06T12:37:03Z</time></trkpt><trkpt lat="40.6719609" lon="14.61105"><ele>531.6666666666666</ele><time>2026-04-06T12:37:04Z</time></trkpt><trkpt lat="40.6721233" lon="14.6110534"><ele>532.3333333333333</ele><time>2026-04-06T12:37:04.999Z</time></trkpt><trkpt lat="40.6722791" lon="14.6110674"><ele>533.0</ele><time>2026-04-06T12:37:05.999Z</time></trkpt><trkpt lat="40.6724092" lon="14.6111152"><ele>533.0</ele><time>2026-04-06T12:37:06.999Z</time></trkpt><trkpt lat="40.6725257" lon="14.6111716"><ele>533.0</ele><time>2026-04-06T12:37:08Z</time></trkpt><trkpt lat="40.6726365" lon="14.6111842"><ele>533.0</ele><time>2026-04-06T12:37:08.999Z</time></trkpt><trkpt lat="40.6727386" lon="14.6111523"><ele>533.0</ele><time>2026-04-06T12:37:10Z</time></trkpt><trkpt lat="40.6728301" lon="14.6110654"><ele>518.0</ele><time>2026-04-06T12:37:11Z</time></trkpt><trkpt lat="40.672901" lon="14.6109245"><ele>503.0</ele><time>2026-04-06T12:37:12Z</time></trkpt><trkpt lat="40.6729399" lon="14.6107257"><ele>488.0</ele><time>2026-04-06T12:37:13Z</time></trkpt><trkpt lat="40.6729732" lon="14.6104955"><ele>498.75</ele><time>2026-04-06T12:37:14Z</time></trkpt><trkpt lat="40.6730017" lon="14.610295"><ele>509.5</ele><time>2026-04-06T12:37:15Z</time></trkpt><trkpt lat="40.6730524" lon="14.6101306"><ele>520.25</ele><time>2026-04-06T12:37:16Z</time></trkpt><trkpt lat="40.6731066" lon="14.6099472"><ele>531.0</ele><time>2026-04-06T12:37:17Z</time></trkpt><trkpt lat="40.6732161" lon="14.6098541"><ele>531.0</ele><time>2026-04-06T12:37:17.999Z</time></trkpt><trkpt lat="40.6733231" lon="14.6097352"><ele>531.0</ele><time>2026-04-06T12:37:19Z</time></trkpt><trkpt lat="40.6734304" lon="14.6096611"><ele>531.0</ele><time>2026-04-06T12:37:19.999Z</time></trkpt><trkpt lat="40.6735371" lon="14.6096349"><ele>531.0</ele><time>2026-04-06T12:37:21Z</time></trkpt><trkpt lat="40.6736464" lon="14.6096714"><ele>531.25</ele><time>2026-04-06T12:37:22Z</time></trkpt><trkpt lat="40.6737625" lon="14.6097013"><ele>531.5</ele><time>2026-04-06T12:37:23Z</time></trkpt><trkpt lat="40.67389" lon="14.6098087"><ele>531.75</ele><time>2026-04-06T12:37:23.999Z</time></trkpt><trkpt lat="40.67398" lon="14.6099499"><ele>532.0</ele><time>2026-04-06T12:37:25Z</time></trkpt><trkpt lat="40.6740888" lon="14.6100076"><ele>532.0</ele><time>2026-04-06T12:37:26Z</time></trkpt><trkpt lat="40.6741908" lon="14.610019"><ele>532.0</ele><time>2026-04-06T12:37:26.999Z</time></trkpt><trkpt lat="40.6742887" lon="14.6100182"><ele>532.0</ele><time>2026-04-06T12:37:27.999Z</time></trkpt><trkpt lat="40.6743801" lon="14.6099923"><ele>532.0</ele><time>2026-04-06T12:37:29Z</time></trkpt><trkpt lat="40.6744719" lon="14.6097727"><ele>527.0</ele><time>2026-04-06T12:37:30Z</time></trkpt><trkpt lat="40.6745665" lon="14.6096636"><ele>522.0</ele><time>2026-04-06T12:37:31Z</time></trkpt><trkpt lat="40.6747198" lon="14.609642"><ele>517.0</ele><time>2026-04-06T12:37:31.999Z</time></trkpt><trkpt lat="40.6748668" lon="14.6095884"><ele>512.0</ele><time>2026-04-06T12:37:33Z</time></trkpt><trkpt lat="40.6750049" lon="14.6095454"><ele>512.0</ele><time>2026-04-06T12:37:34Z</time></trkpt><trkpt lat="40.6751309" lon="14.6094676"><ele>512.0</ele><time>2026-04-06T12:37:35Z</time></trkpt><trkpt lat="40.6752439" lon="14.609367"><ele>512.0</ele><time>2026-04-06T12:37:36Z</time></trkpt><trkpt lat="40.6753532" lon="14.6092018"><ele>512.0</ele><time>2026-04-06T12:37:37Z</time></trkpt><trkpt lat="40.6754259" lon="14.6090322"><ele>512.0</ele><time>2026-04-06T12:37:38Z</time></trkpt><trkpt lat="40.6754484" lon="14.6088141"><ele>512.0</ele><time>2026-04-06T12:37:39Z</time></trkpt><trkpt lat="40.6755258" lon="14.6086281"><ele>512.0</ele><time>2026-04-06T12:37:40Z</time></trkpt><trkpt lat="40.6755981" lon="14.6084832"><ele>525.25</ele><time>2026-04-06T12:37:41Z</time></trkpt><trkpt lat="40.6756666" lon="14.6083278"><ele>538.5</ele><time>2026-04-06T12:37:42Z</time></trkpt><trkpt lat="40.6757928" lon="14.6082703"><ele>551.75</ele><time>2026-04-06T12:37:43Z</time></trkpt><trkpt lat="40.6759657" lon="14.6082554"><ele>565.0</ele><time>2026-04-06T12:37:43.999Z</time></trkpt><trkpt lat="40.6761822" lon="14.6083443"><ele>570.3333333333334</ele><time>2026-04-06T12:37:45Z</time></trkpt><trkpt lat="40.6763559" lon="14.6083663"><ele>575.6666666666666</ele><time>2026-04-06T12:37:46Z</time></trkpt><trkpt lat="40.6765169" lon="14.6083861"><ele>581.0</ele><time>2026-04-06T12:37:47Z</time></trkpt><trkpt lat="40.676659" lon="14.6084427"><ele>581.0</ele><time>2026-04-06T12:37:48Z</time></trkpt><trkpt lat="40.6768084" lon="14.6085189"><ele>581.0</ele><time>2026-04-06T12:37:49Z</time></trkpt><trkpt lat="40.6668566" lon="14.6119056"><ele>549.0</ele><time>2026-04-06T12:36:22Z</time></trkpt><trkpt lat="40.6669279" lon="14.6120236"><ele>517.0</ele><time>2026-04-06T12:36:23Z</time></trkpt><trkpt lat="40.6670132" lon="14.6121213"><ele>485.0</ele><time>2026-04-06T12:36:24Z</time></trkpt><trkpt lat="40.6671107" lon="14.6121814"><ele>453.0</ele><time>2026-04-06T12:36:25Z</time></trkpt><trkpt lat="40.6672279" lon="14.6122015"><ele>453.0</ele><time>2026-04-06T12:36:26Z</time></trkpt><trkpt lat="40.6673427" lon="14.6122056"><ele>453.0</ele><time>2026-04-06T12:36:27Z</time></trkpt><trkpt lat="40.6675234" lon="14.6121589"><ele>453.0</ele><time>2026-04-06T12:36:28Z</time></trkpt><trkpt lat="40.6676722" lon="14.6121428"><ele>453.0</ele><time>2026-04-06T12:36:28.999Z</time></trkpt><trkpt lat="40.6678529" lon="14.6121188"><ele>451.33333333333337</ele><time>2026-04-06T12:36:30Z</time></trkpt><trkpt lat="40.668029" lon="14.6120831"><ele>449.6666666666667</ele><time>2026-04-06T12:36:31Z</time></trkpt><trkpt lat="40.6682038" lon="14.6120459"><ele>448.0</ele><time>2026-04-06T12:36:32Z</time></trkpt><trkpt lat="40.6683695" lon="14.6120178"><ele>452.0</ele><time>2026-04-06T12:36:33Z</time></trkpt><trkpt lat="40.668516" lon="14.6119851"><ele>456.0</ele><time>2026-04-06T12:36:34Z</time></trkpt><trkpt lat="40.6686354" lon="14.6119411"><ele>460.0</ele><time>2026-04-06T12:36:35Z</time></trkpt><trkpt lat="40.6687286" lon="14.611847"><ele>464.0</ele><time>2026-04-06T12:36:35.999Z</time></trkpt><trkpt lat="40.668791" lon="14.6117062"><ele>464.0</ele><time>2026-04-06T12:36:36.999Z</time></trkpt><trkpt lat="40.6688424" lon="14.6115369"><ele>464.0</ele><time>2026-04-06T12:36:38Z</time></trkpt><trkpt lat="40.6689152" lon="14.6113484"><ele>464.0</ele><time>2026-04-06T12:36:39Z</time></trkpt><trkpt lat="40.668993" lon="14.6111859"><ele>464.0</ele><time>2026-04-06T12:36:40Z</time></trkpt><trkpt lat="40.6690645" lon="14.6110401"><ele>472.5</ele><time>2026-04-06T12:36:41Z</time></trkpt><trkpt lat="40.6691325" lon="14.610912"><ele>481.0</ele><time>2026-04-06T12:36:42Z</time></trkpt><trkpt lat="40.66925" lon="14.610877"><ele>489.5</ele><time>2026-04-06T12:36:43Z</time></trkpt><trkpt lat="40.6693677" lon="14.6108701"><ele>498.0</ele><time>2026-04-06T12:36:44Z</time></trkpt><trkpt lat="40.6695033" lon="14.6108827"><ele>498.0</ele><time>2026-04-06T12:36:45Z</time></trkpt><trkpt lat="40.6696577" lon="14.6108939"><ele>498.0</ele><time>2026-04-06T12:36:46Z</time></trkpt><trkpt lat="40.6697995" lon="14.6109117"><ele>498.0</ele><time>2026-04-06T12:36:47Z</time></trkpt><trkpt lat="40.6699391" lon="14.6108929"><ele>498.0</ele><time>2026-04-06T12:36:48Z</time></trkpt><trkpt lat="40.6700707" lon="14.61083"><ele>498.0</ele><time>2026-04-06T12:36:49Z</time></trkpt><trkpt lat="40.6701805" lon="14.6107306"><ele>498.0</ele><time>2026-04-06T12:36:50Z</time></trkpt><trkpt lat="40.6702786" lon="14.6106329"><ele>498.0</ele><time>2026-04-06T12:36:51Z</time></trkpt><trkpt lat="40.6703781" lon="14.6105784"><ele>498.0</ele><time>2026-04-06T12:36:52Z</time></trkpt><trkpt lat="40.6704896" lon="14.6105679"><ele>500.25</ele><time>2026-04-06T12:36:53Z</time></trkpt><trkpt lat="40.6706143" lon="14.6106233"><ele>502.5</ele><time>2026-04-06T12:36:54Z</time></trkpt><trkpt lat="40.6707452" lon="14.610738"><ele>504.75</ele><time>2026-04-06T12:36:55Z</time></trkpt><trkpt lat="40.6708742" lon="14.6108575"><ele>507.0</ele><time>2026-04-06T12:36:56Z</time></trkpt><trkpt lat="40.6709841" lon="14.610946"><ele>507.0</ele><time>2026-04-06T12:36:57Z</time></trkpt><trkpt lat="40.6711015" lon="14.6109822"><ele>507.0</ele><time>2026-04-06T12:36:58Z</time></trkpt><trkpt lat="40.6712185" lon="14.6109566"><ele>507.0</ele><time>2026-04-06T12:36:58.999Z</time></trkpt><trkpt lat="40.6713443" lon="14.6109142"><ele>507.0</ele><time>2026-04-06T12:37:00Z</time></trkpt><trkpt lat="40.6714777" lon="14.6109241"><ele>515.0</ele><time>2026-04-06T12:37:01Z</time></trkpt><trkpt lat="40.6716308" lon="14.6109774"><ele>523.0</ele><time>2026-04-06T12:37:02Z</time></trkpt><trkpt lat="40.6718022" lon="14.6110268"><ele>531.0</ele><time>2026-04-06T12:37:03Z</time></trkpt><trkpt lat="40.6719609" lon="14.61105"><ele>531.6666666666666</ele><time>2026-04-06T12:37:04Z</time></trkpt><trkpt lat="40.6721233" lon="14.6110534"><ele>532.3333333333333</ele><time>2026-04-06T12:37:04.999Z</time></trkpt><trkpt lat="40.6722791" lon="14.6110674"><ele>533.0</ele><time>2026-04-06T12:37:05.999Z</time></trkpt><trkpt lat="40.6724092" lon="14.6111152"><ele>533.0</ele><time>2026-04-06T12:37:06.999Z</time></trkpt><trkpt lat="40.6725257" lon="14.6111716"><ele>533.0</ele><time>2026-04-06T12:37:08Z</time></trkpt><trkpt lat="40.6726365" lon="14.6111842"><ele>533.0</ele><time>2026-04-06T12:37:08.999Z</time></trkpt><trkpt lat="40.6727386" lon="14.6111523"><ele>533.0</ele><time>2026-04-06T12:37:10Z</time></trkpt><trkpt lat="40.6728301" lon="14.6110654"><ele>518.0</ele><time>2026-04-06T12:37:11Z</time></trkpt><trkpt lat="40.672901" lon="14.6109245"><ele>503.0</ele><time>2026-04-06T12:37:12Z</time></trkpt><trkpt lat="40.6729399" lon="14.6107257"><ele>488.0</ele><time>2026-04-06T12:37:13Z</time></trkpt><trkpt lat="40.6729732" lon="14.6104955"><ele>498.75</ele><time>2026-04-06T12:37:14Z</time></trkpt><trkpt lat="40.6730017" lon="14.610295"><ele>509.5</ele><time>2026-04-06T12:37:15Z</time></trkpt><trkpt lat="40.6730524" lon="14.6101306"><ele>520.25</ele><time>2026-04-06T12:37:16Z</time></trkpt><trkpt lat="40.6731066" lon="14.6099472"><ele>531.0</ele><time>2026-04-06T12:37:17Z</time></trkpt><trkpt lat="40.6732161" lon="14.6098541"><ele>531.0</ele><time>2026-04-06T12:37:17.999Z</time></trkpt><trkpt lat="40.6733231" lon="14.6097352"><ele>531.0</ele><time>2026-04-06T12:37:19Z</time></trkpt><trkpt lat="40.6734304" lon="14.6096611"><ele>531.0</ele><time>2026-04-06T12:37:19.999Z</time></trkpt><trkpt lat="40.6735371" lon="14.6096349"><ele>531.0</ele><time>2026-04-06T12:37:21Z</time></trkpt><trkpt lat="40.6736464" lon="14.6096714"><ele>531.25</ele><time>2026-04-06T12:37:22Z</time></trkpt><trkpt lat="40.6737625" lon="14.6097013"><ele>531.5</ele><time>2026-04-06T12:37:23Z</time></trkpt><trkpt lat="40.67389" lon="14.6098087"><ele>531.75</ele><time>2026-04-06T12:37:23.999Z</time></trkpt><trkpt lat="40.67398" lon="14.6099499"><ele>532.0</ele><time>2026-04-06T12:37:25Z</time></trkpt><trkpt lat="40.6740888" lon="14.6100076"><ele>532.0</ele><time>2026-04-06T12:37:26Z</time></trkpt><trkpt lat="40.6741908" lon="14.610019"><ele>532.0</ele><time>2026-04-06T12:37:26.999Z</time></trkpt><trkpt lat="40.6742887" lon="14.6100182"><ele>532.0</ele><time>2026-04-06T12:37:27.999Z</time></trkpt><trkpt lat="40.6743801" lon="14.6099923"><ele>532.0</ele><time>2026-04-06T12:37:29Z</time></trkpt><trkpt lat="40.6744719" lon="14.6097727"><ele>527.0</ele><time>2026-04-06T12:37:30Z</time></trkpt><trkpt lat="40.6745665" lon="14.6096636"><ele>522.0</ele><time>2026-04-06T12:37:31Z</time></trkpt><trkpt lat="40.6747198" lon="14.609642"><ele>517.0</ele><time>2026-04-06T12:37:31.999Z</time></trkpt><trkpt lat="40.6748668" lon="14.6095884"><ele>512.0</ele><time>2026-04-06T12:37:33Z</time></trkpt><trkpt lat="40.6750049" lon="14.6095454"><ele>512.0</ele><time>2026-04-06T12:37:34Z</time></trkpt><trkpt lat="40.6751309" lon="14.6094676"><ele>512.0</ele><time>2026-04-06T12:37:35Z</time></trkpt><trkpt lat="40.6752439" lon="14.609367"><ele>512.0</ele><time>2026-04-06T12:37:36Z</time></trkpt><trkpt lat="40.6753532" lon="14.6092018"><ele>512.0</ele><time>2026-04-06T12:37:37Z</time></trkpt><trkpt lat="40.6754259" lon="14.6090322"><ele>512.0</ele><time>2026-04-06T12:37:38Z</time></trkpt><trkpt lat="40.6754484" lon="14.6088141"><ele>512.0</ele><time>2026-04-06T12:37:39Z</time></trkpt><trkpt lat="40.6755258" lon="14.6086281"><ele>512.0</ele><time>2026-04-06T12:37:40Z</time></trkpt><trkpt lat="40.6755981" lon="14.6084832"><ele>525.25</ele><time>2026-04-06T12:37:41Z</time></trkpt><trkpt lat="40.6756666" lon="14.6083278"><ele>538.5</ele><time>2026-04-06T12:37:42Z</time></trkpt><trkpt lat="40.6757928" lon="14.6082703"><ele>551.75</ele><time>2026-04-06T12:37:43Z</time></trkpt><trkpt lat="40.6759657" lon="14.6082554"><ele>565.0</ele><time>2026-04-06T12:37:43.999Z</time></trkpt><trkpt lat="40.6761822" lon="14.6083443"><ele>570.3333333333334</ele><time>2026-04-06T12:37:45Z</time></trkpt><trkpt lat="40.6763559" lon="14.6083663"><ele>575.6666666666666</ele><time>2026-04-06T12:37:46Z</time></trkpt><trkpt lat="40.6765169" lon="14.6083861"><ele>581.0</ele><time>2026-04-06T12:37:47Z</time></trkpt><trkpt lat="40.676659" lon="14.6084427"><ele>581.0</ele><time>2026-04-06T12:37:48Z</time></trkpt><trkpt lat="40.6768084" lon="14.6085189"><ele>581.0</ele><time>2026-04-06T12:37:49Z</time></trkpt><trkpt lat="40.6769848" lon="14.60864"><ele>581.0</ele><time>2026-04-06T12:37:50Z</time></trkpt><trkpt lat="40.6771456" lon="14.6087819"><ele>574.0</ele><time>2026-04-06T12:37:51Z</time></trkpt><trkpt lat="40.6772856" lon="14.6089148"><ele>567.0</ele><time>2026-04-06T12:37:52Z</time></trkpt><trkpt lat="40.6774269" lon="14.6090166"><ele>560.0</ele><time>2026-04-06T12:37:53Z</time></trkpt><trkpt lat="40.6775689" lon="14.6090535"><ele>560.0</ele><time>2026-04-06T12:37:54Z</time></trkpt><trkpt lat="40.6777027" lon="14.6090702"><ele>560.0</ele><time>2026-04-06T12:37:55Z</time></trkpt><trkpt lat="40.6778218" lon="14.6090627"><ele>560.0</ele><time>2026-04-06T12:37:56Z</time></trkpt><trkpt lat="40.6779295" lon="14.6090744"><ele>560.0</ele><time>2026-04-06T12:37:57Z</time></trkpt><trkpt lat="40.6780288" lon="14.6091334"><ele>569.0</ele><time>2026-04-06T12:37:57.999Z</time></trkpt><trkpt lat="40.6781081" lon="14.6092296"><ele>578.0</ele><time>2026-04-06T12:37:59Z</time></trkpt><trkpt lat="40.6781435" lon="14.6093608"><ele>587.0</ele><time>2026-04-06T12:38:00Z</time></trkpt><trkpt lat="40.6781442" lon="14.6095335"><ele>596.0</ele><time>2026-04-06T12:38:01Z</time></trkpt><trkpt lat="40.6781349" lon="14.6097349"><ele>596.0</ele><time>2026-04-06T12:38:02Z</time></trkpt><trkpt lat="40.6781273" lon="14.6099656"><ele>596.0</ele><time>2026-04-06T12:38:03Z</time></trkpt><trkpt lat="40.6781185" lon="14.6101809"><ele>596.0</ele><time>2026-04-06T12:38:04Z</time></trkpt><trkpt lat="40.6780762" lon="14.6104135"><ele>598.0</ele><time>2026-04-06T12:38:05Z</time></trkpt><trkpt lat="40.6780066" lon="14.6106586"><ele>600.0</ele><time>2026-04-06T12:38:06Z</time></trkpt><trkpt lat="40.6779171" lon="14.6108516"><ele>602.0</ele><time>2026-04-06T12:38:07Z</time></trkpt><trkpt lat="40.6778466" lon="14.6110368"><ele>602.25</ele><time>2026-04-06T12:38:08Z</time></trkpt><trkpt lat="40.6777904" lon="14.6112173"><ele>602.5</ele><time>2026-04-06T12:38:08.999Z</time></trkpt><trkpt lat="40.6777535" lon="14.6113921"><ele>602.75</ele><time>2026-04-06T12:38:10Z</time></trkpt><trkpt lat="40.6777543" lon="14.6115746"><ele>603.0</ele><time>2026-04-06T12:38:11Z</time></trkpt><trkpt lat="40.6777968" lon="14.6117301"><ele>603.0</ele><time>2026-04-06T12:38:12Z</time></trkpt><trkpt lat="40.6778501" lon="14.6118947"><ele>603.0</ele><time>2026-04-06T12:38:13Z</time></trkpt><trkpt lat="40.6779966" lon="14.6119778"><ele>603.0</ele><time>2026-04-06T12:38:14Z</time></trkpt><trkpt lat="40.6781326" lon="14.6120917"><ele>588.3333333333334</ele><time>2026-04-06T12:38:15Z</time></trkpt><trkpt lat="40.6783364" lon="14.6121212"><ele>573.6666666666667</ele><time>2026-04-06T12:38:16Z</time></trkpt><trkpt lat="40.6784764" lon="14.6121791"><ele>559.0</ele><time>2026-04-06T12:38:17Z</time></trkpt><trkpt lat="40.6786261" lon="14.6121675"><ele>557.6666666666667</ele><time>2026-04-06T12:38:18Z</time></trkpt><trkpt lat="40.6787579" lon="14.6121034"><ele>556.3333333333334</ele><time>2026-04-06T12:38:19Z</time></trkpt><trkpt lat="40.6788709" lon="14.6119837"><ele>555.0</ele><time>2026-04-06T12:38:20Z</time></trkpt><trkpt lat="40.6789821" lon="14.6117985"><ele>568.0</ele><time>2026-04-06T12:38:20.999Z</time></trkpt><trkpt lat="40.6790946" lon="14.611589"><ele>581.0</ele><time>2026-04-06T12:38:22Z</time></trkpt><trkpt lat="40.6792187" lon="14.6113955"><ele>594.0</ele><time>2026-04-06T12:38:23Z</time></trkpt><trkpt lat="40.6793637" lon="14.6112137"><ele>600.3333333333334</ele><time>2026-04-06T12:38:24Z</time></trkpt><trkpt lat="40.6795212" lon="14.6110583"><ele>606.6666666666667</ele><time>2026-04-06T12:38:25Z</time></trkpt><trkpt lat="40.679685" lon="14.6109363"><ele>613.0</ele><time>2026-04-06T12:38:26Z</time></trkpt><trkpt lat="40.679851" lon="14.610839"><ele>613.0</ele><time>2026-04-06T12:38:27Z</time></trkpt><trkpt lat="40.6800229" lon="14.6107819"><ele>613.0</ele><time>2026-04-06T12:38:28Z</time></trkpt><trkpt lat="40.6801976" lon="14.6107496"><ele>613.0</ele><time>2026-04-06T12:38:29Z</time></trkpt><trkpt lat="40.6803802" lon="14.6107446"><ele>616.3333333333334</ele><time>2026-04-06T12:38:30Z</time></trkpt><trkpt lat="40.6805628" lon="14.610765"><ele>619.6666666666666</ele><time>2026-04-06T12:38:31Z</time></trkpt><trkpt lat="40.6807291" lon="14.6108221"><ele>623.0</ele><time>2026-04-06T12:38:32Z</time></trkpt><trkpt lat="40.6808969" lon="14.6109305"><ele>623.0</ele><time>2026-04-06T12:38:33Z</time></trkpt><trkpt lat="40.6810702" lon="14.611085"><ele>623.0</ele><time>2026-04-06T12:38:34Z</time></trkpt><trkpt lat="40.681264" lon="14.6112342"><ele>623.0</ele><time>2026-04-06T12:38:35Z</time></trkpt><trkpt lat="40.6814359" lon="14.6113532"><ele>619.0</ele><time>2026-04-06T12:38:36Z</time></trkpt><trkpt lat="40.6815913" lon="14.6114565"><ele>615.0</ele><time>2026-04-06T12:38:37Z</time></trkpt><trkpt lat="40.6817366" lon="14.6115355"><ele>611.0</ele><time>2026-04-06T12:38:38Z</time></trkpt><trkpt lat="40.6818826" lon="14.6115673"><ele>611.0</ele><time>2026-04-06T12:38:39Z</time></trkpt><trkpt lat="40.6820333" lon="14.6115565"><ele>611.0</ele><time>2026-04-06T12:38:40Z</time></trkpt><trkpt lat="40.6821904" lon="14.6115015"><ele>611.0</ele><time>2026-04-06T12:38:41Z</time></trkpt><trkpt lat="40.6823629" lon="14.6114252"><ele>611.0</ele><time>2026-04-06T12:38:42Z</time></trkpt><trkpt lat="40.6825411" lon="14.6113417"><ele>611.0</ele><time>2026-04-06T12:38:43Z</time></trkpt><trkpt lat="40.6827191" lon="14.6112552"><ele>611.0</ele><time>2026-04-06T12:38:44Z</time></trkpt><trkpt lat="40.6828905" lon="14.6111703"><ele>615.3333333333333</ele><time>2026-04-06T12:38:44.999Z</time></trkpt><trkpt lat="40.6830454" lon="14.6110932"><ele>619.6666666666666</ele><time>2026-04-06T12:38:46Z</time></trkpt><trkpt lat="40.6831926" lon="14.6110045"><ele>624.0</ele><time>2026-04-06T12:38:47Z</time></trkpt><trkpt lat="40.683322" lon="14.6108846"><ele>624.0</ele><time>2026-04-06T12:38:48Z</time></trkpt><trkpt lat="40.6834307" lon="14.6107275"><ele>624.0</ele><time>2026-04-06T12:38:49Z</time></trkpt><trkpt lat="40.6835197" lon="14.6105304"><ele>624.0</ele><time>2026-04-06T12:38:50Z</time></trkpt><trkpt lat="40.6836019" lon="14.6103068"><ele>625.6666666666666</ele><time>2026-04-06T12:38:51Z</time></trkpt><trkpt lat="40.683686" lon="14.6100753"><ele>627.3333333333333</ele><time>2026-04-06T12:38:52Z</time></trkpt><trkpt lat="40.6837719" lon="14.6098575"><ele>629.0</ele><time>2026-04-06T12:38:53Z</time></trkpt><trkpt lat="40.6838606" lon="14.6096469"><ele>634.3333333333333</ele><time>2026-04-06T12:38:54Z</time></trkpt><trkpt lat="40.6839436" lon="14.6094486"><ele>639.6666666666666</ele><time>2026-04-06T12:38:55Z</time></trkpt><trkpt lat="40.6840167" lon="14.6092647"><ele>645.0</ele><time>2026-04-06T12:38:56Z</time></trkpt><trkpt lat="40.6840898" lon="14.6091057"><ele>645.0</ele><time>2026-04-06T12:38:57Z</time></trkpt><trkpt lat="40.6841736" lon="14.6089765"><ele>645.0</ele><time>2026-04-06T12:38:58Z</time></trkpt><trkpt lat="40.6842644" lon="14.6088865"><ele>645.0</ele><time>2026-04-06T12:38:59Z</time></trkpt><trkpt lat="40.6843516" lon="14.6088475"><ele>645.0</ele><time>2026-04-06T12:39:00Z</time></trkpt><trkpt lat="40.6844296" lon="14.6088614"><ele>645.0</ele><time>2026-04-06T12:39:01Z</time></trkpt><trkpt lat="40.6845196" lon="14.6088864"><ele>650.75</ele><time>2026-04-06T12:39:02Z</time></trkpt><trkpt lat="40.6845376" lon="14.6090847"><ele>656.5</ele><time>2026-04-06T12:39:03Z</time></trkpt><trkpt lat="40.6845535" lon="14.6092676"><ele>662.25</ele><time>2026-04-06T12:39:04Z</time></trkpt><trkpt lat="40.6845562" lon="14.6094738"><ele>668.0</ele><time>2026-04-06T12:39:05Z</time></trkpt><trkpt lat="40.6845603" lon="14.6097128"><ele>668.0</ele><time>2026-04-06T12:39:06Z</time></trkpt><trkpt lat="40.6845816" lon="14.6099769"><ele>668.0</ele><time>2026-04-06T12:39:07Z</time></trkpt><trkpt lat="40.6846288" lon="14.6102086"><ele>668.0</ele><time>2026-04-06T12:39:08Z</time></trkpt><trkpt lat="40.684711" lon="14.6104248"><ele>663.3333333333333</ele><time>2026-04-06T12:39:09Z</time></trkpt><trkpt lat="40.6848265" lon="14.6106191"><ele>658.6666666666666</ele><time>2026-04-06T12:39:10Z</time></trkpt><trkpt lat="40.6849521" lon="14.6107666"><ele>654.0</ele><time>2026-04-06T12:39:11Z</time></trkpt><trkpt lat="40.6850473" lon="14.6109244"><ele>654.0</ele><time>2026-04-06T12:39:12Z</time></trkpt><trkpt lat="40.6851026" lon="14.6111"><ele>654.0</ele><time>2026-04-06T12:39:13Z</time></trkpt><trkpt lat="40.685112" lon="14.611268"><ele>654.0</ele><time>2026-04-06T12:39:14Z</time></trkpt><trkpt lat="40.6850806" lon="14.611435"><ele>654.0</ele><time>2026-04-06T12:39:15Z</time></trkpt><trkpt lat="40.6849826" lon="14.6115635"><ele>654.0</ele><time>2026-04-06T12:39:16Z</time></trkpt><trkpt lat="40.6849063" lon="14.6117242"><ele>654.0</ele><time>2026-04-06T12:39:16.999Z</time></trkpt><trkpt lat="40.6848443" lon="14.6118954"><ele>654.0</ele><time>2026-04-06T12:39:18Z</time></trkpt><trkpt lat="40.6848783" lon="14.612087"><ele>654.0</ele><time>2026-04-06T12:39:19Z</time></trkpt><trkpt lat="40.6848728" lon="14.6122797"><ele>654.0</ele><time>2026-04-06T12:39:20Z</time></trkpt><trkpt lat="40.6849376" lon="14.612509"><ele>654.0</ele><time>2026-04-06T12:39:21Z</time></trkpt><trkpt lat="40.6850487" lon="14.6127346"><ele>654.0</ele><time>2026-04-06T12:39:22Z</time></trkpt><trkpt lat="40.6851581" lon="14.6129205"><ele>654.0</ele><time>2026-04-06T12:39:23Z</time></trkpt><trkpt lat="40.6852222" lon="14.6131146"><ele>654.0</ele><time>2026-04-06T12:39:24Z</time></trkpt><trkpt lat="40.6852496" lon="14.6132972"><ele>654.0</ele><time>2026-04-06T12:39:25Z</time></trkpt><trkpt lat="40.6852292" lon="14.6134861"><ele>654.0</ele><time>2026-04-06T12:39:26Z</time></trkpt><trkpt lat="40.6851643" lon="14.6136861"><ele>656.6666666666666</ele><time>2026-04-06T12:39:27Z</time></trkpt><trkpt lat="40.685126" lon="14.6139253"><ele>659.3333333333333</ele><time>2026-04-06T12:39:28Z</time></trkpt><trkpt lat="40.6851258" lon="14.6141871"><ele>662.0</ele><time>2026-04-06T12:39:29Z</time></trkpt><trkpt lat="40.6851213" lon="14.6144139"><ele>666.3333333333333</ele><time>2026-04-06T12:39:30Z</time></trkpt><trkpt lat="40.6850962" lon="14.6146256"><ele>670.6666666666666</ele><time>2026-04-06T12:39:31Z</time></trkpt><trkpt lat="40.6850445" lon="14.6148099"><ele>675.0</ele><time>2026-04-06T12:39:32Z</time></trkpt><trkpt lat="40.6849539" lon="14.6149601"><ele>675.0</ele><time>2026-04-06T12:39:33Z</time></trkpt><trkpt lat="40.6848237" lon="14.6150777"><ele>675.0</ele><time>2026-04-06T12:39:34Z</time></trkpt><trkpt lat="40.6846646" lon="14.6151584"><ele>675.0</ele><time>2026-04-06T12:39:34.999Z</time></trkpt><trkpt lat="40.6845166" lon="14.6152326"><ele>673.5</ele><time>2026-04-06T12:39:36Z</time></trkpt><trkpt lat="40.6844005" lon="14.6153153"><ele>672.0</ele><time>2026-04-06T12:39:37Z</time></trkpt><trkpt lat="40.6843074" lon="14.6154231"><ele>670.5</ele><time>2026-04-06T12:39:38Z</time></trkpt><trkpt lat="40.6842601" lon="14.6155649"><ele>669.0</ele><time>2026-04-06T12:39:38.999Z</time></trkpt><trkpt lat="40.6842581" lon="14.6157291"><ele>669.0</ele><time>2026-04-06T12:39:40Z</time></trkpt><trkpt lat="40.6843069" lon="14.6159115"><ele>669.0</ele><time>2026-04-06T12:39:41Z</time></trkpt><trkpt lat="40.6843956" lon="14.6161115"><ele>669.0</ele><time>2026-04-06T12:39:42Z</time></trkpt><trkpt lat="40.6845166" lon="14.6163055"><ele>678.0</ele><time>2026-04-06T12:39:43Z</time></trkpt><trkpt lat="40.6846311" lon="14.6164977"><ele>687.0</ele><time>2026-04-06T12:39:44Z</time></trkpt><trkpt lat="40.6847672" lon="14.6166885"><ele>696.0</ele><time>2026-04-06T12:39:45Z</time></trkpt><trkpt lat="40.6849378" lon="14.6169319"><ele>699.3333333333334</ele><time>2026-04-06T12:39:46Z</time></trkpt><trkpt lat="40.6850838" lon="14.6171355"><ele>702.6666666666667</ele><time>2026-04-06T12:39:47Z</time></trkpt><trkpt lat="40.685223" lon="14.6173382"><ele>706.0</ele><time>2026-04-06T12:39:48Z</time></trkpt><trkpt lat="40.6853458" lon="14.6175233"><ele>706.0</ele><time>2026-04-06T12:39:49Z</time></trkpt><trkpt lat="40.685461" lon="14.6176876"><ele>706.0</ele><time>2026-04-06T12:39:49.999Z</time></trkpt><trkpt lat="40.6855619" lon="14.6178315"><ele>706.0</ele><time>2026-04-06T12:39:51Z</time></trkpt><trkpt lat="40.6856481" lon="14.6179621"><ele>703.5999999999999</ele><time>2026-04-06T12:39:52Z</time></trkpt><trkpt lat="40.6857249" lon="14.6180724"><ele>701.2</ele><time>2026-04-06T12:39:53Z</time></trkpt><trkpt lat="40.6858042" lon="14.6181546"><ele>698.8</ele><time>2026-04-06T12:39:54Z</time></trkpt><trkpt lat="40.6859067" lon="14.6182004"><ele>696.4000000000001</ele><time>2026-04-06T12:39:55Z</time></trkpt><trkpt lat="40.6860262" lon="14.6182029"><ele>694.0</ele><time>2026-04-06T12:39:56Z</time></trkpt><trkpt lat="40.68617" lon="14.6181605"><ele>691.5</ele><time>2026-04-06T12:39:57Z</time></trkpt><trkpt lat="40.6863154" lon="14.6181266"><ele>689.0</ele><time>2026-04-06T12:39:58Z</time></trkpt><trkpt lat="40.6864767" lon="14.6181176"><ele>686.5</ele><time>2026-04-06T12:39:59Z</time></trkpt><trkpt lat="40.6866119" lon="14.6180942"><ele>684.0</ele><time>2026-04-06T12:40:00Z</time></trkpt><trkpt lat="40.6867296" lon="14.6180211"><ele>684.0</ele><time>2026-04-06T12:40:01Z</time></trkpt><trkpt lat="40.6868242" lon="14.6178977"><ele>684.0</ele><time>2026-04-06T12:40:02Z</time></trkpt><trkpt lat="40.6869032" lon="14.6177331"><ele>684.0</ele><time>2026-04-06T12:40:03Z</time></trkpt><trkpt lat="40.6869778" lon="14.6175787"><ele>684.0</ele><time>2026-04-06T12:40:04Z</time></trkpt><trkpt lat="40.6870615" lon="14.617442"><ele>683.6666666666666</ele><time>2026-04-06T12:40:05Z</time></trkpt><trkpt lat="40.6872043" lon="14.6173921"><ele>683.3333333333333</ele><time>2026-04-06T12:40:06Z</time></trkpt><trkpt lat="40.6873465" lon="14.6173136"><ele>683.0</ele><time>2026-04-06T12:40:07Z</time></trkpt><trkpt lat="40.6875085" lon="14.6172852"><ele>683.0</ele><time>2026-04-06T12:40:08Z</time></trkpt><trkpt lat="40.6876689" lon="14.6172629"><ele>683.0</ele><time>2026-04-06T12:40:09Z</time></trkpt><trkpt lat="40.6878301" lon="14.6172904"><ele>683.0</ele><time>2026-04-06T12:40:10Z</time></trkpt><trkpt lat="40.6879965" lon="14.6173557"><ele>684.0</ele><time>2026-04-06T12:40:11Z</time></trkpt><trkpt lat="40.6881816" lon="14.6174207"><ele>685.0</ele><time>2026-04-06T12:40:12Z</time></trkpt><trkpt lat="40.688361" lon="14.6174515"><ele>686.0</ele><time>2026-04-06T12:40:13Z</time></trkpt><trkpt lat="40.6885233" lon="14.6174742"><ele>680.5</ele><time>2026-04-06T12:40:14Z</time></trkpt><trkpt lat="40.6886711" lon="14.6174825"><ele>675.0</ele><time>2026-04-06T12:40:15Z</time></trkpt><trkpt lat="40.6887958" lon="14.6174648"><ele>669.5</ele><time>2026-04-06T12:40:16Z</time></trkpt><trkpt lat="40.6889109" lon="14.6173959"><ele>664.0</ele><time>2026-04-06T12:40:16.999Z</time></trkpt><trkpt lat="40.6890086" lon="14.6172726"><ele>664.0</ele><time>2026-04-06T12:40:18Z</time></trkpt><trkpt lat="40.68908" lon="14.6171092"><ele>664.0</ele><time>2026-04-06T12:40:19Z</time></trkpt><trkpt lat="40.6891407" lon="14.616943"><ele>664.0</ele><time>2026-04-06T12:40:20Z</time></trkpt><trkpt lat="40.6892256" lon="14.6168097"><ele>664.0</ele><time>2026-04-06T12:40:21Z</time></trkpt><trkpt lat="40.6893316" lon="14.6167221"><ele>665.0</ele><time>2026-04-06T12:40:22Z</time></trkpt><trkpt lat="40.6894827" lon="14.6166794"><ele>666.0</ele><time>2026-04-06T12:40:23Z</time></trkpt><trkpt lat="40.6896594" lon="14.6166247"><ele>667.0</ele><time>2026-04-06T12:40:24Z</time></trkpt><trkpt lat="40.6898438" lon="14.6165846"><ele>667.0</ele><time>2026-04-06T12:40:25Z</time></trkpt><trkpt lat="40.6900072" lon="14.6165615"><ele>667.0</ele><time>2026-04-06T12:40:26Z</time></trkpt><trkpt lat="40.6901352" lon="14.6165295"><ele>667.0</ele><time>2026-04-06T12:40:27Z</time></trkpt><trkpt lat="40.6902276" lon="14.6164773"><ele>667.0</ele><time>2026-04-06T12:40:28Z</time></trkpt><trkpt lat="40.6902996" lon="14.6163864"><ele>659.5</ele><time>2026-04-06T12:40:29Z</time></trkpt><trkpt lat="40.6903362" lon="14.6162495"><ele>652.0</ele><time>2026-04-06T12:40:30Z</time></trkpt><trkpt lat="40.6903412" lon="14.6160855"><ele>644.5</ele><time>2026-04-06T12:40:31Z</time></trkpt><trkpt lat="40.6903395" lon="14.6158927"><ele>637.0</ele><time>2026-04-06T12:40:32Z</time></trkpt><trkpt lat="40.6903316" lon="14.6156942"><ele>634.0</ele><time>2026-04-06T12:40:33Z</time></trkpt><trkpt lat="40.6902939" lon="14.6154826"><ele>631.0</ele><time>2026-04-06T12:40:34Z</time></trkpt><trkpt lat="40.6902628" lon="14.6152826"><ele>628.0</ele><time>2026-04-06T12:40:35Z</time></trkpt><trkpt lat="40.6901953" lon="14.6151245"><ele>635.0</ele><time>2026-04-06T12:40:35.999Z</time></trkpt><trkpt lat="40.6901735" lon="14.6149422"><ele>642.0</ele><time>2026-04-06T12:40:37Z</time></trkpt><trkpt lat="40.6901805" lon="14.6147691"><ele>649.0</ele><time>2026-04-06T12:40:37.999Z</time></trkpt><trkpt lat="40.6902194" lon="14.6146119"><ele>656.0</ele><time>2026-04-06T12:40:38.999Z</time></trkpt><trkpt lat="40.6902783" lon="14.6144812"><ele>656.0</ele><time>2026-04-06T12:40:40Z</time></trkpt><trkpt lat="40.690378" lon="14.6144015"><ele>656.0</ele><time>2026-04-06T12:40:41Z</time></trkpt><trkpt lat="40.6905134" lon="14.6143215"><ele>656.0</ele><time>2026-04-06T12:40:42Z</time></trkpt><trkpt lat="40.6906543" lon="14.6142338"><ele>656.0</ele><time>2026-04-06T12:40:43Z</time></trkpt><trkpt lat="40.6907812" lon="14.6141562"><ele>656.0</ele><time>2026-04-06T12:40:44Z</time></trkpt><trkpt lat="40.690887" lon="14.6140751"><ele>656.0</ele><time>2026-04-06T12:40:45Z</time></trkpt><trkpt lat="40.6909668" lon="14.6139642"><ele>656.0</ele><time>2026-04-06T12:40:46Z</time></trkpt><trkpt lat="40.6910157" lon="14.6138241"><ele>656.0</ele><time>2026-04-06T12:40:46.999Z</time></trkpt><trkpt lat="40.6910257" lon="14.6136636"><ele>661.75</ele><time>2026-04-06T12:40:48Z</time></trkpt><trkpt lat="40.691024" lon="14.6134966"><ele>667.5</ele><time>2026-04-06T12:40:49Z</time></trkpt><trkpt lat="40.6910414" lon="14.6133221"><ele>673.25</ele><time>2026-04-06T12:40:50Z</time></trkpt><trkpt lat="40.6910955" lon="14.6131516"><ele>679.0</ele><time>2026-04-06T12:40:51Z</time></trkpt><trkpt lat="40.6911764" lon="14.6130036"><ele>666.3333333333334</ele><time>2026-04-06T12:40:52Z</time></trkpt><trkpt lat="40.6912836" lon="14.6128677"><ele>653.6666666666666</ele><time>2026-04-06T12:40:53Z</time></trkpt><trkpt lat="40.6913865" lon="14.612726"><ele>641.0</ele><time>2026-04-06T12:40:54Z</time></trkpt><trkpt lat="40.6914881" lon="14.6125686"><ele>641.0</ele><time>2026-04-06T12:40:55Z</time></trkpt><trkpt lat="40.691528" lon="14.6123649"><ele>641.0</ele><time>2026-04-06T12:40:56Z</time></trkpt><trkpt lat="40.6915504" lon="14.6121329"><ele>641.0</ele><time>2026-04-06T12:40:57Z</time></trkpt><trkpt lat="40.6915915" lon="14.6118905"><ele>642.3333333333333</ele><time>2026-04-06T12:40:58Z</time></trkpt><trkpt lat="40.6916219" lon="14.6116323"><ele>643.6666666666666</ele><time>2026-04-06T12:40:59Z</time></trkpt><trkpt lat="40.6916357" lon="14.6113591"><ele>645.0</ele><time>2026-04-06T12:41:00Z</time></trkpt><trkpt lat="40.6916377" lon="14.6111022"><ele>645.3333333333334</ele><time>2026-04-06T12:41:01Z</time></trkpt><trkpt lat="40.6916329" lon="14.6108311"><ele>645.6666666666667</ele><time>2026-04-06T12:41:02Z</time></trkpt><trkpt lat="40.691621" lon="14.6106229"><ele>646.0</ele><time>2026-04-06T12:41:03Z</time></trkpt><trkpt lat="40.6915908" lon="14.6104004"><ele>643.3333333333334</ele><time>2026-04-06T12:41:04Z</time></trkpt><trkpt lat="40.6915483" lon="14.6102029"><ele>640.6666666666666</ele><time>2026-04-06T12:41:05Z</time></trkpt><trkpt lat="40.6914788" lon="14.6100226"><ele>638.0</ele><time>2026-04-06T12:41:06Z</time></trkpt><trkpt lat="40.691405" lon="14.6098612"><ele>638.0</ele><time>2026-04-06T12:41:07Z</time></trkpt><trkpt lat="40.6913544" lon="14.6097128"><ele>638.0</ele><time>2026-04-06T12:41:08Z</time></trkpt><trkpt lat="40.6913388" lon="14.6095484"><ele>638.0</ele><time>2026-04-06T12:41:09Z</time></trkpt><trkpt lat="40.691327" lon="14.6094007"><ele>638.0</ele><time>2026-04-06T12:41:10Z</time></trkpt><trkpt lat="40.6913367" lon="14.6092537"><ele>638.3333333333333</ele><time>2026-04-06T12:41:10.999Z</time></trkpt><trkpt lat="40.6915242" lon="14.6090505"><ele>638.6666666666666</ele><time>2026-04-06T12:41:12Z</time></trkpt><trkpt lat="40.6916054" lon="14.6088843"><ele>639.0</ele><time>2026-04-06T12:41:13Z</time></trkpt><trkpt lat="40.6917008" lon="14.6087621"><ele>641.0</ele><time>2026-04-06T12:41:14Z</time></trkpt><trkpt lat="40.6917665" lon="14.6086073"><ele>643.0</ele><time>2026-04-06T12:41:15Z</time></trkpt><trkpt lat="40.6917892" lon="14.6084466"><ele>645.0</ele><time>2026-04-06T12:41:16Z</time></trkpt><trkpt lat="40.6918058" lon="14.6082684"><ele>647.0</ele><time>2026-04-06T12:41:17Z</time></trkpt><trkpt lat="40.6918117" lon="14.6080914"><ele>647.0</ele><time>2026-04-06T12:41:18Z</time></trkpt><trkpt lat="40.691776" lon="14.6078847"><ele>647.0</ele><time>2026-04-06T12:41:19Z</time></trkpt><trkpt lat="40.6917306" lon="14.6076643"><ele>647.0</ele><time>2026-04-06T12:41:20Z</time></trkpt><trkpt lat="40.6916631" lon="14.6074315"><ele>645.0</ele><time>2026-04-06T12:41:21Z</time></trkpt><trkpt lat="40.6916138" lon="14.6071761"><ele>643.0</ele><time>2026-04-06T12:41:22Z</time></trkpt><trkpt lat="40.691575" lon="14.6069281"><ele>641.0</ele><time>2026-04-06T12:41:23Z</time></trkpt><trkpt lat="40.6915251" lon="14.606693"><ele>637.6666666666666</ele><time>2026-04-06T12:41:24Z</time></trkpt><trkpt lat="40.6914833" lon="14.6064653"><ele>634.3333333333334</ele><time>2026-04-06T12:41:25Z</time></trkpt><trkpt lat="40.6914488" lon="14.6062587"><ele>631.0</ele><time>2026-04-06T12:41:26Z</time></trkpt><trkpt lat="40.6914257" lon="14.6060703"><ele>631.0</ele><time>2026-04-06T12:41:27Z</time></trkpt><trkpt lat="40.6914142" lon="14.6059015"><ele>631.0</ele><time>2026-04-06T12:41:28Z</time></trkpt><trkpt lat="40.6914161" lon="14.6057551"><ele>631.0</ele><time>2026-04-06T12:41:29Z</time></trkpt><trkpt lat="40.6914445" lon="14.6056315"><ele>631.0</ele><time>2026-04-06T12:41:30Z</time></trkpt><trkpt lat="40.691498" lon="14.6055353"><ele>631.0</ele><time>2026-04-06T12:41:31Z</time></trkpt><trkpt lat="40.6915597" lon="14.6054521"><ele>631.0</ele><time>2026-04-06T12:41:32Z</time></trkpt><trkpt lat="40.6916828" lon="14.6054449"><ele>631.0</ele><time>2026-04-06T12:41:33Z</time></trkpt><trkpt lat="40.6917841" lon="14.6054635"><ele>631.0</ele><time>2026-04-06T12:41:34Z</time></trkpt><trkpt lat="40.6918641" lon="14.6055356"><ele>631.0</ele><time>2026-04-06T12:41:35Z</time></trkpt><trkpt lat="40.6919146" lon="14.6056587"><ele>631.0</ele><time>2026-04-06T12:41:36Z</time></trkpt><trkpt lat="40.6919692" lon="14.6058196"><ele>633.75</ele><time>2026-04-06T12:41:37Z</time></trkpt><trkpt lat="40.692043" lon="14.6059906"><ele>636.5</ele><time>2026-04-06T12:41:38Z</time></trkpt><trkpt lat="40.6921394" lon="14.6061352"><ele>639.25</ele><time>2026-04-06T12:41:38.999Z</time></trkpt><trkpt lat="40.6922658" lon="14.6062471"><ele>642.0</ele><time>2026-04-06T12:41:40Z</time></trkpt><trkpt lat="40.6924162" lon="14.6063383"><ele>638.0</ele><time>2026-04-06T12:41:41Z</time></trkpt><trkpt lat="40.6925906" lon="14.6064446"><ele>634.0</ele><time>2026-04-06T12:41:42Z</time></trkpt><trkpt lat="40.6927759" lon="14.6065799"><ele>630.0</ele><time>2026-04-06T12:41:43Z</time></trkpt><trkpt lat="40.692964" lon="14.6067261"><ele>630.0</ele><time>2026-04-06T12:41:44Z</time></trkpt><trkpt lat="40.6931398" lon="14.6068761"><ele>630.0</ele><time>2026-04-06T12:41:45Z</time></trkpt><trkpt lat="40.6932944" lon="14.6070367"><ele>630.0</ele><time>2026-04-06T12:41:46Z</time></trkpt><trkpt lat="40.6934385" lon="14.6072113"><ele>626.3333333333334</ele><time>2026-04-06T12:41:47Z</time></trkpt><trkpt lat="40.6935824" lon="14.6073788"><ele>622.6666666666667</ele><time>2026-04-06T12:41:47.999Z</time></trkpt><trkpt lat="40.6937412" lon="14.607525"><ele>619.0</ele><time>2026-04-06T12:41:49Z</time></trkpt><trkpt lat="40.6939184" lon="14.6076484"><ele>619.0</ele><time>2026-04-06T12:41:50Z</time></trkpt><trkpt lat="40.6940974" lon="14.6077468"><ele>619.0</ele><time>2026-04-06T12:41:51Z</time></trkpt><trkpt lat="40.6942628" lon="14.6078302"><ele>619.0</ele><time>2026-04-06T12:41:52Z</time></trkpt><trkpt lat="40.6944237" lon="14.6078847"><ele>615.5</ele><time>2026-04-06T12:41:52.999Z</time></trkpt><trkpt lat="40.6945667" lon="14.607898"><ele>612.0</ele><time>2026-04-06T12:41:54Z</time></trkpt><trkpt lat="40.6947061" lon="14.6078607"><ele>608.5</ele><time>2026-04-06T12:41:55Z</time></trkpt><trkpt lat="40.6948445" lon="14.6077609"><ele>605.0</ele><time>2026-04-06T12:41:56Z</time></trkpt><trkpt lat="40.6949809" lon="14.6076221"><ele>605.0</ele><time>2026-04-06T12:41:57Z</time></trkpt><trkpt lat="40.6951298" lon="14.6074636"><ele>605.0</ele><time>2026-04-06T12:41:58Z</time></trkpt><trkpt lat="40.6952785" lon="14.6073122"><ele>605.0</ele><time>2026-04-06T12:41:58.999Z</time></trkpt><trkpt lat="40.6954183" lon="14.6071603"><ele>603.6666666666666</ele><time>2026-04-06T12:42:00Z</time></trkpt><trkpt lat="40.6955523" lon="14.6070177"><ele>602.3333333333334</ele><time>2026-04-06T12:42:00.999Z</time></trkpt><trkpt lat="40.6956912" lon="14.6069028"><ele>601.0</ele><time>2026-04-06T12:42:02Z</time></trkpt><trkpt lat="40.6958402" lon="14.6068171"><ele>601.0</ele><time>2026-04-06T12:42:03Z</time></trkpt><trkpt lat="40.6959938" lon="14.6067717"><ele>601.0</ele><time>2026-04-06T12:42:04Z</time></trkpt><trkpt lat="40.6961617" lon="14.60674"><ele>601.0</ele><time>2026-04-06T12:42:05Z</time></trkpt><trkpt lat="40.6963694" lon="14.6067359"><ele>596.3333333333334</ele><time>2026-04-06T12:42:06Z</time></trkpt><trkpt lat="40.6965832" lon="14.606719"><ele>591.6666666666666</ele><time>2026-04-06T12:42:07Z</time></trkpt><trkpt lat="40.6967979" lon="14.6067019"><ele>587.0</ele><time>2026-04-06T12:42:08Z</time></trkpt><trkpt lat="40.6970031" lon="14.6066893"><ele>586.3333333333333</ele><time>2026-04-06T12:42:09Z</time></trkpt><trkpt lat="40.6972016" lon="14.6066728"><ele>585.6666666666666</ele><time>2026-04-06T12:42:10Z</time></trkpt><trkpt lat="40.6973805" lon="14.6066777"><ele>585.0</ele><time>2026-04-06T12:42:11Z</time></trkpt><trkpt lat="40.6975615" lon="14.6067026"><ele>585.0</ele><time>2026-04-06T12:42:12Z</time></trkpt><trkpt lat="40.6977464" lon="14.6067687"><ele>585.0</ele><time>2026-04-06T12:42:13Z</time></trkpt><trkpt lat="40.6979251" lon="14.6068652"><ele>585.0</ele><time>2026-04-06T12:42:13.999Z</time></trkpt><trkpt lat="40.6980936" lon="14.6069754"><ele>581.6666666666666</ele><time>2026-04-06T12:42:15Z</time></trkpt><trkpt lat="40.6982545" lon="14.6070824"><ele>578.3333333333333</ele><time>2026-04-06T12:42:16Z</time></trkpt><trkpt lat="40.6984082" lon="14.6071898"><ele>575.0</ele><time>2026-04-06T12:42:17Z</time></trkpt><trkpt lat="40.6985546" lon="14.6072949"><ele>579.75</ele><time>2026-04-06T12:42:18Z</time></trkpt><trkpt lat="40.6986782" lon="14.6074001"><ele>584.5</ele><time>2026-04-06T12:42:19Z</time></trkpt><trkpt lat="40.6987796" lon="14.6075086"><ele>589.25</ele><time>2026-04-06T12:42:20Z</time></trkpt><trkpt lat="40.6988526" lon="14.6076328"><ele>594.0</ele><time>2026-04-06T12:42:21Z</time></trkpt><trkpt lat="40.6988968" lon="14.6077737"><ele>592.75</ele><time>2026-04-06T12:42:22Z</time></trkpt><trkpt lat="40.6988991" lon="14.6079359"><ele>591.5</ele><time>2026-04-06T12:42:23Z</time></trkpt><trkpt lat="40.6988704" lon="14.6081178"><ele>590.25</ele><time>2026-04-06T12:42:23.999Z</time></trkpt><trkpt lat="40.6988234" lon="14.6083314"><ele>589.0</ele><time>2026-04-06T12:42:25Z</time></trkpt><trkpt lat="40.6987768" lon="14.6085795"><ele>589.3333333333334</ele><time>2026-04-06T12:42:26Z</time></trkpt><trkpt lat="40.6987226" lon="14.6088388"><ele>589.6666666666666</ele><time>2026-04-06T12:42:27Z</time></trkpt><trkpt lat="40.6986733" lon="14.6090915"><ele>590.0</ele><time>2026-04-06T12:42:27.999Z</time></trkpt><trkpt lat="40.6986269" lon="14.6093308"><ele>577.6666666666666</ele><time>2026-04-06T12:42:29Z</time></trkpt><trkpt lat="40.6985814" lon="14.609562"><ele>565.3333333333334</ele><time>2026-04-06T12:42:30Z</time></trkpt><trkpt lat="40.6985396" lon="14.6097862"><ele>553.0</ele><time>2026-04-06T12:42:31Z</time></trkpt><trkpt lat="40.6984997" lon="14.6099887"><ele>553.0</ele><time>2026-04-06T12:42:31.999Z</time></trkpt><trkpt lat="40.6984621" lon="14.6101747"><ele>553.0</ele><time>2026-04-06T12:42:33Z</time></trkpt><trkpt lat="40.6984316" lon="14.6103493"><ele>553.0</ele><time>2026-04-06T12:42:34Z</time></trkpt><trkpt lat="40.6984192" lon="14.6105098"><ele>553.0</ele><time>2026-04-06T12:42:35Z</time></trkpt><trkpt lat="40.6984308" lon="14.6106772"><ele>552.25</ele><time>2026-04-06T12:42:36Z</time></trkpt><trkpt lat="40.6984731" lon="14.610848"><ele>551.5</ele><time>2026-04-06T12:42:37Z</time></trkpt><trkpt lat="40.6985477" lon="14.6110154"><ele>550.75</ele><time>2026-04-06T12:42:38Z</time></trkpt><trkpt lat="40.6986499" lon="14.6111788"><ele>550.0</ele><time>2026-04-06T12:42:39Z</time></trkpt><trkpt lat="40.6987509" lon="14.6113281"><ele>548.3333333333334</ele><time>2026-04-06T12:42:40Z</time></trkpt><trkpt lat="40.6988527" lon="14.6114805"><ele>546.6666666666666</ele><time>2026-04-06T12:42:41Z</time></trkpt><trkpt lat="40.6989775" lon="14.6115905"><ele>545.0</ele><time>2026-04-06T12:42:42Z</time></trkpt><trkpt lat="40.6991173" lon="14.611691"><ele>545.0</ele><time>2026-04-06T12:42:43Z</time></trkpt><trkpt lat="40.6992714" lon="14.6117702"><ele>545.0</ele><time>2026-04-06T12:42:44Z</time></trkpt><trkpt lat="40.699428" lon="14.611829"><ele>545.0</ele><time>2026-04-06T12:42:45Z</time></trkpt><trkpt lat="40.6995821" lon="14.6118644"><ele>546.3333333333333</ele><time>2026-04-06T12:42:46Z</time></trkpt><trkpt lat="40.6997305" lon="14.6118774"><ele>547.6666666666666</ele><time>2026-04-06T12:42:46.999Z</time></trkpt><trkpt lat="40.6998895" lon="14.6118577"><ele>549.0</ele><time>2026-04-06T12:42:48Z</time></trkpt><trkpt lat="40.700057" lon="14.6118215"><ele>549.0</ele><time>2026-04-06T12:42:49Z</time></trkpt><trkpt lat="40.7002382" lon="14.6117705"><ele>549.0</ele><time>2026-04-06T12:42:50Z</time></trkpt><trkpt lat="40.7004137" lon="14.6117272"><ele>549.0</ele><time>2026-04-06T12:42:51Z</time></trkpt><trkpt lat="40.7005849" lon="14.6117009"><ele>546.3333333333334</ele><time>2026-04-06T12:42:52Z</time></trkpt><trkpt lat="40.7007528" lon="14.6116902"><ele>543.6666666666667</ele><time>2026-04-06T12:42:53Z</time></trkpt><trkpt lat="40.7009117" lon="14.6116922"><ele>541.0</ele><time>2026-04-06T12:42:54Z</time></trkpt><trkpt lat="40.7010728" lon="14.6117371"><ele>541.5</ele><time>2026-04-06T12:42:55Z</time></trkpt><trkpt lat="40.7012218" lon="14.6118085"><ele>542.0</ele><time>2026-04-06T12:42:56Z</time></trkpt><trkpt lat="40.7013478" lon="14.611878"><ele>542.5</ele><time>2026-04-06T12:42:57Z</time></trkpt><trkpt lat="40.7014597" lon="14.6119447"><ele>543.0</ele><time>2026-04-06T12:42:58Z</time></trkpt><trkpt lat="40.7015504" lon="14.6120064"><ele>540.4285714285714</ele><time>2026-04-06T12:42:59Z</time></trkpt><trkpt lat="40.7016184" lon="14.6120666"><ele>537.8571428571429</ele><time>2026-04-06T12:43:00Z</time></trkpt><trkpt lat="40.7016726" lon="14.6121298"><ele>535.2857142857142</ele><time>2026-04-06T12:43:01Z</time></trkpt><trkpt lat="40.701725" lon="14.6121908"><ele>532.7142857142858</ele><time>2026-04-06T12:43:02Z</time></trkpt><trkpt lat="40.7017848" lon="14.6122358"><ele>530.1428571428571</ele><time>2026-04-06T12:43:03Z</time></trkpt><trkpt lat="40.7018552" lon="14.6122418"><ele>527.5714285714286</ele><time>2026-04-06T12:43:03.999Z</time></trkpt><trkpt lat="40.7019345" lon="14.6122207"><ele>525.0</ele><time>2026-04-06T12:43:05Z</time></trkpt><trkpt lat="40.702013" lon="14.6121685"><ele>525.0</ele><time>2026-04-06T12:43:05.999Z</time></trkpt><trkpt lat="40.7021014" lon="14.6121249"><ele>525.0</ele><time>2026-04-06T12:43:07Z</time></trkpt><trkpt lat="40.7022076" lon="14.6121209"><ele>525.0</ele><time>2026-04-06T12:43:08Z</time></trkpt><trkpt lat="40.7023244" lon="14.6121566"><ele>525.0</ele><time>2026-04-06T12:43:09Z</time></trkpt><trkpt lat="40.7024426" lon="14.6121986"><ele>525.0</ele><time>2026-04-06T12:43:10Z</time></trkpt><trkpt lat="40.7025492" lon="14.612242"><ele>525.0</ele><time>2026-04-06T12:43:11Z</time></trkpt><trkpt lat="40.7026507" lon="14.6122812"><ele>525.0</ele><time>2026-04-06T12:43:11.999Z</time></trkpt><trkpt lat="40.7027566" lon="14.6123274"><ele>525.0</ele><time>2026-04-06T12:43:13Z</time></trkpt><trkpt lat="40.7028743" lon="14.6123823"><ele>525.0</ele><time>2026-04-06T12:43:13.999Z</time></trkpt><trkpt lat="40.7030017" lon="14.6124637"><ele>531.6666666666666</ele><time>2026-04-06T12:43:15Z</time></trkpt><trkpt lat="40.7031247" lon="14.6125529"><ele>538.3333333333333</ele><time>2026-04-06T12:43:15.999Z</time></trkpt><trkpt lat="40.7032544" lon="14.612669"><ele>545.0</ele><time>2026-04-06T12:43:17Z</time></trkpt><trkpt lat="40.7033751" lon="14.6127935"><ele>548.0</ele><time>2026-04-06T12:43:18Z</time></trkpt><trkpt lat="40.7034806" lon="14.6129338"><ele>551.0</ele><time>2026-04-06T12:43:19Z</time></trkpt><trkpt lat="40.7035806" lon="14.6130849"><ele>554.0</ele><time>2026-04-06T12:43:20Z</time></trkpt><trkpt lat="40.7036817" lon="14.6132388"><ele>554.0</ele><time>2026-04-06T12:43:21Z</time></trkpt><trkpt lat="40.7037858" lon="14.6133989"><ele>554.0</ele><time>2026-04-06T12:43:22Z</time></trkpt><trkpt lat="40.7038952" lon="14.6135589"><ele>554.0</ele><time>2026-04-06T12:43:23Z</time></trkpt><trkpt lat="40.7040223" lon="14.6137001"><ele>552.0</ele><time>2026-04-06T12:43:24Z</time></trkpt><trkpt lat="40.7041629" lon="14.6138117"><ele>550.0</ele><time>2026-04-06T12:43:25Z</time></trkpt><trkpt lat="40.7043099" lon="14.6138888"><ele>548.0</ele><time>2026-04-06T12:43:26Z</time></trkpt><trkpt lat="40.7044648" lon="14.613942"><ele>547.3333333333333</ele><time>2026-04-06T12:43:27Z</time></trkpt><trkpt lat="40.7046261" lon="14.6139604"><ele>546.6666666666666</ele><time>2026-04-06T12:43:28Z</time></trkpt><trkpt lat="40.7047968" lon="14.613953"><ele>546.0</ele><time>2026-04-06T12:43:29Z</time></trkpt><trkpt lat="40.704991" lon="14.6139225"><ele>546.0</ele><time>2026-04-06T12:43:30Z</time></trkpt><trkpt lat="40.7051792" lon="14.6138791"><ele>546.0</ele><time>2026-04-06T12:43:31Z</time></trkpt><trkpt lat="40.7053676" lon="14.6138436"><ele>546.0</ele><time>2026-04-06T12:43:32Z</time></trkpt><trkpt lat="40.7055585" lon="14.6138432"><ele>546.0</ele><time>2026-04-06T12:43:33Z</time></trkpt><trkpt lat="40.7057445" lon="14.6138732"><ele>546.0</ele><time>2026-04-06T12:43:34Z</time></trkpt><trkpt lat="40.7059134" lon="14.6139334"><ele>546.0</ele><time>2026-04-06T12:43:34.999Z</time></trkpt><trkpt lat="40.7060748" lon="14.6139708"><ele>544.3333333333334</ele><time>2026-04-06T12:43:36Z</time></trkpt><trkpt lat="40.7062421" lon="14.6139838"><ele>542.6666666666667</ele><time>2026-04-06T12:43:37Z</time></trkpt><trkpt lat="40.7064076" lon="14.6139884"><ele>541.0</ele><time>2026-04-06T12:43:38Z</time></trkpt><trkpt lat="40.7065629" lon="14.6139596"><ele>541.0</ele><time>2026-04-06T12:43:39Z</time></trkpt><trkpt lat="40.7067047" lon="14.613899"><ele>541.0</ele><time>2026-04-06T12:43:40Z</time></trkpt><trkpt lat="40.7068294" lon="14.6138248"><ele>541.0</ele><time>2026-04-06T12:43:41Z</time></trkpt><trkpt lat="40.7069191" lon="14.6137184"><ele>541.0</ele><time>2026-04-06T12:43:42Z</time></trkpt><trkpt lat="40.7070004" lon="14.6135976"><ele>540.0</ele><time>2026-04-06T12:43:43Z</time></trkpt><trkpt lat="40.7070649" lon="14.6134437"><ele>539.0</ele><time>2026-04-06T12:43:44Z</time></trkpt><trkpt lat="40.7071172" lon="14.6132462"><ele>538.0</ele><time>2026-04-06T12:43:45Z</time></trkpt><trkpt lat="40.7071786" lon="14.6130045"><ele>545.0</ele><time>2026-04-06T12:43:46Z</time></trkpt><trkpt lat="40.7072406" lon="14.6127754"><ele>552.0</ele><time>2026-04-06T12:43:47Z</time></trkpt><trkpt lat="40.7073359" lon="14.6124908"><ele>559.0</ele><time>2026-04-06T12:43:48Z</time></trkpt><trkpt lat="40.7073995" lon="14.6122498"><ele>559.0</ele><time>2026-04-06T12:43:49Z</time></trkpt><trkpt lat="40.7074634" lon="14.6120261"><ele>559.0</ele><time>2026-04-06T12:43:50Z</time></trkpt><trkpt lat="40.7075194" lon="14.6118231"><ele>559.0</ele><time>2026-04-06T12:43:51Z</time></trkpt><trkpt lat="40.7075618" lon="14.61164"><ele>562.8</ele><time>2026-04-06T12:43:52Z</time></trkpt><trkpt lat="40.7076018" lon="14.6114914"><ele>566.5999999999999</ele><time>2026-04-06T12:43:52.999Z</time></trkpt><trkpt lat="40.7076603" lon="14.6113732"><ele>570.4</ele><time>2026-04-06T12:43:54Z</time></trkpt><trkpt lat="40.707748" lon="14.6113171"><ele>574.1999999999999</ele><time>2026-04-06T12:43:54.999Z</time></trkpt><trkpt lat="40.7078478" lon="14.6113086"><ele>578.0</ele><time>2026-04-06T12:43:56Z</time></trkpt><trkpt lat="40.7079574" lon="14.6113495"><ele>580.75</ele><time>2026-04-06T12:43:57Z</time></trkpt><trkpt lat="40.7080451" lon="14.61145"><ele>583.5</ele><time>2026-04-06T12:43:58Z</time></trkpt><trkpt lat="40.7081119" lon="14.6115871"><ele>586.25</ele><time>2026-04-06T12:43:59Z</time></trkpt><trkpt lat="40.7081632" lon="14.6117981"><ele>589.0</ele><time>2026-04-06T12:44:00Z</time></trkpt><trkpt lat="40.7082219" lon="14.6120148"><ele>580.6666666666667</ele><time>2026-04-06T12:44:01Z</time></trkpt><trkpt lat="40.7083015" lon="14.6122462"><ele>572.3333333333334</ele><time>2026-04-06T12:44:02Z</time></trkpt><trkpt lat="40.7084" lon="14.6124372"><ele>564.0</ele><time>2026-04-06T12:44:03Z</time></trkpt><trkpt lat="40.7085111" lon="14.6125976"><ele>574.6666666666666</ele><time>2026-04-06T12:44:04Z</time></trkpt><trkpt lat="40.7086124" lon="14.6127587"><ele>585.3333333333333</ele><time>2026-04-06T12:44:05Z</time></trkpt><trkpt lat="40.7086925" lon="14.6129311"><ele>596.0</ele><time>2026-04-06T12:44:06Z</time></trkpt><trkpt lat="40.7087495" lon="14.6131041"><ele>596.0</ele><time>2026-04-06T12:44:06.999Z</time></trkpt><trkpt lat="40.708789" lon="14.6132666"><ele>596.0</ele><time>2026-04-06T12:44:08Z</time></trkpt><trkpt lat="40.7088364" lon="14.6134253"><ele>596.0</ele><time>2026-04-06T12:44:09Z</time></trkpt><trkpt lat="40.7088883" lon="14.6136042"><ele>596.0</ele><time>2026-04-06T12:44:09.999Z</time></trkpt><trkpt lat="40.7089644" lon="14.6138406"><ele>592.3333333333333</ele><time>2026-04-06T12:44:11Z</time></trkpt><trkpt lat="40.709039" lon="14.6140767"><ele>588.6666666666666</ele><time>2026-04-06T12:44:11.999Z</time></trkpt><trkpt lat="40.7091379" lon="14.6143157"><ele>585.0</ele><time>2026-04-06T12:44:13Z</time></trkpt><trkpt lat="40.709236" lon="14.614548"><ele>579.0</ele><time>2026-04-06T12:44:14Z</time></trkpt><trkpt lat="40.7093336" lon="14.6147722"><ele>573.0</ele><time>2026-04-06T12:44:15Z</time></trkpt><trkpt lat="40.7094273" lon="14.6149859"><ele>567.0</ele><time>2026-04-06T12:44:15.999Z</time></trkpt><trkpt lat="40.7095181" lon="14.6151907"><ele>577.0</ele><time>2026-04-06T12:44:17Z</time></trkpt><trkpt lat="40.7096111" lon="14.6153892"><ele>587.0</ele><time>2026-04-06T12:44:18Z</time></trkpt><trkpt lat="40.7097026" lon="14.6155818"><ele>597.0</ele><time>2026-04-06T12:44:19Z</time></trkpt><trkpt lat="40.7097969" lon="14.6157684"><ele>597.0</ele><time>2026-04-06T12:44:20Z</time></trkpt><trkpt lat="40.709895" lon="14.6159591"><ele>597.0</ele><time>2026-04-06T12:44:21Z</time></trkpt><trkpt lat="40.7100065" lon="14.6161552"><ele>597.0</ele><time>2026-04-06T12:44:22Z</time></trkpt><trkpt lat="40.710129" lon="14.6163492"><ele>595.0</ele><time>2026-04-06T12:44:23Z</time></trkpt><trkpt lat="40.7102636" lon="14.6165603"><ele>593.0</ele><time>2026-04-06T12:44:24Z</time></trkpt><trkpt lat="40.7104058" lon="14.6167763"><ele>591.0</ele><time>2026-04-06T12:44:25Z</time></trkpt><trkpt lat="40.7105417" lon="14.6169943"><ele>591.0</ele><time>2026-04-06T12:44:26Z</time></trkpt><trkpt lat="40.7106636" lon="14.6171909"><ele>591.0</ele><time>2026-04-06T12:44:27Z</time></trkpt><trkpt lat="40.7107916" lon="14.6173889"><ele>591.0</ele><time>2026-04-06T12:44:28Z</time></trkpt><trkpt lat="40.7109183" lon="14.6175736"><ele>591.0</ele><time>2026-04-06T12:44:29Z</time></trkpt><trkpt lat="40.7110514" lon="14.6177282"><ele>591.0</ele><time>2026-04-06T12:44:30Z</time></trkpt><trkpt lat="40.7111914" lon="14.6178524"><ele>591.0</ele><time>2026-04-06T12:44:31Z</time></trkpt><trkpt lat="40.7113258" lon="14.617963"><ele>592.0</ele><time>2026-04-06T12:44:32Z</time></trkpt><trkpt lat="40.7114444" lon="14.6180437"><ele>593.0</ele><time>2026-04-06T12:44:33Z</time></trkpt><trkpt lat="40.7115586" lon="14.6180952"><ele>594.0</ele><time>2026-04-06T12:44:34Z</time></trkpt><trkpt lat="40.7116728" lon="14.6180775"><ele>595.0</ele><time>2026-04-06T12:44:35Z</time></trkpt><trkpt lat="40.7117969" lon="14.6180108"><ele>591.3333333333334</ele><time>2026-04-06T12:44:36Z</time></trkpt><trkpt lat="40.7119306" lon="14.61791"><ele>587.6666666666666</ele><time>2026-04-06T12:44:36.999Z</time></trkpt><trkpt lat="40.7120651" lon="14.6177789"><ele>584.0</ele><time>2026-04-06T12:44:38Z</time></trkpt><trkpt lat="40.7121885" lon="14.617594"><ele>584.0</ele><time>2026-04-06T12:44:39Z</time></trkpt><trkpt lat="40.7122996" lon="14.6173775"><ele>584.0</ele><time>2026-04-06T12:44:40Z</time></trkpt><trkpt lat="40.7123908" lon="14.6171395"><ele>584.0</ele><time>2026-04-06T12:44:41Z</time></trkpt><trkpt lat="40.7124764" lon="14.6168801"><ele>594.0</ele><time>2026-04-06T12:44:41.999Z</time></trkpt><trkpt lat="40.7125672" lon="14.6166065"><ele>604.0</ele><time>2026-04-06T12:44:43Z</time></trkpt><trkpt lat="40.7126698" lon="14.6163414"><ele>598.6666666666667</ele><time>2026-04-06T12:44:44Z</time></trkpt><trkpt lat="40.7127777" lon="14.6161097"><ele>593.3333333333334</ele><time>2026-04-06T12:44:45Z</time></trkpt><trkpt lat="40.71288" lon="14.6159018"><ele>588.0</ele><time>2026-04-06T12:44:46Z</time></trkpt><trkpt lat="40.7129543" lon="14.6156883"><ele>588.0</ele><time>2026-04-06T12:44:47Z</time></trkpt><trkpt lat="40.7130194" lon="14.6154859"><ele>588.0</ele><time>2026-04-06T12:44:48Z</time></trkpt><trkpt lat="40.7130739" lon="14.6153003"><ele>588.0</ele><time>2026-04-06T12:44:49Z</time></trkpt><trkpt lat="40.713142" lon="14.615144"><ele>593.75</ele><time>2026-04-06T12:44:50Z</time></trkpt><trkpt lat="40.713228" lon="14.615033"><ele>599.5</ele><time>2026-04-06T12:44:51Z</time></trkpt><trkpt lat="40.7133301" lon="14.6149615"><ele>605.25</ele><time>2026-04-06T12:44:52Z</time></trkpt><trkpt lat="40.7134505" lon="14.6149482"><ele>611.0</ele><time>2026-04-06T12:44:53Z</time></trkpt><trkpt lat="40.7135835" lon="14.6149392"><ele>613.5</ele><time>2026-04-06T12:44:54Z</time></trkpt><trkpt lat="40.7137411" lon="14.6149814"><ele>616.0</ele><time>2026-04-06T12:44:54.999Z</time></trkpt><trkpt lat="40.7138819" lon="14.6149761"><ele>618.5</ele><time>2026-04-06T12:44:56Z</time></trkpt><trkpt lat="40.714008" lon="14.6149583"><ele>621.0</ele><time>2026-04-06T12:44:57Z</time></trkpt><trkpt lat="40.7141325" lon="14.6149636"><ele>621.0</ele><time>2026-04-06T12:44:58Z</time></trkpt><trkpt lat="40.7142465" lon="14.6150426"><ele>621.0</ele><time>2026-04-06T12:44:59Z</time></trkpt><trkpt lat="40.7143264" lon="14.6151638"><ele>621.0</ele><time>2026-04-06T12:45:00Z</time></trkpt><trkpt lat="40.7143897" lon="14.6153393"><ele>621.0</ele><time>2026-04-06T12:45:01Z</time></trkpt><trkpt lat="40.7144639" lon="14.6155506"><ele>618.6666666666666</ele><time>2026-04-06T12:45:01.998Z</time></trkpt><trkpt lat="40.7145446" lon="14.6157802"><ele>616.3333333333333</ele><time>2026-04-06T12:45:03Z</time></trkpt><trkpt lat="40.7146276" lon="14.6159885"><ele>614.0</ele><time>2026-04-06T12:45:04Z</time></trkpt><trkpt lat="40.7147326" lon="14.6161859"><ele>614.0</ele><time>2026-04-06T12:45:04.999Z</time></trkpt><trkpt lat="40.7148645" lon="14.616361"><ele>614.0</ele><time>2026-04-06T12:45:06Z</time></trkpt><trkpt lat="40.715019" lon="14.6165183"><ele>614.0</ele><time>2026-04-06T12:45:07Z</time></trkpt><trkpt lat="40.7151901" lon="14.6166698"><ele>617.0</ele><time>2026-04-06T12:45:07.999Z</time></trkpt><trkpt lat="40.715354" lon="14.6168043"><ele>620.0</ele><time>2026-04-06T12:45:09Z</time></trkpt><trkpt lat="40.7155074" lon="14.6169289"><ele>623.0</ele><time>2026-04-06T12:45:10Z</time></trkpt><trkpt lat="40.7156445" lon="14.6170634"><ele>623.0</ele><time>2026-04-06T12:45:11Z</time></trkpt><trkpt lat="40.7157483" lon="14.6172416"><ele>623.0</ele><time>2026-04-06T12:45:12Z</time></trkpt><trkpt lat="40.7158203" lon="14.6174426"><ele>623.0</ele><time>2026-04-06T12:45:13Z</time></trkpt><trkpt lat="40.7158846" lon="14.617671"><ele>618.3333333333333</ele><time>2026-04-06T12:45:14Z</time></trkpt><trkpt lat="40.7159633" lon="14.6179123"><ele>613.6666666666666</ele><time>2026-04-06T12:45:15Z</time></trkpt><trkpt lat="40.7160573" lon="14.6181643"><ele>609.0</ele><time>2026-04-06T12:45:16Z</time></trkpt><trkpt lat="40.7161735" lon="14.6184037"><ele>619.3333333333334</ele><time>2026-04-06T12:45:17Z</time></trkpt><trkpt lat="40.7162963" lon="14.6186121"><ele>629.6666666666667</ele><time>2026-04-06T12:45:18Z</time></trkpt><trkpt lat="40.7164095" lon="14.6188031"><ele>640.0</ele><time>2026-04-06T12:45:19Z</time></trkpt><trkpt lat="40.7165032" lon="14.6190025"><ele>640.0</ele><time>2026-04-06T12:45:20Z</time></trkpt><trkpt lat="40.7165681" lon="14.6192177"><ele>640.0</ele><time>2026-04-06T12:45:21Z</time></trkpt><trkpt lat="40.7165902" lon="14.6194382"><ele>640.0</ele><time>2026-04-06T12:45:22Z</time></trkpt><trkpt lat="40.7165812" lon="14.6196642"><ele>639.25</ele><time>2026-04-06T12:45:22.999Z</time></trkpt><trkpt lat="40.7165494" lon="14.6198631"><ele>638.5</ele><time>2026-04-06T12:45:24Z</time></trkpt><trkpt lat="40.716525" lon="14.6200579"><ele>637.75</ele><time>2026-04-06T12:45:25Z</time></trkpt><trkpt lat="40.7165359" lon="14.620248"><ele>637.0</ele><time>2026-04-06T12:45:26Z</time></trkpt><trkpt lat="40.7165446" lon="14.6204404"><ele>634.6666666666667</ele><time>2026-04-06T12:45:27Z</time></trkpt><trkpt lat="40.7165767" lon="14.6206124"><ele>632.3333333333334</ele><time>2026-04-06T12:45:27.999Z</time></trkpt><trkpt lat="40.7166113" lon="14.6207963"><ele>630.0</ele><time>2026-04-06T12:45:29Z</time></trkpt><trkpt lat="40.7167951" lon="14.6209233"><ele>629.0</ele><time>2026-04-06T12:45:30Z</time></trkpt><trkpt lat="40.7169045" lon="14.6210642"><ele>628.0</ele><time>2026-04-06T12:45:30.999Z</time></trkpt><trkpt lat="40.7170245" lon="14.6211735"><ele>627.0</ele><time>2026-04-06T12:45:32Z</time></trkpt><trkpt lat="40.7171646" lon="14.6212621"><ele>627.0</ele><time>2026-04-06T12:45:33Z</time></trkpt><trkpt lat="40.7173049" lon="14.6212975"><ele>627.0</ele><time>2026-04-06T12:45:34Z</time></trkpt><trkpt lat="40.7174396" lon="14.6212876"><ele>627.0</ele><time>2026-04-06T12:45:35Z</time></trkpt><trkpt lat="40.7175542" lon="14.6212357"><ele>627.0</ele><time>2026-04-06T12:45:36Z</time></trkpt><trkpt lat="40.71765" lon="14.6211386"><ele>629.5</ele><time>2026-04-06T12:45:37Z</time></trkpt><trkpt lat="40.7177399" lon="14.6210219"><ele>632.0</ele><time>2026-04-06T12:45:37.999Z</time></trkpt><trkpt lat="40.7178201" lon="14.6209027"><ele>634.5</ele><time>2026-04-06T12:45:39Z</time></trkpt><trkpt lat="40.7178975" lon="14.6208002"><ele>637.0</ele><time>2026-04-06T12:45:40Z</time></trkpt><trkpt lat="40.7179655" lon="14.620715"><ele>637.0</ele><time>2026-04-06T12:45:41Z</time></trkpt><trkpt lat="40.7180218" lon="14.6206392"><ele>637.0</ele><time>2026-04-06T12:45:42Z</time></trkpt><trkpt lat="40.7180726" lon="14.6205795"><ele>637.0</ele><time>2026-04-06T12:45:43Z</time></trkpt><trkpt lat="40.7181426" lon="14.6205432"><ele>637.0</ele><time>2026-04-06T12:45:45Z</time></trkpt><trkpt lat="40.7181409" lon="14.620633"><ele>637.0</ele><time>2026-04-06T12:45:48Z</time></trkpt><trkpt lat="40.7180887" lon="14.6207016"><ele>637.0</ele><time>2026-04-06T12:45:49.999Z</time></trkpt><trkpt lat="40.7180272" lon="14.6207951"><ele>637.0</ele><time>2026-04-06T12:45:52Z</time></trkpt><trkpt lat="40.7179497" lon="14.6209137"><ele>637.0</ele><time>2026-04-06T12:45:54Z</time></trkpt><trkpt lat="40.7178929" lon="14.6210383"><ele>637.0</ele><time>2026-04-06T12:45:56Z</time></trkpt><trkpt lat="40.7178486" lon="14.6211395"><ele>637.0</ele><time>2026-04-06T12:45:58Z</time></trkpt><trkpt lat="40.7177674" lon="14.6211757"><ele>637.0</ele><time>2026-04-06T12:46:01Z</time></trkpt><trkpt lat="40.7178128" lon="14.6211015"><ele>637.0</ele><time>2026-04-06T12:46:05Z</time></trkpt><trkpt lat="40.7178831" lon="14.6210953"><ele>637.0</ele><time>2026-04-06T12:51:35Z</time></trkpt><trkpt lat="40.7179255" lon="14.6209675"><ele>637.0</ele><time>2026-04-06T12:54:37Z</time></trkpt><trkpt lat="40.7179949" lon="14.6208649"><ele>637.0</ele><time>2026-04-06T12:54:39Z</time></trkpt><trkpt lat="40.7180792" lon="14.6207784"><ele>637.0</ele><time>2026-04-06T12:54:42Z</time></trkpt></trkseg><trkseg><trkpt lat="40.7180697" lon="14.6208348"><ele>637.0</ele><time>2026-04-06T13:36:59Z</time></trkpt><trkpt lat="40.7180052" lon="14.6208039"><ele>637.0</ele><time>2026-04-06T13:37:02Z</time></trkpt><trkpt lat="40.7180485" lon="14.6207393"><ele>637.0</ele><time>2026-04-06T13:37:03.999Z</time></trkpt><trkpt lat="40.7181242" lon="14.6206615"><ele>637.0</ele><time>2026-04-06T13:37:06Z</time></trkpt><trkpt lat="40.7181765" lon="14.6205824"><ele>637.0</ele><time>2026-04-06T13:37:08Z</time></trkpt><trkpt lat="40.7182059" lon="14.6204663"><ele>637.0</ele><time>2026-04-06T13:37:11Z</time></trkpt><trkpt lat="40.7182644" lon="14.6203794"><ele>637.0</ele><time>2026-04-06T13:37:16Z</time></trkpt><trkpt lat="40.7183813" lon="14.6203212"><ele>637.0</ele><time>2026-04-06T13:37:17.999Z</time></trkpt><trkpt lat="40.7184591" lon="14.6202848"><ele>637.0</ele><time>2026-04-06T13:37:20Z</time></trkpt><trkpt lat="40.7185401" lon="14.6202739"><ele>637.0</ele><time>2026-04-06T13:37:22Z</time></trkpt><trkpt lat="40.7186578" lon="14.6202872"><ele>637.0</ele><time>2026-04-06T13:37:24Z</time></trkpt><trkpt lat="40.7187434" lon="14.6202079"><ele>641.4000000000001</ele><time>2026-04-06T13:37:26Z</time></trkpt><trkpt lat="40.7187726" lon="14.6200571"><ele>645.8000000000001</ele><time>2026-04-06T13:37:28Z</time></trkpt><trkpt lat="40.7187937" lon="14.619957"><ele>650.2</ele><time>2026-04-06T13:37:29Z</time></trkpt><trkpt lat="40.7188162" lon="14.6198702"><ele>654.6</ele><time>2026-04-06T13:37:30Z</time></trkpt><trkpt lat="40.7188327" lon="14.6197831"><ele>659.0</ele><time>2026-04-06T13:37:31Z</time></trkpt><trkpt lat="40.7188621" lon="14.6196233"><ele>659.0</ele><time>2026-04-06T13:37:33Z</time></trkpt><trkpt lat="40.7188822" lon="14.6195412"><ele>659.0</ele><time>2026-04-06T13:37:34Z</time></trkpt><trkpt lat="40.7188828" lon="14.6193771"><ele>659.0</ele><time>2026-04-06T13:37:36Z</time></trkpt><trkpt lat="40.7188643" lon="14.6192223"><ele>659.0</ele><time>2026-04-06T13:37:37.999Z</time></trkpt><trkpt lat="40.7188529" lon="14.6190693"><ele>659.0</ele><time>2026-04-06T13:37:40Z</time></trkpt><trkpt lat="40.7188254" lon="14.6189091"><ele>657.6666666666666</ele><time>2026-04-06T13:37:42Z</time></trkpt><trkpt lat="40.7188016" lon="14.6188258"><ele>656.3333333333333</ele><time>2026-04-06T13:37:43Z</time></trkpt><trkpt lat="40.71877" lon="14.6187379"><ele>655.0</ele><time>2026-04-06T13:37:44Z</time></trkpt><trkpt lat="40.7187343" lon="14.6186506"><ele>653.6666666666666</ele><time>2026-04-06T13:37:45Z</time></trkpt><trkpt lat="40.7186942" lon="14.6185592"><ele>652.3333333333334</ele><time>2026-04-06T13:37:46Z</time></trkpt><trkpt lat="40.7186519" lon="14.6184725"><ele>651.0</ele><time>2026-04-06T13:37:47Z</time></trkpt><trkpt lat="40.718605" lon="14.6183856"><ele>652.5999999999999</ele><time>2026-04-06T13:37:48Z</time></trkpt><trkpt lat="40.7185567" lon="14.6182908"><ele>654.2</ele><time>2026-04-06T13:37:49Z</time></trkpt><trkpt lat="40.7185091" lon="14.6182119"><ele>655.8</ele><time>2026-04-06T13:37:49.999Z</time></trkpt><trkpt lat="40.718452" lon="14.6181255"><ele>657.4000000000001</ele><time>2026-04-06T13:37:51Z</time></trkpt><trkpt lat="40.7183768" lon="14.6180061"><ele>659.0</ele><time>2026-04-06T13:37:52Z</time></trkpt><trkpt lat="40.7183187" lon="14.6178806"><ele>653.6</ele><time>2026-04-06T13:37:53Z</time></trkpt><trkpt lat="40.7182802" lon="14.6177628"><ele>648.2</ele><time>2026-04-06T13:37:54Z</time></trkpt><trkpt lat="40.718274" lon="14.6176432"><ele>642.8000000000001</ele><time>2026-04-06T13:37:55Z</time></trkpt><trkpt lat="40.7182777" lon="14.6175341"><ele>637.4000000000001</ele><time>2026-04-06T13:37:55.999Z</time></trkpt><trkpt lat="40.7182891" lon="14.6174232"><ele>632.0</ele><time>2026-04-06T13:37:57.15Z</time></trkpt><trkpt lat="40.7183075" lon="14.6172135"><ele>632.0000000000001</ele><time>2026-04-06T13:37:59Z</time></trkpt><trkpt lat="40.7183186" lon="14.617116"><ele>632.0</ele><time>2026-04-06T13:38:00Z</time></trkpt><trkpt lat="40.7183278" lon="14.6170215"><ele>632.0</ele><time>2026-04-06T13:38:01Z</time></trkpt><trkpt lat="40.7183204" lon="14.6169278"><ele>632.0</ele><time>2026-04-06T13:38:02Z</time></trkpt><trkpt lat="40.7182987" lon="14.6168383"><ele>632.0</ele><time>2026-04-06T13:38:03Z</time></trkpt><trkpt lat="40.7182317" lon="14.6167854"><ele>632.0000000000001</ele><time>2026-04-06T13:38:04Z</time></trkpt><trkpt lat="40.7181649" lon="14.6167324"><ele>632.0</ele><time>2026-04-06T13:38:05Z</time></trkpt><trkpt lat="40.7181062" lon="14.6166828"><ele>630.2857142857143</ele><time>2026-04-06T13:38:06Z</time></trkpt><trkpt lat="40.718056" lon="14.6166272"><ele>628.5714285714286</ele><time>2026-04-06T13:38:07Z</time></trkpt><trkpt lat="40.7180201" lon="14.6165494"><ele>626.8571428571429</ele><time>2026-04-06T13:38:08Z</time></trkpt><trkpt lat="40.7180007" lon="14.6164547"><ele>625.1428571428571</ele><time>2026-04-06T13:38:09Z</time></trkpt><trkpt lat="40.7180141" lon="14.6163552"><ele>623.4285714285714</ele><time>2026-04-06T13:38:09.999Z</time></trkpt><trkpt lat="40.7180305" lon="14.6162588"><ele>621.7142857142858</ele><time>2026-04-06T13:38:11Z</time></trkpt><trkpt lat="40.7180399" lon="14.6161639"><ele>620.0</ele><time>2026-04-06T13:38:12Z</time></trkpt><trkpt lat="40.7180474" lon="14.6160672"><ele>614.0</ele><time>2026-04-06T13:38:13Z</time></trkpt><trkpt lat="40.7180494" lon="14.6159636"><ele>608.0</ele><time>2026-04-06T13:38:14Z</time></trkpt><trkpt lat="40.718034" lon="14.6158491"><ele>602.0</ele><time>2026-04-06T13:38:15Z</time></trkpt><trkpt lat="40.7179731" lon="14.6156784"><ele>596.0</ele><time>2026-04-06T13:38:16Z</time></trkpt><trkpt lat="40.7179551" lon="14.6154891"><ele>591.0</ele><time>2026-04-06T13:38:17Z</time></trkpt><trkpt lat="40.7179583" lon="14.6152731"><ele>586.0</ele><time>2026-04-06T13:38:18Z</time></trkpt><trkpt lat="40.7179777" lon="14.6150693"><ele>581.0</ele><time>2026-04-06T13:38:18.999Z</time></trkpt><trkpt lat="40.7179728" lon="14.6148739"><ele>581.0</ele><time>2026-04-06T13:38:20Z</time></trkpt><trkpt lat="40.7179596" lon="14.6146926"><ele>581.0</ele><time>2026-04-06T13:38:21Z</time></trkpt><trkpt lat="40.7179358" lon="14.6145312"><ele>581.0</ele><time>2026-04-06T13:38:22Z</time></trkpt><trkpt lat="40.7179246" lon="14.6143972"><ele>581.0</ele><time>2026-04-06T13:38:23Z</time></trkpt><trkpt lat="40.7179142" lon="14.6142756"><ele>579.8</ele><time>2026-04-06T13:38:23.999Z</time></trkpt><trkpt lat="40.7179974" lon="14.6141828"><ele>578.6</ele><time>2026-04-06T13:38:24.999Z</time></trkpt><trkpt lat="40.7180683" lon="14.6140841"><ele>577.4</ele><time>2026-04-06T13:38:26Z</time></trkpt><trkpt lat="40.7180972" lon="14.6139847"><ele>576.2</ele><time>2026-04-06T13:38:27Z</time></trkpt><trkpt lat="40.7181101" lon="14.613874"><ele>575.0</ele><time>2026-04-06T13:38:28Z</time></trkpt><trkpt lat="40.7180883" lon="14.613768"><ele>575.0</ele><time>2026-04-06T13:38:29Z</time></trkpt><trkpt lat="40.7180267" lon="14.6136926"><ele>575.0</ele><time>2026-04-06T13:38:30Z</time></trkpt><trkpt lat="40.717948" lon="14.613637"><ele>575.0</ele><time>2026-04-06T13:38:31Z</time></trkpt><trkpt lat="40.7178847" lon="14.6135766"><ele>575.0</ele><time>2026-04-06T13:38:32Z</time></trkpt><trkpt lat="40.7178355" lon="14.6134986"><ele>575.0</ele><time>2026-04-06T13:38:33Z</time></trkpt><trkpt lat="40.7178024" lon="14.6134155"><ele>575.0</ele><time>2026-04-06T13:38:34Z</time></trkpt><trkpt lat="40.7177905" lon="14.6133174"><ele>574.3333333333333</ele><time>2026-04-06T13:38:36Z</time></trkpt><trkpt lat="40.7178052" lon="14.6132164"><ele>573.6666666666666</ele><time>2026-04-06T13:38:38Z</time></trkpt><trkpt lat="40.7178521" lon="14.6131094"><ele>573.0</ele><time>2026-04-06T13:38:40Z</time></trkpt><trkpt lat="40.7179139" lon="14.6129731"><ele>572.3333333333334</ele><time>2026-04-06T13:38:42Z</time></trkpt><trkpt lat="40.7179398" lon="14.6128884"><ele>571.6666666666667</ele><time>2026-04-06T13:38:43Z</time></trkpt><trkpt lat="40.7179543" lon="14.6127955"><ele>571.0</ele><time>2026-04-06T13:38:44Z</time></trkpt><trkpt lat="40.7179519" lon="14.6127034"><ele>569.8571428571429</ele><time>2026-04-06T13:38:45Z</time></trkpt><trkpt lat="40.7179355" lon="14.6126143"><ele>568.7142857142857</ele><time>2026-04-06T13:38:46Z</time></trkpt><trkpt lat="40.717911" lon="14.612533"><ele>567.5714285714286</ele><time>2026-04-06T13:38:47Z</time></trkpt><trkpt lat="40.7178719" lon="14.6124615"><ele>566.4285714285714</ele><time>2026-04-06T13:38:48Z</time></trkpt><trkpt lat="40.7178316" lon="14.6123858"><ele>565.2857142857143</ele><time>2026-04-06T13:38:49Z</time></trkpt><trkpt lat="40.7178065" lon="14.6123057"><ele>564.1428571428571</ele><time>2026-04-06T13:38:50Z</time></trkpt><trkpt lat="40.7177965" lon="14.6122202"><ele>563.0</ele><time>2026-04-06T13:38:51Z</time></trkpt><trkpt lat="40.7178078" lon="14.6121324"><ele>563.0</ele><time>2026-04-06T13:38:52Z</time></trkpt><trkpt lat="40.7178417" lon="14.6120368"><ele>563.0</ele><time>2026-04-06T13:38:53Z</time></trkpt><trkpt lat="40.7179039" lon="14.6119091"><ele>563.0</ele><time>2026-04-06T13:38:54Z</time></trkpt><trkpt lat="40.7179815" lon="14.6117799"><ele>563.0</ele><time>2026-04-06T13:38:55Z</time></trkpt><trkpt lat="40.7180774" lon="14.6116632"><ele>571.0</ele><time>2026-04-06T13:38:56Z</time></trkpt><trkpt lat="40.7181674" lon="14.611547"><ele>579.0</ele><time>2026-04-06T13:38:57Z</time></trkpt><trkpt lat="40.7182609" lon="14.6114552"><ele>587.0</ele><time>2026-04-06T13:38:58Z</time></trkpt><trkpt lat="40.7183852" lon="14.6114372"><ele>595.0</ele><time>2026-04-06T13:38:59Z</time></trkpt><trkpt lat="40.7185023" lon="14.6114055"><ele>586.25</ele><time>2026-04-06T13:39:00Z</time></trkpt><trkpt lat="40.7186104" lon="14.6113239"><ele>577.5</ele><time>2026-04-06T13:39:01Z</time></trkpt><trkpt lat="40.718735" lon="14.611279"><ele>568.75</ele><time>2026-04-06T13:39:02Z</time></trkpt><trkpt lat="40.7188422" lon="14.611286"><ele>560.0</ele><time>2026-04-06T13:39:03Z</time></trkpt><trkpt lat="40.7189409" lon="14.6112499"><ele>560.0</ele><time>2026-04-06T13:39:04Z</time></trkpt><trkpt lat="40.7190427" lon="14.6112134"><ele>560.0</ele><time>2026-04-06T13:39:05Z</time></trkpt><trkpt lat="40.7190994" lon="14.6110804"><ele>560.0</ele><time>2026-04-06T13:39:06Z</time></trkpt><trkpt lat="40.7191152" lon="14.6109231"><ele>560.0</ele><time>2026-04-06T13:39:07Z</time></trkpt><trkpt lat="40.719126" lon="14.6107454"><ele>562.25</ele><time>2026-04-06T13:39:08Z</time></trkpt><trkpt lat="40.7191254" lon="14.6105631"><ele>564.5</ele><time>2026-04-06T13:39:09Z</time></trkpt><trkpt lat="40.7191262" lon="14.6103754"><ele>566.75</ele><time>2026-04-06T13:39:10Z</time></trkpt><trkpt lat="40.7191177" lon="14.6102269"><ele>569.0</ele><time>2026-04-06T13:39:11Z</time></trkpt><trkpt lat="40.7191306" lon="14.6100891"><ele>569.0</ele><time>2026-04-06T13:39:12Z</time></trkpt><trkpt lat="40.7191329" lon="14.6099648"><ele>569.0</ele><time>2026-04-06T13:39:13Z</time></trkpt><trkpt lat="40.7191315" lon="14.6098244"><ele>569.0</ele><time>2026-04-06T13:39:13.999Z</time></trkpt><trkpt lat="40.719081" lon="14.60969"><ele>569.0</ele><time>2026-04-06T13:39:15Z</time></trkpt><trkpt lat="40.7190518" lon="14.6095553"><ele>569.0</ele><time>2026-04-06T13:39:15.999Z</time></trkpt><trkpt lat="40.719024" lon="14.6094275"><ele>567.0</ele><time>2026-04-06T13:39:17Z</time></trkpt><trkpt lat="40.7189953" lon="14.6093033"><ele>565.0</ele><time>2026-04-06T13:39:18Z</time></trkpt><trkpt lat="40.7189672" lon="14.6091835"><ele>563.0</ele><time>2026-04-06T13:39:19Z</time></trkpt><trkpt lat="40.7189394" lon="14.6090699"><ele>561.0</ele><time>2026-04-06T13:39:20Z</time></trkpt><trkpt lat="40.7189144" lon="14.6089607"><ele>559.0</ele><time>2026-04-06T13:39:21Z</time></trkpt><trkpt lat="40.718891" lon="14.6088594"><ele>559.0</ele><time>2026-04-06T13:39:22Z</time></trkpt><trkpt lat="40.7188721" lon="14.6087634"><ele>559.0</ele><time>2026-04-06T13:39:23Z</time></trkpt><trkpt lat="40.7188425" lon="14.6086704"><ele>559.0</ele><time>2026-04-06T13:39:23.999Z</time></trkpt><trkpt lat="40.71883" lon="14.6085203"><ele>559.0</ele><time>2026-04-06T13:39:26Z</time></trkpt><trkpt lat="40.7188482" lon="14.6083683"><ele>559.0</ele><time>2026-04-06T13:39:28Z</time></trkpt><trkpt lat="40.7188568" lon="14.6082809"><ele>559.0</ele><time>2026-04-06T13:39:29Z</time></trkpt><trkpt lat="40.7188656" lon="14.6081856"><ele>557.7142857142858</ele><time>2026-04-06T13:39:30Z</time></trkpt><trkpt lat="40.7188677" lon="14.6080926"><ele>556.4285714285714</ele><time>2026-04-06T13:39:31Z</time></trkpt><trkpt lat="40.7188536" lon="14.6080015"><ele>555.1428571428571</ele><time>2026-04-06T13:39:32Z</time></trkpt><trkpt lat="40.7188362" lon="14.6079095"><ele>553.8571428571429</ele><time>2026-04-06T13:39:33Z</time></trkpt><trkpt lat="40.7188297" lon="14.6078163"><ele>552.5714285714286</ele><time>2026-04-06T13:39:34Z</time></trkpt><trkpt lat="40.7188555" lon="14.607738"><ele>551.2857142857143</ele><time>2026-04-06T13:39:35Z</time></trkpt><trkpt lat="40.71888" lon="14.6076594"><ele>550.0</ele><time>2026-04-06T13:39:35.999Z</time></trkpt><trkpt lat="40.7189294" lon="14.6075648"><ele>558.3333333333334</ele><time>2026-04-06T13:39:37Z</time></trkpt><trkpt lat="40.7191098" lon="14.6074123"><ele>566.6666666666666</ele><time>2026-04-06T13:39:38Z</time></trkpt><trkpt lat="40.7192332" lon="14.6073042"><ele>575.0</ele><time>2026-04-06T13:39:38.999Z</time></trkpt><trkpt lat="40.7193278" lon="14.6071989"><ele>575.0</ele><time>2026-04-06T13:39:40Z</time></trkpt><trkpt lat="40.7193947" lon="14.607085"><ele>575.0</ele><time>2026-04-06T13:39:41Z</time></trkpt><trkpt lat="40.7194191" lon="14.6069342"><ele>575.0</ele><time>2026-04-06T13:39:42Z</time></trkpt><trkpt lat="40.7194125" lon="14.6067608"><ele>575.0</ele><time>2026-04-06T13:39:43Z</time></trkpt><trkpt lat="40.7194059" lon="14.606588"><ele>567.25</ele><time>2026-04-06T13:39:44Z</time></trkpt><trkpt lat="40.7194172" lon="14.6064186"><ele>559.5</ele><time>2026-04-06T13:39:45Z</time></trkpt><trkpt lat="40.7194258" lon="14.606261"><ele>551.75</ele><time>2026-04-06T13:39:46Z</time></trkpt><trkpt lat="40.7194422" lon="14.6060977"><ele>544.0</ele><time>2026-04-06T13:39:46.999Z</time></trkpt><trkpt lat="40.7196421" lon="14.6059564"><ele>544.0</ele><time>2026-04-06T13:39:48Z</time></trkpt><trkpt lat="40.7197393" lon="14.6057993"><ele>544.0</ele><time>2026-04-06T13:39:49Z</time></trkpt><trkpt lat="40.7198641" lon="14.6056522"><ele>544.0</ele><time>2026-04-06T13:39:50Z</time></trkpt><trkpt lat="40.7199928" lon="14.6055254"><ele>544.0</ele><time>2026-04-06T13:39:50.999Z</time></trkpt><trkpt lat="40.7201112" lon="14.6054156"><ele>544.0</ele><time>2026-04-06T13:39:52Z</time></trkpt><trkpt lat="40.7202099" lon="14.6053072"><ele>544.0</ele><time>2026-04-06T13:39:53Z</time></trkpt><trkpt lat="40.7203012" lon="14.6052022"><ele>544.0</ele><time>2026-04-06T13:39:54Z</time></trkpt><trkpt lat="40.7203568" lon="14.6050842"><ele>547.75</ele><time>2026-04-06T13:39:55Z</time></trkpt><trkpt lat="40.7203657" lon="14.604957"><ele>551.5</ele><time>2026-04-06T13:39:56Z</time></trkpt><trkpt lat="40.7203323" lon="14.6048209"><ele>555.25</ele><time>2026-04-06T13:39:57Z</time></trkpt><trkpt lat="40.7202482" lon="14.6046858"><ele>559.0</ele><time>2026-04-06T13:39:58Z</time></trkpt><trkpt lat="40.7201362" lon="14.6045451"><ele>553.3333333333334</ele><time>2026-04-06T13:39:59Z</time></trkpt><trkpt lat="40.720014" lon="14.6043991"><ele>547.6666666666666</ele><time>2026-04-06T13:40:00Z</time></trkpt><trkpt lat="40.7199054" lon="14.604236"><ele>542.0</ele><time>2026-04-06T13:40:01Z</time></trkpt><trkpt lat="40.7198087" lon="14.6040731"><ele>542.0</ele><time>2026-04-06T13:40:02Z</time></trkpt><trkpt lat="40.7197317" lon="14.6039061"><ele>542.0</ele><time>2026-04-06T13:40:03Z</time></trkpt><trkpt lat="40.71965" lon="14.6037539"><ele>542.0</ele><time>2026-04-06T13:40:04Z</time></trkpt><trkpt lat="40.7195611" lon="14.6035977"><ele>542.0</ele><time>2026-04-06T13:40:05Z</time></trkpt><trkpt lat="40.719485" lon="14.6034801"><ele>543.6</ele><time>2026-04-06T13:40:06Z</time></trkpt><trkpt lat="40.7194107" lon="14.6033605"><ele>545.2</ele><time>2026-04-06T13:40:07Z</time></trkpt><trkpt lat="40.7193393" lon="14.6032445"><ele>546.8</ele><time>2026-04-06T13:40:08Z</time></trkpt><trkpt lat="40.719267" lon="14.603137"><ele>548.4</ele><time>2026-04-06T13:40:09Z</time></trkpt><trkpt lat="40.7191845" lon="14.6030483"><ele>550.0</ele><time>2026-04-06T13:40:10Z</time></trkpt><trkpt lat="40.7191079" lon="14.6029741"><ele>550.0</ele><time>2026-04-06T13:40:11Z</time></trkpt><trkpt lat="40.7190298" lon="14.6029032"><ele>550.0</ele><time>2026-04-06T13:40:12Z</time></trkpt><trkpt lat="40.7189359" lon="14.6028305"><ele>550.0</ele><time>2026-04-06T13:40:13Z</time></trkpt><trkpt lat="40.7188524" lon="14.6027719"><ele>550.0</ele><time>2026-04-06T13:40:14Z</time></trkpt><trkpt lat="40.7187769" lon="14.6027119"><ele>550.0</ele><time>2026-04-06T13:40:15Z</time></trkpt><trkpt lat="40.7187082" lon="14.6027812"><ele>547.6666666666667</ele><time>2026-04-06T13:40:16Z</time></trkpt><trkpt lat="40.7186208" lon="14.6027761"><ele>545.3333333333334</ele><time>2026-04-06T13:40:16.999Z</time></trkpt><trkpt lat="40.7185581" lon="14.6027994"><ele>543.0</ele><time>2026-04-06T13:40:18Z</time></trkpt><trkpt lat="40.7184773" lon="14.6028906"><ele>540.6666666666666</ele><time>2026-04-06T13:40:20Z</time></trkpt><trkpt lat="40.7184129" lon="14.602962"><ele>538.3333333333333</ele><time>2026-04-06T13:40:22Z</time></trkpt><trkpt lat="40.7183475" lon="14.6029752"><ele>536.0</ele><time>2026-04-06T13:40:24Z</time></trkpt><trkpt lat="40.7182963" lon="14.6028908"><ele>533.1666666666666</ele><time>2026-04-06T13:40:26Z</time></trkpt><trkpt lat="40.7183521" lon="14.6027845"><ele>530.3333333333333</ele><time>2026-04-06T13:40:28Z</time></trkpt><trkpt lat="40.7184099" lon="14.602742"><ele>527.5</ele><time>2026-04-06T13:40:29Z</time></trkpt><trkpt lat="40.7184784" lon="14.6027078"><ele>524.6666666666666</ele><time>2026-04-06T13:40:30Z</time></trkpt><trkpt lat="40.7185601" lon="14.6026719"><ele>521.8333333333334</ele><time>2026-04-06T13:40:31Z</time></trkpt><trkpt lat="40.7186374" lon="14.6026489"><ele>519.0</ele><time>2026-04-06T13:40:32Z</time></trkpt><trkpt lat="40.7187319" lon="14.6026656"><ele>519.0</ele><time>2026-04-06T13:40:33Z</time></trkpt><trkpt lat="40.7188222" lon="14.6026907"><ele>519.0</ele><time>2026-04-06T13:40:34Z</time></trkpt><trkpt lat="40.7189064" lon="14.6027147"><ele>519.0</ele><time>2026-04-06T13:40:35Z</time></trkpt><trkpt lat="40.7189848" lon="14.6027478"><ele>519.0</ele><time>2026-04-06T13:40:36Z</time></trkpt><trkpt lat="40.719068" lon="14.6027861"><ele>519.0</ele><time>2026-04-06T13:40:37Z</time></trkpt><trkpt lat="40.7191727" lon="14.6028366"><ele>517.6</ele><time>2026-04-06T13:40:38Z</time></trkpt><trkpt lat="40.719261" lon="14.6029005"><ele>516.2</ele><time>2026-04-06T13:40:39Z</time></trkpt><trkpt lat="40.7193409" lon="14.6029728"><ele>514.8000000000001</ele><time>2026-04-06T13:40:40Z</time></trkpt><trkpt lat="40.7194277" lon="14.603055"><ele>513.4</ele><time>2026-04-06T13:40:41Z</time></trkpt><trkpt lat="40.7195214" lon="14.6031421"><ele>512.0</ele><time>2026-04-06T13:40:42Z</time></trkpt><trkpt lat="40.7196014" lon="14.6032346"><ele>512.0</ele><time>2026-04-06T13:40:43Z</time></trkpt><trkpt lat="40.719686" lon="14.6033281"><ele>512.0</ele><time>2026-04-06T13:40:44Z</time></trkpt><trkpt lat="40.7197748" lon="14.6034219"><ele>512.0</ele><time>2026-04-06T13:40:45Z</time></trkpt><trkpt lat="40.7198552" lon="14.6035242"><ele>512.0</ele><time>2026-04-06T13:40:46Z</time></trkpt><trkpt lat="40.7199261" lon="14.60363"><ele>512.0</ele><time>2026-04-06T13:40:47Z</time></trkpt><trkpt lat="40.7199917" lon="14.6037355"><ele>510.0</ele><time>2026-04-06T13:40:48Z</time></trkpt><trkpt lat="40.7200954" lon="14.6038272"><ele>508.0</ele><time>2026-04-06T13:40:49Z</time></trkpt><trkpt lat="40.720267" lon="14.6039077"><ele>506.0</ele><time>2026-04-06T13:40:50Z</time></trkpt><trkpt lat="40.7204102" lon="14.6040001"><ele>506.0</ele><time>2026-04-06T13:40:51Z</time></trkpt><trkpt lat="40.7205298" lon="14.6041085"><ele>506.0</ele><time>2026-04-06T13:40:52Z</time></trkpt><trkpt lat="40.7206754" lon="14.6042162"><ele>506.0</ele><time>2026-04-06T13:40:53Z</time></trkpt><trkpt lat="40.7208233" lon="14.6044052"><ele>505.0</ele><time>2026-04-06T13:40:54Z</time></trkpt><trkpt lat="40.7209839" lon="14.6045504"><ele>504.0</ele><time>2026-04-06T13:40:55Z</time></trkpt><trkpt lat="40.7211148" lon="14.6047027"><ele>503.0</ele><time>2026-04-06T13:40:56Z</time></trkpt><trkpt lat="40.7212607" lon="14.6048386"><ele>503.0</ele><time>2026-04-06T13:40:57Z</time></trkpt><trkpt lat="40.7214059" lon="14.6049584"><ele>503.0</ele><time>2026-04-06T13:40:58Z</time></trkpt><trkpt lat="40.7215584" lon="14.605087"><ele>503.0</ele><time>2026-04-06T13:40:59Z</time></trkpt><trkpt lat="40.7216783" lon="14.6051776"><ele>503.0</ele><time>2026-04-06T13:41:00Z</time></trkpt><trkpt lat="40.7218207" lon="14.6052854"><ele>503.0</ele><time>2026-04-06T13:41:00.999Z</time></trkpt><trkpt lat="40.7219412" lon="14.6053489"><ele>503.0</ele><time>2026-04-06T13:41:02Z</time></trkpt><trkpt lat="40.722074" lon="14.6054306"><ele>503.0</ele><time>2026-04-06T13:41:03Z</time></trkpt><trkpt lat="40.7222022" lon="14.6054775"><ele>502.66666666666663</ele><time>2026-04-06T13:41:04Z</time></trkpt><trkpt lat="40.7223614" lon="14.6054439"><ele>502.33333333333337</ele><time>2026-04-06T13:41:05Z</time></trkpt><trkpt lat="40.722476" lon="14.6052793"><ele>502.0</ele><time>2026-04-06T13:41:06Z</time></trkpt><trkpt lat="40.7226286" lon="14.6051829"><ele>506.0</ele><time>2026-04-06T13:41:06.999Z</time></trkpt><trkpt lat="40.7227593" lon="14.6050164"><ele>510.0</ele><time>2026-04-06T13:41:08Z</time></trkpt><trkpt lat="40.7228833" lon="14.6048242"><ele>514.0</ele><time>2026-04-06T13:41:09Z</time></trkpt><trkpt lat="40.7230483" lon="14.6046044"><ele>509.6666666666667</ele><time>2026-04-06T13:41:10Z</time></trkpt><trkpt lat="40.7231912" lon="14.6044285"><ele>505.33333333333337</ele><time>2026-04-06T13:41:11Z</time></trkpt><trkpt lat="40.7233211" lon="14.6042548"><ele>501.0</ele><time>2026-04-06T13:41:12Z</time></trkpt><trkpt lat="40.7234548" lon="14.6040992"><ele>500.0</ele><time>2026-04-06T13:41:13Z</time></trkpt><trkpt lat="40.7235668" lon="14.6039676"><ele>499.0</ele><time>2026-04-06T13:41:14Z</time></trkpt><trkpt lat="40.7236705" lon="14.6038373"><ele>498.0</ele><time>2026-04-06T13:41:14.999Z</time></trkpt><trkpt lat="40.7237614" lon="14.6037216"><ele>497.0</ele><time>2026-04-06T13:41:16Z</time></trkpt><trkpt lat="40.7238508" lon="14.6036307"><ele>497.0</ele><time>2026-04-06T13:41:17Z</time></trkpt><trkpt lat="40.7239418" lon="14.603543"><ele>497.0</ele><time>2026-04-06T13:41:18Z</time></trkpt><trkpt lat="40.7240324" lon="14.6036094"><ele>497.0</ele><time>2026-04-06T13:41:19Z</time></trkpt><trkpt lat="40.7241253" lon="14.6036573"><ele>497.0</ele><time>2026-04-06T13:41:19.999Z</time></trkpt><trkpt lat="40.7241641" lon="14.6038576"><ele>497.0</ele><time>2026-04-06T13:41:21Z</time></trkpt><trkpt lat="40.7242502" lon="14.6040287"><ele>497.0</ele><time>2026-04-06T13:41:22Z</time></trkpt><trkpt lat="40.724344" lon="14.6042163"><ele>497.0</ele><time>2026-04-06T13:41:23Z</time></trkpt><trkpt lat="40.724437" lon="14.6043982"><ele>483.3333333333333</ele><time>2026-04-06T13:41:24Z</time></trkpt><trkpt lat="40.7244961" lon="14.6045831"><ele>469.66666666666663</ele><time>2026-04-06T13:41:25Z</time></trkpt><trkpt lat="40.7245265" lon="14.6047715"><ele>456.0</ele><time>2026-04-06T13:41:26Z</time></trkpt><trkpt lat="40.7245538" lon="14.6049751"><ele>456.0</ele><time>2026-04-06T13:41:27Z</time></trkpt><trkpt lat="40.7246071" lon="14.6051622"><ele>456.0</ele><time>2026-04-06T13:41:27.999Z</time></trkpt><trkpt lat="40.7246688" lon="14.605324"><ele>456.0</ele><time>2026-04-06T13:41:29Z</time></trkpt><trkpt lat="40.7247077" lon="14.6054823"><ele>456.0</ele><time>2026-04-06T13:41:30Z</time></trkpt><trkpt lat="40.7247188" lon="14.6056181"><ele>454.5</ele><time>2026-04-06T13:41:31Z</time></trkpt><trkpt lat="40.7246957" lon="14.6057247"><ele>453.0</ele><time>2026-04-06T13:41:32Z</time></trkpt><trkpt lat="40.7246707" lon="14.6058357"><ele>451.5</ele><time>2026-04-06T13:41:32.999Z</time></trkpt><trkpt lat="40.7246261" lon="14.6059348"><ele>450.0</ele><time>2026-04-06T13:41:33.999Z</time></trkpt><trkpt lat="40.7244106" lon="14.6058418"><ele>459.25</ele><time>2026-04-06T13:41:35Z</time></trkpt><trkpt lat="40.7242975" lon="14.6058736"><ele>468.5</ele><time>2026-04-06T13:41:36Z</time></trkpt><trkpt lat="40.7241525" lon="14.6059061"><ele>477.75</ele><time>2026-04-06T13:41:37Z</time></trkpt><trkpt lat="40.7240346" lon="14.6059705"><ele>487.0</ele><time>2026-04-06T13:41:38Z</time></trkpt><trkpt lat="40.7239184" lon="14.6060158"><ele>487.0</ele><time>2026-04-06T13:41:39Z</time></trkpt><trkpt lat="40.7238003" lon="14.6060422"><ele>487.00000000000006</ele><time>2026-04-06T13:41:40Z</time></trkpt><trkpt lat="40.7236872" lon="14.606032"><ele>487.00000000000006</ele><time>2026-04-06T13:41:41Z</time></trkpt><trkpt lat="40.7235935" lon="14.6060258"><ele>487.0</ele><time>2026-04-06T13:41:42Z</time></trkpt><trkpt lat="40.7234977" lon="14.6060339"><ele>487.0</ele><time>2026-04-06T13:41:42.999Z</time></trkpt><trkpt lat="40.7234195" lon="14.6060537"><ele>489.00000000000006</ele><time>2026-04-06T13:41:44Z</time></trkpt><trkpt lat="40.7233377" lon="14.6060707"><ele>491.0</ele><time>2026-04-06T13:41:45Z</time></trkpt><trkpt lat="40.7232639" lon="14.6060951"><ele>493.0</ele><time>2026-04-06T13:41:46Z</time></trkpt><trkpt lat="40.7231977" lon="14.6061214"><ele>495.0</ele><time>2026-04-06T13:41:46.999Z</time></trkpt><trkpt lat="40.7231105" lon="14.6061739"><ele>497.00000000000006</ele><time>2026-04-06T13:41:49Z</time></trkpt><trkpt lat="40.723075" lon="14.6062587"><ele>499.0</ele><time>2026-04-06T13:41:51Z</time></trkpt><trkpt lat="40.7231303" lon="14.6063305"><ele>488.79999999999995</ele><time>2026-04-06T13:41:53Z</time></trkpt><trkpt lat="40.723259" lon="14.6062767"><ele>478.59999999999997</ele><time>2026-04-06T13:41:55Z</time></trkpt><trkpt lat="40.7233307" lon="14.6062227"><ele>468.4</ele><time>2026-04-06T13:41:56Z</time></trkpt><trkpt lat="40.7234112" lon="14.6061829"><ele>458.2</ele><time>2026-04-06T13:41:57Z</time></trkpt><trkpt lat="40.7234923" lon="14.6061703"><ele>448.0</ele><time>2026-04-06T13:41:58Z</time></trkpt><trkpt lat="40.7235722" lon="14.6061808"><ele>445.4</ele><time>2026-04-06T13:41:59Z</time></trkpt><trkpt lat="40.7236607" lon="14.6062031"><ele>442.79999999999995</ele><time>2026-04-06T13:42:00Z</time></trkpt><trkpt lat="40.7237601" lon="14.6062203"><ele>440.2</ele><time>2026-04-06T13:42:00.999Z</time></trkpt><trkpt lat="40.7238618" lon="14.6062218"><ele>437.6</ele><time>2026-04-06T13:42:02Z</time></trkpt><trkpt lat="40.7239636" lon="14.6062155"><ele>435.0</ele><time>2026-04-06T13:42:03Z</time></trkpt><trkpt lat="40.7240642" lon="14.6062054"><ele>435.0</ele><time>2026-04-06T13:42:04Z</time></trkpt><trkpt lat="40.7241711" lon="14.6061931"><ele>435.0</ele><time>2026-04-06T13:42:05Z</time></trkpt><trkpt lat="40.7242815" lon="14.60618"><ele>435.0</ele><time>2026-04-06T13:42:06Z</time></trkpt><trkpt lat="40.7243859" lon="14.6061871"><ele>435.0</ele><time>2026-04-06T13:42:07Z</time></trkpt><trkpt lat="40.7244816" lon="14.6062007"><ele>435.0</ele><time>2026-04-06T13:42:08Z</time></trkpt><trkpt lat="40.7245803" lon="14.6062029"><ele>438.0</ele><time>2026-04-06T13:42:09Z</time></trkpt><trkpt lat="40.7246786" lon="14.6061832"><ele>441.0</ele><time>2026-04-06T13:42:10Z</time></trkpt><trkpt lat="40.724775" lon="14.6061421"><ele>444.0</ele><time>2026-04-06T13:42:11Z</time></trkpt><trkpt lat="40.7248644" lon="14.6060951"><ele>447.0</ele><time>2026-04-06T13:42:12Z</time></trkpt><trkpt lat="40.7249517" lon="14.6060406"><ele>450.0</ele><time>2026-04-06T13:42:13Z</time></trkpt><trkpt lat="40.7250271" lon="14.6059748"><ele>450.0</ele><time>2026-04-06T13:42:14Z</time></trkpt><trkpt lat="40.7250888" lon="14.6058871"><ele>450.0</ele><time>2026-04-06T13:42:15Z</time></trkpt><trkpt lat="40.7251229" lon="14.6057787"><ele>450.0</ele><time>2026-04-06T13:42:16Z</time></trkpt><trkpt lat="40.7251358" lon="14.6056574"><ele>450.0</ele><time>2026-04-06T13:42:17Z</time></trkpt><trkpt lat="40.7251208" lon="14.6055342"><ele>450.0</ele><time>2026-04-06T13:42:18Z</time></trkpt><trkpt lat="40.7250843" lon="14.6054091"><ele>451.0</ele><time>2026-04-06T13:42:19Z</time></trkpt><trkpt lat="40.7250298" lon="14.6053014"><ele>452.0</ele><time>2026-04-06T13:42:20Z</time></trkpt><trkpt lat="40.725007" lon="14.6051909"><ele>453.0</ele><time>2026-04-06T13:42:21Z</time></trkpt><trkpt lat="40.7250022" lon="14.6050752"><ele>454.0</ele><time>2026-04-06T13:42:22Z</time></trkpt><trkpt lat="40.7250136" lon="14.6049691"><ele>455.0</ele><time>2026-04-06T13:42:23Z</time></trkpt><trkpt lat="40.7250411" lon="14.6048657"><ele>456.0</ele><time>2026-04-06T13:42:24Z</time></trkpt><trkpt lat="40.7250869" lon="14.6047962"><ele>456.0</ele><time>2026-04-06T13:42:25Z</time></trkpt><trkpt lat="40.7251294" lon="14.6047254"><ele>456.0</ele><time>2026-04-06T13:42:26Z</time></trkpt><trkpt lat="40.7251447" lon="14.6045597"><ele>456.0</ele><time>2026-04-06T13:42:28Z</time></trkpt><trkpt lat="40.7251122" lon="14.6044756"><ele>456.0</ele><time>2026-04-06T13:42:29Z</time></trkpt><trkpt lat="40.7250696" lon="14.6043824"><ele>456.0</ele><time>2026-04-06T13:42:30Z</time></trkpt><trkpt lat="40.7249983" lon="14.6042306"><ele>453.75</ele><time>2026-04-06T13:42:30.999Z</time></trkpt><trkpt lat="40.7249407" lon="14.6040598"><ele>451.5</ele><time>2026-04-06T13:42:32Z</time></trkpt><trkpt lat="40.7249009" lon="14.6038934"><ele>449.25</ele><time>2026-04-06T13:42:33Z</time></trkpt><trkpt lat="40.7248589" lon="14.6037288"><ele>447.0</ele><time>2026-04-06T13:42:34Z</time></trkpt><trkpt lat="40.7248225" lon="14.6035667"><ele>443.25</ele><time>2026-04-06T13:42:34.999Z</time></trkpt><trkpt lat="40.7247877" lon="14.6034071"><ele>439.5</ele><time>2026-04-06T13:42:36Z</time></trkpt><trkpt lat="40.7247643" lon="14.603246"><ele>435.75</ele><time>2026-04-06T13:42:37Z</time></trkpt><trkpt lat="40.7247468" lon="14.6030903"><ele>432.0</ele><time>2026-04-06T13:42:38Z</time></trkpt><trkpt lat="40.7247366" lon="14.6029372"><ele>429.25</ele><time>2026-04-06T13:42:39Z</time></trkpt><trkpt lat="40.7247278" lon="14.6027777"><ele>426.5</ele><time>2026-04-06T13:42:40Z</time></trkpt><trkpt lat="40.7247285" lon="14.6026248"><ele>423.75</ele><time>2026-04-06T13:42:41Z</time></trkpt><trkpt lat="40.7247426" lon="14.6024782"><ele>421.0</ele><time>2026-04-06T13:42:42Z</time></trkpt><trkpt lat="40.7247704" lon="14.6023403"><ele>421.00000000000006</ele><time>2026-04-06T13:42:43Z</time></trkpt><trkpt lat="40.7248018" lon="14.6022175"><ele>421.0</ele><time>2026-04-06T13:42:44Z</time></trkpt><trkpt lat="40.7248189" lon="14.6020982"><ele>421.0</ele><time>2026-04-06T13:42:45Z</time></trkpt><trkpt lat="40.7248121" lon="14.6019918"><ele>421.0</ele><time>2026-04-06T13:42:46Z</time></trkpt><trkpt lat="40.7247897" lon="14.6018914"><ele>421.00000000000006</ele><time>2026-04-06T13:42:47Z</time></trkpt><trkpt lat="40.7247657" lon="14.6017844"><ele>421.0</ele><time>2026-04-06T13:42:48Z</time></trkpt><trkpt lat="40.7247344" lon="14.6017075"><ele>421.83333333333337</ele><time>2026-04-06T13:42:49Z</time></trkpt><trkpt lat="40.7246571" lon="14.6016866"><ele>422.6666666666667</ele><time>2026-04-06T13:42:49.999Z</time></trkpt><trkpt lat="40.7246042" lon="14.60164"><ele>423.5</ele><time>2026-04-06T13:42:51Z</time></trkpt><trkpt lat="40.7245181" lon="14.6016468"><ele>424.33333333333337</ele><time>2026-04-06T13:42:52Z</time></trkpt><trkpt lat="40.724435" lon="14.6016503"><ele>425.1666666666667</ele><time>2026-04-06T13:42:53Z</time></trkpt><trkpt lat="40.724346" lon="14.6016522"><ele>426.0</ele><time>2026-04-06T13:42:54Z</time></trkpt><trkpt lat="40.7242496" lon="14.6016628"><ele>426.0</ele><time>2026-04-06T13:42:55Z</time></trkpt><trkpt lat="40.724159" lon="14.6016676"><ele>426.0</ele><time>2026-04-06T13:42:55.999Z</time></trkpt><trkpt lat="40.7240677" lon="14.6016693"><ele>426.0</ele><time>2026-04-06T13:42:57Z</time></trkpt><trkpt lat="40.7239663" lon="14.6016728"><ele>426.0</ele><time>2026-04-06T13:42:58Z</time></trkpt><trkpt lat="40.7238583" lon="14.6016793"><ele>426.0</ele><time>2026-04-06T13:42:58.999Z</time></trkpt><trkpt lat="40.7237554" lon="14.6016841"><ele>426.0</ele><time>2026-04-06T13:43:00Z</time></trkpt><trkpt lat="40.723655" lon="14.6016866"><ele>426.0</ele><time>2026-04-06T13:43:01Z</time></trkpt><trkpt lat="40.7235557" lon="14.601683"><ele>426.0</ele><time>2026-04-06T13:43:02Z</time></trkpt><trkpt lat="40.7234601" lon="14.601669"><ele>426.0</ele><time>2026-04-06T13:43:03Z</time></trkpt><trkpt lat="40.7233727" lon="14.6016529"><ele>426.0</ele><time>2026-04-06T13:43:04Z</time></trkpt><trkpt lat="40.7232894" lon="14.6016297"><ele>425.6666666666667</ele><time>2026-04-06T13:43:05Z</time></trkpt><trkpt lat="40.7232078" lon="14.6016045"><ele>425.33333333333337</ele><time>2026-04-06T13:43:06Z</time></trkpt><trkpt lat="40.7231253" lon="14.6015884"><ele>425.0</ele><time>2026-04-06T13:43:07Z</time></trkpt><trkpt lat="40.7230437" lon="14.6015739"><ele>424.6666666666667</ele><time>2026-04-06T13:43:08Z</time></trkpt><trkpt lat="40.7229623" lon="14.6015712"><ele>424.33333333333337</ele><time>2026-04-06T13:43:09Z</time></trkpt><trkpt lat="40.7228859" lon="14.6015914"><ele>424.0</ele><time>2026-04-06T13:43:10Z</time></trkpt><trkpt lat="40.7228067" lon="14.6016327"><ele>424.79999999999995</ele><time>2026-04-06T13:43:11Z</time></trkpt><trkpt lat="40.7227203" lon="14.6016886"><ele>425.59999999999997</ele><time>2026-04-06T13:43:12Z</time></trkpt><trkpt lat="40.7226286" lon="14.6017549"><ele>426.4</ele><time>2026-04-06T13:43:12.999Z</time></trkpt><trkpt lat="40.7225435" lon="14.6018466"><ele>427.2</ele><time>2026-04-06T13:43:14Z</time></trkpt><trkpt lat="40.7224658" lon="14.6019537"><ele>428.0</ele><time>2026-04-06T13:43:15Z</time></trkpt><trkpt lat="40.7223524" lon="14.6020641"><ele>428.0</ele><time>2026-04-06T13:43:15.999Z</time></trkpt><trkpt lat="40.7222707" lon="14.6022242"><ele>428.0</ele><time>2026-04-06T13:43:17Z</time></trkpt><trkpt lat="40.7221697" lon="14.6023687"><ele>428.0</ele><time>2026-04-06T13:43:18Z</time></trkpt><trkpt lat="40.7220844" lon="14.6023978"><ele>428.0</ele><time>2026-04-06T13:43:19Z</time></trkpt><trkpt lat="40.7219936" lon="14.6024889"><ele>428.0</ele><time>2026-04-06T13:43:20Z</time></trkpt><trkpt lat="40.721912" lon="14.6025673"><ele>428.0</ele><time>2026-04-06T13:43:21Z</time></trkpt><trkpt lat="40.7217623" lon="14.602555"><ele>428.0</ele><time>2026-04-06T13:43:22Z</time></trkpt><trkpt lat="40.7216125" lon="14.6023376"><ele>425.0</ele><time>2026-04-06T13:43:23Z</time></trkpt><trkpt lat="40.721436" lon="14.6022447"><ele>422.0</ele><time>2026-04-06T13:43:24Z</time></trkpt><trkpt lat="40.7212766" lon="14.6021635"><ele>419.0</ele><time>2026-04-06T13:43:25Z</time></trkpt><trkpt lat="40.7211155" lon="14.6020612"><ele>412.0</ele><time>2026-04-06T13:43:26Z</time></trkpt><trkpt lat="40.7209551" lon="14.6019264"><ele>405.0</ele><time>2026-04-06T13:43:27Z</time></trkpt><trkpt lat="40.7208009" lon="14.6017971"><ele>398.0</ele><time>2026-04-06T13:43:28Z</time></trkpt><trkpt lat="40.7206481" lon="14.6016257"><ele>398.0</ele><time>2026-04-06T13:43:29Z</time></trkpt><trkpt lat="40.720502" lon="14.6014424"><ele>398.0</ele><time>2026-04-06T13:43:30Z</time></trkpt><trkpt lat="40.7203692" lon="14.6012612"><ele>398.0</ele><time>2026-04-06T13:43:31Z</time></trkpt><trkpt lat="40.7202235" lon="14.6010704"><ele>399.0</ele><time>2026-04-06T13:43:32Z</time></trkpt><trkpt lat="40.7201183" lon="14.6008962"><ele>400.0</ele><time>2026-04-06T13:43:33Z</time></trkpt><trkpt lat="40.7199905" lon="14.6007084"><ele>401.0</ele><time>2026-04-06T13:43:33.999Z</time></trkpt><trkpt lat="40.7198978" lon="14.600506"><ele>386.5</ele><time>2026-04-06T13:43:35Z</time></trkpt><trkpt lat="40.7197834" lon="14.6002765"><ele>372.0</ele><time>2026-04-06T13:43:36Z</time></trkpt><trkpt lat="40.7197161" lon="14.5999562"><ele>372.0</ele><time>2026-04-06T13:43:37Z</time></trkpt><trkpt lat="40.7196619" lon="14.5997068"><ele>372.0</ele><time>2026-04-06T13:43:38Z</time></trkpt><trkpt lat="40.7195957" lon="14.5994811"><ele>372.0</ele><time>2026-04-06T13:43:39Z</time></trkpt><trkpt lat="40.7195157" lon="14.599265"><ele>377.0</ele><time>2026-04-06T13:43:40Z</time></trkpt><trkpt lat="40.7194499" lon="14.5990602"><ele>382.0</ele><time>2026-04-06T13:43:41Z</time></trkpt><trkpt lat="40.7193768" lon="14.5988563"><ele>387.0</ele><time>2026-04-06T13:43:41.999Z</time></trkpt><trkpt lat="40.7193037" lon="14.5986777"><ele>381.0</ele><time>2026-04-06T13:43:42.999Z</time></trkpt><trkpt lat="40.7191915" lon="14.5985711"><ele>375.0</ele><time>2026-04-06T13:43:44Z</time></trkpt><trkpt lat="40.7191045" lon="14.5984215"><ele>369.0</ele><time>2026-04-06T13:43:45Z</time></trkpt><trkpt lat="40.7190186" lon="14.5983281"><ele>363.0</ele><time>2026-04-06T13:43:46Z</time></trkpt><trkpt lat="40.719013" lon="14.5981707"><ele>363.0</ele><time>2026-04-06T13:43:48Z</time></trkpt><trkpt lat="40.7191053" lon="14.5981456"><ele>363.0</ele><time>2026-04-06T13:43:50Z</time></trkpt><trkpt lat="40.7191564" lon="14.5982278"><ele>363.0</ele><time>2026-04-06T13:43:51Z</time></trkpt><trkpt lat="40.71923" lon="14.5983704"><ele>363.0</ele><time>2026-04-06T13:43:52Z</time></trkpt><trkpt lat="40.7193208" lon="14.5985568"><ele>356.3333333333333</ele><time>2026-04-06T13:43:53Z</time></trkpt><trkpt lat="40.7194139" lon="14.5987553"><ele>349.66666666666663</ele><time>2026-04-06T13:43:54Z</time></trkpt><trkpt lat="40.7195288" lon="14.5990025"><ele>343.0</ele><time>2026-04-06T13:43:55Z</time></trkpt><trkpt lat="40.7196552" lon="14.599238"><ele>343.0</ele><time>2026-04-06T13:43:56Z</time></trkpt><trkpt lat="40.7197938" lon="14.5994727"><ele>343.0</ele><time>2026-04-06T13:43:57Z</time></trkpt><trkpt lat="40.7199288" lon="14.5996975"><ele>343.0</ele><time>2026-04-06T13:43:58Z</time></trkpt><trkpt lat="40.7200476" lon="14.5999062"><ele>338.66666666666663</ele><time>2026-04-06T13:43:59Z</time></trkpt><trkpt lat="40.7201598" lon="14.6001125"><ele>334.3333333333333</ele><time>2026-04-06T13:44:00Z</time></trkpt><trkpt lat="40.720267" lon="14.6002963"><ele>330.0</ele><time>2026-04-06T13:44:01Z</time></trkpt><trkpt lat="40.7203913" lon="14.6004655"><ele>340.3333333333333</ele><time>2026-04-06T13:44:02Z</time></trkpt><trkpt lat="40.7205093" lon="14.6006506"><ele>350.66666666666663</ele><time>2026-04-06T13:44:03Z</time></trkpt><trkpt lat="40.7206219" lon="14.6008135"><ele>361.0</ele><time>2026-04-06T13:44:04Z</time></trkpt><trkpt lat="40.7207575" lon="14.6009378"><ele>361.0</ele><time>2026-04-06T13:44:04.999Z</time></trkpt><trkpt lat="40.7209584" lon="14.601029"><ele>361.0</ele><time>2026-04-06T13:44:06Z</time></trkpt><trkpt lat="40.7211301" lon="14.6010711"><ele>361.0</ele><time>2026-04-06T13:44:07Z</time></trkpt><trkpt lat="40.7212784" lon="14.6010971"><ele>361.0</ele><time>2026-04-06T13:44:08Z</time></trkpt><trkpt lat="40.7214177" lon="14.6011038"><ele>361.0</ele><time>2026-04-06T13:44:09Z</time></trkpt><trkpt lat="40.7215452" lon="14.6011055"><ele>361.0</ele><time>2026-04-06T13:44:10Z</time></trkpt><trkpt lat="40.7216756" lon="14.6010619"><ele>361.0</ele><time>2026-04-06T13:44:11Z</time></trkpt><trkpt lat="40.7217479" lon="14.6009063"><ele>361.0</ele><time>2026-04-06T13:44:12Z</time></trkpt><trkpt lat="40.7218098" lon="14.6006532"><ele>361.0</ele><time>2026-04-06T13:44:13Z</time></trkpt><trkpt lat="40.721892" lon="14.6004542"><ele>361.0</ele><time>2026-04-06T13:44:14Z</time></trkpt><trkpt lat="40.7219909" lon="14.6002076"><ele>360.3333333333333</ele><time>2026-04-06T13:44:15Z</time></trkpt><trkpt lat="40.7220797" lon="14.600009"><ele>359.6666666666667</ele><time>2026-04-06T13:44:16Z</time></trkpt><trkpt lat="40.7221427" lon="14.5998465"><ele>359.0</ele><time>2026-04-06T13:44:17Z</time></trkpt><trkpt lat="40.7222126" lon="14.5996332"><ele>351.75</ele><time>2026-04-06T13:44:18Z</time></trkpt><trkpt lat="40.7222823" lon="14.5994489"><ele>344.5</ele><time>2026-04-06T13:44:19Z</time></trkpt><trkpt lat="40.7223995" lon="14.5994081"><ele>337.25</ele><time>2026-04-06T13:44:20Z</time></trkpt><trkpt lat="40.7224851" lon="14.5993047"><ele>330.0</ele><time>2026-04-06T13:44:21Z</time></trkpt><trkpt lat="40.7226528" lon="14.599315"><ele>335.0</ele><time>2026-04-06T13:44:22Z</time></trkpt><trkpt lat="40.7227771" lon="14.5993013"><ele>340.0</ele><time>2026-04-06T13:44:23Z</time></trkpt><trkpt lat="40.7229067" lon="14.5993031"><ele>345.0</ele><time>2026-04-06T13:44:24Z</time></trkpt><trkpt lat="40.7230047" lon="14.5994508"><ele>350.0</ele><time>2026-04-06T13:44:25Z</time></trkpt><trkpt lat="40.7231166" lon="14.5995698"><ele>350.0</ele><time>2026-04-06T13:44:26Z</time></trkpt><trkpt lat="40.7232327" lon="14.5996904"><ele>350.0</ele><time>2026-04-06T13:44:27Z</time></trkpt><trkpt lat="40.7233595" lon="14.5997915"><ele>350.0</ele><time>2026-04-06T13:44:28Z</time></trkpt><trkpt lat="40.7234827" lon="14.5998111"><ele>350.0</ele><time>2026-04-06T13:44:29Z</time></trkpt><trkpt lat="40.7236233" lon="14.5998319"><ele>347.5</ele><time>2026-04-06T13:44:30Z</time></trkpt><trkpt lat="40.7237728" lon="14.5998448"><ele>345.0</ele><time>2026-04-06T13:44:31Z</time></trkpt><trkpt lat="40.7239169" lon="14.5998263"><ele>342.5</ele><time>2026-04-06T13:44:32Z</time></trkpt><trkpt lat="40.7240529" lon="14.5997972"><ele>340.0</ele><time>2026-04-06T13:44:33Z</time></trkpt><trkpt lat="40.7242114" lon="14.5997497"><ele>340.0</ele><time>2026-04-06T13:44:34Z</time></trkpt><trkpt lat="40.7243615" lon="14.5996895"><ele>340.0</ele><time>2026-04-06T13:44:35Z</time></trkpt><trkpt lat="40.7244994" lon="14.5996374"><ele>340.0</ele><time>2026-04-06T13:44:36Z</time></trkpt><trkpt lat="40.7246382" lon="14.5995855"><ele>340.0</ele><time>2026-04-06T13:44:37Z</time></trkpt><trkpt lat="40.7247691" lon="14.5995371"><ele>332.0</ele><time>2026-04-06T13:44:38Z</time></trkpt><trkpt lat="40.7248895" lon="14.5994631"><ele>324.0</ele><time>2026-04-06T13:44:39Z</time></trkpt><trkpt lat="40.7250106" lon="14.599344"><ele>316.0</ele><time>2026-04-06T13:44:40Z</time></trkpt><trkpt lat="40.7251243" lon="14.5992662"><ele>308.0</ele><time>2026-04-06T13:44:41Z</time></trkpt><trkpt lat="40.7252266" lon="14.5991883"><ele>310.5</ele><time>2026-04-06T13:44:42Z</time></trkpt><trkpt lat="40.725343" lon="14.5991056"><ele>313.0</ele><time>2026-04-06T13:44:43Z</time></trkpt><trkpt lat="40.7254497" lon="14.5990291"><ele>315.5</ele><time>2026-04-06T13:44:44Z</time></trkpt><trkpt lat="40.7255731" lon="14.5989572"><ele>318.0</ele><time>2026-04-06T13:44:45Z</time></trkpt><trkpt lat="40.7256849" lon="14.598892"><ele>318.0</ele><time>2026-04-06T13:44:45.999Z</time></trkpt><trkpt lat="40.7258043" lon="14.5988529"><ele>318.0</ele><time>2026-04-06T13:44:47Z</time></trkpt><trkpt lat="40.7259136" lon="14.5987896"><ele>318.0</ele><time>2026-04-06T13:44:48Z</time></trkpt><trkpt lat="40.725997" lon="14.5987351"><ele>318.0</ele><time>2026-04-06T13:44:49Z</time></trkpt><trkpt lat="40.7260824" lon="14.5986551"><ele>318.0</ele><time>2026-04-06T13:44:50Z</time></trkpt><trkpt lat="40.7261514" lon="14.5985706"><ele>314.1666666666667</ele><time>2026-04-06T13:44:51Z</time></trkpt><trkpt lat="40.7262174" lon="14.598492"><ele>310.3333333333333</ele><time>2026-04-06T13:44:52Z</time></trkpt><trkpt lat="40.7262837" lon="14.5984119"><ele>306.5</ele><time>2026-04-06T13:44:53Z</time></trkpt><trkpt lat="40.7263501" lon="14.5983369"><ele>302.66666666666663</ele><time>2026-04-06T13:44:54Z</time></trkpt><trkpt lat="40.7264132" lon="14.5982569"><ele>298.8333333333333</ele><time>2026-04-06T13:44:55Z</time></trkpt><trkpt lat="40.7264814" lon="14.5981849"><ele>295.0</ele><time>2026-04-06T13:44:56Z</time></trkpt><trkpt lat="40.7265602" lon="14.598121"><ele>295.0</ele><time>2026-04-06T13:44:57Z</time></trkpt><trkpt lat="40.7266303" lon="14.5980494"><ele>295.0</ele><time>2026-04-06T13:44:58Z</time></trkpt><trkpt lat="40.7267198" lon="14.5979572"><ele>295.0</ele><time>2026-04-06T13:44:59Z</time></trkpt><trkpt lat="40.7267909" lon="14.5978634"><ele>295.0</ele><time>2026-04-06T13:44:59.999Z</time></trkpt><trkpt lat="40.7268739" lon="14.5977454"><ele>295.0</ele><time>2026-04-06T13:45:01Z</time></trkpt><trkpt lat="40.7269504" lon="14.5976497"><ele>292.0</ele><time>2026-04-06T13:45:01.999Z</time></trkpt><trkpt lat="40.727028" lon="14.5975582"><ele>289.0</ele><time>2026-04-06T13:45:03Z</time></trkpt><trkpt lat="40.7271111" lon="14.5974746"><ele>286.0</ele><time>2026-04-06T13:45:04Z</time></trkpt><trkpt lat="40.7272245" lon="14.5973875"><ele>283.0</ele><time>2026-04-06T13:45:05Z</time></trkpt><trkpt lat="40.7273531" lon="14.5973039"><ele>283.0</ele><time>2026-04-06T13:45:06Z</time></trkpt><trkpt lat="40.7275077" lon="14.5972237"><ele>283.0</ele><time>2026-04-06T13:45:07Z</time></trkpt><trkpt lat="40.7276469" lon="14.5971509"><ele>283.0</ele><time>2026-04-06T13:45:08Z</time></trkpt><trkpt lat="40.7277743" lon="14.5970814"><ele>281.6</ele><time>2026-04-06T13:45:09Z</time></trkpt><trkpt lat="40.7278821" lon="14.5970097"><ele>280.20000000000005</ele><time>2026-04-06T13:45:10Z</time></trkpt><trkpt lat="40.7279764" lon="14.5969522"><ele>278.8</ele><time>2026-04-06T13:45:11Z</time></trkpt><trkpt lat="40.7280516" lon="14.5968832"><ele>277.40000000000003</ele><time>2026-04-06T13:45:11.999Z</time></trkpt><trkpt lat="40.72809" lon="14.5967822"><ele>276.0</ele><time>2026-04-06T13:45:13Z</time></trkpt><trkpt lat="40.7281046" lon="14.5966672"><ele>276.0</ele><time>2026-04-06T13:45:14Z</time></trkpt><trkpt lat="40.7280903" lon="14.5965545"><ele>276.0</ele><time>2026-04-06T13:45:14.999Z</time></trkpt><trkpt lat="40.7280663" lon="14.5964491"><ele>276.0</ele><time>2026-04-06T13:45:16Z</time></trkpt><trkpt lat="40.7280121" lon="14.5963623"><ele>276.0</ele><time>2026-04-06T13:45:17Z</time></trkpt><trkpt lat="40.7279472" lon="14.5962994"><ele>276.0</ele><time>2026-04-06T13:45:17.999Z</time></trkpt><trkpt lat="40.7278823" lon="14.596262"><ele>276.0</ele><time>2026-04-06T13:45:19Z</time></trkpt><trkpt lat="40.7278165" lon="14.5962595"><ele>276.0</ele><time>2026-04-06T13:45:20Z</time></trkpt><trkpt lat="40.7277529" lon="14.5962753"><ele>276.0</ele><time>2026-04-06T13:45:21Z</time></trkpt><trkpt lat="40.7276911" lon="14.5962956"><ele>276.0</ele><time>2026-04-06T13:45:22Z</time></trkpt><trkpt lat="40.7276287" lon="14.5963266"><ele>276.0</ele><time>2026-04-06T13:45:23Z</time></trkpt><trkpt lat="40.7275534" lon="14.5963833"><ele>276.0</ele><time>2026-04-06T13:45:24Z</time></trkpt><trkpt lat="40.7274235" lon="14.5964695"><ele>276.0</ele><time>2026-04-06T13:45:25Z</time></trkpt><trkpt lat="40.7272733" lon="14.596568"><ele>274.0</ele><time>2026-04-06T13:45:25.999Z</time></trkpt><trkpt lat="40.7271224" lon="14.5966808"><ele>272.0</ele><time>2026-04-06T13:45:27Z</time></trkpt><trkpt lat="40.7269703" lon="14.5967918"><ele>270.0</ele><time>2026-04-06T13:45:27.999Z</time></trkpt><trkpt lat="40.7268329" lon="14.5969005"><ele>274.5</ele><time>2026-04-06T13:45:29Z</time></trkpt><trkpt lat="40.7267077" lon="14.5970044"><ele>279.0</ele><time>2026-04-06T13:45:29.999Z</time></trkpt><trkpt lat="40.7265922" lon="14.5971008"><ele>283.5</ele><time>2026-04-06T13:45:31Z</time></trkpt><trkpt lat="40.7264777" lon="14.5971879"><ele>288.0</ele><time>2026-04-06T13:45:32Z</time></trkpt><trkpt lat="40.7263683" lon="14.597269"><ele>288.0</ele><time>2026-04-06T13:45:33Z</time></trkpt><trkpt lat="40.726265" lon="14.5973423"><ele>288.0</ele><time>2026-04-06T13:45:34Z</time></trkpt><trkpt lat="40.7261782" lon="14.5974083"><ele>288.0</ele><time>2026-04-06T13:45:35Z</time></trkpt><trkpt lat="40.7260949" lon="14.5974704"><ele>288.0</ele><time>2026-04-06T13:45:36Z</time></trkpt><trkpt lat="40.7260192" lon="14.5975297"><ele>288.0</ele><time>2026-04-06T13:45:37Z</time></trkpt><trkpt lat="40.7259441" lon="14.5975874"><ele>289.3333333333333</ele><time>2026-04-06T13:45:38Z</time></trkpt><trkpt lat="40.7258599" lon="14.5976422"><ele>290.6666666666667</ele><time>2026-04-06T13:45:39Z</time></trkpt><trkpt lat="40.725779" lon="14.5976927"><ele>292.0</ele><time>2026-04-06T13:45:40Z</time></trkpt><trkpt lat="40.7256971" lon="14.5977439"><ele>293.33333333333337</ele><time>2026-04-06T13:45:41Z</time></trkpt><trkpt lat="40.7256161" lon="14.5977911"><ele>294.6666666666667</ele><time>2026-04-06T13:45:42Z</time></trkpt><trkpt lat="40.7255376" lon="14.5978387"><ele>296.0</ele><time>2026-04-06T13:45:43Z</time></trkpt><trkpt lat="40.7254639" lon="14.5978869"><ele>296.0</ele><time>2026-04-06T13:45:44Z</time></trkpt><trkpt lat="40.7254002" lon="14.5979229"><ele>296.0</ele><time>2026-04-06T13:45:44.999Z</time></trkpt><trkpt lat="40.7253281" lon="14.5979646"><ele>296.0</ele><time>2026-04-06T13:45:46Z</time></trkpt><trkpt lat="40.7252569" lon="14.5980057"><ele>296.0</ele><time>2026-04-06T13:45:47Z</time></trkpt><trkpt lat="40.7251898" lon="14.5980481"><ele>296.0</ele><time>2026-04-06T13:45:48Z</time></trkpt><trkpt lat="40.7251174" lon="14.5980897"><ele>296.0</ele><time>2026-04-06T13:45:49Z</time></trkpt><trkpt lat="40.7250387" lon="14.5981317"><ele>292.33333333333337</ele><time>2026-04-06T13:45:50Z</time></trkpt><trkpt lat="40.7249632" lon="14.5981737"><ele>288.6666666666667</ele><time>2026-04-06T13:45:51Z</time></trkpt><trkpt lat="40.7248906" lon="14.5982132"><ele>285.0</ele><time>2026-04-06T13:45:52Z</time></trkpt><trkpt lat="40.7248185" lon="14.5982479"><ele>281.3333333333333</ele><time>2026-04-06T13:45:53Z</time></trkpt><trkpt lat="40.7247384" lon="14.598286"><ele>277.66666666666663</ele><time>2026-04-06T13:45:54Z</time></trkpt><trkpt lat="40.7246636" lon="14.5983272"><ele>274.0</ele><time>2026-04-06T13:45:54.999Z</time></trkpt><trkpt lat="40.7245938" lon="14.5983607"><ele>274.0</ele><time>2026-04-06T13:45:56Z</time></trkpt><trkpt lat="40.7245204" lon="14.598395"><ele>274.0</ele><time>2026-04-06T13:45:57Z</time></trkpt><trkpt lat="40.7244468" lon="14.5984346"><ele>274.0</ele><time>2026-04-06T13:45:58Z</time></trkpt><trkpt lat="40.7243671" lon="14.5984571"><ele>274.0</ele><time>2026-04-06T13:45:59Z</time></trkpt><trkpt lat="40.7242887" lon="14.5984732"><ele>274.0</ele><time>2026-04-06T13:46:00Z</time></trkpt><trkpt lat="40.724219" lon="14.5984789"><ele>274.0</ele><time>2026-04-06T13:46:01Z</time></trkpt><trkpt lat="40.7241143" lon="14.5984821"><ele>270.8</ele><time>2026-04-06T13:46:03Z</time></trkpt><trkpt lat="40.7240074" lon="14.5984865"><ele>267.59999999999997</ele><time>2026-04-06T13:46:05Z</time></trkpt><trkpt lat="40.7239003" lon="14.5984691"><ele>264.4</ele><time>2026-04-06T13:46:06.999Z</time></trkpt><trkpt lat="40.723793" lon="14.5983884"><ele>261.2</ele><time>2026-04-06T13:46:09Z</time></trkpt><trkpt lat="40.7237444" lon="14.59831"><ele>258.0</ele><time>2026-04-06T13:46:10Z</time></trkpt><trkpt lat="40.7236956" lon="14.5982215"><ele>258.0</ele><time>2026-04-06T13:46:11Z</time></trkpt><trkpt lat="40.7236524" lon="14.5981325"><ele>258.0</ele><time>2026-04-06T13:46:12Z</time></trkpt><trkpt lat="40.7236103" lon="14.5980357"><ele>258.0</ele><time>2026-04-06T13:46:13Z</time></trkpt><trkpt lat="40.7235674" lon="14.5979512"><ele>258.0</ele><time>2026-04-06T13:46:14Z</time></trkpt><trkpt lat="40.7235172" lon="14.5978762"><ele>258.0</ele><time>2026-04-06T13:46:15Z</time></trkpt><trkpt lat="40.7234663" lon="14.5977949"><ele>258.0</ele><time>2026-04-06T13:46:16Z</time></trkpt><trkpt lat="40.7234118" lon="14.5977193"><ele>255.99999999999997</ele><time>2026-04-06T13:46:17Z</time></trkpt><trkpt lat="40.7233534" lon="14.597655"><ele>254.0</ele><time>2026-04-06T13:46:18Z</time></trkpt><trkpt lat="40.7233005" lon="14.5975986"><ele>251.99999999999997</ele><time>2026-04-06T13:46:18.999Z</time></trkpt><trkpt lat="40.7232509" lon="14.5975412"><ele>249.99999999999997</ele><time>2026-04-06T13:46:20Z</time></trkpt><trkpt lat="40.723204" lon="14.597482"><ele>248.0</ele><time>2026-04-06T13:46:21Z</time></trkpt><trkpt lat="40.7231447" lon="14.597437"><ele>245.99999999999997</ele><time>2026-04-06T13:46:22Z</time></trkpt><trkpt lat="40.7230796" lon="14.5974043"><ele>243.99999999999997</ele><time>2026-04-06T13:46:23Z</time></trkpt><trkpt lat="40.7229874" lon="14.597397"><ele>244.0</ele><time>2026-04-06T13:46:24Z</time></trkpt><trkpt lat="40.7228392" lon="14.5973896"><ele>244.0</ele><time>2026-04-06T13:46:25Z</time></trkpt><trkpt lat="40.7226991" lon="14.597366"><ele>244.0</ele><time>2026-04-06T13:46:26Z</time></trkpt><trkpt lat="40.7225756" lon="14.5973407"><ele>244.0</ele><time>2026-04-06T13:46:27Z</time></trkpt><trkpt lat="40.7224652" lon="14.5973203"><ele>245.33333333333331</ele><time>2026-04-06T13:46:28Z</time></trkpt><trkpt lat="40.7223309" lon="14.5972991"><ele>246.66666666666666</ele><time>2026-04-06T13:46:30Z</time></trkpt><trkpt lat="40.7222527" lon="14.597293"><ele>248.0</ele><time>2026-04-06T13:46:31Z</time></trkpt><trkpt lat="40.7221778" lon="14.5972784"><ele>249.33333333333331</ele><time>2026-04-06T13:46:32Z</time></trkpt><trkpt lat="40.7221119" lon="14.5972499"><ele>250.66666666666666</ele><time>2026-04-06T13:46:32.999Z</time></trkpt><trkpt lat="40.7220353" lon="14.597239"><ele>252.0</ele><time>2026-04-06T13:46:34Z</time></trkpt><trkpt lat="40.72194" lon="14.5972396"><ele>250.5</ele><time>2026-04-06T13:46:35Z</time></trkpt><trkpt lat="40.7218622" lon="14.5972382"><ele>249.0</ele><time>2026-04-06T13:46:36Z</time></trkpt><trkpt lat="40.7217901" lon="14.5972457"><ele>247.5</ele><time>2026-04-06T13:46:36.999Z</time></trkpt><trkpt lat="40.7217084" lon="14.597242"><ele>246.0</ele><time>2026-04-06T13:46:37.999Z</time></trkpt><trkpt lat="40.7216439" lon="14.5972946"><ele>244.5</ele><time>2026-04-06T13:46:39Z</time></trkpt><trkpt lat="40.7215807" lon="14.5973353"><ele>243.0</ele><time>2026-04-06T13:46:39.999Z</time></trkpt><trkpt lat="40.7215166" lon="14.5973812"><ele>243.0</ele><time>2026-04-06T13:46:41Z</time></trkpt><trkpt lat="40.7214593" lon="14.5974348"><ele>243.0</ele><time>2026-04-06T13:46:42Z</time></trkpt><trkpt lat="40.7213977" lon="14.5974736"><ele>243.0</ele><time>2026-04-06T13:46:43Z</time></trkpt><trkpt lat="40.7213369" lon="14.5975054"><ele>243.0</ele><time>2026-04-06T13:46:44Z</time></trkpt><trkpt lat="40.7212323" lon="14.5975264"><ele>243.0</ele><time>2026-04-06T13:46:46Z</time></trkpt><trkpt lat="40.7211571" lon="14.5974347"><ele>243.0</ele><time>2026-04-06T13:46:48Z</time></trkpt><trkpt lat="40.7211074" lon="14.5973205"><ele>243.66666666666666</ele><time>2026-04-06T13:46:50Z</time></trkpt><trkpt lat="40.7210562" lon="14.5971755"><ele>244.33333333333331</ele><time>2026-04-06T13:46:52Z</time></trkpt><trkpt lat="40.7210284" lon="14.5970992"><ele>245.0</ele><time>2026-04-06T13:46:53Z</time></trkpt><trkpt lat="40.7209965" lon="14.5970018"><ele>245.66666666666666</ele><time>2026-04-06T13:46:54Z</time></trkpt><trkpt lat="40.7209637" lon="14.5969101"><ele>246.33333333333331</ele><time>2026-04-06T13:46:55Z</time></trkpt><trkpt lat="40.7209432" lon="14.5968222"><ele>247.0</ele><time>2026-04-06T13:46:55.999Z</time></trkpt><trkpt lat="40.720917" lon="14.5967203"><ele>244.99999999999997</ele><time>2026-04-06T13:46:57Z</time></trkpt><trkpt lat="40.7208827" lon="14.5966176"><ele>243.0</ele><time>2026-04-06T13:46:58Z</time></trkpt><trkpt lat="40.7208505" lon="14.596509"><ele>241.0</ele><time>2026-04-06T13:46:59Z</time></trkpt><trkpt lat="40.7208175" lon="14.5964039"><ele>239.0</ele><time>2026-04-06T13:47:00Z</time></trkpt><trkpt lat="40.7207824" lon="14.5963048"><ele>236.99999999999997</ele><time>2026-04-06T13:47:01Z</time></trkpt><trkpt lat="40.7207399" lon="14.5962023"><ele>235.0</ele><time>2026-04-06T13:47:01.999Z</time></trkpt><trkpt lat="40.7206895" lon="14.5961114"><ele>233.57142857142856</ele><time>2026-04-06T13:47:03Z</time></trkpt><trkpt lat="40.7206426" lon="14.5960308"><ele>232.1428571428571</ele><time>2026-04-06T13:47:04Z</time></trkpt><trkpt lat="40.7206014" lon="14.5959576"><ele>230.71428571428572</ele><time>2026-04-06T13:47:05Z</time></trkpt><trkpt lat="40.7205647" lon="14.5958888"><ele>229.28571428571428</ele><time>2026-04-06T13:47:06Z</time></trkpt><trkpt lat="40.7205274" lon="14.5958088"><ele>227.85714285714286</ele><time>2026-04-06T13:47:07Z</time></trkpt><trkpt lat="40.7204879" lon="14.5957131"><ele>226.42857142857144</ele><time>2026-04-06T13:47:09Z</time></trkpt><trkpt lat="40.7204522" lon="14.5956137"><ele>225.00000000000003</ele><time>2026-04-06T13:47:11Z</time></trkpt><trkpt lat="40.7204264" lon="14.5955041"><ele>225.0</ele><time>2026-04-06T13:47:13Z</time></trkpt><trkpt lat="40.7204084" lon="14.5954065"><ele>225.0</ele><time>2026-04-06T13:47:15Z</time></trkpt><trkpt lat="40.7203911" lon="14.5953209"><ele>225.0</ele><time>2026-04-06T13:47:20Z</time></trkpt><trkpt lat="40.7203705" lon="14.5952267"><ele>225.0</ele><time>2026-04-06T13:47:24Z</time></trkpt><trkpt lat="40.7203154" lon="14.5951532"><ele>225.0</ele><time>2026-04-06T13:47:26Z</time></trkpt><trkpt lat="40.7202054" lon="14.5951082"><ele>225.0</ele><time>2026-04-06T13:47:28Z</time></trkpt><trkpt lat="40.7201044" lon="14.5950661"><ele>225.16666666666666</ele><time>2026-04-06T13:47:30Z</time></trkpt><trkpt lat="40.7200137" lon="14.5949971"><ele>225.33333333333331</ele><time>2026-04-06T13:47:32Z</time></trkpt><trkpt lat="40.719947" lon="14.5949102"><ele>225.5</ele><time>2026-04-06T13:47:34Z</time></trkpt><trkpt lat="40.7199081" lon="14.5948197"><ele>225.66666666666666</ele><time>2026-04-06T13:47:36Z</time></trkpt><trkpt lat="40.7198755" lon="14.5947409"><ele>225.83333333333331</ele><time>2026-04-06T13:47:38Z</time></trkpt><trkpt lat="40.7198503" lon="14.594655"><ele>226.0</ele><time>2026-04-06T13:47:40Z</time></trkpt><trkpt lat="40.7198414" lon="14.5945587"><ele>225.0</ele><time>2026-04-06T13:47:42Z</time></trkpt><trkpt lat="40.7198799" lon="14.5944889"><ele>224.0</ele><time>2026-04-06T13:47:44Z</time></trkpt><trkpt lat="40.7199358" lon="14.5944474"><ele>223.0</ele><time>2026-04-06T13:47:46Z</time></trkpt><trkpt lat="40.7199915" lon="14.5944057"><ele>222.0</ele><time>2026-04-06T13:47:48.999Z</time></trkpt><trkpt lat="40.7200531" lon="14.5943594"><ele>221.0</ele><time>2026-04-06T13:47:52Z</time></trkpt><trkpt lat="40.7201287" lon="14.5943044"><ele>220.0</ele><time>2026-04-06T13:47:54Z</time></trkpt><trkpt lat="40.7202044" lon="14.5942578"><ele>219.0</ele><time>2026-04-06T13:47:55Z</time></trkpt><trkpt lat="40.7202655" lon="14.5942286"><ele>218.0</ele><time>2026-04-06T13:47:56Z</time></trkpt><trkpt lat="40.7203573" lon="14.5941892"><ele>217.0</ele><time>2026-04-06T13:47:56.999Z</time></trkpt><trkpt lat="40.720439" lon="14.5941551"><ele>216.0</ele><time>2026-04-06T13:47:57.999Z</time></trkpt><trkpt lat="40.7205306" lon="14.5941124"><ele>215.0</ele><time>2026-04-06T13:47:59Z</time></trkpt><trkpt lat="40.7205991" lon="14.5940767"><ele>214.0</ele><time>2026-04-06T13:48:00Z</time></trkpt><trkpt lat="40.7206721" lon="14.5940549"><ele>213.0</ele><time>2026-04-06T13:48:01Z</time></trkpt><trkpt lat="40.7207574" lon="14.5940086"><ele>213.0</ele><time>2026-04-06T13:48:02Z</time></trkpt><trkpt lat="40.7208356" lon="14.5939745"><ele>213.0</ele><time>2026-04-06T13:48:03Z</time></trkpt><trkpt lat="40.7209104" lon="14.5939488"><ele>213.0</ele><time>2026-04-06T13:48:04Z</time></trkpt><trkpt lat="40.7209698" lon="14.5939175"><ele>213.0</ele><time>2026-04-06T13:48:04.999Z</time></trkpt><trkpt lat="40.7210543" lon="14.5938907"><ele>213.0</ele><time>2026-04-06T13:48:06Z</time></trkpt><trkpt lat="40.7211243" lon="14.5938633"><ele>213.0</ele><time>2026-04-06T13:48:07Z</time></trkpt><trkpt lat="40.721187" lon="14.593826"><ele>211.42857142857142</ele><time>2026-04-06T13:48:08Z</time></trkpt><trkpt lat="40.7212428" lon="14.593759"><ele>209.85714285714286</ele><time>2026-04-06T13:48:09Z</time></trkpt><trkpt lat="40.7212714" lon="14.5936719"><ele>208.28571428571428</ele><time>2026-04-06T13:48:10Z</time></trkpt><trkpt lat="40.7212911" lon="14.5935871"><ele>206.71428571428572</ele><time>2026-04-06T13:48:11Z</time></trkpt><trkpt lat="40.7213016" lon="14.5934989"><ele>205.14285714285714</ele><time>2026-04-06T13:48:12Z</time></trkpt><trkpt lat="40.7213274" lon="14.5934002"><ele>203.57142857142856</ele><time>2026-04-06T13:48:13Z</time></trkpt><trkpt lat="40.7213346" lon="14.5933024"><ele>202.0</ele><time>2026-04-06T13:48:14Z</time></trkpt><trkpt lat="40.7213939" lon="14.5932277"><ele>201.8</ele><time>2026-04-06T13:48:15Z</time></trkpt><trkpt lat="40.7214744" lon="14.5931139"><ele>201.6</ele><time>2026-04-06T13:48:17Z</time></trkpt><trkpt lat="40.7215346" lon="14.5930757"><ele>201.4</ele><time>2026-04-06T13:48:18Z</time></trkpt><trkpt lat="40.721631" lon="14.5930661"><ele>201.20000000000002</ele><time>2026-04-06T13:48:19Z</time></trkpt><trkpt lat="40.7217265" lon="14.5930844"><ele>201.0</ele><time>2026-04-06T13:48:20Z</time></trkpt><trkpt lat="40.7218283" lon="14.5931695"><ele>199.5</ele><time>2026-04-06T13:48:21Z</time></trkpt><trkpt lat="40.7219095" lon="14.5932151"><ele>198.0</ele><time>2026-04-06T13:48:22Z</time></trkpt><trkpt lat="40.7219918" lon="14.5932341"><ele>196.5</ele><time>2026-04-06T13:48:23Z</time></trkpt><trkpt lat="40.722075" lon="14.5932196"><ele>195.0</ele><time>2026-04-06T13:48:23.999Z</time></trkpt><trkpt lat="40.7221591" lon="14.5931844"><ele>193.5</ele><time>2026-04-06T13:48:25Z</time></trkpt><trkpt lat="40.7222375" lon="14.593154"><ele>192.0</ele><time>2026-04-06T13:48:26Z</time></trkpt><trkpt lat="40.7223187" lon="14.5930738"><ele>192.0</ele><time>2026-04-06T13:48:27Z</time></trkpt><trkpt lat="40.722393" lon="14.5930231"><ele>192.0</ele><time>2026-04-06T13:48:28Z</time></trkpt><trkpt lat="40.72248" lon="14.5929885"><ele>192.0</ele><time>2026-04-06T13:48:28.999Z</time></trkpt><trkpt lat="40.7225694" lon="14.5929533"><ele>192.0</ele><time>2026-04-06T13:48:30Z</time></trkpt><trkpt lat="40.7226802" lon="14.5929444"><ele>192.0</ele><time>2026-04-06T13:48:31Z</time></trkpt><trkpt lat="40.7227923" lon="14.5928997"><ele>189.8</ele><time>2026-04-06T13:48:32Z</time></trkpt><trkpt lat="40.7228962" lon="14.5928687"><ele>187.6</ele><time>2026-04-06T13:48:33Z</time></trkpt><trkpt lat="40.7229986" lon="14.5928324"><ele>185.4</ele><time>2026-04-06T13:48:34Z</time></trkpt><trkpt lat="40.7231059" lon="14.5927907"><ele>183.20000000000002</ele><time>2026-04-06T13:48:35Z</time></trkpt><trkpt lat="40.7232017" lon="14.5927463"><ele>181.0</ele><time>2026-04-06T13:48:36Z</time></trkpt><trkpt lat="40.723296" lon="14.5926962"><ele>181.0</ele><time>2026-04-06T13:48:37Z</time></trkpt><trkpt lat="40.7233716" lon="14.5926422"><ele>181.0</ele><time>2026-04-06T13:48:38Z</time></trkpt><trkpt lat="40.7234287" lon="14.5925699"><ele>181.0</ele><time>2026-04-06T13:48:39Z</time></trkpt><trkpt lat="40.7234677" lon="14.5924767"><ele>181.0</ele><time>2026-04-06T13:48:40Z</time></trkpt><trkpt lat="40.7234917" lon="14.5923755"><ele>181.0</ele><time>2026-04-06T13:48:41Z</time></trkpt><trkpt lat="40.7234962" lon="14.5922721"><ele>181.0</ele><time>2026-04-06T13:48:41.999Z</time></trkpt><trkpt lat="40.7235065" lon="14.5921822"><ele>179.60000000000002</ele><time>2026-04-06T13:48:43Z</time></trkpt><trkpt lat="40.7235959" lon="14.5920647"><ele>178.2</ele><time>2026-04-06T13:48:44.999Z</time></trkpt><trkpt lat="40.7237372" lon="14.5920525"><ele>176.8</ele><time>2026-04-06T13:48:47Z</time></trkpt><trkpt lat="40.7238069" lon="14.5920828"><ele>175.39999999999998</ele><time>2026-04-06T13:48:48Z</time></trkpt><trkpt lat="40.7238586" lon="14.5921475"><ele>174.0</ele><time>2026-04-06T13:48:49Z</time></trkpt><trkpt lat="40.7239054" lon="14.5922486"><ele>174.0</ele><time>2026-04-06T13:48:50Z</time></trkpt><trkpt lat="40.7239526" lon="14.5923586"><ele>174.0</ele><time>2026-04-06T13:48:50.999Z</time></trkpt><trkpt lat="40.7240062" lon="14.5924527"><ele>174.0</ele><time>2026-04-06T13:48:52Z</time></trkpt><trkpt lat="40.7240694" lon="14.5925435"><ele>174.0</ele><time>2026-04-06T13:48:53Z</time></trkpt><trkpt lat="40.7241452" lon="14.5926068"><ele>174.0</ele><time>2026-04-06T13:48:54Z</time></trkpt><trkpt lat="40.724218" lon="14.5926555"><ele>174.0</ele><time>2026-04-06T13:48:55Z</time></trkpt><trkpt lat="40.72429" lon="14.5926995"><ele>174.0</ele><time>2026-04-06T13:48:56Z</time></trkpt><trkpt lat="40.7243542" lon="14.5927556"><ele>174.0</ele><time>2026-04-06T13:48:56.999Z</time></trkpt><trkpt lat="40.7244028" lon="14.5928278"><ele>174.0</ele><time>2026-04-06T13:48:58Z</time></trkpt><trkpt lat="40.7244403" lon="14.5929124"><ele>174.0</ele><time>2026-04-06T13:48:58.999Z</time></trkpt><trkpt lat="40.7244641" lon="14.5930079"><ele>174.0</ele><time>2026-04-06T13:49:00Z</time></trkpt><trkpt lat="40.724483" lon="14.5931095"><ele>173.0</ele><time>2026-04-06T13:49:01Z</time></trkpt><trkpt lat="40.7244958" lon="14.5932084"><ele>172.0</ele><time>2026-04-06T13:49:02Z</time></trkpt><trkpt lat="40.7245091" lon="14.5932941"><ele>171.0</ele><time>2026-04-06T13:49:03Z</time></trkpt><trkpt lat="40.7245213" lon="14.593377"><ele>170.0</ele><time>2026-04-06T13:49:04Z</time></trkpt><trkpt lat="40.7245381" lon="14.5934598"><ele>169.0</ele><time>2026-04-06T13:49:05Z</time></trkpt><trkpt lat="40.7246228" lon="14.593479"><ele>168.0</ele><time>2026-04-06T13:49:06Z</time></trkpt><trkpt lat="40.7247197" lon="14.5934975"><ele>168.0</ele><time>2026-04-06T13:49:08Z</time></trkpt><trkpt lat="40.7248048" lon="14.5933639"><ele>168.0</ele><time>2026-04-06T13:49:09Z</time></trkpt><trkpt lat="40.7248716" lon="14.5932719"><ele>168.0</ele><time>2026-04-06T13:49:10Z</time></trkpt><trkpt lat="40.7249195" lon="14.5932058"><ele>168.0</ele><time>2026-04-06T13:49:11Z</time></trkpt><trkpt lat="40.7249731" lon="14.5931206"><ele>168.0</ele><time>2026-04-06T13:49:12Z</time></trkpt><trkpt lat="40.7250074" lon="14.5930323"><ele>168.0</ele><time>2026-04-06T13:49:13Z</time></trkpt><trkpt lat="40.7250282" lon="14.5929372"><ele>168.0</ele><time>2026-04-06T13:49:14Z</time></trkpt><trkpt lat="40.7250303" lon="14.5928324"><ele>168.0</ele><time>2026-04-06T13:49:15Z</time></trkpt><trkpt lat="40.7250173" lon="14.592718"><ele>168.0</ele><time>2026-04-06T13:49:16Z</time></trkpt><trkpt lat="40.7249983" lon="14.5925924"><ele>168.0</ele><time>2026-04-06T13:49:17Z</time></trkpt><trkpt lat="40.7249779" lon="14.5924707"><ele>168.0</ele><time>2026-04-06T13:49:18Z</time></trkpt><trkpt lat="40.724956" lon="14.5923591"><ele>168.0</ele><time>2026-04-06T13:49:19Z</time></trkpt><trkpt lat="40.7249311" lon="14.5922447"><ele>168.0</ele><time>2026-04-06T13:49:20Z</time></trkpt><trkpt lat="40.7249012" lon="14.592128"><ele>168.0</ele><time>2026-04-06T13:49:21Z</time></trkpt><trkpt lat="40.7248647" lon="14.5920207"><ele>168.0</ele><time>2026-04-06T13:49:22Z</time></trkpt><trkpt lat="40.7248305" lon="14.5919174"><ele>168.0</ele><time>2026-04-06T13:49:23Z</time></trkpt><trkpt lat="40.7248028" lon="14.5917981"><ele>167.2</ele><time>2026-04-06T13:49:24Z</time></trkpt><trkpt lat="40.7247991" lon="14.5916966"><ele>166.4</ele><time>2026-04-06T13:49:25Z</time></trkpt><trkpt lat="40.7247937" lon="14.5916058"><ele>165.6</ele><time>2026-04-06T13:49:26Z</time></trkpt><trkpt lat="40.7248421" lon="14.5914704"><ele>164.79999999999998</ele><time>2026-04-06T13:49:28Z</time></trkpt><trkpt lat="40.7249568" lon="14.5914108"><ele>164.0</ele><time>2026-04-06T13:49:30Z</time></trkpt><trkpt lat="40.7250397" lon="14.5913868"><ele>164.0</ele><time>2026-04-06T13:49:31Z</time></trkpt><trkpt lat="40.7251167" lon="14.5913668"><ele>164.0</ele><time>2026-04-06T13:49:32Z</time></trkpt><trkpt lat="40.7251974" lon="14.5913372"><ele>164.0</ele><time>2026-04-06T13:49:33Z</time></trkpt><trkpt lat="40.7252796" lon="14.5913155"><ele>164.0</ele><time>2026-04-06T13:49:34Z</time></trkpt><trkpt lat="40.725383" lon="14.5912781"><ele>164.0</ele><time>2026-04-06T13:49:35Z</time></trkpt><trkpt lat="40.7255005" lon="14.5912437"><ele>162.0</ele><time>2026-04-06T13:49:36Z</time></trkpt><trkpt lat="40.7256078" lon="14.5912306"><ele>160.0</ele><time>2026-04-06T13:49:36.999Z</time></trkpt><trkpt lat="40.7257273" lon="14.5911865"><ele>158.0</ele><time>2026-04-06T13:49:38Z</time></trkpt><trkpt lat="40.7258824" lon="14.5911563"><ele>156.0</ele><time>2026-04-06T13:49:39Z</time></trkpt><trkpt lat="40.7260594" lon="14.5911261"><ele>153.5</ele><time>2026-04-06T13:49:40Z</time></trkpt><trkpt lat="40.7262001" lon="14.5910749"><ele>151.0</ele><time>2026-04-06T13:49:41Z</time></trkpt><trkpt lat="40.72634" lon="14.5910386"><ele>148.5</ele><time>2026-04-06T13:49:42Z</time></trkpt><trkpt lat="40.7264767" lon="14.5909981"><ele>146.0</ele><time>2026-04-06T13:49:43Z</time></trkpt><trkpt lat="40.7266066" lon="14.5909628"><ele>146.0</ele><time>2026-04-06T13:49:44Z</time></trkpt><trkpt lat="40.7267397" lon="14.5909286"><ele>146.0</ele><time>2026-04-06T13:49:45Z</time></trkpt><trkpt lat="40.7268696" lon="14.5908903"><ele>146.0</ele><time>2026-04-06T13:49:46Z</time></trkpt><trkpt lat="40.7269944" lon="14.5908512"><ele>146.0</ele><time>2026-04-06T13:49:47Z</time></trkpt><trkpt lat="40.727124" lon="14.5908204"><ele>144.8</ele><time>2026-04-06T13:49:47.999Z</time></trkpt><trkpt lat="40.7272483" lon="14.5907599"><ele>143.6</ele><time>2026-04-06T13:49:49Z</time></trkpt><trkpt lat="40.7273257" lon="14.5907299"><ele>142.4</ele><time>2026-04-06T13:49:49.999Z</time></trkpt><trkpt lat="40.7274426" lon="14.5907018"><ele>141.2</ele><time>2026-04-06T13:49:51Z</time></trkpt><trkpt lat="40.7275523" lon="14.5906877"><ele>140.0</ele><time>2026-04-06T13:49:52Z</time></trkpt><trkpt lat="40.7276721" lon="14.5906397"><ele>138.8</ele><time>2026-04-06T13:49:53Z</time></trkpt><trkpt lat="40.7278018" lon="14.5905784"><ele>137.6</ele><time>2026-04-06T13:49:54Z</time></trkpt><trkpt lat="40.7279064" lon="14.5905785"><ele>136.4</ele><time>2026-04-06T13:49:55Z</time></trkpt><trkpt lat="40.7280063" lon="14.5905494"><ele>135.2</ele><time>2026-04-06T13:49:56Z</time></trkpt><trkpt lat="40.7280757" lon="14.5905004"><ele>134.0</ele><time>2026-04-06T13:49:57Z</time></trkpt><trkpt lat="40.728145" lon="14.5904985"><ele>134.0</ele><time>2026-04-06T13:49:58Z</time></trkpt><trkpt lat="40.7282346" lon="14.5904886"><ele>134.0</ele><time>2026-04-06T13:49:59Z</time></trkpt><trkpt lat="40.7283246" lon="14.5905315"><ele>134.0</ele><time>2026-04-06T13:50:00Z</time></trkpt><trkpt lat="40.7283537" lon="14.5906436"><ele>134.0</ele><time>2026-04-06T13:50:01Z</time></trkpt><trkpt lat="40.7284144" lon="14.5907178"><ele>134.0</ele><time>2026-04-06T13:50:01.999Z</time></trkpt><trkpt lat="40.7284779" lon="14.590786"><ele>134.0</ele><time>2026-04-06T13:50:03Z</time></trkpt><trkpt lat="40.7285396" lon="14.5908614"><ele>132.83333333333331</ele><time>2026-04-06T13:50:04Z</time></trkpt><trkpt lat="40.7285966" lon="14.5909328"><ele>131.66666666666666</ele><time>2026-04-06T13:50:05Z</time></trkpt><trkpt lat="40.7286528" lon="14.5909994"><ele>130.5</ele><time>2026-04-06T13:50:05.999Z</time></trkpt><trkpt lat="40.7287104" lon="14.5910552"><ele>129.33333333333334</ele><time>2026-04-06T13:50:07Z</time></trkpt><trkpt lat="40.7287819" lon="14.5910813"><ele>128.16666666666669</ele><time>2026-04-06T13:50:08Z</time></trkpt><trkpt lat="40.7288693" lon="14.5910754"><ele>127.0</ele><time>2026-04-06T13:50:09Z</time></trkpt><trkpt lat="40.728958" lon="14.5910359"><ele>127.0</ele><time>2026-04-06T13:50:10Z</time></trkpt><trkpt lat="40.7290538" lon="14.5909696"><ele>126.99999999999999</ele><time>2026-04-06T13:50:11Z</time></trkpt><trkpt lat="40.7291401" lon="14.5909164"><ele>126.99999999999999</ele><time>2026-04-06T13:50:11.999Z</time></trkpt><trkpt lat="40.7292313" lon="14.5908648"><ele>127.0</ele><time>2026-04-06T13:50:13Z</time></trkpt><trkpt lat="40.7293237" lon="14.590807"><ele>127.0</ele><time>2026-04-06T13:50:14Z</time></trkpt><trkpt lat="40.729411" lon="14.5907531"><ele>125.50000000000001</ele><time>2026-04-06T13:50:15Z</time></trkpt><trkpt lat="40.7295027" lon="14.5907197"><ele>124.0</ele><time>2026-04-06T13:50:16Z</time></trkpt><trkpt lat="40.7295727" lon="14.590684"><ele>122.5</ele><time>2026-04-06T13:50:17Z</time></trkpt><trkpt lat="40.7296534" lon="14.5906433"><ele>121.0</ele><time>2026-04-06T13:50:18Z</time></trkpt><trkpt lat="40.7297419" lon="14.5906802"><ele>119.50000000000001</ele><time>2026-04-06T13:50:19Z</time></trkpt><trkpt lat="40.7298284" lon="14.5907335"><ele>118.0</ele><time>2026-04-06T13:50:20Z</time></trkpt><trkpt lat="40.729898" lon="14.5907755"><ele>118.0</ele><time>2026-04-06T13:50:21Z</time></trkpt><trkpt lat="40.7299462" lon="14.5908947"><ele>118.00000000000001</ele><time>2026-04-06T13:50:22Z</time></trkpt><trkpt lat="40.7299914" lon="14.5909801"><ele>118.00000000000001</ele><time>2026-04-06T13:50:23Z</time></trkpt><trkpt lat="40.7299788" lon="14.5911432"><ele>118.0</ele><time>2026-04-06T13:50:24Z</time></trkpt><trkpt lat="40.7299957" lon="14.591323"><ele>118.0</ele><time>2026-04-06T13:50:25Z</time></trkpt><trkpt lat="40.7300203" lon="14.5914417"><ele>118.60000000000001</ele><time>2026-04-06T13:50:26Z</time></trkpt><trkpt lat="40.7300299" lon="14.5915862"><ele>119.20000000000002</ele><time>2026-04-06T13:50:27Z</time></trkpt><trkpt lat="40.7300494" lon="14.5916866"><ele>119.8</ele><time>2026-04-06T13:50:27.999Z</time></trkpt><trkpt lat="40.7300986" lon="14.5917684"><ele>120.4</ele><time>2026-04-06T13:50:29Z</time></trkpt><trkpt lat="40.7301755" lon="14.5918242"><ele>121.0</ele><time>2026-04-06T13:50:30Z</time></trkpt><trkpt lat="40.7302671" lon="14.5918641"><ele>119.0</ele><time>2026-04-06T13:50:31Z</time></trkpt><trkpt lat="40.7303847" lon="14.5918936"><ele>117.0</ele><time>2026-04-06T13:50:32Z</time></trkpt><trkpt lat="40.7305" lon="14.5919196"><ele>115.0</ele><time>2026-04-06T13:50:33Z</time></trkpt><trkpt lat="40.7306207" lon="14.5919541"><ele>113.0</ele><time>2026-04-06T13:50:34Z</time></trkpt><trkpt lat="40.7307243" lon="14.5920004"><ele>112.5</ele><time>2026-04-06T13:50:35Z</time></trkpt><trkpt lat="40.730843" lon="14.5920374"><ele>112.0</ele><time>2026-04-06T13:50:36Z</time></trkpt><trkpt lat="40.730945" lon="14.592091"><ele>111.5</ele><time>2026-04-06T13:50:37Z</time></trkpt><trkpt lat="40.7310671" lon="14.5922044"><ele>111.0</ele><time>2026-04-06T13:50:38Z</time></trkpt><trkpt lat="40.7311625" lon="14.5922928"><ele>109.75</ele><time>2026-04-06T13:50:39Z</time></trkpt><trkpt lat="40.7312486" lon="14.5923913"><ele>108.5</ele><time>2026-04-06T13:50:40Z</time></trkpt><trkpt lat="40.7313408" lon="14.5924926"><ele>107.25</ele><time>2026-04-06T13:50:41Z</time></trkpt><trkpt lat="40.7314288" lon="14.5925864"><ele>106.0</ele><time>2026-04-06T13:50:42Z</time></trkpt><trkpt lat="40.7315151" lon="14.5926814"><ele>106.0</ele><time>2026-04-06T13:50:43Z</time></trkpt><trkpt lat="40.7315945" lon="14.5927835"><ele>106.0</ele><time>2026-04-06T13:50:43.999Z</time></trkpt><trkpt lat="40.7316674" lon="14.5929035"><ele>106.0</ele><time>2026-04-06T13:50:45Z</time></trkpt><trkpt lat="40.7317282" lon="14.5930286"><ele>106.0</ele><time>2026-04-06T13:50:46Z</time></trkpt><trkpt lat="40.7317952" lon="14.5931534"><ele>105.4</ele><time>2026-04-06T13:50:46.999Z</time></trkpt><trkpt lat="40.7318696" lon="14.5932767"><ele>104.8</ele><time>2026-04-06T13:50:48Z</time></trkpt><trkpt lat="40.7319278" lon="14.5933344"><ele>104.2</ele><time>2026-04-06T13:50:49Z</time></trkpt><trkpt lat="40.7320253" lon="14.5934027"><ele>103.60000000000001</ele><time>2026-04-06T13:50:50Z</time></trkpt><trkpt lat="40.7321054" lon="14.5934545"><ele>103.0</ele><time>2026-04-06T13:50:51Z</time></trkpt><trkpt lat="40.7322313" lon="14.5934865"><ele>101.25</ele><time>2026-04-06T13:50:52Z</time></trkpt><trkpt lat="40.7323528" lon="14.5935207"><ele>99.5</ele><time>2026-04-06T13:50:53Z</time></trkpt><trkpt lat="40.7324715" lon="14.5935631"><ele>97.75</ele><time>2026-04-06T13:50:54Z</time></trkpt><trkpt lat="40.7325797" lon="14.5936099"><ele>96.0</ele><time>2026-04-06T13:50:55Z</time></trkpt><trkpt lat="40.732669" lon="14.5936328"><ele>95.0</ele><time>2026-04-06T13:50:56Z</time></trkpt><trkpt lat="40.7327517" lon="14.5936688"><ele>94.0</ele><time>2026-04-06T13:50:57Z</time></trkpt><trkpt lat="40.7328342" lon="14.5936863"><ele>93.0</ele><time>2026-04-06T13:50:58Z</time></trkpt><trkpt lat="40.7328909" lon="14.5937316"><ele>92.0</ele><time>2026-04-06T13:50:59Z</time></trkpt><trkpt lat="40.7329618" lon="14.5937963"><ele>91.0</ele><time>2026-04-06T13:51:00Z</time></trkpt><trkpt lat="40.732996" lon="14.5939202"><ele>90.0</ele><time>2026-04-06T13:51:01Z</time></trkpt><trkpt lat="40.7330308" lon="14.5940321"><ele>90.0</ele><time>2026-04-06T13:51:02Z</time></trkpt><trkpt lat="40.7330531" lon="14.5941681"><ele>90.0</ele><time>2026-04-06T13:51:03Z</time></trkpt><trkpt lat="40.7330858" lon="14.5942918"><ele>90.0</ele><time>2026-04-06T13:51:04Z</time></trkpt><trkpt lat="40.7330672" lon="14.5944294"><ele>90.0</ele><time>2026-04-06T13:51:05Z</time></trkpt><trkpt lat="40.7330693" lon="14.5945818"><ele>90.0</ele><time>2026-04-06T13:51:05.999Z</time></trkpt><trkpt lat="40.7330607" lon="14.5947245"><ele>89.6</ele><time>2026-04-06T13:51:07Z</time></trkpt><trkpt lat="40.7330383" lon="14.5948405"><ele>89.2</ele><time>2026-04-06T13:51:08Z</time></trkpt><trkpt lat="40.7329894" lon="14.5949668"><ele>88.80000000000001</ele><time>2026-04-06T13:51:09Z</time></trkpt><trkpt lat="40.7329425" lon="14.5951106"><ele>88.4</ele><time>2026-04-06T13:51:09.999Z</time></trkpt><trkpt lat="40.732902" lon="14.5952503"><ele>88.0</ele><time>2026-04-06T13:51:11Z</time></trkpt><trkpt lat="40.7328678" lon="14.5953877"><ele>87.60000000000001</ele><time>2026-04-06T13:51:11.999Z</time></trkpt><trkpt lat="40.732842" lon="14.5955249"><ele>87.2</ele><time>2026-04-06T13:51:13Z</time></trkpt><trkpt lat="40.7328128" lon="14.5956596"><ele>86.8</ele><time>2026-04-06T13:51:14Z</time></trkpt><trkpt lat="40.7328006" lon="14.5957906"><ele>86.4</ele><time>2026-04-06T13:51:15Z</time></trkpt><trkpt lat="40.7327953" lon="14.5959276"><ele>86.0</ele><time>2026-04-06T13:51:16Z</time></trkpt><trkpt lat="40.7328014" lon="14.5960711"><ele>85.6</ele><time>2026-04-06T13:51:17Z</time></trkpt><trkpt lat="40.7328162" lon="14.5962068"><ele>85.19999999999999</ele><time>2026-04-06T13:51:18Z</time></trkpt><trkpt lat="40.7328496" lon="14.5963389"><ele>84.80000000000001</ele><time>2026-04-06T13:51:18.999Z</time></trkpt><trkpt lat="40.7329007" lon="14.5964503"><ele>84.4</ele><time>2026-04-06T13:51:20Z</time></trkpt><trkpt lat="40.7329772" lon="14.5965324"><ele>84.0</ele><time>2026-04-06T13:51:21Z</time></trkpt><trkpt lat="40.7330773" lon="14.596597"><ele>84.0</ele><time>2026-04-06T13:51:22Z</time></trkpt><trkpt lat="40.7331927" lon="14.5966545"><ele>84.0</ele><time>2026-04-06T13:51:23Z</time></trkpt><trkpt lat="40.7333063" lon="14.5967112"><ele>84.0</ele><time>2026-04-06T13:51:24Z</time></trkpt><trkpt lat="40.7333936" lon="14.5967572"><ele>84.0</ele><time>2026-04-06T13:51:25Z</time></trkpt><trkpt lat="40.7334575" lon="14.5967883"><ele>84.0</ele><time>2026-04-06T13:51:26Z</time></trkpt><trkpt lat="40.7335435" lon="14.5968326"><ele>83.0</ele><time>2026-04-06T13:51:28Z</time></trkpt><trkpt lat="40.7336452" lon="14.5968639"><ele>82.0</ele><time>2026-04-06T13:51:32Z</time></trkpt><trkpt lat="40.7337205" lon="14.5969006"><ele>81.0</ele><time>2026-04-06T13:51:34Z</time></trkpt><trkpt lat="40.7338037" lon="14.5969462"><ele>80.0</ele><time>2026-04-06T13:51:35Z</time></trkpt><trkpt lat="40.7338833" lon="14.5969887"><ele>79.0</ele><time>2026-04-06T13:51:36Z</time></trkpt><trkpt lat="40.7339864" lon="14.5970407"><ele>78.0</ele><time>2026-04-06T13:51:37Z</time></trkpt><trkpt lat="40.7341118" lon="14.5971075"><ele>77.0</ele><time>2026-04-06T13:51:38Z</time></trkpt><trkpt lat="40.734251" lon="14.5971649"><ele>76.0</ele><time>2026-04-06T13:51:39Z</time></trkpt><trkpt lat="40.7343806" lon="14.5972202"><ele>75.0</ele><time>2026-04-06T13:51:39.999Z</time></trkpt><trkpt lat="40.7345147" lon="14.5972749"><ele>73.66666666666667</ele><time>2026-04-06T13:51:41Z</time></trkpt><trkpt lat="40.7346541" lon="14.5973322"><ele>72.33333333333334</ele><time>2026-04-06T13:51:42Z</time></trkpt><trkpt lat="40.7348033" lon="14.5973917"><ele>71.0</ele><time>2026-04-06T13:51:43Z</time></trkpt><trkpt lat="40.7349489" lon="14.5974496"><ele>71.0</ele><time>2026-04-06T13:51:44Z</time></trkpt><trkpt lat="40.7350793" lon="14.5975031"><ele>71.0</ele><time>2026-04-06T13:51:45Z</time></trkpt><trkpt lat="40.7351992" lon="14.59755"><ele>71.0</ele><time>2026-04-06T13:51:46Z</time></trkpt><trkpt lat="40.7353114" lon="14.597594"><ele>71.0</ele><time>2026-04-06T13:51:47Z</time></trkpt><trkpt lat="40.7354281" lon="14.5976381"><ele>69.8</ele><time>2026-04-06T13:51:48Z</time></trkpt><trkpt lat="40.735532" lon="14.597695"><ele>68.6</ele><time>2026-04-06T13:51:49Z</time></trkpt><trkpt lat="40.7356473" lon="14.5977649"><ele>67.4</ele><time>2026-04-06T13:51:50Z</time></trkpt><trkpt lat="40.7357253" lon="14.5978023"><ele>66.2</ele><time>2026-04-06T13:51:51Z</time></trkpt><trkpt lat="40.7358022" lon="14.5978437"><ele>65.0</ele><time>2026-04-06T13:51:52Z</time></trkpt><trkpt lat="40.7358741" lon="14.5978738"><ele>64.66666666666667</ele><time>2026-04-06T13:51:53Z</time></trkpt><trkpt lat="40.7359478" lon="14.5979118"><ele>64.33333333333334</ele><time>2026-04-06T13:51:54Z</time></trkpt><trkpt lat="40.7360069" lon="14.5979454"><ele>64.0</ele><time>2026-04-06T13:51:55Z</time></trkpt><trkpt lat="40.7360685" lon="14.5980438"><ele>63.66666666666667</ele><time>2026-04-06T13:51:57Z</time></trkpt><trkpt lat="40.736091" lon="14.5981245"><ele>63.333333333333336</ele><time>2026-04-06T13:51:58Z</time></trkpt><trkpt lat="40.7361092" lon="14.5982294"><ele>63.0</ele><time>2026-04-06T13:51:59Z</time></trkpt><trkpt lat="40.7361184" lon="14.5983467"><ele>61.4</ele><time>2026-04-06T13:52:00Z</time></trkpt><trkpt lat="40.7361242" lon="14.5984714"><ele>59.8</ele><time>2026-04-06T13:52:01Z</time></trkpt><trkpt lat="40.7361263" lon="14.598594"><ele>58.2</ele><time>2026-04-06T13:52:02Z</time></trkpt><trkpt lat="40.7361351" lon="14.5987157"><ele>56.6</ele><time>2026-04-06T13:52:03Z</time></trkpt><trkpt lat="40.7361347" lon="14.5988311"><ele>55.0</ele><time>2026-04-06T13:52:03.999Z</time></trkpt><trkpt lat="40.7361299" lon="14.5989422"><ele>54.666666666666664</ele><time>2026-04-06T13:52:05Z</time></trkpt><trkpt lat="40.736121" lon="14.5990528"><ele>54.33333333333333</ele><time>2026-04-06T13:52:06Z</time></trkpt><trkpt lat="40.7361339" lon="14.5991665"><ele>54.0</ele><time>2026-04-06T13:52:07.999Z</time></trkpt><trkpt lat="40.736213" lon="14.5991444"><ele>53.66666666666667</ele><time>2026-04-06T13:52:10Z</time></trkpt><trkpt lat="40.7362715" lon="14.5990939"><ele>53.333333333333336</ele><time>2026-04-06T13:52:11Z</time></trkpt><trkpt lat="40.7363378" lon="14.5990367"><ele>53.0</ele><time>2026-04-06T13:52:12Z</time></trkpt><trkpt lat="40.7364062" lon="14.5989851"><ele>53.00000000000001</ele><time>2026-04-06T13:52:13Z</time></trkpt><trkpt lat="40.736484" lon="14.5989562"><ele>53.0</ele><time>2026-04-06T13:52:14Z</time></trkpt><trkpt lat="40.7365613" lon="14.5989407"><ele>53.0</ele><time>2026-04-06T13:52:15Z</time></trkpt><trkpt lat="40.7366471" lon="14.5989386"><ele>53.0</ele><time>2026-04-06T13:52:16Z</time></trkpt><trkpt lat="40.7367332" lon="14.5989623"><ele>53.00000000000001</ele><time>2026-04-06T13:52:17Z</time></trkpt><trkpt lat="40.7368205" lon="14.5989926"><ele>53.0</ele><time>2026-04-06T13:52:18Z</time></trkpt><trkpt lat="40.7369005" lon="14.5990244"><ele>52.57142857142858</ele><time>2026-04-06T13:52:18.999Z</time></trkpt><trkpt lat="40.7369679" lon="14.5990632"><ele>52.14285714285714</ele><time>2026-04-06T13:52:19.999Z</time></trkpt><trkpt lat="40.7370209" lon="14.5991223"><ele>51.714285714285715</ele><time>2026-04-06T13:52:21Z</time></trkpt><trkpt lat="40.7370725" lon="14.5991961"><ele>51.28571428571429</ele><time>2026-04-06T13:52:22Z</time></trkpt><trkpt lat="40.7371195" lon="14.5992708"><ele>50.85714285714286</ele><time>2026-04-06T13:52:23Z</time></trkpt><trkpt lat="40.737167" lon="14.5993384"><ele>50.42857142857143</ele><time>2026-04-06T13:52:24Z</time></trkpt><trkpt lat="40.737215" lon="14.5994039"><ele>50.0</ele><time>2026-04-06T13:52:25Z</time></trkpt><trkpt lat="40.7372664" lon="14.5995539"><ele>49.6</ele><time>2026-04-06T13:52:27Z</time></trkpt><trkpt lat="40.7372813" lon="14.5996373"><ele>49.2</ele><time>2026-04-06T13:52:28Z</time></trkpt><trkpt lat="40.7373008" lon="14.5997929"><ele>48.8</ele><time>2026-04-06T13:52:30Z</time></trkpt><trkpt lat="40.7372908" lon="14.5998937"><ele>48.4</ele><time>2026-04-06T13:52:33Z</time></trkpt><trkpt lat="40.7373376" lon="14.5999669"><ele>48.0</ele><time>2026-04-06T13:52:37Z</time></trkpt><trkpt lat="40.7374589" lon="14.599925"><ele>48.0</ele><time>2026-04-06T13:52:43Z</time></trkpt><trkpt lat="40.7375387" lon="14.599983"><ele>48.0</ele><time>2026-04-06T13:52:45Z</time></trkpt><trkpt lat="40.7376078" lon="14.6000721"><ele>48.0</ele><time>2026-04-06T13:52:46Z</time></trkpt><trkpt lat="40.7376454" lon="14.6001403"><ele>48.0</ele><time>2026-04-06T13:52:47Z</time></trkpt><trkpt lat="40.7376823" lon="14.6002184"><ele>48.0</ele><time>2026-04-06T13:52:48Z</time></trkpt><trkpt lat="40.7377253" lon="14.6002986"><ele>48.0</ele><time>2026-04-06T13:52:49Z</time></trkpt><trkpt lat="40.7377845" lon="14.6003755"><ele>47.333333333333336</ele><time>2026-04-06T13:52:50Z</time></trkpt><trkpt lat="40.7378353" lon="14.6004581"><ele>46.666666666666664</ele><time>2026-04-06T13:52:51Z</time></trkpt><trkpt lat="40.7378861" lon="14.6005382"><ele>46.0</ele><time>2026-04-06T13:52:52Z</time></trkpt><trkpt lat="40.7379322" lon="14.6006196"><ele>45.33333333333333</ele><time>2026-04-06T13:52:53Z</time></trkpt><trkpt lat="40.7379772" lon="14.6007017"><ele>44.666666666666664</ele><time>2026-04-06T13:52:54Z</time></trkpt><trkpt lat="40.7380255" lon="14.6007798"><ele>44.0</ele><time>2026-04-06T13:52:55Z</time></trkpt><trkpt lat="40.7380699" lon="14.6008663"><ele>44.0</ele><time>2026-04-06T13:52:56Z</time></trkpt><trkpt lat="40.7381124" lon="14.6009451"><ele>44.0</ele><time>2026-04-06T13:52:56.999Z</time></trkpt><trkpt lat="40.7381489" lon="14.6010178"><ele>44.0</ele><time>2026-04-06T13:52:58Z</time></trkpt><trkpt lat="40.7381912" lon="14.6010933"><ele>44.0</ele><time>2026-04-06T13:52:59Z</time></trkpt><trkpt lat="40.7382324" lon="14.6011711"><ele>44.0</ele><time>2026-04-06T13:53:00Z</time></trkpt><trkpt lat="40.738268" lon="14.6012529"><ele>44.0</ele><time>2026-04-06T13:53:01Z</time></trkpt><trkpt lat="40.7383147" lon="14.6013352"><ele>44.0</ele><time>2026-04-06T13:53:02Z</time></trkpt><trkpt lat="40.7383532" lon="14.6014208"><ele>44.166666666666664</ele><time>2026-04-06T13:53:03Z</time></trkpt><trkpt lat="40.7384024" lon="14.6014999"><ele>44.33333333333333</ele><time>2026-04-06T13:53:04Z</time></trkpt><trkpt lat="40.7384456" lon="14.6015699"><ele>44.5</ele><time>2026-04-06T13:53:05Z</time></trkpt><trkpt lat="40.7384919" lon="14.6016617"><ele>44.666666666666664</ele><time>2026-04-06T13:53:08Z</time></trkpt><trkpt lat="40.7385522" lon="14.6017407"><ele>44.833333333333336</ele><time>2026-04-06T13:53:10Z</time></trkpt><trkpt lat="40.7386072" lon="14.6018002"><ele>45.0</ele><time>2026-04-06T13:53:11Z</time></trkpt><trkpt lat="40.7386724" lon="14.601871"><ele>44.5</ele><time>2026-04-06T13:53:12Z</time></trkpt><trkpt lat="40.7387388" lon="14.6019557"><ele>44.0</ele><time>2026-04-06T13:53:13Z</time></trkpt><trkpt lat="40.7388034" lon="14.6020472"><ele>43.5</ele><time>2026-04-06T13:53:14Z</time></trkpt><trkpt lat="40.7388598" lon="14.602133"><ele>43.0</ele><time>2026-04-06T13:53:15Z</time></trkpt><trkpt lat="40.7389119" lon="14.602216"><ele>42.5</ele><time>2026-04-06T13:53:16Z</time></trkpt><trkpt lat="40.7389571" lon="14.6022988"><ele>42.0</ele><time>2026-04-06T13:53:16.999Z</time></trkpt><trkpt lat="40.7390196" lon="14.6023841"><ele>42.0</ele><time>2026-04-06T13:53:17.999Z</time></trkpt><trkpt lat="40.7390703" lon="14.6024653"><ele>42.0</ele><time>2026-04-06T13:53:19Z</time></trkpt><trkpt lat="40.7391143" lon="14.6025407"><ele>42.0</ele><time>2026-04-06T13:53:20Z</time></trkpt><trkpt lat="40.739174" lon="14.6026122"><ele>42.0</ele><time>2026-04-06T13:53:21Z</time></trkpt><trkpt lat="40.739244" lon="14.6026784"><ele>42.0</ele><time>2026-04-06T13:53:22Z</time></trkpt><trkpt lat="40.7393239" lon="14.6027208"><ele>42.0</ele><time>2026-04-06T13:53:23Z</time></trkpt><trkpt lat="40.7393905" lon="14.6027716"><ele>41.8</ele><time>2026-04-06T13:53:24Z</time></trkpt><trkpt lat="40.7394606" lon="14.6028156"><ele>41.6</ele><time>2026-04-06T13:53:24.999Z</time></trkpt><trkpt lat="40.7395445" lon="14.6028465"><ele>41.4</ele><time>2026-04-06T13:53:25.999Z</time></trkpt><trkpt lat="40.7396353" lon="14.602896"><ele>41.199999999999996</ele><time>2026-04-06T13:53:27Z</time></trkpt><trkpt lat="40.7397295" lon="14.6029478"><ele>41.0</ele><time>2026-04-06T13:53:28Z</time></trkpt><trkpt lat="40.7398268" lon="14.602999"><ele>41.0</ele><time>2026-04-06T13:53:29Z</time></trkpt><trkpt lat="40.7399186" lon="14.6030552"><ele>41.0</ele><time>2026-04-06T13:53:30Z</time></trkpt><trkpt lat="40.7400202" lon="14.6031023"><ele>41.0</ele><time>2026-04-06T13:53:30.999Z</time></trkpt><trkpt lat="40.7400984" lon="14.603161"><ele>41.0</ele><time>2026-04-06T13:53:32Z</time></trkpt><trkpt lat="40.7401798" lon="14.6032021"><ele>41.0</ele><time>2026-04-06T13:53:33Z</time></trkpt><trkpt lat="40.740259" lon="14.6032393"><ele>40.5</ele><time>2026-04-06T13:53:34Z</time></trkpt><trkpt lat="40.740332" lon="14.6032663"><ele>40.0</ele><time>2026-04-06T13:53:35Z</time></trkpt><trkpt lat="40.7403966" lon="14.6032885"><ele>39.5</ele><time>2026-04-06T13:53:35.999Z</time></trkpt><trkpt lat="40.7405022" lon="14.6033418"><ele>39.0</ele><time>2026-04-06T13:53:38Z</time></trkpt><trkpt lat="40.7405677" lon="14.603407"><ele>38.5</ele><time>2026-04-06T13:53:40Z</time></trkpt><trkpt lat="40.740607" lon="14.603493"><ele>38.0</ele><time>2026-04-06T13:53:42Z</time></trkpt><trkpt lat="40.740705" lon="14.6035418"><ele>38.0</ele><time>2026-04-06T13:53:44Z</time></trkpt><trkpt lat="40.7408359" lon="14.6035547"><ele>38.0</ele><time>2026-04-06T13:53:46Z</time></trkpt><trkpt lat="40.7409327" lon="14.6035742"><ele>38.0</ele><time>2026-04-06T13:53:47Z</time></trkpt><trkpt lat="40.7410412" lon="14.6036147"><ele>38.0</ele><time>2026-04-06T13:53:48Z</time></trkpt><trkpt lat="40.7411572" lon="14.6036673"><ele>38.25</ele><time>2026-04-06T13:53:49Z</time></trkpt><trkpt lat="40.7412826" lon="14.6037332"><ele>38.5</ele><time>2026-04-06T13:53:50Z</time></trkpt><trkpt lat="40.7414134" lon="14.6037897"><ele>38.75</ele><time>2026-04-06T13:53:51Z</time></trkpt><trkpt lat="40.7415288" lon="14.6038464"><ele>39.0</ele><time>2026-04-06T13:53:52Z</time></trkpt><trkpt lat="40.7416317" lon="14.6038958"><ele>39.0</ele><time>2026-04-06T13:53:53Z</time></trkpt><trkpt lat="40.7417256" lon="14.6039443"><ele>39.0</ele><time>2026-04-06T13:53:54Z</time></trkpt><trkpt lat="40.7418133" lon="14.6039835"><ele>39.0</ele><time>2026-04-06T13:53:55Z</time></trkpt><trkpt lat="40.7419161" lon="14.6040639"><ele>39.0</ele><time>2026-04-06T13:53:57Z</time></trkpt><trkpt lat="40.7420217" lon="14.604114"><ele>39.0</ele><time>2026-04-06T13:53:58.999Z</time></trkpt><trkpt lat="40.7421063" lon="14.6041012"><ele>38.2</ele><time>2026-04-06T13:54:00Z</time></trkpt><trkpt lat="40.7421993" lon="14.6040845"><ele>37.4</ele><time>2026-04-06T13:54:01Z</time></trkpt><trkpt lat="40.7423053" lon="14.6040766"><ele>36.6</ele><time>2026-04-06T13:54:02Z</time></trkpt><trkpt lat="40.7424232" lon="14.6040645"><ele>35.8</ele><time>2026-04-06T13:54:03Z</time></trkpt><trkpt lat="40.7425457" lon="14.6040545"><ele>35.0</ele><time>2026-04-06T13:54:04Z</time></trkpt><trkpt lat="40.7426668" lon="14.6040568"><ele>34.6</ele><time>2026-04-06T13:54:05Z</time></trkpt><trkpt lat="40.7427862" lon="14.6040686"><ele>34.2</ele><time>2026-04-06T13:54:06Z</time></trkpt><trkpt lat="40.7429057" lon="14.6040806"><ele>33.8</ele><time>2026-04-06T13:54:07Z</time></trkpt><trkpt lat="40.7430076" lon="14.6040963"><ele>33.4</ele><time>2026-04-06T13:54:07.999Z</time></trkpt><trkpt lat="40.7431102" lon="14.6041138"><ele>33.0</ele><time>2026-04-06T13:54:09Z</time></trkpt><trkpt lat="40.7432082" lon="14.604126"><ele>33.0</ele><time>2026-04-06T13:54:10Z</time></trkpt><trkpt lat="40.7432831" lon="14.6041376"><ele>33.0</ele><time>2026-04-06T13:54:11Z</time></trkpt><trkpt lat="40.7433585" lon="14.6041516"><ele>33.0</ele><time>2026-04-06T13:54:12Z</time></trkpt><trkpt lat="40.7434309" lon="14.6041611"><ele>33.0</ele><time>2026-04-06T13:54:13Z</time></trkpt><trkpt lat="40.7435081" lon="14.6041837"><ele>33.0</ele><time>2026-04-06T13:54:14Z</time></trkpt><trkpt lat="40.7435913" lon="14.6042087"><ele>33.0</ele><time>2026-04-06T13:54:15Z</time></trkpt><trkpt lat="40.7436775" lon="14.6042333"><ele>32.5</ele><time>2026-04-06T13:54:16Z</time></trkpt><trkpt lat="40.7437756" lon="14.6042566"><ele>32.0</ele><time>2026-04-06T13:54:17Z</time></trkpt><trkpt lat="40.7438844" lon="14.6042775"><ele>31.5</ele><time>2026-04-06T13:54:18Z</time></trkpt><trkpt lat="40.7440046" lon="14.6042976"><ele>31.0</ele><time>2026-04-06T13:54:19Z</time></trkpt><trkpt lat="40.7441249" lon="14.6043125"><ele>31.0</ele><time>2026-04-06T13:54:20Z</time></trkpt><trkpt lat="40.7442399" lon="14.6043205"><ele>31.0</ele><time>2026-04-06T13:54:21Z</time></trkpt><trkpt lat="40.7443614" lon="14.6043219"><ele>31.0</ele><time>2026-04-06T13:54:22Z</time></trkpt><trkpt lat="40.7444851" lon="14.604316"><ele>31.0</ele><time>2026-04-06T13:54:23Z</time></trkpt><trkpt lat="40.7445995" lon="14.6043075"><ele>30.75</ele><time>2026-04-06T13:54:24Z</time></trkpt><trkpt lat="40.7447227" lon="14.6042888"><ele>30.5</ele><time>2026-04-06T13:54:24.999Z</time></trkpt><trkpt lat="40.7448434" lon="14.6042737"><ele>30.25</ele><time>2026-04-06T13:54:26Z</time></trkpt><trkpt lat="40.7449573" lon="14.604256"><ele>30.0</ele><time>2026-04-06T13:54:27Z</time></trkpt><trkpt lat="40.7450542" lon="14.6042421"><ele>30.0</ele><time>2026-04-06T13:54:28Z</time></trkpt><trkpt lat="40.7451328" lon="14.6042278"><ele>30.0</ele><time>2026-04-06T13:54:29Z</time></trkpt><trkpt lat="40.7452068" lon="14.6042168"><ele>30.0</ele><time>2026-04-06T13:54:29.999Z</time></trkpt><trkpt lat="40.7452748" lon="14.6042115"><ele>30.0</ele><time>2026-04-06T13:54:31Z</time></trkpt><trkpt lat="40.7453434" lon="14.6042058"><ele>30.0</ele><time>2026-04-06T13:54:31.999Z</time></trkpt><trkpt lat="40.7454223" lon="14.6041951"><ele>30.0</ele><time>2026-04-06T13:54:33Z</time></trkpt><trkpt lat="40.7455101" lon="14.6041844"><ele>29.0</ele><time>2026-04-06T13:54:34Z</time></trkpt><trkpt lat="40.7456032" lon="14.6041769"><ele>29.0</ele><time>2026-04-06T13:54:35Z</time></trkpt><trkpt lat="40.7457007" lon="14.6041697"><ele>29.0</ele><time>2026-04-06T13:54:35.999Z</time></trkpt><trkpt lat="40.7457995" lon="14.6041635"><ele>29.0</ele><time>2026-04-06T13:54:36.999Z</time></trkpt><trkpt lat="40.7458962" lon="14.6041585"><ele>29.0</ele><time>2026-04-06T13:54:38Z</time></trkpt></trkseg></trk></gpx>